<?xml version="1.0" encoding="UTF-8" standalone="no" ?>
<gpx xmlns="http://www.topografix.com/GPX/1/1" xmlns:xsi="http://www.w3.org/2001/XMLSchema-instance" xsi:schemaLocation="http://www.topografix.com/GPX/1/1 http://www.topografix.com/GPX/1/1/gpx.xsd" version="1.1" creator="VisuGPX - https://www.visugpx.com">
  <metadata>
    <name>RANDO LE MEOUT</name>
  </metadata>
  <trk>
    <name><![CDATA[RANDO LE MEOUT_1]]></name>
    <trkseg>
      <trkpt lat="43.95563" lon="2.19721">
        <ele>173</ele>
        <time>2020-08-25T07:59:14.000Z</time>
      </trkpt>
      <trkpt lat="43.95568" lon="2.19718">
        <ele>172</ele>
        <time>2020-08-25T07:59:19.308Z</time>
      </trkpt>
      <trkpt lat="43.95569" lon="2.19718">
        <ele>172</ele>
        <time>2020-08-25T07:59:20.308Z</time>
      </trkpt>
      <trkpt lat="43.9557" lon="2.19718">
        <ele>172</ele>
        <time>2020-08-25T07:59:21.308Z</time>
      </trkpt>
      <trkpt lat="43.95571" lon="2.19718">
        <ele>172</ele>
        <time>2020-08-25T07:59:22.308Z</time>
      </trkpt>
      <trkpt lat="43.95573" lon="2.19719">
        <ele>172</ele>
        <time>2020-08-25T07:59:23.308Z</time>
      </trkpt>
      <trkpt lat="43.95574" lon="2.19719">
        <ele>173</ele>
        <time>2020-08-25T07:59:24.308Z</time>
      </trkpt>
      <trkpt lat="43.95575" lon="2.19719">
        <ele>173</ele>
        <time>2020-08-25T07:59:25.308Z</time>
      </trkpt>
      <trkpt lat="43.95576" lon="2.19719">
        <ele>173</ele>
        <time>2020-08-25T07:59:26.308Z</time>
      </trkpt>
      <trkpt lat="43.95578" lon="2.19719">
        <ele>173</ele>
        <time>2020-08-25T07:59:27.308Z</time>
      </trkpt>
      <trkpt lat="43.95579" lon="2.1972">
        <ele>173</ele>
        <time>2020-08-25T07:59:28.308Z</time>
      </trkpt>
      <trkpt lat="43.9558" lon="2.1972">
        <ele>173</ele>
        <time>2020-08-25T07:59:29.308Z</time>
      </trkpt>
      <trkpt lat="43.95581" lon="2.1972">
        <ele>173</ele>
        <time>2020-08-25T07:59:30.308Z</time>
      </trkpt>
      <trkpt lat="43.95582" lon="2.1972">
        <ele>173</ele>
        <time>2020-08-25T07:59:31.308Z</time>
      </trkpt>
      <trkpt lat="43.95583" lon="2.1972">
        <ele>174</ele>
        <time>2020-08-25T07:59:32.308Z</time>
      </trkpt>
      <trkpt lat="43.95584" lon="2.1972">
        <ele>174</ele>
        <time>2020-08-25T07:59:33.308Z</time>
      </trkpt>
      <trkpt lat="43.95585" lon="2.1972">
        <ele>174</ele>
        <time>2020-08-25T07:59:34.308Z</time>
      </trkpt>
      <trkpt lat="43.95586" lon="2.1972">
        <ele>174</ele>
        <time>2020-08-25T07:59:35.308Z</time>
      </trkpt>
      <trkpt lat="43.95587" lon="2.1972">
        <ele>174</ele>
        <time>2020-08-25T07:59:36.308Z</time>
      </trkpt>
      <trkpt lat="43.95589" lon="2.1972">
        <ele>174</ele>
        <time>2020-08-25T07:59:37.308Z</time>
      </trkpt>
      <trkpt lat="43.9559" lon="2.19721">
        <ele>174</ele>
        <time>2020-08-25T07:59:38.308Z</time>
      </trkpt>
      <trkpt lat="43.95592" lon="2.1972">
        <ele>174</ele>
        <time>2020-08-25T07:59:39.308Z</time>
      </trkpt>
      <trkpt lat="43.95592" lon="2.1972">
        <ele>174</ele>
        <time>2020-08-25T07:59:40.308Z</time>
      </trkpt>
      <trkpt lat="43.95593" lon="2.19721">
        <ele>174</ele>
        <time>2020-08-25T07:59:41.308Z</time>
      </trkpt>
      <trkpt lat="43.95595" lon="2.1972">
        <ele>174</ele>
        <time>2020-08-25T07:59:42.308Z</time>
      </trkpt>
      <trkpt lat="43.95596" lon="2.1972">
        <ele>174</ele>
        <time>2020-08-25T07:59:43.308Z</time>
      </trkpt>
      <trkpt lat="43.95597" lon="2.1972">
        <ele>174</ele>
        <time>2020-08-25T07:59:44.308Z</time>
      </trkpt>
      <trkpt lat="43.95598" lon="2.1972">
        <ele>174</ele>
        <time>2020-08-25T07:59:45.308Z</time>
      </trkpt>
      <trkpt lat="43.956" lon="2.1972">
        <ele>174</ele>
        <time>2020-08-25T07:59:46.308Z</time>
      </trkpt>
      <trkpt lat="43.95601" lon="2.1972">
        <ele>174</ele>
        <time>2020-08-25T07:59:47.308Z</time>
      </trkpt>
      <trkpt lat="43.95602" lon="2.1972">
        <ele>174</ele>
        <time>2020-08-25T07:59:48.308Z</time>
      </trkpt>
      <trkpt lat="43.95604" lon="2.1972">
        <ele>174</ele>
        <time>2020-08-25T07:59:49.308Z</time>
      </trkpt>
      <trkpt lat="43.95605" lon="2.1972">
        <ele>174</ele>
        <time>2020-08-25T07:59:50.308Z</time>
      </trkpt>
      <trkpt lat="43.95607" lon="2.1972">
        <ele>174</ele>
        <time>2020-08-25T07:59:51.308Z</time>
      </trkpt>
      <trkpt lat="43.95608" lon="2.1972">
        <ele>174</ele>
        <time>2020-08-25T07:59:52.308Z</time>
      </trkpt>
      <trkpt lat="43.9561" lon="2.1972">
        <ele>174</ele>
        <time>2020-08-25T07:59:53.308Z</time>
      </trkpt>
      <trkpt lat="43.95611" lon="2.1972">
        <ele>174</ele>
        <time>2020-08-25T07:59:54.308Z</time>
      </trkpt>
      <trkpt lat="43.95613" lon="2.1972">
        <ele>174</ele>
        <time>2020-08-25T07:59:55.308Z</time>
      </trkpt>
      <trkpt lat="43.95614" lon="2.1972">
        <ele>174</ele>
        <time>2020-08-25T07:59:56.308Z</time>
      </trkpt>
      <trkpt lat="43.95616" lon="2.1972">
        <ele>174</ele>
        <time>2020-08-25T07:59:57.308Z</time>
      </trkpt>
      <trkpt lat="43.95617" lon="2.1972">
        <ele>174</ele>
        <time>2020-08-25T07:59:58.308Z</time>
      </trkpt>
      <trkpt lat="43.95619" lon="2.1972">
        <ele>174</ele>
        <time>2020-08-25T07:59:59.308Z</time>
      </trkpt>
      <trkpt lat="43.9562" lon="2.1972">
        <ele>174</ele>
        <time>2020-08-25T08:00:00.308Z</time>
      </trkpt>
      <trkpt lat="43.95622" lon="2.1972">
        <ele>174</ele>
        <time>2020-08-25T08:00:01.308Z</time>
      </trkpt>
      <trkpt lat="43.95623" lon="2.1972">
        <ele>174</ele>
        <time>2020-08-25T08:00:02.308Z</time>
      </trkpt>
      <trkpt lat="43.95625" lon="2.1972">
        <ele>174</ele>
        <time>2020-08-25T08:00:03.308Z</time>
      </trkpt>
      <trkpt lat="43.95626" lon="2.1972">
        <ele>174</ele>
        <time>2020-08-25T08:00:04.308Z</time>
      </trkpt>
      <trkpt lat="43.95628" lon="2.1972">
        <ele>174</ele>
        <time>2020-08-25T08:00:05.308Z</time>
      </trkpt>
      <trkpt lat="43.95629" lon="2.19721">
        <ele>174</ele>
        <time>2020-08-25T08:00:06.308Z</time>
      </trkpt>
      <trkpt lat="43.9563" lon="2.19721">
        <ele>175</ele>
        <time>2020-08-25T08:00:07.308Z</time>
      </trkpt>
      <trkpt lat="43.95632" lon="2.1972">
        <ele>175</ele>
        <time>2020-08-25T08:00:08.308Z</time>
      </trkpt>
      <trkpt lat="43.95633" lon="2.19721">
        <ele>175</ele>
        <time>2020-08-25T08:00:09.308Z</time>
      </trkpt>
      <trkpt lat="43.95635" lon="2.19721">
        <ele>175</ele>
        <time>2020-08-25T08:00:10.308Z</time>
      </trkpt>
      <trkpt lat="43.95636" lon="2.19721">
        <ele>175</ele>
        <time>2020-08-25T08:00:11.308Z</time>
      </trkpt>
      <trkpt lat="43.95637" lon="2.19721">
        <ele>175</ele>
        <time>2020-08-25T08:00:12.308Z</time>
      </trkpt>
      <trkpt lat="43.95638" lon="2.19721">
        <ele>175</ele>
        <time>2020-08-25T08:00:13.308Z</time>
      </trkpt>
      <trkpt lat="43.9564" lon="2.19721">
        <ele>175</ele>
        <time>2020-08-25T08:00:14.308Z</time>
      </trkpt>
      <trkpt lat="43.95641" lon="2.19721">
        <ele>175</ele>
        <time>2020-08-25T08:00:15.308Z</time>
      </trkpt>
      <trkpt lat="43.95642" lon="2.19721">
        <ele>175</ele>
        <time>2020-08-25T08:00:16.308Z</time>
      </trkpt>
      <trkpt lat="43.95644" lon="2.19722">
        <ele>175</ele>
        <time>2020-08-25T08:00:17.308Z</time>
      </trkpt>
      <trkpt lat="43.95645" lon="2.19722">
        <ele>175</ele>
        <time>2020-08-25T08:00:18.308Z</time>
      </trkpt>
      <trkpt lat="43.95646" lon="2.19722">
        <ele>175</ele>
        <time>2020-08-25T08:00:19.308Z</time>
      </trkpt>
      <trkpt lat="43.95648" lon="2.19722">
        <ele>175</ele>
        <time>2020-08-25T08:00:20.308Z</time>
      </trkpt>
      <trkpt lat="43.95649" lon="2.19722">
        <ele>175</ele>
        <time>2020-08-25T08:00:21.308Z</time>
      </trkpt>
      <trkpt lat="43.95651" lon="2.19722">
        <ele>176</ele>
        <time>2020-08-25T08:00:22.308Z</time>
      </trkpt>
      <trkpt lat="43.95652" lon="2.19722">
        <ele>176</ele>
        <time>2020-08-25T08:00:23.308Z</time>
      </trkpt>
      <trkpt lat="43.95654" lon="2.19722">
        <ele>176</ele>
        <time>2020-08-25T08:00:24.308Z</time>
      </trkpt>
      <trkpt lat="43.95655" lon="2.19723">
        <ele>176</ele>
        <time>2020-08-25T08:00:25.308Z</time>
      </trkpt>
      <trkpt lat="43.95656" lon="2.19723">
        <ele>176</ele>
        <time>2020-08-25T08:00:26.308Z</time>
      </trkpt>
      <trkpt lat="43.95658" lon="2.19723">
        <ele>176</ele>
        <time>2020-08-25T08:00:27.308Z</time>
      </trkpt>
      <trkpt lat="43.95659" lon="2.19723">
        <ele>176</ele>
        <time>2020-08-25T08:00:28.308Z</time>
      </trkpt>
      <trkpt lat="43.9566" lon="2.19723">
        <ele>176</ele>
        <time>2020-08-25T08:00:29.308Z</time>
      </trkpt>
      <trkpt lat="43.95661" lon="2.19723">
        <ele>176</ele>
        <time>2020-08-25T08:00:30.308Z</time>
      </trkpt>
      <trkpt lat="43.95663" lon="2.19723">
        <ele>176</ele>
        <time>2020-08-25T08:00:31.308Z</time>
      </trkpt>
      <trkpt lat="43.95664" lon="2.19724">
        <ele>176</ele>
        <time>2020-08-25T08:00:32.308Z</time>
      </trkpt>
      <trkpt lat="43.95665" lon="2.19724">
        <ele>176</ele>
        <time>2020-08-25T08:00:33.308Z</time>
      </trkpt>
      <trkpt lat="43.95667" lon="2.19724">
        <ele>176</ele>
        <time>2020-08-25T08:00:34.308Z</time>
      </trkpt>
      <trkpt lat="43.95668" lon="2.19725">
        <ele>176</ele>
        <time>2020-08-25T08:00:35.308Z</time>
      </trkpt>
      <trkpt lat="43.9567" lon="2.19726">
        <ele>177</ele>
        <time>2020-08-25T08:00:36.308Z</time>
      </trkpt>
      <trkpt lat="43.95671" lon="2.19726">
        <ele>177</ele>
        <time>2020-08-25T08:00:37.308Z</time>
      </trkpt>
      <trkpt lat="43.95672" lon="2.19727">
        <ele>177</ele>
        <time>2020-08-25T08:00:38.308Z</time>
      </trkpt>
      <trkpt lat="43.95674" lon="2.19728">
        <ele>177</ele>
        <time>2020-08-25T08:00:39.308Z</time>
      </trkpt>
      <trkpt lat="43.95675" lon="2.19729">
        <ele>177</ele>
        <time>2020-08-25T08:00:40.308Z</time>
      </trkpt>
      <trkpt lat="43.95676" lon="2.19729">
        <ele>177</ele>
        <time>2020-08-25T08:00:41.308Z</time>
      </trkpt>
      <trkpt lat="43.95678" lon="2.1973">
        <ele>177</ele>
        <time>2020-08-25T08:00:42.308Z</time>
      </trkpt>
      <trkpt lat="43.95679" lon="2.19731">
        <ele>177</ele>
        <time>2020-08-25T08:00:43.308Z</time>
      </trkpt>
      <trkpt lat="43.9568" lon="2.19732">
        <ele>178</ele>
        <time>2020-08-25T08:00:44.308Z</time>
      </trkpt>
      <trkpt lat="43.95681" lon="2.19732">
        <ele>178</ele>
        <time>2020-08-25T08:00:45.308Z</time>
      </trkpt>
      <trkpt lat="43.95683" lon="2.19733">
        <ele>178</ele>
        <time>2020-08-25T08:00:46.308Z</time>
      </trkpt>
      <trkpt lat="43.95684" lon="2.19734">
        <ele>178</ele>
        <time>2020-08-25T08:00:47.308Z</time>
      </trkpt>
      <trkpt lat="43.95685" lon="2.19734">
        <ele>178</ele>
        <time>2020-08-25T08:00:48.308Z</time>
      </trkpt>
      <trkpt lat="43.95687" lon="2.19735">
        <ele>178</ele>
        <time>2020-08-25T08:00:49.308Z</time>
      </trkpt>
      <trkpt lat="43.95688" lon="2.19736">
        <ele>178</ele>
        <time>2020-08-25T08:00:50.308Z</time>
      </trkpt>
      <trkpt lat="43.95689" lon="2.19736">
        <ele>179</ele>
        <time>2020-08-25T08:00:51.308Z</time>
      </trkpt>
      <trkpt lat="43.95691" lon="2.19737">
        <ele>179</ele>
        <time>2020-08-25T08:00:52.308Z</time>
      </trkpt>
      <trkpt lat="43.95692" lon="2.19738">
        <ele>179</ele>
        <time>2020-08-25T08:00:53.308Z</time>
      </trkpt>
      <trkpt lat="43.95693" lon="2.19739">
        <ele>179</ele>
        <time>2020-08-25T08:00:54.308Z</time>
      </trkpt>
      <trkpt lat="43.95694" lon="2.1974">
        <ele>179</ele>
        <time>2020-08-25T08:00:55.308Z</time>
      </trkpt>
      <trkpt lat="43.95695" lon="2.19741">
        <ele>180</ele>
        <time>2020-08-25T08:00:56.308Z</time>
      </trkpt>
      <trkpt lat="43.95696" lon="2.19742">
        <ele>180</ele>
        <time>2020-08-25T08:00:57.308Z</time>
      </trkpt>
      <trkpt lat="43.95697" lon="2.19744">
        <ele>180</ele>
        <time>2020-08-25T08:00:58.308Z</time>
      </trkpt>
      <trkpt lat="43.95697" lon="2.19746">
        <ele>180</ele>
        <time>2020-08-25T08:00:59.308Z</time>
      </trkpt>
      <trkpt lat="43.95698" lon="2.19748">
        <ele>180</ele>
        <time>2020-08-25T08:01:00.308Z</time>
      </trkpt>
      <trkpt lat="43.95698" lon="2.1975">
        <ele>180</ele>
        <time>2020-08-25T08:01:01.308Z</time>
      </trkpt>
      <trkpt lat="43.95698" lon="2.19752">
        <ele>180</ele>
        <time>2020-08-25T08:01:02.308Z</time>
      </trkpt>
      <trkpt lat="43.95698" lon="2.19754">
        <ele>180</ele>
        <time>2020-08-25T08:01:03.308Z</time>
      </trkpt>
      <trkpt lat="43.95698" lon="2.19756">
        <ele>180</ele>
        <time>2020-08-25T08:01:04.308Z</time>
      </trkpt>
      <trkpt lat="43.95698" lon="2.19758">
        <ele>180</ele>
        <time>2020-08-25T08:01:05.308Z</time>
      </trkpt>
      <trkpt lat="43.95698" lon="2.1976">
        <ele>180</ele>
        <time>2020-08-25T08:01:06.308Z</time>
      </trkpt>
      <trkpt lat="43.95698" lon="2.19762">
        <ele>181</ele>
        <time>2020-08-25T08:01:07.308Z</time>
      </trkpt>
      <trkpt lat="43.95698" lon="2.19764">
        <ele>181</ele>
        <time>2020-08-25T08:01:08.308Z</time>
      </trkpt>
      <trkpt lat="43.95698" lon="2.19766">
        <ele>181</ele>
        <time>2020-08-25T08:01:09.308Z</time>
      </trkpt>
      <trkpt lat="43.95697" lon="2.19768">
        <ele>181</ele>
        <time>2020-08-25T08:01:10.308Z</time>
      </trkpt>
      <trkpt lat="43.95697" lon="2.1977">
        <ele>181</ele>
        <time>2020-08-25T08:01:11.308Z</time>
      </trkpt>
      <trkpt lat="43.95697" lon="2.19772">
        <ele>181</ele>
        <time>2020-08-25T08:01:12.308Z</time>
      </trkpt>
      <trkpt lat="43.95697" lon="2.19774">
        <ele>181</ele>
        <time>2020-08-25T08:01:13.308Z</time>
      </trkpt>
      <trkpt lat="43.95697" lon="2.19776">
        <ele>181</ele>
        <time>2020-08-25T08:01:14.308Z</time>
      </trkpt>
      <trkpt lat="43.95697" lon="2.19778">
        <ele>181</ele>
        <time>2020-08-25T08:01:15.308Z</time>
      </trkpt>
      <trkpt lat="43.95696" lon="2.1978">
        <ele>181</ele>
        <time>2020-08-25T08:01:16.308Z</time>
      </trkpt>
      <trkpt lat="43.95696" lon="2.19782">
        <ele>181</ele>
        <time>2020-08-25T08:01:17.308Z</time>
      </trkpt>
      <trkpt lat="43.95696" lon="2.19785">
        <ele>181</ele>
        <time>2020-08-25T08:01:18.308Z</time>
      </trkpt>
      <trkpt lat="43.95696" lon="2.19787">
        <ele>181</ele>
        <time>2020-08-25T08:01:19.308Z</time>
      </trkpt>
      <trkpt lat="43.95696" lon="2.19789">
        <ele>181</ele>
        <time>2020-08-25T08:01:20.308Z</time>
      </trkpt>
      <trkpt lat="43.95696" lon="2.19791">
        <ele>181</ele>
        <time>2020-08-25T08:01:21.308Z</time>
      </trkpt>
      <trkpt lat="43.95696" lon="2.19793">
        <ele>181</ele>
        <time>2020-08-25T08:01:22.308Z</time>
      </trkpt>
      <trkpt lat="43.95696" lon="2.19795">
        <ele>181</ele>
        <time>2020-08-25T08:01:23.308Z</time>
      </trkpt>
      <trkpt lat="43.95695" lon="2.19797">
        <ele>182</ele>
        <time>2020-08-25T08:01:24.308Z</time>
      </trkpt>
      <trkpt lat="43.95695" lon="2.19798">
        <ele>182</ele>
        <time>2020-08-25T08:01:25.308Z</time>
      </trkpt>
      <trkpt lat="43.95695" lon="2.198">
        <ele>182</ele>
        <time>2020-08-25T08:01:26.308Z</time>
      </trkpt>
      <trkpt lat="43.95695" lon="2.19802">
        <ele>182</ele>
        <time>2020-08-25T08:01:27.308Z</time>
      </trkpt>
      <trkpt lat="43.95695" lon="2.19804">
        <ele>182</ele>
        <time>2020-08-25T08:01:28.308Z</time>
      </trkpt>
      <trkpt lat="43.95695" lon="2.19806">
        <ele>182</ele>
        <time>2020-08-25T08:01:29.308Z</time>
      </trkpt>
      <trkpt lat="43.95695" lon="2.19809">
        <ele>182</ele>
        <time>2020-08-25T08:01:30.308Z</time>
      </trkpt>
      <trkpt lat="43.95695" lon="2.19811">
        <ele>182</ele>
        <time>2020-08-25T08:01:31.308Z</time>
      </trkpt>
      <trkpt lat="43.95695" lon="2.19813">
        <ele>182</ele>
        <time>2020-08-25T08:01:32.308Z</time>
      </trkpt>
      <trkpt lat="43.95694" lon="2.19815">
        <ele>182</ele>
        <time>2020-08-25T08:01:33.308Z</time>
      </trkpt>
      <trkpt lat="43.95694" lon="2.19817">
        <ele>182</ele>
        <time>2020-08-25T08:01:34.308Z</time>
      </trkpt>
      <trkpt lat="43.95694" lon="2.19819">
        <ele>182</ele>
        <time>2020-08-25T08:01:35.308Z</time>
      </trkpt>
      <trkpt lat="43.95694" lon="2.19821">
        <ele>183</ele>
        <time>2020-08-25T08:01:36.308Z</time>
      </trkpt>
      <trkpt lat="43.95694" lon="2.19823">
        <ele>183</ele>
        <time>2020-08-25T08:01:37.308Z</time>
      </trkpt>
      <trkpt lat="43.95693" lon="2.19825">
        <ele>183</ele>
        <time>2020-08-25T08:01:38.308Z</time>
      </trkpt>
      <trkpt lat="43.95693" lon="2.19827">
        <ele>183</ele>
        <time>2020-08-25T08:01:39.308Z</time>
      </trkpt>
      <trkpt lat="43.95693" lon="2.19829">
        <ele>183</ele>
        <time>2020-08-25T08:01:40.308Z</time>
      </trkpt>
      <trkpt lat="43.95693" lon="2.19831">
        <ele>183</ele>
        <time>2020-08-25T08:01:41.308Z</time>
      </trkpt>
      <trkpt lat="43.95692" lon="2.19833">
        <ele>183</ele>
        <time>2020-08-25T08:01:42.308Z</time>
      </trkpt>
      <trkpt lat="43.95692" lon="2.19836">
        <ele>183</ele>
        <time>2020-08-25T08:01:43.308Z</time>
      </trkpt>
      <trkpt lat="43.95692" lon="2.19838">
        <ele>183</ele>
        <time>2020-08-25T08:01:44.308Z</time>
      </trkpt>
      <trkpt lat="43.95692" lon="2.1984">
        <ele>183</ele>
        <time>2020-08-25T08:01:45.308Z</time>
      </trkpt>
      <trkpt lat="43.95692" lon="2.19842">
        <ele>183</ele>
        <time>2020-08-25T08:01:46.308Z</time>
      </trkpt>
      <trkpt lat="43.95691" lon="2.19844">
        <ele>183</ele>
        <time>2020-08-25T08:01:47.308Z</time>
      </trkpt>
      <trkpt lat="43.95691" lon="2.19845">
        <ele>183</ele>
        <time>2020-08-25T08:01:48.308Z</time>
      </trkpt>
      <trkpt lat="43.9569" lon="2.19847">
        <ele>183</ele>
        <time>2020-08-25T08:01:49.308Z</time>
      </trkpt>
      <trkpt lat="43.9569" lon="2.19849">
        <ele>183</ele>
        <time>2020-08-25T08:01:50.308Z</time>
      </trkpt>
      <trkpt lat="43.9569" lon="2.19851">
        <ele>183</ele>
        <time>2020-08-25T08:01:51.308Z</time>
      </trkpt>
      <trkpt lat="43.9569" lon="2.19853">
        <ele>183</ele>
        <time>2020-08-25T08:01:52.308Z</time>
      </trkpt>
      <trkpt lat="43.95689" lon="2.19855">
        <ele>182</ele>
        <time>2020-08-25T08:01:53.308Z</time>
      </trkpt>
      <trkpt lat="43.95689" lon="2.19857">
        <ele>182</ele>
        <time>2020-08-25T08:01:54.308Z</time>
      </trkpt>
      <trkpt lat="43.95689" lon="2.19859">
        <ele>182</ele>
        <time>2020-08-25T08:01:55.308Z</time>
      </trkpt>
      <trkpt lat="43.95689" lon="2.19861">
        <ele>182</ele>
        <time>2020-08-25T08:01:56.308Z</time>
      </trkpt>
      <trkpt lat="43.95688" lon="2.19864">
        <ele>183</ele>
        <time>2020-08-25T08:01:57.308Z</time>
      </trkpt>
      <trkpt lat="43.95688" lon="2.19866">
        <ele>183</ele>
        <time>2020-08-25T08:01:58.308Z</time>
      </trkpt>
      <trkpt lat="43.95688" lon="2.19868">
        <ele>183</ele>
        <time>2020-08-25T08:01:59.308Z</time>
      </trkpt>
      <trkpt lat="43.95687" lon="2.1987">
        <ele>183</ele>
        <time>2020-08-25T08:02:00.308Z</time>
      </trkpt>
      <trkpt lat="43.95687" lon="2.19872">
        <ele>183</ele>
        <time>2020-08-25T08:02:01.308Z</time>
      </trkpt>
      <trkpt lat="43.95687" lon="2.19874">
        <ele>183</ele>
        <time>2020-08-25T08:02:02.308Z</time>
      </trkpt>
      <trkpt lat="43.95687" lon="2.19876">
        <ele>183</ele>
        <time>2020-08-25T08:02:03.308Z</time>
      </trkpt>
      <trkpt lat="43.95686" lon="2.19878">
        <ele>183</ele>
        <time>2020-08-25T08:02:04.308Z</time>
      </trkpt>
      <trkpt lat="43.95686" lon="2.1988">
        <ele>183</ele>
        <time>2020-08-25T08:02:05.308Z</time>
      </trkpt>
      <trkpt lat="43.95686" lon="2.19881">
        <ele>183</ele>
        <time>2020-08-25T08:02:06.308Z</time>
      </trkpt>
      <trkpt lat="43.95685" lon="2.19883">
        <ele>183</ele>
        <time>2020-08-25T08:02:07.308Z</time>
      </trkpt>
      <trkpt lat="43.95685" lon="2.19885">
        <ele>183</ele>
        <time>2020-08-25T08:02:08.308Z</time>
      </trkpt>
      <trkpt lat="43.95685" lon="2.19887">
        <ele>183</ele>
        <time>2020-08-25T08:02:09.308Z</time>
      </trkpt>
      <trkpt lat="43.95685" lon="2.19889">
        <ele>183</ele>
        <time>2020-08-25T08:02:10.308Z</time>
      </trkpt>
      <trkpt lat="43.95684" lon="2.19891">
        <ele>183</ele>
        <time>2020-08-25T08:02:11.308Z</time>
      </trkpt>
      <trkpt lat="43.95684" lon="2.19893">
        <ele>183</ele>
        <time>2020-08-25T08:02:12.308Z</time>
      </trkpt>
      <trkpt lat="43.95684" lon="2.19895">
        <ele>183</ele>
        <time>2020-08-25T08:02:13.308Z</time>
      </trkpt>
      <trkpt lat="43.95683" lon="2.19897">
        <ele>183</ele>
        <time>2020-08-25T08:02:14.308Z</time>
      </trkpt>
      <trkpt lat="43.95683" lon="2.19898">
        <ele>183</ele>
        <time>2020-08-25T08:02:15.308Z</time>
      </trkpt>
      <trkpt lat="43.95683" lon="2.19898">
        <ele>183</ele>
        <time>2020-08-25T08:02:16.308Z</time>
      </trkpt>
      <trkpt lat="43.95683" lon="2.19899">
        <ele>183</ele>
        <time>2020-08-25T08:02:17.308Z</time>
      </trkpt>
      <trkpt lat="43.95683" lon="2.19899">
        <ele>183</ele>
        <time>2020-08-25T08:02:18.308Z</time>
      </trkpt>
      <trkpt lat="43.95683" lon="2.19901">
        <ele>183</ele>
        <time>2020-08-25T08:02:19.308Z</time>
      </trkpt>
      <trkpt lat="43.95682" lon="2.19903">
        <ele>183</ele>
        <time>2020-08-25T08:02:20.308Z</time>
      </trkpt>
      <trkpt lat="43.95682" lon="2.19904">
        <ele>182</ele>
        <time>2020-08-25T08:02:21.308Z</time>
      </trkpt>
      <trkpt lat="43.95682" lon="2.19906">
        <ele>182</ele>
        <time>2020-08-25T08:02:22.308Z</time>
      </trkpt>
      <trkpt lat="43.95681" lon="2.19908">
        <ele>182</ele>
        <time>2020-08-25T08:02:23.308Z</time>
      </trkpt>
      <trkpt lat="43.95681" lon="2.1991">
        <ele>182</ele>
        <time>2020-08-25T08:02:24.308Z</time>
      </trkpt>
      <trkpt lat="43.9568" lon="2.19912">
        <ele>182</ele>
        <time>2020-08-25T08:02:25.308Z</time>
      </trkpt>
      <trkpt lat="43.9568" lon="2.19914">
        <ele>182</ele>
        <time>2020-08-25T08:02:26.308Z</time>
      </trkpt>
      <trkpt lat="43.9568" lon="2.19916">
        <ele>182</ele>
        <time>2020-08-25T08:02:27.308Z</time>
      </trkpt>
      <trkpt lat="43.95679" lon="2.19918">
        <ele>182</ele>
        <time>2020-08-25T08:02:28.308Z</time>
      </trkpt>
      <trkpt lat="43.95679" lon="2.1992">
        <ele>182</ele>
        <time>2020-08-25T08:02:29.308Z</time>
      </trkpt>
      <trkpt lat="43.95678" lon="2.19922">
        <ele>182</ele>
        <time>2020-08-25T08:02:30.308Z</time>
      </trkpt>
      <trkpt lat="43.95678" lon="2.19924">
        <ele>182</ele>
        <time>2020-08-25T08:02:31.308Z</time>
      </trkpt>
      <trkpt lat="43.95678" lon="2.19926">
        <ele>182</ele>
        <time>2020-08-25T08:02:32.308Z</time>
      </trkpt>
      <trkpt lat="43.95677" lon="2.19928">
        <ele>182</ele>
        <time>2020-08-25T08:02:33.308Z</time>
      </trkpt>
      <trkpt lat="43.95677" lon="2.1993">
        <ele>182</ele>
        <time>2020-08-25T08:02:34.308Z</time>
      </trkpt>
      <trkpt lat="43.95677" lon="2.19932">
        <ele>182</ele>
        <time>2020-08-25T08:02:35.308Z</time>
      </trkpt>
      <trkpt lat="43.95676" lon="2.19935">
        <ele>182</ele>
        <time>2020-08-25T08:02:36.308Z</time>
      </trkpt>
      <trkpt lat="43.95676" lon="2.19937">
        <ele>182</ele>
        <time>2020-08-25T08:02:37.308Z</time>
      </trkpt>
      <trkpt lat="43.95676" lon="2.19939">
        <ele>182</ele>
        <time>2020-08-25T08:02:38.308Z</time>
      </trkpt>
      <trkpt lat="43.95675" lon="2.19941">
        <ele>182</ele>
        <time>2020-08-25T08:02:39.308Z</time>
      </trkpt>
      <trkpt lat="43.95675" lon="2.19943">
        <ele>182</ele>
        <time>2020-08-25T08:02:40.308Z</time>
      </trkpt>
      <trkpt lat="43.95675" lon="2.19945">
        <ele>182</ele>
        <time>2020-08-25T08:02:41.308Z</time>
      </trkpt>
      <trkpt lat="43.95674" lon="2.19947">
        <ele>182</ele>
        <time>2020-08-25T08:02:42.308Z</time>
      </trkpt>
      <trkpt lat="43.95674" lon="2.19949">
        <ele>182</ele>
        <time>2020-08-25T08:02:43.308Z</time>
      </trkpt>
      <trkpt lat="43.95674" lon="2.19951">
        <ele>182</ele>
        <time>2020-08-25T08:02:44.308Z</time>
      </trkpt>
      <trkpt lat="43.95673" lon="2.19953">
        <ele>182</ele>
        <time>2020-08-25T08:02:45.308Z</time>
      </trkpt>
      <trkpt lat="43.95673" lon="2.19955">
        <ele>181</ele>
        <time>2020-08-25T08:02:46.308Z</time>
      </trkpt>
      <trkpt lat="43.95673" lon="2.19957">
        <ele>181</ele>
        <time>2020-08-25T08:02:47.308Z</time>
      </trkpt>
      <trkpt lat="43.95672" lon="2.19959">
        <ele>181</ele>
        <time>2020-08-25T08:02:48.308Z</time>
      </trkpt>
      <trkpt lat="43.95672" lon="2.19961">
        <ele>181</ele>
        <time>2020-08-25T08:02:49.308Z</time>
      </trkpt>
      <trkpt lat="43.95671" lon="2.19963">
        <ele>181</ele>
        <time>2020-08-25T08:02:50.308Z</time>
      </trkpt>
      <trkpt lat="43.95671" lon="2.19965">
        <ele>181</ele>
        <time>2020-08-25T08:02:51.308Z</time>
      </trkpt>
      <trkpt lat="43.95671" lon="2.19967">
        <ele>181</ele>
        <time>2020-08-25T08:02:52.308Z</time>
      </trkpt>
      <trkpt lat="43.9567" lon="2.19969">
        <ele>181</ele>
        <time>2020-08-25T08:02:53.308Z</time>
      </trkpt>
      <trkpt lat="43.9567" lon="2.19971">
        <ele>181</ele>
        <time>2020-08-25T08:02:54.308Z</time>
      </trkpt>
      <trkpt lat="43.95669" lon="2.19973">
        <ele>181</ele>
        <time>2020-08-25T08:02:55.308Z</time>
      </trkpt>
      <trkpt lat="43.95669" lon="2.19975">
        <ele>181</ele>
        <time>2020-08-25T08:02:56.308Z</time>
      </trkpt>
      <trkpt lat="43.95669" lon="2.19977">
        <ele>180</ele>
        <time>2020-08-25T08:02:57.308Z</time>
      </trkpt>
      <trkpt lat="43.95669" lon="2.19979">
        <ele>180</ele>
        <time>2020-08-25T08:02:58.308Z</time>
      </trkpt>
      <trkpt lat="43.95669" lon="2.19981">
        <ele>180</ele>
        <time>2020-08-25T08:02:59.308Z</time>
      </trkpt>
      <trkpt lat="43.95669" lon="2.19983">
        <ele>180</ele>
        <time>2020-08-25T08:03:00.308Z</time>
      </trkpt>
      <trkpt lat="43.95669" lon="2.19985">
        <ele>180</ele>
        <time>2020-08-25T08:03:01.308Z</time>
      </trkpt>
      <trkpt lat="43.95669" lon="2.19987">
        <ele>180</ele>
        <time>2020-08-25T08:03:02.308Z</time>
      </trkpt>
      <trkpt lat="43.9567" lon="2.19989">
        <ele>180</ele>
        <time>2020-08-25T08:03:03.308Z</time>
      </trkpt>
      <trkpt lat="43.9567" lon="2.19991">
        <ele>180</ele>
        <time>2020-08-25T08:03:04.308Z</time>
      </trkpt>
      <trkpt lat="43.9567" lon="2.19993">
        <ele>180</ele>
        <time>2020-08-25T08:03:05.308Z</time>
      </trkpt>
      <trkpt lat="43.9567" lon="2.19995">
        <ele>180</ele>
        <time>2020-08-25T08:03:06.308Z</time>
      </trkpt>
      <trkpt lat="43.95671" lon="2.19997">
        <ele>180</ele>
        <time>2020-08-25T08:03:07.308Z</time>
      </trkpt>
      <trkpt lat="43.95671" lon="2.19999">
        <ele>180</ele>
        <time>2020-08-25T08:03:08.308Z</time>
      </trkpt>
      <trkpt lat="43.95671" lon="2.20002">
        <ele>180</ele>
        <time>2020-08-25T08:03:09.308Z</time>
      </trkpt>
      <trkpt lat="43.95671" lon="2.20004">
        <ele>180</ele>
        <time>2020-08-25T08:03:10.308Z</time>
      </trkpt>
      <trkpt lat="43.95672" lon="2.20006">
        <ele>180</ele>
        <time>2020-08-25T08:03:11.308Z</time>
      </trkpt>
      <trkpt lat="43.95672" lon="2.20008">
        <ele>180</ele>
        <time>2020-08-25T08:03:12.308Z</time>
      </trkpt>
      <trkpt lat="43.95672" lon="2.2001">
        <ele>180</ele>
        <time>2020-08-25T08:03:13.308Z</time>
      </trkpt>
      <trkpt lat="43.95672" lon="2.20012">
        <ele>180</ele>
        <time>2020-08-25T08:03:14.308Z</time>
      </trkpt>
      <trkpt lat="43.95673" lon="2.20014">
        <ele>180</ele>
        <time>2020-08-25T08:03:15.308Z</time>
      </trkpt>
      <trkpt lat="43.95673" lon="2.20017">
        <ele>180</ele>
        <time>2020-08-25T08:03:16.308Z</time>
      </trkpt>
      <trkpt lat="43.95673" lon="2.20018">
        <ele>180</ele>
        <time>2020-08-25T08:03:17.308Z</time>
      </trkpt>
      <trkpt lat="43.95674" lon="2.20021">
        <ele>180</ele>
        <time>2020-08-25T08:03:18.308Z</time>
      </trkpt>
      <trkpt lat="43.95674" lon="2.20023">
        <ele>180</ele>
        <time>2020-08-25T08:03:19.308Z</time>
      </trkpt>
      <trkpt lat="43.95674" lon="2.20025">
        <ele>180</ele>
        <time>2020-08-25T08:03:20.308Z</time>
      </trkpt>
      <trkpt lat="43.95674" lon="2.20027">
        <ele>180</ele>
        <time>2020-08-25T08:03:21.308Z</time>
      </trkpt>
      <trkpt lat="43.95675" lon="2.20029">
        <ele>180</ele>
        <time>2020-08-25T08:03:22.308Z</time>
      </trkpt>
      <trkpt lat="43.95675" lon="2.20031">
        <ele>180</ele>
        <time>2020-08-25T08:03:23.308Z</time>
      </trkpt>
      <trkpt lat="43.95675" lon="2.20033">
        <ele>180</ele>
        <time>2020-08-25T08:03:24.308Z</time>
      </trkpt>
      <trkpt lat="43.95676" lon="2.20035">
        <ele>180</ele>
        <time>2020-08-25T08:03:25.308Z</time>
      </trkpt>
      <trkpt lat="43.95676" lon="2.20037">
        <ele>180</ele>
        <time>2020-08-25T08:03:26.308Z</time>
      </trkpt>
      <trkpt lat="43.95676" lon="2.20039">
        <ele>180</ele>
        <time>2020-08-25T08:03:27.308Z</time>
      </trkpt>
      <trkpt lat="43.95676" lon="2.20041">
        <ele>180</ele>
        <time>2020-08-25T08:03:28.308Z</time>
      </trkpt>
      <trkpt lat="43.95676" lon="2.20043">
        <ele>180</ele>
        <time>2020-08-25T08:03:29.308Z</time>
      </trkpt>
      <trkpt lat="43.95676" lon="2.20045">
        <ele>180</ele>
        <time>2020-08-25T08:03:30.308Z</time>
      </trkpt>
      <trkpt lat="43.95676" lon="2.20047">
        <ele>180</ele>
        <time>2020-08-25T08:03:31.308Z</time>
      </trkpt>
      <trkpt lat="43.95676" lon="2.20049">
        <ele>180</ele>
        <time>2020-08-25T08:03:32.308Z</time>
      </trkpt>
      <trkpt lat="43.95676" lon="2.20052">
        <ele>180</ele>
        <time>2020-08-25T08:03:33.308Z</time>
      </trkpt>
      <trkpt lat="43.95677" lon="2.20054">
        <ele>180</ele>
        <time>2020-08-25T08:03:34.308Z</time>
      </trkpt>
      <trkpt lat="43.95677" lon="2.20056">
        <ele>181</ele>
        <time>2020-08-25T08:03:35.308Z</time>
      </trkpt>
      <trkpt lat="43.95677" lon="2.20058">
        <ele>181</ele>
        <time>2020-08-25T08:03:36.308Z</time>
      </trkpt>
      <trkpt lat="43.95677" lon="2.2006">
        <ele>181</ele>
        <time>2020-08-25T08:03:37.308Z</time>
      </trkpt>
      <trkpt lat="43.95677" lon="2.20062">
        <ele>181</ele>
        <time>2020-08-25T08:03:38.308Z</time>
      </trkpt>
      <trkpt lat="43.95677" lon="2.20064">
        <ele>181</ele>
        <time>2020-08-25T08:03:39.308Z</time>
      </trkpt>
      <trkpt lat="43.95677" lon="2.20066">
        <ele>181</ele>
        <time>2020-08-25T08:03:40.308Z</time>
      </trkpt>
      <trkpt lat="43.95677" lon="2.20068">
        <ele>181</ele>
        <time>2020-08-25T08:03:41.308Z</time>
      </trkpt>
      <trkpt lat="43.95677" lon="2.2007">
        <ele>181</ele>
        <time>2020-08-25T08:03:42.308Z</time>
      </trkpt>
      <trkpt lat="43.95677" lon="2.20072">
        <ele>181</ele>
        <time>2020-08-25T08:03:43.308Z</time>
      </trkpt>
      <trkpt lat="43.95677" lon="2.20074">
        <ele>181</ele>
        <time>2020-08-25T08:03:44.308Z</time>
      </trkpt>
      <trkpt lat="43.95677" lon="2.20076">
        <ele>181</ele>
        <time>2020-08-25T08:03:45.308Z</time>
      </trkpt>
      <trkpt lat="43.95677" lon="2.20079">
        <ele>181</ele>
        <time>2020-08-25T08:03:46.308Z</time>
      </trkpt>
      <trkpt lat="43.95676" lon="2.20081">
        <ele>181</ele>
        <time>2020-08-25T08:03:47.308Z</time>
      </trkpt>
      <trkpt lat="43.95676" lon="2.20083">
        <ele>181</ele>
        <time>2020-08-25T08:03:48.308Z</time>
      </trkpt>
      <trkpt lat="43.95676" lon="2.20085">
        <ele>181</ele>
        <time>2020-08-25T08:03:49.308Z</time>
      </trkpt>
      <trkpt lat="43.95676" lon="2.20087">
        <ele>181</ele>
        <time>2020-08-25T08:03:50.308Z</time>
      </trkpt>
      <trkpt lat="43.95676" lon="2.20089">
        <ele>181</ele>
        <time>2020-08-25T08:03:51.308Z</time>
      </trkpt>
      <trkpt lat="43.95676" lon="2.20091">
        <ele>181</ele>
        <time>2020-08-25T08:03:52.308Z</time>
      </trkpt>
      <trkpt lat="43.95676" lon="2.20094">
        <ele>181</ele>
        <time>2020-08-25T08:03:53.308Z</time>
      </trkpt>
      <trkpt lat="43.95676" lon="2.20096">
        <ele>181</ele>
        <time>2020-08-25T08:03:54.308Z</time>
      </trkpt>
      <trkpt lat="43.95676" lon="2.20098">
        <ele>181</ele>
        <time>2020-08-25T08:03:55.308Z</time>
      </trkpt>
      <trkpt lat="43.95677" lon="2.201">
        <ele>181</ele>
        <time>2020-08-25T08:03:56.308Z</time>
      </trkpt>
      <trkpt lat="43.95677" lon="2.20102">
        <ele>181</ele>
        <time>2020-08-25T08:03:57.308Z</time>
      </trkpt>
      <trkpt lat="43.95677" lon="2.20104">
        <ele>181</ele>
        <time>2020-08-25T08:03:58.308Z</time>
      </trkpt>
      <trkpt lat="43.95677" lon="2.20106">
        <ele>181</ele>
        <time>2020-08-25T08:03:59.308Z</time>
      </trkpt>
      <trkpt lat="43.95677" lon="2.20108">
        <ele>181</ele>
        <time>2020-08-25T08:04:00.308Z</time>
      </trkpt>
      <trkpt lat="43.95677" lon="2.2011">
        <ele>181</ele>
        <time>2020-08-25T08:04:01.308Z</time>
      </trkpt>
      <trkpt lat="43.95677" lon="2.20112">
        <ele>181</ele>
        <time>2020-08-25T08:04:02.308Z</time>
      </trkpt>
      <trkpt lat="43.95677" lon="2.20114">
        <ele>181</ele>
        <time>2020-08-25T08:04:03.308Z</time>
      </trkpt>
      <trkpt lat="43.95677" lon="2.20116">
        <ele>181</ele>
        <time>2020-08-25T08:04:04.308Z</time>
      </trkpt>
      <trkpt lat="43.95677" lon="2.20118">
        <ele>181</ele>
        <time>2020-08-25T08:04:05.308Z</time>
      </trkpt>
      <trkpt lat="43.95677" lon="2.2012">
        <ele>181</ele>
        <time>2020-08-25T08:04:06.308Z</time>
      </trkpt>
      <trkpt lat="43.95677" lon="2.20122">
        <ele>181</ele>
        <time>2020-08-25T08:04:07.308Z</time>
      </trkpt>
      <trkpt lat="43.95678" lon="2.20124">
        <ele>181</ele>
        <time>2020-08-25T08:04:08.308Z</time>
      </trkpt>
      <trkpt lat="43.95677" lon="2.20126">
        <ele>181</ele>
        <time>2020-08-25T08:04:09.308Z</time>
      </trkpt>
      <trkpt lat="43.95678" lon="2.20128">
        <ele>181</ele>
        <time>2020-08-25T08:04:10.308Z</time>
      </trkpt>
      <trkpt lat="43.95678" lon="2.2013">
        <ele>182</ele>
        <time>2020-08-25T08:04:11.308Z</time>
      </trkpt>
      <trkpt lat="43.95678" lon="2.20132">
        <ele>182</ele>
        <time>2020-08-25T08:04:12.308Z</time>
      </trkpt>
      <trkpt lat="43.95678" lon="2.20134">
        <ele>182</ele>
        <time>2020-08-25T08:04:13.308Z</time>
      </trkpt>
      <trkpt lat="43.95679" lon="2.20136">
        <ele>182</ele>
        <time>2020-08-25T08:04:14.308Z</time>
      </trkpt>
      <trkpt lat="43.95679" lon="2.20138">
        <ele>182</ele>
        <time>2020-08-25T08:04:15.308Z</time>
      </trkpt>
      <trkpt lat="43.95679" lon="2.2014">
        <ele>182</ele>
        <time>2020-08-25T08:04:16.308Z</time>
      </trkpt>
      <trkpt lat="43.95679" lon="2.20142">
        <ele>182</ele>
        <time>2020-08-25T08:04:17.308Z</time>
      </trkpt>
      <trkpt lat="43.95679" lon="2.20144">
        <ele>182</ele>
        <time>2020-08-25T08:04:18.308Z</time>
      </trkpt>
      <trkpt lat="43.95679" lon="2.20146">
        <ele>182</ele>
        <time>2020-08-25T08:04:19.308Z</time>
      </trkpt>
      <trkpt lat="43.95679" lon="2.20148">
        <ele>182</ele>
        <time>2020-08-25T08:04:20.308Z</time>
      </trkpt>
      <trkpt lat="43.9568" lon="2.2015">
        <ele>182</ele>
        <time>2020-08-25T08:04:21.308Z</time>
      </trkpt>
      <trkpt lat="43.9568" lon="2.20152">
        <ele>182</ele>
        <time>2020-08-25T08:04:22.308Z</time>
      </trkpt>
      <trkpt lat="43.9568" lon="2.20154">
        <ele>182</ele>
        <time>2020-08-25T08:04:23.308Z</time>
      </trkpt>
      <trkpt lat="43.9568" lon="2.20156">
        <ele>182</ele>
        <time>2020-08-25T08:04:24.308Z</time>
      </trkpt>
      <trkpt lat="43.9568" lon="2.20158">
        <ele>182</ele>
        <time>2020-08-25T08:04:25.308Z</time>
      </trkpt>
      <trkpt lat="43.9568" lon="2.2016">
        <ele>182</ele>
        <time>2020-08-25T08:04:26.308Z</time>
      </trkpt>
      <trkpt lat="43.9568" lon="2.20162">
        <ele>182</ele>
        <time>2020-08-25T08:04:27.308Z</time>
      </trkpt>
      <trkpt lat="43.9568" lon="2.20164">
        <ele>182</ele>
        <time>2020-08-25T08:04:28.308Z</time>
      </trkpt>
      <trkpt lat="43.95681" lon="2.20166">
        <ele>183</ele>
        <time>2020-08-25T08:04:29.308Z</time>
      </trkpt>
      <trkpt lat="43.95681" lon="2.20168">
        <ele>183</ele>
        <time>2020-08-25T08:04:30.308Z</time>
      </trkpt>
      <trkpt lat="43.95681" lon="2.2017">
        <ele>183</ele>
        <time>2020-08-25T08:04:31.308Z</time>
      </trkpt>
      <trkpt lat="43.95681" lon="2.20172">
        <ele>183</ele>
        <time>2020-08-25T08:04:32.308Z</time>
      </trkpt>
      <trkpt lat="43.95681" lon="2.20174">
        <ele>183</ele>
        <time>2020-08-25T08:04:33.308Z</time>
      </trkpt>
      <trkpt lat="43.95681" lon="2.20176">
        <ele>183</ele>
        <time>2020-08-25T08:04:34.308Z</time>
      </trkpt>
      <trkpt lat="43.95682" lon="2.20178">
        <ele>183</ele>
        <time>2020-08-25T08:04:35.308Z</time>
      </trkpt>
      <trkpt lat="43.95682" lon="2.2018">
        <ele>183</ele>
        <time>2020-08-25T08:04:36.308Z</time>
      </trkpt>
      <trkpt lat="43.95682" lon="2.20182">
        <ele>183</ele>
        <time>2020-08-25T08:04:37.308Z</time>
      </trkpt>
      <trkpt lat="43.95682" lon="2.20184">
        <ele>183</ele>
        <time>2020-08-25T08:04:38.308Z</time>
      </trkpt>
      <trkpt lat="43.95682" lon="2.20186">
        <ele>183</ele>
        <time>2020-08-25T08:04:39.308Z</time>
      </trkpt>
      <trkpt lat="43.95683" lon="2.20188">
        <ele>183</ele>
        <time>2020-08-25T08:04:40.308Z</time>
      </trkpt>
      <trkpt lat="43.95683" lon="2.20189">
        <ele>183</ele>
        <time>2020-08-25T08:04:41.308Z</time>
      </trkpt>
      <trkpt lat="43.95683" lon="2.20191">
        <ele>184</ele>
        <time>2020-08-25T08:04:42.308Z</time>
      </trkpt>
      <trkpt lat="43.95683" lon="2.20193">
        <ele>184</ele>
        <time>2020-08-25T08:04:43.308Z</time>
      </trkpt>
      <trkpt lat="43.95683" lon="2.20195">
        <ele>183</ele>
        <time>2020-08-25T08:04:44.308Z</time>
      </trkpt>
      <trkpt lat="43.95683" lon="2.20197">
        <ele>183</ele>
        <time>2020-08-25T08:04:45.308Z</time>
      </trkpt>
      <trkpt lat="43.95683" lon="2.20199">
        <ele>183</ele>
        <time>2020-08-25T08:04:46.308Z</time>
      </trkpt>
      <trkpt lat="43.95683" lon="2.20201">
        <ele>183</ele>
        <time>2020-08-25T08:04:47.308Z</time>
      </trkpt>
      <trkpt lat="43.95684" lon="2.20203">
        <ele>183</ele>
        <time>2020-08-25T08:04:48.308Z</time>
      </trkpt>
      <trkpt lat="43.95684" lon="2.20205">
        <ele>183</ele>
        <time>2020-08-25T08:04:49.308Z</time>
      </trkpt>
      <trkpt lat="43.95684" lon="2.20207">
        <ele>183</ele>
        <time>2020-08-25T08:04:50.308Z</time>
      </trkpt>
      <trkpt lat="43.95684" lon="2.20209">
        <ele>183</ele>
        <time>2020-08-25T08:04:51.308Z</time>
      </trkpt>
      <trkpt lat="43.95684" lon="2.20211">
        <ele>183</ele>
        <time>2020-08-25T08:04:52.308Z</time>
      </trkpt>
      <trkpt lat="43.95684" lon="2.20213">
        <ele>183</ele>
        <time>2020-08-25T08:04:53.308Z</time>
      </trkpt>
      <trkpt lat="43.95684" lon="2.20215">
        <ele>183</ele>
        <time>2020-08-25T08:04:54.308Z</time>
      </trkpt>
      <trkpt lat="43.95684" lon="2.20217">
        <ele>184</ele>
        <time>2020-08-25T08:04:55.308Z</time>
      </trkpt>
      <trkpt lat="43.95685" lon="2.2022">
        <ele>184</ele>
        <time>2020-08-25T08:04:56.308Z</time>
      </trkpt>
      <trkpt lat="43.95685" lon="2.20222">
        <ele>184</ele>
        <time>2020-08-25T08:04:57.308Z</time>
      </trkpt>
      <trkpt lat="43.95685" lon="2.20224">
        <ele>184</ele>
        <time>2020-08-25T08:04:58.308Z</time>
      </trkpt>
      <trkpt lat="43.95685" lon="2.20226">
        <ele>184</ele>
        <time>2020-08-25T08:04:59.308Z</time>
      </trkpt>
      <trkpt lat="43.95685" lon="2.20228">
        <ele>184</ele>
        <time>2020-08-25T08:05:00.308Z</time>
      </trkpt>
      <trkpt lat="43.95685" lon="2.2023">
        <ele>184</ele>
        <time>2020-08-25T08:05:01.308Z</time>
      </trkpt>
      <trkpt lat="43.95685" lon="2.20232">
        <ele>184</ele>
        <time>2020-08-25T08:05:02.308Z</time>
      </trkpt>
      <trkpt lat="43.95685" lon="2.20234">
        <ele>184</ele>
        <time>2020-08-25T08:05:03.308Z</time>
      </trkpt>
      <trkpt lat="43.95686" lon="2.20237">
        <ele>184</ele>
        <time>2020-08-25T08:05:04.308Z</time>
      </trkpt>
      <trkpt lat="43.95686" lon="2.20239">
        <ele>184</ele>
        <time>2020-08-25T08:05:05.308Z</time>
      </trkpt>
      <trkpt lat="43.95686" lon="2.20241">
        <ele>184</ele>
        <time>2020-08-25T08:05:06.308Z</time>
      </trkpt>
      <trkpt lat="43.95686" lon="2.20243">
        <ele>184</ele>
        <time>2020-08-25T08:05:07.308Z</time>
      </trkpt>
      <trkpt lat="43.95686" lon="2.20245">
        <ele>184</ele>
        <time>2020-08-25T08:05:08.308Z</time>
      </trkpt>
      <trkpt lat="43.95686" lon="2.20247">
        <ele>184</ele>
        <time>2020-08-25T08:05:09.308Z</time>
      </trkpt>
      <trkpt lat="43.95686" lon="2.20249">
        <ele>184</ele>
        <time>2020-08-25T08:05:10.308Z</time>
      </trkpt>
      <trkpt lat="43.95686" lon="2.20251">
        <ele>184</ele>
        <time>2020-08-25T08:05:11.308Z</time>
      </trkpt>
      <trkpt lat="43.95686" lon="2.20253">
        <ele>184</ele>
        <time>2020-08-25T08:05:12.308Z</time>
      </trkpt>
      <trkpt lat="43.95687" lon="2.20255">
        <ele>184</ele>
        <time>2020-08-25T08:05:13.308Z</time>
      </trkpt>
      <trkpt lat="43.95687" lon="2.20257">
        <ele>184</ele>
        <time>2020-08-25T08:05:14.308Z</time>
      </trkpt>
      <trkpt lat="43.95687" lon="2.20259">
        <ele>184</ele>
        <time>2020-08-25T08:05:15.308Z</time>
      </trkpt>
      <trkpt lat="43.95687" lon="2.20262">
        <ele>184</ele>
        <time>2020-08-25T08:05:16.308Z</time>
      </trkpt>
      <trkpt lat="43.95687" lon="2.20264">
        <ele>184</ele>
        <time>2020-08-25T08:05:17.308Z</time>
      </trkpt>
      <trkpt lat="43.95687" lon="2.20266">
        <ele>184</ele>
        <time>2020-08-25T08:05:18.308Z</time>
      </trkpt>
      <trkpt lat="43.95687" lon="2.20268">
        <ele>184</ele>
        <time>2020-08-25T08:05:19.308Z</time>
      </trkpt>
      <trkpt lat="43.95688" lon="2.2027">
        <ele>184</ele>
        <time>2020-08-25T08:05:20.308Z</time>
      </trkpt>
      <trkpt lat="43.95688" lon="2.20272">
        <ele>184</ele>
        <time>2020-08-25T08:05:21.308Z</time>
      </trkpt>
      <trkpt lat="43.95688" lon="2.20274">
        <ele>184</ele>
        <time>2020-08-25T08:05:22.308Z</time>
      </trkpt>
      <trkpt lat="43.95688" lon="2.20276">
        <ele>184</ele>
        <time>2020-08-25T08:05:23.308Z</time>
      </trkpt>
      <trkpt lat="43.95688" lon="2.20278">
        <ele>184</ele>
        <time>2020-08-25T08:05:24.308Z</time>
      </trkpt>
      <trkpt lat="43.95688" lon="2.2028">
        <ele>184</ele>
        <time>2020-08-25T08:05:25.308Z</time>
      </trkpt>
      <trkpt lat="43.95688" lon="2.20283">
        <ele>184</ele>
        <time>2020-08-25T08:05:26.308Z</time>
      </trkpt>
      <trkpt lat="43.95688" lon="2.20285">
        <ele>184</ele>
        <time>2020-08-25T08:05:27.308Z</time>
      </trkpt>
      <trkpt lat="43.95688" lon="2.20287">
        <ele>184</ele>
        <time>2020-08-25T08:05:28.308Z</time>
      </trkpt>
      <trkpt lat="43.95688" lon="2.20289">
        <ele>184</ele>
        <time>2020-08-25T08:05:29.308Z</time>
      </trkpt>
      <trkpt lat="43.95689" lon="2.20291">
        <ele>184</ele>
        <time>2020-08-25T08:05:30.308Z</time>
      </trkpt>
      <trkpt lat="43.95689" lon="2.20293">
        <ele>184</ele>
        <time>2020-08-25T08:05:31.308Z</time>
      </trkpt>
      <trkpt lat="43.95689" lon="2.20295">
        <ele>184</ele>
        <time>2020-08-25T08:05:32.308Z</time>
      </trkpt>
      <trkpt lat="43.95689" lon="2.20297">
        <ele>183</ele>
        <time>2020-08-25T08:05:33.308Z</time>
      </trkpt>
      <trkpt lat="43.95689" lon="2.20299">
        <ele>183</ele>
        <time>2020-08-25T08:05:34.308Z</time>
      </trkpt>
      <trkpt lat="43.95689" lon="2.20301">
        <ele>183</ele>
        <time>2020-08-25T08:05:35.308Z</time>
      </trkpt>
      <trkpt lat="43.9569" lon="2.20303">
        <ele>183</ele>
        <time>2020-08-25T08:05:36.308Z</time>
      </trkpt>
      <trkpt lat="43.9569" lon="2.20305">
        <ele>183</ele>
        <time>2020-08-25T08:05:37.308Z</time>
      </trkpt>
      <trkpt lat="43.9569" lon="2.20307">
        <ele>183</ele>
        <time>2020-08-25T08:05:38.308Z</time>
      </trkpt>
      <trkpt lat="43.9569" lon="2.20309">
        <ele>183</ele>
        <time>2020-08-25T08:05:39.308Z</time>
      </trkpt>
      <trkpt lat="43.9569" lon="2.20311">
        <ele>183</ele>
        <time>2020-08-25T08:05:40.308Z</time>
      </trkpt>
      <trkpt lat="43.9569" lon="2.20313">
        <ele>183</ele>
        <time>2020-08-25T08:05:41.308Z</time>
      </trkpt>
      <trkpt lat="43.9569" lon="2.20315">
        <ele>183</ele>
        <time>2020-08-25T08:05:42.308Z</time>
      </trkpt>
      <trkpt lat="43.9569" lon="2.20318">
        <ele>183</ele>
        <time>2020-08-25T08:05:43.308Z</time>
      </trkpt>
      <trkpt lat="43.9569" lon="2.2032">
        <ele>183</ele>
        <time>2020-08-25T08:05:44.308Z</time>
      </trkpt>
      <trkpt lat="43.9569" lon="2.20322">
        <ele>183</ele>
        <time>2020-08-25T08:05:45.308Z</time>
      </trkpt>
      <trkpt lat="43.9569" lon="2.20324">
        <ele>183</ele>
        <time>2020-08-25T08:05:46.308Z</time>
      </trkpt>
      <trkpt lat="43.9569" lon="2.20326">
        <ele>183</ele>
        <time>2020-08-25T08:05:47.308Z</time>
      </trkpt>
      <trkpt lat="43.9569" lon="2.20328">
        <ele>182</ele>
        <time>2020-08-25T08:05:48.308Z</time>
      </trkpt>
      <trkpt lat="43.9569" lon="2.2033">
        <ele>182</ele>
        <time>2020-08-25T08:05:49.308Z</time>
      </trkpt>
      <trkpt lat="43.9569" lon="2.20332">
        <ele>182</ele>
        <time>2020-08-25T08:05:50.308Z</time>
      </trkpt>
      <trkpt lat="43.9569" lon="2.20335">
        <ele>182</ele>
        <time>2020-08-25T08:05:51.308Z</time>
      </trkpt>
      <trkpt lat="43.9569" lon="2.20337">
        <ele>182</ele>
        <time>2020-08-25T08:05:52.308Z</time>
      </trkpt>
      <trkpt lat="43.9569" lon="2.20339">
        <ele>182</ele>
        <time>2020-08-25T08:05:53.308Z</time>
      </trkpt>
      <trkpt lat="43.9569" lon="2.20341">
        <ele>181</ele>
        <time>2020-08-25T08:05:54.308Z</time>
      </trkpt>
      <trkpt lat="43.9569" lon="2.20343">
        <ele>181</ele>
        <time>2020-08-25T08:05:55.308Z</time>
      </trkpt>
      <trkpt lat="43.9569" lon="2.20345">
        <ele>181</ele>
        <time>2020-08-25T08:05:56.308Z</time>
      </trkpt>
      <trkpt lat="43.9569" lon="2.20347">
        <ele>181</ele>
        <time>2020-08-25T08:05:57.308Z</time>
      </trkpt>
      <trkpt lat="43.95691" lon="2.20349">
        <ele>181</ele>
        <time>2020-08-25T08:05:58.308Z</time>
      </trkpt>
      <trkpt lat="43.95691" lon="2.20352">
        <ele>181</ele>
        <time>2020-08-25T08:05:59.308Z</time>
      </trkpt>
      <trkpt lat="43.95691" lon="2.20354">
        <ele>181</ele>
        <time>2020-08-25T08:06:00.308Z</time>
      </trkpt>
      <trkpt lat="43.95691" lon="2.20356">
        <ele>181</ele>
        <time>2020-08-25T08:06:01.308Z</time>
      </trkpt>
      <trkpt lat="43.95691" lon="2.20358">
        <ele>181</ele>
        <time>2020-08-25T08:06:02.308Z</time>
      </trkpt>
      <trkpt lat="43.95691" lon="2.2036">
        <ele>181</ele>
        <time>2020-08-25T08:06:03.308Z</time>
      </trkpt>
      <trkpt lat="43.95692" lon="2.20362">
        <ele>181</ele>
        <time>2020-08-25T08:06:04.308Z</time>
      </trkpt>
      <trkpt lat="43.95692" lon="2.20364">
        <ele>182</ele>
        <time>2020-08-25T08:06:05.308Z</time>
      </trkpt>
      <trkpt lat="43.95692" lon="2.20366">
        <ele>182</ele>
        <time>2020-08-25T08:06:06.308Z</time>
      </trkpt>
      <trkpt lat="43.95692" lon="2.20369">
        <ele>182</ele>
        <time>2020-08-25T08:06:07.308Z</time>
      </trkpt>
      <trkpt lat="43.95692" lon="2.20371">
        <ele>182</ele>
        <time>2020-08-25T08:06:08.308Z</time>
      </trkpt>
      <trkpt lat="43.95692" lon="2.20373">
        <ele>182</ele>
        <time>2020-08-25T08:06:09.308Z</time>
      </trkpt>
      <trkpt lat="43.95693" lon="2.20375">
        <ele>182</ele>
        <time>2020-08-25T08:06:10.308Z</time>
      </trkpt>
      <trkpt lat="43.95693" lon="2.20377">
        <ele>182</ele>
        <time>2020-08-25T08:06:11.308Z</time>
      </trkpt>
      <trkpt lat="43.95693" lon="2.20379">
        <ele>182</ele>
        <time>2020-08-25T08:06:12.308Z</time>
      </trkpt>
      <trkpt lat="43.95693" lon="2.20381">
        <ele>182</ele>
        <time>2020-08-25T08:06:13.308Z</time>
      </trkpt>
      <trkpt lat="43.95694" lon="2.20383">
        <ele>182</ele>
        <time>2020-08-25T08:06:14.308Z</time>
      </trkpt>
      <trkpt lat="43.95694" lon="2.20385">
        <ele>182</ele>
        <time>2020-08-25T08:06:15.308Z</time>
      </trkpt>
      <trkpt lat="43.95694" lon="2.20387">
        <ele>182</ele>
        <time>2020-08-25T08:06:16.308Z</time>
      </trkpt>
      <trkpt lat="43.95694" lon="2.20389">
        <ele>182</ele>
        <time>2020-08-25T08:06:17.308Z</time>
      </trkpt>
      <trkpt lat="43.95694" lon="2.20391">
        <ele>182</ele>
        <time>2020-08-25T08:06:18.308Z</time>
      </trkpt>
      <trkpt lat="43.95694" lon="2.20393">
        <ele>182</ele>
        <time>2020-08-25T08:06:19.308Z</time>
      </trkpt>
      <trkpt lat="43.95694" lon="2.20395">
        <ele>182</ele>
        <time>2020-08-25T08:06:20.308Z</time>
      </trkpt>
      <trkpt lat="43.95694" lon="2.20396">
        <ele>182</ele>
        <time>2020-08-25T08:06:21.308Z</time>
      </trkpt>
      <trkpt lat="43.95694" lon="2.20398">
        <ele>182</ele>
        <time>2020-08-25T08:06:22.308Z</time>
      </trkpt>
      <trkpt lat="43.95694" lon="2.204">
        <ele>182</ele>
        <time>2020-08-25T08:06:23.308Z</time>
      </trkpt>
      <trkpt lat="43.95694" lon="2.20403">
        <ele>182</ele>
        <time>2020-08-25T08:06:24.308Z</time>
      </trkpt>
      <trkpt lat="43.95694" lon="2.20405">
        <ele>182</ele>
        <time>2020-08-25T08:06:25.308Z</time>
      </trkpt>
      <trkpt lat="43.95694" lon="2.20407">
        <ele>182</ele>
        <time>2020-08-25T08:06:26.308Z</time>
      </trkpt>
      <trkpt lat="43.95694" lon="2.20409">
        <ele>182</ele>
        <time>2020-08-25T08:06:27.308Z</time>
      </trkpt>
      <trkpt lat="43.95694" lon="2.20411">
        <ele>182</ele>
        <time>2020-08-25T08:06:28.308Z</time>
      </trkpt>
      <trkpt lat="43.95694" lon="2.20413">
        <ele>182</ele>
        <time>2020-08-25T08:06:29.308Z</time>
      </trkpt>
      <trkpt lat="43.95694" lon="2.20415">
        <ele>182</ele>
        <time>2020-08-25T08:06:30.308Z</time>
      </trkpt>
      <trkpt lat="43.95694" lon="2.20417">
        <ele>182</ele>
        <time>2020-08-25T08:06:31.308Z</time>
      </trkpt>
      <trkpt lat="43.95694" lon="2.20419">
        <ele>182</ele>
        <time>2020-08-25T08:06:32.308Z</time>
      </trkpt>
      <trkpt lat="43.95694" lon="2.20421">
        <ele>182</ele>
        <time>2020-08-25T08:06:33.308Z</time>
      </trkpt>
      <trkpt lat="43.95694" lon="2.20423">
        <ele>182</ele>
        <time>2020-08-25T08:06:34.308Z</time>
      </trkpt>
      <trkpt lat="43.95694" lon="2.20425">
        <ele>182</ele>
        <time>2020-08-25T08:06:35.308Z</time>
      </trkpt>
      <trkpt lat="43.95694" lon="2.20427">
        <ele>182</ele>
        <time>2020-08-25T08:06:36.308Z</time>
      </trkpt>
      <trkpt lat="43.95694" lon="2.20429">
        <ele>182</ele>
        <time>2020-08-25T08:06:37.308Z</time>
      </trkpt>
      <trkpt lat="43.95694" lon="2.20431">
        <ele>182</ele>
        <time>2020-08-25T08:06:38.308Z</time>
      </trkpt>
      <trkpt lat="43.95694" lon="2.20433">
        <ele>182</ele>
        <time>2020-08-25T08:06:39.308Z</time>
      </trkpt>
      <trkpt lat="43.95694" lon="2.20435">
        <ele>182</ele>
        <time>2020-08-25T08:06:40.308Z</time>
      </trkpt>
      <trkpt lat="43.95693" lon="2.20437">
        <ele>182</ele>
        <time>2020-08-25T08:06:41.308Z</time>
      </trkpt>
      <trkpt lat="43.95693" lon="2.20439">
        <ele>182</ele>
        <time>2020-08-25T08:06:42.308Z</time>
      </trkpt>
      <trkpt lat="43.95693" lon="2.20442">
        <ele>182</ele>
        <time>2020-08-25T08:06:43.308Z</time>
      </trkpt>
      <trkpt lat="43.95693" lon="2.20443">
        <ele>182</ele>
        <time>2020-08-25T08:06:44.308Z</time>
      </trkpt>
      <trkpt lat="43.95693" lon="2.20445">
        <ele>182</ele>
        <time>2020-08-25T08:06:45.308Z</time>
      </trkpt>
      <trkpt lat="43.95693" lon="2.20447">
        <ele>182</ele>
        <time>2020-08-25T08:06:46.308Z</time>
      </trkpt>
      <trkpt lat="43.95693" lon="2.20449">
        <ele>182</ele>
        <time>2020-08-25T08:06:47.308Z</time>
      </trkpt>
      <trkpt lat="43.95693" lon="2.20451">
        <ele>182</ele>
        <time>2020-08-25T08:06:48.308Z</time>
      </trkpt>
      <trkpt lat="43.95693" lon="2.20453">
        <ele>183</ele>
        <time>2020-08-25T08:06:49.308Z</time>
      </trkpt>
      <trkpt lat="43.95692" lon="2.20455">
        <ele>183</ele>
        <time>2020-08-25T08:06:50.308Z</time>
      </trkpt>
      <trkpt lat="43.95692" lon="2.20457">
        <ele>183</ele>
        <time>2020-08-25T08:06:51.308Z</time>
      </trkpt>
      <trkpt lat="43.95692" lon="2.20459">
        <ele>183</ele>
        <time>2020-08-25T08:06:52.308Z</time>
      </trkpt>
      <trkpt lat="43.95692" lon="2.20461">
        <ele>183</ele>
        <time>2020-08-25T08:06:53.308Z</time>
      </trkpt>
      <trkpt lat="43.95693" lon="2.20464">
        <ele>183</ele>
        <time>2020-08-25T08:06:54.308Z</time>
      </trkpt>
      <trkpt lat="43.95693" lon="2.20466">
        <ele>183</ele>
        <time>2020-08-25T08:06:55.308Z</time>
      </trkpt>
      <trkpt lat="43.95693" lon="2.20468">
        <ele>183</ele>
        <time>2020-08-25T08:06:56.308Z</time>
      </trkpt>
      <trkpt lat="43.95694" lon="2.2047">
        <ele>183</ele>
        <time>2020-08-25T08:06:57.308Z</time>
      </trkpt>
      <trkpt lat="43.95695" lon="2.20471">
        <ele>183</ele>
        <time>2020-08-25T08:06:58.308Z</time>
      </trkpt>
      <trkpt lat="43.95695" lon="2.20473">
        <ele>183</ele>
        <time>2020-08-25T08:06:59.308Z</time>
      </trkpt>
      <trkpt lat="43.95696" lon="2.20474">
        <ele>183</ele>
        <time>2020-08-25T08:07:00.308Z</time>
      </trkpt>
      <trkpt lat="43.95697" lon="2.20476">
        <ele>183</ele>
        <time>2020-08-25T08:07:01.308Z</time>
      </trkpt>
      <trkpt lat="43.95698" lon="2.20478">
        <ele>183</ele>
        <time>2020-08-25T08:07:02.308Z</time>
      </trkpt>
      <trkpt lat="43.95699" lon="2.2048">
        <ele>184</ele>
        <time>2020-08-25T08:07:03.308Z</time>
      </trkpt>
      <trkpt lat="43.957" lon="2.20482">
        <ele>184</ele>
        <time>2020-08-25T08:07:04.308Z</time>
      </trkpt>
      <trkpt lat="43.95701" lon="2.20483">
        <ele>184</ele>
        <time>2020-08-25T08:07:05.308Z</time>
      </trkpt>
      <trkpt lat="43.95702" lon="2.20485">
        <ele>184</ele>
        <time>2020-08-25T08:07:06.308Z</time>
      </trkpt>
      <trkpt lat="43.95703" lon="2.20487">
        <ele>184</ele>
        <time>2020-08-25T08:07:07.308Z</time>
      </trkpt>
      <trkpt lat="43.95704" lon="2.20488">
        <ele>184</ele>
        <time>2020-08-25T08:07:08.308Z</time>
      </trkpt>
      <trkpt lat="43.95704" lon="2.2049">
        <ele>184</ele>
        <time>2020-08-25T08:07:09.308Z</time>
      </trkpt>
      <trkpt lat="43.95705" lon="2.20492">
        <ele>184</ele>
        <time>2020-08-25T08:07:10.308Z</time>
      </trkpt>
      <trkpt lat="43.95705" lon="2.20493">
        <ele>184</ele>
        <time>2020-08-25T08:07:11.308Z</time>
      </trkpt>
      <trkpt lat="43.95706" lon="2.20495">
        <ele>184</ele>
        <time>2020-08-25T08:07:12.308Z</time>
      </trkpt>
      <trkpt lat="43.95707" lon="2.20497">
        <ele>184</ele>
        <time>2020-08-25T08:07:13.308Z</time>
      </trkpt>
      <trkpt lat="43.95708" lon="2.20499">
        <ele>184</ele>
        <time>2020-08-25T08:07:14.308Z</time>
      </trkpt>
      <trkpt lat="43.95708" lon="2.20501">
        <ele>184</ele>
        <time>2020-08-25T08:07:15.308Z</time>
      </trkpt>
      <trkpt lat="43.95708" lon="2.20503">
        <ele>185</ele>
        <time>2020-08-25T08:07:16.308Z</time>
      </trkpt>
      <trkpt lat="43.95707" lon="2.20505">
        <ele>185</ele>
        <time>2020-08-25T08:07:17.308Z</time>
      </trkpt>
      <trkpt lat="43.95707" lon="2.20507">
        <ele>185</ele>
        <time>2020-08-25T08:07:18.308Z</time>
      </trkpt>
      <trkpt lat="43.95706" lon="2.20509">
        <ele>185</ele>
        <time>2020-08-25T08:07:19.308Z</time>
      </trkpt>
      <trkpt lat="43.95706" lon="2.20511">
        <ele>186</ele>
        <time>2020-08-25T08:07:20.308Z</time>
      </trkpt>
      <trkpt lat="43.95705" lon="2.20513">
        <ele>186</ele>
        <time>2020-08-25T08:07:21.308Z</time>
      </trkpt>
      <trkpt lat="43.95705" lon="2.20515">
        <ele>186</ele>
        <time>2020-08-25T08:07:22.308Z</time>
      </trkpt>
      <trkpt lat="43.95704" lon="2.20517">
        <ele>186</ele>
        <time>2020-08-25T08:07:23.308Z</time>
      </trkpt>
      <trkpt lat="43.95704" lon="2.20519">
        <ele>186</ele>
        <time>2020-08-25T08:07:24.308Z</time>
      </trkpt>
      <trkpt lat="43.95703" lon="2.20521">
        <ele>187</ele>
        <time>2020-08-25T08:07:25.308Z</time>
      </trkpt>
      <trkpt lat="43.95702" lon="2.20523">
        <ele>187</ele>
        <time>2020-08-25T08:07:26.308Z</time>
      </trkpt>
      <trkpt lat="43.95702" lon="2.20525">
        <ele>187</ele>
        <time>2020-08-25T08:07:27.308Z</time>
      </trkpt>
      <trkpt lat="43.95701" lon="2.20527">
        <ele>187</ele>
        <time>2020-08-25T08:07:28.308Z</time>
      </trkpt>
      <trkpt lat="43.957" lon="2.20529">
        <ele>188</ele>
        <time>2020-08-25T08:07:29.308Z</time>
      </trkpt>
      <trkpt lat="43.95699" lon="2.20531">
        <ele>188</ele>
        <time>2020-08-25T08:07:30.308Z</time>
      </trkpt>
      <trkpt lat="43.95699" lon="2.20533">
        <ele>188</ele>
        <time>2020-08-25T08:07:31.308Z</time>
      </trkpt>
      <trkpt lat="43.95698" lon="2.20535">
        <ele>188</ele>
        <time>2020-08-25T08:07:32.308Z</time>
      </trkpt>
      <trkpt lat="43.95697" lon="2.20537">
        <ele>188</ele>
        <time>2020-08-25T08:07:33.308Z</time>
      </trkpt>
      <trkpt lat="43.95697" lon="2.20539">
        <ele>188</ele>
        <time>2020-08-25T08:07:34.308Z</time>
      </trkpt>
      <trkpt lat="43.95696" lon="2.20541">
        <ele>189</ele>
        <time>2020-08-25T08:07:35.308Z</time>
      </trkpt>
      <trkpt lat="43.95695" lon="2.20543">
        <ele>189</ele>
        <time>2020-08-25T08:07:36.308Z</time>
      </trkpt>
      <trkpt lat="43.95695" lon="2.20545">
        <ele>189</ele>
        <time>2020-08-25T08:07:37.308Z</time>
      </trkpt>
      <trkpt lat="43.95694" lon="2.20547">
        <ele>189</ele>
        <time>2020-08-25T08:07:38.308Z</time>
      </trkpt>
      <trkpt lat="43.95693" lon="2.20549">
        <ele>189</ele>
        <time>2020-08-25T08:07:39.308Z</time>
      </trkpt>
      <trkpt lat="43.95693" lon="2.20551">
        <ele>190</ele>
        <time>2020-08-25T08:07:40.308Z</time>
      </trkpt>
      <trkpt lat="43.95692" lon="2.20553">
        <ele>190</ele>
        <time>2020-08-25T08:07:41.308Z</time>
      </trkpt>
      <trkpt lat="43.95692" lon="2.20555">
        <ele>190</ele>
        <time>2020-08-25T08:07:42.308Z</time>
      </trkpt>
      <trkpt lat="43.95692" lon="2.20556">
        <ele>190</ele>
        <time>2020-08-25T08:07:43.308Z</time>
      </trkpt>
      <trkpt lat="43.95692" lon="2.20558">
        <ele>190</ele>
        <time>2020-08-25T08:07:44.308Z</time>
      </trkpt>
      <trkpt lat="43.95692" lon="2.20561">
        <ele>190</ele>
        <time>2020-08-25T08:07:45.308Z</time>
      </trkpt>
      <trkpt lat="43.95693" lon="2.20563">
        <ele>190</ele>
        <time>2020-08-25T08:07:46.308Z</time>
      </trkpt>
      <trkpt lat="43.95693" lon="2.20565">
        <ele>190</ele>
        <time>2020-08-25T08:07:47.308Z</time>
      </trkpt>
      <trkpt lat="43.95693" lon="2.20567">
        <ele>190</ele>
        <time>2020-08-25T08:07:48.308Z</time>
      </trkpt>
      <trkpt lat="43.95693" lon="2.20568">
        <ele>190</ele>
        <time>2020-08-25T08:07:49.308Z</time>
      </trkpt>
      <trkpt lat="43.95693" lon="2.2057">
        <ele>190</ele>
        <time>2020-08-25T08:07:50.308Z</time>
      </trkpt>
      <trkpt lat="43.95693" lon="2.20572">
        <ele>190</ele>
        <time>2020-08-25T08:07:51.308Z</time>
      </trkpt>
      <trkpt lat="43.95692" lon="2.20574">
        <ele>190</ele>
        <time>2020-08-25T08:07:52.308Z</time>
      </trkpt>
      <trkpt lat="43.95692" lon="2.20575">
        <ele>190</ele>
        <time>2020-08-25T08:07:53.308Z</time>
      </trkpt>
      <trkpt lat="43.95691" lon="2.20577">
        <ele>190</ele>
        <time>2020-08-25T08:07:54.308Z</time>
      </trkpt>
      <trkpt lat="43.9569" lon="2.20579">
        <ele>190</ele>
        <time>2020-08-25T08:07:55.308Z</time>
      </trkpt>
      <trkpt lat="43.95688" lon="2.20582">
        <ele>190</ele>
        <time>2020-08-25T08:07:56.308Z</time>
      </trkpt>
      <trkpt lat="43.95686" lon="2.20584">
        <ele>190</ele>
        <time>2020-08-25T08:07:57.308Z</time>
      </trkpt>
      <trkpt lat="43.95685" lon="2.20586">
        <ele>190</ele>
        <time>2020-08-25T08:07:58.308Z</time>
      </trkpt>
      <trkpt lat="43.95684" lon="2.20588">
        <ele>190</ele>
        <time>2020-08-25T08:07:59.308Z</time>
      </trkpt>
      <trkpt lat="43.95683" lon="2.2059">
        <ele>190</ele>
        <time>2020-08-25T08:08:00.308Z</time>
      </trkpt>
      <trkpt lat="43.95682" lon="2.20592">
        <ele>190</ele>
        <time>2020-08-25T08:08:01.308Z</time>
      </trkpt>
      <trkpt lat="43.95681" lon="2.20595">
        <ele>190</ele>
        <time>2020-08-25T08:08:02.308Z</time>
      </trkpt>
      <trkpt lat="43.9568" lon="2.20597">
        <ele>190</ele>
        <time>2020-08-25T08:08:03.308Z</time>
      </trkpt>
      <trkpt lat="43.9568" lon="2.20599">
        <ele>190</ele>
        <time>2020-08-25T08:08:04.308Z</time>
      </trkpt>
      <trkpt lat="43.95679" lon="2.20601">
        <ele>190</ele>
        <time>2020-08-25T08:08:05.308Z</time>
      </trkpt>
      <trkpt lat="43.95678" lon="2.20602">
        <ele>190</ele>
        <time>2020-08-25T08:08:06.308Z</time>
      </trkpt>
      <trkpt lat="43.95676" lon="2.20604">
        <ele>190</ele>
        <time>2020-08-25T08:08:07.308Z</time>
      </trkpt>
      <trkpt lat="43.95675" lon="2.20605">
        <ele>190</ele>
        <time>2020-08-25T08:08:08.308Z</time>
      </trkpt>
      <trkpt lat="43.95674" lon="2.20606">
        <ele>190</ele>
        <time>2020-08-25T08:08:09.308Z</time>
      </trkpt>
      <trkpt lat="43.95674" lon="2.20608">
        <ele>190</ele>
        <time>2020-08-25T08:08:10.308Z</time>
      </trkpt>
      <trkpt lat="43.95673" lon="2.2061">
        <ele>190</ele>
        <time>2020-08-25T08:08:11.308Z</time>
      </trkpt>
      <trkpt lat="43.95672" lon="2.20612">
        <ele>189</ele>
        <time>2020-08-25T08:08:12.308Z</time>
      </trkpt>
      <trkpt lat="43.95672" lon="2.20613">
        <ele>189</ele>
        <time>2020-08-25T08:08:13.308Z</time>
      </trkpt>
      <trkpt lat="43.95671" lon="2.20615">
        <ele>189</ele>
        <time>2020-08-25T08:08:14.308Z</time>
      </trkpt>
      <trkpt lat="43.95671" lon="2.20617">
        <ele>189</ele>
        <time>2020-08-25T08:08:15.308Z</time>
      </trkpt>
      <trkpt lat="43.9567" lon="2.20618">
        <ele>189</ele>
        <time>2020-08-25T08:08:16.308Z</time>
      </trkpt>
      <trkpt lat="43.95669" lon="2.2062">
        <ele>189</ele>
        <time>2020-08-25T08:08:17.308Z</time>
      </trkpt>
      <trkpt lat="43.95669" lon="2.20622">
        <ele>189</ele>
        <time>2020-08-25T08:08:18.308Z</time>
      </trkpt>
      <trkpt lat="43.95668" lon="2.20624">
        <ele>189</ele>
        <time>2020-08-25T08:08:19.308Z</time>
      </trkpt>
      <trkpt lat="43.95668" lon="2.20625">
        <ele>189</ele>
        <time>2020-08-25T08:08:20.308Z</time>
      </trkpt>
      <trkpt lat="43.95667" lon="2.20627">
        <ele>189</ele>
        <time>2020-08-25T08:08:21.308Z</time>
      </trkpt>
      <trkpt lat="43.95666" lon="2.20628">
        <ele>188</ele>
        <time>2020-08-25T08:08:22.308Z</time>
      </trkpt>
      <trkpt lat="43.95665" lon="2.2063">
        <ele>188</ele>
        <time>2020-08-25T08:08:23.308Z</time>
      </trkpt>
      <trkpt lat="43.95665" lon="2.20632">
        <ele>188</ele>
        <time>2020-08-25T08:08:24.308Z</time>
      </trkpt>
      <trkpt lat="43.95664" lon="2.20633">
        <ele>188</ele>
        <time>2020-08-25T08:08:25.308Z</time>
      </trkpt>
      <trkpt lat="43.95663" lon="2.20635">
        <ele>188</ele>
        <time>2020-08-25T08:08:26.308Z</time>
      </trkpt>
      <trkpt lat="43.95662" lon="2.20637">
        <ele>188</ele>
        <time>2020-08-25T08:08:27.308Z</time>
      </trkpt>
      <trkpt lat="43.95662" lon="2.20639">
        <ele>188</ele>
        <time>2020-08-25T08:08:28.308Z</time>
      </trkpt>
      <trkpt lat="43.95661" lon="2.20641">
        <ele>188</ele>
        <time>2020-08-25T08:08:29.308Z</time>
      </trkpt>
      <trkpt lat="43.9566" lon="2.20642">
        <ele>187</ele>
        <time>2020-08-25T08:08:30.308Z</time>
      </trkpt>
      <trkpt lat="43.9566" lon="2.20644">
        <ele>187</ele>
        <time>2020-08-25T08:08:31.308Z</time>
      </trkpt>
      <trkpt lat="43.95659" lon="2.20646">
        <ele>187</ele>
        <time>2020-08-25T08:08:32.308Z</time>
      </trkpt>
      <trkpt lat="43.95659" lon="2.20648">
        <ele>187</ele>
        <time>2020-08-25T08:08:33.308Z</time>
      </trkpt>
      <trkpt lat="43.95658" lon="2.20649">
        <ele>187</ele>
        <time>2020-08-25T08:08:34.308Z</time>
      </trkpt>
      <trkpt lat="43.95657" lon="2.20651">
        <ele>187</ele>
        <time>2020-08-25T08:08:35.308Z</time>
      </trkpt>
      <trkpt lat="43.95656" lon="2.20653">
        <ele>187</ele>
        <time>2020-08-25T08:08:36.308Z</time>
      </trkpt>
      <trkpt lat="43.95655" lon="2.20655">
        <ele>187</ele>
        <time>2020-08-25T08:08:37.308Z</time>
      </trkpt>
      <trkpt lat="43.95655" lon="2.20657">
        <ele>187</ele>
        <time>2020-08-25T08:08:38.308Z</time>
      </trkpt>
      <trkpt lat="43.95654" lon="2.20659">
        <ele>187</ele>
        <time>2020-08-25T08:08:39.308Z</time>
      </trkpt>
      <trkpt lat="43.95653" lon="2.20661">
        <ele>187</ele>
        <time>2020-08-25T08:08:40.308Z</time>
      </trkpt>
      <trkpt lat="43.95652" lon="2.20663">
        <ele>187</ele>
        <time>2020-08-25T08:08:41.308Z</time>
      </trkpt>
      <trkpt lat="43.95652" lon="2.20665">
        <ele>187</ele>
        <time>2020-08-25T08:08:42.308Z</time>
      </trkpt>
      <trkpt lat="43.95651" lon="2.20666">
        <ele>187</ele>
        <time>2020-08-25T08:08:43.308Z</time>
      </trkpt>
      <trkpt lat="43.9565" lon="2.20668">
        <ele>187</ele>
        <time>2020-08-25T08:08:44.308Z</time>
      </trkpt>
      <trkpt lat="43.95649" lon="2.2067">
        <ele>187</ele>
        <time>2020-08-25T08:08:45.308Z</time>
      </trkpt>
      <trkpt lat="43.95648" lon="2.20671">
        <ele>187</ele>
        <time>2020-08-25T08:08:46.308Z</time>
      </trkpt>
      <trkpt lat="43.95647" lon="2.20673">
        <ele>187</ele>
        <time>2020-08-25T08:08:47.308Z</time>
      </trkpt>
      <trkpt lat="43.95646" lon="2.20675">
        <ele>187</ele>
        <time>2020-08-25T08:08:48.308Z</time>
      </trkpt>
      <trkpt lat="43.95645" lon="2.20677">
        <ele>187</ele>
        <time>2020-08-25T08:08:49.308Z</time>
      </trkpt>
      <trkpt lat="43.95645" lon="2.20678">
        <ele>187</ele>
        <time>2020-08-25T08:08:50.308Z</time>
      </trkpt>
      <trkpt lat="43.95644" lon="2.2068">
        <ele>186</ele>
        <time>2020-08-25T08:08:51.308Z</time>
      </trkpt>
      <trkpt lat="43.95643" lon="2.20682">
        <ele>187</ele>
        <time>2020-08-25T08:08:52.308Z</time>
      </trkpt>
      <trkpt lat="43.95642" lon="2.20684">
        <ele>187</ele>
        <time>2020-08-25T08:08:53.308Z</time>
      </trkpt>
      <trkpt lat="43.95642" lon="2.20685">
        <ele>186</ele>
        <time>2020-08-25T08:08:54.308Z</time>
      </trkpt>
      <trkpt lat="43.95641" lon="2.20687">
        <ele>186</ele>
        <time>2020-08-25T08:08:55.308Z</time>
      </trkpt>
      <trkpt lat="43.9564" lon="2.20689">
        <ele>186</ele>
        <time>2020-08-25T08:08:56.308Z</time>
      </trkpt>
      <trkpt lat="43.9564" lon="2.20691">
        <ele>186</ele>
        <time>2020-08-25T08:08:57.308Z</time>
      </trkpt>
      <trkpt lat="43.95639" lon="2.20692">
        <ele>186</ele>
        <time>2020-08-25T08:08:58.308Z</time>
      </trkpt>
      <trkpt lat="43.95638" lon="2.20694">
        <ele>186</ele>
        <time>2020-08-25T08:08:59.308Z</time>
      </trkpt>
      <trkpt lat="43.95638" lon="2.20696">
        <ele>186</ele>
        <time>2020-08-25T08:09:00.308Z</time>
      </trkpt>
      <trkpt lat="43.95637" lon="2.20698">
        <ele>186</ele>
        <time>2020-08-25T08:09:01.308Z</time>
      </trkpt>
      <trkpt lat="43.95636" lon="2.207">
        <ele>186</ele>
        <time>2020-08-25T08:09:02.308Z</time>
      </trkpt>
      <trkpt lat="43.95636" lon="2.20701">
        <ele>186</ele>
        <time>2020-08-25T08:09:03.308Z</time>
      </trkpt>
      <trkpt lat="43.95636" lon="2.20703">
        <ele>186</ele>
        <time>2020-08-25T08:09:04.308Z</time>
      </trkpt>
      <trkpt lat="43.95636" lon="2.20704">
        <ele>186</ele>
        <time>2020-08-25T08:09:05.308Z</time>
      </trkpt>
      <trkpt lat="43.95636" lon="2.20706">
        <ele>186</ele>
        <time>2020-08-25T08:09:06.308Z</time>
      </trkpt>
      <trkpt lat="43.95635" lon="2.20707">
        <ele>186</ele>
        <time>2020-08-25T08:09:07.308Z</time>
      </trkpt>
      <trkpt lat="43.95635" lon="2.20709">
        <ele>186</ele>
        <time>2020-08-25T08:09:08.308Z</time>
      </trkpt>
      <trkpt lat="43.95634" lon="2.20711">
        <ele>186</ele>
        <time>2020-08-25T08:09:09.308Z</time>
      </trkpt>
      <trkpt lat="43.95633" lon="2.20712">
        <ele>186</ele>
        <time>2020-08-25T08:09:10.308Z</time>
      </trkpt>
      <trkpt lat="43.95632" lon="2.20714">
        <ele>186</ele>
        <time>2020-08-25T08:09:11.308Z</time>
      </trkpt>
      <trkpt lat="43.95632" lon="2.20716">
        <ele>185</ele>
        <time>2020-08-25T08:09:12.308Z</time>
      </trkpt>
      <trkpt lat="43.95631" lon="2.20718">
        <ele>185</ele>
        <time>2020-08-25T08:09:13.308Z</time>
      </trkpt>
      <trkpt lat="43.95631" lon="2.20719">
        <ele>185</ele>
        <time>2020-08-25T08:09:14.308Z</time>
      </trkpt>
      <trkpt lat="43.95631" lon="2.20721">
        <ele>185</ele>
        <time>2020-08-25T08:09:15.308Z</time>
      </trkpt>
      <trkpt lat="43.9563" lon="2.20723">
        <ele>185</ele>
        <time>2020-08-25T08:09:16.308Z</time>
      </trkpt>
      <trkpt lat="43.95629" lon="2.20725">
        <ele>185</ele>
        <time>2020-08-25T08:09:17.308Z</time>
      </trkpt>
      <trkpt lat="43.95628" lon="2.20727">
        <ele>185</ele>
        <time>2020-08-25T08:09:18.308Z</time>
      </trkpt>
      <trkpt lat="43.95628" lon="2.20729">
        <ele>185</ele>
        <time>2020-08-25T08:09:19.308Z</time>
      </trkpt>
      <trkpt lat="43.95627" lon="2.20731">
        <ele>185</ele>
        <time>2020-08-25T08:09:20.308Z</time>
      </trkpt>
      <trkpt lat="43.95626" lon="2.20732">
        <ele>185</ele>
        <time>2020-08-25T08:09:21.308Z</time>
      </trkpt>
      <trkpt lat="43.95625" lon="2.20734">
        <ele>185</ele>
        <time>2020-08-25T08:09:22.308Z</time>
      </trkpt>
      <trkpt lat="43.95624" lon="2.20736">
        <ele>185</ele>
        <time>2020-08-25T08:09:23.308Z</time>
      </trkpt>
      <trkpt lat="43.95623" lon="2.20738">
        <ele>185</ele>
        <time>2020-08-25T08:09:24.308Z</time>
      </trkpt>
      <trkpt lat="43.95621" lon="2.20739">
        <ele>185</ele>
        <time>2020-08-25T08:09:25.308Z</time>
      </trkpt>
      <trkpt lat="43.9562" lon="2.20741">
        <ele>185</ele>
        <time>2020-08-25T08:09:26.308Z</time>
      </trkpt>
      <trkpt lat="43.95619" lon="2.20743">
        <ele>185</ele>
        <time>2020-08-25T08:09:27.308Z</time>
      </trkpt>
      <trkpt lat="43.95618" lon="2.20745">
        <ele>185</ele>
        <time>2020-08-25T08:09:28.308Z</time>
      </trkpt>
      <trkpt lat="43.95617" lon="2.20746">
        <ele>185</ele>
        <time>2020-08-25T08:09:29.308Z</time>
      </trkpt>
      <trkpt lat="43.95616" lon="2.20748">
        <ele>185</ele>
        <time>2020-08-25T08:09:30.308Z</time>
      </trkpt>
      <trkpt lat="43.95615" lon="2.20749">
        <ele>185</ele>
        <time>2020-08-25T08:09:31.308Z</time>
      </trkpt>
      <trkpt lat="43.95614" lon="2.20751">
        <ele>185</ele>
        <time>2020-08-25T08:09:32.308Z</time>
      </trkpt>
      <trkpt lat="43.95613" lon="2.20753">
        <ele>185</ele>
        <time>2020-08-25T08:09:33.308Z</time>
      </trkpt>
      <trkpt lat="43.95612" lon="2.20755">
        <ele>185</ele>
        <time>2020-08-25T08:09:34.308Z</time>
      </trkpt>
      <trkpt lat="43.95611" lon="2.20756">
        <ele>185</ele>
        <time>2020-08-25T08:09:35.308Z</time>
      </trkpt>
      <trkpt lat="43.9561" lon="2.20758">
        <ele>185</ele>
        <time>2020-08-25T08:09:36.308Z</time>
      </trkpt>
      <trkpt lat="43.95609" lon="2.2076">
        <ele>185</ele>
        <time>2020-08-25T08:09:37.308Z</time>
      </trkpt>
      <trkpt lat="43.95608" lon="2.20762">
        <ele>185</ele>
        <time>2020-08-25T08:09:38.308Z</time>
      </trkpt>
      <trkpt lat="43.95607" lon="2.20763">
        <ele>185</ele>
        <time>2020-08-25T08:09:39.308Z</time>
      </trkpt>
      <trkpt lat="43.95606" lon="2.20765">
        <ele>185</ele>
        <time>2020-08-25T08:09:40.308Z</time>
      </trkpt>
      <trkpt lat="43.95605" lon="2.20767">
        <ele>185</ele>
        <time>2020-08-25T08:09:41.308Z</time>
      </trkpt>
      <trkpt lat="43.95604" lon="2.20768">
        <ele>185</ele>
        <time>2020-08-25T08:09:42.308Z</time>
      </trkpt>
      <trkpt lat="43.95603" lon="2.2077">
        <ele>185</ele>
        <time>2020-08-25T08:09:43.308Z</time>
      </trkpt>
      <trkpt lat="43.95602" lon="2.20772">
        <ele>185</ele>
        <time>2020-08-25T08:09:44.308Z</time>
      </trkpt>
      <trkpt lat="43.95601" lon="2.20773">
        <ele>185</ele>
        <time>2020-08-25T08:09:45.308Z</time>
      </trkpt>
      <trkpt lat="43.956" lon="2.20775">
        <ele>185</ele>
        <time>2020-08-25T08:09:46.308Z</time>
      </trkpt>
      <trkpt lat="43.95599" lon="2.20777">
        <ele>185</ele>
        <time>2020-08-25T08:09:47.308Z</time>
      </trkpt>
      <trkpt lat="43.95598" lon="2.20778">
        <ele>185</ele>
        <time>2020-08-25T08:09:48.308Z</time>
      </trkpt>
      <trkpt lat="43.95597" lon="2.2078">
        <ele>185</ele>
        <time>2020-08-25T08:09:49.308Z</time>
      </trkpt>
      <trkpt lat="43.95596" lon="2.20781">
        <ele>185</ele>
        <time>2020-08-25T08:09:50.308Z</time>
      </trkpt>
      <trkpt lat="43.95595" lon="2.20782">
        <ele>185</ele>
        <time>2020-08-25T08:09:51.308Z</time>
      </trkpt>
      <trkpt lat="43.95594" lon="2.20783">
        <ele>185</ele>
        <time>2020-08-25T08:09:52.308Z</time>
      </trkpt>
      <trkpt lat="43.95592" lon="2.20784">
        <ele>185</ele>
        <time>2020-08-25T08:09:53.308Z</time>
      </trkpt>
      <trkpt lat="43.95591" lon="2.20785">
        <ele>185</ele>
        <time>2020-08-25T08:09:54.308Z</time>
      </trkpt>
      <trkpt lat="43.9559" lon="2.20786">
        <ele>185</ele>
        <time>2020-08-25T08:09:55.308Z</time>
      </trkpt>
      <trkpt lat="43.95589" lon="2.20787">
        <ele>185</ele>
        <time>2020-08-25T08:09:56.308Z</time>
      </trkpt>
      <trkpt lat="43.95588" lon="2.20788">
        <ele>185</ele>
        <time>2020-08-25T08:09:57.308Z</time>
      </trkpt>
      <trkpt lat="43.95586" lon="2.20789">
        <ele>185</ele>
        <time>2020-08-25T08:09:58.308Z</time>
      </trkpt>
      <trkpt lat="43.95585" lon="2.2079">
        <ele>185</ele>
        <time>2020-08-25T08:09:59.308Z</time>
      </trkpt>
      <trkpt lat="43.95584" lon="2.20792">
        <ele>185</ele>
        <time>2020-08-25T08:10:00.308Z</time>
      </trkpt>
      <trkpt lat="43.95583" lon="2.20793">
        <ele>185</ele>
        <time>2020-08-25T08:10:01.308Z</time>
      </trkpt>
      <trkpt lat="43.95582" lon="2.20795">
        <ele>185</ele>
        <time>2020-08-25T08:10:02.308Z</time>
      </trkpt>
      <trkpt lat="43.95581" lon="2.20796">
        <ele>185</ele>
        <time>2020-08-25T08:10:03.308Z</time>
      </trkpt>
      <trkpt lat="43.9558" lon="2.20797">
        <ele>185</ele>
        <time>2020-08-25T08:10:04.308Z</time>
      </trkpt>
      <trkpt lat="43.9558" lon="2.20798">
        <ele>185</ele>
        <time>2020-08-25T08:10:05.308Z</time>
      </trkpt>
      <trkpt lat="43.95579" lon="2.20799">
        <ele>185</ele>
        <time>2020-08-25T08:10:06.308Z</time>
      </trkpt>
      <trkpt lat="43.95578" lon="2.20799">
        <ele>185</ele>
        <time>2020-08-25T08:10:07.308Z</time>
      </trkpt>
      <trkpt lat="43.95577" lon="2.208">
        <ele>185</ele>
        <time>2020-08-25T08:10:08.308Z</time>
      </trkpt>
      <trkpt lat="43.95576" lon="2.20801">
        <ele>185</ele>
        <time>2020-08-25T08:10:09.308Z</time>
      </trkpt>
      <trkpt lat="43.95575" lon="2.20803">
        <ele>185</ele>
        <time>2020-08-25T08:10:10.308Z</time>
      </trkpt>
      <trkpt lat="43.95574" lon="2.20805">
        <ele>185</ele>
        <time>2020-08-25T08:10:11.308Z</time>
      </trkpt>
      <trkpt lat="43.95573" lon="2.20806">
        <ele>185</ele>
        <time>2020-08-25T08:10:12.308Z</time>
      </trkpt>
      <trkpt lat="43.95572" lon="2.20808">
        <ele>185</ele>
        <time>2020-08-25T08:10:13.308Z</time>
      </trkpt>
      <trkpt lat="43.95571" lon="2.2081">
        <ele>185</ele>
        <time>2020-08-25T08:10:14.308Z</time>
      </trkpt>
      <trkpt lat="43.9557" lon="2.20812">
        <ele>185</ele>
        <time>2020-08-25T08:10:15.308Z</time>
      </trkpt>
      <trkpt lat="43.95569" lon="2.20814">
        <ele>185</ele>
        <time>2020-08-25T08:10:16.308Z</time>
      </trkpt>
      <trkpt lat="43.95568" lon="2.20815">
        <ele>185</ele>
        <time>2020-08-25T08:10:17.308Z</time>
      </trkpt>
      <trkpt lat="43.95567" lon="2.20817">
        <ele>185</ele>
        <time>2020-08-25T08:10:18.308Z</time>
      </trkpt>
      <trkpt lat="43.95566" lon="2.20819">
        <ele>185</ele>
        <time>2020-08-25T08:10:19.308Z</time>
      </trkpt>
      <trkpt lat="43.95565" lon="2.20821">
        <ele>185</ele>
        <time>2020-08-25T08:10:20.308Z</time>
      </trkpt>
      <trkpt lat="43.95564" lon="2.20823">
        <ele>185</ele>
        <time>2020-08-25T08:10:21.308Z</time>
      </trkpt>
      <trkpt lat="43.95564" lon="2.20825">
        <ele>185</ele>
        <time>2020-08-25T08:10:22.308Z</time>
      </trkpt>
      <trkpt lat="43.95563" lon="2.20827">
        <ele>185</ele>
        <time>2020-08-25T08:10:23.308Z</time>
      </trkpt>
      <trkpt lat="43.95562" lon="2.20829">
        <ele>184</ele>
        <time>2020-08-25T08:10:24.308Z</time>
      </trkpt>
      <trkpt lat="43.95561" lon="2.2083">
        <ele>184</ele>
        <time>2020-08-25T08:10:25.308Z</time>
      </trkpt>
      <trkpt lat="43.9556" lon="2.20832">
        <ele>184</ele>
        <time>2020-08-25T08:10:26.308Z</time>
      </trkpt>
      <trkpt lat="43.9556" lon="2.20834">
        <ele>184</ele>
        <time>2020-08-25T08:10:27.308Z</time>
      </trkpt>
      <trkpt lat="43.95559" lon="2.20837">
        <ele>184</ele>
        <time>2020-08-25T08:10:28.308Z</time>
      </trkpt>
      <trkpt lat="43.95558" lon="2.20839">
        <ele>184</ele>
        <time>2020-08-25T08:10:29.308Z</time>
      </trkpt>
      <trkpt lat="43.95558" lon="2.2084">
        <ele>184</ele>
        <time>2020-08-25T08:10:30.308Z</time>
      </trkpt>
      <trkpt lat="43.95557" lon="2.20842">
        <ele>184</ele>
        <time>2020-08-25T08:10:31.308Z</time>
      </trkpt>
      <trkpt lat="43.95556" lon="2.20844">
        <ele>183</ele>
        <time>2020-08-25T08:10:32.308Z</time>
      </trkpt>
      <trkpt lat="43.95555" lon="2.20845">
        <ele>183</ele>
        <time>2020-08-25T08:10:33.308Z</time>
      </trkpt>
      <trkpt lat="43.95554" lon="2.20845">
        <ele>183</ele>
        <time>2020-08-25T08:10:34.308Z</time>
      </trkpt>
      <trkpt lat="43.95553" lon="2.20846">
        <ele>183</ele>
        <time>2020-08-25T08:10:35.308Z</time>
      </trkpt>
      <trkpt lat="43.95551" lon="2.20846">
        <ele>183</ele>
        <time>2020-08-25T08:10:36.308Z</time>
      </trkpt>
      <trkpt lat="43.95549" lon="2.20846">
        <ele>183</ele>
        <time>2020-08-25T08:10:37.308Z</time>
      </trkpt>
      <trkpt lat="43.95547" lon="2.20846">
        <ele>183</ele>
        <time>2020-08-25T08:10:38.308Z</time>
      </trkpt>
      <trkpt lat="43.95546" lon="2.20846">
        <ele>183</ele>
        <time>2020-08-25T08:10:39.308Z</time>
      </trkpt>
      <trkpt lat="43.95544" lon="2.20846">
        <ele>183</ele>
        <time>2020-08-25T08:10:40.308Z</time>
      </trkpt>
      <trkpt lat="43.95543" lon="2.20847">
        <ele>183</ele>
        <time>2020-08-25T08:10:41.308Z</time>
      </trkpt>
      <trkpt lat="43.95541" lon="2.20848">
        <ele>183</ele>
        <time>2020-08-25T08:10:42.308Z</time>
      </trkpt>
      <trkpt lat="43.9554" lon="2.2085">
        <ele>183</ele>
        <time>2020-08-25T08:10:43.308Z</time>
      </trkpt>
      <trkpt lat="43.95539" lon="2.20851">
        <ele>183</ele>
        <time>2020-08-25T08:10:44.308Z</time>
      </trkpt>
      <trkpt lat="43.95538" lon="2.20853">
        <ele>183</ele>
        <time>2020-08-25T08:10:45.308Z</time>
      </trkpt>
      <trkpt lat="43.95537" lon="2.20854">
        <ele>182</ele>
        <time>2020-08-25T08:10:46.308Z</time>
      </trkpt>
      <trkpt lat="43.95536" lon="2.20856">
        <ele>182</ele>
        <time>2020-08-25T08:10:47.308Z</time>
      </trkpt>
      <trkpt lat="43.95535" lon="2.20858">
        <ele>182</ele>
        <time>2020-08-25T08:10:48.308Z</time>
      </trkpt>
      <trkpt lat="43.95535" lon="2.2086">
        <ele>182</ele>
        <time>2020-08-25T08:10:49.308Z</time>
      </trkpt>
      <trkpt lat="43.95534" lon="2.20861">
        <ele>182</ele>
        <time>2020-08-25T08:10:50.308Z</time>
      </trkpt>
      <trkpt lat="43.95533" lon="2.20863">
        <ele>182</ele>
        <time>2020-08-25T08:10:51.308Z</time>
      </trkpt>
      <trkpt lat="43.95532" lon="2.20865">
        <ele>182</ele>
        <time>2020-08-25T08:10:52.308Z</time>
      </trkpt>
      <trkpt lat="43.95532" lon="2.20867">
        <ele>182</ele>
        <time>2020-08-25T08:10:53.308Z</time>
      </trkpt>
      <trkpt lat="43.95531" lon="2.20869">
        <ele>182</ele>
        <time>2020-08-25T08:10:54.308Z</time>
      </trkpt>
      <trkpt lat="43.9553" lon="2.2087">
        <ele>182</ele>
        <time>2020-08-25T08:10:55.308Z</time>
      </trkpt>
      <trkpt lat="43.9553" lon="2.20872">
        <ele>181</ele>
        <time>2020-08-25T08:10:56.308Z</time>
      </trkpt>
      <trkpt lat="43.95529" lon="2.20874">
        <ele>181</ele>
        <time>2020-08-25T08:10:57.308Z</time>
      </trkpt>
      <trkpt lat="43.95528" lon="2.20875">
        <ele>181</ele>
        <time>2020-08-25T08:10:58.308Z</time>
      </trkpt>
      <trkpt lat="43.95528" lon="2.20877">
        <ele>181</ele>
        <time>2020-08-25T08:10:59.308Z</time>
      </trkpt>
      <trkpt lat="43.95527" lon="2.20879">
        <ele>181</ele>
        <time>2020-08-25T08:11:00.308Z</time>
      </trkpt>
      <trkpt lat="43.95526" lon="2.2088">
        <ele>181</ele>
        <time>2020-08-25T08:11:01.308Z</time>
      </trkpt>
      <trkpt lat="43.95524" lon="2.20882">
        <ele>181</ele>
        <time>2020-08-25T08:11:02.308Z</time>
      </trkpt>
      <trkpt lat="43.95524" lon="2.20884">
        <ele>181</ele>
        <time>2020-08-25T08:11:03.308Z</time>
      </trkpt>
      <trkpt lat="43.95523" lon="2.20885">
        <ele>182</ele>
        <time>2020-08-25T08:11:04.308Z</time>
      </trkpt>
      <trkpt lat="43.95523" lon="2.20887">
        <ele>182</ele>
        <time>2020-08-25T08:11:05.308Z</time>
      </trkpt>
      <trkpt lat="43.95522" lon="2.20889">
        <ele>182</ele>
        <time>2020-08-25T08:11:06.308Z</time>
      </trkpt>
      <trkpt lat="43.95523" lon="2.2089">
        <ele>182</ele>
        <time>2020-08-25T08:11:07.308Z</time>
      </trkpt>
      <trkpt lat="43.95523" lon="2.20891">
        <ele>182</ele>
        <time>2020-08-25T08:11:08.308Z</time>
      </trkpt>
      <trkpt lat="43.95524" lon="2.20892">
        <ele>182</ele>
        <time>2020-08-25T08:11:09.308Z</time>
      </trkpt>
      <trkpt lat="43.95525" lon="2.20893">
        <ele>182</ele>
        <time>2020-08-25T08:11:10.308Z</time>
      </trkpt>
      <trkpt lat="43.95527" lon="2.20894">
        <ele>182</ele>
        <time>2020-08-25T08:11:11.308Z</time>
      </trkpt>
      <trkpt lat="43.95528" lon="2.20895">
        <ele>182</ele>
        <time>2020-08-25T08:11:12.308Z</time>
      </trkpt>
      <trkpt lat="43.9553" lon="2.20895">
        <ele>182</ele>
        <time>2020-08-25T08:11:13.308Z</time>
      </trkpt>
      <trkpt lat="43.95531" lon="2.20896">
        <ele>182</ele>
        <time>2020-08-25T08:11:14.308Z</time>
      </trkpt>
      <trkpt lat="43.95533" lon="2.20897">
        <ele>182</ele>
        <time>2020-08-25T08:11:15.308Z</time>
      </trkpt>
      <trkpt lat="43.95534" lon="2.20898">
        <ele>182</ele>
        <time>2020-08-25T08:11:16.308Z</time>
      </trkpt>
      <trkpt lat="43.95536" lon="2.20899">
        <ele>182</ele>
        <time>2020-08-25T08:11:17.308Z</time>
      </trkpt>
      <trkpt lat="43.95537" lon="2.20899">
        <ele>182</ele>
        <time>2020-08-25T08:11:18.308Z</time>
      </trkpt>
      <trkpt lat="43.95539" lon="2.209">
        <ele>182</ele>
        <time>2020-08-25T08:11:19.308Z</time>
      </trkpt>
      <trkpt lat="43.9554" lon="2.209">
        <ele>182</ele>
        <time>2020-08-25T08:11:20.308Z</time>
      </trkpt>
      <trkpt lat="43.95542" lon="2.20901">
        <ele>182</ele>
        <time>2020-08-25T08:11:21.308Z</time>
      </trkpt>
      <trkpt lat="43.95543" lon="2.20902">
        <ele>182</ele>
        <time>2020-08-25T08:11:22.308Z</time>
      </trkpt>
      <trkpt lat="43.95545" lon="2.20902">
        <ele>182</ele>
        <time>2020-08-25T08:11:23.308Z</time>
      </trkpt>
      <trkpt lat="43.95546" lon="2.20903">
        <ele>182</ele>
        <time>2020-08-25T08:11:24.308Z</time>
      </trkpt>
      <trkpt lat="43.95547" lon="2.20903">
        <ele>182</ele>
        <time>2020-08-25T08:11:25.308Z</time>
      </trkpt>
      <trkpt lat="43.95549" lon="2.20904">
        <ele>182</ele>
        <time>2020-08-25T08:11:26.308Z</time>
      </trkpt>
      <trkpt lat="43.9555" lon="2.20905">
        <ele>182</ele>
        <time>2020-08-25T08:11:27.308Z</time>
      </trkpt>
      <trkpt lat="43.95552" lon="2.20905">
        <ele>182</ele>
        <time>2020-08-25T08:11:28.308Z</time>
      </trkpt>
      <trkpt lat="43.95553" lon="2.20906">
        <ele>183</ele>
        <time>2020-08-25T08:11:29.308Z</time>
      </trkpt>
      <trkpt lat="43.95554" lon="2.20907">
        <ele>183</ele>
        <time>2020-08-25T08:11:30.308Z</time>
      </trkpt>
      <trkpt lat="43.95556" lon="2.20907">
        <ele>183</ele>
        <time>2020-08-25T08:11:31.308Z</time>
      </trkpt>
      <trkpt lat="43.95557" lon="2.20908">
        <ele>183</ele>
        <time>2020-08-25T08:11:32.308Z</time>
      </trkpt>
      <trkpt lat="43.95558" lon="2.20909">
        <ele>183</ele>
        <time>2020-08-25T08:11:33.308Z</time>
      </trkpt>
      <trkpt lat="43.9556" lon="2.2091">
        <ele>183</ele>
        <time>2020-08-25T08:11:34.308Z</time>
      </trkpt>
      <trkpt lat="43.95561" lon="2.2091">
        <ele>183</ele>
        <time>2020-08-25T08:11:35.308Z</time>
      </trkpt>
      <trkpt lat="43.95562" lon="2.20911">
        <ele>183</ele>
        <time>2020-08-25T08:11:36.308Z</time>
      </trkpt>
      <trkpt lat="43.95564" lon="2.20911">
        <ele>183</ele>
        <time>2020-08-25T08:11:37.308Z</time>
      </trkpt>
      <trkpt lat="43.95565" lon="2.20912">
        <ele>183</ele>
        <time>2020-08-25T08:11:38.308Z</time>
      </trkpt>
      <trkpt lat="43.95567" lon="2.20912">
        <ele>183</ele>
        <time>2020-08-25T08:11:39.308Z</time>
      </trkpt>
      <trkpt lat="43.95568" lon="2.20913">
        <ele>183</ele>
        <time>2020-08-25T08:11:40.308Z</time>
      </trkpt>
      <trkpt lat="43.9557" lon="2.20914">
        <ele>183</ele>
        <time>2020-08-25T08:11:41.308Z</time>
      </trkpt>
      <trkpt lat="43.95571" lon="2.20914">
        <ele>183</ele>
        <time>2020-08-25T08:11:42.308Z</time>
      </trkpt>
      <trkpt lat="43.95573" lon="2.20915">
        <ele>183</ele>
        <time>2020-08-25T08:11:43.308Z</time>
      </trkpt>
      <trkpt lat="43.95574" lon="2.20915">
        <ele>183</ele>
        <time>2020-08-25T08:11:44.308Z</time>
      </trkpt>
      <trkpt lat="43.95575" lon="2.20916">
        <ele>183</ele>
        <time>2020-08-25T08:11:45.308Z</time>
      </trkpt>
      <trkpt lat="43.95576" lon="2.20917">
        <ele>183</ele>
        <time>2020-08-25T08:11:46.308Z</time>
      </trkpt>
      <trkpt lat="43.95578" lon="2.20917">
        <ele>183</ele>
        <time>2020-08-25T08:11:47.308Z</time>
      </trkpt>
      <trkpt lat="43.95579" lon="2.20918">
        <ele>183</ele>
        <time>2020-08-25T08:11:48.308Z</time>
      </trkpt>
      <trkpt lat="43.9558" lon="2.20919">
        <ele>183</ele>
        <time>2020-08-25T08:11:49.308Z</time>
      </trkpt>
      <trkpt lat="43.95582" lon="2.2092">
        <ele>183</ele>
        <time>2020-08-25T08:11:50.308Z</time>
      </trkpt>
      <trkpt lat="43.95583" lon="2.20921">
        <ele>183</ele>
        <time>2020-08-25T08:11:51.308Z</time>
      </trkpt>
      <trkpt lat="43.95584" lon="2.20921">
        <ele>183</ele>
        <time>2020-08-25T08:11:52.308Z</time>
      </trkpt>
      <trkpt lat="43.95585" lon="2.20922">
        <ele>183</ele>
        <time>2020-08-25T08:11:53.308Z</time>
      </trkpt>
      <trkpt lat="43.95586" lon="2.20923">
        <ele>183</ele>
        <time>2020-08-25T08:11:54.308Z</time>
      </trkpt>
      <trkpt lat="43.95587" lon="2.20924">
        <ele>183</ele>
        <time>2020-08-25T08:11:55.308Z</time>
      </trkpt>
      <trkpt lat="43.95588" lon="2.20925">
        <ele>183</ele>
        <time>2020-08-25T08:11:56.308Z</time>
      </trkpt>
      <trkpt lat="43.9559" lon="2.20925">
        <ele>183</ele>
        <time>2020-08-25T08:11:57.308Z</time>
      </trkpt>
      <trkpt lat="43.95591" lon="2.20926">
        <ele>183</ele>
        <time>2020-08-25T08:11:58.308Z</time>
      </trkpt>
      <trkpt lat="43.95592" lon="2.20927">
        <ele>183</ele>
        <time>2020-08-25T08:11:59.308Z</time>
      </trkpt>
      <trkpt lat="43.95593" lon="2.20928">
        <ele>183</ele>
        <time>2020-08-25T08:12:00.308Z</time>
      </trkpt>
      <trkpt lat="43.95594" lon="2.20929">
        <ele>183</ele>
        <time>2020-08-25T08:12:01.308Z</time>
      </trkpt>
      <trkpt lat="43.95595" lon="2.2093">
        <ele>184</ele>
        <time>2020-08-25T08:12:02.308Z</time>
      </trkpt>
      <trkpt lat="43.95596" lon="2.2093">
        <ele>184</ele>
        <time>2020-08-25T08:12:03.308Z</time>
      </trkpt>
      <trkpt lat="43.95597" lon="2.20931">
        <ele>184</ele>
        <time>2020-08-25T08:12:04.308Z</time>
      </trkpt>
      <trkpt lat="43.95598" lon="2.20932">
        <ele>184</ele>
        <time>2020-08-25T08:12:05.308Z</time>
      </trkpt>
      <trkpt lat="43.95599" lon="2.20932">
        <ele>184</ele>
        <time>2020-08-25T08:12:06.308Z</time>
      </trkpt>
      <trkpt lat="43.95601" lon="2.20933">
        <ele>184</ele>
        <time>2020-08-25T08:12:07.308Z</time>
      </trkpt>
      <trkpt lat="43.95602" lon="2.20934">
        <ele>184</ele>
        <time>2020-08-25T08:12:08.308Z</time>
      </trkpt>
      <trkpt lat="43.95603" lon="2.20935">
        <ele>184</ele>
        <time>2020-08-25T08:12:09.308Z</time>
      </trkpt>
      <trkpt lat="43.95604" lon="2.20935">
        <ele>184</ele>
        <time>2020-08-25T08:12:10.308Z</time>
      </trkpt>
      <trkpt lat="43.95605" lon="2.20936">
        <ele>184</ele>
        <time>2020-08-25T08:12:11.308Z</time>
      </trkpt>
      <trkpt lat="43.95606" lon="2.20937">
        <ele>184</ele>
        <time>2020-08-25T08:12:12.308Z</time>
      </trkpt>
      <trkpt lat="43.95607" lon="2.20937">
        <ele>184</ele>
        <time>2020-08-25T08:12:13.308Z</time>
      </trkpt>
      <trkpt lat="43.95608" lon="2.20937">
        <ele>184</ele>
        <time>2020-08-25T08:12:14.308Z</time>
      </trkpt>
      <trkpt lat="43.95609" lon="2.20938">
        <ele>184</ele>
        <time>2020-08-25T08:12:15.308Z</time>
      </trkpt>
      <trkpt lat="43.9561" lon="2.20939">
        <ele>184</ele>
        <time>2020-08-25T08:12:16.308Z</time>
      </trkpt>
      <trkpt lat="43.95612" lon="2.20939">
        <ele>184</ele>
        <time>2020-08-25T08:12:17.308Z</time>
      </trkpt>
      <trkpt lat="43.95613" lon="2.2094">
        <ele>184</ele>
        <time>2020-08-25T08:12:18.308Z</time>
      </trkpt>
      <trkpt lat="43.95615" lon="2.20941">
        <ele>185</ele>
        <time>2020-08-25T08:12:19.308Z</time>
      </trkpt>
      <trkpt lat="43.95616" lon="2.20942">
        <ele>185</ele>
        <time>2020-08-25T08:12:20.308Z</time>
      </trkpt>
      <trkpt lat="43.95617" lon="2.20942">
        <ele>185</ele>
        <time>2020-08-25T08:12:21.308Z</time>
      </trkpt>
      <trkpt lat="43.95619" lon="2.20943">
        <ele>185</ele>
        <time>2020-08-25T08:12:22.308Z</time>
      </trkpt>
      <trkpt lat="43.9562" lon="2.20944">
        <ele>185</ele>
        <time>2020-08-25T08:12:23.308Z</time>
      </trkpt>
      <trkpt lat="43.95621" lon="2.20945">
        <ele>185</ele>
        <time>2020-08-25T08:12:24.308Z</time>
      </trkpt>
      <trkpt lat="43.95623" lon="2.20945">
        <ele>185</ele>
        <time>2020-08-25T08:12:25.308Z</time>
      </trkpt>
      <trkpt lat="43.95624" lon="2.20946">
        <ele>186</ele>
        <time>2020-08-25T08:12:26.308Z</time>
      </trkpt>
      <trkpt lat="43.95625" lon="2.20947">
        <ele>186</ele>
        <time>2020-08-25T08:12:27.308Z</time>
      </trkpt>
      <trkpt lat="43.95626" lon="2.20947">
        <ele>186</ele>
        <time>2020-08-25T08:12:28.308Z</time>
      </trkpt>
      <trkpt lat="43.95628" lon="2.20948">
        <ele>186</ele>
        <time>2020-08-25T08:12:29.308Z</time>
      </trkpt>
      <trkpt lat="43.95629" lon="2.20949">
        <ele>186</ele>
        <time>2020-08-25T08:12:30.308Z</time>
      </trkpt>
      <trkpt lat="43.9563" lon="2.2095">
        <ele>187</ele>
        <time>2020-08-25T08:12:31.308Z</time>
      </trkpt>
      <trkpt lat="43.95632" lon="2.20951">
        <ele>187</ele>
        <time>2020-08-25T08:12:32.308Z</time>
      </trkpt>
      <trkpt lat="43.95633" lon="2.20952">
        <ele>187</ele>
        <time>2020-08-25T08:12:33.308Z</time>
      </trkpt>
      <trkpt lat="43.95634" lon="2.20953">
        <ele>187</ele>
        <time>2020-08-25T08:12:34.308Z</time>
      </trkpt>
      <trkpt lat="43.95635" lon="2.20954">
        <ele>187</ele>
        <time>2020-08-25T08:12:35.308Z</time>
      </trkpt>
      <trkpt lat="43.95636" lon="2.20955">
        <ele>187</ele>
        <time>2020-08-25T08:12:36.308Z</time>
      </trkpt>
      <trkpt lat="43.95638" lon="2.20956">
        <ele>188</ele>
        <time>2020-08-25T08:12:37.308Z</time>
      </trkpt>
      <trkpt lat="43.95639" lon="2.20957">
        <ele>188</ele>
        <time>2020-08-25T08:12:38.308Z</time>
      </trkpt>
      <trkpt lat="43.9564" lon="2.20958">
        <ele>188</ele>
        <time>2020-08-25T08:12:39.308Z</time>
      </trkpt>
      <trkpt lat="43.95641" lon="2.20959">
        <ele>188</ele>
        <time>2020-08-25T08:12:40.308Z</time>
      </trkpt>
      <trkpt lat="43.95643" lon="2.2096">
        <ele>189</ele>
        <time>2020-08-25T08:12:41.308Z</time>
      </trkpt>
      <trkpt lat="43.95644" lon="2.2096">
        <ele>189</ele>
        <time>2020-08-25T08:12:42.308Z</time>
      </trkpt>
      <trkpt lat="43.95645" lon="2.20961">
        <ele>189</ele>
        <time>2020-08-25T08:12:43.308Z</time>
      </trkpt>
      <trkpt lat="43.95646" lon="2.20962">
        <ele>189</ele>
        <time>2020-08-25T08:12:44.308Z</time>
      </trkpt>
      <trkpt lat="43.95648" lon="2.20963">
        <ele>189</ele>
        <time>2020-08-25T08:12:45.308Z</time>
      </trkpt>
      <trkpt lat="43.95649" lon="2.20963">
        <ele>190</ele>
        <time>2020-08-25T08:12:46.308Z</time>
      </trkpt>
      <trkpt lat="43.9565" lon="2.20964">
        <ele>190</ele>
        <time>2020-08-25T08:12:47.308Z</time>
      </trkpt>
      <trkpt lat="43.95651" lon="2.20965">
        <ele>190</ele>
        <time>2020-08-25T08:12:48.308Z</time>
      </trkpt>
      <trkpt lat="43.95653" lon="2.20966">
        <ele>190</ele>
        <time>2020-08-25T08:12:49.308Z</time>
      </trkpt>
      <trkpt lat="43.95654" lon="2.20967">
        <ele>190</ele>
        <time>2020-08-25T08:12:50.308Z</time>
      </trkpt>
      <trkpt lat="43.95655" lon="2.20967">
        <ele>190</ele>
        <time>2020-08-25T08:12:51.308Z</time>
      </trkpt>
      <trkpt lat="43.95657" lon="2.20968">
        <ele>190</ele>
        <time>2020-08-25T08:12:52.308Z</time>
      </trkpt>
      <trkpt lat="43.95658" lon="2.20969">
        <ele>191</ele>
        <time>2020-08-25T08:12:53.308Z</time>
      </trkpt>
      <trkpt lat="43.95659" lon="2.2097">
        <ele>191</ele>
        <time>2020-08-25T08:12:54.308Z</time>
      </trkpt>
      <trkpt lat="43.9566" lon="2.2097">
        <ele>191</ele>
        <time>2020-08-25T08:12:55.308Z</time>
      </trkpt>
      <trkpt lat="43.95661" lon="2.20971">
        <ele>191</ele>
        <time>2020-08-25T08:12:56.308Z</time>
      </trkpt>
      <trkpt lat="43.95662" lon="2.20971">
        <ele>191</ele>
        <time>2020-08-25T08:12:57.308Z</time>
      </trkpt>
      <trkpt lat="43.95664" lon="2.20972">
        <ele>191</ele>
        <time>2020-08-25T08:12:58.308Z</time>
      </trkpt>
      <trkpt lat="43.95665" lon="2.20972">
        <ele>191</ele>
        <time>2020-08-25T08:12:59.308Z</time>
      </trkpt>
      <trkpt lat="43.95666" lon="2.20973">
        <ele>191</ele>
        <time>2020-08-25T08:13:00.308Z</time>
      </trkpt>
      <trkpt lat="43.95667" lon="2.20974">
        <ele>191</ele>
        <time>2020-08-25T08:13:01.308Z</time>
      </trkpt>
      <trkpt lat="43.95668" lon="2.20975">
        <ele>191</ele>
        <time>2020-08-25T08:13:02.308Z</time>
      </trkpt>
      <trkpt lat="43.9567" lon="2.20976">
        <ele>191</ele>
        <time>2020-08-25T08:13:03.308Z</time>
      </trkpt>
      <trkpt lat="43.95671" lon="2.20976">
        <ele>191</ele>
        <time>2020-08-25T08:13:04.308Z</time>
      </trkpt>
      <trkpt lat="43.95672" lon="2.20977">
        <ele>191</ele>
        <time>2020-08-25T08:13:05.308Z</time>
      </trkpt>
      <trkpt lat="43.95673" lon="2.20978">
        <ele>192</ele>
        <time>2020-08-25T08:13:06.308Z</time>
      </trkpt>
      <trkpt lat="43.95674" lon="2.20979">
        <ele>192</ele>
        <time>2020-08-25T08:13:07.308Z</time>
      </trkpt>
      <trkpt lat="43.95675" lon="2.2098">
        <ele>192</ele>
        <time>2020-08-25T08:13:08.308Z</time>
      </trkpt>
      <trkpt lat="43.95677" lon="2.2098">
        <ele>192</ele>
        <time>2020-08-25T08:13:09.308Z</time>
      </trkpt>
      <trkpt lat="43.95678" lon="2.20981">
        <ele>192</ele>
        <time>2020-08-25T08:13:10.308Z</time>
      </trkpt>
      <trkpt lat="43.95679" lon="2.20981">
        <ele>192</ele>
        <time>2020-08-25T08:13:11.308Z</time>
      </trkpt>
      <trkpt lat="43.9568" lon="2.20982">
        <ele>192</ele>
        <time>2020-08-25T08:13:12.308Z</time>
      </trkpt>
      <trkpt lat="43.95681" lon="2.20983">
        <ele>192</ele>
        <time>2020-08-25T08:13:13.308Z</time>
      </trkpt>
      <trkpt lat="43.95682" lon="2.20983">
        <ele>192</ele>
        <time>2020-08-25T08:13:14.308Z</time>
      </trkpt>
      <trkpt lat="43.95684" lon="2.20984">
        <ele>192</ele>
        <time>2020-08-25T08:13:15.308Z</time>
      </trkpt>
      <trkpt lat="43.95685" lon="2.20985">
        <ele>192</ele>
        <time>2020-08-25T08:13:16.308Z</time>
      </trkpt>
      <trkpt lat="43.95686" lon="2.20985">
        <ele>193</ele>
        <time>2020-08-25T08:13:17.308Z</time>
      </trkpt>
      <trkpt lat="43.95687" lon="2.20986">
        <ele>193</ele>
        <time>2020-08-25T08:13:18.308Z</time>
      </trkpt>
      <trkpt lat="43.95688" lon="2.20987">
        <ele>193</ele>
        <time>2020-08-25T08:13:19.308Z</time>
      </trkpt>
      <trkpt lat="43.9569" lon="2.20988">
        <ele>193</ele>
        <time>2020-08-25T08:13:20.308Z</time>
      </trkpt>
      <trkpt lat="43.95691" lon="2.20988">
        <ele>193</ele>
        <time>2020-08-25T08:13:21.308Z</time>
      </trkpt>
      <trkpt lat="43.95692" lon="2.20988">
        <ele>193</ele>
        <time>2020-08-25T08:13:22.308Z</time>
      </trkpt>
      <trkpt lat="43.95693" lon="2.20988">
        <ele>193</ele>
        <time>2020-08-25T08:13:23.308Z</time>
      </trkpt>
      <trkpt lat="43.95694" lon="2.20989">
        <ele>193</ele>
        <time>2020-08-25T08:13:24.308Z</time>
      </trkpt>
      <trkpt lat="43.95696" lon="2.2099">
        <ele>193</ele>
        <time>2020-08-25T08:13:25.308Z</time>
      </trkpt>
      <trkpt lat="43.95697" lon="2.20991">
        <ele>193</ele>
        <time>2020-08-25T08:13:26.308Z</time>
      </trkpt>
      <trkpt lat="43.95698" lon="2.20992">
        <ele>193</ele>
        <time>2020-08-25T08:13:27.308Z</time>
      </trkpt>
      <trkpt lat="43.957" lon="2.20993">
        <ele>194</ele>
        <time>2020-08-25T08:13:28.308Z</time>
      </trkpt>
      <trkpt lat="43.95701" lon="2.20994">
        <ele>194</ele>
        <time>2020-08-25T08:13:29.308Z</time>
      </trkpt>
      <trkpt lat="43.95702" lon="2.20994">
        <ele>194</ele>
        <time>2020-08-25T08:13:30.308Z</time>
      </trkpt>
      <trkpt lat="43.95703" lon="2.20995">
        <ele>194</ele>
        <time>2020-08-25T08:13:31.308Z</time>
      </trkpt>
      <trkpt lat="43.95704" lon="2.20995">
        <ele>194</ele>
        <time>2020-08-25T08:13:32.308Z</time>
      </trkpt>
      <trkpt lat="43.95705" lon="2.20996">
        <ele>194</ele>
        <time>2020-08-25T08:13:33.308Z</time>
      </trkpt>
      <trkpt lat="43.95706" lon="2.20997">
        <ele>194</ele>
        <time>2020-08-25T08:13:34.308Z</time>
      </trkpt>
      <trkpt lat="43.95707" lon="2.20998">
        <ele>194</ele>
        <time>2020-08-25T08:13:35.308Z</time>
      </trkpt>
      <trkpt lat="43.95708" lon="2.20999">
        <ele>194</ele>
        <time>2020-08-25T08:13:36.308Z</time>
      </trkpt>
      <trkpt lat="43.95709" lon="2.20999">
        <ele>194</ele>
        <time>2020-08-25T08:13:37.308Z</time>
      </trkpt>
      <trkpt lat="43.9571" lon="2.21">
        <ele>194</ele>
        <time>2020-08-25T08:13:38.308Z</time>
      </trkpt>
      <trkpt lat="43.95712" lon="2.21001">
        <ele>194</ele>
        <time>2020-08-25T08:13:39.308Z</time>
      </trkpt>
      <trkpt lat="43.95712" lon="2.21002">
        <ele>195</ele>
        <time>2020-08-25T08:13:40.308Z</time>
      </trkpt>
      <trkpt lat="43.95713" lon="2.21002">
        <ele>195</ele>
        <time>2020-08-25T08:13:41.308Z</time>
      </trkpt>
      <trkpt lat="43.95715" lon="2.21004">
        <ele>195</ele>
        <time>2020-08-25T08:13:42.308Z</time>
      </trkpt>
      <trkpt lat="43.95716" lon="2.21004">
        <ele>195</ele>
        <time>2020-08-25T08:13:43.308Z</time>
      </trkpt>
      <trkpt lat="43.95717" lon="2.21005">
        <ele>195</ele>
        <time>2020-08-25T08:13:44.308Z</time>
      </trkpt>
      <trkpt lat="43.95718" lon="2.21005">
        <ele>195</ele>
        <time>2020-08-25T08:13:45.308Z</time>
      </trkpt>
      <trkpt lat="43.95719" lon="2.21006">
        <ele>196</ele>
        <time>2020-08-25T08:13:46.308Z</time>
      </trkpt>
      <trkpt lat="43.9572" lon="2.21007">
        <ele>196</ele>
        <time>2020-08-25T08:13:47.308Z</time>
      </trkpt>
      <trkpt lat="43.95721" lon="2.21008">
        <ele>196</ele>
        <time>2020-08-25T08:13:48.308Z</time>
      </trkpt>
      <trkpt lat="43.95723" lon="2.21008">
        <ele>196</ele>
        <time>2020-08-25T08:13:49.308Z</time>
      </trkpt>
      <trkpt lat="43.95724" lon="2.21009">
        <ele>196</ele>
        <time>2020-08-25T08:13:50.308Z</time>
      </trkpt>
      <trkpt lat="43.95725" lon="2.21011">
        <ele>196</ele>
        <time>2020-08-25T08:13:51.308Z</time>
      </trkpt>
      <trkpt lat="43.95726" lon="2.21012">
        <ele>196</ele>
        <time>2020-08-25T08:13:52.308Z</time>
      </trkpt>
      <trkpt lat="43.95727" lon="2.21013">
        <ele>196</ele>
        <time>2020-08-25T08:13:53.308Z</time>
      </trkpt>
      <trkpt lat="43.95728" lon="2.21014">
        <ele>196</ele>
        <time>2020-08-25T08:13:54.308Z</time>
      </trkpt>
      <trkpt lat="43.95728" lon="2.21014">
        <ele>196</ele>
        <time>2020-08-25T08:13:55.308Z</time>
      </trkpt>
      <trkpt lat="43.95729" lon="2.21016">
        <ele>196</ele>
        <time>2020-08-25T08:13:56.308Z</time>
      </trkpt>
      <trkpt lat="43.9573" lon="2.21017">
        <ele>196</ele>
        <time>2020-08-25T08:13:57.308Z</time>
      </trkpt>
      <trkpt lat="43.95731" lon="2.21019">
        <ele>196</ele>
        <time>2020-08-25T08:13:58.308Z</time>
      </trkpt>
      <trkpt lat="43.95732" lon="2.21021">
        <ele>196</ele>
        <time>2020-08-25T08:13:59.308Z</time>
      </trkpt>
      <trkpt lat="43.95733" lon="2.21022">
        <ele>196</ele>
        <time>2020-08-25T08:14:00.308Z</time>
      </trkpt>
      <trkpt lat="43.95733" lon="2.21023">
        <ele>196</ele>
        <time>2020-08-25T08:14:01.308Z</time>
      </trkpt>
      <trkpt lat="43.95733" lon="2.21024">
        <ele>196</ele>
        <time>2020-08-25T08:14:02.308Z</time>
      </trkpt>
      <trkpt lat="43.95733" lon="2.21025">
        <ele>196</ele>
        <time>2020-08-25T08:14:03.308Z</time>
      </trkpt>
      <trkpt lat="43.95734" lon="2.21026">
        <ele>196</ele>
        <time>2020-08-25T08:14:04.308Z</time>
      </trkpt>
      <trkpt lat="43.95735" lon="2.21028">
        <ele>196</ele>
        <time>2020-08-25T08:14:05.308Z</time>
      </trkpt>
      <trkpt lat="43.95736" lon="2.2103">
        <ele>196</ele>
        <time>2020-08-25T08:14:06.308Z</time>
      </trkpt>
      <trkpt lat="43.95736" lon="2.21031">
        <ele>196</ele>
        <time>2020-08-25T08:14:07.308Z</time>
      </trkpt>
      <trkpt lat="43.95736" lon="2.21031">
        <ele>196</ele>
        <time>2020-08-25T08:14:08.308Z</time>
      </trkpt>
      <trkpt lat="43.95737" lon="2.21032">
        <ele>197</ele>
        <time>2020-08-25T08:14:09.308Z</time>
      </trkpt>
      <trkpt lat="43.95737" lon="2.21033">
        <ele>197</ele>
        <time>2020-08-25T08:14:10.308Z</time>
      </trkpt>
      <trkpt lat="43.95738" lon="2.21035">
        <ele>197</ele>
        <time>2020-08-25T08:14:11.308Z</time>
      </trkpt>
      <trkpt lat="43.95739" lon="2.21036">
        <ele>197</ele>
        <time>2020-08-25T08:14:12.308Z</time>
      </trkpt>
      <trkpt lat="43.9574" lon="2.21037">
        <ele>197</ele>
        <time>2020-08-25T08:14:13.308Z</time>
      </trkpt>
      <trkpt lat="43.9574" lon="2.21038">
        <ele>197</ele>
        <time>2020-08-25T08:14:14.308Z</time>
      </trkpt>
      <trkpt lat="43.95741" lon="2.2104">
        <ele>198</ele>
        <time>2020-08-25T08:14:15.308Z</time>
      </trkpt>
      <trkpt lat="43.95742" lon="2.21041">
        <ele>198</ele>
        <time>2020-08-25T08:14:16.308Z</time>
      </trkpt>
      <trkpt lat="43.95743" lon="2.21043">
        <ele>198</ele>
        <time>2020-08-25T08:14:17.308Z</time>
      </trkpt>
      <trkpt lat="43.95743" lon="2.21044">
        <ele>198</ele>
        <time>2020-08-25T08:14:18.308Z</time>
      </trkpt>
      <trkpt lat="43.95744" lon="2.21045">
        <ele>198</ele>
        <time>2020-08-25T08:14:19.308Z</time>
      </trkpt>
      <trkpt lat="43.95745" lon="2.21047">
        <ele>198</ele>
        <time>2020-08-25T08:14:20.308Z</time>
      </trkpt>
      <trkpt lat="43.95746" lon="2.21048">
        <ele>199</ele>
        <time>2020-08-25T08:14:21.308Z</time>
      </trkpt>
      <trkpt lat="43.95746" lon="2.21049">
        <ele>199</ele>
        <time>2020-08-25T08:14:22.308Z</time>
      </trkpt>
      <trkpt lat="43.95747" lon="2.21051">
        <ele>199</ele>
        <time>2020-08-25T08:14:23.308Z</time>
      </trkpt>
      <trkpt lat="43.95748" lon="2.21052">
        <ele>199</ele>
        <time>2020-08-25T08:14:24.308Z</time>
      </trkpt>
      <trkpt lat="43.95749" lon="2.21054">
        <ele>199</ele>
        <time>2020-08-25T08:14:25.308Z</time>
      </trkpt>
      <trkpt lat="43.9575" lon="2.21055">
        <ele>199</ele>
        <time>2020-08-25T08:14:26.308Z</time>
      </trkpt>
      <trkpt lat="43.9575" lon="2.21056">
        <ele>200</ele>
        <time>2020-08-25T08:14:27.308Z</time>
      </trkpt>
      <trkpt lat="43.95751" lon="2.21058">
        <ele>200</ele>
        <time>2020-08-25T08:14:28.308Z</time>
      </trkpt>
      <trkpt lat="43.95752" lon="2.21059">
        <ele>200</ele>
        <time>2020-08-25T08:14:29.308Z</time>
      </trkpt>
      <trkpt lat="43.95753" lon="2.21061">
        <ele>200</ele>
        <time>2020-08-25T08:14:30.308Z</time>
      </trkpt>
      <trkpt lat="43.95754" lon="2.21062">
        <ele>200</ele>
        <time>2020-08-25T08:14:31.308Z</time>
      </trkpt>
      <trkpt lat="43.95754" lon="2.21064">
        <ele>200</ele>
        <time>2020-08-25T08:14:32.308Z</time>
      </trkpt>
      <trkpt lat="43.95755" lon="2.21065">
        <ele>200</ele>
        <time>2020-08-25T08:14:33.308Z</time>
      </trkpt>
      <trkpt lat="43.95756" lon="2.21066">
        <ele>200</ele>
        <time>2020-08-25T08:14:34.308Z</time>
      </trkpt>
      <trkpt lat="43.95757" lon="2.21067">
        <ele>200</ele>
        <time>2020-08-25T08:14:35.308Z</time>
      </trkpt>
      <trkpt lat="43.95757" lon="2.21068">
        <ele>200</ele>
        <time>2020-08-25T08:14:36.308Z</time>
      </trkpt>
      <trkpt lat="43.95758" lon="2.21069">
        <ele>200</ele>
        <time>2020-08-25T08:14:37.308Z</time>
      </trkpt>
      <trkpt lat="43.95759" lon="2.2107">
        <ele>200</ele>
        <time>2020-08-25T08:14:38.308Z</time>
      </trkpt>
      <trkpt lat="43.9576" lon="2.21072">
        <ele>200</ele>
        <time>2020-08-25T08:14:39.308Z</time>
      </trkpt>
      <trkpt lat="43.9576" lon="2.21073">
        <ele>200</ele>
        <time>2020-08-25T08:14:40.308Z</time>
      </trkpt>
      <trkpt lat="43.95761" lon="2.21074">
        <ele>200</ele>
        <time>2020-08-25T08:14:41.308Z</time>
      </trkpt>
      <trkpt lat="43.95762" lon="2.21075">
        <ele>201</ele>
        <time>2020-08-25T08:14:42.308Z</time>
      </trkpt>
      <trkpt lat="43.95762" lon="2.21077">
        <ele>201</ele>
        <time>2020-08-25T08:14:43.308Z</time>
      </trkpt>
      <trkpt lat="43.95763" lon="2.21078">
        <ele>201</ele>
        <time>2020-08-25T08:14:44.308Z</time>
      </trkpt>
      <trkpt lat="43.95763" lon="2.21079">
        <ele>201</ele>
        <time>2020-08-25T08:14:45.308Z</time>
      </trkpt>
      <trkpt lat="43.95764" lon="2.2108">
        <ele>201</ele>
        <time>2020-08-25T08:14:46.308Z</time>
      </trkpt>
      <trkpt lat="43.95765" lon="2.21081">
        <ele>201</ele>
        <time>2020-08-25T08:14:47.308Z</time>
      </trkpt>
      <trkpt lat="43.95765" lon="2.21082">
        <ele>201</ele>
        <time>2020-08-25T08:14:48.308Z</time>
      </trkpt>
      <trkpt lat="43.95766" lon="2.21084">
        <ele>201</ele>
        <time>2020-08-25T08:14:49.308Z</time>
      </trkpt>
      <trkpt lat="43.95766" lon="2.21085">
        <ele>201</ele>
        <time>2020-08-25T08:14:50.308Z</time>
      </trkpt>
      <trkpt lat="43.95767" lon="2.21087">
        <ele>201</ele>
        <time>2020-08-25T08:14:51.308Z</time>
      </trkpt>
      <trkpt lat="43.95768" lon="2.21088">
        <ele>201</ele>
        <time>2020-08-25T08:14:52.308Z</time>
      </trkpt>
      <trkpt lat="43.95769" lon="2.2109">
        <ele>201</ele>
        <time>2020-08-25T08:14:53.308Z</time>
      </trkpt>
      <trkpt lat="43.95769" lon="2.21091">
        <ele>201</ele>
        <time>2020-08-25T08:14:54.308Z</time>
      </trkpt>
      <trkpt lat="43.9577" lon="2.21092">
        <ele>201</ele>
        <time>2020-08-25T08:14:55.308Z</time>
      </trkpt>
      <trkpt lat="43.95771" lon="2.21094">
        <ele>202</ele>
        <time>2020-08-25T08:14:56.308Z</time>
      </trkpt>
      <trkpt lat="43.95771" lon="2.21095">
        <ele>202</ele>
        <time>2020-08-25T08:14:57.308Z</time>
      </trkpt>
      <trkpt lat="43.95772" lon="2.21096">
        <ele>202</ele>
        <time>2020-08-25T08:14:58.308Z</time>
      </trkpt>
      <trkpt lat="43.95772" lon="2.21097">
        <ele>202</ele>
        <time>2020-08-25T08:14:59.308Z</time>
      </trkpt>
      <trkpt lat="43.95773" lon="2.21099">
        <ele>202</ele>
        <time>2020-08-25T08:15:00.308Z</time>
      </trkpt>
      <trkpt lat="43.95773" lon="2.21101">
        <ele>202</ele>
        <time>2020-08-25T08:15:01.308Z</time>
      </trkpt>
      <trkpt lat="43.95774" lon="2.21103">
        <ele>202</ele>
        <time>2020-08-25T08:15:02.308Z</time>
      </trkpt>
      <trkpt lat="43.95775" lon="2.21104">
        <ele>202</ele>
        <time>2020-08-25T08:15:03.308Z</time>
      </trkpt>
      <trkpt lat="43.95775" lon="2.21105">
        <ele>203</ele>
        <time>2020-08-25T08:15:04.308Z</time>
      </trkpt>
      <trkpt lat="43.95776" lon="2.21106">
        <ele>203</ele>
        <time>2020-08-25T08:15:05.308Z</time>
      </trkpt>
      <trkpt lat="43.95776" lon="2.21107">
        <ele>203</ele>
        <time>2020-08-25T08:15:06.308Z</time>
      </trkpt>
      <trkpt lat="43.95777" lon="2.21109">
        <ele>203</ele>
        <time>2020-08-25T08:15:07.308Z</time>
      </trkpt>
      <trkpt lat="43.95778" lon="2.2111">
        <ele>203</ele>
        <time>2020-08-25T08:15:08.308Z</time>
      </trkpt>
      <trkpt lat="43.95778" lon="2.21112">
        <ele>203</ele>
        <time>2020-08-25T08:15:09.308Z</time>
      </trkpt>
      <trkpt lat="43.95779" lon="2.21113">
        <ele>203</ele>
        <time>2020-08-25T08:15:10.308Z</time>
      </trkpt>
      <trkpt lat="43.95779" lon="2.21115">
        <ele>203</ele>
        <time>2020-08-25T08:15:11.308Z</time>
      </trkpt>
      <trkpt lat="43.9578" lon="2.21117">
        <ele>204</ele>
        <time>2020-08-25T08:15:12.308Z</time>
      </trkpt>
      <trkpt lat="43.9578" lon="2.21119">
        <ele>204</ele>
        <time>2020-08-25T08:15:13.308Z</time>
      </trkpt>
      <trkpt lat="43.9578" lon="2.2112">
        <ele>204</ele>
        <time>2020-08-25T08:15:14.308Z</time>
      </trkpt>
      <trkpt lat="43.95781" lon="2.21122">
        <ele>204</ele>
        <time>2020-08-25T08:15:15.308Z</time>
      </trkpt>
      <trkpt lat="43.95781" lon="2.21124">
        <ele>204</ele>
        <time>2020-08-25T08:15:16.308Z</time>
      </trkpt>
      <trkpt lat="43.95782" lon="2.21125">
        <ele>204</ele>
        <time>2020-08-25T08:15:17.308Z</time>
      </trkpt>
      <trkpt lat="43.95782" lon="2.21127">
        <ele>204</ele>
        <time>2020-08-25T08:15:18.308Z</time>
      </trkpt>
      <trkpt lat="43.95783" lon="2.21129">
        <ele>205</ele>
        <time>2020-08-25T08:15:19.308Z</time>
      </trkpt>
      <trkpt lat="43.95783" lon="2.2113">
        <ele>205</ele>
        <time>2020-08-25T08:15:20.308Z</time>
      </trkpt>
      <trkpt lat="43.95784" lon="2.21132">
        <ele>205</ele>
        <time>2020-08-25T08:15:21.308Z</time>
      </trkpt>
      <trkpt lat="43.95785" lon="2.21133">
        <ele>205</ele>
        <time>2020-08-25T08:15:22.308Z</time>
      </trkpt>
      <trkpt lat="43.95785" lon="2.21135">
        <ele>205</ele>
        <time>2020-08-25T08:15:23.308Z</time>
      </trkpt>
      <trkpt lat="43.95785" lon="2.21137">
        <ele>206</ele>
        <time>2020-08-25T08:15:24.308Z</time>
      </trkpt>
      <trkpt lat="43.95786" lon="2.21139">
        <ele>206</ele>
        <time>2020-08-25T08:15:25.308Z</time>
      </trkpt>
      <trkpt lat="43.95786" lon="2.2114">
        <ele>206</ele>
        <time>2020-08-25T08:15:26.308Z</time>
      </trkpt>
      <trkpt lat="43.95786" lon="2.21142">
        <ele>206</ele>
        <time>2020-08-25T08:15:27.308Z</time>
      </trkpt>
      <trkpt lat="43.95787" lon="2.21144">
        <ele>206</ele>
        <time>2020-08-25T08:15:28.308Z</time>
      </trkpt>
      <trkpt lat="43.95787" lon="2.21146">
        <ele>207</ele>
        <time>2020-08-25T08:15:29.308Z</time>
      </trkpt>
      <trkpt lat="43.95787" lon="2.21147">
        <ele>207</ele>
        <time>2020-08-25T08:15:30.308Z</time>
      </trkpt>
      <trkpt lat="43.95788" lon="2.21149">
        <ele>207</ele>
        <time>2020-08-25T08:15:31.308Z</time>
      </trkpt>
      <trkpt lat="43.95788" lon="2.21151">
        <ele>207</ele>
        <time>2020-08-25T08:15:32.308Z</time>
      </trkpt>
      <trkpt lat="43.95788" lon="2.21153">
        <ele>207</ele>
        <time>2020-08-25T08:15:33.308Z</time>
      </trkpt>
      <trkpt lat="43.95789" lon="2.21154">
        <ele>207</ele>
        <time>2020-08-25T08:15:34.308Z</time>
      </trkpt>
      <trkpt lat="43.95789" lon="2.21156">
        <ele>207</ele>
        <time>2020-08-25T08:15:35.308Z</time>
      </trkpt>
      <trkpt lat="43.95789" lon="2.21158">
        <ele>208</ele>
        <time>2020-08-25T08:15:36.308Z</time>
      </trkpt>
      <trkpt lat="43.9579" lon="2.2116">
        <ele>208</ele>
        <time>2020-08-25T08:15:37.308Z</time>
      </trkpt>
      <trkpt lat="43.9579" lon="2.21162">
        <ele>208</ele>
        <time>2020-08-25T08:15:38.308Z</time>
      </trkpt>
      <trkpt lat="43.9579" lon="2.21163">
        <ele>208</ele>
        <time>2020-08-25T08:15:39.308Z</time>
      </trkpt>
      <trkpt lat="43.9579" lon="2.21165">
        <ele>208</ele>
        <time>2020-08-25T08:15:40.308Z</time>
      </trkpt>
      <trkpt lat="43.9579" lon="2.21167">
        <ele>209</ele>
        <time>2020-08-25T08:15:41.308Z</time>
      </trkpt>
      <trkpt lat="43.95791" lon="2.21168">
        <ele>209</ele>
        <time>2020-08-25T08:15:42.308Z</time>
      </trkpt>
      <trkpt lat="43.95791" lon="2.2117">
        <ele>209</ele>
        <time>2020-08-25T08:15:43.308Z</time>
      </trkpt>
      <trkpt lat="43.95791" lon="2.21172">
        <ele>209</ele>
        <time>2020-08-25T08:15:44.308Z</time>
      </trkpt>
      <trkpt lat="43.95791" lon="2.21173">
        <ele>209</ele>
        <time>2020-08-25T08:15:45.308Z</time>
      </trkpt>
      <trkpt lat="43.95792" lon="2.21175">
        <ele>209</ele>
        <time>2020-08-25T08:15:46.308Z</time>
      </trkpt>
      <trkpt lat="43.95792" lon="2.21176">
        <ele>210</ele>
        <time>2020-08-25T08:15:47.308Z</time>
      </trkpt>
      <trkpt lat="43.95792" lon="2.21178">
        <ele>210</ele>
        <time>2020-08-25T08:15:48.308Z</time>
      </trkpt>
      <trkpt lat="43.95792" lon="2.2118">
        <ele>210</ele>
        <time>2020-08-25T08:15:49.308Z</time>
      </trkpt>
      <trkpt lat="43.95793" lon="2.21181">
        <ele>210</ele>
        <time>2020-08-25T08:15:50.308Z</time>
      </trkpt>
      <trkpt lat="43.95793" lon="2.21183">
        <ele>210</ele>
        <time>2020-08-25T08:15:51.308Z</time>
      </trkpt>
      <trkpt lat="43.95794" lon="2.21184">
        <ele>210</ele>
        <time>2020-08-25T08:15:52.308Z</time>
      </trkpt>
      <trkpt lat="43.95794" lon="2.21186">
        <ele>211</ele>
        <time>2020-08-25T08:15:53.308Z</time>
      </trkpt>
      <trkpt lat="43.95794" lon="2.21188">
        <ele>211</ele>
        <time>2020-08-25T08:15:54.308Z</time>
      </trkpt>
      <trkpt lat="43.95795" lon="2.21189">
        <ele>211</ele>
        <time>2020-08-25T08:15:55.308Z</time>
      </trkpt>
      <trkpt lat="43.95795" lon="2.21191">
        <ele>211</ele>
        <time>2020-08-25T08:15:56.308Z</time>
      </trkpt>
      <trkpt lat="43.95795" lon="2.21192">
        <ele>211</ele>
        <time>2020-08-25T08:15:57.308Z</time>
      </trkpt>
      <trkpt lat="43.95795" lon="2.21194">
        <ele>211</ele>
        <time>2020-08-25T08:15:58.308Z</time>
      </trkpt>
      <trkpt lat="43.95796" lon="2.21195">
        <ele>211</ele>
        <time>2020-08-25T08:15:59.308Z</time>
      </trkpt>
      <trkpt lat="43.95796" lon="2.21197">
        <ele>211</ele>
        <time>2020-08-25T08:16:00.308Z</time>
      </trkpt>
      <trkpt lat="43.95796" lon="2.21199">
        <ele>212</ele>
        <time>2020-08-25T08:16:01.308Z</time>
      </trkpt>
      <trkpt lat="43.95796" lon="2.212">
        <ele>212</ele>
        <time>2020-08-25T08:16:02.308Z</time>
      </trkpt>
      <trkpt lat="43.95797" lon="2.21202">
        <ele>212</ele>
        <time>2020-08-25T08:16:03.308Z</time>
      </trkpt>
      <trkpt lat="43.95797" lon="2.21204">
        <ele>212</ele>
        <time>2020-08-25T08:16:04.308Z</time>
      </trkpt>
      <trkpt lat="43.95797" lon="2.21205">
        <ele>212</ele>
        <time>2020-08-25T08:16:05.308Z</time>
      </trkpt>
      <trkpt lat="43.95797" lon="2.21206">
        <ele>212</ele>
        <time>2020-08-25T08:16:06.308Z</time>
      </trkpt>
      <trkpt lat="43.95798" lon="2.21208">
        <ele>212</ele>
        <time>2020-08-25T08:16:07.308Z</time>
      </trkpt>
      <trkpt lat="43.95798" lon="2.2121">
        <ele>212</ele>
        <time>2020-08-25T08:16:08.308Z</time>
      </trkpt>
      <trkpt lat="43.95798" lon="2.21211">
        <ele>212</ele>
        <time>2020-08-25T08:16:09.308Z</time>
      </trkpt>
      <trkpt lat="43.95799" lon="2.21213">
        <ele>212</ele>
        <time>2020-08-25T08:16:10.308Z</time>
      </trkpt>
      <trkpt lat="43.95799" lon="2.21214">
        <ele>212</ele>
        <time>2020-08-25T08:16:11.308Z</time>
      </trkpt>
      <trkpt lat="43.958" lon="2.21216">
        <ele>212</ele>
        <time>2020-08-25T08:16:12.308Z</time>
      </trkpt>
      <trkpt lat="43.958" lon="2.21217">
        <ele>212</ele>
        <time>2020-08-25T08:16:13.308Z</time>
      </trkpt>
      <trkpt lat="43.958" lon="2.21219">
        <ele>213</ele>
        <time>2020-08-25T08:16:14.308Z</time>
      </trkpt>
      <trkpt lat="43.958" lon="2.21221">
        <ele>213</ele>
        <time>2020-08-25T08:16:15.308Z</time>
      </trkpt>
      <trkpt lat="43.95801" lon="2.21222">
        <ele>213</ele>
        <time>2020-08-25T08:16:16.308Z</time>
      </trkpt>
      <trkpt lat="43.95801" lon="2.21224">
        <ele>213</ele>
        <time>2020-08-25T08:16:17.308Z</time>
      </trkpt>
      <trkpt lat="43.95801" lon="2.21225">
        <ele>213</ele>
        <time>2020-08-25T08:16:18.308Z</time>
      </trkpt>
      <trkpt lat="43.95802" lon="2.21226">
        <ele>213</ele>
        <time>2020-08-25T08:16:19.308Z</time>
      </trkpt>
      <trkpt lat="43.95802" lon="2.21228">
        <ele>213</ele>
        <time>2020-08-25T08:16:20.308Z</time>
      </trkpt>
      <trkpt lat="43.95802" lon="2.2123">
        <ele>213</ele>
        <time>2020-08-25T08:16:21.308Z</time>
      </trkpt>
      <trkpt lat="43.95802" lon="2.21231">
        <ele>213</ele>
        <time>2020-08-25T08:16:22.308Z</time>
      </trkpt>
      <trkpt lat="43.95803" lon="2.21233">
        <ele>213</ele>
        <time>2020-08-25T08:16:23.308Z</time>
      </trkpt>
      <trkpt lat="43.95803" lon="2.21234">
        <ele>213</ele>
        <time>2020-08-25T08:16:24.308Z</time>
      </trkpt>
      <trkpt lat="43.95804" lon="2.21236">
        <ele>214</ele>
        <time>2020-08-25T08:16:25.308Z</time>
      </trkpt>
      <trkpt lat="43.95804" lon="2.21237">
        <ele>214</ele>
        <time>2020-08-25T08:16:26.308Z</time>
      </trkpt>
      <trkpt lat="43.95804" lon="2.21239">
        <ele>214</ele>
        <time>2020-08-25T08:16:27.308Z</time>
      </trkpt>
      <trkpt lat="43.95805" lon="2.21241">
        <ele>214</ele>
        <time>2020-08-25T08:16:28.308Z</time>
      </trkpt>
      <trkpt lat="43.95805" lon="2.21242">
        <ele>214</ele>
        <time>2020-08-25T08:16:29.308Z</time>
      </trkpt>
      <trkpt lat="43.95805" lon="2.21244">
        <ele>214</ele>
        <time>2020-08-25T08:16:30.308Z</time>
      </trkpt>
      <trkpt lat="43.95806" lon="2.21245">
        <ele>214</ele>
        <time>2020-08-25T08:16:31.308Z</time>
      </trkpt>
      <trkpt lat="43.95806" lon="2.21247">
        <ele>214</ele>
        <time>2020-08-25T08:16:32.308Z</time>
      </trkpt>
      <trkpt lat="43.95806" lon="2.21248">
        <ele>214</ele>
        <time>2020-08-25T08:16:33.308Z</time>
      </trkpt>
      <trkpt lat="43.95807" lon="2.2125">
        <ele>215</ele>
        <time>2020-08-25T08:16:34.308Z</time>
      </trkpt>
      <trkpt lat="43.95807" lon="2.21251">
        <ele>215</ele>
        <time>2020-08-25T08:16:35.308Z</time>
      </trkpt>
      <trkpt lat="43.95807" lon="2.21253">
        <ele>215</ele>
        <time>2020-08-25T08:16:36.308Z</time>
      </trkpt>
      <trkpt lat="43.95808" lon="2.21255">
        <ele>215</ele>
        <time>2020-08-25T08:16:37.308Z</time>
      </trkpt>
      <trkpt lat="43.95808" lon="2.21256">
        <ele>215</ele>
        <time>2020-08-25T08:16:38.308Z</time>
      </trkpt>
      <trkpt lat="43.95808" lon="2.21258">
        <ele>215</ele>
        <time>2020-08-25T08:16:39.308Z</time>
      </trkpt>
      <trkpt lat="43.95809" lon="2.2126">
        <ele>215</ele>
        <time>2020-08-25T08:16:40.308Z</time>
      </trkpt>
      <trkpt lat="43.95809" lon="2.21262">
        <ele>216</ele>
        <time>2020-08-25T08:16:41.308Z</time>
      </trkpt>
      <trkpt lat="43.95809" lon="2.21263">
        <ele>216</ele>
        <time>2020-08-25T08:16:42.308Z</time>
      </trkpt>
      <trkpt lat="43.9581" lon="2.21265">
        <ele>216</ele>
        <time>2020-08-25T08:16:43.308Z</time>
      </trkpt>
      <trkpt lat="43.9581" lon="2.21267">
        <ele>216</ele>
        <time>2020-08-25T08:16:44.308Z</time>
      </trkpt>
      <trkpt lat="43.9581" lon="2.21268">
        <ele>216</ele>
        <time>2020-08-25T08:16:45.308Z</time>
      </trkpt>
      <trkpt lat="43.9581" lon="2.2127">
        <ele>217</ele>
        <time>2020-08-25T08:16:46.308Z</time>
      </trkpt>
      <trkpt lat="43.9581" lon="2.21272">
        <ele>217</ele>
        <time>2020-08-25T08:16:47.308Z</time>
      </trkpt>
      <trkpt lat="43.95811" lon="2.21273">
        <ele>217</ele>
        <time>2020-08-25T08:16:48.308Z</time>
      </trkpt>
      <trkpt lat="43.95811" lon="2.21274">
        <ele>217</ele>
        <time>2020-08-25T08:16:49.308Z</time>
      </trkpt>
      <trkpt lat="43.95811" lon="2.21276">
        <ele>218</ele>
        <time>2020-08-25T08:16:50.308Z</time>
      </trkpt>
      <trkpt lat="43.95812" lon="2.21278">
        <ele>218</ele>
        <time>2020-08-25T08:16:51.308Z</time>
      </trkpt>
      <trkpt lat="43.95812" lon="2.21279">
        <ele>218</ele>
        <time>2020-08-25T08:16:52.308Z</time>
      </trkpt>
      <trkpt lat="43.95812" lon="2.21281">
        <ele>218</ele>
        <time>2020-08-25T08:16:53.308Z</time>
      </trkpt>
      <trkpt lat="43.95813" lon="2.21282">
        <ele>218</ele>
        <time>2020-08-25T08:16:54.308Z</time>
      </trkpt>
      <trkpt lat="43.95813" lon="2.21284">
        <ele>218</ele>
        <time>2020-08-25T08:16:55.308Z</time>
      </trkpt>
      <trkpt lat="43.95813" lon="2.21286">
        <ele>218</ele>
        <time>2020-08-25T08:16:56.308Z</time>
      </trkpt>
      <trkpt lat="43.95813" lon="2.21287">
        <ele>219</ele>
        <time>2020-08-25T08:16:57.308Z</time>
      </trkpt>
      <trkpt lat="43.95814" lon="2.21289">
        <ele>219</ele>
        <time>2020-08-25T08:16:58.308Z</time>
      </trkpt>
      <trkpt lat="43.95814" lon="2.21291">
        <ele>219</ele>
        <time>2020-08-25T08:16:59.308Z</time>
      </trkpt>
      <trkpt lat="43.95814" lon="2.21292">
        <ele>219</ele>
        <time>2020-08-25T08:17:00.308Z</time>
      </trkpt>
      <trkpt lat="43.95815" lon="2.21294">
        <ele>219</ele>
        <time>2020-08-25T08:17:01.308Z</time>
      </trkpt>
      <trkpt lat="43.95815" lon="2.21296">
        <ele>219</ele>
        <time>2020-08-25T08:17:02.308Z</time>
      </trkpt>
      <trkpt lat="43.95815" lon="2.21298">
        <ele>220</ele>
        <time>2020-08-25T08:17:03.308Z</time>
      </trkpt>
      <trkpt lat="43.95815" lon="2.21299">
        <ele>220</ele>
        <time>2020-08-25T08:17:04.308Z</time>
      </trkpt>
      <trkpt lat="43.95816" lon="2.21301">
        <ele>220</ele>
        <time>2020-08-25T08:17:05.308Z</time>
      </trkpt>
      <trkpt lat="43.95816" lon="2.21302">
        <ele>220</ele>
        <time>2020-08-25T08:17:06.308Z</time>
      </trkpt>
      <trkpt lat="43.95816" lon="2.21304">
        <ele>220</ele>
        <time>2020-08-25T08:17:07.308Z</time>
      </trkpt>
      <trkpt lat="43.95816" lon="2.21306">
        <ele>220</ele>
        <time>2020-08-25T08:17:08.308Z</time>
      </trkpt>
      <trkpt lat="43.95817" lon="2.21307">
        <ele>221</ele>
        <time>2020-08-25T08:17:09.308Z</time>
      </trkpt>
      <trkpt lat="43.95817" lon="2.21309">
        <ele>221</ele>
        <time>2020-08-25T08:17:10.308Z</time>
      </trkpt>
      <trkpt lat="43.95817" lon="2.21311">
        <ele>221</ele>
        <time>2020-08-25T08:17:11.308Z</time>
      </trkpt>
      <trkpt lat="43.95817" lon="2.21312">
        <ele>221</ele>
        <time>2020-08-25T08:17:12.308Z</time>
      </trkpt>
      <trkpt lat="43.95818" lon="2.21313">
        <ele>221</ele>
        <time>2020-08-25T08:17:13.308Z</time>
      </trkpt>
      <trkpt lat="43.95818" lon="2.21315">
        <ele>221</ele>
        <time>2020-08-25T08:17:14.308Z</time>
      </trkpt>
      <trkpt lat="43.95818" lon="2.21317">
        <ele>221</ele>
        <time>2020-08-25T08:17:15.308Z</time>
      </trkpt>
      <trkpt lat="43.95819" lon="2.21319">
        <ele>221</ele>
        <time>2020-08-25T08:17:16.308Z</time>
      </trkpt>
      <trkpt lat="43.95819" lon="2.2132">
        <ele>221</ele>
        <time>2020-08-25T08:17:17.308Z</time>
      </trkpt>
      <trkpt lat="43.95819" lon="2.21322">
        <ele>221</ele>
        <time>2020-08-25T08:17:18.308Z</time>
      </trkpt>
      <trkpt lat="43.9582" lon="2.21323">
        <ele>221</ele>
        <time>2020-08-25T08:17:19.308Z</time>
      </trkpt>
      <trkpt lat="43.9582" lon="2.21325">
        <ele>221</ele>
        <time>2020-08-25T08:17:20.308Z</time>
      </trkpt>
      <trkpt lat="43.9582" lon="2.21326">
        <ele>221</ele>
        <time>2020-08-25T08:17:21.308Z</time>
      </trkpt>
      <trkpt lat="43.95821" lon="2.21328">
        <ele>221</ele>
        <time>2020-08-25T08:17:22.308Z</time>
      </trkpt>
      <trkpt lat="43.95821" lon="2.2133">
        <ele>221</ele>
        <time>2020-08-25T08:17:23.308Z</time>
      </trkpt>
      <trkpt lat="43.95821" lon="2.21332">
        <ele>221</ele>
        <time>2020-08-25T08:17:24.308Z</time>
      </trkpt>
      <trkpt lat="43.95822" lon="2.21333">
        <ele>221</ele>
        <time>2020-08-25T08:17:25.308Z</time>
      </trkpt>
      <trkpt lat="43.95822" lon="2.21335">
        <ele>221</ele>
        <time>2020-08-25T08:17:26.308Z</time>
      </trkpt>
      <trkpt lat="43.95822" lon="2.21337">
        <ele>221</ele>
        <time>2020-08-25T08:17:27.308Z</time>
      </trkpt>
      <trkpt lat="43.95823" lon="2.21338">
        <ele>221</ele>
        <time>2020-08-25T08:17:28.308Z</time>
      </trkpt>
      <trkpt lat="43.95823" lon="2.2134">
        <ele>221</ele>
        <time>2020-08-25T08:17:29.308Z</time>
      </trkpt>
      <trkpt lat="43.95823" lon="2.21342">
        <ele>221</ele>
        <time>2020-08-25T08:17:30.308Z</time>
      </trkpt>
      <trkpt lat="43.95824" lon="2.21343">
        <ele>221</ele>
        <time>2020-08-25T08:17:31.308Z</time>
      </trkpt>
      <trkpt lat="43.95824" lon="2.21345">
        <ele>221</ele>
        <time>2020-08-25T08:17:32.308Z</time>
      </trkpt>
      <trkpt lat="43.95824" lon="2.21347">
        <ele>221</ele>
        <time>2020-08-25T08:17:33.308Z</time>
      </trkpt>
      <trkpt lat="43.95825" lon="2.21348">
        <ele>222</ele>
        <time>2020-08-25T08:17:34.308Z</time>
      </trkpt>
      <trkpt lat="43.95825" lon="2.2135">
        <ele>222</ele>
        <time>2020-08-25T08:17:35.308Z</time>
      </trkpt>
      <trkpt lat="43.95825" lon="2.21352">
        <ele>222</ele>
        <time>2020-08-25T08:17:36.308Z</time>
      </trkpt>
      <trkpt lat="43.95826" lon="2.21354">
        <ele>222</ele>
        <time>2020-08-25T08:17:37.308Z</time>
      </trkpt>
      <trkpt lat="43.95826" lon="2.21355">
        <ele>222</ele>
        <time>2020-08-25T08:17:38.308Z</time>
      </trkpt>
      <trkpt lat="43.95826" lon="2.21357">
        <ele>222</ele>
        <time>2020-08-25T08:17:39.308Z</time>
      </trkpt>
      <trkpt lat="43.95827" lon="2.21359">
        <ele>222</ele>
        <time>2020-08-25T08:17:40.308Z</time>
      </trkpt>
      <trkpt lat="43.95827" lon="2.2136">
        <ele>223</ele>
        <time>2020-08-25T08:17:41.308Z</time>
      </trkpt>
      <trkpt lat="43.95828" lon="2.21362">
        <ele>223</ele>
        <time>2020-08-25T08:17:42.308Z</time>
      </trkpt>
      <trkpt lat="43.95828" lon="2.21363">
        <ele>223</ele>
        <time>2020-08-25T08:17:43.308Z</time>
      </trkpt>
      <trkpt lat="43.95829" lon="2.21365">
        <ele>223</ele>
        <time>2020-08-25T08:17:44.308Z</time>
      </trkpt>
      <trkpt lat="43.95829" lon="2.21367">
        <ele>223</ele>
        <time>2020-08-25T08:17:45.308Z</time>
      </trkpt>
      <trkpt lat="43.9583" lon="2.21368">
        <ele>223</ele>
        <time>2020-08-25T08:17:46.308Z</time>
      </trkpt>
      <trkpt lat="43.9583" lon="2.21369">
        <ele>223</ele>
        <time>2020-08-25T08:17:47.308Z</time>
      </trkpt>
      <trkpt lat="43.95831" lon="2.21371">
        <ele>223</ele>
        <time>2020-08-25T08:17:48.308Z</time>
      </trkpt>
      <trkpt lat="43.95831" lon="2.21372">
        <ele>223</ele>
        <time>2020-08-25T08:17:49.308Z</time>
      </trkpt>
      <trkpt lat="43.95832" lon="2.21374">
        <ele>224</ele>
        <time>2020-08-25T08:17:50.308Z</time>
      </trkpt>
      <trkpt lat="43.95833" lon="2.21375">
        <ele>224</ele>
        <time>2020-08-25T08:17:51.308Z</time>
      </trkpt>
      <trkpt lat="43.95833" lon="2.21377">
        <ele>224</ele>
        <time>2020-08-25T08:17:52.308Z</time>
      </trkpt>
      <trkpt lat="43.95834" lon="2.21378">
        <ele>224</ele>
        <time>2020-08-25T08:17:53.308Z</time>
      </trkpt>
      <trkpt lat="43.95835" lon="2.2138">
        <ele>224</ele>
        <time>2020-08-25T08:17:54.308Z</time>
      </trkpt>
      <trkpt lat="43.95835" lon="2.21381">
        <ele>225</ele>
        <time>2020-08-25T08:17:55.308Z</time>
      </trkpt>
      <trkpt lat="43.95836" lon="2.21383">
        <ele>225</ele>
        <time>2020-08-25T08:17:56.308Z</time>
      </trkpt>
      <trkpt lat="43.95837" lon="2.21384">
        <ele>225</ele>
        <time>2020-08-25T08:17:57.308Z</time>
      </trkpt>
      <trkpt lat="43.95838" lon="2.21386">
        <ele>225</ele>
        <time>2020-08-25T08:17:58.308Z</time>
      </trkpt>
      <trkpt lat="43.95838" lon="2.21387">
        <ele>225</ele>
        <time>2020-08-25T08:17:59.308Z</time>
      </trkpt>
      <trkpt lat="43.95839" lon="2.21389">
        <ele>226</ele>
        <time>2020-08-25T08:18:00.308Z</time>
      </trkpt>
      <trkpt lat="43.9584" lon="2.2139">
        <ele>226</ele>
        <time>2020-08-25T08:18:01.308Z</time>
      </trkpt>
      <trkpt lat="43.9584" lon="2.21391">
        <ele>226</ele>
        <time>2020-08-25T08:18:02.308Z</time>
      </trkpt>
      <trkpt lat="43.95841" lon="2.21392">
        <ele>226</ele>
        <time>2020-08-25T08:18:03.308Z</time>
      </trkpt>
      <trkpt lat="43.95842" lon="2.21394">
        <ele>227</ele>
        <time>2020-08-25T08:18:04.308Z</time>
      </trkpt>
      <trkpt lat="43.95843" lon="2.21395">
        <ele>227</ele>
        <time>2020-08-25T08:18:05.308Z</time>
      </trkpt>
      <trkpt lat="43.95843" lon="2.21397">
        <ele>227</ele>
        <time>2020-08-25T08:18:06.308Z</time>
      </trkpt>
      <trkpt lat="43.95844" lon="2.21398">
        <ele>227</ele>
        <time>2020-08-25T08:18:07.308Z</time>
      </trkpt>
      <trkpt lat="43.95845" lon="2.21399">
        <ele>227</ele>
        <time>2020-08-25T08:18:08.308Z</time>
      </trkpt>
      <trkpt lat="43.95846" lon="2.214">
        <ele>227</ele>
        <time>2020-08-25T08:18:09.308Z</time>
      </trkpt>
      <trkpt lat="43.95847" lon="2.21401">
        <ele>228</ele>
        <time>2020-08-25T08:18:10.308Z</time>
      </trkpt>
      <trkpt lat="43.95848" lon="2.21403">
        <ele>228</ele>
        <time>2020-08-25T08:18:11.308Z</time>
      </trkpt>
      <trkpt lat="43.95849" lon="2.21404">
        <ele>228</ele>
        <time>2020-08-25T08:18:12.308Z</time>
      </trkpt>
      <trkpt lat="43.95849" lon="2.21405">
        <ele>228</ele>
        <time>2020-08-25T08:18:13.308Z</time>
      </trkpt>
      <trkpt lat="43.9585" lon="2.21406">
        <ele>228</ele>
        <time>2020-08-25T08:18:14.308Z</time>
      </trkpt>
      <trkpt lat="43.95851" lon="2.21407">
        <ele>229</ele>
        <time>2020-08-25T08:18:15.308Z</time>
      </trkpt>
      <trkpt lat="43.95852" lon="2.21408">
        <ele>229</ele>
        <time>2020-08-25T08:18:16.308Z</time>
      </trkpt>
      <trkpt lat="43.95853" lon="2.21409">
        <ele>229</ele>
        <time>2020-08-25T08:18:17.308Z</time>
      </trkpt>
      <trkpt lat="43.95853" lon="2.2141">
        <ele>229</ele>
        <time>2020-08-25T08:18:18.308Z</time>
      </trkpt>
      <trkpt lat="43.95855" lon="2.21412">
        <ele>229</ele>
        <time>2020-08-25T08:18:19.308Z</time>
      </trkpt>
      <trkpt lat="43.95856" lon="2.21413">
        <ele>229</ele>
        <time>2020-08-25T08:18:20.308Z</time>
      </trkpt>
      <trkpt lat="43.95857" lon="2.21414">
        <ele>229</ele>
        <time>2020-08-25T08:18:21.308Z</time>
      </trkpt>
      <trkpt lat="43.95857" lon="2.21415">
        <ele>229</ele>
        <time>2020-08-25T08:18:22.308Z</time>
      </trkpt>
      <trkpt lat="43.95858" lon="2.21416">
        <ele>230</ele>
        <time>2020-08-25T08:18:23.308Z</time>
      </trkpt>
      <trkpt lat="43.95859" lon="2.21417">
        <ele>230</ele>
        <time>2020-08-25T08:18:24.308Z</time>
      </trkpt>
      <trkpt lat="43.9586" lon="2.21418">
        <ele>230</ele>
        <time>2020-08-25T08:18:25.308Z</time>
      </trkpt>
      <trkpt lat="43.95861" lon="2.21419">
        <ele>230</ele>
        <time>2020-08-25T08:18:26.308Z</time>
      </trkpt>
      <trkpt lat="43.95862" lon="2.21421">
        <ele>230</ele>
        <time>2020-08-25T08:18:27.308Z</time>
      </trkpt>
      <trkpt lat="43.95863" lon="2.21422">
        <ele>230</ele>
        <time>2020-08-25T08:18:28.308Z</time>
      </trkpt>
      <trkpt lat="43.95864" lon="2.21423">
        <ele>231</ele>
        <time>2020-08-25T08:18:29.308Z</time>
      </trkpt>
      <trkpt lat="43.95865" lon="2.21424">
        <ele>231</ele>
        <time>2020-08-25T08:18:30.308Z</time>
      </trkpt>
      <trkpt lat="43.95866" lon="2.21425">
        <ele>231</ele>
        <time>2020-08-25T08:18:31.308Z</time>
      </trkpt>
      <trkpt lat="43.95867" lon="2.21426">
        <ele>231</ele>
        <time>2020-08-25T08:18:32.308Z</time>
      </trkpt>
      <trkpt lat="43.95868" lon="2.21427">
        <ele>231</ele>
        <time>2020-08-25T08:18:33.308Z</time>
      </trkpt>
      <trkpt lat="43.95869" lon="2.21428">
        <ele>231</ele>
        <time>2020-08-25T08:18:34.308Z</time>
      </trkpt>
      <trkpt lat="43.9587" lon="2.2143">
        <ele>231</ele>
        <time>2020-08-25T08:18:35.308Z</time>
      </trkpt>
      <trkpt lat="43.95871" lon="2.21431">
        <ele>231</ele>
        <time>2020-08-25T08:18:36.308Z</time>
      </trkpt>
      <trkpt lat="43.95872" lon="2.21433">
        <ele>231</ele>
        <time>2020-08-25T08:18:37.308Z</time>
      </trkpt>
      <trkpt lat="43.95873" lon="2.21434">
        <ele>232</ele>
        <time>2020-08-25T08:18:38.308Z</time>
      </trkpt>
      <trkpt lat="43.95873" lon="2.21435">
        <ele>232</ele>
        <time>2020-08-25T08:18:39.308Z</time>
      </trkpt>
      <trkpt lat="43.95874" lon="2.21436">
        <ele>232</ele>
        <time>2020-08-25T08:18:40.308Z</time>
      </trkpt>
      <trkpt lat="43.95875" lon="2.21438">
        <ele>232</ele>
        <time>2020-08-25T08:18:41.308Z</time>
      </trkpt>
      <trkpt lat="43.95876" lon="2.21439">
        <ele>232</ele>
        <time>2020-08-25T08:18:42.308Z</time>
      </trkpt>
      <trkpt lat="43.95877" lon="2.21441">
        <ele>232</ele>
        <time>2020-08-25T08:18:43.308Z</time>
      </trkpt>
      <trkpt lat="43.95878" lon="2.21442">
        <ele>232</ele>
        <time>2020-08-25T08:18:44.308Z</time>
      </trkpt>
      <trkpt lat="43.95879" lon="2.21444">
        <ele>232</ele>
        <time>2020-08-25T08:18:45.308Z</time>
      </trkpt>
      <trkpt lat="43.95879" lon="2.21445">
        <ele>232</ele>
        <time>2020-08-25T08:18:46.308Z</time>
      </trkpt>
      <trkpt lat="43.9588" lon="2.21447">
        <ele>232</ele>
        <time>2020-08-25T08:18:47.308Z</time>
      </trkpt>
      <trkpt lat="43.95881" lon="2.21448">
        <ele>232</ele>
        <time>2020-08-25T08:18:48.308Z</time>
      </trkpt>
      <trkpt lat="43.95882" lon="2.2145">
        <ele>232</ele>
        <time>2020-08-25T08:18:49.308Z</time>
      </trkpt>
      <trkpt lat="43.95882" lon="2.21451">
        <ele>232</ele>
        <time>2020-08-25T08:18:50.308Z</time>
      </trkpt>
      <trkpt lat="43.95883" lon="2.21453">
        <ele>232</ele>
        <time>2020-08-25T08:18:51.308Z</time>
      </trkpt>
      <trkpt lat="43.95884" lon="2.21455">
        <ele>232</ele>
        <time>2020-08-25T08:18:52.308Z</time>
      </trkpt>
      <trkpt lat="43.95884" lon="2.21456">
        <ele>232</ele>
        <time>2020-08-25T08:18:53.308Z</time>
      </trkpt>
      <trkpt lat="43.95885" lon="2.21458">
        <ele>232</ele>
        <time>2020-08-25T08:18:54.308Z</time>
      </trkpt>
      <trkpt lat="43.95885" lon="2.21459">
        <ele>233</ele>
        <time>2020-08-25T08:18:55.308Z</time>
      </trkpt>
      <trkpt lat="43.95886" lon="2.21461">
        <ele>233</ele>
        <time>2020-08-25T08:18:56.308Z</time>
      </trkpt>
      <trkpt lat="43.95886" lon="2.21462">
        <ele>233</ele>
        <time>2020-08-25T08:18:57.308Z</time>
      </trkpt>
      <trkpt lat="43.95887" lon="2.21464">
        <ele>233</ele>
        <time>2020-08-25T08:18:58.308Z</time>
      </trkpt>
      <trkpt lat="43.95888" lon="2.21466">
        <ele>233</ele>
        <time>2020-08-25T08:18:59.308Z</time>
      </trkpt>
      <trkpt lat="43.95888" lon="2.21468">
        <ele>233</ele>
        <time>2020-08-25T08:19:00.308Z</time>
      </trkpt>
      <trkpt lat="43.95889" lon="2.21469">
        <ele>233</ele>
        <time>2020-08-25T08:19:01.308Z</time>
      </trkpt>
      <trkpt lat="43.95889" lon="2.21471">
        <ele>233</ele>
        <time>2020-08-25T08:19:02.308Z</time>
      </trkpt>
      <trkpt lat="43.9589" lon="2.21472">
        <ele>233</ele>
        <time>2020-08-25T08:19:03.308Z</time>
      </trkpt>
      <trkpt lat="43.9589" lon="2.21474">
        <ele>233</ele>
        <time>2020-08-25T08:19:04.308Z</time>
      </trkpt>
      <trkpt lat="43.9589" lon="2.21476">
        <ele>233</ele>
        <time>2020-08-25T08:19:05.308Z</time>
      </trkpt>
      <trkpt lat="43.95891" lon="2.21477">
        <ele>233</ele>
        <time>2020-08-25T08:19:06.308Z</time>
      </trkpt>
      <trkpt lat="43.95891" lon="2.21479">
        <ele>234</ele>
        <time>2020-08-25T08:19:07.308Z</time>
      </trkpt>
      <trkpt lat="43.95891" lon="2.21481">
        <ele>234</ele>
        <time>2020-08-25T08:19:08.308Z</time>
      </trkpt>
      <trkpt lat="43.95892" lon="2.21482">
        <ele>234</ele>
        <time>2020-08-25T08:19:09.308Z</time>
      </trkpt>
      <trkpt lat="43.95892" lon="2.21484">
        <ele>234</ele>
        <time>2020-08-25T08:19:10.308Z</time>
      </trkpt>
      <trkpt lat="43.95893" lon="2.21486">
        <ele>234</ele>
        <time>2020-08-25T08:19:11.308Z</time>
      </trkpt>
      <trkpt lat="43.95893" lon="2.21487">
        <ele>234</ele>
        <time>2020-08-25T08:19:12.308Z</time>
      </trkpt>
      <trkpt lat="43.95893" lon="2.21489">
        <ele>234</ele>
        <time>2020-08-25T08:19:13.308Z</time>
      </trkpt>
      <trkpt lat="43.95894" lon="2.2149">
        <ele>234</ele>
        <time>2020-08-25T08:19:14.308Z</time>
      </trkpt>
      <trkpt lat="43.95894" lon="2.21492">
        <ele>234</ele>
        <time>2020-08-25T08:19:15.308Z</time>
      </trkpt>
      <trkpt lat="43.95895" lon="2.21494">
        <ele>234</ele>
        <time>2020-08-25T08:19:16.308Z</time>
      </trkpt>
      <trkpt lat="43.95895" lon="2.21495">
        <ele>234</ele>
        <time>2020-08-25T08:19:17.308Z</time>
      </trkpt>
      <trkpt lat="43.95896" lon="2.21497">
        <ele>234</ele>
        <time>2020-08-25T08:19:18.308Z</time>
      </trkpt>
      <trkpt lat="43.95896" lon="2.21498">
        <ele>234</ele>
        <time>2020-08-25T08:19:19.308Z</time>
      </trkpt>
      <trkpt lat="43.95896" lon="2.215">
        <ele>234</ele>
        <time>2020-08-25T08:19:20.308Z</time>
      </trkpt>
      <trkpt lat="43.95896" lon="2.21501">
        <ele>234</ele>
        <time>2020-08-25T08:19:21.308Z</time>
      </trkpt>
      <trkpt lat="43.95897" lon="2.21503">
        <ele>234</ele>
        <time>2020-08-25T08:19:22.308Z</time>
      </trkpt>
      <trkpt lat="43.95897" lon="2.21504">
        <ele>234</ele>
        <time>2020-08-25T08:19:23.308Z</time>
      </trkpt>
      <trkpt lat="43.95898" lon="2.21506">
        <ele>234</ele>
        <time>2020-08-25T08:19:24.308Z</time>
      </trkpt>
      <trkpt lat="43.95898" lon="2.21507">
        <ele>234</ele>
        <time>2020-08-25T08:19:25.308Z</time>
      </trkpt>
      <trkpt lat="43.95898" lon="2.21509">
        <ele>234</ele>
        <time>2020-08-25T08:19:26.308Z</time>
      </trkpt>
      <trkpt lat="43.95899" lon="2.2151">
        <ele>234</ele>
        <time>2020-08-25T08:19:27.308Z</time>
      </trkpt>
      <trkpt lat="43.95899" lon="2.21512">
        <ele>234</ele>
        <time>2020-08-25T08:19:28.308Z</time>
      </trkpt>
      <trkpt lat="43.959" lon="2.21514">
        <ele>234</ele>
        <time>2020-08-25T08:19:29.308Z</time>
      </trkpt>
      <trkpt lat="43.959" lon="2.21515">
        <ele>234</ele>
        <time>2020-08-25T08:19:30.308Z</time>
      </trkpt>
      <trkpt lat="43.95901" lon="2.21517">
        <ele>234</ele>
        <time>2020-08-25T08:19:31.308Z</time>
      </trkpt>
      <trkpt lat="43.95901" lon="2.21519">
        <ele>234</ele>
        <time>2020-08-25T08:19:32.308Z</time>
      </trkpt>
      <trkpt lat="43.95902" lon="2.2152">
        <ele>234</ele>
        <time>2020-08-25T08:19:33.308Z</time>
      </trkpt>
      <trkpt lat="43.95902" lon="2.21522">
        <ele>235</ele>
        <time>2020-08-25T08:19:34.308Z</time>
      </trkpt>
      <trkpt lat="43.95902" lon="2.21523">
        <ele>235</ele>
        <time>2020-08-25T08:19:35.308Z</time>
      </trkpt>
      <trkpt lat="43.95903" lon="2.21525">
        <ele>235</ele>
        <time>2020-08-25T08:19:36.308Z</time>
      </trkpt>
      <trkpt lat="43.95904" lon="2.21526">
        <ele>235</ele>
        <time>2020-08-25T08:19:37.308Z</time>
      </trkpt>
      <trkpt lat="43.95904" lon="2.21528">
        <ele>235</ele>
        <time>2020-08-25T08:19:38.308Z</time>
      </trkpt>
      <trkpt lat="43.95905" lon="2.21529">
        <ele>235</ele>
        <time>2020-08-25T08:19:39.308Z</time>
      </trkpt>
      <trkpt lat="43.95906" lon="2.21531">
        <ele>235</ele>
        <time>2020-08-25T08:19:40.308Z</time>
      </trkpt>
      <trkpt lat="43.95907" lon="2.21532">
        <ele>235</ele>
        <time>2020-08-25T08:19:41.308Z</time>
      </trkpt>
      <trkpt lat="43.95907" lon="2.21534">
        <ele>235</ele>
        <time>2020-08-25T08:19:42.308Z</time>
      </trkpt>
      <trkpt lat="43.95908" lon="2.21535">
        <ele>235</ele>
        <time>2020-08-25T08:19:43.308Z</time>
      </trkpt>
      <trkpt lat="43.95909" lon="2.21536">
        <ele>235</ele>
        <time>2020-08-25T08:19:44.308Z</time>
      </trkpt>
      <trkpt lat="43.9591" lon="2.21538">
        <ele>235</ele>
        <time>2020-08-25T08:19:45.308Z</time>
      </trkpt>
      <trkpt lat="43.95911" lon="2.2154">
        <ele>235</ele>
        <time>2020-08-25T08:19:46.308Z</time>
      </trkpt>
      <trkpt lat="43.95912" lon="2.21541">
        <ele>235</ele>
        <time>2020-08-25T08:19:47.308Z</time>
      </trkpt>
      <trkpt lat="43.95912" lon="2.21542">
        <ele>236</ele>
        <time>2020-08-25T08:19:48.308Z</time>
      </trkpt>
      <trkpt lat="43.95913" lon="2.21544">
        <ele>236</ele>
        <time>2020-08-25T08:19:49.308Z</time>
      </trkpt>
      <trkpt lat="43.95914" lon="2.21545">
        <ele>236</ele>
        <time>2020-08-25T08:19:50.308Z</time>
      </trkpt>
      <trkpt lat="43.95914" lon="2.21547">
        <ele>236</ele>
        <time>2020-08-25T08:19:51.308Z</time>
      </trkpt>
      <trkpt lat="43.95915" lon="2.21548">
        <ele>236</ele>
        <time>2020-08-25T08:19:52.308Z</time>
      </trkpt>
      <trkpt lat="43.95916" lon="2.2155">
        <ele>236</ele>
        <time>2020-08-25T08:19:53.308Z</time>
      </trkpt>
      <trkpt lat="43.95917" lon="2.21551">
        <ele>236</ele>
        <time>2020-08-25T08:19:54.308Z</time>
      </trkpt>
      <trkpt lat="43.95917" lon="2.21553">
        <ele>236</ele>
        <time>2020-08-25T08:19:55.308Z</time>
      </trkpt>
      <trkpt lat="43.95918" lon="2.21554">
        <ele>236</ele>
        <time>2020-08-25T08:19:56.308Z</time>
      </trkpt>
      <trkpt lat="43.95919" lon="2.21556">
        <ele>236</ele>
        <time>2020-08-25T08:19:57.308Z</time>
      </trkpt>
      <trkpt lat="43.9592" lon="2.21557">
        <ele>236</ele>
        <time>2020-08-25T08:19:58.308Z</time>
      </trkpt>
      <trkpt lat="43.9592" lon="2.21558">
        <ele>237</ele>
        <time>2020-08-25T08:19:59.308Z</time>
      </trkpt>
      <trkpt lat="43.95921" lon="2.2156">
        <ele>237</ele>
        <time>2020-08-25T08:20:00.308Z</time>
      </trkpt>
      <trkpt lat="43.95922" lon="2.21561">
        <ele>237</ele>
        <time>2020-08-25T08:20:01.308Z</time>
      </trkpt>
      <trkpt lat="43.95922" lon="2.21563">
        <ele>237</ele>
        <time>2020-08-25T08:20:02.308Z</time>
      </trkpt>
      <trkpt lat="43.95923" lon="2.21564">
        <ele>237</ele>
        <time>2020-08-25T08:20:03.308Z</time>
      </trkpt>
      <trkpt lat="43.95924" lon="2.21566">
        <ele>237</ele>
        <time>2020-08-25T08:20:04.308Z</time>
      </trkpt>
      <trkpt lat="43.95924" lon="2.21567">
        <ele>237</ele>
        <time>2020-08-25T08:20:05.308Z</time>
      </trkpt>
      <trkpt lat="43.95925" lon="2.21568">
        <ele>237</ele>
        <time>2020-08-25T08:20:06.308Z</time>
      </trkpt>
      <trkpt lat="43.95925" lon="2.2157">
        <ele>238</ele>
        <time>2020-08-25T08:20:07.308Z</time>
      </trkpt>
      <trkpt lat="43.95926" lon="2.21571">
        <ele>238</ele>
        <time>2020-08-25T08:20:08.308Z</time>
      </trkpt>
      <trkpt lat="43.95927" lon="2.21573">
        <ele>238</ele>
        <time>2020-08-25T08:20:09.308Z</time>
      </trkpt>
      <trkpt lat="43.95927" lon="2.21574">
        <ele>238</ele>
        <time>2020-08-25T08:20:10.308Z</time>
      </trkpt>
      <trkpt lat="43.95928" lon="2.21576">
        <ele>238</ele>
        <time>2020-08-25T08:20:11.308Z</time>
      </trkpt>
      <trkpt lat="43.95928" lon="2.21577">
        <ele>238</ele>
        <time>2020-08-25T08:20:12.308Z</time>
      </trkpt>
      <trkpt lat="43.95929" lon="2.21579">
        <ele>238</ele>
        <time>2020-08-25T08:20:13.308Z</time>
      </trkpt>
      <trkpt lat="43.9593" lon="2.2158">
        <ele>238</ele>
        <time>2020-08-25T08:20:14.308Z</time>
      </trkpt>
      <trkpt lat="43.95931" lon="2.21582">
        <ele>238</ele>
        <time>2020-08-25T08:20:15.308Z</time>
      </trkpt>
      <trkpt lat="43.95931" lon="2.21583">
        <ele>239</ele>
        <time>2020-08-25T08:20:16.308Z</time>
      </trkpt>
      <trkpt lat="43.95932" lon="2.21584">
        <ele>239</ele>
        <time>2020-08-25T08:20:17.308Z</time>
      </trkpt>
      <trkpt lat="43.95933" lon="2.21585">
        <ele>239</ele>
        <time>2020-08-25T08:20:18.308Z</time>
      </trkpt>
      <trkpt lat="43.95934" lon="2.21587">
        <ele>239</ele>
        <time>2020-08-25T08:20:19.308Z</time>
      </trkpt>
      <trkpt lat="43.95935" lon="2.21588">
        <ele>239</ele>
        <time>2020-08-25T08:20:20.308Z</time>
      </trkpt>
      <trkpt lat="43.95936" lon="2.21589">
        <ele>239</ele>
        <time>2020-08-25T08:20:21.308Z</time>
      </trkpt>
      <trkpt lat="43.95936" lon="2.21591">
        <ele>239</ele>
        <time>2020-08-25T08:20:22.308Z</time>
      </trkpt>
      <trkpt lat="43.95937" lon="2.21592">
        <ele>239</ele>
        <time>2020-08-25T08:20:23.308Z</time>
      </trkpt>
      <trkpt lat="43.95938" lon="2.21593">
        <ele>239</ele>
        <time>2020-08-25T08:20:24.308Z</time>
      </trkpt>
      <trkpt lat="43.95939" lon="2.21594">
        <ele>239</ele>
        <time>2020-08-25T08:20:25.308Z</time>
      </trkpt>
      <trkpt lat="43.95939" lon="2.21596">
        <ele>239</ele>
        <time>2020-08-25T08:20:26.308Z</time>
      </trkpt>
      <trkpt lat="43.9594" lon="2.21597">
        <ele>239</ele>
        <time>2020-08-25T08:20:27.308Z</time>
      </trkpt>
      <trkpt lat="43.95941" lon="2.21598">
        <ele>239</ele>
        <time>2020-08-25T08:20:28.308Z</time>
      </trkpt>
      <trkpt lat="43.95941" lon="2.216">
        <ele>239</ele>
        <time>2020-08-25T08:20:29.308Z</time>
      </trkpt>
      <trkpt lat="43.95942" lon="2.21601">
        <ele>239</ele>
        <time>2020-08-25T08:20:30.308Z</time>
      </trkpt>
      <trkpt lat="43.95942" lon="2.21602">
        <ele>239</ele>
        <time>2020-08-25T08:20:31.308Z</time>
      </trkpt>
      <trkpt lat="43.95943" lon="2.21603">
        <ele>240</ele>
        <time>2020-08-25T08:20:32.308Z</time>
      </trkpt>
      <trkpt lat="43.95943" lon="2.21604">
        <ele>240</ele>
        <time>2020-08-25T08:20:33.308Z</time>
      </trkpt>
      <trkpt lat="43.95944" lon="2.21606">
        <ele>240</ele>
        <time>2020-08-25T08:20:34.308Z</time>
      </trkpt>
      <trkpt lat="43.95945" lon="2.21607">
        <ele>240</ele>
        <time>2020-08-25T08:20:35.308Z</time>
      </trkpt>
      <trkpt lat="43.95945" lon="2.21608">
        <ele>240</ele>
        <time>2020-08-25T08:20:36.308Z</time>
      </trkpt>
      <trkpt lat="43.95946" lon="2.21609">
        <ele>240</ele>
        <time>2020-08-25T08:20:37.308Z</time>
      </trkpt>
      <trkpt lat="43.95947" lon="2.21611">
        <ele>241</ele>
        <time>2020-08-25T08:20:38.308Z</time>
      </trkpt>
      <trkpt lat="43.95947" lon="2.21612">
        <ele>241</ele>
        <time>2020-08-25T08:20:39.308Z</time>
      </trkpt>
      <trkpt lat="43.95948" lon="2.21613">
        <ele>241</ele>
        <time>2020-08-25T08:20:40.308Z</time>
      </trkpt>
      <trkpt lat="43.95948" lon="2.21615">
        <ele>241</ele>
        <time>2020-08-25T08:20:41.308Z</time>
      </trkpt>
      <trkpt lat="43.95949" lon="2.21616">
        <ele>241</ele>
        <time>2020-08-25T08:20:42.308Z</time>
      </trkpt>
      <trkpt lat="43.95949" lon="2.21618">
        <ele>242</ele>
        <time>2020-08-25T08:20:43.308Z</time>
      </trkpt>
      <trkpt lat="43.9595" lon="2.21619">
        <ele>242</ele>
        <time>2020-08-25T08:20:44.308Z</time>
      </trkpt>
      <trkpt lat="43.9595" lon="2.2162">
        <ele>242</ele>
        <time>2020-08-25T08:20:45.308Z</time>
      </trkpt>
      <trkpt lat="43.95951" lon="2.21621">
        <ele>242</ele>
        <time>2020-08-25T08:20:46.308Z</time>
      </trkpt>
      <trkpt lat="43.95951" lon="2.21623">
        <ele>243</ele>
        <time>2020-08-25T08:20:47.308Z</time>
      </trkpt>
      <trkpt lat="43.95952" lon="2.21624">
        <ele>243</ele>
        <time>2020-08-25T08:20:48.308Z</time>
      </trkpt>
      <trkpt lat="43.95952" lon="2.21625">
        <ele>243</ele>
        <time>2020-08-25T08:20:49.308Z</time>
      </trkpt>
      <trkpt lat="43.95953" lon="2.21627">
        <ele>243</ele>
        <time>2020-08-25T08:20:50.308Z</time>
      </trkpt>
      <trkpt lat="43.95953" lon="2.21628">
        <ele>243</ele>
        <time>2020-08-25T08:20:51.308Z</time>
      </trkpt>
      <trkpt lat="43.95954" lon="2.21629">
        <ele>243</ele>
        <time>2020-08-25T08:20:52.308Z</time>
      </trkpt>
      <trkpt lat="43.95954" lon="2.21631">
        <ele>243</ele>
        <time>2020-08-25T08:20:53.308Z</time>
      </trkpt>
      <trkpt lat="43.95955" lon="2.21632">
        <ele>244</ele>
        <time>2020-08-25T08:20:54.308Z</time>
      </trkpt>
      <trkpt lat="43.95955" lon="2.21633">
        <ele>244</ele>
        <time>2020-08-25T08:20:55.308Z</time>
      </trkpt>
      <trkpt lat="43.95956" lon="2.21635">
        <ele>244</ele>
        <time>2020-08-25T08:20:56.308Z</time>
      </trkpt>
      <trkpt lat="43.95956" lon="2.21636">
        <ele>244</ele>
        <time>2020-08-25T08:20:57.308Z</time>
      </trkpt>
      <trkpt lat="43.95957" lon="2.21637">
        <ele>244</ele>
        <time>2020-08-25T08:20:58.308Z</time>
      </trkpt>
      <trkpt lat="43.95958" lon="2.21639">
        <ele>244</ele>
        <time>2020-08-25T08:20:59.308Z</time>
      </trkpt>
      <trkpt lat="43.95958" lon="2.2164">
        <ele>245</ele>
        <time>2020-08-25T08:21:00.308Z</time>
      </trkpt>
      <trkpt lat="43.95959" lon="2.21641">
        <ele>245</ele>
        <time>2020-08-25T08:21:01.308Z</time>
      </trkpt>
      <trkpt lat="43.9596" lon="2.21643">
        <ele>245</ele>
        <time>2020-08-25T08:21:02.308Z</time>
      </trkpt>
      <trkpt lat="43.9596" lon="2.21644">
        <ele>245</ele>
        <time>2020-08-25T08:21:03.308Z</time>
      </trkpt>
      <trkpt lat="43.95961" lon="2.21646">
        <ele>246</ele>
        <time>2020-08-25T08:21:04.308Z</time>
      </trkpt>
      <trkpt lat="43.95962" lon="2.21647">
        <ele>246</ele>
        <time>2020-08-25T08:21:05.308Z</time>
      </trkpt>
      <trkpt lat="43.95962" lon="2.21648">
        <ele>246</ele>
        <time>2020-08-25T08:21:06.308Z</time>
      </trkpt>
      <trkpt lat="43.95963" lon="2.2165">
        <ele>246</ele>
        <time>2020-08-25T08:21:07.308Z</time>
      </trkpt>
      <trkpt lat="43.95964" lon="2.21651">
        <ele>246</ele>
        <time>2020-08-25T08:21:08.308Z</time>
      </trkpt>
      <trkpt lat="43.95965" lon="2.21653">
        <ele>246</ele>
        <time>2020-08-25T08:21:09.308Z</time>
      </trkpt>
      <trkpt lat="43.95966" lon="2.21654">
        <ele>246</ele>
        <time>2020-08-25T08:21:10.308Z</time>
      </trkpt>
      <trkpt lat="43.95967" lon="2.21655">
        <ele>246</ele>
        <time>2020-08-25T08:21:11.308Z</time>
      </trkpt>
      <trkpt lat="43.95968" lon="2.21657">
        <ele>246</ele>
        <time>2020-08-25T08:21:12.308Z</time>
      </trkpt>
      <trkpt lat="43.95969" lon="2.21658">
        <ele>246</ele>
        <time>2020-08-25T08:21:13.308Z</time>
      </trkpt>
      <trkpt lat="43.9597" lon="2.21659">
        <ele>246</ele>
        <time>2020-08-25T08:21:14.308Z</time>
      </trkpt>
      <trkpt lat="43.9597" lon="2.2166">
        <ele>246</ele>
        <time>2020-08-25T08:21:15.308Z</time>
      </trkpt>
      <trkpt lat="43.95971" lon="2.21661">
        <ele>246</ele>
        <time>2020-08-25T08:21:16.308Z</time>
      </trkpt>
      <trkpt lat="43.95972" lon="2.21663">
        <ele>246</ele>
        <time>2020-08-25T08:21:17.308Z</time>
      </trkpt>
      <trkpt lat="43.95973" lon="2.21664">
        <ele>246</ele>
        <time>2020-08-25T08:21:18.308Z</time>
      </trkpt>
      <trkpt lat="43.95974" lon="2.21665">
        <ele>246</ele>
        <time>2020-08-25T08:21:19.308Z</time>
      </trkpt>
      <trkpt lat="43.95974" lon="2.21666">
        <ele>247</ele>
        <time>2020-08-25T08:21:20.308Z</time>
      </trkpt>
      <trkpt lat="43.95975" lon="2.21667">
        <ele>247</ele>
        <time>2020-08-25T08:21:21.308Z</time>
      </trkpt>
      <trkpt lat="43.95976" lon="2.21669">
        <ele>247</ele>
        <time>2020-08-25T08:21:22.308Z</time>
      </trkpt>
      <trkpt lat="43.95977" lon="2.2167">
        <ele>247</ele>
        <time>2020-08-25T08:21:23.308Z</time>
      </trkpt>
      <trkpt lat="43.95978" lon="2.21671">
        <ele>247</ele>
        <time>2020-08-25T08:21:24.308Z</time>
      </trkpt>
      <trkpt lat="43.95979" lon="2.21672">
        <ele>247</ele>
        <time>2020-08-25T08:21:25.308Z</time>
      </trkpt>
      <trkpt lat="43.9598" lon="2.21673">
        <ele>247</ele>
        <time>2020-08-25T08:21:26.308Z</time>
      </trkpt>
      <trkpt lat="43.9598" lon="2.21674">
        <ele>247</ele>
        <time>2020-08-25T08:21:27.308Z</time>
      </trkpt>
      <trkpt lat="43.95981" lon="2.21675">
        <ele>247</ele>
        <time>2020-08-25T08:21:28.308Z</time>
      </trkpt>
      <trkpt lat="43.95982" lon="2.21676">
        <ele>247</ele>
        <time>2020-08-25T08:21:29.308Z</time>
      </trkpt>
      <trkpt lat="43.95983" lon="2.21677">
        <ele>247</ele>
        <time>2020-08-25T08:21:30.308Z</time>
      </trkpt>
      <trkpt lat="43.95984" lon="2.21678">
        <ele>247</ele>
        <time>2020-08-25T08:21:31.308Z</time>
      </trkpt>
      <trkpt lat="43.95985" lon="2.21679">
        <ele>247</ele>
        <time>2020-08-25T08:21:32.308Z</time>
      </trkpt>
      <trkpt lat="43.95986" lon="2.2168">
        <ele>246</ele>
        <time>2020-08-25T08:21:33.308Z</time>
      </trkpt>
      <trkpt lat="43.95987" lon="2.21681">
        <ele>246</ele>
        <time>2020-08-25T08:21:34.308Z</time>
      </trkpt>
      <trkpt lat="43.95988" lon="2.21682">
        <ele>246</ele>
        <time>2020-08-25T08:21:35.308Z</time>
      </trkpt>
      <trkpt lat="43.95989" lon="2.21683">
        <ele>246</ele>
        <time>2020-08-25T08:21:36.308Z</time>
      </trkpt>
      <trkpt lat="43.9599" lon="2.21684">
        <ele>246</ele>
        <time>2020-08-25T08:21:37.308Z</time>
      </trkpt>
      <trkpt lat="43.95991" lon="2.21685">
        <ele>246</ele>
        <time>2020-08-25T08:21:38.308Z</time>
      </trkpt>
      <trkpt lat="43.95992" lon="2.21685">
        <ele>246</ele>
        <time>2020-08-25T08:21:39.308Z</time>
      </trkpt>
      <trkpt lat="43.95993" lon="2.21686">
        <ele>246</ele>
        <time>2020-08-25T08:21:40.308Z</time>
      </trkpt>
      <trkpt lat="43.95994" lon="2.21687">
        <ele>246</ele>
        <time>2020-08-25T08:21:41.308Z</time>
      </trkpt>
      <trkpt lat="43.95995" lon="2.21688">
        <ele>246</ele>
        <time>2020-08-25T08:21:42.308Z</time>
      </trkpt>
      <trkpt lat="43.95996" lon="2.21689">
        <ele>246</ele>
        <time>2020-08-25T08:21:43.308Z</time>
      </trkpt>
      <trkpt lat="43.95997" lon="2.2169">
        <ele>246</ele>
        <time>2020-08-25T08:21:44.308Z</time>
      </trkpt>
      <trkpt lat="43.95998" lon="2.21691">
        <ele>246</ele>
        <time>2020-08-25T08:21:45.308Z</time>
      </trkpt>
      <trkpt lat="43.95999" lon="2.21691">
        <ele>246</ele>
        <time>2020-08-25T08:21:46.308Z</time>
      </trkpt>
      <trkpt lat="43.96" lon="2.21692">
        <ele>246</ele>
        <time>2020-08-25T08:21:47.308Z</time>
      </trkpt>
      <trkpt lat="43.96001" lon="2.21693">
        <ele>246</ele>
        <time>2020-08-25T08:21:48.308Z</time>
      </trkpt>
      <trkpt lat="43.96002" lon="2.21694">
        <ele>246</ele>
        <time>2020-08-25T08:21:49.308Z</time>
      </trkpt>
      <trkpt lat="43.96004" lon="2.21695">
        <ele>246</ele>
        <time>2020-08-25T08:21:50.308Z</time>
      </trkpt>
      <trkpt lat="43.96005" lon="2.21695">
        <ele>247</ele>
        <time>2020-08-25T08:21:51.308Z</time>
      </trkpt>
      <trkpt lat="43.96005" lon="2.21696">
        <ele>247</ele>
        <time>2020-08-25T08:21:52.308Z</time>
      </trkpt>
      <trkpt lat="43.96006" lon="2.21697">
        <ele>247</ele>
        <time>2020-08-25T08:21:53.308Z</time>
      </trkpt>
      <trkpt lat="43.96008" lon="2.21697">
        <ele>247</ele>
        <time>2020-08-25T08:21:54.308Z</time>
      </trkpt>
      <trkpt lat="43.96009" lon="2.21698">
        <ele>247</ele>
        <time>2020-08-25T08:21:55.308Z</time>
      </trkpt>
      <trkpt lat="43.9601" lon="2.21699">
        <ele>247</ele>
        <time>2020-08-25T08:21:56.308Z</time>
      </trkpt>
      <trkpt lat="43.9601" lon="2.217">
        <ele>247</ele>
        <time>2020-08-25T08:21:57.308Z</time>
      </trkpt>
      <trkpt lat="43.96011" lon="2.217">
        <ele>247</ele>
        <time>2020-08-25T08:21:58.308Z</time>
      </trkpt>
      <trkpt lat="43.96012" lon="2.21701">
        <ele>247</ele>
        <time>2020-08-25T08:21:59.308Z</time>
      </trkpt>
      <trkpt lat="43.96013" lon="2.21702">
        <ele>247</ele>
        <time>2020-08-25T08:22:00.308Z</time>
      </trkpt>
      <trkpt lat="43.96014" lon="2.21702">
        <ele>247</ele>
        <time>2020-08-25T08:22:01.308Z</time>
      </trkpt>
      <trkpt lat="43.96016" lon="2.21703">
        <ele>247</ele>
        <time>2020-08-25T08:22:02.308Z</time>
      </trkpt>
      <trkpt lat="43.96017" lon="2.21703">
        <ele>247</ele>
        <time>2020-08-25T08:22:03.308Z</time>
      </trkpt>
      <trkpt lat="43.96018" lon="2.21704">
        <ele>247</ele>
        <time>2020-08-25T08:22:04.308Z</time>
      </trkpt>
      <trkpt lat="43.96019" lon="2.21705">
        <ele>247</ele>
        <time>2020-08-25T08:22:05.308Z</time>
      </trkpt>
      <trkpt lat="43.9602" lon="2.21706">
        <ele>248</ele>
        <time>2020-08-25T08:22:06.308Z</time>
      </trkpt>
      <trkpt lat="43.9602" lon="2.21707">
        <ele>248</ele>
        <time>2020-08-25T08:22:07.308Z</time>
      </trkpt>
      <trkpt lat="43.96021" lon="2.21707">
        <ele>248</ele>
        <time>2020-08-25T08:22:08.308Z</time>
      </trkpt>
      <trkpt lat="43.96022" lon="2.21708">
        <ele>248</ele>
        <time>2020-08-25T08:22:09.308Z</time>
      </trkpt>
      <trkpt lat="43.96023" lon="2.21708">
        <ele>248</ele>
        <time>2020-08-25T08:22:10.308Z</time>
      </trkpt>
      <trkpt lat="43.96024" lon="2.21709">
        <ele>248</ele>
        <time>2020-08-25T08:22:11.308Z</time>
      </trkpt>
      <trkpt lat="43.96025" lon="2.21709">
        <ele>248</ele>
        <time>2020-08-25T08:22:12.308Z</time>
      </trkpt>
      <trkpt lat="43.96026" lon="2.2171">
        <ele>248</ele>
        <time>2020-08-25T08:22:13.308Z</time>
      </trkpt>
      <trkpt lat="43.96027" lon="2.21711">
        <ele>248</ele>
        <time>2020-08-25T08:22:14.308Z</time>
      </trkpt>
      <trkpt lat="43.96028" lon="2.21711">
        <ele>249</ele>
        <time>2020-08-25T08:22:15.308Z</time>
      </trkpt>
      <trkpt lat="43.96028" lon="2.21712">
        <ele>249</ele>
        <time>2020-08-25T08:22:16.308Z</time>
      </trkpt>
      <trkpt lat="43.96029" lon="2.21713">
        <ele>249</ele>
        <time>2020-08-25T08:22:17.308Z</time>
      </trkpt>
      <trkpt lat="43.9603" lon="2.21713">
        <ele>249</ele>
        <time>2020-08-25T08:22:18.308Z</time>
      </trkpt>
      <trkpt lat="43.96031" lon="2.21714">
        <ele>249</ele>
        <time>2020-08-25T08:22:19.308Z</time>
      </trkpt>
      <trkpt lat="43.96032" lon="2.21714">
        <ele>249</ele>
        <time>2020-08-25T08:22:20.308Z</time>
      </trkpt>
      <trkpt lat="43.96033" lon="2.21714">
        <ele>249</ele>
        <time>2020-08-25T08:22:21.308Z</time>
      </trkpt>
      <trkpt lat="43.96034" lon="2.21714">
        <ele>249</ele>
        <time>2020-08-25T08:22:22.308Z</time>
      </trkpt>
      <trkpt lat="43.96034" lon="2.21714">
        <ele>249</ele>
        <time>2020-08-25T08:22:23.308Z</time>
      </trkpt>
      <trkpt lat="43.96035" lon="2.21713">
        <ele>249</ele>
        <time>2020-08-25T08:22:24.308Z</time>
      </trkpt>
      <trkpt lat="43.96035" lon="2.21712">
        <ele>249</ele>
        <time>2020-08-25T08:22:25.308Z</time>
      </trkpt>
      <trkpt lat="43.96035" lon="2.21711">
        <ele>249</ele>
        <time>2020-08-25T08:22:26.308Z</time>
      </trkpt>
      <trkpt lat="43.96035" lon="2.2171">
        <ele>249</ele>
        <time>2020-08-25T08:22:27.308Z</time>
      </trkpt>
      <trkpt lat="43.96035" lon="2.21709">
        <ele>249</ele>
        <time>2020-08-25T08:22:28.308Z</time>
      </trkpt>
      <trkpt lat="43.96035" lon="2.21709">
        <ele>250</ele>
        <time>2020-08-25T08:22:29.308Z</time>
      </trkpt>
      <trkpt lat="43.96034" lon="2.21708">
        <ele>250</ele>
        <time>2020-08-25T08:22:30.308Z</time>
      </trkpt>
      <trkpt lat="43.96034" lon="2.21708">
        <ele>250</ele>
        <time>2020-08-25T08:22:31.308Z</time>
      </trkpt>
      <trkpt lat="43.96034" lon="2.21708">
        <ele>250</ele>
        <time>2020-08-25T08:22:32.308Z</time>
      </trkpt>
      <trkpt lat="43.96034" lon="2.21708">
        <ele>250</ele>
        <time>2020-08-25T08:22:33.308Z</time>
      </trkpt>
      <trkpt lat="43.96033" lon="2.21707">
        <ele>250</ele>
        <time>2020-08-25T08:22:43.313Z</time>
      </trkpt>
      <trkpt lat="43.96032" lon="2.21706">
        <ele>250</ele>
        <time>2020-08-25T08:22:44.313Z</time>
      </trkpt>
      <trkpt lat="43.96031" lon="2.21706">
        <ele>250</ele>
        <time>2020-08-25T08:22:45.313Z</time>
      </trkpt>
      <trkpt lat="43.96031" lon="2.21705">
        <ele>250</ele>
        <time>2020-08-25T08:22:46.313Z</time>
      </trkpt>
      <trkpt lat="43.9603" lon="2.21704">
        <ele>250</ele>
        <time>2020-08-25T08:22:47.313Z</time>
      </trkpt>
      <trkpt lat="43.9603" lon="2.21702">
        <ele>250</ele>
        <time>2020-08-25T08:22:48.313Z</time>
      </trkpt>
      <trkpt lat="43.96029" lon="2.21701">
        <ele>250</ele>
        <time>2020-08-25T08:22:49.313Z</time>
      </trkpt>
      <trkpt lat="43.96029" lon="2.217">
        <ele>250</ele>
        <time>2020-08-25T08:22:50.313Z</time>
      </trkpt>
      <trkpt lat="43.96028" lon="2.21699">
        <ele>250</ele>
        <time>2020-08-25T08:22:51.313Z</time>
      </trkpt>
      <trkpt lat="43.96027" lon="2.21698">
        <ele>250</ele>
        <time>2020-08-25T08:22:52.313Z</time>
      </trkpt>
      <trkpt lat="43.96026" lon="2.21697">
        <ele>250</ele>
        <time>2020-08-25T08:22:53.313Z</time>
      </trkpt>
      <trkpt lat="43.96025" lon="2.21696">
        <ele>250</ele>
        <time>2020-08-25T08:22:54.313Z</time>
      </trkpt>
      <trkpt lat="43.96024" lon="2.21695">
        <ele>250</ele>
        <time>2020-08-25T08:22:55.313Z</time>
      </trkpt>
      <trkpt lat="43.96023" lon="2.21694">
        <ele>251</ele>
        <time>2020-08-25T08:22:56.313Z</time>
      </trkpt>
      <trkpt lat="43.96023" lon="2.21693">
        <ele>251</ele>
        <time>2020-08-25T08:22:57.313Z</time>
      </trkpt>
      <trkpt lat="43.96022" lon="2.21692">
        <ele>251</ele>
        <time>2020-08-25T08:22:58.313Z</time>
      </trkpt>
      <trkpt lat="43.96021" lon="2.21691">
        <ele>251</ele>
        <time>2020-08-25T08:22:59.313Z</time>
      </trkpt>
      <trkpt lat="43.96021" lon="2.2169">
        <ele>250</ele>
        <time>2020-08-25T08:23:00.313Z</time>
      </trkpt>
      <trkpt lat="43.9602" lon="2.21689">
        <ele>250</ele>
        <time>2020-08-25T08:23:01.313Z</time>
      </trkpt>
      <trkpt lat="43.96019" lon="2.21688">
        <ele>250</ele>
        <time>2020-08-25T08:23:02.313Z</time>
      </trkpt>
      <trkpt lat="43.96018" lon="2.21688">
        <ele>250</ele>
        <time>2020-08-25T08:23:03.313Z</time>
      </trkpt>
      <trkpt lat="43.96018" lon="2.21687">
        <ele>251</ele>
        <time>2020-08-25T08:23:04.313Z</time>
      </trkpt>
      <trkpt lat="43.96017" lon="2.21687">
        <ele>251</ele>
        <time>2020-08-25T08:23:05.313Z</time>
      </trkpt>
      <trkpt lat="43.96016" lon="2.21686">
        <ele>251</ele>
        <time>2020-08-25T08:23:06.313Z</time>
      </trkpt>
      <trkpt lat="43.96016" lon="2.21686">
        <ele>251</ele>
        <time>2020-08-25T08:23:07.313Z</time>
      </trkpt>
      <trkpt lat="43.96015" lon="2.21686">
        <ele>251</ele>
        <time>2020-08-25T08:23:08.313Z</time>
      </trkpt>
      <trkpt lat="43.96015" lon="2.21685">
        <ele>251</ele>
        <time>2020-08-25T08:23:09.313Z</time>
      </trkpt>
      <trkpt lat="43.96015" lon="2.21685">
        <ele>251</ele>
        <time>2020-08-25T08:23:10.313Z</time>
      </trkpt>
      <trkpt lat="43.96015" lon="2.21683">
        <ele>251</ele>
        <time>2020-08-25T08:23:34.317Z</time>
      </trkpt>
      <trkpt lat="43.96016" lon="2.21683">
        <ele>251</ele>
        <time>2020-08-25T08:23:35.317Z</time>
      </trkpt>
      <trkpt lat="43.96016" lon="2.21684">
        <ele>251</ele>
        <time>2020-08-25T08:23:36.317Z</time>
      </trkpt>
      <trkpt lat="43.96016" lon="2.21684">
        <ele>251</ele>
        <time>2020-08-25T08:23:37.317Z</time>
      </trkpt>
      <trkpt lat="43.96016" lon="2.21684">
        <ele>251</ele>
        <time>2020-08-25T08:23:38.317Z</time>
      </trkpt>
      <trkpt lat="43.96016" lon="2.21684">
        <ele>251</ele>
        <time>2020-08-25T08:23:39.317Z</time>
      </trkpt>
      <trkpt lat="43.96015" lon="2.21684">
        <ele>252</ele>
        <time>2020-08-25T08:23:40.317Z</time>
      </trkpt>
      <trkpt lat="43.96015" lon="2.21684">
        <ele>252</ele>
        <time>2020-08-25T08:23:41.317Z</time>
      </trkpt>
      <trkpt lat="43.96014" lon="2.21683">
        <ele>254</ele>
        <time>2020-08-25T08:25:17.322Z</time>
      </trkpt>
      <trkpt lat="43.96014" lon="2.21683">
        <ele>254</ele>
        <time>2020-08-25T08:25:18.322Z</time>
      </trkpt>
      <trkpt lat="43.96014" lon="2.21683">
        <ele>254</ele>
        <time>2020-08-25T08:25:19.322Z</time>
      </trkpt>
      <trkpt lat="43.96014" lon="2.21683">
        <ele>254</ele>
        <time>2020-08-25T08:25:20.322Z</time>
      </trkpt>
      <trkpt lat="43.96014" lon="2.21683">
        <ele>254</ele>
        <time>2020-08-25T08:25:21.322Z</time>
      </trkpt>
      <trkpt lat="43.96015" lon="2.21684">
        <ele>254</ele>
        <time>2020-08-25T08:25:45.333Z</time>
      </trkpt>
      <trkpt lat="43.96016" lon="2.21684">
        <ele>254</ele>
        <time>2020-08-25T08:25:46.333Z</time>
      </trkpt>
      <trkpt lat="43.96016" lon="2.21685">
        <ele>254</ele>
        <time>2020-08-25T08:25:47.333Z</time>
      </trkpt>
      <trkpt lat="43.96017" lon="2.21686">
        <ele>254</ele>
        <time>2020-08-25T08:25:48.333Z</time>
      </trkpt>
      <trkpt lat="43.96017" lon="2.21687">
        <ele>254</ele>
        <time>2020-08-25T08:25:49.333Z</time>
      </trkpt>
      <trkpt lat="43.96018" lon="2.21688">
        <ele>254</ele>
        <time>2020-08-25T08:25:50.333Z</time>
      </trkpt>
      <trkpt lat="43.96018" lon="2.21688">
        <ele>254</ele>
        <time>2020-08-25T08:25:51.333Z</time>
      </trkpt>
      <trkpt lat="43.96018" lon="2.21689">
        <ele>254</ele>
        <time>2020-08-25T08:25:52.333Z</time>
      </trkpt>
      <trkpt lat="43.96019" lon="2.21689">
        <ele>254</ele>
        <time>2020-08-25T08:25:53.333Z</time>
      </trkpt>
      <trkpt lat="43.9602" lon="2.21689">
        <ele>254</ele>
        <time>2020-08-25T08:25:54.333Z</time>
      </trkpt>
      <trkpt lat="43.96021" lon="2.2169">
        <ele>254</ele>
        <time>2020-08-25T08:25:55.333Z</time>
      </trkpt>
      <trkpt lat="43.96022" lon="2.21691">
        <ele>254</ele>
        <time>2020-08-25T08:25:56.333Z</time>
      </trkpt>
      <trkpt lat="43.96023" lon="2.21693">
        <ele>254</ele>
        <time>2020-08-25T08:25:57.333Z</time>
      </trkpt>
      <trkpt lat="43.96024" lon="2.21694">
        <ele>254</ele>
        <time>2020-08-25T08:25:58.333Z</time>
      </trkpt>
      <trkpt lat="43.96025" lon="2.21695">
        <ele>254</ele>
        <time>2020-08-25T08:25:59.333Z</time>
      </trkpt>
      <trkpt lat="43.96026" lon="2.21696">
        <ele>254</ele>
        <time>2020-08-25T08:26:00.333Z</time>
      </trkpt>
      <trkpt lat="43.96027" lon="2.21698">
        <ele>253</ele>
        <time>2020-08-25T08:26:01.333Z</time>
      </trkpt>
      <trkpt lat="43.96027" lon="2.21699">
        <ele>253</ele>
        <time>2020-08-25T08:26:02.333Z</time>
      </trkpt>
      <trkpt lat="43.96028" lon="2.217">
        <ele>253</ele>
        <time>2020-08-25T08:26:03.333Z</time>
      </trkpt>
      <trkpt lat="43.96028" lon="2.217">
        <ele>253</ele>
        <time>2020-08-25T08:26:04.333Z</time>
      </trkpt>
      <trkpt lat="43.96028" lon="2.217">
        <ele>253</ele>
        <time>2020-08-25T08:26:05.333Z</time>
      </trkpt>
      <trkpt lat="43.96028" lon="2.21701">
        <ele>253</ele>
        <time>2020-08-25T08:26:06.333Z</time>
      </trkpt>
      <trkpt lat="43.96028" lon="2.21703">
        <ele>253</ele>
        <time>2020-08-25T08:26:09.560Z</time>
      </trkpt>
      <trkpt lat="43.96029" lon="2.21704">
        <ele>253</ele>
        <time>2020-08-25T08:26:10.560Z</time>
      </trkpt>
      <trkpt lat="43.96029" lon="2.21706">
        <ele>253</ele>
        <time>2020-08-25T08:26:11.560Z</time>
      </trkpt>
      <trkpt lat="43.9603" lon="2.21708">
        <ele>252</ele>
        <time>2020-08-25T08:26:12.560Z</time>
      </trkpt>
      <trkpt lat="43.9603" lon="2.21709">
        <ele>252</ele>
        <time>2020-08-25T08:26:13.560Z</time>
      </trkpt>
      <trkpt lat="43.9603" lon="2.2171">
        <ele>252</ele>
        <time>2020-08-25T08:26:14.560Z</time>
      </trkpt>
      <trkpt lat="43.96031" lon="2.21711">
        <ele>252</ele>
        <time>2020-08-25T08:26:15.560Z</time>
      </trkpt>
      <trkpt lat="43.96031" lon="2.21712">
        <ele>252</ele>
        <time>2020-08-25T08:26:16.560Z</time>
      </trkpt>
      <trkpt lat="43.96032" lon="2.21713">
        <ele>252</ele>
        <time>2020-08-25T08:26:17.560Z</time>
      </trkpt>
      <trkpt lat="43.96033" lon="2.21714">
        <ele>252</ele>
        <time>2020-08-25T08:26:18.560Z</time>
      </trkpt>
      <trkpt lat="43.96034" lon="2.21715">
        <ele>252</ele>
        <time>2020-08-25T08:26:19.560Z</time>
      </trkpt>
      <trkpt lat="43.96035" lon="2.21716">
        <ele>252</ele>
        <time>2020-08-25T08:26:20.560Z</time>
      </trkpt>
      <trkpt lat="43.96035" lon="2.21717">
        <ele>252</ele>
        <time>2020-08-25T08:26:21.560Z</time>
      </trkpt>
      <trkpt lat="43.96036" lon="2.21718">
        <ele>252</ele>
        <time>2020-08-25T08:26:22.560Z</time>
      </trkpt>
      <trkpt lat="43.96037" lon="2.21718">
        <ele>252</ele>
        <time>2020-08-25T08:26:23.560Z</time>
      </trkpt>
      <trkpt lat="43.96037" lon="2.21718">
        <ele>252</ele>
        <time>2020-08-25T08:26:24.560Z</time>
      </trkpt>
      <trkpt lat="43.96037" lon="2.21719">
        <ele>252</ele>
        <time>2020-08-25T08:26:25.560Z</time>
      </trkpt>
      <trkpt lat="43.96037" lon="2.2172">
        <ele>252</ele>
        <time>2020-08-25T08:26:26.560Z</time>
      </trkpt>
      <trkpt lat="43.96037" lon="2.21721">
        <ele>252</ele>
        <time>2020-08-25T08:26:27.560Z</time>
      </trkpt>
      <trkpt lat="43.96037" lon="2.21721">
        <ele>252</ele>
        <time>2020-08-25T08:26:28.560Z</time>
      </trkpt>
      <trkpt lat="43.96038" lon="2.21722">
        <ele>252</ele>
        <time>2020-08-25T08:26:29.560Z</time>
      </trkpt>
      <trkpt lat="43.96038" lon="2.21723">
        <ele>252</ele>
        <time>2020-08-25T08:26:30.560Z</time>
      </trkpt>
      <trkpt lat="43.96039" lon="2.21723">
        <ele>253</ele>
        <time>2020-08-25T08:26:31.560Z</time>
      </trkpt>
      <trkpt lat="43.9604" lon="2.21723">
        <ele>253</ele>
        <time>2020-08-25T08:26:32.560Z</time>
      </trkpt>
      <trkpt lat="43.96041" lon="2.21723">
        <ele>253</ele>
        <time>2020-08-25T08:26:33.560Z</time>
      </trkpt>
      <trkpt lat="43.96042" lon="2.21724">
        <ele>253</ele>
        <time>2020-08-25T08:26:34.560Z</time>
      </trkpt>
      <trkpt lat="43.96043" lon="2.21724">
        <ele>253</ele>
        <time>2020-08-25T08:26:35.560Z</time>
      </trkpt>
      <trkpt lat="43.96044" lon="2.21725">
        <ele>253</ele>
        <time>2020-08-25T08:26:36.560Z</time>
      </trkpt>
      <trkpt lat="43.96045" lon="2.21726">
        <ele>253</ele>
        <time>2020-08-25T08:26:37.560Z</time>
      </trkpt>
      <trkpt lat="43.96046" lon="2.21727">
        <ele>253</ele>
        <time>2020-08-25T08:26:38.560Z</time>
      </trkpt>
      <trkpt lat="43.96047" lon="2.21728">
        <ele>253</ele>
        <time>2020-08-25T08:26:39.560Z</time>
      </trkpt>
      <trkpt lat="43.96048" lon="2.21729">
        <ele>253</ele>
        <time>2020-08-25T08:26:40.560Z</time>
      </trkpt>
      <trkpt lat="43.96048" lon="2.21729">
        <ele>253</ele>
        <time>2020-08-25T08:26:41.560Z</time>
      </trkpt>
      <trkpt lat="43.96049" lon="2.2173">
        <ele>253</ele>
        <time>2020-08-25T08:26:42.560Z</time>
      </trkpt>
      <trkpt lat="43.9605" lon="2.2173">
        <ele>253</ele>
        <time>2020-08-25T08:26:43.560Z</time>
      </trkpt>
      <trkpt lat="43.96051" lon="2.21731">
        <ele>253</ele>
        <time>2020-08-25T08:26:44.560Z</time>
      </trkpt>
      <trkpt lat="43.96052" lon="2.21731">
        <ele>253</ele>
        <time>2020-08-25T08:26:45.560Z</time>
      </trkpt>
      <trkpt lat="43.96052" lon="2.21732">
        <ele>253</ele>
        <time>2020-08-25T08:26:46.560Z</time>
      </trkpt>
      <trkpt lat="43.96053" lon="2.21733">
        <ele>253</ele>
        <time>2020-08-25T08:26:47.560Z</time>
      </trkpt>
      <trkpt lat="43.96054" lon="2.21734">
        <ele>253</ele>
        <time>2020-08-25T08:26:48.560Z</time>
      </trkpt>
      <trkpt lat="43.96054" lon="2.21734">
        <ele>253</ele>
        <time>2020-08-25T08:26:49.560Z</time>
      </trkpt>
      <trkpt lat="43.96055" lon="2.21734">
        <ele>253</ele>
        <time>2020-08-25T08:26:50.560Z</time>
      </trkpt>
      <trkpt lat="43.96056" lon="2.21735">
        <ele>253</ele>
        <time>2020-08-25T08:26:51.560Z</time>
      </trkpt>
      <trkpt lat="43.96057" lon="2.21734">
        <ele>253</ele>
        <time>2020-08-25T08:26:52.560Z</time>
      </trkpt>
      <trkpt lat="43.96058" lon="2.21734">
        <ele>253</ele>
        <time>2020-08-25T08:26:53.560Z</time>
      </trkpt>
      <trkpt lat="43.96059" lon="2.21735">
        <ele>253</ele>
        <time>2020-08-25T08:26:54.560Z</time>
      </trkpt>
      <trkpt lat="43.96061" lon="2.21735">
        <ele>253</ele>
        <time>2020-08-25T08:26:55.560Z</time>
      </trkpt>
      <trkpt lat="43.96062" lon="2.21736">
        <ele>253</ele>
        <time>2020-08-25T08:26:56.560Z</time>
      </trkpt>
      <trkpt lat="43.96063" lon="2.21736">
        <ele>254</ele>
        <time>2020-08-25T08:26:57.560Z</time>
      </trkpt>
      <trkpt lat="43.96064" lon="2.21737">
        <ele>254</ele>
        <time>2020-08-25T08:26:58.560Z</time>
      </trkpt>
      <trkpt lat="43.96066" lon="2.21737">
        <ele>254</ele>
        <time>2020-08-25T08:26:59.560Z</time>
      </trkpt>
      <trkpt lat="43.96067" lon="2.21737">
        <ele>254</ele>
        <time>2020-08-25T08:27:00.560Z</time>
      </trkpt>
      <trkpt lat="43.96068" lon="2.21738">
        <ele>254</ele>
        <time>2020-08-25T08:27:01.560Z</time>
      </trkpt>
      <trkpt lat="43.9607" lon="2.21738">
        <ele>254</ele>
        <time>2020-08-25T08:27:02.560Z</time>
      </trkpt>
      <trkpt lat="43.96071" lon="2.21738">
        <ele>254</ele>
        <time>2020-08-25T08:27:03.560Z</time>
      </trkpt>
      <trkpt lat="43.96072" lon="2.21738">
        <ele>254</ele>
        <time>2020-08-25T08:27:04.560Z</time>
      </trkpt>
      <trkpt lat="43.96073" lon="2.21738">
        <ele>254</ele>
        <time>2020-08-25T08:27:05.560Z</time>
      </trkpt>
      <trkpt lat="43.96074" lon="2.21738">
        <ele>254</ele>
        <time>2020-08-25T08:27:06.560Z</time>
      </trkpt>
      <trkpt lat="43.96076" lon="2.21738">
        <ele>254</ele>
        <time>2020-08-25T08:27:07.560Z</time>
      </trkpt>
      <trkpt lat="43.96077" lon="2.21738">
        <ele>254</ele>
        <time>2020-08-25T08:27:08.560Z</time>
      </trkpt>
      <trkpt lat="43.96078" lon="2.21739">
        <ele>254</ele>
        <time>2020-08-25T08:27:09.560Z</time>
      </trkpt>
      <trkpt lat="43.96078" lon="2.21739">
        <ele>254</ele>
        <time>2020-08-25T08:27:10.560Z</time>
      </trkpt>
      <trkpt lat="43.96079" lon="2.21739">
        <ele>254</ele>
        <time>2020-08-25T08:27:11.560Z</time>
      </trkpt>
      <trkpt lat="43.96079" lon="2.21739">
        <ele>254</ele>
        <time>2020-08-25T08:27:12.560Z</time>
      </trkpt>
      <trkpt lat="43.96081" lon="2.21739">
        <ele>254</ele>
        <time>2020-08-25T08:27:13.560Z</time>
      </trkpt>
      <trkpt lat="43.96082" lon="2.21739">
        <ele>254</ele>
        <time>2020-08-25T08:27:14.560Z</time>
      </trkpt>
      <trkpt lat="43.96083" lon="2.21739">
        <ele>254</ele>
        <time>2020-08-25T08:27:15.560Z</time>
      </trkpt>
      <trkpt lat="43.96085" lon="2.21739">
        <ele>254</ele>
        <time>2020-08-25T08:27:16.560Z</time>
      </trkpt>
      <trkpt lat="43.96086" lon="2.21739">
        <ele>254</ele>
        <time>2020-08-25T08:27:17.560Z</time>
      </trkpt>
      <trkpt lat="43.96088" lon="2.21739">
        <ele>254</ele>
        <time>2020-08-25T08:27:18.560Z</time>
      </trkpt>
      <trkpt lat="43.96088" lon="2.21739">
        <ele>254</ele>
        <time>2020-08-25T08:27:19.560Z</time>
      </trkpt>
      <trkpt lat="43.96088" lon="2.21739">
        <ele>254</ele>
        <time>2020-08-25T08:27:20.560Z</time>
      </trkpt>
      <trkpt lat="43.96089" lon="2.21739">
        <ele>254</ele>
        <time>2020-08-25T08:27:21.560Z</time>
      </trkpt>
      <trkpt lat="43.96089" lon="2.21738">
        <ele>254</ele>
        <time>2020-08-25T08:27:22.560Z</time>
      </trkpt>
      <trkpt lat="43.9609" lon="2.21738">
        <ele>254</ele>
        <time>2020-08-25T08:27:23.560Z</time>
      </trkpt>
      <trkpt lat="43.96091" lon="2.21738">
        <ele>254</ele>
        <time>2020-08-25T08:27:24.560Z</time>
      </trkpt>
      <trkpt lat="43.96092" lon="2.21738">
        <ele>254</ele>
        <time>2020-08-25T08:27:25.560Z</time>
      </trkpt>
      <trkpt lat="43.96093" lon="2.21738">
        <ele>254</ele>
        <time>2020-08-25T08:27:26.560Z</time>
      </trkpt>
      <trkpt lat="43.96094" lon="2.21737">
        <ele>254</ele>
        <time>2020-08-25T08:27:27.560Z</time>
      </trkpt>
      <trkpt lat="43.96095" lon="2.21737">
        <ele>254</ele>
        <time>2020-08-25T08:27:28.560Z</time>
      </trkpt>
      <trkpt lat="43.96097" lon="2.21737">
        <ele>254</ele>
        <time>2020-08-25T08:27:29.560Z</time>
      </trkpt>
      <trkpt lat="43.96098" lon="2.21736">
        <ele>254</ele>
        <time>2020-08-25T08:27:30.560Z</time>
      </trkpt>
      <trkpt lat="43.96099" lon="2.21736">
        <ele>254</ele>
        <time>2020-08-25T08:27:31.560Z</time>
      </trkpt>
      <trkpt lat="43.961" lon="2.21736">
        <ele>254</ele>
        <time>2020-08-25T08:27:32.560Z</time>
      </trkpt>
      <trkpt lat="43.96102" lon="2.21736">
        <ele>254</ele>
        <time>2020-08-25T08:27:33.560Z</time>
      </trkpt>
      <trkpt lat="43.96103" lon="2.21736">
        <ele>255</ele>
        <time>2020-08-25T08:27:34.560Z</time>
      </trkpt>
      <trkpt lat="43.96104" lon="2.21736">
        <ele>255</ele>
        <time>2020-08-25T08:27:35.560Z</time>
      </trkpt>
      <trkpt lat="43.96106" lon="2.21736">
        <ele>255</ele>
        <time>2020-08-25T08:27:36.560Z</time>
      </trkpt>
      <trkpt lat="43.96107" lon="2.21736">
        <ele>255</ele>
        <time>2020-08-25T08:27:37.560Z</time>
      </trkpt>
      <trkpt lat="43.96108" lon="2.21735">
        <ele>255</ele>
        <time>2020-08-25T08:27:38.560Z</time>
      </trkpt>
      <trkpt lat="43.9611" lon="2.21735">
        <ele>255</ele>
        <time>2020-08-25T08:27:39.560Z</time>
      </trkpt>
      <trkpt lat="43.96112" lon="2.21735">
        <ele>255</ele>
        <time>2020-08-25T08:27:40.560Z</time>
      </trkpt>
      <trkpt lat="43.96113" lon="2.21735">
        <ele>255</ele>
        <time>2020-08-25T08:27:41.560Z</time>
      </trkpt>
      <trkpt lat="43.96115" lon="2.21735">
        <ele>255</ele>
        <time>2020-08-25T08:27:42.560Z</time>
      </trkpt>
      <trkpt lat="43.96116" lon="2.21734">
        <ele>255</ele>
        <time>2020-08-25T08:27:43.560Z</time>
      </trkpt>
      <trkpt lat="43.96118" lon="2.21734">
        <ele>255</ele>
        <time>2020-08-25T08:27:44.560Z</time>
      </trkpt>
      <trkpt lat="43.96119" lon="2.21734">
        <ele>255</ele>
        <time>2020-08-25T08:27:45.560Z</time>
      </trkpt>
      <trkpt lat="43.96121" lon="2.21734">
        <ele>255</ele>
        <time>2020-08-25T08:27:46.560Z</time>
      </trkpt>
      <trkpt lat="43.96122" lon="2.21734">
        <ele>255</ele>
        <time>2020-08-25T08:27:47.560Z</time>
      </trkpt>
      <trkpt lat="43.96124" lon="2.21734">
        <ele>255</ele>
        <time>2020-08-25T08:27:48.560Z</time>
      </trkpt>
      <trkpt lat="43.96126" lon="2.21734">
        <ele>255</ele>
        <time>2020-08-25T08:27:49.560Z</time>
      </trkpt>
      <trkpt lat="43.96127" lon="2.21734">
        <ele>255</ele>
        <time>2020-08-25T08:27:50.560Z</time>
      </trkpt>
      <trkpt lat="43.96128" lon="2.21734">
        <ele>255</ele>
        <time>2020-08-25T08:27:51.560Z</time>
      </trkpt>
      <trkpt lat="43.9613" lon="2.21734">
        <ele>255</ele>
        <time>2020-08-25T08:27:52.560Z</time>
      </trkpt>
      <trkpt lat="43.96131" lon="2.21733">
        <ele>256</ele>
        <time>2020-08-25T08:27:53.560Z</time>
      </trkpt>
      <trkpt lat="43.96133" lon="2.21733">
        <ele>256</ele>
        <time>2020-08-25T08:27:54.560Z</time>
      </trkpt>
      <trkpt lat="43.96134" lon="2.21732">
        <ele>256</ele>
        <time>2020-08-25T08:27:55.560Z</time>
      </trkpt>
      <trkpt lat="43.96135" lon="2.21732">
        <ele>256</ele>
        <time>2020-08-25T08:27:56.560Z</time>
      </trkpt>
      <trkpt lat="43.96136" lon="2.21732">
        <ele>256</ele>
        <time>2020-08-25T08:27:57.560Z</time>
      </trkpt>
      <trkpt lat="43.96137" lon="2.21732">
        <ele>256</ele>
        <time>2020-08-25T08:27:58.560Z</time>
      </trkpt>
      <trkpt lat="43.96139" lon="2.21732">
        <ele>256</ele>
        <time>2020-08-25T08:27:59.560Z</time>
      </trkpt>
      <trkpt lat="43.9614" lon="2.21731">
        <ele>256</ele>
        <time>2020-08-25T08:28:00.560Z</time>
      </trkpt>
      <trkpt lat="43.96142" lon="2.21731">
        <ele>256</ele>
        <time>2020-08-25T08:28:01.560Z</time>
      </trkpt>
      <trkpt lat="43.96143" lon="2.21731">
        <ele>256</ele>
        <time>2020-08-25T08:28:02.560Z</time>
      </trkpt>
      <trkpt lat="43.96145" lon="2.21731">
        <ele>256</ele>
        <time>2020-08-25T08:28:03.560Z</time>
      </trkpt>
      <trkpt lat="43.96146" lon="2.21731">
        <ele>256</ele>
        <time>2020-08-25T08:28:04.560Z</time>
      </trkpt>
      <trkpt lat="43.96147" lon="2.21731">
        <ele>256</ele>
        <time>2020-08-25T08:28:05.560Z</time>
      </trkpt>
      <trkpt lat="43.96149" lon="2.21731">
        <ele>256</ele>
        <time>2020-08-25T08:28:06.560Z</time>
      </trkpt>
      <trkpt lat="43.9615" lon="2.21731">
        <ele>256</ele>
        <time>2020-08-25T08:28:07.560Z</time>
      </trkpt>
      <trkpt lat="43.9615" lon="2.21731">
        <ele>256</ele>
        <time>2020-08-25T08:28:08.560Z</time>
      </trkpt>
      <trkpt lat="43.96151" lon="2.21732">
        <ele>256</ele>
        <time>2020-08-25T08:28:09.560Z</time>
      </trkpt>
      <trkpt lat="43.96151" lon="2.21732">
        <ele>256</ele>
        <time>2020-08-25T08:28:10.560Z</time>
      </trkpt>
      <trkpt lat="43.96151" lon="2.21732">
        <ele>256</ele>
        <time>2020-08-25T08:28:11.560Z</time>
      </trkpt>
      <trkpt lat="43.96154" lon="2.21732">
        <ele>255</ele>
        <time>2020-08-25T08:28:32.567Z</time>
      </trkpt>
      <trkpt lat="43.96154" lon="2.21731">
        <ele>255</ele>
        <time>2020-08-25T08:28:33.567Z</time>
      </trkpt>
      <trkpt lat="43.96155" lon="2.21731">
        <ele>255</ele>
        <time>2020-08-25T08:28:34.567Z</time>
      </trkpt>
      <trkpt lat="43.96156" lon="2.21731">
        <ele>255</ele>
        <time>2020-08-25T08:28:35.567Z</time>
      </trkpt>
      <trkpt lat="43.96158" lon="2.2173">
        <ele>255</ele>
        <time>2020-08-25T08:28:36.567Z</time>
      </trkpt>
      <trkpt lat="43.96159" lon="2.2173">
        <ele>255</ele>
        <time>2020-08-25T08:28:37.567Z</time>
      </trkpt>
      <trkpt lat="43.9616" lon="2.2173">
        <ele>255</ele>
        <time>2020-08-25T08:28:38.567Z</time>
      </trkpt>
      <trkpt lat="43.96161" lon="2.2173">
        <ele>255</ele>
        <time>2020-08-25T08:28:39.567Z</time>
      </trkpt>
      <trkpt lat="43.96163" lon="2.2173">
        <ele>255</ele>
        <time>2020-08-25T08:28:40.567Z</time>
      </trkpt>
      <trkpt lat="43.96164" lon="2.2173">
        <ele>255</ele>
        <time>2020-08-25T08:28:41.567Z</time>
      </trkpt>
      <trkpt lat="43.96165" lon="2.2173">
        <ele>255</ele>
        <time>2020-08-25T08:28:42.567Z</time>
      </trkpt>
      <trkpt lat="43.96166" lon="2.2173">
        <ele>255</ele>
        <time>2020-08-25T08:28:43.567Z</time>
      </trkpt>
      <trkpt lat="43.96168" lon="2.2173">
        <ele>255</ele>
        <time>2020-08-25T08:28:44.567Z</time>
      </trkpt>
      <trkpt lat="43.96169" lon="2.21729">
        <ele>255</ele>
        <time>2020-08-25T08:28:45.567Z</time>
      </trkpt>
      <trkpt lat="43.9617" lon="2.21729">
        <ele>255</ele>
        <time>2020-08-25T08:28:46.567Z</time>
      </trkpt>
      <trkpt lat="43.96171" lon="2.21729">
        <ele>255</ele>
        <time>2020-08-25T08:28:47.567Z</time>
      </trkpt>
      <trkpt lat="43.96173" lon="2.21729">
        <ele>255</ele>
        <time>2020-08-25T08:28:48.567Z</time>
      </trkpt>
      <trkpt lat="43.96174" lon="2.21729">
        <ele>255</ele>
        <time>2020-08-25T08:28:49.567Z</time>
      </trkpt>
      <trkpt lat="43.96175" lon="2.21729">
        <ele>255</ele>
        <time>2020-08-25T08:28:50.567Z</time>
      </trkpt>
      <trkpt lat="43.96177" lon="2.21729">
        <ele>255</ele>
        <time>2020-08-25T08:28:51.567Z</time>
      </trkpt>
      <trkpt lat="43.96178" lon="2.21729">
        <ele>255</ele>
        <time>2020-08-25T08:28:52.567Z</time>
      </trkpt>
      <trkpt lat="43.96179" lon="2.21729">
        <ele>255</ele>
        <time>2020-08-25T08:28:53.567Z</time>
      </trkpt>
      <trkpt lat="43.96181" lon="2.21729">
        <ele>255</ele>
        <time>2020-08-25T08:28:54.567Z</time>
      </trkpt>
      <trkpt lat="43.96182" lon="2.21729">
        <ele>255</ele>
        <time>2020-08-25T08:28:55.567Z</time>
      </trkpt>
      <trkpt lat="43.96183" lon="2.21729">
        <ele>255</ele>
        <time>2020-08-25T08:28:56.567Z</time>
      </trkpt>
      <trkpt lat="43.96184" lon="2.21729">
        <ele>255</ele>
        <time>2020-08-25T08:28:57.567Z</time>
      </trkpt>
      <trkpt lat="43.96185" lon="2.21729">
        <ele>255</ele>
        <time>2020-08-25T08:28:58.567Z</time>
      </trkpt>
      <trkpt lat="43.96186" lon="2.21728">
        <ele>255</ele>
        <time>2020-08-25T08:28:59.567Z</time>
      </trkpt>
      <trkpt lat="43.96188" lon="2.21728">
        <ele>256</ele>
        <time>2020-08-25T08:29:00.567Z</time>
      </trkpt>
      <trkpt lat="43.96189" lon="2.21728">
        <ele>256</ele>
        <time>2020-08-25T08:29:01.567Z</time>
      </trkpt>
      <trkpt lat="43.9619" lon="2.21728">
        <ele>256</ele>
        <time>2020-08-25T08:29:02.567Z</time>
      </trkpt>
      <trkpt lat="43.96192" lon="2.21728">
        <ele>256</ele>
        <time>2020-08-25T08:29:03.567Z</time>
      </trkpt>
      <trkpt lat="43.96193" lon="2.21727">
        <ele>256</ele>
        <time>2020-08-25T08:29:04.567Z</time>
      </trkpt>
      <trkpt lat="43.96194" lon="2.21727">
        <ele>256</ele>
        <time>2020-08-25T08:29:05.567Z</time>
      </trkpt>
      <trkpt lat="43.96195" lon="2.21727">
        <ele>256</ele>
        <time>2020-08-25T08:29:06.567Z</time>
      </trkpt>
      <trkpt lat="43.96196" lon="2.21727">
        <ele>256</ele>
        <time>2020-08-25T08:29:07.567Z</time>
      </trkpt>
      <trkpt lat="43.96197" lon="2.21727">
        <ele>256</ele>
        <time>2020-08-25T08:29:08.567Z</time>
      </trkpt>
      <trkpt lat="43.96198" lon="2.21727">
        <ele>256</ele>
        <time>2020-08-25T08:29:09.567Z</time>
      </trkpt>
      <trkpt lat="43.96199" lon="2.21727">
        <ele>256</ele>
        <time>2020-08-25T08:29:10.567Z</time>
      </trkpt>
      <trkpt lat="43.96201" lon="2.21727">
        <ele>256</ele>
        <time>2020-08-25T08:29:11.567Z</time>
      </trkpt>
      <trkpt lat="43.96202" lon="2.21726">
        <ele>256</ele>
        <time>2020-08-25T08:29:12.567Z</time>
      </trkpt>
      <trkpt lat="43.96203" lon="2.21726">
        <ele>256</ele>
        <time>2020-08-25T08:29:13.567Z</time>
      </trkpt>
      <trkpt lat="43.96204" lon="2.21726">
        <ele>256</ele>
        <time>2020-08-25T08:29:14.567Z</time>
      </trkpt>
      <trkpt lat="43.96205" lon="2.21726">
        <ele>256</ele>
        <time>2020-08-25T08:29:15.567Z</time>
      </trkpt>
      <trkpt lat="43.96207" lon="2.21725">
        <ele>256</ele>
        <time>2020-08-25T08:29:16.567Z</time>
      </trkpt>
      <trkpt lat="43.96208" lon="2.21725">
        <ele>256</ele>
        <time>2020-08-25T08:29:17.567Z</time>
      </trkpt>
      <trkpt lat="43.96209" lon="2.21725">
        <ele>256</ele>
        <time>2020-08-25T08:29:18.567Z</time>
      </trkpt>
      <trkpt lat="43.9621" lon="2.21725">
        <ele>256</ele>
        <time>2020-08-25T08:29:19.567Z</time>
      </trkpt>
      <trkpt lat="43.96212" lon="2.21725">
        <ele>256</ele>
        <time>2020-08-25T08:29:20.567Z</time>
      </trkpt>
      <trkpt lat="43.96213" lon="2.21725">
        <ele>256</ele>
        <time>2020-08-25T08:29:21.567Z</time>
      </trkpt>
      <trkpt lat="43.96214" lon="2.21725">
        <ele>256</ele>
        <time>2020-08-25T08:29:22.567Z</time>
      </trkpt>
      <trkpt lat="43.96215" lon="2.21725">
        <ele>256</ele>
        <time>2020-08-25T08:29:23.567Z</time>
      </trkpt>
      <trkpt lat="43.96217" lon="2.21725">
        <ele>256</ele>
        <time>2020-08-25T08:29:24.567Z</time>
      </trkpt>
      <trkpt lat="43.96218" lon="2.21725">
        <ele>256</ele>
        <time>2020-08-25T08:29:25.567Z</time>
      </trkpt>
      <trkpt lat="43.96219" lon="2.21725">
        <ele>256</ele>
        <time>2020-08-25T08:29:26.567Z</time>
      </trkpt>
      <trkpt lat="43.9622" lon="2.21725">
        <ele>256</ele>
        <time>2020-08-25T08:29:27.567Z</time>
      </trkpt>
      <trkpt lat="43.96221" lon="2.21725">
        <ele>256</ele>
        <time>2020-08-25T08:29:28.567Z</time>
      </trkpt>
      <trkpt lat="43.96223" lon="2.21725">
        <ele>256</ele>
        <time>2020-08-25T08:29:29.567Z</time>
      </trkpt>
      <trkpt lat="43.96224" lon="2.21724">
        <ele>256</ele>
        <time>2020-08-25T08:29:30.567Z</time>
      </trkpt>
      <trkpt lat="43.96225" lon="2.21724">
        <ele>256</ele>
        <time>2020-08-25T08:29:31.567Z</time>
      </trkpt>
      <trkpt lat="43.96227" lon="2.21724">
        <ele>256</ele>
        <time>2020-08-25T08:29:32.567Z</time>
      </trkpt>
      <trkpt lat="43.96228" lon="2.21724">
        <ele>256</ele>
        <time>2020-08-25T08:29:33.567Z</time>
      </trkpt>
      <trkpt lat="43.96229" lon="2.21724">
        <ele>256</ele>
        <time>2020-08-25T08:29:34.567Z</time>
      </trkpt>
      <trkpt lat="43.9623" lon="2.21724">
        <ele>256</ele>
        <time>2020-08-25T08:29:35.567Z</time>
      </trkpt>
      <trkpt lat="43.96232" lon="2.21725">
        <ele>256</ele>
        <time>2020-08-25T08:29:36.567Z</time>
      </trkpt>
      <trkpt lat="43.96233" lon="2.21725">
        <ele>256</ele>
        <time>2020-08-25T08:29:37.567Z</time>
      </trkpt>
      <trkpt lat="43.96234" lon="2.21725">
        <ele>256</ele>
        <time>2020-08-25T08:29:38.567Z</time>
      </trkpt>
      <trkpt lat="43.96235" lon="2.21725">
        <ele>256</ele>
        <time>2020-08-25T08:29:39.567Z</time>
      </trkpt>
      <trkpt lat="43.96236" lon="2.21725">
        <ele>256</ele>
        <time>2020-08-25T08:29:40.567Z</time>
      </trkpt>
      <trkpt lat="43.96238" lon="2.21725">
        <ele>256</ele>
        <time>2020-08-25T08:29:41.567Z</time>
      </trkpt>
      <trkpt lat="43.96239" lon="2.21725">
        <ele>257</ele>
        <time>2020-08-25T08:29:42.567Z</time>
      </trkpt>
      <trkpt lat="43.9624" lon="2.21726">
        <ele>257</ele>
        <time>2020-08-25T08:29:43.567Z</time>
      </trkpt>
      <trkpt lat="43.96242" lon="2.21726">
        <ele>256</ele>
        <time>2020-08-25T08:29:44.567Z</time>
      </trkpt>
      <trkpt lat="43.96243" lon="2.21726">
        <ele>257</ele>
        <time>2020-08-25T08:29:45.567Z</time>
      </trkpt>
      <trkpt lat="43.96244" lon="2.21727">
        <ele>257</ele>
        <time>2020-08-25T08:29:46.567Z</time>
      </trkpt>
      <trkpt lat="43.96245" lon="2.21727">
        <ele>257</ele>
        <time>2020-08-25T08:29:47.567Z</time>
      </trkpt>
      <trkpt lat="43.96246" lon="2.21727">
        <ele>257</ele>
        <time>2020-08-25T08:29:48.567Z</time>
      </trkpt>
      <trkpt lat="43.96248" lon="2.21727">
        <ele>257</ele>
        <time>2020-08-25T08:29:49.567Z</time>
      </trkpt>
      <trkpt lat="43.96249" lon="2.21728">
        <ele>257</ele>
        <time>2020-08-25T08:29:50.567Z</time>
      </trkpt>
      <trkpt lat="43.9625" lon="2.21728">
        <ele>257</ele>
        <time>2020-08-25T08:29:51.567Z</time>
      </trkpt>
      <trkpt lat="43.96251" lon="2.21729">
        <ele>257</ele>
        <time>2020-08-25T08:29:52.567Z</time>
      </trkpt>
      <trkpt lat="43.96253" lon="2.21729">
        <ele>257</ele>
        <time>2020-08-25T08:29:53.567Z</time>
      </trkpt>
      <trkpt lat="43.96254" lon="2.2173">
        <ele>257</ele>
        <time>2020-08-25T08:29:54.567Z</time>
      </trkpt>
      <trkpt lat="43.96255" lon="2.21731">
        <ele>257</ele>
        <time>2020-08-25T08:29:55.567Z</time>
      </trkpt>
      <trkpt lat="43.96256" lon="2.21731">
        <ele>257</ele>
        <time>2020-08-25T08:29:56.567Z</time>
      </trkpt>
      <trkpt lat="43.96257" lon="2.21732">
        <ele>257</ele>
        <time>2020-08-25T08:29:57.567Z</time>
      </trkpt>
      <trkpt lat="43.96259" lon="2.21733">
        <ele>257</ele>
        <time>2020-08-25T08:29:58.567Z</time>
      </trkpt>
      <trkpt lat="43.9626" lon="2.21733">
        <ele>257</ele>
        <time>2020-08-25T08:29:59.567Z</time>
      </trkpt>
      <trkpt lat="43.96261" lon="2.21734">
        <ele>257</ele>
        <time>2020-08-25T08:30:00.567Z</time>
      </trkpt>
      <trkpt lat="43.96262" lon="2.21735">
        <ele>257</ele>
        <time>2020-08-25T08:30:01.567Z</time>
      </trkpt>
      <trkpt lat="43.96263" lon="2.21736">
        <ele>257</ele>
        <time>2020-08-25T08:30:02.567Z</time>
      </trkpt>
      <trkpt lat="43.96264" lon="2.21736">
        <ele>257</ele>
        <time>2020-08-25T08:30:03.567Z</time>
      </trkpt>
      <trkpt lat="43.96266" lon="2.21737">
        <ele>257</ele>
        <time>2020-08-25T08:30:04.567Z</time>
      </trkpt>
      <trkpt lat="43.96267" lon="2.21738">
        <ele>257</ele>
        <time>2020-08-25T08:30:05.567Z</time>
      </trkpt>
      <trkpt lat="43.96268" lon="2.21739">
        <ele>258</ele>
        <time>2020-08-25T08:30:06.567Z</time>
      </trkpt>
      <trkpt lat="43.96269" lon="2.2174">
        <ele>258</ele>
        <time>2020-08-25T08:30:07.567Z</time>
      </trkpt>
      <trkpt lat="43.9627" lon="2.21741">
        <ele>258</ele>
        <time>2020-08-25T08:30:08.567Z</time>
      </trkpt>
      <trkpt lat="43.96271" lon="2.21742">
        <ele>258</ele>
        <time>2020-08-25T08:30:09.567Z</time>
      </trkpt>
      <trkpt lat="43.96272" lon="2.21743">
        <ele>258</ele>
        <time>2020-08-25T08:30:10.567Z</time>
      </trkpt>
      <trkpt lat="43.96273" lon="2.21743">
        <ele>258</ele>
        <time>2020-08-25T08:30:11.567Z</time>
      </trkpt>
      <trkpt lat="43.96274" lon="2.21744">
        <ele>258</ele>
        <time>2020-08-25T08:30:12.567Z</time>
      </trkpt>
      <trkpt lat="43.96275" lon="2.21745">
        <ele>258</ele>
        <time>2020-08-25T08:30:13.567Z</time>
      </trkpt>
      <trkpt lat="43.96277" lon="2.21746">
        <ele>258</ele>
        <time>2020-08-25T08:30:14.567Z</time>
      </trkpt>
      <trkpt lat="43.96278" lon="2.21748">
        <ele>258</ele>
        <time>2020-08-25T08:30:15.567Z</time>
      </trkpt>
      <trkpt lat="43.96279" lon="2.21749">
        <ele>258</ele>
        <time>2020-08-25T08:30:16.567Z</time>
      </trkpt>
      <trkpt lat="43.9628" lon="2.2175">
        <ele>258</ele>
        <time>2020-08-25T08:30:17.567Z</time>
      </trkpt>
      <trkpt lat="43.96281" lon="2.21751">
        <ele>258</ele>
        <time>2020-08-25T08:30:18.567Z</time>
      </trkpt>
      <trkpt lat="43.96281" lon="2.21752">
        <ele>258</ele>
        <time>2020-08-25T08:30:19.567Z</time>
      </trkpt>
      <trkpt lat="43.96282" lon="2.21753">
        <ele>258</ele>
        <time>2020-08-25T08:30:20.567Z</time>
      </trkpt>
      <trkpt lat="43.96283" lon="2.21754">
        <ele>258</ele>
        <time>2020-08-25T08:30:21.567Z</time>
      </trkpt>
      <trkpt lat="43.96284" lon="2.21756">
        <ele>258</ele>
        <time>2020-08-25T08:30:22.567Z</time>
      </trkpt>
      <trkpt lat="43.96285" lon="2.21757">
        <ele>258</ele>
        <time>2020-08-25T08:30:23.567Z</time>
      </trkpt>
      <trkpt lat="43.96286" lon="2.21758">
        <ele>258</ele>
        <time>2020-08-25T08:30:24.567Z</time>
      </trkpt>
      <trkpt lat="43.96287" lon="2.21759">
        <ele>258</ele>
        <time>2020-08-25T08:30:25.567Z</time>
      </trkpt>
      <trkpt lat="43.96288" lon="2.2176">
        <ele>258</ele>
        <time>2020-08-25T08:30:26.567Z</time>
      </trkpt>
      <trkpt lat="43.96289" lon="2.21762">
        <ele>258</ele>
        <time>2020-08-25T08:30:27.567Z</time>
      </trkpt>
      <trkpt lat="43.9629" lon="2.21763">
        <ele>259</ele>
        <time>2020-08-25T08:30:28.567Z</time>
      </trkpt>
      <trkpt lat="43.96291" lon="2.21764">
        <ele>259</ele>
        <time>2020-08-25T08:30:29.567Z</time>
      </trkpt>
      <trkpt lat="43.96291" lon="2.21765">
        <ele>259</ele>
        <time>2020-08-25T08:30:30.567Z</time>
      </trkpt>
      <trkpt lat="43.96292" lon="2.21766">
        <ele>259</ele>
        <time>2020-08-25T08:30:31.567Z</time>
      </trkpt>
      <trkpt lat="43.96293" lon="2.21768">
        <ele>259</ele>
        <time>2020-08-25T08:30:32.567Z</time>
      </trkpt>
      <trkpt lat="43.96294" lon="2.21769">
        <ele>259</ele>
        <time>2020-08-25T08:30:33.567Z</time>
      </trkpt>
      <trkpt lat="43.96295" lon="2.2177">
        <ele>259</ele>
        <time>2020-08-25T08:30:34.567Z</time>
      </trkpt>
      <trkpt lat="43.96296" lon="2.21772">
        <ele>259</ele>
        <time>2020-08-25T08:30:35.567Z</time>
      </trkpt>
      <trkpt lat="43.96297" lon="2.21773">
        <ele>259</ele>
        <time>2020-08-25T08:30:36.567Z</time>
      </trkpt>
      <trkpt lat="43.96298" lon="2.21774">
        <ele>259</ele>
        <time>2020-08-25T08:30:37.567Z</time>
      </trkpt>
      <trkpt lat="43.96299" lon="2.21775">
        <ele>259</ele>
        <time>2020-08-25T08:30:38.567Z</time>
      </trkpt>
      <trkpt lat="43.963" lon="2.21776">
        <ele>259</ele>
        <time>2020-08-25T08:30:39.567Z</time>
      </trkpt>
      <trkpt lat="43.96301" lon="2.21777">
        <ele>259</ele>
        <time>2020-08-25T08:30:40.567Z</time>
      </trkpt>
      <trkpt lat="43.96302" lon="2.21778">
        <ele>259</ele>
        <time>2020-08-25T08:30:41.567Z</time>
      </trkpt>
      <trkpt lat="43.96303" lon="2.2178">
        <ele>259</ele>
        <time>2020-08-25T08:30:42.567Z</time>
      </trkpt>
      <trkpt lat="43.96304" lon="2.21781">
        <ele>259</ele>
        <time>2020-08-25T08:30:43.567Z</time>
      </trkpt>
      <trkpt lat="43.96305" lon="2.21782">
        <ele>259</ele>
        <time>2020-08-25T08:30:44.567Z</time>
      </trkpt>
      <trkpt lat="43.96306" lon="2.21783">
        <ele>259</ele>
        <time>2020-08-25T08:30:45.567Z</time>
      </trkpt>
      <trkpt lat="43.96306" lon="2.21784">
        <ele>259</ele>
        <time>2020-08-25T08:30:46.567Z</time>
      </trkpt>
      <trkpt lat="43.96307" lon="2.21785">
        <ele>259</ele>
        <time>2020-08-25T08:30:47.567Z</time>
      </trkpt>
      <trkpt lat="43.96308" lon="2.21787">
        <ele>259</ele>
        <time>2020-08-25T08:30:48.567Z</time>
      </trkpt>
      <trkpt lat="43.96309" lon="2.21787">
        <ele>259</ele>
        <time>2020-08-25T08:30:49.567Z</time>
      </trkpt>
      <trkpt lat="43.9631" lon="2.21789">
        <ele>259</ele>
        <time>2020-08-25T08:30:50.567Z</time>
      </trkpt>
      <trkpt lat="43.96311" lon="2.2179">
        <ele>259</ele>
        <time>2020-08-25T08:30:51.567Z</time>
      </trkpt>
      <trkpt lat="43.96312" lon="2.2179">
        <ele>259</ele>
        <time>2020-08-25T08:30:52.567Z</time>
      </trkpt>
      <trkpt lat="43.96313" lon="2.21791">
        <ele>259</ele>
        <time>2020-08-25T08:30:53.567Z</time>
      </trkpt>
      <trkpt lat="43.96314" lon="2.21792">
        <ele>259</ele>
        <time>2020-08-25T08:30:54.567Z</time>
      </trkpt>
      <trkpt lat="43.96316" lon="2.21793">
        <ele>259</ele>
        <time>2020-08-25T08:30:55.567Z</time>
      </trkpt>
      <trkpt lat="43.96317" lon="2.21794">
        <ele>259</ele>
        <time>2020-08-25T08:30:56.567Z</time>
      </trkpt>
      <trkpt lat="43.96318" lon="2.21795">
        <ele>259</ele>
        <time>2020-08-25T08:30:57.567Z</time>
      </trkpt>
      <trkpt lat="43.96319" lon="2.21796">
        <ele>259</ele>
        <time>2020-08-25T08:30:58.567Z</time>
      </trkpt>
      <trkpt lat="43.96319" lon="2.21796">
        <ele>259</ele>
        <time>2020-08-25T08:30:59.567Z</time>
      </trkpt>
      <trkpt lat="43.9632" lon="2.21796">
        <ele>259</ele>
        <time>2020-08-25T08:31:00.567Z</time>
      </trkpt>
      <trkpt lat="43.9632" lon="2.21796">
        <ele>259</ele>
        <time>2020-08-25T08:31:01.567Z</time>
      </trkpt>
      <trkpt lat="43.9632" lon="2.21796">
        <ele>259</ele>
        <time>2020-08-25T08:31:02.567Z</time>
      </trkpt>
      <trkpt lat="43.96321" lon="2.21798">
        <ele>259</ele>
        <time>2020-08-25T08:31:09.574Z</time>
      </trkpt>
      <trkpt lat="43.96321" lon="2.21799">
        <ele>259</ele>
        <time>2020-08-25T08:31:10.574Z</time>
      </trkpt>
      <trkpt lat="43.96321" lon="2.21801">
        <ele>259</ele>
        <time>2020-08-25T08:31:11.574Z</time>
      </trkpt>
      <trkpt lat="43.96321" lon="2.21803">
        <ele>259</ele>
        <time>2020-08-25T08:31:12.574Z</time>
      </trkpt>
      <trkpt lat="43.96321" lon="2.21804">
        <ele>259</ele>
        <time>2020-08-25T08:31:13.574Z</time>
      </trkpt>
      <trkpt lat="43.96321" lon="2.21806">
        <ele>259</ele>
        <time>2020-08-25T08:31:14.574Z</time>
      </trkpt>
      <trkpt lat="43.96322" lon="2.21808">
        <ele>259</ele>
        <time>2020-08-25T08:31:15.574Z</time>
      </trkpt>
      <trkpt lat="43.96322" lon="2.21809">
        <ele>259</ele>
        <time>2020-08-25T08:31:16.574Z</time>
      </trkpt>
      <trkpt lat="43.96322" lon="2.21811">
        <ele>259</ele>
        <time>2020-08-25T08:31:17.574Z</time>
      </trkpt>
      <trkpt lat="43.96322" lon="2.21812">
        <ele>259</ele>
        <time>2020-08-25T08:31:18.574Z</time>
      </trkpt>
      <trkpt lat="43.96322" lon="2.21813">
        <ele>259</ele>
        <time>2020-08-25T08:31:19.574Z</time>
      </trkpt>
      <trkpt lat="43.96323" lon="2.21815">
        <ele>259</ele>
        <time>2020-08-25T08:31:20.574Z</time>
      </trkpt>
      <trkpt lat="43.96323" lon="2.21817">
        <ele>259</ele>
        <time>2020-08-25T08:31:21.574Z</time>
      </trkpt>
      <trkpt lat="43.96323" lon="2.21818">
        <ele>259</ele>
        <time>2020-08-25T08:31:22.574Z</time>
      </trkpt>
      <trkpt lat="43.96323" lon="2.2182">
        <ele>259</ele>
        <time>2020-08-25T08:31:23.574Z</time>
      </trkpt>
      <trkpt lat="43.96323" lon="2.21822">
        <ele>259</ele>
        <time>2020-08-25T08:31:24.574Z</time>
      </trkpt>
      <trkpt lat="43.96323" lon="2.21824">
        <ele>259</ele>
        <time>2020-08-25T08:31:25.574Z</time>
      </trkpt>
      <trkpt lat="43.96323" lon="2.21826">
        <ele>260</ele>
        <time>2020-08-25T08:31:26.574Z</time>
      </trkpt>
      <trkpt lat="43.96323" lon="2.21828">
        <ele>260</ele>
        <time>2020-08-25T08:31:27.574Z</time>
      </trkpt>
      <trkpt lat="43.96322" lon="2.21829">
        <ele>260</ele>
        <time>2020-08-25T08:31:28.574Z</time>
      </trkpt>
      <trkpt lat="43.96322" lon="2.21831">
        <ele>260</ele>
        <time>2020-08-25T08:31:29.574Z</time>
      </trkpt>
      <trkpt lat="43.96322" lon="2.21832">
        <ele>260</ele>
        <time>2020-08-25T08:31:30.574Z</time>
      </trkpt>
      <trkpt lat="43.96322" lon="2.21834">
        <ele>260</ele>
        <time>2020-08-25T08:31:31.574Z</time>
      </trkpt>
      <trkpt lat="43.96321" lon="2.21835">
        <ele>260</ele>
        <time>2020-08-25T08:31:32.574Z</time>
      </trkpt>
      <trkpt lat="43.96321" lon="2.21837">
        <ele>260</ele>
        <time>2020-08-25T08:31:33.574Z</time>
      </trkpt>
      <trkpt lat="43.96321" lon="2.21838">
        <ele>260</ele>
        <time>2020-08-25T08:31:34.574Z</time>
      </trkpt>
      <trkpt lat="43.9632" lon="2.2184">
        <ele>260</ele>
        <time>2020-08-25T08:31:35.574Z</time>
      </trkpt>
      <trkpt lat="43.9632" lon="2.21841">
        <ele>260</ele>
        <time>2020-08-25T08:31:36.574Z</time>
      </trkpt>
      <trkpt lat="43.96319" lon="2.21843">
        <ele>261</ele>
        <time>2020-08-25T08:31:37.574Z</time>
      </trkpt>
      <trkpt lat="43.96319" lon="2.21845">
        <ele>261</ele>
        <time>2020-08-25T08:31:38.574Z</time>
      </trkpt>
      <trkpt lat="43.96318" lon="2.21846">
        <ele>261</ele>
        <time>2020-08-25T08:31:39.574Z</time>
      </trkpt>
      <trkpt lat="43.96318" lon="2.21848">
        <ele>261</ele>
        <time>2020-08-25T08:31:40.574Z</time>
      </trkpt>
      <trkpt lat="43.96317" lon="2.21849">
        <ele>261</ele>
        <time>2020-08-25T08:31:41.574Z</time>
      </trkpt>
      <trkpt lat="43.96317" lon="2.2185">
        <ele>261</ele>
        <time>2020-08-25T08:31:42.574Z</time>
      </trkpt>
      <trkpt lat="43.96317" lon="2.21852">
        <ele>261</ele>
        <time>2020-08-25T08:31:43.574Z</time>
      </trkpt>
      <trkpt lat="43.96316" lon="2.21853">
        <ele>261</ele>
        <time>2020-08-25T08:31:44.574Z</time>
      </trkpt>
      <trkpt lat="43.96316" lon="2.21854">
        <ele>261</ele>
        <time>2020-08-25T08:31:45.574Z</time>
      </trkpt>
      <trkpt lat="43.96316" lon="2.21856">
        <ele>261</ele>
        <time>2020-08-25T08:31:46.574Z</time>
      </trkpt>
      <trkpt lat="43.96315" lon="2.21857">
        <ele>261</ele>
        <time>2020-08-25T08:31:47.574Z</time>
      </trkpt>
      <trkpt lat="43.96315" lon="2.21858">
        <ele>261</ele>
        <time>2020-08-25T08:31:48.574Z</time>
      </trkpt>
      <trkpt lat="43.96315" lon="2.2186">
        <ele>261</ele>
        <time>2020-08-25T08:31:49.574Z</time>
      </trkpt>
      <trkpt lat="43.96314" lon="2.21862">
        <ele>261</ele>
        <time>2020-08-25T08:31:50.574Z</time>
      </trkpt>
      <trkpt lat="43.96314" lon="2.21864">
        <ele>261</ele>
        <time>2020-08-25T08:31:51.574Z</time>
      </trkpt>
      <trkpt lat="43.96314" lon="2.21866">
        <ele>261</ele>
        <time>2020-08-25T08:31:52.574Z</time>
      </trkpt>
      <trkpt lat="43.96313" lon="2.21867">
        <ele>261</ele>
        <time>2020-08-25T08:31:53.574Z</time>
      </trkpt>
      <trkpt lat="43.96313" lon="2.21869">
        <ele>261</ele>
        <time>2020-08-25T08:31:54.574Z</time>
      </trkpt>
      <trkpt lat="43.96312" lon="2.2187">
        <ele>261</ele>
        <time>2020-08-25T08:31:55.574Z</time>
      </trkpt>
      <trkpt lat="43.96312" lon="2.21872">
        <ele>262</ele>
        <time>2020-08-25T08:31:56.574Z</time>
      </trkpt>
      <trkpt lat="43.96312" lon="2.21873">
        <ele>262</ele>
        <time>2020-08-25T08:31:57.574Z</time>
      </trkpt>
      <trkpt lat="43.96311" lon="2.21875">
        <ele>262</ele>
        <time>2020-08-25T08:31:58.574Z</time>
      </trkpt>
      <trkpt lat="43.96311" lon="2.21877">
        <ele>262</ele>
        <time>2020-08-25T08:31:59.574Z</time>
      </trkpt>
      <trkpt lat="43.96311" lon="2.21879">
        <ele>262</ele>
        <time>2020-08-25T08:32:00.574Z</time>
      </trkpt>
      <trkpt lat="43.9631" lon="2.2188">
        <ele>262</ele>
        <time>2020-08-25T08:32:01.574Z</time>
      </trkpt>
      <trkpt lat="43.96309" lon="2.21882">
        <ele>262</ele>
        <time>2020-08-25T08:32:02.574Z</time>
      </trkpt>
      <trkpt lat="43.96309" lon="2.21884">
        <ele>262</ele>
        <time>2020-08-25T08:32:03.574Z</time>
      </trkpt>
      <trkpt lat="43.96308" lon="2.21886">
        <ele>262</ele>
        <time>2020-08-25T08:32:04.574Z</time>
      </trkpt>
      <trkpt lat="43.96308" lon="2.21888">
        <ele>262</ele>
        <time>2020-08-25T08:32:05.574Z</time>
      </trkpt>
      <trkpt lat="43.96307" lon="2.21889">
        <ele>262</ele>
        <time>2020-08-25T08:32:06.574Z</time>
      </trkpt>
      <trkpt lat="43.96307" lon="2.21891">
        <ele>262</ele>
        <time>2020-08-25T08:32:07.574Z</time>
      </trkpt>
      <trkpt lat="43.96306" lon="2.21893">
        <ele>262</ele>
        <time>2020-08-25T08:32:08.574Z</time>
      </trkpt>
      <trkpt lat="43.96306" lon="2.21894">
        <ele>262</ele>
        <time>2020-08-25T08:32:09.574Z</time>
      </trkpt>
      <trkpt lat="43.96305" lon="2.21896">
        <ele>262</ele>
        <time>2020-08-25T08:32:10.574Z</time>
      </trkpt>
      <trkpt lat="43.96305" lon="2.21898">
        <ele>263</ele>
        <time>2020-08-25T08:32:11.574Z</time>
      </trkpt>
      <trkpt lat="43.96304" lon="2.21899">
        <ele>262</ele>
        <time>2020-08-25T08:32:12.574Z</time>
      </trkpt>
      <trkpt lat="43.96304" lon="2.21901">
        <ele>262</ele>
        <time>2020-08-25T08:32:13.574Z</time>
      </trkpt>
      <trkpt lat="43.96303" lon="2.21903">
        <ele>262</ele>
        <time>2020-08-25T08:32:14.574Z</time>
      </trkpt>
      <trkpt lat="43.96303" lon="2.21905">
        <ele>262</ele>
        <time>2020-08-25T08:32:15.574Z</time>
      </trkpt>
      <trkpt lat="43.96303" lon="2.21906">
        <ele>263</ele>
        <time>2020-08-25T08:32:16.574Z</time>
      </trkpt>
      <trkpt lat="43.96302" lon="2.21908">
        <ele>263</ele>
        <time>2020-08-25T08:32:17.574Z</time>
      </trkpt>
      <trkpt lat="43.96302" lon="2.2191">
        <ele>263</ele>
        <time>2020-08-25T08:32:18.574Z</time>
      </trkpt>
      <trkpt lat="43.96301" lon="2.21911">
        <ele>263</ele>
        <time>2020-08-25T08:32:19.574Z</time>
      </trkpt>
      <trkpt lat="43.96301" lon="2.21912">
        <ele>263</ele>
        <time>2020-08-25T08:32:20.574Z</time>
      </trkpt>
      <trkpt lat="43.963" lon="2.21914">
        <ele>263</ele>
        <time>2020-08-25T08:32:21.574Z</time>
      </trkpt>
      <trkpt lat="43.963" lon="2.21916">
        <ele>263</ele>
        <time>2020-08-25T08:32:22.574Z</time>
      </trkpt>
      <trkpt lat="43.96299" lon="2.21917">
        <ele>263</ele>
        <time>2020-08-25T08:32:23.574Z</time>
      </trkpt>
      <trkpt lat="43.96299" lon="2.21919">
        <ele>263</ele>
        <time>2020-08-25T08:32:24.574Z</time>
      </trkpt>
      <trkpt lat="43.96299" lon="2.21921">
        <ele>263</ele>
        <time>2020-08-25T08:32:25.574Z</time>
      </trkpt>
      <trkpt lat="43.96298" lon="2.21923">
        <ele>263</ele>
        <time>2020-08-25T08:32:26.574Z</time>
      </trkpt>
      <trkpt lat="43.96298" lon="2.21923">
        <ele>263</ele>
        <time>2020-08-25T08:32:27.574Z</time>
      </trkpt>
      <trkpt lat="43.96297" lon="2.21923">
        <ele>263</ele>
        <time>2020-08-25T08:32:28.574Z</time>
      </trkpt>
      <trkpt lat="43.96297" lon="2.21924">
        <ele>263</ele>
        <time>2020-08-25T08:32:29.574Z</time>
      </trkpt>
      <trkpt lat="43.96297" lon="2.21924">
        <ele>263</ele>
        <time>2020-08-25T08:32:30.574Z</time>
      </trkpt>
      <trkpt lat="43.96297" lon="2.21924">
        <ele>263</ele>
        <time>2020-08-25T08:32:31.574Z</time>
      </trkpt>
      <trkpt lat="43.96297" lon="2.21925">
        <ele>263</ele>
        <time>2020-08-25T08:32:32.574Z</time>
      </trkpt>
      <trkpt lat="43.96297" lon="2.21927">
        <ele>263</ele>
        <time>2020-08-25T08:32:33.574Z</time>
      </trkpt>
      <trkpt lat="43.96296" lon="2.21928">
        <ele>263</ele>
        <time>2020-08-25T08:32:34.574Z</time>
      </trkpt>
      <trkpt lat="43.96296" lon="2.2193">
        <ele>263</ele>
        <time>2020-08-25T08:32:35.574Z</time>
      </trkpt>
      <trkpt lat="43.96295" lon="2.21932">
        <ele>263</ele>
        <time>2020-08-25T08:32:36.574Z</time>
      </trkpt>
      <trkpt lat="43.96295" lon="2.21933">
        <ele>263</ele>
        <time>2020-08-25T08:32:37.574Z</time>
      </trkpt>
      <trkpt lat="43.96294" lon="2.21935">
        <ele>263</ele>
        <time>2020-08-25T08:32:38.574Z</time>
      </trkpt>
      <trkpt lat="43.96293" lon="2.21936">
        <ele>263</ele>
        <time>2020-08-25T08:32:39.574Z</time>
      </trkpt>
      <trkpt lat="43.96293" lon="2.21938">
        <ele>263</ele>
        <time>2020-08-25T08:32:40.574Z</time>
      </trkpt>
      <trkpt lat="43.96292" lon="2.21939">
        <ele>263</ele>
        <time>2020-08-25T08:32:41.574Z</time>
      </trkpt>
      <trkpt lat="43.96291" lon="2.21941">
        <ele>263</ele>
        <time>2020-08-25T08:32:42.574Z</time>
      </trkpt>
      <trkpt lat="43.9629" lon="2.21943">
        <ele>263</ele>
        <time>2020-08-25T08:32:43.574Z</time>
      </trkpt>
      <trkpt lat="43.9629" lon="2.21944">
        <ele>263</ele>
        <time>2020-08-25T08:32:44.574Z</time>
      </trkpt>
      <trkpt lat="43.9629" lon="2.21946">
        <ele>263</ele>
        <time>2020-08-25T08:32:45.574Z</time>
      </trkpt>
      <trkpt lat="43.96289" lon="2.21947">
        <ele>263</ele>
        <time>2020-08-25T08:32:46.574Z</time>
      </trkpt>
      <trkpt lat="43.96288" lon="2.21949">
        <ele>263</ele>
        <time>2020-08-25T08:32:47.574Z</time>
      </trkpt>
      <trkpt lat="43.96288" lon="2.2195">
        <ele>263</ele>
        <time>2020-08-25T08:32:48.574Z</time>
      </trkpt>
      <trkpt lat="43.96287" lon="2.21952">
        <ele>263</ele>
        <time>2020-08-25T08:32:49.574Z</time>
      </trkpt>
      <trkpt lat="43.96287" lon="2.21954">
        <ele>263</ele>
        <time>2020-08-25T08:32:50.574Z</time>
      </trkpt>
      <trkpt lat="43.96286" lon="2.21956">
        <ele>263</ele>
        <time>2020-08-25T08:32:51.574Z</time>
      </trkpt>
      <trkpt lat="43.96286" lon="2.21957">
        <ele>263</ele>
        <time>2020-08-25T08:32:52.574Z</time>
      </trkpt>
      <trkpt lat="43.96286" lon="2.21959">
        <ele>263</ele>
        <time>2020-08-25T08:32:53.574Z</time>
      </trkpt>
      <trkpt lat="43.96286" lon="2.2196">
        <ele>263</ele>
        <time>2020-08-25T08:32:54.574Z</time>
      </trkpt>
      <trkpt lat="43.96286" lon="2.21962">
        <ele>263</ele>
        <time>2020-08-25T08:32:55.574Z</time>
      </trkpt>
      <trkpt lat="43.96285" lon="2.21964">
        <ele>263</ele>
        <time>2020-08-25T08:32:56.574Z</time>
      </trkpt>
      <trkpt lat="43.96285" lon="2.21965">
        <ele>263</ele>
        <time>2020-08-25T08:32:57.574Z</time>
      </trkpt>
      <trkpt lat="43.96285" lon="2.21967">
        <ele>263</ele>
        <time>2020-08-25T08:32:58.574Z</time>
      </trkpt>
      <trkpt lat="43.96285" lon="2.21969">
        <ele>262</ele>
        <time>2020-08-25T08:32:59.574Z</time>
      </trkpt>
      <trkpt lat="43.96285" lon="2.21971">
        <ele>262</ele>
        <time>2020-08-25T08:33:00.574Z</time>
      </trkpt>
      <trkpt lat="43.96284" lon="2.21972">
        <ele>262</ele>
        <time>2020-08-25T08:33:01.574Z</time>
      </trkpt>
      <trkpt lat="43.96283" lon="2.21974">
        <ele>262</ele>
        <time>2020-08-25T08:33:02.574Z</time>
      </trkpt>
      <trkpt lat="43.96282" lon="2.21975">
        <ele>262</ele>
        <time>2020-08-25T08:33:03.574Z</time>
      </trkpt>
      <trkpt lat="43.96281" lon="2.21977">
        <ele>262</ele>
        <time>2020-08-25T08:33:04.574Z</time>
      </trkpt>
      <trkpt lat="43.9628" lon="2.21978">
        <ele>262</ele>
        <time>2020-08-25T08:33:05.574Z</time>
      </trkpt>
      <trkpt lat="43.96279" lon="2.21979">
        <ele>262</ele>
        <time>2020-08-25T08:33:06.574Z</time>
      </trkpt>
      <trkpt lat="43.96279" lon="2.21981">
        <ele>262</ele>
        <time>2020-08-25T08:33:07.574Z</time>
      </trkpt>
      <trkpt lat="43.96278" lon="2.21982">
        <ele>262</ele>
        <time>2020-08-25T08:33:08.574Z</time>
      </trkpt>
      <trkpt lat="43.96277" lon="2.21983">
        <ele>262</ele>
        <time>2020-08-25T08:33:09.574Z</time>
      </trkpt>
      <trkpt lat="43.96276" lon="2.21984">
        <ele>262</ele>
        <time>2020-08-25T08:33:10.574Z</time>
      </trkpt>
      <trkpt lat="43.96275" lon="2.21985">
        <ele>262</ele>
        <time>2020-08-25T08:33:11.574Z</time>
      </trkpt>
      <trkpt lat="43.96275" lon="2.21987">
        <ele>262</ele>
        <time>2020-08-25T08:33:12.574Z</time>
      </trkpt>
      <trkpt lat="43.96274" lon="2.21989">
        <ele>262</ele>
        <time>2020-08-25T08:33:13.574Z</time>
      </trkpt>
      <trkpt lat="43.96273" lon="2.2199">
        <ele>262</ele>
        <time>2020-08-25T08:33:14.574Z</time>
      </trkpt>
      <trkpt lat="43.96272" lon="2.21992">
        <ele>262</ele>
        <time>2020-08-25T08:33:15.574Z</time>
      </trkpt>
      <trkpt lat="43.96272" lon="2.21993">
        <ele>262</ele>
        <time>2020-08-25T08:33:16.574Z</time>
      </trkpt>
      <trkpt lat="43.96271" lon="2.21994">
        <ele>262</ele>
        <time>2020-08-25T08:33:17.574Z</time>
      </trkpt>
      <trkpt lat="43.9627" lon="2.21996">
        <ele>262</ele>
        <time>2020-08-25T08:33:18.574Z</time>
      </trkpt>
      <trkpt lat="43.96269" lon="2.21997">
        <ele>262</ele>
        <time>2020-08-25T08:33:19.574Z</time>
      </trkpt>
      <trkpt lat="43.96268" lon="2.21998">
        <ele>262</ele>
        <time>2020-08-25T08:33:20.574Z</time>
      </trkpt>
      <trkpt lat="43.96267" lon="2.21999">
        <ele>262</ele>
        <time>2020-08-25T08:33:21.574Z</time>
      </trkpt>
      <trkpt lat="43.96267" lon="2.22">
        <ele>262</ele>
        <time>2020-08-25T08:33:22.574Z</time>
      </trkpt>
      <trkpt lat="43.96266" lon="2.22001">
        <ele>262</ele>
        <time>2020-08-25T08:33:23.574Z</time>
      </trkpt>
      <trkpt lat="43.96266" lon="2.22001">
        <ele>263</ele>
        <time>2020-08-25T08:33:24.574Z</time>
      </trkpt>
      <trkpt lat="43.96266" lon="2.22001">
        <ele>263</ele>
        <time>2020-08-25T08:33:25.574Z</time>
      </trkpt>
      <trkpt lat="43.96266" lon="2.22001">
        <ele>263</ele>
        <time>2020-08-25T08:33:26.574Z</time>
      </trkpt>
      <trkpt lat="43.96266" lon="2.22002">
        <ele>263</ele>
        <time>2020-08-25T08:33:27.574Z</time>
      </trkpt>
      <trkpt lat="43.96265" lon="2.22004">
        <ele>262</ele>
        <time>2020-08-25T08:33:36.583Z</time>
      </trkpt>
      <trkpt lat="43.96265" lon="2.22005">
        <ele>262</ele>
        <time>2020-08-25T08:33:37.583Z</time>
      </trkpt>
      <trkpt lat="43.96264" lon="2.22006">
        <ele>262</ele>
        <time>2020-08-25T08:33:38.583Z</time>
      </trkpt>
      <trkpt lat="43.96264" lon="2.22008">
        <ele>262</ele>
        <time>2020-08-25T08:33:39.583Z</time>
      </trkpt>
      <trkpt lat="43.96263" lon="2.22009">
        <ele>262</ele>
        <time>2020-08-25T08:33:40.583Z</time>
      </trkpt>
      <trkpt lat="43.96263" lon="2.2201">
        <ele>262</ele>
        <time>2020-08-25T08:33:41.583Z</time>
      </trkpt>
      <trkpt lat="43.96262" lon="2.22012">
        <ele>262</ele>
        <time>2020-08-25T08:33:42.583Z</time>
      </trkpt>
      <trkpt lat="43.96261" lon="2.22013">
        <ele>262</ele>
        <time>2020-08-25T08:33:43.583Z</time>
      </trkpt>
      <trkpt lat="43.96261" lon="2.22014">
        <ele>262</ele>
        <time>2020-08-25T08:33:44.583Z</time>
      </trkpt>
      <trkpt lat="43.96261" lon="2.22015">
        <ele>262</ele>
        <time>2020-08-25T08:33:45.583Z</time>
      </trkpt>
      <trkpt lat="43.96261" lon="2.22016">
        <ele>262</ele>
        <time>2020-08-25T08:33:46.583Z</time>
      </trkpt>
      <trkpt lat="43.96261" lon="2.22017">
        <ele>262</ele>
        <time>2020-08-25T08:33:47.583Z</time>
      </trkpt>
      <trkpt lat="43.9626" lon="2.22018">
        <ele>262</ele>
        <time>2020-08-25T08:33:48.583Z</time>
      </trkpt>
      <trkpt lat="43.9626" lon="2.22018">
        <ele>262</ele>
        <time>2020-08-25T08:33:49.583Z</time>
      </trkpt>
      <trkpt lat="43.96259" lon="2.22019">
        <ele>262</ele>
        <time>2020-08-25T08:33:50.583Z</time>
      </trkpt>
      <trkpt lat="43.96259" lon="2.2202">
        <ele>262</ele>
        <time>2020-08-25T08:33:51.583Z</time>
      </trkpt>
      <trkpt lat="43.96258" lon="2.22021">
        <ele>262</ele>
        <time>2020-08-25T08:33:52.583Z</time>
      </trkpt>
      <trkpt lat="43.96257" lon="2.22022">
        <ele>262</ele>
        <time>2020-08-25T08:33:53.583Z</time>
      </trkpt>
      <trkpt lat="43.96257" lon="2.22023">
        <ele>262</ele>
        <time>2020-08-25T08:33:54.583Z</time>
      </trkpt>
      <trkpt lat="43.96256" lon="2.22024">
        <ele>262</ele>
        <time>2020-08-25T08:33:55.583Z</time>
      </trkpt>
      <trkpt lat="43.96255" lon="2.22024">
        <ele>262</ele>
        <time>2020-08-25T08:33:56.583Z</time>
      </trkpt>
      <trkpt lat="43.96254" lon="2.22024">
        <ele>262</ele>
        <time>2020-08-25T08:33:57.583Z</time>
      </trkpt>
      <trkpt lat="43.96254" lon="2.22024">
        <ele>262</ele>
        <time>2020-08-25T08:33:58.583Z</time>
      </trkpt>
      <trkpt lat="43.96254" lon="2.22025">
        <ele>262</ele>
        <time>2020-08-25T08:33:59.583Z</time>
      </trkpt>
      <trkpt lat="43.96254" lon="2.22025">
        <ele>262</ele>
        <time>2020-08-25T08:34:00.583Z</time>
      </trkpt>
      <trkpt lat="43.96253" lon="2.22026">
        <ele>261</ele>
        <time>2020-08-25T08:34:30.596Z</time>
      </trkpt>
      <trkpt lat="43.96252" lon="2.22027">
        <ele>261</ele>
        <time>2020-08-25T08:34:31.596Z</time>
      </trkpt>
      <trkpt lat="43.96251" lon="2.22028">
        <ele>261</ele>
        <time>2020-08-25T08:34:32.596Z</time>
      </trkpt>
      <trkpt lat="43.96251" lon="2.22029">
        <ele>261</ele>
        <time>2020-08-25T08:34:33.596Z</time>
      </trkpt>
      <trkpt lat="43.9625" lon="2.22031">
        <ele>261</ele>
        <time>2020-08-25T08:34:34.596Z</time>
      </trkpt>
      <trkpt lat="43.9625" lon="2.22032">
        <ele>261</ele>
        <time>2020-08-25T08:34:35.596Z</time>
      </trkpt>
      <trkpt lat="43.96249" lon="2.22033">
        <ele>260</ele>
        <time>2020-08-25T08:34:36.596Z</time>
      </trkpt>
      <trkpt lat="43.96249" lon="2.22035">
        <ele>260</ele>
        <time>2020-08-25T08:34:37.596Z</time>
      </trkpt>
      <trkpt lat="43.96248" lon="2.22036">
        <ele>260</ele>
        <time>2020-08-25T08:34:38.596Z</time>
      </trkpt>
      <trkpt lat="43.96247" lon="2.22038">
        <ele>260</ele>
        <time>2020-08-25T08:34:39.596Z</time>
      </trkpt>
      <trkpt lat="43.96246" lon="2.22039">
        <ele>260</ele>
        <time>2020-08-25T08:34:40.596Z</time>
      </trkpt>
      <trkpt lat="43.96245" lon="2.2204">
        <ele>260</ele>
        <time>2020-08-25T08:34:41.596Z</time>
      </trkpt>
      <trkpt lat="43.96245" lon="2.22041">
        <ele>260</ele>
        <time>2020-08-25T08:34:42.596Z</time>
      </trkpt>
      <trkpt lat="43.96244" lon="2.22043">
        <ele>260</ele>
        <time>2020-08-25T08:34:43.596Z</time>
      </trkpt>
      <trkpt lat="43.96243" lon="2.22044">
        <ele>260</ele>
        <time>2020-08-25T08:34:44.596Z</time>
      </trkpt>
      <trkpt lat="43.96243" lon="2.22045">
        <ele>260</ele>
        <time>2020-08-25T08:34:45.596Z</time>
      </trkpt>
      <trkpt lat="43.96242" lon="2.22047">
        <ele>260</ele>
        <time>2020-08-25T08:34:46.596Z</time>
      </trkpt>
      <trkpt lat="43.96241" lon="2.22048">
        <ele>260</ele>
        <time>2020-08-25T08:34:47.596Z</time>
      </trkpt>
      <trkpt lat="43.96241" lon="2.2205">
        <ele>260</ele>
        <time>2020-08-25T08:34:48.596Z</time>
      </trkpt>
      <trkpt lat="43.9624" lon="2.22051">
        <ele>260</ele>
        <time>2020-08-25T08:34:49.596Z</time>
      </trkpt>
      <trkpt lat="43.9624" lon="2.22053">
        <ele>260</ele>
        <time>2020-08-25T08:34:50.596Z</time>
      </trkpt>
      <trkpt lat="43.96239" lon="2.22054">
        <ele>259</ele>
        <time>2020-08-25T08:34:51.596Z</time>
      </trkpt>
      <trkpt lat="43.96238" lon="2.22056">
        <ele>259</ele>
        <time>2020-08-25T08:34:52.596Z</time>
      </trkpt>
      <trkpt lat="43.96238" lon="2.22057">
        <ele>259</ele>
        <time>2020-08-25T08:34:53.596Z</time>
      </trkpt>
      <trkpt lat="43.96237" lon="2.22058">
        <ele>259</ele>
        <time>2020-08-25T08:34:54.596Z</time>
      </trkpt>
      <trkpt lat="43.96236" lon="2.2206">
        <ele>259</ele>
        <time>2020-08-25T08:34:55.596Z</time>
      </trkpt>
      <trkpt lat="43.96236" lon="2.22061">
        <ele>259</ele>
        <time>2020-08-25T08:34:56.596Z</time>
      </trkpt>
      <trkpt lat="43.96235" lon="2.22063">
        <ele>259</ele>
        <time>2020-08-25T08:34:57.596Z</time>
      </trkpt>
      <trkpt lat="43.96234" lon="2.22064">
        <ele>259</ele>
        <time>2020-08-25T08:34:58.596Z</time>
      </trkpt>
      <trkpt lat="43.96233" lon="2.22065">
        <ele>259</ele>
        <time>2020-08-25T08:34:59.596Z</time>
      </trkpt>
      <trkpt lat="43.96233" lon="2.22066">
        <ele>259</ele>
        <time>2020-08-25T08:35:00.596Z</time>
      </trkpt>
      <trkpt lat="43.96232" lon="2.22067">
        <ele>259</ele>
        <time>2020-08-25T08:35:01.596Z</time>
      </trkpt>
      <trkpt lat="43.96232" lon="2.22069">
        <ele>259</ele>
        <time>2020-08-25T08:35:02.596Z</time>
      </trkpt>
      <trkpt lat="43.96231" lon="2.2207">
        <ele>259</ele>
        <time>2020-08-25T08:35:03.596Z</time>
      </trkpt>
      <trkpt lat="43.9623" lon="2.22071">
        <ele>259</ele>
        <time>2020-08-25T08:35:04.596Z</time>
      </trkpt>
      <trkpt lat="43.96229" lon="2.22072">
        <ele>259</ele>
        <time>2020-08-25T08:35:05.596Z</time>
      </trkpt>
      <trkpt lat="43.96228" lon="2.22073">
        <ele>259</ele>
        <time>2020-08-25T08:35:06.596Z</time>
      </trkpt>
      <trkpt lat="43.96228" lon="2.22074">
        <ele>259</ele>
        <time>2020-08-25T08:35:07.596Z</time>
      </trkpt>
      <trkpt lat="43.96227" lon="2.22076">
        <ele>259</ele>
        <time>2020-08-25T08:35:08.596Z</time>
      </trkpt>
      <trkpt lat="43.96227" lon="2.22077">
        <ele>259</ele>
        <time>2020-08-25T08:35:09.596Z</time>
      </trkpt>
      <trkpt lat="43.96226" lon="2.22078">
        <ele>258</ele>
        <time>2020-08-25T08:35:10.596Z</time>
      </trkpt>
      <trkpt lat="43.96225" lon="2.2208">
        <ele>258</ele>
        <time>2020-08-25T08:35:11.596Z</time>
      </trkpt>
      <trkpt lat="43.96224" lon="2.22081">
        <ele>258</ele>
        <time>2020-08-25T08:35:12.596Z</time>
      </trkpt>
      <trkpt lat="43.96224" lon="2.22083">
        <ele>258</ele>
        <time>2020-08-25T08:35:13.596Z</time>
      </trkpt>
      <trkpt lat="43.96223" lon="2.22084">
        <ele>258</ele>
        <time>2020-08-25T08:35:14.596Z</time>
      </trkpt>
      <trkpt lat="43.96222" lon="2.22085">
        <ele>258</ele>
        <time>2020-08-25T08:35:15.596Z</time>
      </trkpt>
      <trkpt lat="43.96221" lon="2.22087">
        <ele>258</ele>
        <time>2020-08-25T08:35:16.596Z</time>
      </trkpt>
      <trkpt lat="43.96221" lon="2.22088">
        <ele>258</ele>
        <time>2020-08-25T08:35:17.596Z</time>
      </trkpt>
      <trkpt lat="43.9622" lon="2.22089">
        <ele>258</ele>
        <time>2020-08-25T08:35:18.596Z</time>
      </trkpt>
      <trkpt lat="43.96219" lon="2.2209">
        <ele>258</ele>
        <time>2020-08-25T08:35:19.596Z</time>
      </trkpt>
      <trkpt lat="43.96219" lon="2.2209">
        <ele>258</ele>
        <time>2020-08-25T08:35:20.596Z</time>
      </trkpt>
      <trkpt lat="43.96219" lon="2.2209">
        <ele>258</ele>
        <time>2020-08-25T08:35:21.596Z</time>
      </trkpt>
      <trkpt lat="43.96219" lon="2.22091">
        <ele>258</ele>
        <time>2020-08-25T08:35:22.596Z</time>
      </trkpt>
      <trkpt lat="43.96218" lon="2.22091">
        <ele>258</ele>
        <time>2020-08-25T08:35:23.596Z</time>
      </trkpt>
      <trkpt lat="43.96218" lon="2.22092">
        <ele>258</ele>
        <time>2020-08-25T08:35:24.596Z</time>
      </trkpt>
      <trkpt lat="43.96217" lon="2.22094">
        <ele>258</ele>
        <time>2020-08-25T08:35:25.596Z</time>
      </trkpt>
      <trkpt lat="43.96217" lon="2.22095">
        <ele>257</ele>
        <time>2020-08-25T08:35:26.596Z</time>
      </trkpt>
      <trkpt lat="43.96216" lon="2.22096">
        <ele>257</ele>
        <time>2020-08-25T08:35:27.596Z</time>
      </trkpt>
      <trkpt lat="43.96215" lon="2.22097">
        <ele>257</ele>
        <time>2020-08-25T08:35:28.596Z</time>
      </trkpt>
      <trkpt lat="43.96215" lon="2.22098">
        <ele>257</ele>
        <time>2020-08-25T08:35:29.596Z</time>
      </trkpt>
      <trkpt lat="43.96214" lon="2.22099">
        <ele>257</ele>
        <time>2020-08-25T08:35:30.596Z</time>
      </trkpt>
      <trkpt lat="43.96213" lon="2.221">
        <ele>257</ele>
        <time>2020-08-25T08:35:31.596Z</time>
      </trkpt>
      <trkpt lat="43.96212" lon="2.22101">
        <ele>257</ele>
        <time>2020-08-25T08:35:32.596Z</time>
      </trkpt>
      <trkpt lat="43.96212" lon="2.22103">
        <ele>257</ele>
        <time>2020-08-25T08:35:33.596Z</time>
      </trkpt>
      <trkpt lat="43.96211" lon="2.22104">
        <ele>256</ele>
        <time>2020-08-25T08:35:34.596Z</time>
      </trkpt>
      <trkpt lat="43.9621" lon="2.22105">
        <ele>256</ele>
        <time>2020-08-25T08:35:35.596Z</time>
      </trkpt>
      <trkpt lat="43.96209" lon="2.22107">
        <ele>256</ele>
        <time>2020-08-25T08:35:36.596Z</time>
      </trkpt>
      <trkpt lat="43.96208" lon="2.22108">
        <ele>256</ele>
        <time>2020-08-25T08:35:37.596Z</time>
      </trkpt>
      <trkpt lat="43.96208" lon="2.22109">
        <ele>256</ele>
        <time>2020-08-25T08:35:38.596Z</time>
      </trkpt>
      <trkpt lat="43.96207" lon="2.2211">
        <ele>256</ele>
        <time>2020-08-25T08:35:39.596Z</time>
      </trkpt>
      <trkpt lat="43.96206" lon="2.22112">
        <ele>256</ele>
        <time>2020-08-25T08:35:40.596Z</time>
      </trkpt>
      <trkpt lat="43.96205" lon="2.22113">
        <ele>256</ele>
        <time>2020-08-25T08:35:41.596Z</time>
      </trkpt>
      <trkpt lat="43.96204" lon="2.22115">
        <ele>256</ele>
        <time>2020-08-25T08:35:42.596Z</time>
      </trkpt>
      <trkpt lat="43.96203" lon="2.22116">
        <ele>256</ele>
        <time>2020-08-25T08:35:43.596Z</time>
      </trkpt>
      <trkpt lat="43.96202" lon="2.22117">
        <ele>256</ele>
        <time>2020-08-25T08:35:44.596Z</time>
      </trkpt>
      <trkpt lat="43.96202" lon="2.22119">
        <ele>256</ele>
        <time>2020-08-25T08:35:45.596Z</time>
      </trkpt>
      <trkpt lat="43.96201" lon="2.2212">
        <ele>256</ele>
        <time>2020-08-25T08:35:46.596Z</time>
      </trkpt>
      <trkpt lat="43.962" lon="2.22121">
        <ele>256</ele>
        <time>2020-08-25T08:35:47.596Z</time>
      </trkpt>
      <trkpt lat="43.96199" lon="2.22123">
        <ele>256</ele>
        <time>2020-08-25T08:35:48.596Z</time>
      </trkpt>
      <trkpt lat="43.96198" lon="2.22124">
        <ele>256</ele>
        <time>2020-08-25T08:35:49.596Z</time>
      </trkpt>
      <trkpt lat="43.96198" lon="2.22125">
        <ele>256</ele>
        <time>2020-08-25T08:35:50.596Z</time>
      </trkpt>
      <trkpt lat="43.96197" lon="2.22126">
        <ele>256</ele>
        <time>2020-08-25T08:35:51.596Z</time>
      </trkpt>
      <trkpt lat="43.96196" lon="2.22128">
        <ele>256</ele>
        <time>2020-08-25T08:35:52.596Z</time>
      </trkpt>
      <trkpt lat="43.96195" lon="2.22129">
        <ele>255</ele>
        <time>2020-08-25T08:35:53.596Z</time>
      </trkpt>
      <trkpt lat="43.96195" lon="2.2213">
        <ele>255</ele>
        <time>2020-08-25T08:35:54.596Z</time>
      </trkpt>
      <trkpt lat="43.96194" lon="2.22132">
        <ele>255</ele>
        <time>2020-08-25T08:35:55.596Z</time>
      </trkpt>
      <trkpt lat="43.96193" lon="2.22133">
        <ele>255</ele>
        <time>2020-08-25T08:35:56.596Z</time>
      </trkpt>
      <trkpt lat="43.96192" lon="2.22134">
        <ele>255</ele>
        <time>2020-08-25T08:35:57.596Z</time>
      </trkpt>
      <trkpt lat="43.96191" lon="2.22136">
        <ele>255</ele>
        <time>2020-08-25T08:35:58.596Z</time>
      </trkpt>
      <trkpt lat="43.9619" lon="2.22137">
        <ele>255</ele>
        <time>2020-08-25T08:35:59.596Z</time>
      </trkpt>
      <trkpt lat="43.9619" lon="2.22138">
        <ele>255</ele>
        <time>2020-08-25T08:36:00.596Z</time>
      </trkpt>
      <trkpt lat="43.96189" lon="2.2214">
        <ele>255</ele>
        <time>2020-08-25T08:36:01.596Z</time>
      </trkpt>
      <trkpt lat="43.96189" lon="2.22141">
        <ele>255</ele>
        <time>2020-08-25T08:36:02.596Z</time>
      </trkpt>
      <trkpt lat="43.96188" lon="2.22142">
        <ele>255</ele>
        <time>2020-08-25T08:36:03.596Z</time>
      </trkpt>
      <trkpt lat="43.96187" lon="2.22144">
        <ele>255</ele>
        <time>2020-08-25T08:36:04.596Z</time>
      </trkpt>
      <trkpt lat="43.96186" lon="2.22145">
        <ele>255</ele>
        <time>2020-08-25T08:36:05.596Z</time>
      </trkpt>
      <trkpt lat="43.96185" lon="2.22146">
        <ele>255</ele>
        <time>2020-08-25T08:36:06.596Z</time>
      </trkpt>
      <trkpt lat="43.96184" lon="2.22147">
        <ele>255</ele>
        <time>2020-08-25T08:36:07.596Z</time>
      </trkpt>
      <trkpt lat="43.96183" lon="2.22148">
        <ele>255</ele>
        <time>2020-08-25T08:36:08.596Z</time>
      </trkpt>
      <trkpt lat="43.96183" lon="2.22149">
        <ele>255</ele>
        <time>2020-08-25T08:36:09.596Z</time>
      </trkpt>
      <trkpt lat="43.96182" lon="2.2215">
        <ele>255</ele>
        <time>2020-08-25T08:36:10.596Z</time>
      </trkpt>
      <trkpt lat="43.96182" lon="2.22151">
        <ele>255</ele>
        <time>2020-08-25T08:36:11.596Z</time>
      </trkpt>
      <trkpt lat="43.96181" lon="2.22152">
        <ele>255</ele>
        <time>2020-08-25T08:36:12.596Z</time>
      </trkpt>
      <trkpt lat="43.96181" lon="2.22153">
        <ele>255</ele>
        <time>2020-08-25T08:36:13.596Z</time>
      </trkpt>
      <trkpt lat="43.9618" lon="2.22154">
        <ele>255</ele>
        <time>2020-08-25T08:36:14.596Z</time>
      </trkpt>
      <trkpt lat="43.96179" lon="2.22155">
        <ele>255</ele>
        <time>2020-08-25T08:36:15.596Z</time>
      </trkpt>
      <trkpt lat="43.96179" lon="2.22157">
        <ele>254</ele>
        <time>2020-08-25T08:36:16.596Z</time>
      </trkpt>
      <trkpt lat="43.96179" lon="2.22158">
        <ele>254</ele>
        <time>2020-08-25T08:36:17.596Z</time>
      </trkpt>
      <trkpt lat="43.96178" lon="2.22159">
        <ele>254</ele>
        <time>2020-08-25T08:36:18.596Z</time>
      </trkpt>
      <trkpt lat="43.96177" lon="2.2216">
        <ele>254</ele>
        <time>2020-08-25T08:36:19.596Z</time>
      </trkpt>
      <trkpt lat="43.96176" lon="2.22161">
        <ele>254</ele>
        <time>2020-08-25T08:36:20.596Z</time>
      </trkpt>
      <trkpt lat="43.96175" lon="2.22163">
        <ele>254</ele>
        <time>2020-08-25T08:36:21.596Z</time>
      </trkpt>
      <trkpt lat="43.96175" lon="2.22164">
        <ele>254</ele>
        <time>2020-08-25T08:36:22.596Z</time>
      </trkpt>
      <trkpt lat="43.96174" lon="2.22165">
        <ele>254</ele>
        <time>2020-08-25T08:36:23.596Z</time>
      </trkpt>
      <trkpt lat="43.96173" lon="2.22166">
        <ele>254</ele>
        <time>2020-08-25T08:36:24.596Z</time>
      </trkpt>
      <trkpt lat="43.96173" lon="2.22167">
        <ele>254</ele>
        <time>2020-08-25T08:36:25.596Z</time>
      </trkpt>
      <trkpt lat="43.96172" lon="2.22168">
        <ele>254</ele>
        <time>2020-08-25T08:36:26.596Z</time>
      </trkpt>
      <trkpt lat="43.96171" lon="2.2217">
        <ele>254</ele>
        <time>2020-08-25T08:36:27.596Z</time>
      </trkpt>
      <trkpt lat="43.96171" lon="2.22171">
        <ele>254</ele>
        <time>2020-08-25T08:36:28.596Z</time>
      </trkpt>
      <trkpt lat="43.9617" lon="2.22173">
        <ele>254</ele>
        <time>2020-08-25T08:36:29.596Z</time>
      </trkpt>
      <trkpt lat="43.9617" lon="2.22174">
        <ele>254</ele>
        <time>2020-08-25T08:36:30.596Z</time>
      </trkpt>
      <trkpt lat="43.96169" lon="2.22175">
        <ele>254</ele>
        <time>2020-08-25T08:36:31.596Z</time>
      </trkpt>
      <trkpt lat="43.96168" lon="2.22177">
        <ele>254</ele>
        <time>2020-08-25T08:36:32.596Z</time>
      </trkpt>
      <trkpt lat="43.96167" lon="2.22178">
        <ele>254</ele>
        <time>2020-08-25T08:36:33.596Z</time>
      </trkpt>
      <trkpt lat="43.96167" lon="2.2218">
        <ele>254</ele>
        <time>2020-08-25T08:36:34.596Z</time>
      </trkpt>
      <trkpt lat="43.96166" lon="2.22181">
        <ele>254</ele>
        <time>2020-08-25T08:36:35.596Z</time>
      </trkpt>
      <trkpt lat="43.96165" lon="2.22183">
        <ele>254</ele>
        <time>2020-08-25T08:36:36.596Z</time>
      </trkpt>
      <trkpt lat="43.96165" lon="2.22185">
        <ele>254</ele>
        <time>2020-08-25T08:36:37.596Z</time>
      </trkpt>
      <trkpt lat="43.96164" lon="2.22186">
        <ele>254</ele>
        <time>2020-08-25T08:36:38.596Z</time>
      </trkpt>
      <trkpt lat="43.96164" lon="2.22187">
        <ele>254</ele>
        <time>2020-08-25T08:36:39.596Z</time>
      </trkpt>
      <trkpt lat="43.96163" lon="2.22188">
        <ele>254</ele>
        <time>2020-08-25T08:36:40.596Z</time>
      </trkpt>
      <trkpt lat="43.96162" lon="2.22189">
        <ele>254</ele>
        <time>2020-08-25T08:36:41.596Z</time>
      </trkpt>
      <trkpt lat="43.96162" lon="2.2219">
        <ele>254</ele>
        <time>2020-08-25T08:36:42.596Z</time>
      </trkpt>
      <trkpt lat="43.96162" lon="2.22191">
        <ele>254</ele>
        <time>2020-08-25T08:36:43.596Z</time>
      </trkpt>
      <trkpt lat="43.96161" lon="2.22192">
        <ele>254</ele>
        <time>2020-08-25T08:36:44.596Z</time>
      </trkpt>
      <trkpt lat="43.96161" lon="2.22193">
        <ele>254</ele>
        <time>2020-08-25T08:36:45.596Z</time>
      </trkpt>
      <trkpt lat="43.9616" lon="2.22194">
        <ele>254</ele>
        <time>2020-08-25T08:36:46.596Z</time>
      </trkpt>
      <trkpt lat="43.9616" lon="2.22195">
        <ele>254</ele>
        <time>2020-08-25T08:36:47.596Z</time>
      </trkpt>
      <trkpt lat="43.9616" lon="2.22195">
        <ele>254</ele>
        <time>2020-08-25T08:36:48.596Z</time>
      </trkpt>
      <trkpt lat="43.9616" lon="2.22195">
        <ele>254</ele>
        <time>2020-08-25T08:36:49.596Z</time>
      </trkpt>
      <trkpt lat="43.9616" lon="2.22195">
        <ele>254</ele>
        <time>2020-08-25T08:36:50.596Z</time>
      </trkpt>
      <trkpt lat="43.9616" lon="2.22195">
        <ele>254</ele>
        <time>2020-08-25T08:36:51.596Z</time>
      </trkpt>
      <trkpt lat="43.96159" lon="2.22199">
        <ele>254</ele>
        <time>2020-08-25T08:38:24.597Z</time>
      </trkpt>
      <trkpt lat="43.96158" lon="2.222">
        <ele>254</ele>
        <time>2020-08-25T08:38:25.597Z</time>
      </trkpt>
      <trkpt lat="43.96158" lon="2.22202">
        <ele>255</ele>
        <time>2020-08-25T08:38:26.597Z</time>
      </trkpt>
      <trkpt lat="43.96157" lon="2.22203">
        <ele>255</ele>
        <time>2020-08-25T08:38:27.597Z</time>
      </trkpt>
      <trkpt lat="43.96156" lon="2.22204">
        <ele>255</ele>
        <time>2020-08-25T08:38:28.597Z</time>
      </trkpt>
      <trkpt lat="43.96156" lon="2.22206">
        <ele>255</ele>
        <time>2020-08-25T08:38:29.597Z</time>
      </trkpt>
      <trkpt lat="43.96155" lon="2.22207">
        <ele>255</ele>
        <time>2020-08-25T08:38:30.597Z</time>
      </trkpt>
      <trkpt lat="43.96155" lon="2.22209">
        <ele>255</ele>
        <time>2020-08-25T08:38:31.597Z</time>
      </trkpt>
      <trkpt lat="43.96155" lon="2.2221">
        <ele>255</ele>
        <time>2020-08-25T08:38:32.597Z</time>
      </trkpt>
      <trkpt lat="43.96154" lon="2.22212">
        <ele>255</ele>
        <time>2020-08-25T08:38:33.597Z</time>
      </trkpt>
      <trkpt lat="43.96153" lon="2.22213">
        <ele>255</ele>
        <time>2020-08-25T08:38:34.597Z</time>
      </trkpt>
      <trkpt lat="43.96152" lon="2.22214">
        <ele>255</ele>
        <time>2020-08-25T08:38:35.597Z</time>
      </trkpt>
      <trkpt lat="43.96152" lon="2.22216">
        <ele>255</ele>
        <time>2020-08-25T08:38:36.597Z</time>
      </trkpt>
      <trkpt lat="43.96152" lon="2.22217">
        <ele>255</ele>
        <time>2020-08-25T08:38:37.597Z</time>
      </trkpt>
      <trkpt lat="43.96151" lon="2.22218">
        <ele>255</ele>
        <time>2020-08-25T08:38:38.597Z</time>
      </trkpt>
      <trkpt lat="43.9615" lon="2.22219">
        <ele>255</ele>
        <time>2020-08-25T08:38:39.597Z</time>
      </trkpt>
      <trkpt lat="43.9615" lon="2.2222">
        <ele>255</ele>
        <time>2020-08-25T08:38:40.597Z</time>
      </trkpt>
      <trkpt lat="43.9615" lon="2.22222">
        <ele>255</ele>
        <time>2020-08-25T08:38:41.597Z</time>
      </trkpt>
      <trkpt lat="43.96149" lon="2.22223">
        <ele>255</ele>
        <time>2020-08-25T08:38:42.597Z</time>
      </trkpt>
      <trkpt lat="43.96149" lon="2.22224">
        <ele>255</ele>
        <time>2020-08-25T08:38:43.597Z</time>
      </trkpt>
      <trkpt lat="43.96148" lon="2.22226">
        <ele>255</ele>
        <time>2020-08-25T08:38:44.597Z</time>
      </trkpt>
      <trkpt lat="43.96148" lon="2.22227">
        <ele>256</ele>
        <time>2020-08-25T08:38:45.597Z</time>
      </trkpt>
      <trkpt lat="43.96147" lon="2.22229">
        <ele>255</ele>
        <time>2020-08-25T08:38:46.597Z</time>
      </trkpt>
      <trkpt lat="43.96147" lon="2.2223">
        <ele>255</ele>
        <time>2020-08-25T08:38:47.597Z</time>
      </trkpt>
      <trkpt lat="43.96146" lon="2.22232">
        <ele>256</ele>
        <time>2020-08-25T08:38:48.597Z</time>
      </trkpt>
      <trkpt lat="43.96146" lon="2.22233">
        <ele>255</ele>
        <time>2020-08-25T08:38:49.597Z</time>
      </trkpt>
      <trkpt lat="43.96145" lon="2.22235">
        <ele>255</ele>
        <time>2020-08-25T08:38:50.597Z</time>
      </trkpt>
      <trkpt lat="43.96144" lon="2.22236">
        <ele>255</ele>
        <time>2020-08-25T08:38:51.597Z</time>
      </trkpt>
      <trkpt lat="43.96144" lon="2.22237">
        <ele>255</ele>
        <time>2020-08-25T08:38:52.597Z</time>
      </trkpt>
      <trkpt lat="43.96144" lon="2.22238">
        <ele>255</ele>
        <time>2020-08-25T08:38:53.597Z</time>
      </trkpt>
      <trkpt lat="43.96144" lon="2.22238">
        <ele>255</ele>
        <time>2020-08-25T08:38:54.597Z</time>
      </trkpt>
      <trkpt lat="43.96144" lon="2.22238">
        <ele>255</ele>
        <time>2020-08-25T08:38:55.597Z</time>
      </trkpt>
      <trkpt lat="43.96144" lon="2.22238">
        <ele>255</ele>
        <time>2020-08-25T08:38:56.597Z</time>
      </trkpt>
      <trkpt lat="43.96144" lon="2.22238">
        <ele>255</ele>
        <time>2020-08-25T08:38:57.597Z</time>
      </trkpt>
      <trkpt lat="43.96143" lon="2.22241">
        <ele>255</ele>
        <time>2020-08-25T08:39:00.824Z</time>
      </trkpt>
      <trkpt lat="43.96142" lon="2.22242">
        <ele>255</ele>
        <time>2020-08-25T08:39:01.824Z</time>
      </trkpt>
      <trkpt lat="43.96142" lon="2.22243">
        <ele>255</ele>
        <time>2020-08-25T08:39:02.824Z</time>
      </trkpt>
      <trkpt lat="43.96141" lon="2.22244">
        <ele>255</ele>
        <time>2020-08-25T08:39:03.824Z</time>
      </trkpt>
      <trkpt lat="43.9614" lon="2.22244">
        <ele>255</ele>
        <time>2020-08-25T08:39:04.824Z</time>
      </trkpt>
      <trkpt lat="43.96139" lon="2.22245">
        <ele>255</ele>
        <time>2020-08-25T08:39:05.824Z</time>
      </trkpt>
      <trkpt lat="43.96139" lon="2.22246">
        <ele>255</ele>
        <time>2020-08-25T08:39:06.824Z</time>
      </trkpt>
      <trkpt lat="43.96138" lon="2.22246">
        <ele>255</ele>
        <time>2020-08-25T08:39:07.824Z</time>
      </trkpt>
      <trkpt lat="43.96137" lon="2.22246">
        <ele>255</ele>
        <time>2020-08-25T08:39:08.824Z</time>
      </trkpt>
      <trkpt lat="43.96136" lon="2.22247">
        <ele>255</ele>
        <time>2020-08-25T08:39:09.824Z</time>
      </trkpt>
      <trkpt lat="43.96135" lon="2.22247">
        <ele>255</ele>
        <time>2020-08-25T08:39:10.824Z</time>
      </trkpt>
      <trkpt lat="43.96134" lon="2.22247">
        <ele>255</ele>
        <time>2020-08-25T08:39:11.824Z</time>
      </trkpt>
      <trkpt lat="43.96133" lon="2.22246">
        <ele>255</ele>
        <time>2020-08-25T08:39:12.824Z</time>
      </trkpt>
      <trkpt lat="43.96132" lon="2.22246">
        <ele>255</ele>
        <time>2020-08-25T08:39:13.824Z</time>
      </trkpt>
      <trkpt lat="43.96131" lon="2.22246">
        <ele>255</ele>
        <time>2020-08-25T08:39:14.824Z</time>
      </trkpt>
      <trkpt lat="43.9613" lon="2.22246">
        <ele>255</ele>
        <time>2020-08-25T08:39:15.824Z</time>
      </trkpt>
      <trkpt lat="43.96129" lon="2.22245">
        <ele>254</ele>
        <time>2020-08-25T08:39:16.824Z</time>
      </trkpt>
      <trkpt lat="43.96127" lon="2.22245">
        <ele>254</ele>
        <time>2020-08-25T08:39:17.824Z</time>
      </trkpt>
      <trkpt lat="43.96126" lon="2.22246">
        <ele>254</ele>
        <time>2020-08-25T08:39:18.824Z</time>
      </trkpt>
      <trkpt lat="43.96126" lon="2.22246">
        <ele>254</ele>
        <time>2020-08-25T08:39:19.824Z</time>
      </trkpt>
      <trkpt lat="43.96125" lon="2.22246">
        <ele>254</ele>
        <time>2020-08-25T08:39:20.824Z</time>
      </trkpt>
      <trkpt lat="43.96125" lon="2.22247">
        <ele>254</ele>
        <time>2020-08-25T08:39:21.824Z</time>
      </trkpt>
      <trkpt lat="43.96125" lon="2.22248">
        <ele>254</ele>
        <time>2020-08-25T08:39:22.824Z</time>
      </trkpt>
      <trkpt lat="43.96125" lon="2.22249">
        <ele>253</ele>
        <time>2020-08-25T08:39:23.824Z</time>
      </trkpt>
      <trkpt lat="43.96125" lon="2.2225">
        <ele>253</ele>
        <time>2020-08-25T08:39:24.824Z</time>
      </trkpt>
      <trkpt lat="43.96125" lon="2.22252">
        <ele>253</ele>
        <time>2020-08-25T08:39:25.824Z</time>
      </trkpt>
      <trkpt lat="43.96125" lon="2.22253">
        <ele>253</ele>
        <time>2020-08-25T08:39:26.824Z</time>
      </trkpt>
      <trkpt lat="43.96125" lon="2.22254">
        <ele>253</ele>
        <time>2020-08-25T08:39:27.824Z</time>
      </trkpt>
      <trkpt lat="43.96125" lon="2.22254">
        <ele>252</ele>
        <time>2020-08-25T08:39:28.824Z</time>
      </trkpt>
      <trkpt lat="43.96126" lon="2.22254">
        <ele>252</ele>
        <time>2020-08-25T08:39:29.824Z</time>
      </trkpt>
      <trkpt lat="43.96127" lon="2.22255">
        <ele>252</ele>
        <time>2020-08-25T08:39:30.824Z</time>
      </trkpt>
      <trkpt lat="43.96127" lon="2.22255">
        <ele>252</ele>
        <time>2020-08-25T08:39:31.824Z</time>
      </trkpt>
      <trkpt lat="43.96128" lon="2.22256">
        <ele>252</ele>
        <time>2020-08-25T08:39:32.824Z</time>
      </trkpt>
      <trkpt lat="43.96128" lon="2.22257">
        <ele>252</ele>
        <time>2020-08-25T08:39:33.824Z</time>
      </trkpt>
      <trkpt lat="43.96128" lon="2.22257">
        <ele>251</ele>
        <time>2020-08-25T08:39:34.824Z</time>
      </trkpt>
      <trkpt lat="43.96129" lon="2.22258">
        <ele>251</ele>
        <time>2020-08-25T08:39:35.824Z</time>
      </trkpt>
      <trkpt lat="43.96129" lon="2.22259">
        <ele>251</ele>
        <time>2020-08-25T08:39:36.824Z</time>
      </trkpt>
      <trkpt lat="43.9613" lon="2.2226">
        <ele>251</ele>
        <time>2020-08-25T08:39:37.824Z</time>
      </trkpt>
      <trkpt lat="43.9613" lon="2.22261">
        <ele>251</ele>
        <time>2020-08-25T08:39:38.824Z</time>
      </trkpt>
      <trkpt lat="43.9613" lon="2.22261">
        <ele>251</ele>
        <time>2020-08-25T08:39:39.824Z</time>
      </trkpt>
      <trkpt lat="43.96131" lon="2.22262">
        <ele>251</ele>
        <time>2020-08-25T08:39:40.824Z</time>
      </trkpt>
      <trkpt lat="43.96131" lon="2.22263">
        <ele>251</ele>
        <time>2020-08-25T08:39:41.824Z</time>
      </trkpt>
      <trkpt lat="43.96132" lon="2.22263">
        <ele>251</ele>
        <time>2020-08-25T08:39:42.824Z</time>
      </trkpt>
      <trkpt lat="43.96133" lon="2.22264">
        <ele>251</ele>
        <time>2020-08-25T08:39:43.824Z</time>
      </trkpt>
      <trkpt lat="43.96134" lon="2.22265">
        <ele>251</ele>
        <time>2020-08-25T08:39:44.824Z</time>
      </trkpt>
      <trkpt lat="43.96134" lon="2.22266">
        <ele>250</ele>
        <time>2020-08-25T08:39:45.824Z</time>
      </trkpt>
      <trkpt lat="43.96135" lon="2.22266">
        <ele>250</ele>
        <time>2020-08-25T08:39:46.824Z</time>
      </trkpt>
      <trkpt lat="43.96136" lon="2.22267">
        <ele>250</ele>
        <time>2020-08-25T08:39:47.824Z</time>
      </trkpt>
      <trkpt lat="43.96136" lon="2.22268">
        <ele>250</ele>
        <time>2020-08-25T08:39:48.824Z</time>
      </trkpt>
      <trkpt lat="43.96137" lon="2.22268">
        <ele>250</ele>
        <time>2020-08-25T08:39:49.824Z</time>
      </trkpt>
      <trkpt lat="43.96137" lon="2.22269">
        <ele>250</ele>
        <time>2020-08-25T08:39:50.824Z</time>
      </trkpt>
      <trkpt lat="43.96138" lon="2.22269">
        <ele>250</ele>
        <time>2020-08-25T08:39:51.824Z</time>
      </trkpt>
      <trkpt lat="43.96139" lon="2.22269">
        <ele>250</ele>
        <time>2020-08-25T08:39:52.824Z</time>
      </trkpt>
      <trkpt lat="43.9614" lon="2.2227">
        <ele>250</ele>
        <time>2020-08-25T08:39:53.824Z</time>
      </trkpt>
      <trkpt lat="43.96141" lon="2.2227">
        <ele>250</ele>
        <time>2020-08-25T08:39:54.824Z</time>
      </trkpt>
      <trkpt lat="43.96142" lon="2.22271">
        <ele>250</ele>
        <time>2020-08-25T08:39:55.824Z</time>
      </trkpt>
      <trkpt lat="43.96143" lon="2.22272">
        <ele>250</ele>
        <time>2020-08-25T08:39:56.824Z</time>
      </trkpt>
      <trkpt lat="43.96143" lon="2.22273">
        <ele>249</ele>
        <time>2020-08-25T08:39:57.824Z</time>
      </trkpt>
      <trkpt lat="43.96144" lon="2.22273">
        <ele>249</ele>
        <time>2020-08-25T08:39:58.824Z</time>
      </trkpt>
      <trkpt lat="43.96145" lon="2.22274">
        <ele>249</ele>
        <time>2020-08-25T08:39:59.824Z</time>
      </trkpt>
      <trkpt lat="43.96146" lon="2.22274">
        <ele>249</ele>
        <time>2020-08-25T08:40:00.824Z</time>
      </trkpt>
      <trkpt lat="43.96147" lon="2.22275">
        <ele>249</ele>
        <time>2020-08-25T08:40:01.824Z</time>
      </trkpt>
      <trkpt lat="43.96148" lon="2.22275">
        <ele>249</ele>
        <time>2020-08-25T08:40:02.824Z</time>
      </trkpt>
      <trkpt lat="43.96149" lon="2.22275">
        <ele>249</ele>
        <time>2020-08-25T08:40:03.824Z</time>
      </trkpt>
      <trkpt lat="43.9615" lon="2.22275">
        <ele>249</ele>
        <time>2020-08-25T08:40:04.824Z</time>
      </trkpt>
      <trkpt lat="43.96151" lon="2.22275">
        <ele>249</ele>
        <time>2020-08-25T08:40:05.824Z</time>
      </trkpt>
      <trkpt lat="43.96152" lon="2.22275">
        <ele>249</ele>
        <time>2020-08-25T08:40:06.824Z</time>
      </trkpt>
      <trkpt lat="43.96153" lon="2.22275">
        <ele>249</ele>
        <time>2020-08-25T08:40:07.824Z</time>
      </trkpt>
      <trkpt lat="43.96154" lon="2.22275">
        <ele>249</ele>
        <time>2020-08-25T08:40:08.824Z</time>
      </trkpt>
      <trkpt lat="43.96155" lon="2.22275">
        <ele>248</ele>
        <time>2020-08-25T08:40:09.824Z</time>
      </trkpt>
      <trkpt lat="43.96156" lon="2.22275">
        <ele>248</ele>
        <time>2020-08-25T08:40:10.824Z</time>
      </trkpt>
      <trkpt lat="43.96156" lon="2.22276">
        <ele>248</ele>
        <time>2020-08-25T08:40:11.824Z</time>
      </trkpt>
      <trkpt lat="43.96157" lon="2.22276">
        <ele>248</ele>
        <time>2020-08-25T08:40:12.824Z</time>
      </trkpt>
      <trkpt lat="43.96157" lon="2.22277">
        <ele>248</ele>
        <time>2020-08-25T08:40:13.824Z</time>
      </trkpt>
      <trkpt lat="43.96158" lon="2.22278">
        <ele>248</ele>
        <time>2020-08-25T08:40:14.824Z</time>
      </trkpt>
      <trkpt lat="43.96158" lon="2.22279">
        <ele>248</ele>
        <time>2020-08-25T08:40:15.824Z</time>
      </trkpt>
      <trkpt lat="43.96158" lon="2.2228">
        <ele>248</ele>
        <time>2020-08-25T08:40:16.824Z</time>
      </trkpt>
      <trkpt lat="43.96158" lon="2.22281">
        <ele>247</ele>
        <time>2020-08-25T08:40:17.824Z</time>
      </trkpt>
      <trkpt lat="43.96158" lon="2.22282">
        <ele>247</ele>
        <time>2020-08-25T08:40:18.824Z</time>
      </trkpt>
      <trkpt lat="43.96159" lon="2.22283">
        <ele>247</ele>
        <time>2020-08-25T08:40:19.824Z</time>
      </trkpt>
      <trkpt lat="43.96158" lon="2.22283">
        <ele>247</ele>
        <time>2020-08-25T08:40:20.824Z</time>
      </trkpt>
      <trkpt lat="43.96158" lon="2.22284">
        <ele>247</ele>
        <time>2020-08-25T08:40:21.824Z</time>
      </trkpt>
      <trkpt lat="43.96158" lon="2.22285">
        <ele>247</ele>
        <time>2020-08-25T08:40:22.824Z</time>
      </trkpt>
      <trkpt lat="43.96158" lon="2.22286">
        <ele>246</ele>
        <time>2020-08-25T08:40:23.824Z</time>
      </trkpt>
      <trkpt lat="43.96159" lon="2.22287">
        <ele>246</ele>
        <time>2020-08-25T08:40:24.824Z</time>
      </trkpt>
      <trkpt lat="43.96159" lon="2.22287">
        <ele>246</ele>
        <time>2020-08-25T08:40:25.824Z</time>
      </trkpt>
      <trkpt lat="43.96159" lon="2.22288">
        <ele>246</ele>
        <time>2020-08-25T08:40:26.824Z</time>
      </trkpt>
      <trkpt lat="43.9616" lon="2.22289">
        <ele>246</ele>
        <time>2020-08-25T08:40:27.824Z</time>
      </trkpt>
      <trkpt lat="43.9616" lon="2.22289">
        <ele>245</ele>
        <time>2020-08-25T08:40:28.824Z</time>
      </trkpt>
      <trkpt lat="43.9616" lon="2.22289">
        <ele>245</ele>
        <time>2020-08-25T08:40:29.824Z</time>
      </trkpt>
      <trkpt lat="43.96162" lon="2.2229">
        <ele>245</ele>
        <time>2020-08-25T08:40:33.050Z</time>
      </trkpt>
      <trkpt lat="43.96162" lon="2.22291">
        <ele>245</ele>
        <time>2020-08-25T08:40:34.050Z</time>
      </trkpt>
      <trkpt lat="43.96163" lon="2.22292">
        <ele>245</ele>
        <time>2020-08-25T08:40:35.050Z</time>
      </trkpt>
      <trkpt lat="43.96163" lon="2.22292">
        <ele>245</ele>
        <time>2020-08-25T08:40:36.050Z</time>
      </trkpt>
      <trkpt lat="43.96164" lon="2.22292">
        <ele>245</ele>
        <time>2020-08-25T08:40:37.050Z</time>
      </trkpt>
      <trkpt lat="43.96165" lon="2.22292">
        <ele>245</ele>
        <time>2020-08-25T08:40:38.050Z</time>
      </trkpt>
      <trkpt lat="43.96165" lon="2.22292">
        <ele>245</ele>
        <time>2020-08-25T08:40:39.050Z</time>
      </trkpt>
      <trkpt lat="43.96166" lon="2.22292">
        <ele>245</ele>
        <time>2020-08-25T08:40:40.050Z</time>
      </trkpt>
      <trkpt lat="43.96167" lon="2.22292">
        <ele>244</ele>
        <time>2020-08-25T08:40:41.050Z</time>
      </trkpt>
      <trkpt lat="43.96167" lon="2.22292">
        <ele>244</ele>
        <time>2020-08-25T08:40:42.050Z</time>
      </trkpt>
      <trkpt lat="43.96168" lon="2.22292">
        <ele>244</ele>
        <time>2020-08-25T08:40:43.050Z</time>
      </trkpt>
      <trkpt lat="43.96169" lon="2.22292">
        <ele>244</ele>
        <time>2020-08-25T08:40:44.050Z</time>
      </trkpt>
      <trkpt lat="43.9617" lon="2.22292">
        <ele>244</ele>
        <time>2020-08-25T08:40:45.050Z</time>
      </trkpt>
      <trkpt lat="43.96171" lon="2.22292">
        <ele>244</ele>
        <time>2020-08-25T08:40:46.050Z</time>
      </trkpt>
      <trkpt lat="43.96172" lon="2.22292">
        <ele>244</ele>
        <time>2020-08-25T08:40:47.050Z</time>
      </trkpt>
      <trkpt lat="43.96172" lon="2.22292">
        <ele>244</ele>
        <time>2020-08-25T08:40:48.050Z</time>
      </trkpt>
      <trkpt lat="43.96173" lon="2.22292">
        <ele>244</ele>
        <time>2020-08-25T08:40:49.050Z</time>
      </trkpt>
      <trkpt lat="43.96174" lon="2.22292">
        <ele>244</ele>
        <time>2020-08-25T08:40:50.050Z</time>
      </trkpt>
      <trkpt lat="43.96175" lon="2.22292">
        <ele>244</ele>
        <time>2020-08-25T08:40:51.050Z</time>
      </trkpt>
      <trkpt lat="43.96176" lon="2.22292">
        <ele>244</ele>
        <time>2020-08-25T08:40:52.050Z</time>
      </trkpt>
      <trkpt lat="43.96176" lon="2.22293">
        <ele>244</ele>
        <time>2020-08-25T08:40:53.050Z</time>
      </trkpt>
      <trkpt lat="43.96177" lon="2.22294">
        <ele>244</ele>
        <time>2020-08-25T08:40:54.050Z</time>
      </trkpt>
      <trkpt lat="43.96177" lon="2.22294">
        <ele>243</ele>
        <time>2020-08-25T08:40:55.050Z</time>
      </trkpt>
      <trkpt lat="43.96178" lon="2.22295">
        <ele>243</ele>
        <time>2020-08-25T08:40:56.050Z</time>
      </trkpt>
      <trkpt lat="43.96178" lon="2.22295">
        <ele>243</ele>
        <time>2020-08-25T08:40:57.050Z</time>
      </trkpt>
      <trkpt lat="43.96179" lon="2.22295">
        <ele>243</ele>
        <time>2020-08-25T08:40:58.050Z</time>
      </trkpt>
      <trkpt lat="43.9618" lon="2.22296">
        <ele>243</ele>
        <time>2020-08-25T08:40:59.050Z</time>
      </trkpt>
      <trkpt lat="43.9618" lon="2.22296">
        <ele>243</ele>
        <time>2020-08-25T08:41:00.050Z</time>
      </trkpt>
      <trkpt lat="43.96181" lon="2.22296">
        <ele>243</ele>
        <time>2020-08-25T08:41:01.050Z</time>
      </trkpt>
      <trkpt lat="43.96182" lon="2.22296">
        <ele>243</ele>
        <time>2020-08-25T08:41:02.050Z</time>
      </trkpt>
      <trkpt lat="43.96183" lon="2.22297">
        <ele>243</ele>
        <time>2020-08-25T08:41:03.050Z</time>
      </trkpt>
      <trkpt lat="43.96184" lon="2.22297">
        <ele>243</ele>
        <time>2020-08-25T08:41:04.050Z</time>
      </trkpt>
      <trkpt lat="43.96184" lon="2.22298">
        <ele>243</ele>
        <time>2020-08-25T08:41:05.050Z</time>
      </trkpt>
      <trkpt lat="43.96185" lon="2.22298">
        <ele>243</ele>
        <time>2020-08-25T08:41:06.050Z</time>
      </trkpt>
      <trkpt lat="43.96185" lon="2.22298">
        <ele>243</ele>
        <time>2020-08-25T08:41:07.050Z</time>
      </trkpt>
      <trkpt lat="43.96186" lon="2.22298">
        <ele>243</ele>
        <time>2020-08-25T08:41:08.050Z</time>
      </trkpt>
      <trkpt lat="43.96186" lon="2.22298">
        <ele>243</ele>
        <time>2020-08-25T08:41:09.050Z</time>
      </trkpt>
      <trkpt lat="43.96187" lon="2.22297">
        <ele>243</ele>
        <time>2020-08-25T08:41:10.050Z</time>
      </trkpt>
      <trkpt lat="43.96188" lon="2.22297">
        <ele>243</ele>
        <time>2020-08-25T08:41:11.050Z</time>
      </trkpt>
      <trkpt lat="43.96189" lon="2.22297">
        <ele>243</ele>
        <time>2020-08-25T08:41:12.050Z</time>
      </trkpt>
      <trkpt lat="43.9619" lon="2.22297">
        <ele>243</ele>
        <time>2020-08-25T08:41:13.050Z</time>
      </trkpt>
      <trkpt lat="43.9619" lon="2.22298">
        <ele>243</ele>
        <time>2020-08-25T08:41:14.050Z</time>
      </trkpt>
      <trkpt lat="43.96191" lon="2.22298">
        <ele>243</ele>
        <time>2020-08-25T08:41:15.050Z</time>
      </trkpt>
      <trkpt lat="43.96192" lon="2.22297">
        <ele>243</ele>
        <time>2020-08-25T08:41:16.050Z</time>
      </trkpt>
      <trkpt lat="43.96193" lon="2.22297">
        <ele>243</ele>
        <time>2020-08-25T08:41:17.050Z</time>
      </trkpt>
      <trkpt lat="43.96194" lon="2.22297">
        <ele>243</ele>
        <time>2020-08-25T08:41:18.050Z</time>
      </trkpt>
      <trkpt lat="43.96194" lon="2.22297">
        <ele>243</ele>
        <time>2020-08-25T08:41:19.050Z</time>
      </trkpt>
      <trkpt lat="43.96195" lon="2.22296">
        <ele>243</ele>
        <time>2020-08-25T08:41:20.050Z</time>
      </trkpt>
      <trkpt lat="43.96195" lon="2.22296">
        <ele>243</ele>
        <time>2020-08-25T08:41:21.050Z</time>
      </trkpt>
      <trkpt lat="43.96196" lon="2.22296">
        <ele>243</ele>
        <time>2020-08-25T08:41:22.050Z</time>
      </trkpt>
      <trkpt lat="43.96196" lon="2.22296">
        <ele>243</ele>
        <time>2020-08-25T08:41:23.050Z</time>
      </trkpt>
      <trkpt lat="43.96198" lon="2.22297">
        <ele>243</ele>
        <time>2020-08-25T08:41:28.051Z</time>
      </trkpt>
      <trkpt lat="43.96198" lon="2.22298">
        <ele>243</ele>
        <time>2020-08-25T08:41:29.051Z</time>
      </trkpt>
      <trkpt lat="43.96198" lon="2.22299">
        <ele>243</ele>
        <time>2020-08-25T08:41:30.051Z</time>
      </trkpt>
      <trkpt lat="43.96199" lon="2.22301">
        <ele>243</ele>
        <time>2020-08-25T08:41:35.053Z</time>
      </trkpt>
      <trkpt lat="43.962" lon="2.22301">
        <ele>243</ele>
        <time>2020-08-25T08:41:36.053Z</time>
      </trkpt>
      <trkpt lat="43.962" lon="2.22301">
        <ele>243</ele>
        <time>2020-08-25T08:41:37.053Z</time>
      </trkpt>
      <trkpt lat="43.96201" lon="2.22301">
        <ele>243</ele>
        <time>2020-08-25T08:41:38.053Z</time>
      </trkpt>
      <trkpt lat="43.96202" lon="2.22302">
        <ele>243</ele>
        <time>2020-08-25T08:41:39.053Z</time>
      </trkpt>
      <trkpt lat="43.96202" lon="2.22302">
        <ele>243</ele>
        <time>2020-08-25T08:41:40.053Z</time>
      </trkpt>
      <trkpt lat="43.96203" lon="2.22302">
        <ele>243</ele>
        <time>2020-08-25T08:41:41.053Z</time>
      </trkpt>
      <trkpt lat="43.96205" lon="2.22303">
        <ele>242</ele>
        <time>2020-08-25T08:41:44.279Z</time>
      </trkpt>
      <trkpt lat="43.96205" lon="2.22303">
        <ele>242</ele>
        <time>2020-08-25T08:41:45.279Z</time>
      </trkpt>
      <trkpt lat="43.96206" lon="2.22304">
        <ele>242</ele>
        <time>2020-08-25T08:41:46.279Z</time>
      </trkpt>
      <trkpt lat="43.96207" lon="2.22304">
        <ele>242</ele>
        <time>2020-08-25T08:41:47.279Z</time>
      </trkpt>
      <trkpt lat="43.96208" lon="2.22304">
        <ele>242</ele>
        <time>2020-08-25T08:41:48.279Z</time>
      </trkpt>
      <trkpt lat="43.96208" lon="2.22305">
        <ele>242</ele>
        <time>2020-08-25T08:41:49.279Z</time>
      </trkpt>
      <trkpt lat="43.96209" lon="2.22305">
        <ele>242</ele>
        <time>2020-08-25T08:41:50.279Z</time>
      </trkpt>
      <trkpt lat="43.9621" lon="2.22305">
        <ele>242</ele>
        <time>2020-08-25T08:41:51.279Z</time>
      </trkpt>
      <trkpt lat="43.96211" lon="2.22305">
        <ele>242</ele>
        <time>2020-08-25T08:41:52.279Z</time>
      </trkpt>
      <trkpt lat="43.96212" lon="2.22305">
        <ele>241</ele>
        <time>2020-08-25T08:41:53.279Z</time>
      </trkpt>
      <trkpt lat="43.96213" lon="2.22305">
        <ele>241</ele>
        <time>2020-08-25T08:41:54.279Z</time>
      </trkpt>
      <trkpt lat="43.96214" lon="2.22305">
        <ele>241</ele>
        <time>2020-08-25T08:41:55.279Z</time>
      </trkpt>
      <trkpt lat="43.96214" lon="2.22305">
        <ele>241</ele>
        <time>2020-08-25T08:41:56.279Z</time>
      </trkpt>
      <trkpt lat="43.96215" lon="2.22306">
        <ele>241</ele>
        <time>2020-08-25T08:41:57.279Z</time>
      </trkpt>
      <trkpt lat="43.96216" lon="2.22306">
        <ele>240</ele>
        <time>2020-08-25T08:41:58.279Z</time>
      </trkpt>
      <trkpt lat="43.96216" lon="2.22307">
        <ele>240</ele>
        <time>2020-08-25T08:41:59.279Z</time>
      </trkpt>
      <trkpt lat="43.96217" lon="2.22307">
        <ele>240</ele>
        <time>2020-08-25T08:42:00.279Z</time>
      </trkpt>
      <trkpt lat="43.96218" lon="2.22307">
        <ele>240</ele>
        <time>2020-08-25T08:42:01.279Z</time>
      </trkpt>
      <trkpt lat="43.96219" lon="2.22307">
        <ele>240</ele>
        <time>2020-08-25T08:42:02.279Z</time>
      </trkpt>
      <trkpt lat="43.96219" lon="2.22308">
        <ele>240</ele>
        <time>2020-08-25T08:42:03.279Z</time>
      </trkpt>
      <trkpt lat="43.9622" lon="2.22308">
        <ele>239</ele>
        <time>2020-08-25T08:42:04.279Z</time>
      </trkpt>
      <trkpt lat="43.96221" lon="2.22308">
        <ele>239</ele>
        <time>2020-08-25T08:42:05.279Z</time>
      </trkpt>
      <trkpt lat="43.96222" lon="2.22309">
        <ele>239</ele>
        <time>2020-08-25T08:42:06.279Z</time>
      </trkpt>
      <trkpt lat="43.96222" lon="2.22309">
        <ele>239</ele>
        <time>2020-08-25T08:42:07.279Z</time>
      </trkpt>
      <trkpt lat="43.96223" lon="2.22309">
        <ele>239</ele>
        <time>2020-08-25T08:42:08.279Z</time>
      </trkpt>
      <trkpt lat="43.96224" lon="2.22309">
        <ele>239</ele>
        <time>2020-08-25T08:42:09.279Z</time>
      </trkpt>
      <trkpt lat="43.96224" lon="2.22309">
        <ele>239</ele>
        <time>2020-08-25T08:42:10.279Z</time>
      </trkpt>
      <trkpt lat="43.96225" lon="2.22308">
        <ele>238</ele>
        <time>2020-08-25T08:42:11.279Z</time>
      </trkpt>
      <trkpt lat="43.96226" lon="2.22308">
        <ele>238</ele>
        <time>2020-08-25T08:42:12.279Z</time>
      </trkpt>
      <trkpt lat="43.96226" lon="2.22308">
        <ele>238</ele>
        <time>2020-08-25T08:42:13.279Z</time>
      </trkpt>
      <trkpt lat="43.96227" lon="2.22308">
        <ele>238</ele>
        <time>2020-08-25T08:42:14.279Z</time>
      </trkpt>
      <trkpt lat="43.96228" lon="2.22308">
        <ele>238</ele>
        <time>2020-08-25T08:42:15.279Z</time>
      </trkpt>
      <trkpt lat="43.96229" lon="2.22308">
        <ele>238</ele>
        <time>2020-08-25T08:42:16.279Z</time>
      </trkpt>
      <trkpt lat="43.96229" lon="2.22308">
        <ele>237</ele>
        <time>2020-08-25T08:42:17.279Z</time>
      </trkpt>
      <trkpt lat="43.9623" lon="2.22308">
        <ele>237</ele>
        <time>2020-08-25T08:42:18.279Z</time>
      </trkpt>
      <trkpt lat="43.96231" lon="2.22307">
        <ele>237</ele>
        <time>2020-08-25T08:42:19.279Z</time>
      </trkpt>
      <trkpt lat="43.96232" lon="2.22307">
        <ele>237</ele>
        <time>2020-08-25T08:42:20.279Z</time>
      </trkpt>
      <trkpt lat="43.96232" lon="2.22307">
        <ele>237</ele>
        <time>2020-08-25T08:42:21.279Z</time>
      </trkpt>
      <trkpt lat="43.96233" lon="2.22306">
        <ele>237</ele>
        <time>2020-08-25T08:42:22.279Z</time>
      </trkpt>
      <trkpt lat="43.96233" lon="2.22306">
        <ele>237</ele>
        <time>2020-08-25T08:42:23.279Z</time>
      </trkpt>
      <trkpt lat="43.96234" lon="2.22305">
        <ele>237</ele>
        <time>2020-08-25T08:42:24.279Z</time>
      </trkpt>
      <trkpt lat="43.96235" lon="2.22305">
        <ele>237</ele>
        <time>2020-08-25T08:42:25.279Z</time>
      </trkpt>
      <trkpt lat="43.96235" lon="2.22304">
        <ele>237</ele>
        <time>2020-08-25T08:42:26.279Z</time>
      </trkpt>
      <trkpt lat="43.96236" lon="2.22304">
        <ele>237</ele>
        <time>2020-08-25T08:42:27.279Z</time>
      </trkpt>
      <trkpt lat="43.96237" lon="2.22303">
        <ele>237</ele>
        <time>2020-08-25T08:42:28.279Z</time>
      </trkpt>
      <trkpt lat="43.96238" lon="2.22303">
        <ele>237</ele>
        <time>2020-08-25T08:42:29.279Z</time>
      </trkpt>
      <trkpt lat="43.96239" lon="2.22302">
        <ele>237</ele>
        <time>2020-08-25T08:42:30.279Z</time>
      </trkpt>
      <trkpt lat="43.96239" lon="2.22301">
        <ele>236</ele>
        <time>2020-08-25T08:42:31.279Z</time>
      </trkpt>
      <trkpt lat="43.9624" lon="2.22301">
        <ele>236</ele>
        <time>2020-08-25T08:42:32.279Z</time>
      </trkpt>
      <trkpt lat="43.9624" lon="2.223">
        <ele>236</ele>
        <time>2020-08-25T08:42:33.279Z</time>
      </trkpt>
      <trkpt lat="43.96241" lon="2.223">
        <ele>236</ele>
        <time>2020-08-25T08:42:34.279Z</time>
      </trkpt>
      <trkpt lat="43.96241" lon="2.22299">
        <ele>236</ele>
        <time>2020-08-25T08:42:35.279Z</time>
      </trkpt>
      <trkpt lat="43.96242" lon="2.22299">
        <ele>236</ele>
        <time>2020-08-25T08:42:36.279Z</time>
      </trkpt>
      <trkpt lat="43.96243" lon="2.22299">
        <ele>236</ele>
        <time>2020-08-25T08:42:37.279Z</time>
      </trkpt>
      <trkpt lat="43.96243" lon="2.22298">
        <ele>236</ele>
        <time>2020-08-25T08:42:38.279Z</time>
      </trkpt>
      <trkpt lat="43.96244" lon="2.22298">
        <ele>236</ele>
        <time>2020-08-25T08:42:39.279Z</time>
      </trkpt>
      <trkpt lat="43.96245" lon="2.22298">
        <ele>236</ele>
        <time>2020-08-25T08:42:40.279Z</time>
      </trkpt>
      <trkpt lat="43.96246" lon="2.22297">
        <ele>236</ele>
        <time>2020-08-25T08:42:41.279Z</time>
      </trkpt>
      <trkpt lat="43.96247" lon="2.22296">
        <ele>236</ele>
        <time>2020-08-25T08:42:42.279Z</time>
      </trkpt>
      <trkpt lat="43.96248" lon="2.22295">
        <ele>236</ele>
        <time>2020-08-25T08:42:43.279Z</time>
      </trkpt>
      <trkpt lat="43.96249" lon="2.22295">
        <ele>236</ele>
        <time>2020-08-25T08:42:44.279Z</time>
      </trkpt>
      <trkpt lat="43.9625" lon="2.22294">
        <ele>236</ele>
        <time>2020-08-25T08:42:45.279Z</time>
      </trkpt>
      <trkpt lat="43.96251" lon="2.22294">
        <ele>236</ele>
        <time>2020-08-25T08:42:46.279Z</time>
      </trkpt>
      <trkpt lat="43.96252" lon="2.22293">
        <ele>236</ele>
        <time>2020-08-25T08:42:47.279Z</time>
      </trkpt>
      <trkpt lat="43.96253" lon="2.22293">
        <ele>236</ele>
        <time>2020-08-25T08:42:48.279Z</time>
      </trkpt>
      <trkpt lat="43.96254" lon="2.22292">
        <ele>236</ele>
        <time>2020-08-25T08:42:49.279Z</time>
      </trkpt>
      <trkpt lat="43.96254" lon="2.22291">
        <ele>236</ele>
        <time>2020-08-25T08:42:50.279Z</time>
      </trkpt>
      <trkpt lat="43.96255" lon="2.2229">
        <ele>235</ele>
        <time>2020-08-25T08:42:51.279Z</time>
      </trkpt>
      <trkpt lat="43.96256" lon="2.2229">
        <ele>235</ele>
        <time>2020-08-25T08:42:52.279Z</time>
      </trkpt>
      <trkpt lat="43.96257" lon="2.22289">
        <ele>235</ele>
        <time>2020-08-25T08:42:53.279Z</time>
      </trkpt>
      <trkpt lat="43.96257" lon="2.22289">
        <ele>235</ele>
        <time>2020-08-25T08:42:54.279Z</time>
      </trkpt>
      <trkpt lat="43.96257" lon="2.22289">
        <ele>235</ele>
        <time>2020-08-25T08:42:55.279Z</time>
      </trkpt>
      <trkpt lat="43.96258" lon="2.22288">
        <ele>235</ele>
        <time>2020-08-25T08:42:56.279Z</time>
      </trkpt>
      <trkpt lat="43.96259" lon="2.22288">
        <ele>235</ele>
        <time>2020-08-25T08:42:57.279Z</time>
      </trkpt>
      <trkpt lat="43.96259" lon="2.22287">
        <ele>235</ele>
        <time>2020-08-25T08:42:58.279Z</time>
      </trkpt>
      <trkpt lat="43.9626" lon="2.22286">
        <ele>235</ele>
        <time>2020-08-25T08:42:59.279Z</time>
      </trkpt>
      <trkpt lat="43.96261" lon="2.22285">
        <ele>235</ele>
        <time>2020-08-25T08:43:00.279Z</time>
      </trkpt>
      <trkpt lat="43.96262" lon="2.22284">
        <ele>235</ele>
        <time>2020-08-25T08:43:01.279Z</time>
      </trkpt>
      <trkpt lat="43.96263" lon="2.22283">
        <ele>235</ele>
        <time>2020-08-25T08:43:02.279Z</time>
      </trkpt>
      <trkpt lat="43.96264" lon="2.22283">
        <ele>235</ele>
        <time>2020-08-25T08:43:03.279Z</time>
      </trkpt>
      <trkpt lat="43.96265" lon="2.22282">
        <ele>235</ele>
        <time>2020-08-25T08:43:04.279Z</time>
      </trkpt>
      <trkpt lat="43.96266" lon="2.22282">
        <ele>235</ele>
        <time>2020-08-25T08:43:05.279Z</time>
      </trkpt>
      <trkpt lat="43.96267" lon="2.22281">
        <ele>235</ele>
        <time>2020-08-25T08:43:06.279Z</time>
      </trkpt>
      <trkpt lat="43.96267" lon="2.2228">
        <ele>235</ele>
        <time>2020-08-25T08:43:07.279Z</time>
      </trkpt>
      <trkpt lat="43.96268" lon="2.2228">
        <ele>235</ele>
        <time>2020-08-25T08:43:08.279Z</time>
      </trkpt>
      <trkpt lat="43.96269" lon="2.22279">
        <ele>235</ele>
        <time>2020-08-25T08:43:09.279Z</time>
      </trkpt>
      <trkpt lat="43.9627" lon="2.22279">
        <ele>235</ele>
        <time>2020-08-25T08:43:10.279Z</time>
      </trkpt>
      <trkpt lat="43.9627" lon="2.22279">
        <ele>235</ele>
        <time>2020-08-25T08:43:11.279Z</time>
      </trkpt>
      <trkpt lat="43.96271" lon="2.22278">
        <ele>235</ele>
        <time>2020-08-25T08:43:12.279Z</time>
      </trkpt>
      <trkpt lat="43.96272" lon="2.22278">
        <ele>235</ele>
        <time>2020-08-25T08:43:13.279Z</time>
      </trkpt>
      <trkpt lat="43.96272" lon="2.22277">
        <ele>235</ele>
        <time>2020-08-25T08:43:14.279Z</time>
      </trkpt>
      <trkpt lat="43.96273" lon="2.22277">
        <ele>235</ele>
        <time>2020-08-25T08:43:15.279Z</time>
      </trkpt>
      <trkpt lat="43.96274" lon="2.22277">
        <ele>235</ele>
        <time>2020-08-25T08:43:16.279Z</time>
      </trkpt>
      <trkpt lat="43.96274" lon="2.22276">
        <ele>235</ele>
        <time>2020-08-25T08:43:17.279Z</time>
      </trkpt>
      <trkpt lat="43.96275" lon="2.22276">
        <ele>235</ele>
        <time>2020-08-25T08:43:18.279Z</time>
      </trkpt>
      <trkpt lat="43.96276" lon="2.22276">
        <ele>235</ele>
        <time>2020-08-25T08:43:19.279Z</time>
      </trkpt>
      <trkpt lat="43.96277" lon="2.22275">
        <ele>235</ele>
        <time>2020-08-25T08:43:20.279Z</time>
      </trkpt>
      <trkpt lat="43.96278" lon="2.22275">
        <ele>235</ele>
        <time>2020-08-25T08:43:21.279Z</time>
      </trkpt>
      <trkpt lat="43.96278" lon="2.22275">
        <ele>235</ele>
        <time>2020-08-25T08:43:22.279Z</time>
      </trkpt>
      <trkpt lat="43.96279" lon="2.22274">
        <ele>235</ele>
        <time>2020-08-25T08:43:23.279Z</time>
      </trkpt>
      <trkpt lat="43.96279" lon="2.22274">
        <ele>235</ele>
        <time>2020-08-25T08:43:24.279Z</time>
      </trkpt>
      <trkpt lat="43.96279" lon="2.22274">
        <ele>235</ele>
        <time>2020-08-25T08:43:25.279Z</time>
      </trkpt>
      <trkpt lat="43.96279" lon="2.22274">
        <ele>235</ele>
        <time>2020-08-25T08:43:26.279Z</time>
      </trkpt>
      <trkpt lat="43.96284" lon="2.22271">
        <ele>234</ele>
        <time>2020-08-25T08:44:11.280Z</time>
      </trkpt>
      <trkpt lat="43.96285" lon="2.22271">
        <ele>234</ele>
        <time>2020-08-25T08:44:12.280Z</time>
      </trkpt>
      <trkpt lat="43.96285" lon="2.2227">
        <ele>234</ele>
        <time>2020-08-25T08:44:13.280Z</time>
      </trkpt>
      <trkpt lat="43.96286" lon="2.2227">
        <ele>234</ele>
        <time>2020-08-25T08:44:14.280Z</time>
      </trkpt>
      <trkpt lat="43.96287" lon="2.22271">
        <ele>234</ele>
        <time>2020-08-25T08:44:15.280Z</time>
      </trkpt>
      <trkpt lat="43.96288" lon="2.22271">
        <ele>234</ele>
        <time>2020-08-25T08:44:16.280Z</time>
      </trkpt>
      <trkpt lat="43.96289" lon="2.2227">
        <ele>234</ele>
        <time>2020-08-25T08:44:17.280Z</time>
      </trkpt>
      <trkpt lat="43.9629" lon="2.2227">
        <ele>234</ele>
        <time>2020-08-25T08:44:18.280Z</time>
      </trkpt>
      <trkpt lat="43.9629" lon="2.2227">
        <ele>233</ele>
        <time>2020-08-25T08:44:19.280Z</time>
      </trkpt>
      <trkpt lat="43.96291" lon="2.2227">
        <ele>233</ele>
        <time>2020-08-25T08:44:20.280Z</time>
      </trkpt>
      <trkpt lat="43.96292" lon="2.2227">
        <ele>233</ele>
        <time>2020-08-25T08:44:21.280Z</time>
      </trkpt>
      <trkpt lat="43.96292" lon="2.2227">
        <ele>233</ele>
        <time>2020-08-25T08:44:22.280Z</time>
      </trkpt>
      <trkpt lat="43.96293" lon="2.22269">
        <ele>233</ele>
        <time>2020-08-25T08:44:23.280Z</time>
      </trkpt>
      <trkpt lat="43.96293" lon="2.22269">
        <ele>233</ele>
        <time>2020-08-25T08:44:24.280Z</time>
      </trkpt>
      <trkpt lat="43.96294" lon="2.22268">
        <ele>233</ele>
        <time>2020-08-25T08:44:25.280Z</time>
      </trkpt>
      <trkpt lat="43.96294" lon="2.22268">
        <ele>233</ele>
        <time>2020-08-25T08:44:26.280Z</time>
      </trkpt>
      <trkpt lat="43.96294" lon="2.22268">
        <ele>233</ele>
        <time>2020-08-25T08:44:27.280Z</time>
      </trkpt>
      <trkpt lat="43.96294" lon="2.22268">
        <ele>233</ele>
        <time>2020-08-25T08:44:28.280Z</time>
      </trkpt>
      <trkpt lat="43.96295" lon="2.22267">
        <ele>233</ele>
        <time>2020-08-25T08:44:29.280Z</time>
      </trkpt>
      <trkpt lat="43.96295" lon="2.22267">
        <ele>233</ele>
        <time>2020-08-25T08:44:30.280Z</time>
      </trkpt>
      <trkpt lat="43.96296" lon="2.22267">
        <ele>233</ele>
        <time>2020-08-25T08:44:31.280Z</time>
      </trkpt>
      <trkpt lat="43.96296" lon="2.22267">
        <ele>233</ele>
        <time>2020-08-25T08:44:32.280Z</time>
      </trkpt>
      <trkpt lat="43.96297" lon="2.22267">
        <ele>233</ele>
        <time>2020-08-25T08:44:33.280Z</time>
      </trkpt>
      <trkpt lat="43.96297" lon="2.22266">
        <ele>233</ele>
        <time>2020-08-25T08:44:34.280Z</time>
      </trkpt>
      <trkpt lat="43.96298" lon="2.22266">
        <ele>233</ele>
        <time>2020-08-25T08:44:35.280Z</time>
      </trkpt>
      <trkpt lat="43.96298" lon="2.22266">
        <ele>233</ele>
        <time>2020-08-25T08:44:36.280Z</time>
      </trkpt>
      <trkpt lat="43.96299" lon="2.22266">
        <ele>233</ele>
        <time>2020-08-25T08:44:37.280Z</time>
      </trkpt>
      <trkpt lat="43.96299" lon="2.22266">
        <ele>233</ele>
        <time>2020-08-25T08:44:38.280Z</time>
      </trkpt>
      <trkpt lat="43.963" lon="2.22266">
        <ele>233</ele>
        <time>2020-08-25T08:44:39.280Z</time>
      </trkpt>
      <trkpt lat="43.963" lon="2.22266">
        <ele>233</ele>
        <time>2020-08-25T08:44:40.280Z</time>
      </trkpt>
      <trkpt lat="43.96301" lon="2.22265">
        <ele>233</ele>
        <time>2020-08-25T08:44:41.280Z</time>
      </trkpt>
      <trkpt lat="43.96302" lon="2.22265">
        <ele>233</ele>
        <time>2020-08-25T08:44:42.280Z</time>
      </trkpt>
      <trkpt lat="43.96302" lon="2.22265">
        <ele>233</ele>
        <time>2020-08-25T08:44:43.280Z</time>
      </trkpt>
      <trkpt lat="43.96303" lon="2.22264">
        <ele>233</ele>
        <time>2020-08-25T08:44:44.280Z</time>
      </trkpt>
      <trkpt lat="43.96304" lon="2.22264">
        <ele>233</ele>
        <time>2020-08-25T08:44:45.280Z</time>
      </trkpt>
      <trkpt lat="43.96305" lon="2.22263">
        <ele>233</ele>
        <time>2020-08-25T08:44:46.280Z</time>
      </trkpt>
      <trkpt lat="43.96305" lon="2.22263">
        <ele>233</ele>
        <time>2020-08-25T08:44:47.280Z</time>
      </trkpt>
      <trkpt lat="43.96305" lon="2.22263">
        <ele>233</ele>
        <time>2020-08-25T08:44:48.280Z</time>
      </trkpt>
      <trkpt lat="43.96305" lon="2.22263">
        <ele>233</ele>
        <time>2020-08-25T08:44:49.280Z</time>
      </trkpt>
      <trkpt lat="43.96305" lon="2.22263">
        <ele>233</ele>
        <time>2020-08-25T08:44:50.280Z</time>
      </trkpt>
      <trkpt lat="43.96307" lon="2.22262">
        <ele>233</ele>
        <time>2020-08-25T08:44:58.286Z</time>
      </trkpt>
      <trkpt lat="43.96308" lon="2.22262">
        <ele>233</ele>
        <time>2020-08-25T08:44:59.286Z</time>
      </trkpt>
      <trkpt lat="43.96309" lon="2.22261">
        <ele>233</ele>
        <time>2020-08-25T08:45:00.286Z</time>
      </trkpt>
      <trkpt lat="43.96309" lon="2.22261">
        <ele>233</ele>
        <time>2020-08-25T08:45:01.286Z</time>
      </trkpt>
      <trkpt lat="43.9631" lon="2.22261">
        <ele>233</ele>
        <time>2020-08-25T08:45:02.286Z</time>
      </trkpt>
      <trkpt lat="43.9631" lon="2.22262">
        <ele>233</ele>
        <time>2020-08-25T08:45:03.286Z</time>
      </trkpt>
      <trkpt lat="43.9631" lon="2.22262">
        <ele>233</ele>
        <time>2020-08-25T08:45:04.286Z</time>
      </trkpt>
      <trkpt lat="43.9631" lon="2.22262">
        <ele>232</ele>
        <time>2020-08-25T08:45:05.286Z</time>
      </trkpt>
      <trkpt lat="43.96312" lon="2.22264">
        <ele>232</ele>
        <time>2020-08-25T08:45:08.513Z</time>
      </trkpt>
      <trkpt lat="43.96312" lon="2.22264">
        <ele>232</ele>
        <time>2020-08-25T08:45:09.513Z</time>
      </trkpt>
      <trkpt lat="43.96313" lon="2.22267">
        <ele>232</ele>
        <time>2020-08-25T08:45:12.740Z</time>
      </trkpt>
      <trkpt lat="43.96314" lon="2.22268">
        <ele>231</ele>
        <time>2020-08-25T08:45:13.740Z</time>
      </trkpt>
      <trkpt lat="43.96314" lon="2.22268">
        <ele>231</ele>
        <time>2020-08-25T08:45:14.740Z</time>
      </trkpt>
      <trkpt lat="43.96314" lon="2.22269">
        <ele>231</ele>
        <time>2020-08-25T08:45:15.740Z</time>
      </trkpt>
      <trkpt lat="43.96315" lon="2.2227">
        <ele>230</ele>
        <time>2020-08-25T08:45:16.740Z</time>
      </trkpt>
      <trkpt lat="43.96315" lon="2.2227">
        <ele>230</ele>
        <time>2020-08-25T08:45:17.740Z</time>
      </trkpt>
      <trkpt lat="43.96316" lon="2.2227">
        <ele>230</ele>
        <time>2020-08-25T08:45:18.740Z</time>
      </trkpt>
      <trkpt lat="43.96318" lon="2.22273">
        <ele>229</ele>
        <time>2020-08-25T08:45:24.748Z</time>
      </trkpt>
      <trkpt lat="43.96319" lon="2.22273">
        <ele>228</ele>
        <time>2020-08-25T08:45:25.748Z</time>
      </trkpt>
      <trkpt lat="43.96322" lon="2.22274">
        <ele>227</ele>
        <time>2020-08-25T08:45:43.755Z</time>
      </trkpt>
      <trkpt lat="43.96322" lon="2.22275">
        <ele>226</ele>
        <time>2020-08-25T08:45:44.755Z</time>
      </trkpt>
      <trkpt lat="43.96323" lon="2.22276">
        <ele>226</ele>
        <time>2020-08-25T08:45:45.755Z</time>
      </trkpt>
      <trkpt lat="43.96323" lon="2.22278">
        <ele>226</ele>
        <time>2020-08-25T08:45:46.755Z</time>
      </trkpt>
      <trkpt lat="43.96323" lon="2.22279">
        <ele>226</ele>
        <time>2020-08-25T08:45:47.755Z</time>
      </trkpt>
      <trkpt lat="43.96323" lon="2.2228">
        <ele>226</ele>
        <time>2020-08-25T08:45:48.755Z</time>
      </trkpt>
      <trkpt lat="43.96323" lon="2.22282">
        <ele>225</ele>
        <time>2020-08-25T08:45:49.755Z</time>
      </trkpt>
      <trkpt lat="43.96322" lon="2.22283">
        <ele>225</ele>
        <time>2020-08-25T08:45:50.755Z</time>
      </trkpt>
      <trkpt lat="43.96321" lon="2.22284">
        <ele>225</ele>
        <time>2020-08-25T08:45:51.755Z</time>
      </trkpt>
      <trkpt lat="43.9632" lon="2.22285">
        <ele>225</ele>
        <time>2020-08-25T08:45:52.755Z</time>
      </trkpt>
      <trkpt lat="43.9632" lon="2.22286">
        <ele>225</ele>
        <time>2020-08-25T08:45:53.755Z</time>
      </trkpt>
      <trkpt lat="43.96319" lon="2.22288">
        <ele>225</ele>
        <time>2020-08-25T08:45:54.755Z</time>
      </trkpt>
      <trkpt lat="43.96318" lon="2.22289">
        <ele>224</ele>
        <time>2020-08-25T08:45:55.755Z</time>
      </trkpt>
      <trkpt lat="43.96318" lon="2.2229">
        <ele>224</ele>
        <time>2020-08-25T08:45:56.755Z</time>
      </trkpt>
      <trkpt lat="43.96317" lon="2.22292">
        <ele>224</ele>
        <time>2020-08-25T08:45:57.755Z</time>
      </trkpt>
      <trkpt lat="43.96316" lon="2.22293">
        <ele>224</ele>
        <time>2020-08-25T08:45:58.755Z</time>
      </trkpt>
      <trkpt lat="43.96316" lon="2.22294">
        <ele>224</ele>
        <time>2020-08-25T08:45:59.755Z</time>
      </trkpt>
      <trkpt lat="43.96315" lon="2.22296">
        <ele>224</ele>
        <time>2020-08-25T08:46:00.755Z</time>
      </trkpt>
      <trkpt lat="43.96314" lon="2.22297">
        <ele>224</ele>
        <time>2020-08-25T08:46:01.755Z</time>
      </trkpt>
      <trkpt lat="43.96313" lon="2.22298">
        <ele>223</ele>
        <time>2020-08-25T08:46:02.755Z</time>
      </trkpt>
      <trkpt lat="43.96313" lon="2.22299">
        <ele>223</ele>
        <time>2020-08-25T08:46:03.755Z</time>
      </trkpt>
      <trkpt lat="43.96312" lon="2.223">
        <ele>223</ele>
        <time>2020-08-25T08:46:04.755Z</time>
      </trkpt>
      <trkpt lat="43.96311" lon="2.22301">
        <ele>223</ele>
        <time>2020-08-25T08:46:05.755Z</time>
      </trkpt>
      <trkpt lat="43.9631" lon="2.22302">
        <ele>223</ele>
        <time>2020-08-25T08:46:06.755Z</time>
      </trkpt>
      <trkpt lat="43.9631" lon="2.22304">
        <ele>223</ele>
        <time>2020-08-25T08:46:07.755Z</time>
      </trkpt>
      <trkpt lat="43.96309" lon="2.22305">
        <ele>223</ele>
        <time>2020-08-25T08:46:08.755Z</time>
      </trkpt>
      <trkpt lat="43.96308" lon="2.22306">
        <ele>223</ele>
        <time>2020-08-25T08:46:09.755Z</time>
      </trkpt>
      <trkpt lat="43.96307" lon="2.22307">
        <ele>222</ele>
        <time>2020-08-25T08:46:10.755Z</time>
      </trkpt>
      <trkpt lat="43.96306" lon="2.22309">
        <ele>222</ele>
        <time>2020-08-25T08:46:11.755Z</time>
      </trkpt>
      <trkpt lat="43.96305" lon="2.2231">
        <ele>222</ele>
        <time>2020-08-25T08:46:12.755Z</time>
      </trkpt>
      <trkpt lat="43.96304" lon="2.22311">
        <ele>222</ele>
        <time>2020-08-25T08:46:13.755Z</time>
      </trkpt>
      <trkpt lat="43.96303" lon="2.22312">
        <ele>222</ele>
        <time>2020-08-25T08:46:14.755Z</time>
      </trkpt>
      <trkpt lat="43.96302" lon="2.22313">
        <ele>222</ele>
        <time>2020-08-25T08:46:15.755Z</time>
      </trkpt>
      <trkpt lat="43.96301" lon="2.22314">
        <ele>222</ele>
        <time>2020-08-25T08:46:16.755Z</time>
      </trkpt>
      <trkpt lat="43.963" lon="2.22316">
        <ele>222</ele>
        <time>2020-08-25T08:46:17.755Z</time>
      </trkpt>
      <trkpt lat="43.96299" lon="2.22317">
        <ele>222</ele>
        <time>2020-08-25T08:46:18.755Z</time>
      </trkpt>
      <trkpt lat="43.96298" lon="2.22318">
        <ele>222</ele>
        <time>2020-08-25T08:46:19.755Z</time>
      </trkpt>
      <trkpt lat="43.96297" lon="2.22319">
        <ele>222</ele>
        <time>2020-08-25T08:46:20.755Z</time>
      </trkpt>
      <trkpt lat="43.96296" lon="2.2232">
        <ele>222</ele>
        <time>2020-08-25T08:46:21.755Z</time>
      </trkpt>
      <trkpt lat="43.96295" lon="2.22321">
        <ele>222</ele>
        <time>2020-08-25T08:46:22.755Z</time>
      </trkpt>
      <trkpt lat="43.96294" lon="2.22322">
        <ele>222</ele>
        <time>2020-08-25T08:46:23.755Z</time>
      </trkpt>
      <trkpt lat="43.96294" lon="2.22323">
        <ele>222</ele>
        <time>2020-08-25T08:46:24.755Z</time>
      </trkpt>
      <trkpt lat="43.96293" lon="2.22324">
        <ele>221</ele>
        <time>2020-08-25T08:46:25.755Z</time>
      </trkpt>
      <trkpt lat="43.96292" lon="2.22325">
        <ele>221</ele>
        <time>2020-08-25T08:46:26.755Z</time>
      </trkpt>
      <trkpt lat="43.96291" lon="2.22326">
        <ele>221</ele>
        <time>2020-08-25T08:46:27.755Z</time>
      </trkpt>
      <trkpt lat="43.9629" lon="2.22326">
        <ele>221</ele>
        <time>2020-08-25T08:46:28.755Z</time>
      </trkpt>
      <trkpt lat="43.96289" lon="2.22327">
        <ele>221</ele>
        <time>2020-08-25T08:46:29.755Z</time>
      </trkpt>
      <trkpt lat="43.96289" lon="2.22328">
        <ele>221</ele>
        <time>2020-08-25T08:46:30.755Z</time>
      </trkpt>
      <trkpt lat="43.96288" lon="2.22329">
        <ele>221</ele>
        <time>2020-08-25T08:46:31.755Z</time>
      </trkpt>
      <trkpt lat="43.96287" lon="2.2233">
        <ele>221</ele>
        <time>2020-08-25T08:46:32.755Z</time>
      </trkpt>
      <trkpt lat="43.96286" lon="2.22331">
        <ele>221</ele>
        <time>2020-08-25T08:46:33.755Z</time>
      </trkpt>
      <trkpt lat="43.96285" lon="2.22332">
        <ele>221</ele>
        <time>2020-08-25T08:46:34.755Z</time>
      </trkpt>
      <trkpt lat="43.96285" lon="2.22333">
        <ele>221</ele>
        <time>2020-08-25T08:46:35.755Z</time>
      </trkpt>
      <trkpt lat="43.96284" lon="2.22334">
        <ele>221</ele>
        <time>2020-08-25T08:46:36.755Z</time>
      </trkpt>
      <trkpt lat="43.96283" lon="2.22335">
        <ele>220</ele>
        <time>2020-08-25T08:46:37.755Z</time>
      </trkpt>
      <trkpt lat="43.96282" lon="2.22336">
        <ele>220</ele>
        <time>2020-08-25T08:46:38.755Z</time>
      </trkpt>
      <trkpt lat="43.96281" lon="2.22337">
        <ele>220</ele>
        <time>2020-08-25T08:46:39.755Z</time>
      </trkpt>
      <trkpt lat="43.9628" lon="2.22338">
        <ele>220</ele>
        <time>2020-08-25T08:46:40.755Z</time>
      </trkpt>
      <trkpt lat="43.96279" lon="2.22339">
        <ele>220</ele>
        <time>2020-08-25T08:46:41.755Z</time>
      </trkpt>
      <trkpt lat="43.96278" lon="2.2234">
        <ele>220</ele>
        <time>2020-08-25T08:46:42.755Z</time>
      </trkpt>
      <trkpt lat="43.96278" lon="2.22341">
        <ele>220</ele>
        <time>2020-08-25T08:46:43.755Z</time>
      </trkpt>
      <trkpt lat="43.96277" lon="2.22342">
        <ele>221</ele>
        <time>2020-08-25T08:46:44.755Z</time>
      </trkpt>
      <trkpt lat="43.96276" lon="2.22343">
        <ele>221</ele>
        <time>2020-08-25T08:46:45.755Z</time>
      </trkpt>
      <trkpt lat="43.96275" lon="2.22344">
        <ele>220</ele>
        <time>2020-08-25T08:46:46.755Z</time>
      </trkpt>
      <trkpt lat="43.96275" lon="2.22345">
        <ele>220</ele>
        <time>2020-08-25T08:46:47.755Z</time>
      </trkpt>
      <trkpt lat="43.96274" lon="2.22346">
        <ele>220</ele>
        <time>2020-08-25T08:46:48.755Z</time>
      </trkpt>
      <trkpt lat="43.96273" lon="2.22346">
        <ele>220</ele>
        <time>2020-08-25T08:46:49.755Z</time>
      </trkpt>
      <trkpt lat="43.96272" lon="2.22347">
        <ele>220</ele>
        <time>2020-08-25T08:46:50.755Z</time>
      </trkpt>
      <trkpt lat="43.96272" lon="2.22347">
        <ele>220</ele>
        <time>2020-08-25T08:46:51.755Z</time>
      </trkpt>
      <trkpt lat="43.96271" lon="2.22347">
        <ele>220</ele>
        <time>2020-08-25T08:46:52.755Z</time>
      </trkpt>
      <trkpt lat="43.96271" lon="2.22347">
        <ele>220</ele>
        <time>2020-08-25T08:46:53.755Z</time>
      </trkpt>
      <trkpt lat="43.9627" lon="2.22349">
        <ele>220</ele>
        <time>2020-08-25T08:46:56.982Z</time>
      </trkpt>
      <trkpt lat="43.96269" lon="2.2235">
        <ele>220</ele>
        <time>2020-08-25T08:46:57.982Z</time>
      </trkpt>
      <trkpt lat="43.96269" lon="2.2235">
        <ele>220</ele>
        <time>2020-08-25T08:46:58.982Z</time>
      </trkpt>
      <trkpt lat="43.96268" lon="2.22351">
        <ele>219</ele>
        <time>2020-08-25T08:46:59.982Z</time>
      </trkpt>
      <trkpt lat="43.96267" lon="2.22352">
        <ele>219</ele>
        <time>2020-08-25T08:47:00.982Z</time>
      </trkpt>
      <trkpt lat="43.96266" lon="2.22353">
        <ele>219</ele>
        <time>2020-08-25T08:47:01.982Z</time>
      </trkpt>
      <trkpt lat="43.96266" lon="2.22354">
        <ele>219</ele>
        <time>2020-08-25T08:47:02.982Z</time>
      </trkpt>
      <trkpt lat="43.96265" lon="2.22355">
        <ele>218</ele>
        <time>2020-08-25T08:47:03.982Z</time>
      </trkpt>
      <trkpt lat="43.96264" lon="2.22355">
        <ele>218</ele>
        <time>2020-08-25T08:47:04.982Z</time>
      </trkpt>
      <trkpt lat="43.96264" lon="2.22356">
        <ele>218</ele>
        <time>2020-08-25T08:47:05.982Z</time>
      </trkpt>
      <trkpt lat="43.96263" lon="2.22357">
        <ele>218</ele>
        <time>2020-08-25T08:47:06.982Z</time>
      </trkpt>
      <trkpt lat="43.96262" lon="2.22358">
        <ele>218</ele>
        <time>2020-08-25T08:47:07.982Z</time>
      </trkpt>
      <trkpt lat="43.96261" lon="2.22359">
        <ele>217</ele>
        <time>2020-08-25T08:47:08.982Z</time>
      </trkpt>
      <trkpt lat="43.9626" lon="2.2236">
        <ele>217</ele>
        <time>2020-08-25T08:47:09.982Z</time>
      </trkpt>
      <trkpt lat="43.96259" lon="2.22361">
        <ele>217</ele>
        <time>2020-08-25T08:47:10.982Z</time>
      </trkpt>
      <trkpt lat="43.96258" lon="2.22362">
        <ele>217</ele>
        <time>2020-08-25T08:47:11.982Z</time>
      </trkpt>
      <trkpt lat="43.96257" lon="2.22362">
        <ele>216</ele>
        <time>2020-08-25T08:47:12.982Z</time>
      </trkpt>
      <trkpt lat="43.96256" lon="2.22363">
        <ele>216</ele>
        <time>2020-08-25T08:47:13.982Z</time>
      </trkpt>
      <trkpt lat="43.96256" lon="2.22364">
        <ele>216</ele>
        <time>2020-08-25T08:47:14.982Z</time>
      </trkpt>
      <trkpt lat="43.96255" lon="2.22365">
        <ele>216</ele>
        <time>2020-08-25T08:47:15.982Z</time>
      </trkpt>
      <trkpt lat="43.96255" lon="2.22366">
        <ele>216</ele>
        <time>2020-08-25T08:47:16.982Z</time>
      </trkpt>
      <trkpt lat="43.96254" lon="2.22367">
        <ele>216</ele>
        <time>2020-08-25T08:47:17.982Z</time>
      </trkpt>
      <trkpt lat="43.96253" lon="2.22368">
        <ele>216</ele>
        <time>2020-08-25T08:47:18.982Z</time>
      </trkpt>
      <trkpt lat="43.96252" lon="2.22369">
        <ele>216</ele>
        <time>2020-08-25T08:47:19.982Z</time>
      </trkpt>
      <trkpt lat="43.96251" lon="2.2237">
        <ele>215</ele>
        <time>2020-08-25T08:47:20.982Z</time>
      </trkpt>
      <trkpt lat="43.96251" lon="2.22371">
        <ele>215</ele>
        <time>2020-08-25T08:47:21.982Z</time>
      </trkpt>
      <trkpt lat="43.9625" lon="2.22372">
        <ele>215</ele>
        <time>2020-08-25T08:47:22.982Z</time>
      </trkpt>
      <trkpt lat="43.96249" lon="2.22372">
        <ele>215</ele>
        <time>2020-08-25T08:47:23.982Z</time>
      </trkpt>
      <trkpt lat="43.96248" lon="2.22373">
        <ele>215</ele>
        <time>2020-08-25T08:47:24.982Z</time>
      </trkpt>
      <trkpt lat="43.96248" lon="2.22373">
        <ele>215</ele>
        <time>2020-08-25T08:47:25.982Z</time>
      </trkpt>
      <trkpt lat="43.96248" lon="2.22374">
        <ele>215</ele>
        <time>2020-08-25T08:47:26.982Z</time>
      </trkpt>
      <trkpt lat="43.96248" lon="2.22374">
        <ele>215</ele>
        <time>2020-08-25T08:47:27.982Z</time>
      </trkpt>
      <trkpt lat="43.96247" lon="2.22375">
        <ele>214</ele>
        <time>2020-08-25T08:47:28.982Z</time>
      </trkpt>
      <trkpt lat="43.96246" lon="2.22376">
        <ele>214</ele>
        <time>2020-08-25T08:47:29.982Z</time>
      </trkpt>
      <trkpt lat="43.96245" lon="2.22377">
        <ele>214</ele>
        <time>2020-08-25T08:47:30.982Z</time>
      </trkpt>
      <trkpt lat="43.96243" lon="2.22377">
        <ele>213</ele>
        <time>2020-08-25T08:47:31.982Z</time>
      </trkpt>
      <trkpt lat="43.96242" lon="2.22378">
        <ele>213</ele>
        <time>2020-08-25T08:47:32.982Z</time>
      </trkpt>
      <trkpt lat="43.96241" lon="2.22379">
        <ele>213</ele>
        <time>2020-08-25T08:47:33.982Z</time>
      </trkpt>
      <trkpt lat="43.9624" lon="2.2238">
        <ele>212</ele>
        <time>2020-08-25T08:47:34.982Z</time>
      </trkpt>
      <trkpt lat="43.96239" lon="2.22381">
        <ele>212</ele>
        <time>2020-08-25T08:47:35.982Z</time>
      </trkpt>
      <trkpt lat="43.96238" lon="2.22382">
        <ele>212</ele>
        <time>2020-08-25T08:47:36.982Z</time>
      </trkpt>
      <trkpt lat="43.96237" lon="2.22383">
        <ele>211</ele>
        <time>2020-08-25T08:47:37.982Z</time>
      </trkpt>
      <trkpt lat="43.96236" lon="2.22384">
        <ele>211</ele>
        <time>2020-08-25T08:47:38.982Z</time>
      </trkpt>
      <trkpt lat="43.96235" lon="2.22385">
        <ele>211</ele>
        <time>2020-08-25T08:47:39.982Z</time>
      </trkpt>
      <trkpt lat="43.96234" lon="2.22385">
        <ele>211</ele>
        <time>2020-08-25T08:47:40.982Z</time>
      </trkpt>
      <trkpt lat="43.96233" lon="2.22386">
        <ele>211</ele>
        <time>2020-08-25T08:47:41.982Z</time>
      </trkpt>
      <trkpt lat="43.96232" lon="2.22387">
        <ele>210</ele>
        <time>2020-08-25T08:47:42.982Z</time>
      </trkpt>
      <trkpt lat="43.96231" lon="2.22388">
        <ele>210</ele>
        <time>2020-08-25T08:47:43.982Z</time>
      </trkpt>
      <trkpt lat="43.9623" lon="2.2239">
        <ele>210</ele>
        <time>2020-08-25T08:47:44.982Z</time>
      </trkpt>
      <trkpt lat="43.96229" lon="2.22391">
        <ele>210</ele>
        <time>2020-08-25T08:47:45.982Z</time>
      </trkpt>
      <trkpt lat="43.96228" lon="2.22392">
        <ele>210</ele>
        <time>2020-08-25T08:47:46.982Z</time>
      </trkpt>
      <trkpt lat="43.96227" lon="2.22393">
        <ele>210</ele>
        <time>2020-08-25T08:47:47.982Z</time>
      </trkpt>
      <trkpt lat="43.96226" lon="2.22394">
        <ele>209</ele>
        <time>2020-08-25T08:47:48.982Z</time>
      </trkpt>
      <trkpt lat="43.96225" lon="2.22395">
        <ele>209</ele>
        <time>2020-08-25T08:47:49.982Z</time>
      </trkpt>
      <trkpt lat="43.96224" lon="2.22395">
        <ele>209</ele>
        <time>2020-08-25T08:47:50.982Z</time>
      </trkpt>
      <trkpt lat="43.96223" lon="2.22396">
        <ele>209</ele>
        <time>2020-08-25T08:47:51.982Z</time>
      </trkpt>
      <trkpt lat="43.96222" lon="2.22397">
        <ele>209</ele>
        <time>2020-08-25T08:47:52.982Z</time>
      </trkpt>
      <trkpt lat="43.96221" lon="2.22398">
        <ele>209</ele>
        <time>2020-08-25T08:47:53.982Z</time>
      </trkpt>
      <trkpt lat="43.9622" lon="2.22399">
        <ele>209</ele>
        <time>2020-08-25T08:47:54.982Z</time>
      </trkpt>
      <trkpt lat="43.96219" lon="2.224">
        <ele>209</ele>
        <time>2020-08-25T08:47:55.982Z</time>
      </trkpt>
      <trkpt lat="43.96219" lon="2.224">
        <ele>209</ele>
        <time>2020-08-25T08:47:56.982Z</time>
      </trkpt>
      <trkpt lat="43.96218" lon="2.224">
        <ele>209</ele>
        <time>2020-08-25T08:47:57.982Z</time>
      </trkpt>
      <trkpt lat="43.96216" lon="2.22401">
        <ele>209</ele>
        <time>2020-08-25T08:47:58.982Z</time>
      </trkpt>
      <trkpt lat="43.96215" lon="2.22401">
        <ele>209</ele>
        <time>2020-08-25T08:47:59.982Z</time>
      </trkpt>
      <trkpt lat="43.96214" lon="2.22401">
        <ele>209</ele>
        <time>2020-08-25T08:48:00.982Z</time>
      </trkpt>
      <trkpt lat="43.96213" lon="2.22402">
        <ele>209</ele>
        <time>2020-08-25T08:48:01.982Z</time>
      </trkpt>
      <trkpt lat="43.96212" lon="2.22402">
        <ele>209</ele>
        <time>2020-08-25T08:48:02.982Z</time>
      </trkpt>
      <trkpt lat="43.96211" lon="2.22402">
        <ele>209</ele>
        <time>2020-08-25T08:48:03.982Z</time>
      </trkpt>
      <trkpt lat="43.96211" lon="2.22403">
        <ele>209</ele>
        <time>2020-08-25T08:48:04.982Z</time>
      </trkpt>
      <trkpt lat="43.9621" lon="2.22404">
        <ele>209</ele>
        <time>2020-08-25T08:48:05.982Z</time>
      </trkpt>
      <trkpt lat="43.96209" lon="2.22405">
        <ele>209</ele>
        <time>2020-08-25T08:48:06.982Z</time>
      </trkpt>
      <trkpt lat="43.96208" lon="2.22405">
        <ele>209</ele>
        <time>2020-08-25T08:48:07.982Z</time>
      </trkpt>
      <trkpt lat="43.96207" lon="2.22406">
        <ele>209</ele>
        <time>2020-08-25T08:48:08.982Z</time>
      </trkpt>
      <trkpt lat="43.96206" lon="2.22407">
        <ele>209</ele>
        <time>2020-08-25T08:48:09.982Z</time>
      </trkpt>
      <trkpt lat="43.96205" lon="2.22407">
        <ele>209</ele>
        <time>2020-08-25T08:48:10.982Z</time>
      </trkpt>
      <trkpt lat="43.96204" lon="2.22408">
        <ele>209</ele>
        <time>2020-08-25T08:48:11.982Z</time>
      </trkpt>
      <trkpt lat="43.96203" lon="2.22408">
        <ele>209</ele>
        <time>2020-08-25T08:48:12.982Z</time>
      </trkpt>
      <trkpt lat="43.96201" lon="2.22409">
        <ele>209</ele>
        <time>2020-08-25T08:48:13.982Z</time>
      </trkpt>
      <trkpt lat="43.962" lon="2.2241">
        <ele>209</ele>
        <time>2020-08-25T08:48:14.982Z</time>
      </trkpt>
      <trkpt lat="43.96199" lon="2.22411">
        <ele>209</ele>
        <time>2020-08-25T08:48:15.982Z</time>
      </trkpt>
      <trkpt lat="43.96198" lon="2.22412">
        <ele>209</ele>
        <time>2020-08-25T08:48:16.982Z</time>
      </trkpt>
      <trkpt lat="43.96197" lon="2.22413">
        <ele>209</ele>
        <time>2020-08-25T08:48:17.982Z</time>
      </trkpt>
      <trkpt lat="43.96196" lon="2.22414">
        <ele>209</ele>
        <time>2020-08-25T08:48:18.982Z</time>
      </trkpt>
      <trkpt lat="43.96195" lon="2.22415">
        <ele>209</ele>
        <time>2020-08-25T08:48:19.982Z</time>
      </trkpt>
      <trkpt lat="43.96194" lon="2.22416">
        <ele>209</ele>
        <time>2020-08-25T08:48:20.982Z</time>
      </trkpt>
      <trkpt lat="43.96193" lon="2.22417">
        <ele>208</ele>
        <time>2020-08-25T08:48:21.982Z</time>
      </trkpt>
      <trkpt lat="43.96191" lon="2.22418">
        <ele>209</ele>
        <time>2020-08-25T08:48:22.982Z</time>
      </trkpt>
      <trkpt lat="43.9619" lon="2.22419">
        <ele>209</ele>
        <time>2020-08-25T08:48:23.982Z</time>
      </trkpt>
      <trkpt lat="43.96189" lon="2.2242">
        <ele>209</ele>
        <time>2020-08-25T08:48:24.982Z</time>
      </trkpt>
      <trkpt lat="43.96188" lon="2.22421">
        <ele>208</ele>
        <time>2020-08-25T08:48:25.982Z</time>
      </trkpt>
      <trkpt lat="43.96187" lon="2.22422">
        <ele>208</ele>
        <time>2020-08-25T08:48:26.982Z</time>
      </trkpt>
      <trkpt lat="43.96186" lon="2.22422">
        <ele>208</ele>
        <time>2020-08-25T08:48:27.982Z</time>
      </trkpt>
      <trkpt lat="43.96185" lon="2.22423">
        <ele>208</ele>
        <time>2020-08-25T08:48:28.982Z</time>
      </trkpt>
      <trkpt lat="43.96184" lon="2.22423">
        <ele>208</ele>
        <time>2020-08-25T08:48:29.982Z</time>
      </trkpt>
      <trkpt lat="43.96183" lon="2.22424">
        <ele>208</ele>
        <time>2020-08-25T08:48:30.982Z</time>
      </trkpt>
      <trkpt lat="43.96182" lon="2.22424">
        <ele>208</ele>
        <time>2020-08-25T08:48:31.982Z</time>
      </trkpt>
      <trkpt lat="43.96181" lon="2.22425">
        <ele>208</ele>
        <time>2020-08-25T08:48:32.982Z</time>
      </trkpt>
      <trkpt lat="43.96179" lon="2.22426">
        <ele>208</ele>
        <time>2020-08-25T08:48:33.982Z</time>
      </trkpt>
      <trkpt lat="43.96178" lon="2.22427">
        <ele>208</ele>
        <time>2020-08-25T08:48:34.982Z</time>
      </trkpt>
      <trkpt lat="43.96176" lon="2.22427">
        <ele>208</ele>
        <time>2020-08-25T08:48:35.982Z</time>
      </trkpt>
      <trkpt lat="43.96175" lon="2.22428">
        <ele>208</ele>
        <time>2020-08-25T08:48:36.982Z</time>
      </trkpt>
      <trkpt lat="43.96174" lon="2.22428">
        <ele>208</ele>
        <time>2020-08-25T08:48:37.982Z</time>
      </trkpt>
      <trkpt lat="43.96173" lon="2.22429">
        <ele>207</ele>
        <time>2020-08-25T08:48:38.982Z</time>
      </trkpt>
      <trkpt lat="43.96172" lon="2.22429">
        <ele>207</ele>
        <time>2020-08-25T08:48:39.982Z</time>
      </trkpt>
      <trkpt lat="43.9617" lon="2.2243">
        <ele>207</ele>
        <time>2020-08-25T08:48:40.982Z</time>
      </trkpt>
      <trkpt lat="43.96169" lon="2.22431">
        <ele>207</ele>
        <time>2020-08-25T08:48:41.982Z</time>
      </trkpt>
      <trkpt lat="43.96168" lon="2.22431">
        <ele>207</ele>
        <time>2020-08-25T08:48:42.982Z</time>
      </trkpt>
      <trkpt lat="43.96167" lon="2.22431">
        <ele>207</ele>
        <time>2020-08-25T08:48:43.982Z</time>
      </trkpt>
      <trkpt lat="43.96167" lon="2.22431">
        <ele>207</ele>
        <time>2020-08-25T08:48:44.982Z</time>
      </trkpt>
      <trkpt lat="43.96167" lon="2.22431">
        <ele>207</ele>
        <time>2020-08-25T08:48:45.982Z</time>
      </trkpt>
      <trkpt lat="43.96166" lon="2.22431">
        <ele>207</ele>
        <time>2020-08-25T08:48:46.982Z</time>
      </trkpt>
      <trkpt lat="43.96165" lon="2.22431">
        <ele>207</ele>
        <time>2020-08-25T08:48:50.209Z</time>
      </trkpt>
      <trkpt lat="43.96164" lon="2.22431">
        <ele>207</ele>
        <time>2020-08-25T08:48:51.209Z</time>
      </trkpt>
      <trkpt lat="43.96163" lon="2.22431">
        <ele>207</ele>
        <time>2020-08-25T08:48:52.209Z</time>
      </trkpt>
      <trkpt lat="43.96161" lon="2.22431">
        <ele>207</ele>
        <time>2020-08-25T08:48:53.209Z</time>
      </trkpt>
      <trkpt lat="43.9616" lon="2.22432">
        <ele>207</ele>
        <time>2020-08-25T08:48:54.209Z</time>
      </trkpt>
      <trkpt lat="43.96159" lon="2.22432">
        <ele>207</ele>
        <time>2020-08-25T08:48:55.209Z</time>
      </trkpt>
      <trkpt lat="43.96158" lon="2.22432">
        <ele>207</ele>
        <time>2020-08-25T08:48:56.209Z</time>
      </trkpt>
      <trkpt lat="43.96157" lon="2.22432">
        <ele>207</ele>
        <time>2020-08-25T08:48:57.209Z</time>
      </trkpt>
      <trkpt lat="43.96155" lon="2.22433">
        <ele>207</ele>
        <time>2020-08-25T08:48:58.209Z</time>
      </trkpt>
      <trkpt lat="43.96154" lon="2.22433">
        <ele>207</ele>
        <time>2020-08-25T08:48:59.209Z</time>
      </trkpt>
      <trkpt lat="43.96152" lon="2.22433">
        <ele>206</ele>
        <time>2020-08-25T08:49:00.209Z</time>
      </trkpt>
      <trkpt lat="43.96151" lon="2.22433">
        <ele>206</ele>
        <time>2020-08-25T08:49:01.209Z</time>
      </trkpt>
      <trkpt lat="43.9615" lon="2.22433">
        <ele>206</ele>
        <time>2020-08-25T08:49:02.209Z</time>
      </trkpt>
      <trkpt lat="43.96149" lon="2.22433">
        <ele>206</ele>
        <time>2020-08-25T08:49:03.209Z</time>
      </trkpt>
      <trkpt lat="43.96148" lon="2.22433">
        <ele>206</ele>
        <time>2020-08-25T08:49:04.209Z</time>
      </trkpt>
      <trkpt lat="43.96147" lon="2.22433">
        <ele>206</ele>
        <time>2020-08-25T08:49:05.209Z</time>
      </trkpt>
      <trkpt lat="43.96146" lon="2.22433">
        <ele>206</ele>
        <time>2020-08-25T08:49:06.209Z</time>
      </trkpt>
      <trkpt lat="43.96146" lon="2.22433">
        <ele>206</ele>
        <time>2020-08-25T08:49:07.209Z</time>
      </trkpt>
      <trkpt lat="43.96145" lon="2.22433">
        <ele>206</ele>
        <time>2020-08-25T08:49:08.209Z</time>
      </trkpt>
      <trkpt lat="43.96145" lon="2.22433">
        <ele>206</ele>
        <time>2020-08-25T08:49:09.209Z</time>
      </trkpt>
      <trkpt lat="43.96141" lon="2.22433">
        <ele>205</ele>
        <time>2020-08-25T08:50:06.217Z</time>
      </trkpt>
      <trkpt lat="43.96141" lon="2.22433">
        <ele>205</ele>
        <time>2020-08-25T08:50:07.217Z</time>
      </trkpt>
      <trkpt lat="43.96141" lon="2.22434">
        <ele>205</ele>
        <time>2020-08-25T08:50:08.217Z</time>
      </trkpt>
      <trkpt lat="43.96141" lon="2.22435">
        <ele>205</ele>
        <time>2020-08-25T08:50:09.217Z</time>
      </trkpt>
      <trkpt lat="43.96141" lon="2.22436">
        <ele>205</ele>
        <time>2020-08-25T08:50:10.217Z</time>
      </trkpt>
      <trkpt lat="43.96141" lon="2.22437">
        <ele>205</ele>
        <time>2020-08-25T08:50:11.217Z</time>
      </trkpt>
      <trkpt lat="43.96141" lon="2.22438">
        <ele>205</ele>
        <time>2020-08-25T08:50:12.217Z</time>
      </trkpt>
      <trkpt lat="43.96141" lon="2.22439">
        <ele>205</ele>
        <time>2020-08-25T08:50:13.217Z</time>
      </trkpt>
      <trkpt lat="43.96142" lon="2.22439">
        <ele>205</ele>
        <time>2020-08-25T08:50:14.217Z</time>
      </trkpt>
      <trkpt lat="43.96142" lon="2.2244">
        <ele>204</ele>
        <time>2020-08-25T08:50:15.217Z</time>
      </trkpt>
      <trkpt lat="43.96142" lon="2.2244">
        <ele>204</ele>
        <time>2020-08-25T08:50:16.217Z</time>
      </trkpt>
      <trkpt lat="43.96143" lon="2.22441">
        <ele>204</ele>
        <time>2020-08-25T08:50:17.217Z</time>
      </trkpt>
      <trkpt lat="43.96143" lon="2.22441">
        <ele>204</ele>
        <time>2020-08-25T08:50:18.217Z</time>
      </trkpt>
      <trkpt lat="43.96144" lon="2.22441">
        <ele>204</ele>
        <time>2020-08-25T08:50:19.217Z</time>
      </trkpt>
      <trkpt lat="43.96144" lon="2.22442">
        <ele>204</ele>
        <time>2020-08-25T08:50:20.217Z</time>
      </trkpt>
      <trkpt lat="43.96144" lon="2.22443">
        <ele>204</ele>
        <time>2020-08-25T08:50:21.217Z</time>
      </trkpt>
      <trkpt lat="43.96145" lon="2.22443">
        <ele>204</ele>
        <time>2020-08-25T08:50:22.217Z</time>
      </trkpt>
      <trkpt lat="43.96145" lon="2.22444">
        <ele>204</ele>
        <time>2020-08-25T08:50:23.217Z</time>
      </trkpt>
      <trkpt lat="43.96145" lon="2.22444">
        <ele>204</ele>
        <time>2020-08-25T08:50:24.217Z</time>
      </trkpt>
      <trkpt lat="43.96145" lon="2.22445">
        <ele>203</ele>
        <time>2020-08-25T08:50:25.217Z</time>
      </trkpt>
      <trkpt lat="43.96145" lon="2.22445">
        <ele>203</ele>
        <time>2020-08-25T08:50:26.217Z</time>
      </trkpt>
      <trkpt lat="43.96145" lon="2.22445">
        <ele>203</ele>
        <time>2020-08-25T08:50:27.217Z</time>
      </trkpt>
      <trkpt lat="43.96145" lon="2.22445">
        <ele>203</ele>
        <time>2020-08-25T08:50:28.217Z</time>
      </trkpt>
      <trkpt lat="43.96145" lon="2.22446">
        <ele>203</ele>
        <time>2020-08-25T08:50:29.217Z</time>
      </trkpt>
      <trkpt lat="43.96147" lon="2.22448">
        <ele>202</ele>
        <time>2020-08-25T08:50:48.225Z</time>
      </trkpt>
      <trkpt lat="43.96148" lon="2.22448">
        <ele>202</ele>
        <time>2020-08-25T08:50:49.225Z</time>
      </trkpt>
      <trkpt lat="43.96149" lon="2.22449">
        <ele>202</ele>
        <time>2020-08-25T08:50:50.225Z</time>
      </trkpt>
      <trkpt lat="43.96149" lon="2.22449">
        <ele>202</ele>
        <time>2020-08-25T08:50:51.225Z</time>
      </trkpt>
      <trkpt lat="43.9615" lon="2.22449">
        <ele>202</ele>
        <time>2020-08-25T08:50:52.225Z</time>
      </trkpt>
      <trkpt lat="43.96151" lon="2.2245">
        <ele>202</ele>
        <time>2020-08-25T08:50:53.225Z</time>
      </trkpt>
      <trkpt lat="43.96152" lon="2.2245">
        <ele>202</ele>
        <time>2020-08-25T08:50:54.225Z</time>
      </trkpt>
      <trkpt lat="43.96152" lon="2.22451">
        <ele>202</ele>
        <time>2020-08-25T08:50:55.225Z</time>
      </trkpt>
      <trkpt lat="43.96153" lon="2.22452">
        <ele>202</ele>
        <time>2020-08-25T08:50:56.225Z</time>
      </trkpt>
      <trkpt lat="43.96154" lon="2.22453">
        <ele>202</ele>
        <time>2020-08-25T08:50:57.225Z</time>
      </trkpt>
      <trkpt lat="43.96155" lon="2.22454">
        <ele>202</ele>
        <time>2020-08-25T08:50:58.225Z</time>
      </trkpt>
      <trkpt lat="43.96156" lon="2.22455">
        <ele>202</ele>
        <time>2020-08-25T08:50:59.225Z</time>
      </trkpt>
      <trkpt lat="43.96156" lon="2.22456">
        <ele>202</ele>
        <time>2020-08-25T08:51:00.225Z</time>
      </trkpt>
      <trkpt lat="43.96157" lon="2.22457">
        <ele>202</ele>
        <time>2020-08-25T08:51:01.225Z</time>
      </trkpt>
      <trkpt lat="43.96158" lon="2.22458">
        <ele>202</ele>
        <time>2020-08-25T08:51:02.225Z</time>
      </trkpt>
      <trkpt lat="43.96158" lon="2.22459">
        <ele>202</ele>
        <time>2020-08-25T08:51:03.225Z</time>
      </trkpt>
      <trkpt lat="43.96159" lon="2.22459">
        <ele>202</ele>
        <time>2020-08-25T08:51:04.225Z</time>
      </trkpt>
      <trkpt lat="43.96159" lon="2.2246">
        <ele>202</ele>
        <time>2020-08-25T08:51:05.225Z</time>
      </trkpt>
      <trkpt lat="43.96159" lon="2.22461">
        <ele>202</ele>
        <time>2020-08-25T08:51:06.225Z</time>
      </trkpt>
      <trkpt lat="43.9616" lon="2.22461">
        <ele>202</ele>
        <time>2020-08-25T08:51:07.225Z</time>
      </trkpt>
      <trkpt lat="43.9616" lon="2.22462">
        <ele>202</ele>
        <time>2020-08-25T08:51:08.225Z</time>
      </trkpt>
      <trkpt lat="43.96161" lon="2.22463">
        <ele>202</ele>
        <time>2020-08-25T08:51:09.225Z</time>
      </trkpt>
      <trkpt lat="43.96161" lon="2.22464">
        <ele>202</ele>
        <time>2020-08-25T08:51:10.225Z</time>
      </trkpt>
      <trkpt lat="43.96162" lon="2.22465">
        <ele>202</ele>
        <time>2020-08-25T08:51:11.225Z</time>
      </trkpt>
      <trkpt lat="43.96163" lon="2.22466">
        <ele>202</ele>
        <time>2020-08-25T08:51:12.225Z</time>
      </trkpt>
      <trkpt lat="43.96163" lon="2.22467">
        <ele>202</ele>
        <time>2020-08-25T08:51:13.225Z</time>
      </trkpt>
      <trkpt lat="43.96164" lon="2.22468">
        <ele>202</ele>
        <time>2020-08-25T08:51:14.225Z</time>
      </trkpt>
      <trkpt lat="43.96165" lon="2.2247">
        <ele>202</ele>
        <time>2020-08-25T08:51:15.225Z</time>
      </trkpt>
      <trkpt lat="43.96166" lon="2.22471">
        <ele>203</ele>
        <time>2020-08-25T08:51:16.225Z</time>
      </trkpt>
      <trkpt lat="43.96166" lon="2.22472">
        <ele>203</ele>
        <time>2020-08-25T08:51:17.225Z</time>
      </trkpt>
      <trkpt lat="43.96167" lon="2.22473">
        <ele>203</ele>
        <time>2020-08-25T08:51:18.225Z</time>
      </trkpt>
      <trkpt lat="43.96168" lon="2.22474">
        <ele>203</ele>
        <time>2020-08-25T08:51:19.225Z</time>
      </trkpt>
      <trkpt lat="43.96169" lon="2.22475">
        <ele>203</ele>
        <time>2020-08-25T08:51:20.225Z</time>
      </trkpt>
      <trkpt lat="43.9617" lon="2.22477">
        <ele>203</ele>
        <time>2020-08-25T08:51:21.225Z</time>
      </trkpt>
      <trkpt lat="43.9617" lon="2.22478">
        <ele>202</ele>
        <time>2020-08-25T08:51:22.225Z</time>
      </trkpt>
      <trkpt lat="43.96171" lon="2.2248">
        <ele>202</ele>
        <time>2020-08-25T08:51:23.225Z</time>
      </trkpt>
      <trkpt lat="43.96172" lon="2.22481">
        <ele>202</ele>
        <time>2020-08-25T08:51:24.225Z</time>
      </trkpt>
      <trkpt lat="43.96173" lon="2.22482">
        <ele>202</ele>
        <time>2020-08-25T08:51:25.225Z</time>
      </trkpt>
      <trkpt lat="43.96174" lon="2.22483">
        <ele>202</ele>
        <time>2020-08-25T08:51:26.225Z</time>
      </trkpt>
      <trkpt lat="43.96175" lon="2.22485">
        <ele>202</ele>
        <time>2020-08-25T08:51:27.225Z</time>
      </trkpt>
      <trkpt lat="43.96176" lon="2.22486">
        <ele>202</ele>
        <time>2020-08-25T08:51:28.225Z</time>
      </trkpt>
      <trkpt lat="43.96177" lon="2.22487">
        <ele>202</ele>
        <time>2020-08-25T08:51:29.225Z</time>
      </trkpt>
      <trkpt lat="43.96178" lon="2.22488">
        <ele>202</ele>
        <time>2020-08-25T08:51:30.225Z</time>
      </trkpt>
      <trkpt lat="43.96179" lon="2.22489">
        <ele>202</ele>
        <time>2020-08-25T08:51:31.225Z</time>
      </trkpt>
      <trkpt lat="43.9618" lon="2.22491">
        <ele>202</ele>
        <time>2020-08-25T08:51:32.225Z</time>
      </trkpt>
      <trkpt lat="43.96181" lon="2.22492">
        <ele>202</ele>
        <time>2020-08-25T08:51:33.225Z</time>
      </trkpt>
      <trkpt lat="43.96182" lon="2.22493">
        <ele>202</ele>
        <time>2020-08-25T08:51:34.225Z</time>
      </trkpt>
      <trkpt lat="43.96183" lon="2.22494">
        <ele>202</ele>
        <time>2020-08-25T08:51:35.225Z</time>
      </trkpt>
      <trkpt lat="43.96184" lon="2.22496">
        <ele>202</ele>
        <time>2020-08-25T08:51:36.225Z</time>
      </trkpt>
      <trkpt lat="43.96185" lon="2.22497">
        <ele>202</ele>
        <time>2020-08-25T08:51:37.225Z</time>
      </trkpt>
      <trkpt lat="43.96186" lon="2.22498">
        <ele>202</ele>
        <time>2020-08-25T08:51:38.225Z</time>
      </trkpt>
      <trkpt lat="43.96187" lon="2.22499">
        <ele>202</ele>
        <time>2020-08-25T08:51:39.225Z</time>
      </trkpt>
      <trkpt lat="43.96188" lon="2.225">
        <ele>202</ele>
        <time>2020-08-25T08:51:40.225Z</time>
      </trkpt>
      <trkpt lat="43.96189" lon="2.22501">
        <ele>202</ele>
        <time>2020-08-25T08:51:41.225Z</time>
      </trkpt>
      <trkpt lat="43.9619" lon="2.22502">
        <ele>203</ele>
        <time>2020-08-25T08:51:42.225Z</time>
      </trkpt>
      <trkpt lat="43.96191" lon="2.22503">
        <ele>203</ele>
        <time>2020-08-25T08:51:43.225Z</time>
      </trkpt>
      <trkpt lat="43.96191" lon="2.22504">
        <ele>203</ele>
        <time>2020-08-25T08:51:44.225Z</time>
      </trkpt>
      <trkpt lat="43.96192" lon="2.22505">
        <ele>203</ele>
        <time>2020-08-25T08:51:45.225Z</time>
      </trkpt>
      <trkpt lat="43.96193" lon="2.22506">
        <ele>203</ele>
        <time>2020-08-25T08:51:46.225Z</time>
      </trkpt>
      <trkpt lat="43.96193" lon="2.22507">
        <ele>203</ele>
        <time>2020-08-25T08:51:47.225Z</time>
      </trkpt>
      <trkpt lat="43.96194" lon="2.22508">
        <ele>203</ele>
        <time>2020-08-25T08:51:48.225Z</time>
      </trkpt>
      <trkpt lat="43.96195" lon="2.22509">
        <ele>203</ele>
        <time>2020-08-25T08:51:49.225Z</time>
      </trkpt>
      <trkpt lat="43.96195" lon="2.2251">
        <ele>203</ele>
        <time>2020-08-25T08:51:50.225Z</time>
      </trkpt>
      <trkpt lat="43.96196" lon="2.22511">
        <ele>203</ele>
        <time>2020-08-25T08:51:51.225Z</time>
      </trkpt>
      <trkpt lat="43.96197" lon="2.22512">
        <ele>203</ele>
        <time>2020-08-25T08:51:52.225Z</time>
      </trkpt>
      <trkpt lat="43.96197" lon="2.22513">
        <ele>203</ele>
        <time>2020-08-25T08:51:53.225Z</time>
      </trkpt>
      <trkpt lat="43.96198" lon="2.22515">
        <ele>203</ele>
        <time>2020-08-25T08:51:54.225Z</time>
      </trkpt>
      <trkpt lat="43.96198" lon="2.22516">
        <ele>204</ele>
        <time>2020-08-25T08:51:55.225Z</time>
      </trkpt>
      <trkpt lat="43.96199" lon="2.22517">
        <ele>204</ele>
        <time>2020-08-25T08:51:56.225Z</time>
      </trkpt>
      <trkpt lat="43.96199" lon="2.22518">
        <ele>204</ele>
        <time>2020-08-25T08:51:57.225Z</time>
      </trkpt>
      <trkpt lat="43.962" lon="2.2252">
        <ele>204</ele>
        <time>2020-08-25T08:51:58.225Z</time>
      </trkpt>
      <trkpt lat="43.96201" lon="2.22521">
        <ele>204</ele>
        <time>2020-08-25T08:51:59.225Z</time>
      </trkpt>
      <trkpt lat="43.96202" lon="2.22522">
        <ele>204</ele>
        <time>2020-08-25T08:52:00.225Z</time>
      </trkpt>
      <trkpt lat="43.96202" lon="2.22524">
        <ele>204</ele>
        <time>2020-08-25T08:52:01.225Z</time>
      </trkpt>
      <trkpt lat="43.96203" lon="2.22525">
        <ele>204</ele>
        <time>2020-08-25T08:52:02.225Z</time>
      </trkpt>
      <trkpt lat="43.96203" lon="2.22526">
        <ele>204</ele>
        <time>2020-08-25T08:52:03.225Z</time>
      </trkpt>
      <trkpt lat="43.96204" lon="2.22527">
        <ele>203</ele>
        <time>2020-08-25T08:52:04.225Z</time>
      </trkpt>
      <trkpt lat="43.96205" lon="2.22529">
        <ele>203</ele>
        <time>2020-08-25T08:52:05.225Z</time>
      </trkpt>
      <trkpt lat="43.96205" lon="2.2253">
        <ele>203</ele>
        <time>2020-08-25T08:52:06.225Z</time>
      </trkpt>
      <trkpt lat="43.96206" lon="2.22531">
        <ele>203</ele>
        <time>2020-08-25T08:52:07.225Z</time>
      </trkpt>
      <trkpt lat="43.96207" lon="2.22532">
        <ele>203</ele>
        <time>2020-08-25T08:52:08.225Z</time>
      </trkpt>
      <trkpt lat="43.96207" lon="2.22533">
        <ele>203</ele>
        <time>2020-08-25T08:52:09.225Z</time>
      </trkpt>
      <trkpt lat="43.96208" lon="2.22534">
        <ele>203</ele>
        <time>2020-08-25T08:52:10.225Z</time>
      </trkpt>
      <trkpt lat="43.96209" lon="2.22536">
        <ele>203</ele>
        <time>2020-08-25T08:52:11.225Z</time>
      </trkpt>
      <trkpt lat="43.9621" lon="2.22537">
        <ele>203</ele>
        <time>2020-08-25T08:52:12.225Z</time>
      </trkpt>
      <trkpt lat="43.96211" lon="2.22538">
        <ele>203</ele>
        <time>2020-08-25T08:52:13.225Z</time>
      </trkpt>
      <trkpt lat="43.96212" lon="2.22539">
        <ele>203</ele>
        <time>2020-08-25T08:52:14.225Z</time>
      </trkpt>
      <trkpt lat="43.96213" lon="2.2254">
        <ele>203</ele>
        <time>2020-08-25T08:52:15.225Z</time>
      </trkpt>
      <trkpt lat="43.96214" lon="2.22541">
        <ele>203</ele>
        <time>2020-08-25T08:52:16.225Z</time>
      </trkpt>
      <trkpt lat="43.96214" lon="2.22543">
        <ele>203</ele>
        <time>2020-08-25T08:52:17.225Z</time>
      </trkpt>
      <trkpt lat="43.96215" lon="2.22544">
        <ele>203</ele>
        <time>2020-08-25T08:52:18.225Z</time>
      </trkpt>
      <trkpt lat="43.96216" lon="2.22545">
        <ele>203</ele>
        <time>2020-08-25T08:52:19.225Z</time>
      </trkpt>
      <trkpt lat="43.96217" lon="2.22547">
        <ele>203</ele>
        <time>2020-08-25T08:52:20.225Z</time>
      </trkpt>
      <trkpt lat="43.96217" lon="2.22548">
        <ele>203</ele>
        <time>2020-08-25T08:52:21.225Z</time>
      </trkpt>
      <trkpt lat="43.96218" lon="2.22549">
        <ele>203</ele>
        <time>2020-08-25T08:52:22.225Z</time>
      </trkpt>
      <trkpt lat="43.96218" lon="2.22551">
        <ele>203</ele>
        <time>2020-08-25T08:52:23.225Z</time>
      </trkpt>
      <trkpt lat="43.96219" lon="2.22552">
        <ele>203</ele>
        <time>2020-08-25T08:52:24.225Z</time>
      </trkpt>
      <trkpt lat="43.9622" lon="2.22554">
        <ele>203</ele>
        <time>2020-08-25T08:52:25.225Z</time>
      </trkpt>
      <trkpt lat="43.9622" lon="2.22555">
        <ele>203</ele>
        <time>2020-08-25T08:52:26.225Z</time>
      </trkpt>
      <trkpt lat="43.96221" lon="2.22556">
        <ele>203</ele>
        <time>2020-08-25T08:52:27.225Z</time>
      </trkpt>
      <trkpt lat="43.96222" lon="2.22558">
        <ele>203</ele>
        <time>2020-08-25T08:52:28.225Z</time>
      </trkpt>
      <trkpt lat="43.96222" lon="2.22559">
        <ele>203</ele>
        <time>2020-08-25T08:52:29.225Z</time>
      </trkpt>
      <trkpt lat="43.96223" lon="2.22561">
        <ele>203</ele>
        <time>2020-08-25T08:52:30.225Z</time>
      </trkpt>
      <trkpt lat="43.96224" lon="2.22562">
        <ele>203</ele>
        <time>2020-08-25T08:52:31.225Z</time>
      </trkpt>
      <trkpt lat="43.96224" lon="2.22564">
        <ele>203</ele>
        <time>2020-08-25T08:52:32.225Z</time>
      </trkpt>
      <trkpt lat="43.96225" lon="2.22564">
        <ele>203</ele>
        <time>2020-08-25T08:52:33.225Z</time>
      </trkpt>
      <trkpt lat="43.96225" lon="2.22565">
        <ele>203</ele>
        <time>2020-08-25T08:52:34.225Z</time>
      </trkpt>
      <trkpt lat="43.96225" lon="2.22566">
        <ele>203</ele>
        <time>2020-08-25T08:52:35.225Z</time>
      </trkpt>
      <trkpt lat="43.96226" lon="2.22567">
        <ele>203</ele>
        <time>2020-08-25T08:52:36.225Z</time>
      </trkpt>
      <trkpt lat="43.96227" lon="2.22568">
        <ele>203</ele>
        <time>2020-08-25T08:52:37.225Z</time>
      </trkpt>
      <trkpt lat="43.96227" lon="2.22569">
        <ele>203</ele>
        <time>2020-08-25T08:52:38.225Z</time>
      </trkpt>
      <trkpt lat="43.96228" lon="2.22571">
        <ele>203</ele>
        <time>2020-08-25T08:52:39.225Z</time>
      </trkpt>
      <trkpt lat="43.96229" lon="2.22572">
        <ele>203</ele>
        <time>2020-08-25T08:52:40.225Z</time>
      </trkpt>
      <trkpt lat="43.9623" lon="2.22573">
        <ele>203</ele>
        <time>2020-08-25T08:52:41.225Z</time>
      </trkpt>
      <trkpt lat="43.9623" lon="2.22574">
        <ele>203</ele>
        <time>2020-08-25T08:52:42.225Z</time>
      </trkpt>
      <trkpt lat="43.96231" lon="2.22575">
        <ele>203</ele>
        <time>2020-08-25T08:52:43.225Z</time>
      </trkpt>
      <trkpt lat="43.96232" lon="2.22576">
        <ele>203</ele>
        <time>2020-08-25T08:52:44.225Z</time>
      </trkpt>
      <trkpt lat="43.96233" lon="2.22578">
        <ele>203</ele>
        <time>2020-08-25T08:52:45.225Z</time>
      </trkpt>
      <trkpt lat="43.96234" lon="2.22579">
        <ele>203</ele>
        <time>2020-08-25T08:52:46.225Z</time>
      </trkpt>
      <trkpt lat="43.96234" lon="2.2258">
        <ele>203</ele>
        <time>2020-08-25T08:52:47.225Z</time>
      </trkpt>
      <trkpt lat="43.96235" lon="2.22581">
        <ele>203</ele>
        <time>2020-08-25T08:52:48.225Z</time>
      </trkpt>
      <trkpt lat="43.96236" lon="2.22582">
        <ele>203</ele>
        <time>2020-08-25T08:52:49.225Z</time>
      </trkpt>
      <trkpt lat="43.96236" lon="2.22583">
        <ele>203</ele>
        <time>2020-08-25T08:52:50.225Z</time>
      </trkpt>
      <trkpt lat="43.96237" lon="2.22584">
        <ele>203</ele>
        <time>2020-08-25T08:52:51.225Z</time>
      </trkpt>
      <trkpt lat="43.96237" lon="2.22585">
        <ele>203</ele>
        <time>2020-08-25T08:52:52.225Z</time>
      </trkpt>
      <trkpt lat="43.96237" lon="2.22587">
        <ele>203</ele>
        <time>2020-08-25T08:52:53.225Z</time>
      </trkpt>
      <trkpt lat="43.96237" lon="2.22588">
        <ele>203</ele>
        <time>2020-08-25T08:52:54.225Z</time>
      </trkpt>
      <trkpt lat="43.96237" lon="2.22589">
        <ele>203</ele>
        <time>2020-08-25T08:52:55.225Z</time>
      </trkpt>
      <trkpt lat="43.96238" lon="2.22591">
        <ele>203</ele>
        <time>2020-08-25T08:52:56.225Z</time>
      </trkpt>
      <trkpt lat="43.96238" lon="2.22592">
        <ele>203</ele>
        <time>2020-08-25T08:52:57.225Z</time>
      </trkpt>
      <trkpt lat="43.96238" lon="2.22593">
        <ele>203</ele>
        <time>2020-08-25T08:52:58.225Z</time>
      </trkpt>
      <trkpt lat="43.96238" lon="2.22595">
        <ele>203</ele>
        <time>2020-08-25T08:52:59.225Z</time>
      </trkpt>
      <trkpt lat="43.96239" lon="2.22596">
        <ele>203</ele>
        <time>2020-08-25T08:53:00.225Z</time>
      </trkpt>
      <trkpt lat="43.96239" lon="2.22598">
        <ele>203</ele>
        <time>2020-08-25T08:53:01.225Z</time>
      </trkpt>
      <trkpt lat="43.96239" lon="2.22599">
        <ele>203</ele>
        <time>2020-08-25T08:53:02.225Z</time>
      </trkpt>
      <trkpt lat="43.9624" lon="2.22601">
        <ele>203</ele>
        <time>2020-08-25T08:53:03.225Z</time>
      </trkpt>
      <trkpt lat="43.9624" lon="2.22602">
        <ele>203</ele>
        <time>2020-08-25T08:53:04.225Z</time>
      </trkpt>
      <trkpt lat="43.96241" lon="2.22604">
        <ele>203</ele>
        <time>2020-08-25T08:53:05.225Z</time>
      </trkpt>
      <trkpt lat="43.96242" lon="2.22605">
        <ele>203</ele>
        <time>2020-08-25T08:53:06.225Z</time>
      </trkpt>
      <trkpt lat="43.96242" lon="2.22607">
        <ele>203</ele>
        <time>2020-08-25T08:53:07.225Z</time>
      </trkpt>
      <trkpt lat="43.96243" lon="2.22608">
        <ele>203</ele>
        <time>2020-08-25T08:53:08.225Z</time>
      </trkpt>
      <trkpt lat="43.96243" lon="2.22609">
        <ele>203</ele>
        <time>2020-08-25T08:53:09.225Z</time>
      </trkpt>
      <trkpt lat="43.96244" lon="2.22611">
        <ele>203</ele>
        <time>2020-08-25T08:53:10.225Z</time>
      </trkpt>
      <trkpt lat="43.96244" lon="2.22612">
        <ele>203</ele>
        <time>2020-08-25T08:53:11.225Z</time>
      </trkpt>
      <trkpt lat="43.96245" lon="2.22613">
        <ele>203</ele>
        <time>2020-08-25T08:53:12.225Z</time>
      </trkpt>
      <trkpt lat="43.96245" lon="2.22615">
        <ele>204</ele>
        <time>2020-08-25T08:53:13.225Z</time>
      </trkpt>
      <trkpt lat="43.96245" lon="2.22616">
        <ele>204</ele>
        <time>2020-08-25T08:53:14.225Z</time>
      </trkpt>
      <trkpt lat="43.96246" lon="2.22618">
        <ele>204</ele>
        <time>2020-08-25T08:53:15.225Z</time>
      </trkpt>
      <trkpt lat="43.96247" lon="2.22619">
        <ele>204</ele>
        <time>2020-08-25T08:53:16.225Z</time>
      </trkpt>
      <trkpt lat="43.96247" lon="2.2262">
        <ele>204</ele>
        <time>2020-08-25T08:53:17.225Z</time>
      </trkpt>
      <trkpt lat="43.96248" lon="2.22621">
        <ele>204</ele>
        <time>2020-08-25T08:53:18.225Z</time>
      </trkpt>
      <trkpt lat="43.96248" lon="2.22622">
        <ele>204</ele>
        <time>2020-08-25T08:53:19.225Z</time>
      </trkpt>
      <trkpt lat="43.96249" lon="2.22624">
        <ele>204</ele>
        <time>2020-08-25T08:53:20.225Z</time>
      </trkpt>
      <trkpt lat="43.96249" lon="2.22626">
        <ele>204</ele>
        <time>2020-08-25T08:53:21.225Z</time>
      </trkpt>
      <trkpt lat="43.9625" lon="2.22627">
        <ele>204</ele>
        <time>2020-08-25T08:53:22.225Z</time>
      </trkpt>
      <trkpt lat="43.9625" lon="2.22629">
        <ele>205</ele>
        <time>2020-08-25T08:53:23.225Z</time>
      </trkpt>
      <trkpt lat="43.9625" lon="2.2263">
        <ele>205</ele>
        <time>2020-08-25T08:53:24.225Z</time>
      </trkpt>
      <trkpt lat="43.96251" lon="2.22632">
        <ele>205</ele>
        <time>2020-08-25T08:53:25.225Z</time>
      </trkpt>
      <trkpt lat="43.96251" lon="2.22633">
        <ele>205</ele>
        <time>2020-08-25T08:53:26.225Z</time>
      </trkpt>
      <trkpt lat="43.96251" lon="2.22634">
        <ele>205</ele>
        <time>2020-08-25T08:53:27.225Z</time>
      </trkpt>
      <trkpt lat="43.96252" lon="2.22635">
        <ele>205</ele>
        <time>2020-08-25T08:53:28.225Z</time>
      </trkpt>
      <trkpt lat="43.96252" lon="2.22636">
        <ele>205</ele>
        <time>2020-08-25T08:53:29.225Z</time>
      </trkpt>
      <trkpt lat="43.96252" lon="2.22638">
        <ele>205</ele>
        <time>2020-08-25T08:53:30.225Z</time>
      </trkpt>
      <trkpt lat="43.96253" lon="2.2264">
        <ele>205</ele>
        <time>2020-08-25T08:53:31.225Z</time>
      </trkpt>
      <trkpt lat="43.96253" lon="2.22641">
        <ele>206</ele>
        <time>2020-08-25T08:53:32.225Z</time>
      </trkpt>
      <trkpt lat="43.96253" lon="2.22643">
        <ele>206</ele>
        <time>2020-08-25T08:53:33.225Z</time>
      </trkpt>
      <trkpt lat="43.96253" lon="2.22644">
        <ele>206</ele>
        <time>2020-08-25T08:53:34.225Z</time>
      </trkpt>
      <trkpt lat="43.96254" lon="2.22645">
        <ele>206</ele>
        <time>2020-08-25T08:53:35.225Z</time>
      </trkpt>
      <trkpt lat="43.96254" lon="2.22646">
        <ele>206</ele>
        <time>2020-08-25T08:53:36.225Z</time>
      </trkpt>
      <trkpt lat="43.96255" lon="2.22647">
        <ele>206</ele>
        <time>2020-08-25T08:53:37.225Z</time>
      </trkpt>
      <trkpt lat="43.96255" lon="2.22648">
        <ele>207</ele>
        <time>2020-08-25T08:53:38.225Z</time>
      </trkpt>
      <trkpt lat="43.96256" lon="2.22649">
        <ele>207</ele>
        <time>2020-08-25T08:53:39.225Z</time>
      </trkpt>
      <trkpt lat="43.96256" lon="2.2265">
        <ele>207</ele>
        <time>2020-08-25T08:53:40.225Z</time>
      </trkpt>
      <trkpt lat="43.96257" lon="2.22651">
        <ele>207</ele>
        <time>2020-08-25T08:53:41.225Z</time>
      </trkpt>
      <trkpt lat="43.96257" lon="2.22652">
        <ele>207</ele>
        <time>2020-08-25T08:53:42.225Z</time>
      </trkpt>
      <trkpt lat="43.96258" lon="2.22654">
        <ele>208</ele>
        <time>2020-08-25T08:53:43.225Z</time>
      </trkpt>
      <trkpt lat="43.96258" lon="2.22655">
        <ele>208</ele>
        <time>2020-08-25T08:53:44.225Z</time>
      </trkpt>
      <trkpt lat="43.96259" lon="2.22656">
        <ele>208</ele>
        <time>2020-08-25T08:53:45.225Z</time>
      </trkpt>
      <trkpt lat="43.96259" lon="2.22658">
        <ele>208</ele>
        <time>2020-08-25T08:53:46.225Z</time>
      </trkpt>
      <trkpt lat="43.9626" lon="2.22659">
        <ele>208</ele>
        <time>2020-08-25T08:53:47.225Z</time>
      </trkpt>
      <trkpt lat="43.9626" lon="2.22661">
        <ele>208</ele>
        <time>2020-08-25T08:53:48.225Z</time>
      </trkpt>
      <trkpt lat="43.96261" lon="2.22662">
        <ele>209</ele>
        <time>2020-08-25T08:53:49.225Z</time>
      </trkpt>
      <trkpt lat="43.96262" lon="2.22664">
        <ele>209</ele>
        <time>2020-08-25T08:53:50.225Z</time>
      </trkpt>
      <trkpt lat="43.96262" lon="2.22665">
        <ele>209</ele>
        <time>2020-08-25T08:53:51.225Z</time>
      </trkpt>
      <trkpt lat="43.96263" lon="2.22666">
        <ele>209</ele>
        <time>2020-08-25T08:53:52.225Z</time>
      </trkpt>
      <trkpt lat="43.96264" lon="2.22667">
        <ele>209</ele>
        <time>2020-08-25T08:53:53.225Z</time>
      </trkpt>
      <trkpt lat="43.96265" lon="2.22668">
        <ele>209</ele>
        <time>2020-08-25T08:53:54.225Z</time>
      </trkpt>
      <trkpt lat="43.96265" lon="2.22669">
        <ele>209</ele>
        <time>2020-08-25T08:53:55.225Z</time>
      </trkpt>
      <trkpt lat="43.96266" lon="2.22671">
        <ele>209</ele>
        <time>2020-08-25T08:53:56.225Z</time>
      </trkpt>
      <trkpt lat="43.96267" lon="2.22672">
        <ele>209</ele>
        <time>2020-08-25T08:53:57.225Z</time>
      </trkpt>
      <trkpt lat="43.96268" lon="2.22673">
        <ele>209</ele>
        <time>2020-08-25T08:53:58.225Z</time>
      </trkpt>
      <trkpt lat="43.96268" lon="2.22674">
        <ele>209</ele>
        <time>2020-08-25T08:53:59.225Z</time>
      </trkpt>
      <trkpt lat="43.96269" lon="2.22675">
        <ele>210</ele>
        <time>2020-08-25T08:54:00.225Z</time>
      </trkpt>
      <trkpt lat="43.96269" lon="2.22676">
        <ele>210</ele>
        <time>2020-08-25T08:54:01.225Z</time>
      </trkpt>
      <trkpt lat="43.9627" lon="2.22677">
        <ele>210</ele>
        <time>2020-08-25T08:54:02.225Z</time>
      </trkpt>
      <trkpt lat="43.96271" lon="2.22679">
        <ele>210</ele>
        <time>2020-08-25T08:54:03.225Z</time>
      </trkpt>
      <trkpt lat="43.96271" lon="2.2268">
        <ele>210</ele>
        <time>2020-08-25T08:54:04.225Z</time>
      </trkpt>
      <trkpt lat="43.96272" lon="2.22681">
        <ele>210</ele>
        <time>2020-08-25T08:54:05.225Z</time>
      </trkpt>
      <trkpt lat="43.96272" lon="2.22683">
        <ele>210</ele>
        <time>2020-08-25T08:54:06.225Z</time>
      </trkpt>
      <trkpt lat="43.96273" lon="2.22684">
        <ele>210</ele>
        <time>2020-08-25T08:54:07.225Z</time>
      </trkpt>
      <trkpt lat="43.96273" lon="2.22685">
        <ele>210</ele>
        <time>2020-08-25T08:54:08.225Z</time>
      </trkpt>
      <trkpt lat="43.96274" lon="2.22686">
        <ele>210</ele>
        <time>2020-08-25T08:54:09.225Z</time>
      </trkpt>
      <trkpt lat="43.96274" lon="2.22687">
        <ele>210</ele>
        <time>2020-08-25T08:54:10.225Z</time>
      </trkpt>
      <trkpt lat="43.96275" lon="2.22688">
        <ele>210</ele>
        <time>2020-08-25T08:54:11.225Z</time>
      </trkpt>
      <trkpt lat="43.96275" lon="2.22689">
        <ele>210</ele>
        <time>2020-08-25T08:54:12.225Z</time>
      </trkpt>
      <trkpt lat="43.96276" lon="2.2269">
        <ele>211</ele>
        <time>2020-08-25T08:54:13.225Z</time>
      </trkpt>
      <trkpt lat="43.96276" lon="2.22691">
        <ele>211</ele>
        <time>2020-08-25T08:54:14.225Z</time>
      </trkpt>
      <trkpt lat="43.96277" lon="2.22691">
        <ele>211</ele>
        <time>2020-08-25T08:54:15.225Z</time>
      </trkpt>
      <trkpt lat="43.96277" lon="2.22692">
        <ele>211</ele>
        <time>2020-08-25T08:54:16.225Z</time>
      </trkpt>
      <trkpt lat="43.96278" lon="2.22693">
        <ele>211</ele>
        <time>2020-08-25T08:54:17.225Z</time>
      </trkpt>
      <trkpt lat="43.96279" lon="2.22695">
        <ele>211</ele>
        <time>2020-08-25T08:54:18.225Z</time>
      </trkpt>
      <trkpt lat="43.9628" lon="2.22696">
        <ele>211</ele>
        <time>2020-08-25T08:54:19.225Z</time>
      </trkpt>
      <trkpt lat="43.9628" lon="2.22697">
        <ele>211</ele>
        <time>2020-08-25T08:54:20.225Z</time>
      </trkpt>
      <trkpt lat="43.96281" lon="2.22699">
        <ele>211</ele>
        <time>2020-08-25T08:54:21.225Z</time>
      </trkpt>
      <trkpt lat="43.96282" lon="2.227">
        <ele>212</ele>
        <time>2020-08-25T08:54:22.225Z</time>
      </trkpt>
      <trkpt lat="43.96282" lon="2.22701">
        <ele>212</ele>
        <time>2020-08-25T08:54:23.225Z</time>
      </trkpt>
      <trkpt lat="43.96283" lon="2.22702">
        <ele>212</ele>
        <time>2020-08-25T08:54:24.225Z</time>
      </trkpt>
      <trkpt lat="43.96284" lon="2.22703">
        <ele>212</ele>
        <time>2020-08-25T08:54:25.225Z</time>
      </trkpt>
      <trkpt lat="43.96285" lon="2.22704">
        <ele>212</ele>
        <time>2020-08-25T08:54:26.225Z</time>
      </trkpt>
      <trkpt lat="43.96286" lon="2.22705">
        <ele>212</ele>
        <time>2020-08-25T08:54:27.225Z</time>
      </trkpt>
      <trkpt lat="43.96286" lon="2.22705">
        <ele>212</ele>
        <time>2020-08-25T08:54:28.225Z</time>
      </trkpt>
      <trkpt lat="43.96287" lon="2.22706">
        <ele>213</ele>
        <time>2020-08-25T08:54:29.225Z</time>
      </trkpt>
      <trkpt lat="43.96288" lon="2.22707">
        <ele>213</ele>
        <time>2020-08-25T08:54:30.225Z</time>
      </trkpt>
      <trkpt lat="43.96289" lon="2.22708">
        <ele>213</ele>
        <time>2020-08-25T08:54:31.225Z</time>
      </trkpt>
      <trkpt lat="43.9629" lon="2.22708">
        <ele>213</ele>
        <time>2020-08-25T08:54:32.225Z</time>
      </trkpt>
      <trkpt lat="43.96291" lon="2.22709">
        <ele>213</ele>
        <time>2020-08-25T08:54:33.225Z</time>
      </trkpt>
      <trkpt lat="43.96292" lon="2.22709">
        <ele>213</ele>
        <time>2020-08-25T08:54:34.225Z</time>
      </trkpt>
      <trkpt lat="43.96293" lon="2.22709">
        <ele>213</ele>
        <time>2020-08-25T08:54:35.225Z</time>
      </trkpt>
      <trkpt lat="43.96294" lon="2.2271">
        <ele>213</ele>
        <time>2020-08-25T08:54:36.225Z</time>
      </trkpt>
      <trkpt lat="43.96294" lon="2.2271">
        <ele>213</ele>
        <time>2020-08-25T08:54:37.225Z</time>
      </trkpt>
      <trkpt lat="43.96295" lon="2.22711">
        <ele>214</ele>
        <time>2020-08-25T08:54:38.225Z</time>
      </trkpt>
      <trkpt lat="43.96297" lon="2.22711">
        <ele>214</ele>
        <time>2020-08-25T08:54:39.225Z</time>
      </trkpt>
      <trkpt lat="43.96297" lon="2.22712">
        <ele>214</ele>
        <time>2020-08-25T08:54:40.225Z</time>
      </trkpt>
      <trkpt lat="43.96298" lon="2.22712">
        <ele>214</ele>
        <time>2020-08-25T08:54:41.225Z</time>
      </trkpt>
      <trkpt lat="43.96299" lon="2.22713">
        <ele>214</ele>
        <time>2020-08-25T08:54:42.225Z</time>
      </trkpt>
      <trkpt lat="43.963" lon="2.22714">
        <ele>214</ele>
        <time>2020-08-25T08:54:43.225Z</time>
      </trkpt>
      <trkpt lat="43.96301" lon="2.22715">
        <ele>214</ele>
        <time>2020-08-25T08:54:44.225Z</time>
      </trkpt>
      <trkpt lat="43.96302" lon="2.22715">
        <ele>215</ele>
        <time>2020-08-25T08:54:45.225Z</time>
      </trkpt>
      <trkpt lat="43.96303" lon="2.22716">
        <ele>215</ele>
        <time>2020-08-25T08:54:46.225Z</time>
      </trkpt>
      <trkpt lat="43.96304" lon="2.22716">
        <ele>215</ele>
        <time>2020-08-25T08:54:47.225Z</time>
      </trkpt>
      <trkpt lat="43.96304" lon="2.22717">
        <ele>215</ele>
        <time>2020-08-25T08:54:48.225Z</time>
      </trkpt>
      <trkpt lat="43.96305" lon="2.22718">
        <ele>215</ele>
        <time>2020-08-25T08:54:49.225Z</time>
      </trkpt>
      <trkpt lat="43.96306" lon="2.22719">
        <ele>215</ele>
        <time>2020-08-25T08:54:50.225Z</time>
      </trkpt>
      <trkpt lat="43.96307" lon="2.22719">
        <ele>216</ele>
        <time>2020-08-25T08:54:51.225Z</time>
      </trkpt>
      <trkpt lat="43.96308" lon="2.2272">
        <ele>216</ele>
        <time>2020-08-25T08:54:52.225Z</time>
      </trkpt>
      <trkpt lat="43.96309" lon="2.22721">
        <ele>216</ele>
        <time>2020-08-25T08:54:53.225Z</time>
      </trkpt>
      <trkpt lat="43.9631" lon="2.22721">
        <ele>216</ele>
        <time>2020-08-25T08:54:54.225Z</time>
      </trkpt>
      <trkpt lat="43.9631" lon="2.22721">
        <ele>216</ele>
        <time>2020-08-25T08:54:55.225Z</time>
      </trkpt>
      <trkpt lat="43.96311" lon="2.22722">
        <ele>216</ele>
        <time>2020-08-25T08:54:56.225Z</time>
      </trkpt>
      <trkpt lat="43.96312" lon="2.22723">
        <ele>216</ele>
        <time>2020-08-25T08:54:57.225Z</time>
      </trkpt>
      <trkpt lat="43.96313" lon="2.22723">
        <ele>216</ele>
        <time>2020-08-25T08:54:58.225Z</time>
      </trkpt>
      <trkpt lat="43.96314" lon="2.22724">
        <ele>216</ele>
        <time>2020-08-25T08:54:59.225Z</time>
      </trkpt>
      <trkpt lat="43.96315" lon="2.22725">
        <ele>217</ele>
        <time>2020-08-25T08:55:00.225Z</time>
      </trkpt>
      <trkpt lat="43.96316" lon="2.22725">
        <ele>217</ele>
        <time>2020-08-25T08:55:01.225Z</time>
      </trkpt>
      <trkpt lat="43.96316" lon="2.22726">
        <ele>217</ele>
        <time>2020-08-25T08:55:02.225Z</time>
      </trkpt>
      <trkpt lat="43.96317" lon="2.22727">
        <ele>217</ele>
        <time>2020-08-25T08:55:03.225Z</time>
      </trkpt>
      <trkpt lat="43.96318" lon="2.22727">
        <ele>217</ele>
        <time>2020-08-25T08:55:04.225Z</time>
      </trkpt>
      <trkpt lat="43.96318" lon="2.22728">
        <ele>218</ele>
        <time>2020-08-25T08:55:05.225Z</time>
      </trkpt>
      <trkpt lat="43.96319" lon="2.22728">
        <ele>218</ele>
        <time>2020-08-25T08:55:06.225Z</time>
      </trkpt>
      <trkpt lat="43.9632" lon="2.22728">
        <ele>218</ele>
        <time>2020-08-25T08:55:07.225Z</time>
      </trkpt>
      <trkpt lat="43.96321" lon="2.22728">
        <ele>218</ele>
        <time>2020-08-25T08:55:08.225Z</time>
      </trkpt>
      <trkpt lat="43.96321" lon="2.22729">
        <ele>218</ele>
        <time>2020-08-25T08:55:09.225Z</time>
      </trkpt>
      <trkpt lat="43.96322" lon="2.22729">
        <ele>218</ele>
        <time>2020-08-25T08:55:10.225Z</time>
      </trkpt>
      <trkpt lat="43.96323" lon="2.22731">
        <ele>218</ele>
        <time>2020-08-25T08:55:11.225Z</time>
      </trkpt>
      <trkpt lat="43.96324" lon="2.22732">
        <ele>218</ele>
        <time>2020-08-25T08:55:12.225Z</time>
      </trkpt>
      <trkpt lat="43.96325" lon="2.22733">
        <ele>218</ele>
        <time>2020-08-25T08:55:13.225Z</time>
      </trkpt>
      <trkpt lat="43.96325" lon="2.22735">
        <ele>218</ele>
        <time>2020-08-25T08:55:14.225Z</time>
      </trkpt>
      <trkpt lat="43.96325" lon="2.22736">
        <ele>218</ele>
        <time>2020-08-25T08:55:15.225Z</time>
      </trkpt>
      <trkpt lat="43.96326" lon="2.22738">
        <ele>218</ele>
        <time>2020-08-25T08:55:16.225Z</time>
      </trkpt>
      <trkpt lat="43.96326" lon="2.22739">
        <ele>218</ele>
        <time>2020-08-25T08:55:17.225Z</time>
      </trkpt>
      <trkpt lat="43.96327" lon="2.22741">
        <ele>217</ele>
        <time>2020-08-25T08:55:18.225Z</time>
      </trkpt>
      <trkpt lat="43.96327" lon="2.22742">
        <ele>217</ele>
        <time>2020-08-25T08:55:19.225Z</time>
      </trkpt>
      <trkpt lat="43.96328" lon="2.22743">
        <ele>217</ele>
        <time>2020-08-25T08:55:20.225Z</time>
      </trkpt>
      <trkpt lat="43.96329" lon="2.22744">
        <ele>217</ele>
        <time>2020-08-25T08:55:21.225Z</time>
      </trkpt>
      <trkpt lat="43.9633" lon="2.22746">
        <ele>217</ele>
        <time>2020-08-25T08:55:22.225Z</time>
      </trkpt>
      <trkpt lat="43.9633" lon="2.22748">
        <ele>217</ele>
        <time>2020-08-25T08:55:23.225Z</time>
      </trkpt>
      <trkpt lat="43.96331" lon="2.22749">
        <ele>217</ele>
        <time>2020-08-25T08:55:24.225Z</time>
      </trkpt>
      <trkpt lat="43.96332" lon="2.22751">
        <ele>217</ele>
        <time>2020-08-25T08:55:25.225Z</time>
      </trkpt>
      <trkpt lat="43.96332" lon="2.22753">
        <ele>217</ele>
        <time>2020-08-25T08:55:26.225Z</time>
      </trkpt>
      <trkpt lat="43.96332" lon="2.22754">
        <ele>217</ele>
        <time>2020-08-25T08:55:27.225Z</time>
      </trkpt>
      <trkpt lat="43.96333" lon="2.22756">
        <ele>217</ele>
        <time>2020-08-25T08:55:28.225Z</time>
      </trkpt>
      <trkpt lat="43.96333" lon="2.22757">
        <ele>217</ele>
        <time>2020-08-25T08:55:29.225Z</time>
      </trkpt>
      <trkpt lat="43.96334" lon="2.22759">
        <ele>217</ele>
        <time>2020-08-25T08:55:30.225Z</time>
      </trkpt>
      <trkpt lat="43.96334" lon="2.2276">
        <ele>217</ele>
        <time>2020-08-25T08:55:31.225Z</time>
      </trkpt>
      <trkpt lat="43.96335" lon="2.22761">
        <ele>217</ele>
        <time>2020-08-25T08:55:32.225Z</time>
      </trkpt>
      <trkpt lat="43.96335" lon="2.22762">
        <ele>217</ele>
        <time>2020-08-25T08:55:33.225Z</time>
      </trkpt>
      <trkpt lat="43.96335" lon="2.22763">
        <ele>217</ele>
        <time>2020-08-25T08:55:34.225Z</time>
      </trkpt>
      <trkpt lat="43.96335" lon="2.22765">
        <ele>217</ele>
        <time>2020-08-25T08:55:35.225Z</time>
      </trkpt>
      <trkpt lat="43.96335" lon="2.22766">
        <ele>217</ele>
        <time>2020-08-25T08:55:36.225Z</time>
      </trkpt>
      <trkpt lat="43.96335" lon="2.22767">
        <ele>217</ele>
        <time>2020-08-25T08:55:37.225Z</time>
      </trkpt>
      <trkpt lat="43.96335" lon="2.22769">
        <ele>217</ele>
        <time>2020-08-25T08:55:38.225Z</time>
      </trkpt>
      <trkpt lat="43.96335" lon="2.2277">
        <ele>217</ele>
        <time>2020-08-25T08:55:39.225Z</time>
      </trkpt>
      <trkpt lat="43.96335" lon="2.22771">
        <ele>217</ele>
        <time>2020-08-25T08:55:40.225Z</time>
      </trkpt>
      <trkpt lat="43.96334" lon="2.22772">
        <ele>216</ele>
        <time>2020-08-25T08:55:41.225Z</time>
      </trkpt>
      <trkpt lat="43.96334" lon="2.22773">
        <ele>216</ele>
        <time>2020-08-25T08:55:42.225Z</time>
      </trkpt>
      <trkpt lat="43.96333" lon="2.22773">
        <ele>216</ele>
        <time>2020-08-25T08:55:43.225Z</time>
      </trkpt>
      <trkpt lat="43.96332" lon="2.22774">
        <ele>216</ele>
        <time>2020-08-25T08:55:44.225Z</time>
      </trkpt>
      <trkpt lat="43.96332" lon="2.22775">
        <ele>216</ele>
        <time>2020-08-25T08:55:45.225Z</time>
      </trkpt>
      <trkpt lat="43.96331" lon="2.22776">
        <ele>216</ele>
        <time>2020-08-25T08:55:46.225Z</time>
      </trkpt>
      <trkpt lat="43.96331" lon="2.22778">
        <ele>216</ele>
        <time>2020-08-25T08:55:47.225Z</time>
      </trkpt>
      <trkpt lat="43.96331" lon="2.22779">
        <ele>216</ele>
        <time>2020-08-25T08:55:48.225Z</time>
      </trkpt>
      <trkpt lat="43.96331" lon="2.2278">
        <ele>216</ele>
        <time>2020-08-25T08:55:49.225Z</time>
      </trkpt>
      <trkpt lat="43.96331" lon="2.22782">
        <ele>216</ele>
        <time>2020-08-25T08:55:50.225Z</time>
      </trkpt>
      <trkpt lat="43.96332" lon="2.22783">
        <ele>216</ele>
        <time>2020-08-25T08:55:51.225Z</time>
      </trkpt>
      <trkpt lat="43.96333" lon="2.22784">
        <ele>216</ele>
        <time>2020-08-25T08:55:52.225Z</time>
      </trkpt>
      <trkpt lat="43.96333" lon="2.22785">
        <ele>216</ele>
        <time>2020-08-25T08:55:53.225Z</time>
      </trkpt>
      <trkpt lat="43.96334" lon="2.22785">
        <ele>216</ele>
        <time>2020-08-25T08:55:54.225Z</time>
      </trkpt>
      <trkpt lat="43.96335" lon="2.22786">
        <ele>216</ele>
        <time>2020-08-25T08:55:55.225Z</time>
      </trkpt>
      <trkpt lat="43.96335" lon="2.22787">
        <ele>216</ele>
        <time>2020-08-25T08:55:56.225Z</time>
      </trkpt>
      <trkpt lat="43.96336" lon="2.22788">
        <ele>216</ele>
        <time>2020-08-25T08:55:57.225Z</time>
      </trkpt>
      <trkpt lat="43.96336" lon="2.22789">
        <ele>216</ele>
        <time>2020-08-25T08:55:58.225Z</time>
      </trkpt>
      <trkpt lat="43.96337" lon="2.22791">
        <ele>216</ele>
        <time>2020-08-25T08:55:59.225Z</time>
      </trkpt>
      <trkpt lat="43.96337" lon="2.22792">
        <ele>216</ele>
        <time>2020-08-25T08:56:00.225Z</time>
      </trkpt>
      <trkpt lat="43.96337" lon="2.22793">
        <ele>216</ele>
        <time>2020-08-25T08:56:01.225Z</time>
      </trkpt>
      <trkpt lat="43.96337" lon="2.22795">
        <ele>216</ele>
        <time>2020-08-25T08:56:02.225Z</time>
      </trkpt>
      <trkpt lat="43.96336" lon="2.22796">
        <ele>216</ele>
        <time>2020-08-25T08:56:03.225Z</time>
      </trkpt>
      <trkpt lat="43.96336" lon="2.22797">
        <ele>216</ele>
        <time>2020-08-25T08:56:04.225Z</time>
      </trkpt>
      <trkpt lat="43.96336" lon="2.22798">
        <ele>216</ele>
        <time>2020-08-25T08:56:05.225Z</time>
      </trkpt>
      <trkpt lat="43.96336" lon="2.22799">
        <ele>216</ele>
        <time>2020-08-25T08:56:06.225Z</time>
      </trkpt>
      <trkpt lat="43.96336" lon="2.22801">
        <ele>216</ele>
        <time>2020-08-25T08:56:07.225Z</time>
      </trkpt>
      <trkpt lat="43.96336" lon="2.22802">
        <ele>216</ele>
        <time>2020-08-25T08:56:08.225Z</time>
      </trkpt>
      <trkpt lat="43.96336" lon="2.22803">
        <ele>216</ele>
        <time>2020-08-25T08:56:09.225Z</time>
      </trkpt>
      <trkpt lat="43.96337" lon="2.22804">
        <ele>216</ele>
        <time>2020-08-25T08:56:10.225Z</time>
      </trkpt>
      <trkpt lat="43.96338" lon="2.22805">
        <ele>216</ele>
        <time>2020-08-25T08:56:11.225Z</time>
      </trkpt>
      <trkpt lat="43.96339" lon="2.22806">
        <ele>216</ele>
        <time>2020-08-25T08:56:12.225Z</time>
      </trkpt>
      <trkpt lat="43.96339" lon="2.22807">
        <ele>216</ele>
        <time>2020-08-25T08:56:13.225Z</time>
      </trkpt>
      <trkpt lat="43.96339" lon="2.22808">
        <ele>216</ele>
        <time>2020-08-25T08:56:14.225Z</time>
      </trkpt>
      <trkpt lat="43.9634" lon="2.2281">
        <ele>216</ele>
        <time>2020-08-25T08:56:15.225Z</time>
      </trkpt>
      <trkpt lat="43.9634" lon="2.22811">
        <ele>216</ele>
        <time>2020-08-25T08:56:16.225Z</time>
      </trkpt>
      <trkpt lat="43.9634" lon="2.22812">
        <ele>216</ele>
        <time>2020-08-25T08:56:17.225Z</time>
      </trkpt>
      <trkpt lat="43.9634" lon="2.22813">
        <ele>216</ele>
        <time>2020-08-25T08:56:18.225Z</time>
      </trkpt>
      <trkpt lat="43.9634" lon="2.22814">
        <ele>216</ele>
        <time>2020-08-25T08:56:19.225Z</time>
      </trkpt>
      <trkpt lat="43.96341" lon="2.22815">
        <ele>216</ele>
        <time>2020-08-25T08:56:20.225Z</time>
      </trkpt>
      <trkpt lat="43.96341" lon="2.22816">
        <ele>216</ele>
        <time>2020-08-25T08:56:21.225Z</time>
      </trkpt>
      <trkpt lat="43.96342" lon="2.22818">
        <ele>216</ele>
        <time>2020-08-25T08:56:22.225Z</time>
      </trkpt>
      <trkpt lat="43.96342" lon="2.22819">
        <ele>216</ele>
        <time>2020-08-25T08:56:23.225Z</time>
      </trkpt>
      <trkpt lat="43.96342" lon="2.2282">
        <ele>216</ele>
        <time>2020-08-25T08:56:24.225Z</time>
      </trkpt>
      <trkpt lat="43.96342" lon="2.22822">
        <ele>216</ele>
        <time>2020-08-25T08:56:25.225Z</time>
      </trkpt>
      <trkpt lat="43.96343" lon="2.22823">
        <ele>216</ele>
        <time>2020-08-25T08:56:26.225Z</time>
      </trkpt>
      <trkpt lat="43.96343" lon="2.22825">
        <ele>216</ele>
        <time>2020-08-25T08:56:27.225Z</time>
      </trkpt>
      <trkpt lat="43.96343" lon="2.22826">
        <ele>216</ele>
        <time>2020-08-25T08:56:28.225Z</time>
      </trkpt>
      <trkpt lat="43.96343" lon="2.22828">
        <ele>216</ele>
        <time>2020-08-25T08:56:29.225Z</time>
      </trkpt>
      <trkpt lat="43.96344" lon="2.2283">
        <ele>216</ele>
        <time>2020-08-25T08:56:30.225Z</time>
      </trkpt>
      <trkpt lat="43.96344" lon="2.22831">
        <ele>216</ele>
        <time>2020-08-25T08:56:31.225Z</time>
      </trkpt>
      <trkpt lat="43.96344" lon="2.22833">
        <ele>216</ele>
        <time>2020-08-25T08:56:32.225Z</time>
      </trkpt>
      <trkpt lat="43.96344" lon="2.22834">
        <ele>216</ele>
        <time>2020-08-25T08:56:33.225Z</time>
      </trkpt>
      <trkpt lat="43.96345" lon="2.22836">
        <ele>216</ele>
        <time>2020-08-25T08:56:34.225Z</time>
      </trkpt>
      <trkpt lat="43.96345" lon="2.22837">
        <ele>216</ele>
        <time>2020-08-25T08:56:35.225Z</time>
      </trkpt>
      <trkpt lat="43.96345" lon="2.22839">
        <ele>216</ele>
        <time>2020-08-25T08:56:36.225Z</time>
      </trkpt>
      <trkpt lat="43.96345" lon="2.2284">
        <ele>216</ele>
        <time>2020-08-25T08:56:37.225Z</time>
      </trkpt>
      <trkpt lat="43.96345" lon="2.22842">
        <ele>216</ele>
        <time>2020-08-25T08:56:38.225Z</time>
      </trkpt>
      <trkpt lat="43.96345" lon="2.22843">
        <ele>216</ele>
        <time>2020-08-25T08:56:39.225Z</time>
      </trkpt>
      <trkpt lat="43.96345" lon="2.22845">
        <ele>216</ele>
        <time>2020-08-25T08:56:40.225Z</time>
      </trkpt>
      <trkpt lat="43.96346" lon="2.22847">
        <ele>216</ele>
        <time>2020-08-25T08:56:41.225Z</time>
      </trkpt>
      <trkpt lat="43.96346" lon="2.22848">
        <ele>216</ele>
        <time>2020-08-25T08:56:42.225Z</time>
      </trkpt>
      <trkpt lat="43.96347" lon="2.2285">
        <ele>216</ele>
        <time>2020-08-25T08:56:43.225Z</time>
      </trkpt>
      <trkpt lat="43.96347" lon="2.22851">
        <ele>216</ele>
        <time>2020-08-25T08:56:44.225Z</time>
      </trkpt>
      <trkpt lat="43.96347" lon="2.22852">
        <ele>216</ele>
        <time>2020-08-25T08:56:45.225Z</time>
      </trkpt>
      <trkpt lat="43.96348" lon="2.22853">
        <ele>217</ele>
        <time>2020-08-25T08:56:46.225Z</time>
      </trkpt>
      <trkpt lat="43.96348" lon="2.22855">
        <ele>217</ele>
        <time>2020-08-25T08:56:47.225Z</time>
      </trkpt>
      <trkpt lat="43.96349" lon="2.22856">
        <ele>217</ele>
        <time>2020-08-25T08:56:48.225Z</time>
      </trkpt>
      <trkpt lat="43.96349" lon="2.22858">
        <ele>217</ele>
        <time>2020-08-25T08:56:49.225Z</time>
      </trkpt>
      <trkpt lat="43.96349" lon="2.22859">
        <ele>217</ele>
        <time>2020-08-25T08:56:50.225Z</time>
      </trkpt>
      <trkpt lat="43.96349" lon="2.22861">
        <ele>217</ele>
        <time>2020-08-25T08:56:51.225Z</time>
      </trkpt>
      <trkpt lat="43.96349" lon="2.22862">
        <ele>217</ele>
        <time>2020-08-25T08:56:52.225Z</time>
      </trkpt>
      <trkpt lat="43.96349" lon="2.22863">
        <ele>217</ele>
        <time>2020-08-25T08:56:53.225Z</time>
      </trkpt>
      <trkpt lat="43.9635" lon="2.22865">
        <ele>217</ele>
        <time>2020-08-25T08:56:54.225Z</time>
      </trkpt>
      <trkpt lat="43.9635" lon="2.22866">
        <ele>217</ele>
        <time>2020-08-25T08:56:55.225Z</time>
      </trkpt>
      <trkpt lat="43.96351" lon="2.22868">
        <ele>217</ele>
        <time>2020-08-25T08:56:56.225Z</time>
      </trkpt>
      <trkpt lat="43.96351" lon="2.22869">
        <ele>217</ele>
        <time>2020-08-25T08:56:57.225Z</time>
      </trkpt>
      <trkpt lat="43.96351" lon="2.2287">
        <ele>217</ele>
        <time>2020-08-25T08:56:58.225Z</time>
      </trkpt>
      <trkpt lat="43.96352" lon="2.22872">
        <ele>217</ele>
        <time>2020-08-25T08:56:59.225Z</time>
      </trkpt>
      <trkpt lat="43.96352" lon="2.22873">
        <ele>217</ele>
        <time>2020-08-25T08:57:00.225Z</time>
      </trkpt>
      <trkpt lat="43.96353" lon="2.22874">
        <ele>217</ele>
        <time>2020-08-25T08:57:01.225Z</time>
      </trkpt>
      <trkpt lat="43.96353" lon="2.22875">
        <ele>217</ele>
        <time>2020-08-25T08:57:02.225Z</time>
      </trkpt>
      <trkpt lat="43.96354" lon="2.22877">
        <ele>217</ele>
        <time>2020-08-25T08:57:03.225Z</time>
      </trkpt>
      <trkpt lat="43.96355" lon="2.22878">
        <ele>217</ele>
        <time>2020-08-25T08:57:04.225Z</time>
      </trkpt>
      <trkpt lat="43.96355" lon="2.2288">
        <ele>217</ele>
        <time>2020-08-25T08:57:05.225Z</time>
      </trkpt>
      <trkpt lat="43.96356" lon="2.22882">
        <ele>217</ele>
        <time>2020-08-25T08:57:06.225Z</time>
      </trkpt>
      <trkpt lat="43.96356" lon="2.22883">
        <ele>217</ele>
        <time>2020-08-25T08:57:07.225Z</time>
      </trkpt>
      <trkpt lat="43.96356" lon="2.22885">
        <ele>217</ele>
        <time>2020-08-25T08:57:08.225Z</time>
      </trkpt>
      <trkpt lat="43.96355" lon="2.22886">
        <ele>217</ele>
        <time>2020-08-25T08:57:09.225Z</time>
      </trkpt>
      <trkpt lat="43.96354" lon="2.22887">
        <ele>217</ele>
        <time>2020-08-25T08:57:10.225Z</time>
      </trkpt>
      <trkpt lat="43.96354" lon="2.22889">
        <ele>217</ele>
        <time>2020-08-25T08:57:11.225Z</time>
      </trkpt>
      <trkpt lat="43.96354" lon="2.2289">
        <ele>217</ele>
        <time>2020-08-25T08:57:12.225Z</time>
      </trkpt>
      <trkpt lat="43.96354" lon="2.22892">
        <ele>217</ele>
        <time>2020-08-25T08:57:13.225Z</time>
      </trkpt>
      <trkpt lat="43.96354" lon="2.22893">
        <ele>217</ele>
        <time>2020-08-25T08:57:14.225Z</time>
      </trkpt>
      <trkpt lat="43.96354" lon="2.22894">
        <ele>217</ele>
        <time>2020-08-25T08:57:15.225Z</time>
      </trkpt>
      <trkpt lat="43.96354" lon="2.22896">
        <ele>217</ele>
        <time>2020-08-25T08:57:16.225Z</time>
      </trkpt>
      <trkpt lat="43.96355" lon="2.22897">
        <ele>217</ele>
        <time>2020-08-25T08:57:17.225Z</time>
      </trkpt>
      <trkpt lat="43.96355" lon="2.22897">
        <ele>217</ele>
        <time>2020-08-25T08:57:18.225Z</time>
      </trkpt>
      <trkpt lat="43.96356" lon="2.22898">
        <ele>217</ele>
        <time>2020-08-25T08:57:19.225Z</time>
      </trkpt>
      <trkpt lat="43.96356" lon="2.22899">
        <ele>217</ele>
        <time>2020-08-25T08:57:20.225Z</time>
      </trkpt>
      <trkpt lat="43.96357" lon="2.229">
        <ele>217</ele>
        <time>2020-08-25T08:57:21.225Z</time>
      </trkpt>
      <trkpt lat="43.96358" lon="2.22902">
        <ele>217</ele>
        <time>2020-08-25T08:57:22.225Z</time>
      </trkpt>
      <trkpt lat="43.96359" lon="2.22904">
        <ele>217</ele>
        <time>2020-08-25T08:57:23.225Z</time>
      </trkpt>
      <trkpt lat="43.96359" lon="2.22905">
        <ele>217</ele>
        <time>2020-08-25T08:57:24.225Z</time>
      </trkpt>
      <trkpt lat="43.9636" lon="2.22907">
        <ele>217</ele>
        <time>2020-08-25T08:57:25.225Z</time>
      </trkpt>
      <trkpt lat="43.96361" lon="2.22908">
        <ele>217</ele>
        <time>2020-08-25T08:57:26.225Z</time>
      </trkpt>
      <trkpt lat="43.96361" lon="2.2291">
        <ele>217</ele>
        <time>2020-08-25T08:57:27.225Z</time>
      </trkpt>
      <trkpt lat="43.96361" lon="2.22911">
        <ele>217</ele>
        <time>2020-08-25T08:57:28.225Z</time>
      </trkpt>
      <trkpt lat="43.96362" lon="2.22913">
        <ele>217</ele>
        <time>2020-08-25T08:57:29.225Z</time>
      </trkpt>
      <trkpt lat="43.96362" lon="2.22914">
        <ele>217</ele>
        <time>2020-08-25T08:57:30.225Z</time>
      </trkpt>
      <trkpt lat="43.96362" lon="2.22915">
        <ele>217</ele>
        <time>2020-08-25T08:57:31.225Z</time>
      </trkpt>
      <trkpt lat="43.96363" lon="2.22917">
        <ele>217</ele>
        <time>2020-08-25T08:57:32.225Z</time>
      </trkpt>
      <trkpt lat="43.96363" lon="2.22918">
        <ele>217</ele>
        <time>2020-08-25T08:57:33.225Z</time>
      </trkpt>
      <trkpt lat="43.96363" lon="2.22919">
        <ele>217</ele>
        <time>2020-08-25T08:57:34.225Z</time>
      </trkpt>
      <trkpt lat="43.96363" lon="2.2292">
        <ele>217</ele>
        <time>2020-08-25T08:57:35.225Z</time>
      </trkpt>
      <trkpt lat="43.96364" lon="2.22921">
        <ele>217</ele>
        <time>2020-08-25T08:57:36.225Z</time>
      </trkpt>
      <trkpt lat="43.96364" lon="2.22922">
        <ele>217</ele>
        <time>2020-08-25T08:57:37.225Z</time>
      </trkpt>
      <trkpt lat="43.96365" lon="2.22923">
        <ele>217</ele>
        <time>2020-08-25T08:57:38.225Z</time>
      </trkpt>
      <trkpt lat="43.96366" lon="2.22924">
        <ele>217</ele>
        <time>2020-08-25T08:57:39.225Z</time>
      </trkpt>
      <trkpt lat="43.96367" lon="2.22925">
        <ele>217</ele>
        <time>2020-08-25T08:57:40.225Z</time>
      </trkpt>
      <trkpt lat="43.96368" lon="2.22925">
        <ele>217</ele>
        <time>2020-08-25T08:57:41.225Z</time>
      </trkpt>
      <trkpt lat="43.96368" lon="2.22926">
        <ele>217</ele>
        <time>2020-08-25T08:57:42.225Z</time>
      </trkpt>
      <trkpt lat="43.96369" lon="2.22928">
        <ele>217</ele>
        <time>2020-08-25T08:57:43.225Z</time>
      </trkpt>
      <trkpt lat="43.9637" lon="2.22929">
        <ele>217</ele>
        <time>2020-08-25T08:57:44.225Z</time>
      </trkpt>
      <trkpt lat="43.9637" lon="2.2293">
        <ele>217</ele>
        <time>2020-08-25T08:57:45.225Z</time>
      </trkpt>
      <trkpt lat="43.96371" lon="2.22931">
        <ele>217</ele>
        <time>2020-08-25T08:57:46.225Z</time>
      </trkpt>
      <trkpt lat="43.96371" lon="2.22933">
        <ele>217</ele>
        <time>2020-08-25T08:57:47.225Z</time>
      </trkpt>
      <trkpt lat="43.96372" lon="2.22934">
        <ele>217</ele>
        <time>2020-08-25T08:57:48.225Z</time>
      </trkpt>
      <trkpt lat="43.96372" lon="2.22934">
        <ele>217</ele>
        <time>2020-08-25T08:57:49.225Z</time>
      </trkpt>
      <trkpt lat="43.96373" lon="2.22935">
        <ele>217</ele>
        <time>2020-08-25T08:57:50.225Z</time>
      </trkpt>
      <trkpt lat="43.96373" lon="2.22936">
        <ele>217</ele>
        <time>2020-08-25T08:57:51.225Z</time>
      </trkpt>
      <trkpt lat="43.96374" lon="2.22938">
        <ele>217</ele>
        <time>2020-08-25T08:57:52.225Z</time>
      </trkpt>
      <trkpt lat="43.96374" lon="2.22938">
        <ele>217</ele>
        <time>2020-08-25T08:57:53.225Z</time>
      </trkpt>
      <trkpt lat="43.96374" lon="2.22939">
        <ele>217</ele>
        <time>2020-08-25T08:57:54.225Z</time>
      </trkpt>
      <trkpt lat="43.96375" lon="2.2294">
        <ele>217</ele>
        <time>2020-08-25T08:57:55.225Z</time>
      </trkpt>
      <trkpt lat="43.96375" lon="2.22941">
        <ele>217</ele>
        <time>2020-08-25T08:57:56.225Z</time>
      </trkpt>
      <trkpt lat="43.96376" lon="2.22941">
        <ele>217</ele>
        <time>2020-08-25T08:57:57.225Z</time>
      </trkpt>
      <trkpt lat="43.96377" lon="2.22942">
        <ele>217</ele>
        <time>2020-08-25T08:57:58.225Z</time>
      </trkpt>
      <trkpt lat="43.96377" lon="2.22942">
        <ele>217</ele>
        <time>2020-08-25T08:57:59.225Z</time>
      </trkpt>
      <trkpt lat="43.96378" lon="2.22943">
        <ele>217</ele>
        <time>2020-08-25T08:58:00.225Z</time>
      </trkpt>
      <trkpt lat="43.96378" lon="2.22943">
        <ele>217</ele>
        <time>2020-08-25T08:58:01.225Z</time>
      </trkpt>
      <trkpt lat="43.96378" lon="2.22944">
        <ele>217</ele>
        <time>2020-08-25T08:58:02.225Z</time>
      </trkpt>
      <trkpt lat="43.96378" lon="2.22944">
        <ele>218</ele>
        <time>2020-08-25T08:58:03.225Z</time>
      </trkpt>
      <trkpt lat="43.96378" lon="2.22944">
        <ele>218</ele>
        <time>2020-08-25T08:58:04.225Z</time>
      </trkpt>
      <trkpt lat="43.96379" lon="2.22946">
        <ele>218</ele>
        <time>2020-08-25T08:58:11.222Z</time>
      </trkpt>
      <trkpt lat="43.96379" lon="2.22947">
        <ele>218</ele>
        <time>2020-08-25T08:58:12.222Z</time>
      </trkpt>
      <trkpt lat="43.9638" lon="2.22947">
        <ele>218</ele>
        <time>2020-08-25T08:58:13.222Z</time>
      </trkpt>
      <trkpt lat="43.96381" lon="2.22947">
        <ele>218</ele>
        <time>2020-08-25T08:58:14.222Z</time>
      </trkpt>
      <trkpt lat="43.96381" lon="2.22948">
        <ele>218</ele>
        <time>2020-08-25T08:58:15.222Z</time>
      </trkpt>
      <trkpt lat="43.96381" lon="2.22948">
        <ele>218</ele>
        <time>2020-08-25T08:58:16.222Z</time>
      </trkpt>
      <trkpt lat="43.96381" lon="2.22948">
        <ele>218</ele>
        <time>2020-08-25T08:58:17.222Z</time>
      </trkpt>
      <trkpt lat="43.96381" lon="2.22949">
        <ele>218</ele>
        <time>2020-08-25T08:58:18.222Z</time>
      </trkpt>
      <trkpt lat="43.96381" lon="2.22949">
        <ele>218</ele>
        <time>2020-08-25T08:58:19.222Z</time>
      </trkpt>
      <trkpt lat="43.96382" lon="2.22951">
        <ele>219</ele>
        <time>2020-08-25T08:58:26.220Z</time>
      </trkpt>
      <trkpt lat="43.96382" lon="2.22951">
        <ele>219</ele>
        <time>2020-08-25T08:58:27.220Z</time>
      </trkpt>
      <trkpt lat="43.96382" lon="2.22952">
        <ele>219</ele>
        <time>2020-08-25T08:58:28.220Z</time>
      </trkpt>
      <trkpt lat="43.96382" lon="2.22952">
        <ele>219</ele>
        <time>2020-08-25T08:58:29.220Z</time>
      </trkpt>
      <trkpt lat="43.96383" lon="2.22953">
        <ele>219</ele>
        <time>2020-08-25T08:58:30.220Z</time>
      </trkpt>
      <trkpt lat="43.96383" lon="2.22953">
        <ele>219</ele>
        <time>2020-08-25T08:58:31.220Z</time>
      </trkpt>
      <trkpt lat="43.96383" lon="2.22954">
        <ele>219</ele>
        <time>2020-08-25T08:58:32.220Z</time>
      </trkpt>
      <trkpt lat="43.96384" lon="2.22954">
        <ele>219</ele>
        <time>2020-08-25T08:58:33.220Z</time>
      </trkpt>
      <trkpt lat="43.96384" lon="2.22955">
        <ele>219</ele>
        <time>2020-08-25T08:58:34.220Z</time>
      </trkpt>
      <trkpt lat="43.96385" lon="2.22956">
        <ele>220</ele>
        <time>2020-08-25T08:58:35.220Z</time>
      </trkpt>
      <trkpt lat="43.96385" lon="2.22956">
        <ele>220</ele>
        <time>2020-08-25T08:58:36.220Z</time>
      </trkpt>
      <trkpt lat="43.96386" lon="2.22957">
        <ele>220</ele>
        <time>2020-08-25T08:58:37.220Z</time>
      </trkpt>
      <trkpt lat="43.96387" lon="2.22957">
        <ele>220</ele>
        <time>2020-08-25T08:58:38.220Z</time>
      </trkpt>
      <trkpt lat="43.96387" lon="2.22958">
        <ele>220</ele>
        <time>2020-08-25T08:58:39.220Z</time>
      </trkpt>
      <trkpt lat="43.96387" lon="2.22958">
        <ele>220</ele>
        <time>2020-08-25T08:58:40.220Z</time>
      </trkpt>
      <trkpt lat="43.96388" lon="2.22958">
        <ele>220</ele>
        <time>2020-08-25T08:58:41.220Z</time>
      </trkpt>
      <trkpt lat="43.96388" lon="2.22959">
        <ele>220</ele>
        <time>2020-08-25T08:58:42.220Z</time>
      </trkpt>
      <trkpt lat="43.96389" lon="2.2296">
        <ele>220</ele>
        <time>2020-08-25T08:58:43.220Z</time>
      </trkpt>
      <trkpt lat="43.9639" lon="2.22961">
        <ele>220</ele>
        <time>2020-08-25T08:58:44.220Z</time>
      </trkpt>
      <trkpt lat="43.9639" lon="2.22962">
        <ele>220</ele>
        <time>2020-08-25T08:58:45.220Z</time>
      </trkpt>
      <trkpt lat="43.96391" lon="2.22963">
        <ele>220</ele>
        <time>2020-08-25T08:58:46.220Z</time>
      </trkpt>
      <trkpt lat="43.96391" lon="2.22963">
        <ele>220</ele>
        <time>2020-08-25T08:58:47.220Z</time>
      </trkpt>
      <trkpt lat="43.96392" lon="2.22964">
        <ele>220</ele>
        <time>2020-08-25T08:58:48.220Z</time>
      </trkpt>
      <trkpt lat="43.96392" lon="2.22965">
        <ele>220</ele>
        <time>2020-08-25T08:58:49.220Z</time>
      </trkpt>
      <trkpt lat="43.96393" lon="2.22967">
        <ele>220</ele>
        <time>2020-08-25T08:58:50.220Z</time>
      </trkpt>
      <trkpt lat="43.96393" lon="2.22968">
        <ele>220</ele>
        <time>2020-08-25T08:58:51.220Z</time>
      </trkpt>
      <trkpt lat="43.96394" lon="2.22968">
        <ele>220</ele>
        <time>2020-08-25T08:58:52.220Z</time>
      </trkpt>
      <trkpt lat="43.96394" lon="2.22969">
        <ele>220</ele>
        <time>2020-08-25T08:58:53.220Z</time>
      </trkpt>
      <trkpt lat="43.96395" lon="2.2297">
        <ele>220</ele>
        <time>2020-08-25T08:58:54.220Z</time>
      </trkpt>
      <trkpt lat="43.96395" lon="2.2297">
        <ele>220</ele>
        <time>2020-08-25T08:58:55.220Z</time>
      </trkpt>
      <trkpt lat="43.96397" lon="2.22974">
        <ele>219</ele>
        <time>2020-08-25T08:59:05.234Z</time>
      </trkpt>
      <trkpt lat="43.96397" lon="2.22975">
        <ele>219</ele>
        <time>2020-08-25T08:59:06.234Z</time>
      </trkpt>
      <trkpt lat="43.96397" lon="2.22975">
        <ele>219</ele>
        <time>2020-08-25T08:59:07.234Z</time>
      </trkpt>
      <trkpt lat="43.96398" lon="2.22976">
        <ele>219</ele>
        <time>2020-08-25T08:59:08.234Z</time>
      </trkpt>
      <trkpt lat="43.96398" lon="2.22976">
        <ele>219</ele>
        <time>2020-08-25T08:59:09.234Z</time>
      </trkpt>
      <trkpt lat="43.96399" lon="2.22976">
        <ele>219</ele>
        <time>2020-08-25T08:59:10.234Z</time>
      </trkpt>
      <trkpt lat="43.96401" lon="2.22978">
        <ele>220</ele>
        <time>2020-08-25T08:59:27.248Z</time>
      </trkpt>
      <trkpt lat="43.96402" lon="2.22979">
        <ele>221</ele>
        <time>2020-08-25T08:59:28.248Z</time>
      </trkpt>
      <trkpt lat="43.96402" lon="2.2298">
        <ele>221</ele>
        <time>2020-08-25T08:59:29.248Z</time>
      </trkpt>
      <trkpt lat="43.96403" lon="2.22981">
        <ele>221</ele>
        <time>2020-08-25T08:59:30.248Z</time>
      </trkpt>
      <trkpt lat="43.96403" lon="2.22982">
        <ele>221</ele>
        <time>2020-08-25T08:59:31.248Z</time>
      </trkpt>
      <trkpt lat="43.96404" lon="2.22983">
        <ele>221</ele>
        <time>2020-08-25T08:59:32.248Z</time>
      </trkpt>
      <trkpt lat="43.96404" lon="2.22985">
        <ele>221</ele>
        <time>2020-08-25T08:59:33.248Z</time>
      </trkpt>
      <trkpt lat="43.96405" lon="2.22986">
        <ele>221</ele>
        <time>2020-08-25T08:59:34.248Z</time>
      </trkpt>
      <trkpt lat="43.96405" lon="2.22987">
        <ele>221</ele>
        <time>2020-08-25T08:59:35.248Z</time>
      </trkpt>
      <trkpt lat="43.96406" lon="2.22988">
        <ele>221</ele>
        <time>2020-08-25T08:59:36.248Z</time>
      </trkpt>
      <trkpt lat="43.96407" lon="2.22989">
        <ele>221</ele>
        <time>2020-08-25T08:59:37.248Z</time>
      </trkpt>
      <trkpt lat="43.96407" lon="2.2299">
        <ele>221</ele>
        <time>2020-08-25T08:59:38.248Z</time>
      </trkpt>
      <trkpt lat="43.96408" lon="2.22992">
        <ele>221</ele>
        <time>2020-08-25T08:59:39.248Z</time>
      </trkpt>
      <trkpt lat="43.96409" lon="2.22993">
        <ele>221</ele>
        <time>2020-08-25T08:59:40.248Z</time>
      </trkpt>
      <trkpt lat="43.96409" lon="2.22994">
        <ele>221</ele>
        <time>2020-08-25T08:59:41.248Z</time>
      </trkpt>
      <trkpt lat="43.9641" lon="2.22995">
        <ele>221</ele>
        <time>2020-08-25T08:59:42.248Z</time>
      </trkpt>
      <trkpt lat="43.96411" lon="2.22996">
        <ele>221</ele>
        <time>2020-08-25T08:59:43.248Z</time>
      </trkpt>
      <trkpt lat="43.96412" lon="2.22997">
        <ele>221</ele>
        <time>2020-08-25T08:59:44.248Z</time>
      </trkpt>
      <trkpt lat="43.96413" lon="2.22999">
        <ele>221</ele>
        <time>2020-08-25T08:59:45.248Z</time>
      </trkpt>
      <trkpt lat="43.96413" lon="2.23">
        <ele>221</ele>
        <time>2020-08-25T08:59:46.248Z</time>
      </trkpt>
      <trkpt lat="43.96414" lon="2.23001">
        <ele>221</ele>
        <time>2020-08-25T08:59:47.248Z</time>
      </trkpt>
      <trkpt lat="43.96415" lon="2.23003">
        <ele>221</ele>
        <time>2020-08-25T08:59:48.248Z</time>
      </trkpt>
      <trkpt lat="43.96415" lon="2.23004">
        <ele>221</ele>
        <time>2020-08-25T08:59:49.248Z</time>
      </trkpt>
      <trkpt lat="43.96415" lon="2.23006">
        <ele>221</ele>
        <time>2020-08-25T08:59:50.248Z</time>
      </trkpt>
      <trkpt lat="43.96416" lon="2.23007">
        <ele>221</ele>
        <time>2020-08-25T08:59:51.248Z</time>
      </trkpt>
      <trkpt lat="43.96417" lon="2.23009">
        <ele>221</ele>
        <time>2020-08-25T08:59:52.248Z</time>
      </trkpt>
      <trkpt lat="43.96418" lon="2.2301">
        <ele>221</ele>
        <time>2020-08-25T08:59:53.248Z</time>
      </trkpt>
      <trkpt lat="43.96419" lon="2.23011">
        <ele>221</ele>
        <time>2020-08-25T08:59:54.248Z</time>
      </trkpt>
      <trkpt lat="43.9642" lon="2.23012">
        <ele>221</ele>
        <time>2020-08-25T08:59:55.248Z</time>
      </trkpt>
      <trkpt lat="43.96421" lon="2.23013">
        <ele>221</ele>
        <time>2020-08-25T08:59:56.248Z</time>
      </trkpt>
      <trkpt lat="43.96422" lon="2.23014">
        <ele>221</ele>
        <time>2020-08-25T08:59:57.248Z</time>
      </trkpt>
      <trkpt lat="43.96423" lon="2.23015">
        <ele>221</ele>
        <time>2020-08-25T08:59:58.248Z</time>
      </trkpt>
      <trkpt lat="43.96424" lon="2.23015">
        <ele>221</ele>
        <time>2020-08-25T08:59:59.248Z</time>
      </trkpt>
      <trkpt lat="43.96425" lon="2.23016">
        <ele>221</ele>
        <time>2020-08-25T09:00:00.248Z</time>
      </trkpt>
      <trkpt lat="43.96426" lon="2.23017">
        <ele>221</ele>
        <time>2020-08-25T09:00:01.248Z</time>
      </trkpt>
      <trkpt lat="43.96426" lon="2.23018">
        <ele>221</ele>
        <time>2020-08-25T09:00:02.248Z</time>
      </trkpt>
      <trkpt lat="43.96427" lon="2.23019">
        <ele>221</ele>
        <time>2020-08-25T09:00:03.248Z</time>
      </trkpt>
      <trkpt lat="43.96428" lon="2.2302">
        <ele>221</ele>
        <time>2020-08-25T09:00:04.248Z</time>
      </trkpt>
      <trkpt lat="43.96429" lon="2.23021">
        <ele>221</ele>
        <time>2020-08-25T09:00:05.248Z</time>
      </trkpt>
      <trkpt lat="43.9643" lon="2.23022">
        <ele>221</ele>
        <time>2020-08-25T09:00:06.248Z</time>
      </trkpt>
      <trkpt lat="43.96431" lon="2.23023">
        <ele>221</ele>
        <time>2020-08-25T09:00:07.248Z</time>
      </trkpt>
      <trkpt lat="43.96432" lon="2.23024">
        <ele>221</ele>
        <time>2020-08-25T09:00:08.248Z</time>
      </trkpt>
      <trkpt lat="43.96433" lon="2.23025">
        <ele>221</ele>
        <time>2020-08-25T09:00:09.248Z</time>
      </trkpt>
      <trkpt lat="43.96433" lon="2.23026">
        <ele>221</ele>
        <time>2020-08-25T09:00:10.248Z</time>
      </trkpt>
      <trkpt lat="43.96434" lon="2.23027">
        <ele>221</ele>
        <time>2020-08-25T09:00:11.248Z</time>
      </trkpt>
      <trkpt lat="43.96435" lon="2.23028">
        <ele>221</ele>
        <time>2020-08-25T09:00:12.248Z</time>
      </trkpt>
      <trkpt lat="43.96436" lon="2.23029">
        <ele>221</ele>
        <time>2020-08-25T09:00:13.248Z</time>
      </trkpt>
      <trkpt lat="43.96437" lon="2.2303">
        <ele>221</ele>
        <time>2020-08-25T09:00:14.248Z</time>
      </trkpt>
      <trkpt lat="43.96437" lon="2.23031">
        <ele>221</ele>
        <time>2020-08-25T09:00:15.248Z</time>
      </trkpt>
      <trkpt lat="43.96438" lon="2.23032">
        <ele>221</ele>
        <time>2020-08-25T09:00:16.248Z</time>
      </trkpt>
      <trkpt lat="43.96438" lon="2.23033">
        <ele>221</ele>
        <time>2020-08-25T09:00:17.248Z</time>
      </trkpt>
      <trkpt lat="43.96439" lon="2.23034">
        <ele>221</ele>
        <time>2020-08-25T09:00:18.248Z</time>
      </trkpt>
      <trkpt lat="43.9644" lon="2.23035">
        <ele>221</ele>
        <time>2020-08-25T09:00:19.248Z</time>
      </trkpt>
      <trkpt lat="43.9644" lon="2.23036">
        <ele>221</ele>
        <time>2020-08-25T09:00:20.248Z</time>
      </trkpt>
      <trkpt lat="43.96441" lon="2.23038">
        <ele>221</ele>
        <time>2020-08-25T09:00:21.248Z</time>
      </trkpt>
      <trkpt lat="43.96442" lon="2.23039">
        <ele>221</ele>
        <time>2020-08-25T09:00:22.248Z</time>
      </trkpt>
      <trkpt lat="43.96442" lon="2.2304">
        <ele>221</ele>
        <time>2020-08-25T09:00:23.248Z</time>
      </trkpt>
      <trkpt lat="43.96443" lon="2.23042">
        <ele>221</ele>
        <time>2020-08-25T09:00:24.248Z</time>
      </trkpt>
      <trkpt lat="43.96444" lon="2.23043">
        <ele>221</ele>
        <time>2020-08-25T09:00:25.248Z</time>
      </trkpt>
      <trkpt lat="43.96445" lon="2.23045">
        <ele>221</ele>
        <time>2020-08-25T09:00:26.248Z</time>
      </trkpt>
      <trkpt lat="43.96446" lon="2.23046">
        <ele>221</ele>
        <time>2020-08-25T09:00:27.248Z</time>
      </trkpt>
      <trkpt lat="43.96447" lon="2.23048">
        <ele>221</ele>
        <time>2020-08-25T09:00:28.248Z</time>
      </trkpt>
      <trkpt lat="43.96448" lon="2.23049">
        <ele>221</ele>
        <time>2020-08-25T09:00:29.248Z</time>
      </trkpt>
      <trkpt lat="43.96449" lon="2.23051">
        <ele>221</ele>
        <time>2020-08-25T09:00:30.248Z</time>
      </trkpt>
      <trkpt lat="43.9645" lon="2.23052">
        <ele>221</ele>
        <time>2020-08-25T09:00:31.248Z</time>
      </trkpt>
      <trkpt lat="43.96451" lon="2.23054">
        <ele>221</ele>
        <time>2020-08-25T09:00:32.248Z</time>
      </trkpt>
      <trkpt lat="43.96452" lon="2.23055">
        <ele>221</ele>
        <time>2020-08-25T09:00:33.248Z</time>
      </trkpt>
      <trkpt lat="43.96453" lon="2.23056">
        <ele>221</ele>
        <time>2020-08-25T09:00:34.248Z</time>
      </trkpt>
      <trkpt lat="43.96454" lon="2.23057">
        <ele>221</ele>
        <time>2020-08-25T09:00:35.248Z</time>
      </trkpt>
      <trkpt lat="43.96455" lon="2.23058">
        <ele>221</ele>
        <time>2020-08-25T09:00:36.248Z</time>
      </trkpt>
      <trkpt lat="43.96455" lon="2.23059">
        <ele>221</ele>
        <time>2020-08-25T09:00:37.248Z</time>
      </trkpt>
      <trkpt lat="43.96456" lon="2.2306">
        <ele>221</ele>
        <time>2020-08-25T09:00:38.248Z</time>
      </trkpt>
      <trkpt lat="43.96457" lon="2.23061">
        <ele>221</ele>
        <time>2020-08-25T09:00:39.248Z</time>
      </trkpt>
      <trkpt lat="43.96458" lon="2.23062">
        <ele>221</ele>
        <time>2020-08-25T09:00:40.248Z</time>
      </trkpt>
      <trkpt lat="43.96459" lon="2.23063">
        <ele>221</ele>
        <time>2020-08-25T09:00:41.248Z</time>
      </trkpt>
      <trkpt lat="43.96459" lon="2.23064">
        <ele>221</ele>
        <time>2020-08-25T09:00:42.248Z</time>
      </trkpt>
      <trkpt lat="43.9646" lon="2.23065">
        <ele>221</ele>
        <time>2020-08-25T09:00:43.248Z</time>
      </trkpt>
      <trkpt lat="43.96461" lon="2.23066">
        <ele>221</ele>
        <time>2020-08-25T09:00:44.248Z</time>
      </trkpt>
      <trkpt lat="43.96462" lon="2.23067">
        <ele>221</ele>
        <time>2020-08-25T09:00:45.248Z</time>
      </trkpt>
      <trkpt lat="43.96463" lon="2.23068">
        <ele>221</ele>
        <time>2020-08-25T09:00:46.248Z</time>
      </trkpt>
      <trkpt lat="43.96463" lon="2.23068">
        <ele>221</ele>
        <time>2020-08-25T09:00:47.248Z</time>
      </trkpt>
      <trkpt lat="43.96464" lon="2.23069">
        <ele>221</ele>
        <time>2020-08-25T09:00:48.248Z</time>
      </trkpt>
      <trkpt lat="43.96465" lon="2.2307">
        <ele>221</ele>
        <time>2020-08-25T09:00:49.248Z</time>
      </trkpt>
      <trkpt lat="43.96465" lon="2.23071">
        <ele>221</ele>
        <time>2020-08-25T09:00:50.248Z</time>
      </trkpt>
      <trkpt lat="43.96466" lon="2.23071">
        <ele>221</ele>
        <time>2020-08-25T09:00:51.248Z</time>
      </trkpt>
      <trkpt lat="43.96467" lon="2.23072">
        <ele>221</ele>
        <time>2020-08-25T09:00:52.248Z</time>
      </trkpt>
      <trkpt lat="43.96468" lon="2.23073">
        <ele>221</ele>
        <time>2020-08-25T09:00:53.248Z</time>
      </trkpt>
      <trkpt lat="43.96469" lon="2.23074">
        <ele>221</ele>
        <time>2020-08-25T09:00:54.248Z</time>
      </trkpt>
      <trkpt lat="43.96469" lon="2.23075">
        <ele>221</ele>
        <time>2020-08-25T09:00:55.248Z</time>
      </trkpt>
      <trkpt lat="43.9647" lon="2.23076">
        <ele>221</ele>
        <time>2020-08-25T09:00:56.248Z</time>
      </trkpt>
      <trkpt lat="43.96471" lon="2.23077">
        <ele>221</ele>
        <time>2020-08-25T09:00:57.248Z</time>
      </trkpt>
      <trkpt lat="43.96471" lon="2.23078">
        <ele>221</ele>
        <time>2020-08-25T09:00:58.248Z</time>
      </trkpt>
      <trkpt lat="43.96472" lon="2.23078">
        <ele>221</ele>
        <time>2020-08-25T09:00:59.248Z</time>
      </trkpt>
      <trkpt lat="43.96473" lon="2.23079">
        <ele>221</ele>
        <time>2020-08-25T09:01:00.248Z</time>
      </trkpt>
      <trkpt lat="43.96474" lon="2.2308">
        <ele>221</ele>
        <time>2020-08-25T09:01:01.248Z</time>
      </trkpt>
      <trkpt lat="43.96475" lon="2.23081">
        <ele>221</ele>
        <time>2020-08-25T09:01:02.248Z</time>
      </trkpt>
      <trkpt lat="43.96475" lon="2.23082">
        <ele>221</ele>
        <time>2020-08-25T09:01:03.248Z</time>
      </trkpt>
      <trkpt lat="43.96476" lon="2.23083">
        <ele>221</ele>
        <time>2020-08-25T09:01:04.248Z</time>
      </trkpt>
      <trkpt lat="43.96477" lon="2.23084">
        <ele>221</ele>
        <time>2020-08-25T09:01:05.248Z</time>
      </trkpt>
      <trkpt lat="43.96478" lon="2.23085">
        <ele>221</ele>
        <time>2020-08-25T09:01:06.248Z</time>
      </trkpt>
      <trkpt lat="43.96479" lon="2.23086">
        <ele>221</ele>
        <time>2020-08-25T09:01:07.248Z</time>
      </trkpt>
      <trkpt lat="43.96479" lon="2.23087">
        <ele>221</ele>
        <time>2020-08-25T09:01:08.248Z</time>
      </trkpt>
      <trkpt lat="43.9648" lon="2.23088">
        <ele>221</ele>
        <time>2020-08-25T09:01:09.248Z</time>
      </trkpt>
      <trkpt lat="43.9648" lon="2.23088">
        <ele>221</ele>
        <time>2020-08-25T09:01:10.248Z</time>
      </trkpt>
      <trkpt lat="43.96481" lon="2.23089">
        <ele>222</ele>
        <time>2020-08-25T09:01:11.248Z</time>
      </trkpt>
      <trkpt lat="43.96482" lon="2.2309">
        <ele>222</ele>
        <time>2020-08-25T09:01:12.248Z</time>
      </trkpt>
      <trkpt lat="43.96482" lon="2.2309">
        <ele>222</ele>
        <time>2020-08-25T09:01:13.248Z</time>
      </trkpt>
      <trkpt lat="43.96483" lon="2.23091">
        <ele>222</ele>
        <time>2020-08-25T09:01:14.248Z</time>
      </trkpt>
      <trkpt lat="43.96483" lon="2.23092">
        <ele>222</ele>
        <time>2020-08-25T09:01:15.248Z</time>
      </trkpt>
      <trkpt lat="43.96484" lon="2.23093">
        <ele>222</ele>
        <time>2020-08-25T09:01:16.248Z</time>
      </trkpt>
      <trkpt lat="43.96485" lon="2.23094">
        <ele>222</ele>
        <time>2020-08-25T09:01:17.248Z</time>
      </trkpt>
      <trkpt lat="43.96486" lon="2.23095">
        <ele>222</ele>
        <time>2020-08-25T09:01:18.248Z</time>
      </trkpt>
      <trkpt lat="43.96487" lon="2.23096">
        <ele>222</ele>
        <time>2020-08-25T09:01:19.248Z</time>
      </trkpt>
      <trkpt lat="43.96488" lon="2.23097">
        <ele>222</ele>
        <time>2020-08-25T09:01:20.248Z</time>
      </trkpt>
      <trkpt lat="43.96489" lon="2.23097">
        <ele>222</ele>
        <time>2020-08-25T09:01:21.248Z</time>
      </trkpt>
      <trkpt lat="43.96489" lon="2.23098">
        <ele>222</ele>
        <time>2020-08-25T09:01:22.248Z</time>
      </trkpt>
      <trkpt lat="43.9649" lon="2.23099">
        <ele>222</ele>
        <time>2020-08-25T09:01:23.248Z</time>
      </trkpt>
      <trkpt lat="43.96491" lon="2.23099">
        <ele>222</ele>
        <time>2020-08-25T09:01:24.248Z</time>
      </trkpt>
      <trkpt lat="43.96491" lon="2.231">
        <ele>222</ele>
        <time>2020-08-25T09:01:25.248Z</time>
      </trkpt>
      <trkpt lat="43.96492" lon="2.23101">
        <ele>223</ele>
        <time>2020-08-25T09:01:26.248Z</time>
      </trkpt>
      <trkpt lat="43.96493" lon="2.23102">
        <ele>223</ele>
        <time>2020-08-25T09:01:27.248Z</time>
      </trkpt>
      <trkpt lat="43.96494" lon="2.23103">
        <ele>223</ele>
        <time>2020-08-25T09:01:28.248Z</time>
      </trkpt>
      <trkpt lat="43.96495" lon="2.23105">
        <ele>223</ele>
        <time>2020-08-25T09:01:29.248Z</time>
      </trkpt>
      <trkpt lat="43.96495" lon="2.23106">
        <ele>223</ele>
        <time>2020-08-25T09:01:30.248Z</time>
      </trkpt>
      <trkpt lat="43.96496" lon="2.23107">
        <ele>223</ele>
        <time>2020-08-25T09:01:31.248Z</time>
      </trkpt>
      <trkpt lat="43.96497" lon="2.23109">
        <ele>223</ele>
        <time>2020-08-25T09:01:32.248Z</time>
      </trkpt>
      <trkpt lat="43.96498" lon="2.2311">
        <ele>223</ele>
        <time>2020-08-25T09:01:33.248Z</time>
      </trkpt>
      <trkpt lat="43.96499" lon="2.23111">
        <ele>223</ele>
        <time>2020-08-25T09:01:34.248Z</time>
      </trkpt>
      <trkpt lat="43.965" lon="2.23112">
        <ele>223</ele>
        <time>2020-08-25T09:01:35.248Z</time>
      </trkpt>
      <trkpt lat="43.96501" lon="2.23114">
        <ele>223</ele>
        <time>2020-08-25T09:01:36.248Z</time>
      </trkpt>
      <trkpt lat="43.96502" lon="2.23115">
        <ele>223</ele>
        <time>2020-08-25T09:01:37.248Z</time>
      </trkpt>
      <trkpt lat="43.96503" lon="2.23116">
        <ele>223</ele>
        <time>2020-08-25T09:01:38.248Z</time>
      </trkpt>
      <trkpt lat="43.96503" lon="2.23118">
        <ele>223</ele>
        <time>2020-08-25T09:01:39.248Z</time>
      </trkpt>
      <trkpt lat="43.96504" lon="2.23119">
        <ele>223</ele>
        <time>2020-08-25T09:01:40.248Z</time>
      </trkpt>
      <trkpt lat="43.96505" lon="2.23121">
        <ele>223</ele>
        <time>2020-08-25T09:01:41.248Z</time>
      </trkpt>
      <trkpt lat="43.96506" lon="2.23122">
        <ele>223</ele>
        <time>2020-08-25T09:01:42.248Z</time>
      </trkpt>
      <trkpt lat="43.96506" lon="2.23123">
        <ele>223</ele>
        <time>2020-08-25T09:01:43.248Z</time>
      </trkpt>
      <trkpt lat="43.96507" lon="2.23125">
        <ele>223</ele>
        <time>2020-08-25T09:01:44.248Z</time>
      </trkpt>
      <trkpt lat="43.96507" lon="2.23126">
        <ele>223</ele>
        <time>2020-08-25T09:01:45.248Z</time>
      </trkpt>
      <trkpt lat="43.96508" lon="2.23128">
        <ele>223</ele>
        <time>2020-08-25T09:01:46.248Z</time>
      </trkpt>
      <trkpt lat="43.96508" lon="2.23129">
        <ele>223</ele>
        <time>2020-08-25T09:01:47.248Z</time>
      </trkpt>
      <trkpt lat="43.96509" lon="2.2313">
        <ele>223</ele>
        <time>2020-08-25T09:01:48.248Z</time>
      </trkpt>
      <trkpt lat="43.96509" lon="2.23131">
        <ele>223</ele>
        <time>2020-08-25T09:01:49.248Z</time>
      </trkpt>
      <trkpt lat="43.9651" lon="2.23132">
        <ele>223</ele>
        <time>2020-08-25T09:01:50.248Z</time>
      </trkpt>
      <trkpt lat="43.96511" lon="2.23133">
        <ele>223</ele>
        <time>2020-08-25T09:01:51.248Z</time>
      </trkpt>
      <trkpt lat="43.96511" lon="2.23134">
        <ele>223</ele>
        <time>2020-08-25T09:01:52.248Z</time>
      </trkpt>
      <trkpt lat="43.96512" lon="2.23135">
        <ele>223</ele>
        <time>2020-08-25T09:01:53.248Z</time>
      </trkpt>
      <trkpt lat="43.96513" lon="2.23136">
        <ele>223</ele>
        <time>2020-08-25T09:01:54.248Z</time>
      </trkpt>
      <trkpt lat="43.96513" lon="2.23137">
        <ele>223</ele>
        <time>2020-08-25T09:01:55.248Z</time>
      </trkpt>
      <trkpt lat="43.96514" lon="2.23139">
        <ele>223</ele>
        <time>2020-08-25T09:01:56.248Z</time>
      </trkpt>
      <trkpt lat="43.96515" lon="2.2314">
        <ele>223</ele>
        <time>2020-08-25T09:01:57.248Z</time>
      </trkpt>
      <trkpt lat="43.96516" lon="2.23142">
        <ele>223</ele>
        <time>2020-08-25T09:01:58.248Z</time>
      </trkpt>
      <trkpt lat="43.96516" lon="2.23143">
        <ele>223</ele>
        <time>2020-08-25T09:01:59.248Z</time>
      </trkpt>
      <trkpt lat="43.96516" lon="2.23144">
        <ele>223</ele>
        <time>2020-08-25T09:02:00.248Z</time>
      </trkpt>
      <trkpt lat="43.96517" lon="2.23145">
        <ele>223</ele>
        <time>2020-08-25T09:02:01.248Z</time>
      </trkpt>
      <trkpt lat="43.96517" lon="2.23146">
        <ele>223</ele>
        <time>2020-08-25T09:02:02.248Z</time>
      </trkpt>
      <trkpt lat="43.96518" lon="2.23148">
        <ele>223</ele>
        <time>2020-08-25T09:02:03.248Z</time>
      </trkpt>
      <trkpt lat="43.96518" lon="2.23149">
        <ele>223</ele>
        <time>2020-08-25T09:02:04.248Z</time>
      </trkpt>
      <trkpt lat="43.96519" lon="2.2315">
        <ele>223</ele>
        <time>2020-08-25T09:02:05.248Z</time>
      </trkpt>
      <trkpt lat="43.9652" lon="2.23151">
        <ele>223</ele>
        <time>2020-08-25T09:02:06.248Z</time>
      </trkpt>
      <trkpt lat="43.9652" lon="2.23152">
        <ele>223</ele>
        <time>2020-08-25T09:02:07.248Z</time>
      </trkpt>
      <trkpt lat="43.96521" lon="2.23153">
        <ele>223</ele>
        <time>2020-08-25T09:02:08.248Z</time>
      </trkpt>
      <trkpt lat="43.96521" lon="2.23154">
        <ele>223</ele>
        <time>2020-08-25T09:02:09.248Z</time>
      </trkpt>
      <trkpt lat="43.96522" lon="2.23154">
        <ele>223</ele>
        <time>2020-08-25T09:02:10.248Z</time>
      </trkpt>
      <trkpt lat="43.96522" lon="2.23155">
        <ele>223</ele>
        <time>2020-08-25T09:02:11.248Z</time>
      </trkpt>
      <trkpt lat="43.96523" lon="2.23155">
        <ele>223</ele>
        <time>2020-08-25T09:02:12.248Z</time>
      </trkpt>
      <trkpt lat="43.96523" lon="2.23156">
        <ele>222</ele>
        <time>2020-08-25T09:02:13.248Z</time>
      </trkpt>
      <trkpt lat="43.96524" lon="2.23156">
        <ele>222</ele>
        <time>2020-08-25T09:02:14.248Z</time>
      </trkpt>
      <trkpt lat="43.96525" lon="2.23156">
        <ele>222</ele>
        <time>2020-08-25T09:02:15.248Z</time>
      </trkpt>
      <trkpt lat="43.96526" lon="2.23156">
        <ele>222</ele>
        <time>2020-08-25T09:02:16.248Z</time>
      </trkpt>
      <trkpt lat="43.96526" lon="2.23156">
        <ele>222</ele>
        <time>2020-08-25T09:02:17.248Z</time>
      </trkpt>
      <trkpt lat="43.96527" lon="2.23156">
        <ele>222</ele>
        <time>2020-08-25T09:02:18.248Z</time>
      </trkpt>
      <trkpt lat="43.96528" lon="2.23156">
        <ele>222</ele>
        <time>2020-08-25T09:02:19.248Z</time>
      </trkpt>
      <trkpt lat="43.96529" lon="2.23156">
        <ele>222</ele>
        <time>2020-08-25T09:02:20.248Z</time>
      </trkpt>
      <trkpt lat="43.96529" lon="2.23156">
        <ele>222</ele>
        <time>2020-08-25T09:02:21.248Z</time>
      </trkpt>
      <trkpt lat="43.9653" lon="2.23156">
        <ele>222</ele>
        <time>2020-08-25T09:02:22.248Z</time>
      </trkpt>
      <trkpt lat="43.96531" lon="2.23157">
        <ele>222</ele>
        <time>2020-08-25T09:02:23.248Z</time>
      </trkpt>
      <trkpt lat="43.96532" lon="2.23157">
        <ele>222</ele>
        <time>2020-08-25T09:02:24.248Z</time>
      </trkpt>
      <trkpt lat="43.96533" lon="2.23158">
        <ele>222</ele>
        <time>2020-08-25T09:02:25.248Z</time>
      </trkpt>
      <trkpt lat="43.96533" lon="2.23158">
        <ele>222</ele>
        <time>2020-08-25T09:02:26.248Z</time>
      </trkpt>
      <trkpt lat="43.96534" lon="2.23158">
        <ele>222</ele>
        <time>2020-08-25T09:02:27.248Z</time>
      </trkpt>
      <trkpt lat="43.96535" lon="2.23158">
        <ele>222</ele>
        <time>2020-08-25T09:02:28.248Z</time>
      </trkpt>
      <trkpt lat="43.96536" lon="2.23158">
        <ele>222</ele>
        <time>2020-08-25T09:02:29.248Z</time>
      </trkpt>
      <trkpt lat="43.96537" lon="2.23158">
        <ele>222</ele>
        <time>2020-08-25T09:02:30.248Z</time>
      </trkpt>
      <trkpt lat="43.96538" lon="2.23158">
        <ele>222</ele>
        <time>2020-08-25T09:02:31.248Z</time>
      </trkpt>
      <trkpt lat="43.96539" lon="2.23159">
        <ele>222</ele>
        <time>2020-08-25T09:02:32.248Z</time>
      </trkpt>
      <trkpt lat="43.9654" lon="2.23159">
        <ele>222</ele>
        <time>2020-08-25T09:02:33.248Z</time>
      </trkpt>
      <trkpt lat="43.96541" lon="2.23159">
        <ele>222</ele>
        <time>2020-08-25T09:02:34.248Z</time>
      </trkpt>
      <trkpt lat="43.96542" lon="2.2316">
        <ele>223</ele>
        <time>2020-08-25T09:02:35.248Z</time>
      </trkpt>
      <trkpt lat="43.96543" lon="2.2316">
        <ele>223</ele>
        <time>2020-08-25T09:02:36.248Z</time>
      </trkpt>
      <trkpt lat="43.96544" lon="2.23159">
        <ele>223</ele>
        <time>2020-08-25T09:02:37.248Z</time>
      </trkpt>
      <trkpt lat="43.96545" lon="2.2316">
        <ele>223</ele>
        <time>2020-08-25T09:02:38.248Z</time>
      </trkpt>
      <trkpt lat="43.96546" lon="2.2316">
        <ele>223</ele>
        <time>2020-08-25T09:02:39.248Z</time>
      </trkpt>
      <trkpt lat="43.96547" lon="2.2316">
        <ele>223</ele>
        <time>2020-08-25T09:02:40.248Z</time>
      </trkpt>
      <trkpt lat="43.96548" lon="2.2316">
        <ele>223</ele>
        <time>2020-08-25T09:02:41.248Z</time>
      </trkpt>
      <trkpt lat="43.96549" lon="2.2316">
        <ele>223</ele>
        <time>2020-08-25T09:02:42.248Z</time>
      </trkpt>
      <trkpt lat="43.96549" lon="2.2316">
        <ele>224</ele>
        <time>2020-08-25T09:02:43.248Z</time>
      </trkpt>
      <trkpt lat="43.9655" lon="2.2316">
        <ele>224</ele>
        <time>2020-08-25T09:02:44.248Z</time>
      </trkpt>
      <trkpt lat="43.9655" lon="2.23161">
        <ele>224</ele>
        <time>2020-08-25T09:02:45.248Z</time>
      </trkpt>
      <trkpt lat="43.96551" lon="2.23161">
        <ele>224</ele>
        <time>2020-08-25T09:02:46.248Z</time>
      </trkpt>
      <trkpt lat="43.96552" lon="2.23161">
        <ele>224</ele>
        <time>2020-08-25T09:02:47.248Z</time>
      </trkpt>
      <trkpt lat="43.96553" lon="2.23161">
        <ele>224</ele>
        <time>2020-08-25T09:02:48.248Z</time>
      </trkpt>
      <trkpt lat="43.96554" lon="2.23161">
        <ele>224</ele>
        <time>2020-08-25T09:02:49.248Z</time>
      </trkpt>
      <trkpt lat="43.96555" lon="2.23161">
        <ele>223</ele>
        <time>2020-08-25T09:02:50.248Z</time>
      </trkpt>
      <trkpt lat="43.96555" lon="2.23161">
        <ele>223</ele>
        <time>2020-08-25T09:02:51.248Z</time>
      </trkpt>
      <trkpt lat="43.96556" lon="2.23161">
        <ele>223</ele>
        <time>2020-08-25T09:02:52.248Z</time>
      </trkpt>
      <trkpt lat="43.96557" lon="2.23161">
        <ele>223</ele>
        <time>2020-08-25T09:02:53.248Z</time>
      </trkpt>
      <trkpt lat="43.96558" lon="2.23161">
        <ele>223</ele>
        <time>2020-08-25T09:02:54.248Z</time>
      </trkpt>
      <trkpt lat="43.96559" lon="2.23161">
        <ele>223</ele>
        <time>2020-08-25T09:02:55.248Z</time>
      </trkpt>
      <trkpt lat="43.9656" lon="2.23161">
        <ele>223</ele>
        <time>2020-08-25T09:02:56.248Z</time>
      </trkpt>
      <trkpt lat="43.96561" lon="2.23161">
        <ele>223</ele>
        <time>2020-08-25T09:02:57.248Z</time>
      </trkpt>
      <trkpt lat="43.96562" lon="2.23161">
        <ele>223</ele>
        <time>2020-08-25T09:02:58.248Z</time>
      </trkpt>
      <trkpt lat="43.96563" lon="2.23161">
        <ele>223</ele>
        <time>2020-08-25T09:02:59.248Z</time>
      </trkpt>
      <trkpt lat="43.96564" lon="2.23162">
        <ele>223</ele>
        <time>2020-08-25T09:03:00.248Z</time>
      </trkpt>
      <trkpt lat="43.96565" lon="2.23162">
        <ele>223</ele>
        <time>2020-08-25T09:03:01.248Z</time>
      </trkpt>
      <trkpt lat="43.96566" lon="2.23163">
        <ele>223</ele>
        <time>2020-08-25T09:03:02.248Z</time>
      </trkpt>
      <trkpt lat="43.96566" lon="2.23163">
        <ele>223</ele>
        <time>2020-08-25T09:03:03.248Z</time>
      </trkpt>
      <trkpt lat="43.96567" lon="2.23163">
        <ele>223</ele>
        <time>2020-08-25T09:03:04.248Z</time>
      </trkpt>
      <trkpt lat="43.96567" lon="2.23163">
        <ele>223</ele>
        <time>2020-08-25T09:03:05.248Z</time>
      </trkpt>
      <trkpt lat="43.96568" lon="2.23163">
        <ele>223</ele>
        <time>2020-08-25T09:03:06.248Z</time>
      </trkpt>
      <trkpt lat="43.96568" lon="2.23164">
        <ele>223</ele>
        <time>2020-08-25T09:03:07.248Z</time>
      </trkpt>
      <trkpt lat="43.96569" lon="2.23164">
        <ele>223</ele>
        <time>2020-08-25T09:03:08.248Z</time>
      </trkpt>
      <trkpt lat="43.9657" lon="2.23165">
        <ele>223</ele>
        <time>2020-08-25T09:03:09.248Z</time>
      </trkpt>
      <trkpt lat="43.96571" lon="2.23165">
        <ele>223</ele>
        <time>2020-08-25T09:03:10.248Z</time>
      </trkpt>
      <trkpt lat="43.96572" lon="2.23166">
        <ele>223</ele>
        <time>2020-08-25T09:03:11.248Z</time>
      </trkpt>
      <trkpt lat="43.96573" lon="2.23166">
        <ele>223</ele>
        <time>2020-08-25T09:03:12.248Z</time>
      </trkpt>
      <trkpt lat="43.96574" lon="2.23167">
        <ele>223</ele>
        <time>2020-08-25T09:03:13.248Z</time>
      </trkpt>
      <trkpt lat="43.96575" lon="2.23168">
        <ele>223</ele>
        <time>2020-08-25T09:03:14.248Z</time>
      </trkpt>
      <trkpt lat="43.96576" lon="2.23169">
        <ele>223</ele>
        <time>2020-08-25T09:03:15.248Z</time>
      </trkpt>
      <trkpt lat="43.96577" lon="2.2317">
        <ele>223</ele>
        <time>2020-08-25T09:03:16.248Z</time>
      </trkpt>
      <trkpt lat="43.96578" lon="2.23171">
        <ele>223</ele>
        <time>2020-08-25T09:03:17.248Z</time>
      </trkpt>
      <trkpt lat="43.96579" lon="2.23172">
        <ele>223</ele>
        <time>2020-08-25T09:03:18.248Z</time>
      </trkpt>
      <trkpt lat="43.96581" lon="2.23173">
        <ele>223</ele>
        <time>2020-08-25T09:03:19.248Z</time>
      </trkpt>
      <trkpt lat="43.96581" lon="2.23174">
        <ele>223</ele>
        <time>2020-08-25T09:03:20.248Z</time>
      </trkpt>
      <trkpt lat="43.96582" lon="2.23175">
        <ele>223</ele>
        <time>2020-08-25T09:03:21.248Z</time>
      </trkpt>
      <trkpt lat="43.96583" lon="2.23176">
        <ele>223</ele>
        <time>2020-08-25T09:03:22.248Z</time>
      </trkpt>
      <trkpt lat="43.96583" lon="2.23177">
        <ele>223</ele>
        <time>2020-08-25T09:03:23.248Z</time>
      </trkpt>
      <trkpt lat="43.96584" lon="2.23178">
        <ele>223</ele>
        <time>2020-08-25T09:03:24.248Z</time>
      </trkpt>
      <trkpt lat="43.96584" lon="2.23179">
        <ele>223</ele>
        <time>2020-08-25T09:03:25.248Z</time>
      </trkpt>
      <trkpt lat="43.96585" lon="2.23179">
        <ele>223</ele>
        <time>2020-08-25T09:03:26.248Z</time>
      </trkpt>
      <trkpt lat="43.96586" lon="2.2318">
        <ele>223</ele>
        <time>2020-08-25T09:03:27.248Z</time>
      </trkpt>
      <trkpt lat="43.96587" lon="2.2318">
        <ele>223</ele>
        <time>2020-08-25T09:03:28.248Z</time>
      </trkpt>
      <trkpt lat="43.96588" lon="2.2318">
        <ele>223</ele>
        <time>2020-08-25T09:03:29.248Z</time>
      </trkpt>
      <trkpt lat="43.96588" lon="2.23181">
        <ele>223</ele>
        <time>2020-08-25T09:03:30.248Z</time>
      </trkpt>
      <trkpt lat="43.96589" lon="2.23181">
        <ele>223</ele>
        <time>2020-08-25T09:03:31.248Z</time>
      </trkpt>
      <trkpt lat="43.9659" lon="2.23181">
        <ele>224</ele>
        <time>2020-08-25T09:03:32.248Z</time>
      </trkpt>
      <trkpt lat="43.96591" lon="2.23181">
        <ele>224</ele>
        <time>2020-08-25T09:03:33.248Z</time>
      </trkpt>
      <trkpt lat="43.96592" lon="2.23181">
        <ele>224</ele>
        <time>2020-08-25T09:03:34.248Z</time>
      </trkpt>
      <trkpt lat="43.96593" lon="2.23181">
        <ele>224</ele>
        <time>2020-08-25T09:03:35.248Z</time>
      </trkpt>
      <trkpt lat="43.96593" lon="2.23181">
        <ele>224</ele>
        <time>2020-08-25T09:03:36.248Z</time>
      </trkpt>
      <trkpt lat="43.96594" lon="2.23181">
        <ele>224</ele>
        <time>2020-08-25T09:03:37.248Z</time>
      </trkpt>
      <trkpt lat="43.96595" lon="2.2318">
        <ele>224</ele>
        <time>2020-08-25T09:03:38.248Z</time>
      </trkpt>
      <trkpt lat="43.96596" lon="2.2318">
        <ele>224</ele>
        <time>2020-08-25T09:03:39.248Z</time>
      </trkpt>
      <trkpt lat="43.96597" lon="2.2318">
        <ele>224</ele>
        <time>2020-08-25T09:03:40.248Z</time>
      </trkpt>
      <trkpt lat="43.96598" lon="2.23179">
        <ele>224</ele>
        <time>2020-08-25T09:03:41.248Z</time>
      </trkpt>
      <trkpt lat="43.96599" lon="2.23179">
        <ele>224</ele>
        <time>2020-08-25T09:03:42.248Z</time>
      </trkpt>
      <trkpt lat="43.966" lon="2.23179">
        <ele>224</ele>
        <time>2020-08-25T09:03:43.248Z</time>
      </trkpt>
      <trkpt lat="43.96601" lon="2.23179">
        <ele>224</ele>
        <time>2020-08-25T09:03:44.248Z</time>
      </trkpt>
      <trkpt lat="43.96602" lon="2.23179">
        <ele>224</ele>
        <time>2020-08-25T09:03:45.248Z</time>
      </trkpt>
      <trkpt lat="43.96603" lon="2.23179">
        <ele>224</ele>
        <time>2020-08-25T09:03:46.248Z</time>
      </trkpt>
      <trkpt lat="43.96604" lon="2.23179">
        <ele>225</ele>
        <time>2020-08-25T09:03:47.248Z</time>
      </trkpt>
      <trkpt lat="43.96605" lon="2.23179">
        <ele>225</ele>
        <time>2020-08-25T09:03:48.248Z</time>
      </trkpt>
      <trkpt lat="43.96606" lon="2.23179">
        <ele>225</ele>
        <time>2020-08-25T09:03:49.248Z</time>
      </trkpt>
      <trkpt lat="43.96607" lon="2.23179">
        <ele>225</ele>
        <time>2020-08-25T09:03:50.248Z</time>
      </trkpt>
      <trkpt lat="43.96608" lon="2.23179">
        <ele>225</ele>
        <time>2020-08-25T09:03:51.248Z</time>
      </trkpt>
      <trkpt lat="43.96608" lon="2.2318">
        <ele>225</ele>
        <time>2020-08-25T09:03:52.248Z</time>
      </trkpt>
      <trkpt lat="43.96609" lon="2.2318">
        <ele>225</ele>
        <time>2020-08-25T09:03:53.248Z</time>
      </trkpt>
      <trkpt lat="43.96611" lon="2.2318">
        <ele>225</ele>
        <time>2020-08-25T09:03:54.248Z</time>
      </trkpt>
      <trkpt lat="43.96611" lon="2.2318">
        <ele>225</ele>
        <time>2020-08-25T09:03:55.248Z</time>
      </trkpt>
      <trkpt lat="43.96612" lon="2.2318">
        <ele>225</ele>
        <time>2020-08-25T09:03:56.248Z</time>
      </trkpt>
      <trkpt lat="43.96613" lon="2.2318">
        <ele>225</ele>
        <time>2020-08-25T09:03:57.248Z</time>
      </trkpt>
      <trkpt lat="43.96614" lon="2.2318">
        <ele>226</ele>
        <time>2020-08-25T09:03:58.248Z</time>
      </trkpt>
      <trkpt lat="43.96615" lon="2.2318">
        <ele>226</ele>
        <time>2020-08-25T09:03:59.248Z</time>
      </trkpt>
      <trkpt lat="43.96616" lon="2.2318">
        <ele>226</ele>
        <time>2020-08-25T09:04:00.248Z</time>
      </trkpt>
      <trkpt lat="43.96616" lon="2.2318">
        <ele>226</ele>
        <time>2020-08-25T09:04:01.248Z</time>
      </trkpt>
      <trkpt lat="43.96616" lon="2.2318">
        <ele>226</ele>
        <time>2020-08-25T09:04:02.248Z</time>
      </trkpt>
      <trkpt lat="43.96616" lon="2.2318">
        <ele>226</ele>
        <time>2020-08-25T09:04:03.248Z</time>
      </trkpt>
      <trkpt lat="43.96617" lon="2.2318">
        <ele>226</ele>
        <time>2020-08-25T09:04:04.248Z</time>
      </trkpt>
      <trkpt lat="43.96618" lon="2.23179">
        <ele>226</ele>
        <time>2020-08-25T09:04:07.476Z</time>
      </trkpt>
      <trkpt lat="43.96619" lon="2.23179">
        <ele>226</ele>
        <time>2020-08-25T09:04:08.476Z</time>
      </trkpt>
      <trkpt lat="43.96619" lon="2.23179">
        <ele>226</ele>
        <time>2020-08-25T09:04:09.476Z</time>
      </trkpt>
      <trkpt lat="43.9662" lon="2.23179">
        <ele>226</ele>
        <time>2020-08-25T09:04:10.476Z</time>
      </trkpt>
      <trkpt lat="43.96621" lon="2.23179">
        <ele>226</ele>
        <time>2020-08-25T09:04:11.476Z</time>
      </trkpt>
      <trkpt lat="43.96622" lon="2.23178">
        <ele>226</ele>
        <time>2020-08-25T09:04:12.476Z</time>
      </trkpt>
      <trkpt lat="43.96623" lon="2.23178">
        <ele>227</ele>
        <time>2020-08-25T09:04:13.476Z</time>
      </trkpt>
      <trkpt lat="43.96624" lon="2.23178">
        <ele>227</ele>
        <time>2020-08-25T09:04:14.476Z</time>
      </trkpt>
      <trkpt lat="43.96625" lon="2.23178">
        <ele>227</ele>
        <time>2020-08-25T09:04:15.476Z</time>
      </trkpt>
      <trkpt lat="43.96625" lon="2.23178">
        <ele>227</ele>
        <time>2020-08-25T09:04:16.476Z</time>
      </trkpt>
      <trkpt lat="43.96626" lon="2.23178">
        <ele>227</ele>
        <time>2020-08-25T09:04:17.476Z</time>
      </trkpt>
      <trkpt lat="43.96626" lon="2.23178">
        <ele>227</ele>
        <time>2020-08-25T09:04:18.476Z</time>
      </trkpt>
      <trkpt lat="43.96627" lon="2.23178">
        <ele>227</ele>
        <time>2020-08-25T09:04:19.476Z</time>
      </trkpt>
      <trkpt lat="43.96628" lon="2.23178">
        <ele>227</ele>
        <time>2020-08-25T09:04:20.476Z</time>
      </trkpt>
      <trkpt lat="43.96629" lon="2.23178">
        <ele>227</ele>
        <time>2020-08-25T09:04:21.476Z</time>
      </trkpt>
      <trkpt lat="43.9663" lon="2.23178">
        <ele>227</ele>
        <time>2020-08-25T09:04:22.476Z</time>
      </trkpt>
      <trkpt lat="43.96631" lon="2.23178">
        <ele>227</ele>
        <time>2020-08-25T09:04:23.476Z</time>
      </trkpt>
      <trkpt lat="43.96632" lon="2.23178">
        <ele>227</ele>
        <time>2020-08-25T09:04:24.476Z</time>
      </trkpt>
      <trkpt lat="43.96633" lon="2.23178">
        <ele>227</ele>
        <time>2020-08-25T09:04:25.476Z</time>
      </trkpt>
      <trkpt lat="43.96634" lon="2.23178">
        <ele>227</ele>
        <time>2020-08-25T09:04:26.476Z</time>
      </trkpt>
      <trkpt lat="43.96635" lon="2.23179">
        <ele>228</ele>
        <time>2020-08-25T09:04:27.476Z</time>
      </trkpt>
      <trkpt lat="43.96636" lon="2.23179">
        <ele>228</ele>
        <time>2020-08-25T09:04:28.476Z</time>
      </trkpt>
      <trkpt lat="43.96637" lon="2.23179">
        <ele>228</ele>
        <time>2020-08-25T09:04:29.476Z</time>
      </trkpt>
      <trkpt lat="43.96638" lon="2.23179">
        <ele>228</ele>
        <time>2020-08-25T09:04:30.476Z</time>
      </trkpt>
      <trkpt lat="43.96639" lon="2.2318">
        <ele>228</ele>
        <time>2020-08-25T09:04:31.476Z</time>
      </trkpt>
      <trkpt lat="43.9664" lon="2.2318">
        <ele>228</ele>
        <time>2020-08-25T09:04:32.476Z</time>
      </trkpt>
      <trkpt lat="43.96641" lon="2.2318">
        <ele>229</ele>
        <time>2020-08-25T09:04:33.476Z</time>
      </trkpt>
      <trkpt lat="43.96642" lon="2.2318">
        <ele>229</ele>
        <time>2020-08-25T09:04:34.476Z</time>
      </trkpt>
      <trkpt lat="43.96643" lon="2.2318">
        <ele>229</ele>
        <time>2020-08-25T09:04:35.476Z</time>
      </trkpt>
      <trkpt lat="43.96645" lon="2.23181">
        <ele>229</ele>
        <time>2020-08-25T09:04:36.476Z</time>
      </trkpt>
      <trkpt lat="43.96646" lon="2.23182">
        <ele>229</ele>
        <time>2020-08-25T09:04:37.476Z</time>
      </trkpt>
      <trkpt lat="43.96647" lon="2.23182">
        <ele>229</ele>
        <time>2020-08-25T09:04:38.476Z</time>
      </trkpt>
      <trkpt lat="43.96648" lon="2.23183">
        <ele>229</ele>
        <time>2020-08-25T09:04:39.476Z</time>
      </trkpt>
      <trkpt lat="43.96649" lon="2.23184">
        <ele>229</ele>
        <time>2020-08-25T09:04:40.476Z</time>
      </trkpt>
      <trkpt lat="43.9665" lon="2.23184">
        <ele>229</ele>
        <time>2020-08-25T09:04:41.476Z</time>
      </trkpt>
      <trkpt lat="43.96652" lon="2.23184">
        <ele>229</ele>
        <time>2020-08-25T09:04:42.476Z</time>
      </trkpt>
      <trkpt lat="43.96653" lon="2.23185">
        <ele>229</ele>
        <time>2020-08-25T09:04:43.476Z</time>
      </trkpt>
      <trkpt lat="43.96654" lon="2.23185">
        <ele>229</ele>
        <time>2020-08-25T09:04:44.476Z</time>
      </trkpt>
      <trkpt lat="43.96655" lon="2.23185">
        <ele>229</ele>
        <time>2020-08-25T09:04:45.476Z</time>
      </trkpt>
      <trkpt lat="43.96656" lon="2.23186">
        <ele>229</ele>
        <time>2020-08-25T09:04:46.476Z</time>
      </trkpt>
      <trkpt lat="43.96657" lon="2.23186">
        <ele>229</ele>
        <time>2020-08-25T09:04:47.476Z</time>
      </trkpt>
      <trkpt lat="43.96659" lon="2.23188">
        <ele>229</ele>
        <time>2020-08-25T09:04:48.476Z</time>
      </trkpt>
      <trkpt lat="43.9666" lon="2.23188">
        <ele>229</ele>
        <time>2020-08-25T09:04:49.476Z</time>
      </trkpt>
      <trkpt lat="43.9666" lon="2.23189">
        <ele>229</ele>
        <time>2020-08-25T09:04:50.476Z</time>
      </trkpt>
      <trkpt lat="43.96661" lon="2.2319">
        <ele>229</ele>
        <time>2020-08-25T09:04:51.476Z</time>
      </trkpt>
      <trkpt lat="43.96662" lon="2.23191">
        <ele>229</ele>
        <time>2020-08-25T09:04:52.476Z</time>
      </trkpt>
      <trkpt lat="43.96663" lon="2.23191">
        <ele>229</ele>
        <time>2020-08-25T09:04:53.476Z</time>
      </trkpt>
      <trkpt lat="43.96664" lon="2.23191">
        <ele>229</ele>
        <time>2020-08-25T09:04:54.476Z</time>
      </trkpt>
      <trkpt lat="43.96665" lon="2.23192">
        <ele>229</ele>
        <time>2020-08-25T09:04:55.476Z</time>
      </trkpt>
      <trkpt lat="43.96666" lon="2.23193">
        <ele>229</ele>
        <time>2020-08-25T09:04:56.476Z</time>
      </trkpt>
      <trkpt lat="43.96667" lon="2.23194">
        <ele>229</ele>
        <time>2020-08-25T09:04:57.476Z</time>
      </trkpt>
      <trkpt lat="43.96667" lon="2.23195">
        <ele>229</ele>
        <time>2020-08-25T09:04:58.476Z</time>
      </trkpt>
      <trkpt lat="43.96668" lon="2.23197">
        <ele>229</ele>
        <time>2020-08-25T09:04:59.476Z</time>
      </trkpt>
      <trkpt lat="43.96669" lon="2.23198">
        <ele>229</ele>
        <time>2020-08-25T09:05:00.476Z</time>
      </trkpt>
      <trkpt lat="43.9667" lon="2.232">
        <ele>229</ele>
        <time>2020-08-25T09:05:01.476Z</time>
      </trkpt>
      <trkpt lat="43.9667" lon="2.23201">
        <ele>229</ele>
        <time>2020-08-25T09:05:02.476Z</time>
      </trkpt>
      <trkpt lat="43.96671" lon="2.23202">
        <ele>229</ele>
        <time>2020-08-25T09:05:03.476Z</time>
      </trkpt>
      <trkpt lat="43.96672" lon="2.23203">
        <ele>229</ele>
        <time>2020-08-25T09:05:04.476Z</time>
      </trkpt>
      <trkpt lat="43.96673" lon="2.23205">
        <ele>229</ele>
        <time>2020-08-25T09:05:05.476Z</time>
      </trkpt>
      <trkpt lat="43.96673" lon="2.23206">
        <ele>229</ele>
        <time>2020-08-25T09:05:06.476Z</time>
      </trkpt>
      <trkpt lat="43.96674" lon="2.23208">
        <ele>229</ele>
        <time>2020-08-25T09:05:07.476Z</time>
      </trkpt>
      <trkpt lat="43.96674" lon="2.23209">
        <ele>229</ele>
        <time>2020-08-25T09:05:08.476Z</time>
      </trkpt>
      <trkpt lat="43.96674" lon="2.23211">
        <ele>229</ele>
        <time>2020-08-25T09:05:09.476Z</time>
      </trkpt>
      <trkpt lat="43.96674" lon="2.23212">
        <ele>229</ele>
        <time>2020-08-25T09:05:10.476Z</time>
      </trkpt>
      <trkpt lat="43.96674" lon="2.23213">
        <ele>229</ele>
        <time>2020-08-25T09:05:11.476Z</time>
      </trkpt>
      <trkpt lat="43.96673" lon="2.23214">
        <ele>229</ele>
        <time>2020-08-25T09:05:12.476Z</time>
      </trkpt>
      <trkpt lat="43.96673" lon="2.23215">
        <ele>228</ele>
        <time>2020-08-25T09:05:13.476Z</time>
      </trkpt>
      <trkpt lat="43.96673" lon="2.23217">
        <ele>228</ele>
        <time>2020-08-25T09:05:14.476Z</time>
      </trkpt>
      <trkpt lat="43.96672" lon="2.23218">
        <ele>228</ele>
        <time>2020-08-25T09:05:15.476Z</time>
      </trkpt>
      <trkpt lat="43.96672" lon="2.2322">
        <ele>228</ele>
        <time>2020-08-25T09:05:16.476Z</time>
      </trkpt>
      <trkpt lat="43.96671" lon="2.23221">
        <ele>227</ele>
        <time>2020-08-25T09:05:17.476Z</time>
      </trkpt>
      <trkpt lat="43.96671" lon="2.23223">
        <ele>227</ele>
        <time>2020-08-25T09:05:18.476Z</time>
      </trkpt>
      <trkpt lat="43.9667" lon="2.23224">
        <ele>227</ele>
        <time>2020-08-25T09:05:19.476Z</time>
      </trkpt>
      <trkpt lat="43.9667" lon="2.23225">
        <ele>227</ele>
        <time>2020-08-25T09:05:20.476Z</time>
      </trkpt>
      <trkpt lat="43.9667" lon="2.23227">
        <ele>227</ele>
        <time>2020-08-25T09:05:21.476Z</time>
      </trkpt>
      <trkpt lat="43.96669" lon="2.23228">
        <ele>227</ele>
        <time>2020-08-25T09:05:22.476Z</time>
      </trkpt>
      <trkpt lat="43.96669" lon="2.23229">
        <ele>227</ele>
        <time>2020-08-25T09:05:23.476Z</time>
      </trkpt>
      <trkpt lat="43.96668" lon="2.2323">
        <ele>227</ele>
        <time>2020-08-25T09:05:24.476Z</time>
      </trkpt>
      <trkpt lat="43.96668" lon="2.23232">
        <ele>227</ele>
        <time>2020-08-25T09:05:25.476Z</time>
      </trkpt>
      <trkpt lat="43.96667" lon="2.23233">
        <ele>227</ele>
        <time>2020-08-25T09:05:26.476Z</time>
      </trkpt>
      <trkpt lat="43.96666" lon="2.23233">
        <ele>227</ele>
        <time>2020-08-25T09:05:27.476Z</time>
      </trkpt>
      <trkpt lat="43.96666" lon="2.23234">
        <ele>227</ele>
        <time>2020-08-25T09:05:28.476Z</time>
      </trkpt>
      <trkpt lat="43.96666" lon="2.23235">
        <ele>227</ele>
        <time>2020-08-25T09:05:29.476Z</time>
      </trkpt>
      <trkpt lat="43.96666" lon="2.23236">
        <ele>227</ele>
        <time>2020-08-25T09:05:30.476Z</time>
      </trkpt>
      <trkpt lat="43.96666" lon="2.23237">
        <ele>227</ele>
        <time>2020-08-25T09:05:31.476Z</time>
      </trkpt>
      <trkpt lat="43.96666" lon="2.23238">
        <ele>227</ele>
        <time>2020-08-25T09:05:32.476Z</time>
      </trkpt>
      <trkpt lat="43.96666" lon="2.23239">
        <ele>227</ele>
        <time>2020-08-25T09:05:33.476Z</time>
      </trkpt>
      <trkpt lat="43.96665" lon="2.2324">
        <ele>227</ele>
        <time>2020-08-25T09:05:34.476Z</time>
      </trkpt>
      <trkpt lat="43.96665" lon="2.23241">
        <ele>227</ele>
        <time>2020-08-25T09:05:35.476Z</time>
      </trkpt>
      <trkpt lat="43.96665" lon="2.23242">
        <ele>227</ele>
        <time>2020-08-25T09:05:36.476Z</time>
      </trkpt>
      <trkpt lat="43.96665" lon="2.23243">
        <ele>228</ele>
        <time>2020-08-25T09:05:37.476Z</time>
      </trkpt>
      <trkpt lat="43.96666" lon="2.23244">
        <ele>228</ele>
        <time>2020-08-25T09:05:38.476Z</time>
      </trkpt>
      <trkpt lat="43.96666" lon="2.23245">
        <ele>228</ele>
        <time>2020-08-25T09:05:39.476Z</time>
      </trkpt>
      <trkpt lat="43.96667" lon="2.23246">
        <ele>228</ele>
        <time>2020-08-25T09:05:40.476Z</time>
      </trkpt>
      <trkpt lat="43.96668" lon="2.23247">
        <ele>228</ele>
        <time>2020-08-25T09:05:41.476Z</time>
      </trkpt>
      <trkpt lat="43.96668" lon="2.23247">
        <ele>228</ele>
        <time>2020-08-25T09:05:42.476Z</time>
      </trkpt>
      <trkpt lat="43.96669" lon="2.23247">
        <ele>228</ele>
        <time>2020-08-25T09:05:43.476Z</time>
      </trkpt>
      <trkpt lat="43.9667" lon="2.23247">
        <ele>228</ele>
        <time>2020-08-25T09:05:44.476Z</time>
      </trkpt>
      <trkpt lat="43.9667" lon="2.23246">
        <ele>228</ele>
        <time>2020-08-25T09:05:45.476Z</time>
      </trkpt>
      <trkpt lat="43.9667" lon="2.23245">
        <ele>228</ele>
        <time>2020-08-25T09:05:46.476Z</time>
      </trkpt>
      <trkpt lat="43.96671" lon="2.23245">
        <ele>228</ele>
        <time>2020-08-25T09:05:47.476Z</time>
      </trkpt>
      <trkpt lat="43.96671" lon="2.23244">
        <ele>228</ele>
        <time>2020-08-25T09:05:48.476Z</time>
      </trkpt>
      <trkpt lat="43.96672" lon="2.23243">
        <ele>227</ele>
        <time>2020-08-25T09:05:49.476Z</time>
      </trkpt>
      <trkpt lat="43.96672" lon="2.23242">
        <ele>227</ele>
        <time>2020-08-25T09:05:50.476Z</time>
      </trkpt>
      <trkpt lat="43.96673" lon="2.23242">
        <ele>227</ele>
        <time>2020-08-25T09:05:51.476Z</time>
      </trkpt>
      <trkpt lat="43.96674" lon="2.23241">
        <ele>227</ele>
        <time>2020-08-25T09:05:52.476Z</time>
      </trkpt>
      <trkpt lat="43.96674" lon="2.2324">
        <ele>227</ele>
        <time>2020-08-25T09:05:53.476Z</time>
      </trkpt>
      <trkpt lat="43.96675" lon="2.2324">
        <ele>227</ele>
        <time>2020-08-25T09:05:54.476Z</time>
      </trkpt>
      <trkpt lat="43.96676" lon="2.2324">
        <ele>227</ele>
        <time>2020-08-25T09:05:55.476Z</time>
      </trkpt>
      <trkpt lat="43.96677" lon="2.23239">
        <ele>227</ele>
        <time>2020-08-25T09:05:56.476Z</time>
      </trkpt>
      <trkpt lat="43.96678" lon="2.23239">
        <ele>227</ele>
        <time>2020-08-25T09:05:57.476Z</time>
      </trkpt>
      <trkpt lat="43.96679" lon="2.23239">
        <ele>227</ele>
        <time>2020-08-25T09:05:58.476Z</time>
      </trkpt>
      <trkpt lat="43.9668" lon="2.23238">
        <ele>227</ele>
        <time>2020-08-25T09:05:59.476Z</time>
      </trkpt>
      <trkpt lat="43.9668" lon="2.23238">
        <ele>227</ele>
        <time>2020-08-25T09:06:00.476Z</time>
      </trkpt>
      <trkpt lat="43.96681" lon="2.23238">
        <ele>228</ele>
        <time>2020-08-25T09:06:01.476Z</time>
      </trkpt>
      <trkpt lat="43.96682" lon="2.23238">
        <ele>228</ele>
        <time>2020-08-25T09:06:02.476Z</time>
      </trkpt>
      <trkpt lat="43.96683" lon="2.23237">
        <ele>228</ele>
        <time>2020-08-25T09:06:03.476Z</time>
      </trkpt>
      <trkpt lat="43.96683" lon="2.23237">
        <ele>228</ele>
        <time>2020-08-25T09:06:04.476Z</time>
      </trkpt>
      <trkpt lat="43.96684" lon="2.23237">
        <ele>228</ele>
        <time>2020-08-25T09:06:05.476Z</time>
      </trkpt>
      <trkpt lat="43.96685" lon="2.23236">
        <ele>228</ele>
        <time>2020-08-25T09:06:06.476Z</time>
      </trkpt>
      <trkpt lat="43.96686" lon="2.23236">
        <ele>228</ele>
        <time>2020-08-25T09:06:07.476Z</time>
      </trkpt>
      <trkpt lat="43.96686" lon="2.23235">
        <ele>228</ele>
        <time>2020-08-25T09:06:08.476Z</time>
      </trkpt>
      <trkpt lat="43.96687" lon="2.23235">
        <ele>228</ele>
        <time>2020-08-25T09:06:09.476Z</time>
      </trkpt>
      <trkpt lat="43.96687" lon="2.23234">
        <ele>228</ele>
        <time>2020-08-25T09:06:10.476Z</time>
      </trkpt>
      <trkpt lat="43.96688" lon="2.23234">
        <ele>228</ele>
        <time>2020-08-25T09:06:11.476Z</time>
      </trkpt>
      <trkpt lat="43.96688" lon="2.23233">
        <ele>228</ele>
        <time>2020-08-25T09:06:12.476Z</time>
      </trkpt>
      <trkpt lat="43.96689" lon="2.23233">
        <ele>228</ele>
        <time>2020-08-25T09:06:13.476Z</time>
      </trkpt>
      <trkpt lat="43.9669" lon="2.23232">
        <ele>228</ele>
        <time>2020-08-25T09:06:14.476Z</time>
      </trkpt>
      <trkpt lat="43.96691" lon="2.23232">
        <ele>228</ele>
        <time>2020-08-25T09:06:15.476Z</time>
      </trkpt>
      <trkpt lat="43.96692" lon="2.23232">
        <ele>228</ele>
        <time>2020-08-25T09:06:16.476Z</time>
      </trkpt>
      <trkpt lat="43.96693" lon="2.23232">
        <ele>228</ele>
        <time>2020-08-25T09:06:17.476Z</time>
      </trkpt>
      <trkpt lat="43.96694" lon="2.23232">
        <ele>228</ele>
        <time>2020-08-25T09:06:18.476Z</time>
      </trkpt>
      <trkpt lat="43.96694" lon="2.23232">
        <ele>228</ele>
        <time>2020-08-25T09:06:19.476Z</time>
      </trkpt>
      <trkpt lat="43.96695" lon="2.23232">
        <ele>228</ele>
        <time>2020-08-25T09:06:20.476Z</time>
      </trkpt>
      <trkpt lat="43.96696" lon="2.23231">
        <ele>228</ele>
        <time>2020-08-25T09:06:21.476Z</time>
      </trkpt>
      <trkpt lat="43.96697" lon="2.23231">
        <ele>228</ele>
        <time>2020-08-25T09:06:22.476Z</time>
      </trkpt>
      <trkpt lat="43.96699" lon="2.23231">
        <ele>228</ele>
        <time>2020-08-25T09:06:23.476Z</time>
      </trkpt>
      <trkpt lat="43.967" lon="2.23232">
        <ele>228</ele>
        <time>2020-08-25T09:06:24.476Z</time>
      </trkpt>
      <trkpt lat="43.96701" lon="2.23232">
        <ele>228</ele>
        <time>2020-08-25T09:06:25.476Z</time>
      </trkpt>
      <trkpt lat="43.96702" lon="2.23233">
        <ele>228</ele>
        <time>2020-08-25T09:06:26.476Z</time>
      </trkpt>
      <trkpt lat="43.96702" lon="2.23233">
        <ele>229</ele>
        <time>2020-08-25T09:06:27.476Z</time>
      </trkpt>
      <trkpt lat="43.96703" lon="2.23234">
        <ele>229</ele>
        <time>2020-08-25T09:06:28.476Z</time>
      </trkpt>
      <trkpt lat="43.96704" lon="2.23234">
        <ele>229</ele>
        <time>2020-08-25T09:06:29.476Z</time>
      </trkpt>
      <trkpt lat="43.96704" lon="2.23235">
        <ele>229</ele>
        <time>2020-08-25T09:06:30.476Z</time>
      </trkpt>
      <trkpt lat="43.96704" lon="2.23235">
        <ele>229</ele>
        <time>2020-08-25T09:06:31.476Z</time>
      </trkpt>
      <trkpt lat="43.96705" lon="2.23235">
        <ele>229</ele>
        <time>2020-08-25T09:06:32.476Z</time>
      </trkpt>
      <trkpt lat="43.96706" lon="2.23236">
        <ele>229</ele>
        <time>2020-08-25T09:06:33.476Z</time>
      </trkpt>
      <trkpt lat="43.96706" lon="2.23236">
        <ele>230</ele>
        <time>2020-08-25T09:06:34.476Z</time>
      </trkpt>
      <trkpt lat="43.96707" lon="2.23236">
        <ele>230</ele>
        <time>2020-08-25T09:06:35.476Z</time>
      </trkpt>
      <trkpt lat="43.96708" lon="2.23236">
        <ele>230</ele>
        <time>2020-08-25T09:06:36.476Z</time>
      </trkpt>
      <trkpt lat="43.96709" lon="2.23236">
        <ele>230</ele>
        <time>2020-08-25T09:06:37.476Z</time>
      </trkpt>
      <trkpt lat="43.9671" lon="2.23236">
        <ele>230</ele>
        <time>2020-08-25T09:06:38.476Z</time>
      </trkpt>
      <trkpt lat="43.9671" lon="2.23236">
        <ele>231</ele>
        <time>2020-08-25T09:06:39.476Z</time>
      </trkpt>
      <trkpt lat="43.96711" lon="2.23236">
        <ele>231</ele>
        <time>2020-08-25T09:06:40.476Z</time>
      </trkpt>
      <trkpt lat="43.96712" lon="2.23236">
        <ele>231</ele>
        <time>2020-08-25T09:06:41.476Z</time>
      </trkpt>
      <trkpt lat="43.96712" lon="2.23236">
        <ele>231</ele>
        <time>2020-08-25T09:06:42.476Z</time>
      </trkpt>
      <trkpt lat="43.96713" lon="2.23236">
        <ele>231</ele>
        <time>2020-08-25T09:06:43.476Z</time>
      </trkpt>
      <trkpt lat="43.96713" lon="2.23235">
        <ele>231</ele>
        <time>2020-08-25T09:06:44.476Z</time>
      </trkpt>
      <trkpt lat="43.96714" lon="2.23235">
        <ele>231</ele>
        <time>2020-08-25T09:06:45.476Z</time>
      </trkpt>
      <trkpt lat="43.96714" lon="2.23234">
        <ele>231</ele>
        <time>2020-08-25T09:06:46.476Z</time>
      </trkpt>
      <trkpt lat="43.96715" lon="2.23234">
        <ele>231</ele>
        <time>2020-08-25T09:06:47.476Z</time>
      </trkpt>
      <trkpt lat="43.96716" lon="2.23233">
        <ele>231</ele>
        <time>2020-08-25T09:06:48.476Z</time>
      </trkpt>
      <trkpt lat="43.96717" lon="2.23233">
        <ele>231</ele>
        <time>2020-08-25T09:06:49.476Z</time>
      </trkpt>
      <trkpt lat="43.96718" lon="2.23233">
        <ele>231</ele>
        <time>2020-08-25T09:06:50.476Z</time>
      </trkpt>
      <trkpt lat="43.96719" lon="2.23234">
        <ele>231</ele>
        <time>2020-08-25T09:06:51.476Z</time>
      </trkpt>
      <trkpt lat="43.9672" lon="2.23234">
        <ele>231</ele>
        <time>2020-08-25T09:06:52.476Z</time>
      </trkpt>
      <trkpt lat="43.96721" lon="2.23235">
        <ele>231</ele>
        <time>2020-08-25T09:06:53.476Z</time>
      </trkpt>
      <trkpt lat="43.96722" lon="2.23235">
        <ele>231</ele>
        <time>2020-08-25T09:06:54.476Z</time>
      </trkpt>
      <trkpt lat="43.96723" lon="2.23235">
        <ele>232</ele>
        <time>2020-08-25T09:06:55.476Z</time>
      </trkpt>
      <trkpt lat="43.96723" lon="2.23235">
        <ele>232</ele>
        <time>2020-08-25T09:06:56.476Z</time>
      </trkpt>
      <trkpt lat="43.96724" lon="2.23234">
        <ele>232</ele>
        <time>2020-08-25T09:06:57.476Z</time>
      </trkpt>
      <trkpt lat="43.96725" lon="2.23234">
        <ele>232</ele>
        <time>2020-08-25T09:06:58.476Z</time>
      </trkpt>
      <trkpt lat="43.96725" lon="2.23234">
        <ele>232</ele>
        <time>2020-08-25T09:06:59.476Z</time>
      </trkpt>
      <trkpt lat="43.96726" lon="2.23233">
        <ele>232</ele>
        <time>2020-08-25T09:07:00.476Z</time>
      </trkpt>
      <trkpt lat="43.96727" lon="2.23233">
        <ele>232</ele>
        <time>2020-08-25T09:07:01.476Z</time>
      </trkpt>
      <trkpt lat="43.96727" lon="2.23232">
        <ele>232</ele>
        <time>2020-08-25T09:07:02.476Z</time>
      </trkpt>
      <trkpt lat="43.96728" lon="2.23231">
        <ele>232</ele>
        <time>2020-08-25T09:07:03.476Z</time>
      </trkpt>
      <trkpt lat="43.96729" lon="2.2323">
        <ele>232</ele>
        <time>2020-08-25T09:07:04.476Z</time>
      </trkpt>
      <trkpt lat="43.9673" lon="2.23229">
        <ele>231</ele>
        <time>2020-08-25T09:07:05.476Z</time>
      </trkpt>
      <trkpt lat="43.96731" lon="2.23228">
        <ele>231</ele>
        <time>2020-08-25T09:07:06.476Z</time>
      </trkpt>
      <trkpt lat="43.96731" lon="2.23227">
        <ele>231</ele>
        <time>2020-08-25T09:07:07.476Z</time>
      </trkpt>
      <trkpt lat="43.96732" lon="2.23226">
        <ele>231</ele>
        <time>2020-08-25T09:07:08.476Z</time>
      </trkpt>
      <trkpt lat="43.96733" lon="2.23225">
        <ele>231</ele>
        <time>2020-08-25T09:07:09.476Z</time>
      </trkpt>
      <trkpt lat="43.96734" lon="2.23225">
        <ele>231</ele>
        <time>2020-08-25T09:07:10.476Z</time>
      </trkpt>
      <trkpt lat="43.96734" lon="2.23224">
        <ele>231</ele>
        <time>2020-08-25T09:07:11.476Z</time>
      </trkpt>
      <trkpt lat="43.96735" lon="2.23223">
        <ele>231</ele>
        <time>2020-08-25T09:07:12.476Z</time>
      </trkpt>
      <trkpt lat="43.96736" lon="2.23222">
        <ele>231</ele>
        <time>2020-08-25T09:07:13.476Z</time>
      </trkpt>
      <trkpt lat="43.96737" lon="2.23221">
        <ele>230</ele>
        <time>2020-08-25T09:07:14.476Z</time>
      </trkpt>
      <trkpt lat="43.96737" lon="2.2322">
        <ele>230</ele>
        <time>2020-08-25T09:07:15.476Z</time>
      </trkpt>
      <trkpt lat="43.96738" lon="2.2322">
        <ele>230</ele>
        <time>2020-08-25T09:07:16.476Z</time>
      </trkpt>
      <trkpt lat="43.96739" lon="2.23219">
        <ele>230</ele>
        <time>2020-08-25T09:07:17.476Z</time>
      </trkpt>
      <trkpt lat="43.96739" lon="2.23218">
        <ele>230</ele>
        <time>2020-08-25T09:07:18.476Z</time>
      </trkpt>
      <trkpt lat="43.9674" lon="2.23217">
        <ele>230</ele>
        <time>2020-08-25T09:07:19.476Z</time>
      </trkpt>
      <trkpt lat="43.96741" lon="2.23217">
        <ele>230</ele>
        <time>2020-08-25T09:07:20.476Z</time>
      </trkpt>
      <trkpt lat="43.96742" lon="2.23216">
        <ele>230</ele>
        <time>2020-08-25T09:07:21.476Z</time>
      </trkpt>
      <trkpt lat="43.96742" lon="2.23215">
        <ele>230</ele>
        <time>2020-08-25T09:07:22.476Z</time>
      </trkpt>
      <trkpt lat="43.96743" lon="2.23214">
        <ele>230</ele>
        <time>2020-08-25T09:07:23.476Z</time>
      </trkpt>
      <trkpt lat="43.96743" lon="2.23213">
        <ele>230</ele>
        <time>2020-08-25T09:07:24.476Z</time>
      </trkpt>
      <trkpt lat="43.96744" lon="2.23212">
        <ele>230</ele>
        <time>2020-08-25T09:07:25.476Z</time>
      </trkpt>
      <trkpt lat="43.96745" lon="2.23211">
        <ele>230</ele>
        <time>2020-08-25T09:07:26.476Z</time>
      </trkpt>
      <trkpt lat="43.96746" lon="2.23211">
        <ele>230</ele>
        <time>2020-08-25T09:07:27.476Z</time>
      </trkpt>
      <trkpt lat="43.96746" lon="2.2321">
        <ele>230</ele>
        <time>2020-08-25T09:07:28.476Z</time>
      </trkpt>
      <trkpt lat="43.96747" lon="2.23209">
        <ele>230</ele>
        <time>2020-08-25T09:07:29.476Z</time>
      </trkpt>
      <trkpt lat="43.96748" lon="2.23208">
        <ele>230</ele>
        <time>2020-08-25T09:07:30.476Z</time>
      </trkpt>
      <trkpt lat="43.96749" lon="2.23207">
        <ele>229</ele>
        <time>2020-08-25T09:07:31.476Z</time>
      </trkpt>
      <trkpt lat="43.9675" lon="2.23206">
        <ele>229</ele>
        <time>2020-08-25T09:07:32.476Z</time>
      </trkpt>
      <trkpt lat="43.96751" lon="2.23205">
        <ele>229</ele>
        <time>2020-08-25T09:07:33.476Z</time>
      </trkpt>
      <trkpt lat="43.96752" lon="2.23204">
        <ele>229</ele>
        <time>2020-08-25T09:07:34.476Z</time>
      </trkpt>
      <trkpt lat="43.96753" lon="2.23204">
        <ele>228</ele>
        <time>2020-08-25T09:07:35.476Z</time>
      </trkpt>
      <trkpt lat="43.96754" lon="2.23203">
        <ele>228</ele>
        <time>2020-08-25T09:07:36.476Z</time>
      </trkpt>
      <trkpt lat="43.96755" lon="2.23202">
        <ele>228</ele>
        <time>2020-08-25T09:07:37.476Z</time>
      </trkpt>
      <trkpt lat="43.96756" lon="2.23202">
        <ele>227</ele>
        <time>2020-08-25T09:07:38.476Z</time>
      </trkpt>
      <trkpt lat="43.96757" lon="2.23201">
        <ele>227</ele>
        <time>2020-08-25T09:07:39.476Z</time>
      </trkpt>
      <trkpt lat="43.96758" lon="2.232">
        <ele>227</ele>
        <time>2020-08-25T09:07:40.476Z</time>
      </trkpt>
      <trkpt lat="43.96759" lon="2.232">
        <ele>227</ele>
        <time>2020-08-25T09:07:41.476Z</time>
      </trkpt>
      <trkpt lat="43.9676" lon="2.232">
        <ele>227</ele>
        <time>2020-08-25T09:07:42.476Z</time>
      </trkpt>
      <trkpt lat="43.96761" lon="2.23199">
        <ele>227</ele>
        <time>2020-08-25T09:07:43.476Z</time>
      </trkpt>
      <trkpt lat="43.96762" lon="2.23199">
        <ele>226</ele>
        <time>2020-08-25T09:07:44.476Z</time>
      </trkpt>
      <trkpt lat="43.96763" lon="2.23198">
        <ele>226</ele>
        <time>2020-08-25T09:07:45.476Z</time>
      </trkpt>
      <trkpt lat="43.96765" lon="2.23198">
        <ele>226</ele>
        <time>2020-08-25T09:07:46.476Z</time>
      </trkpt>
      <trkpt lat="43.96766" lon="2.23197">
        <ele>226</ele>
        <time>2020-08-25T09:07:47.476Z</time>
      </trkpt>
      <trkpt lat="43.96766" lon="2.23196">
        <ele>226</ele>
        <time>2020-08-25T09:07:48.476Z</time>
      </trkpt>
      <trkpt lat="43.96767" lon="2.23196">
        <ele>226</ele>
        <time>2020-08-25T09:07:49.476Z</time>
      </trkpt>
      <trkpt lat="43.96768" lon="2.23195">
        <ele>225</ele>
        <time>2020-08-25T09:07:50.476Z</time>
      </trkpt>
      <trkpt lat="43.96769" lon="2.23195">
        <ele>225</ele>
        <time>2020-08-25T09:07:51.476Z</time>
      </trkpt>
      <trkpt lat="43.9677" lon="2.23194">
        <ele>225</ele>
        <time>2020-08-25T09:07:52.476Z</time>
      </trkpt>
      <trkpt lat="43.96771" lon="2.23194">
        <ele>225</ele>
        <time>2020-08-25T09:07:53.476Z</time>
      </trkpt>
      <trkpt lat="43.96772" lon="2.23193">
        <ele>225</ele>
        <time>2020-08-25T09:07:54.476Z</time>
      </trkpt>
      <trkpt lat="43.96773" lon="2.23193">
        <ele>225</ele>
        <time>2020-08-25T09:07:55.476Z</time>
      </trkpt>
      <trkpt lat="43.96774" lon="2.23193">
        <ele>225</ele>
        <time>2020-08-25T09:07:56.476Z</time>
      </trkpt>
      <trkpt lat="43.96775" lon="2.23193">
        <ele>225</ele>
        <time>2020-08-25T09:07:57.476Z</time>
      </trkpt>
      <trkpt lat="43.96776" lon="2.23193">
        <ele>224</ele>
        <time>2020-08-25T09:07:58.476Z</time>
      </trkpt>
      <trkpt lat="43.96778" lon="2.23193">
        <ele>224</ele>
        <time>2020-08-25T09:07:59.476Z</time>
      </trkpt>
      <trkpt lat="43.96779" lon="2.23194">
        <ele>224</ele>
        <time>2020-08-25T09:08:00.476Z</time>
      </trkpt>
      <trkpt lat="43.9678" lon="2.23194">
        <ele>224</ele>
        <time>2020-08-25T09:08:01.476Z</time>
      </trkpt>
      <trkpt lat="43.96781" lon="2.23194">
        <ele>224</ele>
        <time>2020-08-25T09:08:02.476Z</time>
      </trkpt>
      <trkpt lat="43.96782" lon="2.23195">
        <ele>224</ele>
        <time>2020-08-25T09:08:03.476Z</time>
      </trkpt>
      <trkpt lat="43.96783" lon="2.23195">
        <ele>224</ele>
        <time>2020-08-25T09:08:04.476Z</time>
      </trkpt>
      <trkpt lat="43.96784" lon="2.23196">
        <ele>224</ele>
        <time>2020-08-25T09:08:05.476Z</time>
      </trkpt>
      <trkpt lat="43.96785" lon="2.23197">
        <ele>224</ele>
        <time>2020-08-25T09:08:06.476Z</time>
      </trkpt>
      <trkpt lat="43.96786" lon="2.23197">
        <ele>224</ele>
        <time>2020-08-25T09:08:07.476Z</time>
      </trkpt>
      <trkpt lat="43.96787" lon="2.23197">
        <ele>224</ele>
        <time>2020-08-25T09:08:08.476Z</time>
      </trkpt>
      <trkpt lat="43.96788" lon="2.23198">
        <ele>224</ele>
        <time>2020-08-25T09:08:09.476Z</time>
      </trkpt>
      <trkpt lat="43.96789" lon="2.23199">
        <ele>224</ele>
        <time>2020-08-25T09:08:10.476Z</time>
      </trkpt>
      <trkpt lat="43.9679" lon="2.23199">
        <ele>224</ele>
        <time>2020-08-25T09:08:11.476Z</time>
      </trkpt>
      <trkpt lat="43.96791" lon="2.232">
        <ele>224</ele>
        <time>2020-08-25T09:08:12.476Z</time>
      </trkpt>
      <trkpt lat="43.96792" lon="2.23201">
        <ele>224</ele>
        <time>2020-08-25T09:08:13.476Z</time>
      </trkpt>
      <trkpt lat="43.96792" lon="2.23202">
        <ele>224</ele>
        <time>2020-08-25T09:08:14.476Z</time>
      </trkpt>
      <trkpt lat="43.96793" lon="2.23203">
        <ele>224</ele>
        <time>2020-08-25T09:08:15.476Z</time>
      </trkpt>
      <trkpt lat="43.96794" lon="2.23203">
        <ele>224</ele>
        <time>2020-08-25T09:08:16.476Z</time>
      </trkpt>
      <trkpt lat="43.96795" lon="2.23204">
        <ele>224</ele>
        <time>2020-08-25T09:08:17.476Z</time>
      </trkpt>
      <trkpt lat="43.96796" lon="2.23204">
        <ele>224</ele>
        <time>2020-08-25T09:08:18.476Z</time>
      </trkpt>
      <trkpt lat="43.96796" lon="2.23205">
        <ele>224</ele>
        <time>2020-08-25T09:08:19.476Z</time>
      </trkpt>
      <trkpt lat="43.96797" lon="2.23205">
        <ele>225</ele>
        <time>2020-08-25T09:08:20.476Z</time>
      </trkpt>
      <trkpt lat="43.96797" lon="2.23205">
        <ele>225</ele>
        <time>2020-08-25T09:08:21.476Z</time>
      </trkpt>
      <trkpt lat="43.96797" lon="2.23205">
        <ele>225</ele>
        <time>2020-08-25T09:08:22.476Z</time>
      </trkpt>
      <trkpt lat="43.968" lon="2.23207">
        <ele>225</ele>
        <time>2020-08-25T09:08:25.704Z</time>
      </trkpt>
      <trkpt lat="43.96801" lon="2.23208">
        <ele>225</ele>
        <time>2020-08-25T09:08:26.704Z</time>
      </trkpt>
      <trkpt lat="43.96802" lon="2.23209">
        <ele>225</ele>
        <time>2020-08-25T09:08:27.704Z</time>
      </trkpt>
      <trkpt lat="43.96803" lon="2.23209">
        <ele>225</ele>
        <time>2020-08-25T09:08:28.704Z</time>
      </trkpt>
      <trkpt lat="43.96805" lon="2.2321">
        <ele>225</ele>
        <time>2020-08-25T09:08:29.704Z</time>
      </trkpt>
      <trkpt lat="43.96806" lon="2.23211">
        <ele>225</ele>
        <time>2020-08-25T09:08:30.704Z</time>
      </trkpt>
      <trkpt lat="43.96807" lon="2.23212">
        <ele>225</ele>
        <time>2020-08-25T09:08:31.704Z</time>
      </trkpt>
      <trkpt lat="43.96808" lon="2.23213">
        <ele>225</ele>
        <time>2020-08-25T09:08:32.704Z</time>
      </trkpt>
      <trkpt lat="43.96809" lon="2.23214">
        <ele>225</ele>
        <time>2020-08-25T09:08:33.704Z</time>
      </trkpt>
      <trkpt lat="43.9681" lon="2.23215">
        <ele>225</ele>
        <time>2020-08-25T09:08:34.704Z</time>
      </trkpt>
      <trkpt lat="43.96812" lon="2.23216">
        <ele>226</ele>
        <time>2020-08-25T09:08:35.704Z</time>
      </trkpt>
      <trkpt lat="43.96812" lon="2.23217">
        <ele>226</ele>
        <time>2020-08-25T09:08:36.704Z</time>
      </trkpt>
      <trkpt lat="43.96813" lon="2.23218">
        <ele>226</ele>
        <time>2020-08-25T09:08:37.704Z</time>
      </trkpt>
      <trkpt lat="43.96814" lon="2.23219">
        <ele>226</ele>
        <time>2020-08-25T09:08:38.704Z</time>
      </trkpt>
      <trkpt lat="43.96815" lon="2.2322">
        <ele>226</ele>
        <time>2020-08-25T09:08:39.704Z</time>
      </trkpt>
      <trkpt lat="43.96816" lon="2.23221">
        <ele>226</ele>
        <time>2020-08-25T09:08:40.704Z</time>
      </trkpt>
      <trkpt lat="43.96817" lon="2.23222">
        <ele>226</ele>
        <time>2020-08-25T09:08:41.704Z</time>
      </trkpt>
      <trkpt lat="43.96817" lon="2.23224">
        <ele>226</ele>
        <time>2020-08-25T09:08:42.704Z</time>
      </trkpt>
      <trkpt lat="43.96818" lon="2.23225">
        <ele>226</ele>
        <time>2020-08-25T09:08:43.704Z</time>
      </trkpt>
      <trkpt lat="43.96819" lon="2.23226">
        <ele>226</ele>
        <time>2020-08-25T09:08:44.704Z</time>
      </trkpt>
      <trkpt lat="43.96819" lon="2.23227">
        <ele>226</ele>
        <time>2020-08-25T09:08:45.704Z</time>
      </trkpt>
      <trkpt lat="43.9682" lon="2.23228">
        <ele>226</ele>
        <time>2020-08-25T09:08:46.704Z</time>
      </trkpt>
      <trkpt lat="43.96821" lon="2.2323">
        <ele>226</ele>
        <time>2020-08-25T09:08:47.704Z</time>
      </trkpt>
      <trkpt lat="43.96822" lon="2.23231">
        <ele>227</ele>
        <time>2020-08-25T09:08:48.704Z</time>
      </trkpt>
      <trkpt lat="43.96822" lon="2.23231">
        <ele>227</ele>
        <time>2020-08-25T09:08:49.704Z</time>
      </trkpt>
      <trkpt lat="43.96822" lon="2.23232">
        <ele>227</ele>
        <time>2020-08-25T09:08:50.704Z</time>
      </trkpt>
      <trkpt lat="43.96822" lon="2.23232">
        <ele>227</ele>
        <time>2020-08-25T09:08:51.704Z</time>
      </trkpt>
      <trkpt lat="43.96823" lon="2.23232">
        <ele>227</ele>
        <time>2020-08-25T09:08:52.704Z</time>
      </trkpt>
      <trkpt lat="43.96824" lon="2.23234">
        <ele>227</ele>
        <time>2020-08-25T09:09:04.713Z</time>
      </trkpt>
      <trkpt lat="43.96824" lon="2.23234">
        <ele>227</ele>
        <time>2020-08-25T09:09:05.713Z</time>
      </trkpt>
      <trkpt lat="43.96825" lon="2.23235">
        <ele>227</ele>
        <time>2020-08-25T09:09:06.713Z</time>
      </trkpt>
      <trkpt lat="43.96825" lon="2.23236">
        <ele>227</ele>
        <time>2020-08-25T09:09:07.713Z</time>
      </trkpt>
      <trkpt lat="43.96826" lon="2.23237">
        <ele>227</ele>
        <time>2020-08-25T09:09:08.713Z</time>
      </trkpt>
      <trkpt lat="43.96827" lon="2.23238">
        <ele>227</ele>
        <time>2020-08-25T09:09:09.713Z</time>
      </trkpt>
      <trkpt lat="43.96828" lon="2.23238">
        <ele>228</ele>
        <time>2020-08-25T09:09:10.713Z</time>
      </trkpt>
      <trkpt lat="43.96828" lon="2.23239">
        <ele>228</ele>
        <time>2020-08-25T09:09:11.713Z</time>
      </trkpt>
      <trkpt lat="43.96829" lon="2.2324">
        <ele>228</ele>
        <time>2020-08-25T09:09:12.713Z</time>
      </trkpt>
      <trkpt lat="43.96829" lon="2.2324">
        <ele>228</ele>
        <time>2020-08-25T09:09:13.713Z</time>
      </trkpt>
      <trkpt lat="43.96829" lon="2.23241">
        <ele>228</ele>
        <time>2020-08-25T09:09:14.713Z</time>
      </trkpt>
      <trkpt lat="43.9683" lon="2.23242">
        <ele>228</ele>
        <time>2020-08-25T09:09:15.713Z</time>
      </trkpt>
      <trkpt lat="43.96831" lon="2.23242">
        <ele>228</ele>
        <time>2020-08-25T09:09:16.713Z</time>
      </trkpt>
      <trkpt lat="43.96831" lon="2.23243">
        <ele>228</ele>
        <time>2020-08-25T09:09:17.713Z</time>
      </trkpt>
      <trkpt lat="43.96832" lon="2.23244">
        <ele>228</ele>
        <time>2020-08-25T09:09:18.713Z</time>
      </trkpt>
      <trkpt lat="43.96832" lon="2.23245">
        <ele>229</ele>
        <time>2020-08-25T09:09:19.713Z</time>
      </trkpt>
      <trkpt lat="43.96833" lon="2.23246">
        <ele>229</ele>
        <time>2020-08-25T09:09:20.713Z</time>
      </trkpt>
      <trkpt lat="43.96834" lon="2.23247">
        <ele>229</ele>
        <time>2020-08-25T09:09:21.713Z</time>
      </trkpt>
      <trkpt lat="43.96835" lon="2.23248">
        <ele>229</ele>
        <time>2020-08-25T09:09:22.713Z</time>
      </trkpt>
      <trkpt lat="43.96835" lon="2.23248">
        <ele>229</ele>
        <time>2020-08-25T09:09:23.713Z</time>
      </trkpt>
      <trkpt lat="43.96836" lon="2.23248">
        <ele>229</ele>
        <time>2020-08-25T09:09:24.713Z</time>
      </trkpt>
      <trkpt lat="43.96836" lon="2.23249">
        <ele>229</ele>
        <time>2020-08-25T09:09:25.713Z</time>
      </trkpt>
      <trkpt lat="43.96836" lon="2.23249">
        <ele>229</ele>
        <time>2020-08-25T09:09:26.713Z</time>
      </trkpt>
      <trkpt lat="43.96836" lon="2.23249">
        <ele>229</ele>
        <time>2020-08-25T09:09:27.713Z</time>
      </trkpt>
      <trkpt lat="43.96838" lon="2.2325">
        <ele>229</ele>
        <time>2020-08-25T09:09:31.725Z</time>
      </trkpt>
      <trkpt lat="43.96838" lon="2.23252">
        <ele>229</ele>
        <time>2020-08-25T09:09:32.725Z</time>
      </trkpt>
      <trkpt lat="43.96839" lon="2.23253">
        <ele>229</ele>
        <time>2020-08-25T09:09:33.725Z</time>
      </trkpt>
      <trkpt lat="43.9684" lon="2.23254">
        <ele>229</ele>
        <time>2020-08-25T09:09:34.725Z</time>
      </trkpt>
      <trkpt lat="43.96841" lon="2.23255">
        <ele>229</ele>
        <time>2020-08-25T09:09:35.725Z</time>
      </trkpt>
      <trkpt lat="43.96842" lon="2.23256">
        <ele>229</ele>
        <time>2020-08-25T09:09:36.725Z</time>
      </trkpt>
      <trkpt lat="43.96843" lon="2.23258">
        <ele>229</ele>
        <time>2020-08-25T09:09:37.725Z</time>
      </trkpt>
      <trkpt lat="43.96844" lon="2.23259">
        <ele>229</ele>
        <time>2020-08-25T09:09:38.725Z</time>
      </trkpt>
      <trkpt lat="43.96845" lon="2.2326">
        <ele>229</ele>
        <time>2020-08-25T09:09:39.725Z</time>
      </trkpt>
      <trkpt lat="43.96845" lon="2.2326">
        <ele>229</ele>
        <time>2020-08-25T09:09:40.725Z</time>
      </trkpt>
      <trkpt lat="43.96846" lon="2.23261">
        <ele>228</ele>
        <time>2020-08-25T09:09:41.725Z</time>
      </trkpt>
      <trkpt lat="43.96846" lon="2.23261">
        <ele>228</ele>
        <time>2020-08-25T09:09:42.725Z</time>
      </trkpt>
      <trkpt lat="43.96846" lon="2.23262">
        <ele>228</ele>
        <time>2020-08-25T09:09:43.725Z</time>
      </trkpt>
      <trkpt lat="43.96847" lon="2.23262">
        <ele>228</ele>
        <time>2020-08-25T09:09:44.725Z</time>
      </trkpt>
      <trkpt lat="43.96847" lon="2.23264">
        <ele>228</ele>
        <time>2020-08-25T09:09:45.725Z</time>
      </trkpt>
      <trkpt lat="43.96848" lon="2.23265">
        <ele>229</ele>
        <time>2020-08-25T09:09:46.725Z</time>
      </trkpt>
      <trkpt lat="43.96849" lon="2.23265">
        <ele>229</ele>
        <time>2020-08-25T09:09:47.725Z</time>
      </trkpt>
      <trkpt lat="43.9685" lon="2.23266">
        <ele>229</ele>
        <time>2020-08-25T09:09:48.725Z</time>
      </trkpt>
      <trkpt lat="43.96851" lon="2.23267">
        <ele>229</ele>
        <time>2020-08-25T09:09:49.725Z</time>
      </trkpt>
      <trkpt lat="43.96851" lon="2.23269">
        <ele>229</ele>
        <time>2020-08-25T09:09:50.725Z</time>
      </trkpt>
      <trkpt lat="43.96852" lon="2.23269">
        <ele>229</ele>
        <time>2020-08-25T09:09:51.725Z</time>
      </trkpt>
      <trkpt lat="43.96853" lon="2.2327">
        <ele>229</ele>
        <time>2020-08-25T09:09:52.725Z</time>
      </trkpt>
      <trkpt lat="43.96853" lon="2.23271">
        <ele>229</ele>
        <time>2020-08-25T09:09:53.725Z</time>
      </trkpt>
      <trkpt lat="43.96854" lon="2.23271">
        <ele>230</ele>
        <time>2020-08-25T09:09:54.725Z</time>
      </trkpt>
      <trkpt lat="43.96854" lon="2.23272">
        <ele>230</ele>
        <time>2020-08-25T09:09:55.725Z</time>
      </trkpt>
      <trkpt lat="43.96855" lon="2.23273">
        <ele>230</ele>
        <time>2020-08-25T09:09:56.725Z</time>
      </trkpt>
      <trkpt lat="43.96855" lon="2.23273">
        <ele>230</ele>
        <time>2020-08-25T09:09:57.725Z</time>
      </trkpt>
      <trkpt lat="43.96855" lon="2.23274">
        <ele>230</ele>
        <time>2020-08-25T09:09:58.725Z</time>
      </trkpt>
      <trkpt lat="43.96855" lon="2.23274">
        <ele>230</ele>
        <time>2020-08-25T09:09:59.725Z</time>
      </trkpt>
      <trkpt lat="43.96856" lon="2.23275">
        <ele>232</ele>
        <time>2020-08-25T09:12:23.724Z</time>
      </trkpt>
      <trkpt lat="43.96857" lon="2.23275">
        <ele>232</ele>
        <time>2020-08-25T09:12:24.724Z</time>
      </trkpt>
      <trkpt lat="43.96857" lon="2.23276">
        <ele>232</ele>
        <time>2020-08-25T09:12:25.724Z</time>
      </trkpt>
      <trkpt lat="43.96858" lon="2.23277">
        <ele>232</ele>
        <time>2020-08-25T09:12:26.724Z</time>
      </trkpt>
      <trkpt lat="43.96859" lon="2.23278">
        <ele>232</ele>
        <time>2020-08-25T09:12:27.724Z</time>
      </trkpt>
      <trkpt lat="43.9686" lon="2.23278">
        <ele>232</ele>
        <time>2020-08-25T09:12:28.724Z</time>
      </trkpt>
      <trkpt lat="43.96861" lon="2.23278">
        <ele>232</ele>
        <time>2020-08-25T09:12:29.724Z</time>
      </trkpt>
      <trkpt lat="43.96862" lon="2.23279">
        <ele>232</ele>
        <time>2020-08-25T09:12:30.724Z</time>
      </trkpt>
      <trkpt lat="43.96863" lon="2.23279">
        <ele>232</ele>
        <time>2020-08-25T09:12:31.724Z</time>
      </trkpt>
      <trkpt lat="43.96864" lon="2.23279">
        <ele>232</ele>
        <time>2020-08-25T09:12:32.724Z</time>
      </trkpt>
      <trkpt lat="43.96865" lon="2.23279">
        <ele>232</ele>
        <time>2020-08-25T09:12:33.724Z</time>
      </trkpt>
      <trkpt lat="43.96866" lon="2.2328">
        <ele>233</ele>
        <time>2020-08-25T09:12:34.724Z</time>
      </trkpt>
      <trkpt lat="43.96867" lon="2.2328">
        <ele>233</ele>
        <time>2020-08-25T09:12:35.724Z</time>
      </trkpt>
      <trkpt lat="43.96868" lon="2.23281">
        <ele>233</ele>
        <time>2020-08-25T09:12:36.724Z</time>
      </trkpt>
      <trkpt lat="43.96869" lon="2.2328">
        <ele>233</ele>
        <time>2020-08-25T09:12:37.724Z</time>
      </trkpt>
      <trkpt lat="43.9687" lon="2.2328">
        <ele>233</ele>
        <time>2020-08-25T09:12:38.724Z</time>
      </trkpt>
      <trkpt lat="43.96871" lon="2.2328">
        <ele>233</ele>
        <time>2020-08-25T09:12:39.724Z</time>
      </trkpt>
      <trkpt lat="43.96872" lon="2.2328">
        <ele>234</ele>
        <time>2020-08-25T09:12:40.724Z</time>
      </trkpt>
      <trkpt lat="43.96873" lon="2.2328">
        <ele>234</ele>
        <time>2020-08-25T09:12:41.724Z</time>
      </trkpt>
      <trkpt lat="43.96874" lon="2.23279">
        <ele>234</ele>
        <time>2020-08-25T09:12:42.724Z</time>
      </trkpt>
      <trkpt lat="43.96875" lon="2.23279">
        <ele>234</ele>
        <time>2020-08-25T09:12:43.724Z</time>
      </trkpt>
      <trkpt lat="43.96876" lon="2.23279">
        <ele>234</ele>
        <time>2020-08-25T09:12:44.724Z</time>
      </trkpt>
      <trkpt lat="43.96877" lon="2.23279">
        <ele>234</ele>
        <time>2020-08-25T09:12:45.724Z</time>
      </trkpt>
      <trkpt lat="43.96878" lon="2.23279">
        <ele>234</ele>
        <time>2020-08-25T09:12:46.724Z</time>
      </trkpt>
      <trkpt lat="43.96879" lon="2.23279">
        <ele>235</ele>
        <time>2020-08-25T09:12:47.724Z</time>
      </trkpt>
      <trkpt lat="43.9688" lon="2.23278">
        <ele>235</ele>
        <time>2020-08-25T09:12:48.724Z</time>
      </trkpt>
      <trkpt lat="43.96881" lon="2.23278">
        <ele>235</ele>
        <time>2020-08-25T09:12:49.724Z</time>
      </trkpt>
      <trkpt lat="43.96882" lon="2.23278">
        <ele>235</ele>
        <time>2020-08-25T09:12:50.724Z</time>
      </trkpt>
      <trkpt lat="43.96883" lon="2.23278">
        <ele>235</ele>
        <time>2020-08-25T09:12:51.724Z</time>
      </trkpt>
      <trkpt lat="43.96884" lon="2.23278">
        <ele>235</ele>
        <time>2020-08-25T09:12:52.724Z</time>
      </trkpt>
      <trkpt lat="43.96885" lon="2.23278">
        <ele>235</ele>
        <time>2020-08-25T09:12:53.724Z</time>
      </trkpt>
      <trkpt lat="43.96886" lon="2.23278">
        <ele>235</ele>
        <time>2020-08-25T09:12:54.724Z</time>
      </trkpt>
      <trkpt lat="43.96887" lon="2.23278">
        <ele>236</ele>
        <time>2020-08-25T09:12:55.724Z</time>
      </trkpt>
      <trkpt lat="43.96888" lon="2.23278">
        <ele>236</ele>
        <time>2020-08-25T09:12:56.724Z</time>
      </trkpt>
      <trkpt lat="43.96889" lon="2.23277">
        <ele>236</ele>
        <time>2020-08-25T09:12:57.724Z</time>
      </trkpt>
      <trkpt lat="43.9689" lon="2.23277">
        <ele>236</ele>
        <time>2020-08-25T09:12:58.724Z</time>
      </trkpt>
      <trkpt lat="43.96891" lon="2.23277">
        <ele>236</ele>
        <time>2020-08-25T09:12:59.724Z</time>
      </trkpt>
      <trkpt lat="43.96891" lon="2.23277">
        <ele>236</ele>
        <time>2020-08-25T09:13:00.724Z</time>
      </trkpt>
      <trkpt lat="43.96892" lon="2.23277">
        <ele>237</ele>
        <time>2020-08-25T09:13:01.724Z</time>
      </trkpt>
      <trkpt lat="43.96893" lon="2.23277">
        <ele>237</ele>
        <time>2020-08-25T09:13:02.724Z</time>
      </trkpt>
      <trkpt lat="43.96894" lon="2.23277">
        <ele>237</ele>
        <time>2020-08-25T09:13:03.724Z</time>
      </trkpt>
      <trkpt lat="43.96895" lon="2.23277">
        <ele>237</ele>
        <time>2020-08-25T09:13:04.724Z</time>
      </trkpt>
      <trkpt lat="43.96896" lon="2.23276">
        <ele>237</ele>
        <time>2020-08-25T09:13:05.724Z</time>
      </trkpt>
      <trkpt lat="43.96897" lon="2.23276">
        <ele>237</ele>
        <time>2020-08-25T09:13:06.724Z</time>
      </trkpt>
      <trkpt lat="43.96898" lon="2.23276">
        <ele>237</ele>
        <time>2020-08-25T09:13:07.724Z</time>
      </trkpt>
      <trkpt lat="43.96899" lon="2.23276">
        <ele>237</ele>
        <time>2020-08-25T09:13:08.724Z</time>
      </trkpt>
      <trkpt lat="43.969" lon="2.23275">
        <ele>238</ele>
        <time>2020-08-25T09:13:09.724Z</time>
      </trkpt>
      <trkpt lat="43.96901" lon="2.23275">
        <ele>238</ele>
        <time>2020-08-25T09:13:10.724Z</time>
      </trkpt>
      <trkpt lat="43.96902" lon="2.23275">
        <ele>238</ele>
        <time>2020-08-25T09:13:11.724Z</time>
      </trkpt>
      <trkpt lat="43.96903" lon="2.23275">
        <ele>238</ele>
        <time>2020-08-25T09:13:12.724Z</time>
      </trkpt>
      <trkpt lat="43.96904" lon="2.23274">
        <ele>238</ele>
        <time>2020-08-25T09:13:13.724Z</time>
      </trkpt>
      <trkpt lat="43.96905" lon="2.23274">
        <ele>238</ele>
        <time>2020-08-25T09:13:14.724Z</time>
      </trkpt>
      <trkpt lat="43.96906" lon="2.23274">
        <ele>237</ele>
        <time>2020-08-25T09:13:15.724Z</time>
      </trkpt>
      <trkpt lat="43.96907" lon="2.23273">
        <ele>237</ele>
        <time>2020-08-25T09:13:16.724Z</time>
      </trkpt>
      <trkpt lat="43.96908" lon="2.23273">
        <ele>237</ele>
        <time>2020-08-25T09:13:17.724Z</time>
      </trkpt>
      <trkpt lat="43.96909" lon="2.23273">
        <ele>237</ele>
        <time>2020-08-25T09:13:18.724Z</time>
      </trkpt>
      <trkpt lat="43.9691" lon="2.23273">
        <ele>237</ele>
        <time>2020-08-25T09:13:19.724Z</time>
      </trkpt>
      <trkpt lat="43.96911" lon="2.23272">
        <ele>237</ele>
        <time>2020-08-25T09:13:20.724Z</time>
      </trkpt>
      <trkpt lat="43.96912" lon="2.23272">
        <ele>237</ele>
        <time>2020-08-25T09:13:21.724Z</time>
      </trkpt>
      <trkpt lat="43.96913" lon="2.23272">
        <ele>237</ele>
        <time>2020-08-25T09:13:22.724Z</time>
      </trkpt>
      <trkpt lat="43.96914" lon="2.23272">
        <ele>237</ele>
        <time>2020-08-25T09:13:23.724Z</time>
      </trkpt>
      <trkpt lat="43.96915" lon="2.23272">
        <ele>237</ele>
        <time>2020-08-25T09:13:24.724Z</time>
      </trkpt>
      <trkpt lat="43.96917" lon="2.23272">
        <ele>237</ele>
        <time>2020-08-25T09:13:25.724Z</time>
      </trkpt>
      <trkpt lat="43.96917" lon="2.23271">
        <ele>237</ele>
        <time>2020-08-25T09:13:26.724Z</time>
      </trkpt>
      <trkpt lat="43.96918" lon="2.23271">
        <ele>237</ele>
        <time>2020-08-25T09:13:27.724Z</time>
      </trkpt>
      <trkpt lat="43.96919" lon="2.23271">
        <ele>237</ele>
        <time>2020-08-25T09:13:28.724Z</time>
      </trkpt>
      <trkpt lat="43.9692" lon="2.2327">
        <ele>237</ele>
        <time>2020-08-25T09:13:29.724Z</time>
      </trkpt>
      <trkpt lat="43.96921" lon="2.2327">
        <ele>237</ele>
        <time>2020-08-25T09:13:30.724Z</time>
      </trkpt>
      <trkpt lat="43.96922" lon="2.2327">
        <ele>237</ele>
        <time>2020-08-25T09:13:31.724Z</time>
      </trkpt>
      <trkpt lat="43.96923" lon="2.2327">
        <ele>237</ele>
        <time>2020-08-25T09:13:32.724Z</time>
      </trkpt>
      <trkpt lat="43.96924" lon="2.2327">
        <ele>237</ele>
        <time>2020-08-25T09:13:33.724Z</time>
      </trkpt>
      <trkpt lat="43.96925" lon="2.2327">
        <ele>237</ele>
        <time>2020-08-25T09:13:34.724Z</time>
      </trkpt>
      <trkpt lat="43.96926" lon="2.2327">
        <ele>237</ele>
        <time>2020-08-25T09:13:35.724Z</time>
      </trkpt>
      <trkpt lat="43.96927" lon="2.23271">
        <ele>237</ele>
        <time>2020-08-25T09:13:36.724Z</time>
      </trkpt>
      <trkpt lat="43.96928" lon="2.23271">
        <ele>237</ele>
        <time>2020-08-25T09:13:37.724Z</time>
      </trkpt>
      <trkpt lat="43.96929" lon="2.23271">
        <ele>237</ele>
        <time>2020-08-25T09:13:38.724Z</time>
      </trkpt>
      <trkpt lat="43.9693" lon="2.23272">
        <ele>236</ele>
        <time>2020-08-25T09:13:39.724Z</time>
      </trkpt>
      <trkpt lat="43.96931" lon="2.23272">
        <ele>236</ele>
        <time>2020-08-25T09:13:40.724Z</time>
      </trkpt>
      <trkpt lat="43.96933" lon="2.23272">
        <ele>236</ele>
        <time>2020-08-25T09:13:41.724Z</time>
      </trkpt>
      <trkpt lat="43.96934" lon="2.23272">
        <ele>236</ele>
        <time>2020-08-25T09:13:42.724Z</time>
      </trkpt>
      <trkpt lat="43.96935" lon="2.23272">
        <ele>236</ele>
        <time>2020-08-25T09:13:43.724Z</time>
      </trkpt>
      <trkpt lat="43.96936" lon="2.23273">
        <ele>236</ele>
        <time>2020-08-25T09:13:44.724Z</time>
      </trkpt>
      <trkpt lat="43.96937" lon="2.23273">
        <ele>236</ele>
        <time>2020-08-25T09:13:45.724Z</time>
      </trkpt>
      <trkpt lat="43.96938" lon="2.23274">
        <ele>236</ele>
        <time>2020-08-25T09:13:46.724Z</time>
      </trkpt>
      <trkpt lat="43.96939" lon="2.23274">
        <ele>235</ele>
        <time>2020-08-25T09:13:47.724Z</time>
      </trkpt>
      <trkpt lat="43.96941" lon="2.23274">
        <ele>235</ele>
        <time>2020-08-25T09:13:48.724Z</time>
      </trkpt>
      <trkpt lat="43.96942" lon="2.23274">
        <ele>235</ele>
        <time>2020-08-25T09:13:49.724Z</time>
      </trkpt>
      <trkpt lat="43.96943" lon="2.23274">
        <ele>235</ele>
        <time>2020-08-25T09:13:50.724Z</time>
      </trkpt>
      <trkpt lat="43.96944" lon="2.23274">
        <ele>235</ele>
        <time>2020-08-25T09:13:51.724Z</time>
      </trkpt>
      <trkpt lat="43.96946" lon="2.23273">
        <ele>235</ele>
        <time>2020-08-25T09:13:52.724Z</time>
      </trkpt>
      <trkpt lat="43.96947" lon="2.23273">
        <ele>235</ele>
        <time>2020-08-25T09:13:53.724Z</time>
      </trkpt>
      <trkpt lat="43.96948" lon="2.23272">
        <ele>235</ele>
        <time>2020-08-25T09:13:54.724Z</time>
      </trkpt>
      <trkpt lat="43.96948" lon="2.23271">
        <ele>235</ele>
        <time>2020-08-25T09:13:55.724Z</time>
      </trkpt>
      <trkpt lat="43.96949" lon="2.23271">
        <ele>235</ele>
        <time>2020-08-25T09:13:56.724Z</time>
      </trkpt>
      <trkpt lat="43.9695" lon="2.23271">
        <ele>235</ele>
        <time>2020-08-25T09:13:57.724Z</time>
      </trkpt>
      <trkpt lat="43.96952" lon="2.23271">
        <ele>235</ele>
        <time>2020-08-25T09:13:58.724Z</time>
      </trkpt>
      <trkpt lat="43.96952" lon="2.23271">
        <ele>235</ele>
        <time>2020-08-25T09:13:59.724Z</time>
      </trkpt>
      <trkpt lat="43.96953" lon="2.23271">
        <ele>235</ele>
        <time>2020-08-25T09:14:00.724Z</time>
      </trkpt>
      <trkpt lat="43.96954" lon="2.23272">
        <ele>235</ele>
        <time>2020-08-25T09:14:01.724Z</time>
      </trkpt>
      <trkpt lat="43.96955" lon="2.23272">
        <ele>235</ele>
        <time>2020-08-25T09:14:02.724Z</time>
      </trkpt>
      <trkpt lat="43.96956" lon="2.23272">
        <ele>235</ele>
        <time>2020-08-25T09:14:03.724Z</time>
      </trkpt>
      <trkpt lat="43.96957" lon="2.23272">
        <ele>235</ele>
        <time>2020-08-25T09:14:04.724Z</time>
      </trkpt>
      <trkpt lat="43.96957" lon="2.23272">
        <ele>235</ele>
        <time>2020-08-25T09:14:05.724Z</time>
      </trkpt>
      <trkpt lat="43.96958" lon="2.23272">
        <ele>235</ele>
        <time>2020-08-25T09:14:06.724Z</time>
      </trkpt>
      <trkpt lat="43.96958" lon="2.23272">
        <ele>235</ele>
        <time>2020-08-25T09:14:07.724Z</time>
      </trkpt>
      <trkpt lat="43.96959" lon="2.23272">
        <ele>235</ele>
        <time>2020-08-25T09:14:08.724Z</time>
      </trkpt>
      <trkpt lat="43.96962" lon="2.23271">
        <ele>235</ele>
        <time>2020-08-25T09:14:19.739Z</time>
      </trkpt>
      <trkpt lat="43.96963" lon="2.23271">
        <ele>235</ele>
        <time>2020-08-25T09:14:20.739Z</time>
      </trkpt>
      <trkpt lat="43.96963" lon="2.23271">
        <ele>234</ele>
        <time>2020-08-25T09:14:21.739Z</time>
      </trkpt>
      <trkpt lat="43.96963" lon="2.23271">
        <ele>234</ele>
        <time>2020-08-25T09:14:22.739Z</time>
      </trkpt>
      <trkpt lat="43.96963" lon="2.23271">
        <ele>234</ele>
        <time>2020-08-25T09:14:23.739Z</time>
      </trkpt>
      <trkpt lat="43.96963" lon="2.23272">
        <ele>234</ele>
        <time>2020-08-25T09:14:24.739Z</time>
      </trkpt>
      <trkpt lat="43.96965" lon="2.23273">
        <ele>234</ele>
        <time>2020-08-25T09:14:27.950Z</time>
      </trkpt>
      <trkpt lat="43.96965" lon="2.23273">
        <ele>234</ele>
        <time>2020-08-25T09:14:28.950Z</time>
      </trkpt>
      <trkpt lat="43.96965" lon="2.23273">
        <ele>234</ele>
        <time>2020-08-25T09:14:29.950Z</time>
      </trkpt>
      <trkpt lat="43.96965" lon="2.23273">
        <ele>234</ele>
        <time>2020-08-25T09:14:30.950Z</time>
      </trkpt>
      <trkpt lat="43.96965" lon="2.23273">
        <ele>234</ele>
        <time>2020-08-25T09:14:31.950Z</time>
      </trkpt>
      <trkpt lat="43.96969" lon="2.23277">
        <ele>233</ele>
        <time>2020-08-25T09:15:10.964Z</time>
      </trkpt>
      <trkpt lat="43.9697" lon="2.23277">
        <ele>233</ele>
        <time>2020-08-25T09:15:11.964Z</time>
      </trkpt>
      <trkpt lat="43.9697" lon="2.23277">
        <ele>233</ele>
        <time>2020-08-25T09:15:12.964Z</time>
      </trkpt>
      <trkpt lat="43.96971" lon="2.23278">
        <ele>233</ele>
        <time>2020-08-25T09:15:13.964Z</time>
      </trkpt>
      <trkpt lat="43.96972" lon="2.23279">
        <ele>233</ele>
        <time>2020-08-25T09:15:14.964Z</time>
      </trkpt>
      <trkpt lat="43.96973" lon="2.2328">
        <ele>233</ele>
        <time>2020-08-25T09:15:15.964Z</time>
      </trkpt>
      <trkpt lat="43.96973" lon="2.2328">
        <ele>233</ele>
        <time>2020-08-25T09:15:16.964Z</time>
      </trkpt>
      <trkpt lat="43.96974" lon="2.23281">
        <ele>233</ele>
        <time>2020-08-25T09:15:17.964Z</time>
      </trkpt>
      <trkpt lat="43.96974" lon="2.23282">
        <ele>233</ele>
        <time>2020-08-25T09:15:18.964Z</time>
      </trkpt>
      <trkpt lat="43.96975" lon="2.23282">
        <ele>233</ele>
        <time>2020-08-25T09:15:19.964Z</time>
      </trkpt>
      <trkpt lat="43.96976" lon="2.23282">
        <ele>233</ele>
        <time>2020-08-25T09:15:20.964Z</time>
      </trkpt>
      <trkpt lat="43.96976" lon="2.23283">
        <ele>233</ele>
        <time>2020-08-25T09:15:21.964Z</time>
      </trkpt>
      <trkpt lat="43.96976" lon="2.23283">
        <ele>233</ele>
        <time>2020-08-25T09:15:22.964Z</time>
      </trkpt>
      <trkpt lat="43.96976" lon="2.23283">
        <ele>233</ele>
        <time>2020-08-25T09:15:23.964Z</time>
      </trkpt>
      <trkpt lat="43.96978" lon="2.23284">
        <ele>234</ele>
        <time>2020-08-25T09:15:31.963Z</time>
      </trkpt>
      <trkpt lat="43.96979" lon="2.23285">
        <ele>234</ele>
        <time>2020-08-25T09:15:32.963Z</time>
      </trkpt>
      <trkpt lat="43.9698" lon="2.23285">
        <ele>234</ele>
        <time>2020-08-25T09:15:33.963Z</time>
      </trkpt>
      <trkpt lat="43.9698" lon="2.23286">
        <ele>234</ele>
        <time>2020-08-25T09:15:34.963Z</time>
      </trkpt>
      <trkpt lat="43.9698" lon="2.23287">
        <ele>234</ele>
        <time>2020-08-25T09:15:35.963Z</time>
      </trkpt>
      <trkpt lat="43.96981" lon="2.23288">
        <ele>234</ele>
        <time>2020-08-25T09:15:36.963Z</time>
      </trkpt>
      <trkpt lat="43.96981" lon="2.23289">
        <ele>234</ele>
        <time>2020-08-25T09:15:37.963Z</time>
      </trkpt>
      <trkpt lat="43.96982" lon="2.23289">
        <ele>234</ele>
        <time>2020-08-25T09:15:38.963Z</time>
      </trkpt>
      <trkpt lat="43.96983" lon="2.23291">
        <ele>234</ele>
        <time>2020-08-25T09:15:39.963Z</time>
      </trkpt>
      <trkpt lat="43.96983" lon="2.23292">
        <ele>234</ele>
        <time>2020-08-25T09:15:40.963Z</time>
      </trkpt>
      <trkpt lat="43.96984" lon="2.23293">
        <ele>234</ele>
        <time>2020-08-25T09:15:41.963Z</time>
      </trkpt>
      <trkpt lat="43.96985" lon="2.23294">
        <ele>234</ele>
        <time>2020-08-25T09:15:42.963Z</time>
      </trkpt>
      <trkpt lat="43.96985" lon="2.23296">
        <ele>234</ele>
        <time>2020-08-25T09:15:43.963Z</time>
      </trkpt>
      <trkpt lat="43.96986" lon="2.23297">
        <ele>234</ele>
        <time>2020-08-25T09:15:44.963Z</time>
      </trkpt>
      <trkpt lat="43.96987" lon="2.23298">
        <ele>234</ele>
        <time>2020-08-25T09:15:45.963Z</time>
      </trkpt>
      <trkpt lat="43.96988" lon="2.23299">
        <ele>234</ele>
        <time>2020-08-25T09:15:46.963Z</time>
      </trkpt>
      <trkpt lat="43.96989" lon="2.233">
        <ele>234</ele>
        <time>2020-08-25T09:15:47.963Z</time>
      </trkpt>
      <trkpt lat="43.9699" lon="2.233">
        <ele>234</ele>
        <time>2020-08-25T09:15:48.963Z</time>
      </trkpt>
      <trkpt lat="43.96991" lon="2.23301">
        <ele>234</ele>
        <time>2020-08-25T09:15:49.963Z</time>
      </trkpt>
      <trkpt lat="43.96991" lon="2.23302">
        <ele>234</ele>
        <time>2020-08-25T09:15:50.963Z</time>
      </trkpt>
      <trkpt lat="43.96992" lon="2.23302">
        <ele>234</ele>
        <time>2020-08-25T09:15:51.963Z</time>
      </trkpt>
      <trkpt lat="43.96992" lon="2.23302">
        <ele>234</ele>
        <time>2020-08-25T09:15:52.963Z</time>
      </trkpt>
      <trkpt lat="43.96992" lon="2.23302">
        <ele>234</ele>
        <time>2020-08-25T09:15:53.963Z</time>
      </trkpt>
      <trkpt lat="43.96993" lon="2.23302">
        <ele>234</ele>
        <time>2020-08-25T09:15:54.963Z</time>
      </trkpt>
      <trkpt lat="43.96993" lon="2.23303">
        <ele>234</ele>
        <time>2020-08-25T09:15:55.963Z</time>
      </trkpt>
      <trkpt lat="43.96994" lon="2.23303">
        <ele>234</ele>
        <time>2020-08-25T09:15:56.963Z</time>
      </trkpt>
      <trkpt lat="43.96995" lon="2.23304">
        <ele>234</ele>
        <time>2020-08-25T09:15:57.963Z</time>
      </trkpt>
      <trkpt lat="43.96996" lon="2.23305">
        <ele>234</ele>
        <time>2020-08-25T09:15:58.963Z</time>
      </trkpt>
      <trkpt lat="43.96997" lon="2.23306">
        <ele>234</ele>
        <time>2020-08-25T09:15:59.963Z</time>
      </trkpt>
      <trkpt lat="43.96998" lon="2.23307">
        <ele>235</ele>
        <time>2020-08-25T09:16:00.963Z</time>
      </trkpt>
      <trkpt lat="43.96998" lon="2.23308">
        <ele>235</ele>
        <time>2020-08-25T09:16:01.963Z</time>
      </trkpt>
      <trkpt lat="43.96999" lon="2.23309">
        <ele>235</ele>
        <time>2020-08-25T09:16:02.963Z</time>
      </trkpt>
      <trkpt lat="43.97" lon="2.2331">
        <ele>235</ele>
        <time>2020-08-25T09:16:03.963Z</time>
      </trkpt>
      <trkpt lat="43.97001" lon="2.23311">
        <ele>235</ele>
        <time>2020-08-25T09:16:04.963Z</time>
      </trkpt>
      <trkpt lat="43.97002" lon="2.23311">
        <ele>235</ele>
        <time>2020-08-25T09:16:05.963Z</time>
      </trkpt>
      <trkpt lat="43.97003" lon="2.23312">
        <ele>235</ele>
        <time>2020-08-25T09:16:06.963Z</time>
      </trkpt>
      <trkpt lat="43.97004" lon="2.23313">
        <ele>235</ele>
        <time>2020-08-25T09:16:07.963Z</time>
      </trkpt>
      <trkpt lat="43.97005" lon="2.23314">
        <ele>235</ele>
        <time>2020-08-25T09:16:08.963Z</time>
      </trkpt>
      <trkpt lat="43.97005" lon="2.23315">
        <ele>235</ele>
        <time>2020-08-25T09:16:09.963Z</time>
      </trkpt>
      <trkpt lat="43.97005" lon="2.23317">
        <ele>235</ele>
        <time>2020-08-25T09:16:10.963Z</time>
      </trkpt>
      <trkpt lat="43.97006" lon="2.23318">
        <ele>236</ele>
        <time>2020-08-25T09:16:11.963Z</time>
      </trkpt>
      <trkpt lat="43.97006" lon="2.23319">
        <ele>236</ele>
        <time>2020-08-25T09:16:12.963Z</time>
      </trkpt>
      <trkpt lat="43.97007" lon="2.23321">
        <ele>236</ele>
        <time>2020-08-25T09:16:13.963Z</time>
      </trkpt>
      <trkpt lat="43.97007" lon="2.23323">
        <ele>236</ele>
        <time>2020-08-25T09:16:14.963Z</time>
      </trkpt>
      <trkpt lat="43.97008" lon="2.23324">
        <ele>236</ele>
        <time>2020-08-25T09:16:15.963Z</time>
      </trkpt>
      <trkpt lat="43.97008" lon="2.23326">
        <ele>236</ele>
        <time>2020-08-25T09:16:16.963Z</time>
      </trkpt>
      <trkpt lat="43.97009" lon="2.23327">
        <ele>236</ele>
        <time>2020-08-25T09:16:17.963Z</time>
      </trkpt>
      <trkpt lat="43.9701" lon="2.23328">
        <ele>236</ele>
        <time>2020-08-25T09:16:18.963Z</time>
      </trkpt>
      <trkpt lat="43.9701" lon="2.23328">
        <ele>236</ele>
        <time>2020-08-25T09:16:19.963Z</time>
      </trkpt>
      <trkpt lat="43.97011" lon="2.23329">
        <ele>236</ele>
        <time>2020-08-25T09:16:20.963Z</time>
      </trkpt>
      <trkpt lat="43.97012" lon="2.2333">
        <ele>236</ele>
        <time>2020-08-25T09:16:21.963Z</time>
      </trkpt>
      <trkpt lat="43.97013" lon="2.23331">
        <ele>236</ele>
        <time>2020-08-25T09:16:22.963Z</time>
      </trkpt>
      <trkpt lat="43.97014" lon="2.23332">
        <ele>236</ele>
        <time>2020-08-25T09:16:23.963Z</time>
      </trkpt>
      <trkpt lat="43.97014" lon="2.23333">
        <ele>237</ele>
        <time>2020-08-25T09:16:24.963Z</time>
      </trkpt>
      <trkpt lat="43.97015" lon="2.23334">
        <ele>237</ele>
        <time>2020-08-25T09:16:25.963Z</time>
      </trkpt>
      <trkpt lat="43.97015" lon="2.23335">
        <ele>237</ele>
        <time>2020-08-25T09:16:26.963Z</time>
      </trkpt>
      <trkpt lat="43.97015" lon="2.23336">
        <ele>237</ele>
        <time>2020-08-25T09:16:27.963Z</time>
      </trkpt>
      <trkpt lat="43.97016" lon="2.23337">
        <ele>237</ele>
        <time>2020-08-25T09:16:28.963Z</time>
      </trkpt>
      <trkpt lat="43.97016" lon="2.23338">
        <ele>237</ele>
        <time>2020-08-25T09:16:29.963Z</time>
      </trkpt>
      <trkpt lat="43.97016" lon="2.2334">
        <ele>237</ele>
        <time>2020-08-25T09:16:30.963Z</time>
      </trkpt>
      <trkpt lat="43.97016" lon="2.23341">
        <ele>237</ele>
        <time>2020-08-25T09:16:31.963Z</time>
      </trkpt>
      <trkpt lat="43.97016" lon="2.23342">
        <ele>237</ele>
        <time>2020-08-25T09:16:32.963Z</time>
      </trkpt>
      <trkpt lat="43.97016" lon="2.23343">
        <ele>237</ele>
        <time>2020-08-25T09:16:33.963Z</time>
      </trkpt>
      <trkpt lat="43.97016" lon="2.23344">
        <ele>237</ele>
        <time>2020-08-25T09:16:34.963Z</time>
      </trkpt>
      <trkpt lat="43.97015" lon="2.23346">
        <ele>237</ele>
        <time>2020-08-25T09:16:35.963Z</time>
      </trkpt>
      <trkpt lat="43.97015" lon="2.23347">
        <ele>237</ele>
        <time>2020-08-25T09:16:36.963Z</time>
      </trkpt>
      <trkpt lat="43.97015" lon="2.23348">
        <ele>237</ele>
        <time>2020-08-25T09:16:37.963Z</time>
      </trkpt>
      <trkpt lat="43.97015" lon="2.23349">
        <ele>237</ele>
        <time>2020-08-25T09:16:38.963Z</time>
      </trkpt>
      <trkpt lat="43.97015" lon="2.2335">
        <ele>237</ele>
        <time>2020-08-25T09:16:39.963Z</time>
      </trkpt>
      <trkpt lat="43.97015" lon="2.2335">
        <ele>237</ele>
        <time>2020-08-25T09:16:40.963Z</time>
      </trkpt>
      <trkpt lat="43.97016" lon="2.23351">
        <ele>237</ele>
        <time>2020-08-25T09:16:41.963Z</time>
      </trkpt>
      <trkpt lat="43.97016" lon="2.23352">
        <ele>237</ele>
        <time>2020-08-25T09:16:42.963Z</time>
      </trkpt>
      <trkpt lat="43.97017" lon="2.23352">
        <ele>237</ele>
        <time>2020-08-25T09:16:43.963Z</time>
      </trkpt>
      <trkpt lat="43.97018" lon="2.23353">
        <ele>237</ele>
        <time>2020-08-25T09:16:44.963Z</time>
      </trkpt>
      <trkpt lat="43.97019" lon="2.23354">
        <ele>237</ele>
        <time>2020-08-25T09:16:45.963Z</time>
      </trkpt>
      <trkpt lat="43.9702" lon="2.23354">
        <ele>237</ele>
        <time>2020-08-25T09:16:46.963Z</time>
      </trkpt>
      <trkpt lat="43.97021" lon="2.23355">
        <ele>237</ele>
        <time>2020-08-25T09:16:47.963Z</time>
      </trkpt>
      <trkpt lat="43.97021" lon="2.23356">
        <ele>237</ele>
        <time>2020-08-25T09:16:48.963Z</time>
      </trkpt>
      <trkpt lat="43.97022" lon="2.23357">
        <ele>237</ele>
        <time>2020-08-25T09:16:49.963Z</time>
      </trkpt>
      <trkpt lat="43.97023" lon="2.23357">
        <ele>237</ele>
        <time>2020-08-25T09:16:50.963Z</time>
      </trkpt>
      <trkpt lat="43.97024" lon="2.23358">
        <ele>237</ele>
        <time>2020-08-25T09:16:51.963Z</time>
      </trkpt>
      <trkpt lat="43.97025" lon="2.23359">
        <ele>237</ele>
        <time>2020-08-25T09:16:52.963Z</time>
      </trkpt>
      <trkpt lat="43.97026" lon="2.23359">
        <ele>237</ele>
        <time>2020-08-25T09:16:53.963Z</time>
      </trkpt>
      <trkpt lat="43.97027" lon="2.2336">
        <ele>237</ele>
        <time>2020-08-25T09:16:54.963Z</time>
      </trkpt>
      <trkpt lat="43.97027" lon="2.2336">
        <ele>237</ele>
        <time>2020-08-25T09:16:55.963Z</time>
      </trkpt>
      <trkpt lat="43.97028" lon="2.2336">
        <ele>237</ele>
        <time>2020-08-25T09:16:56.963Z</time>
      </trkpt>
      <trkpt lat="43.97029" lon="2.23361">
        <ele>237</ele>
        <time>2020-08-25T09:16:57.963Z</time>
      </trkpt>
      <trkpt lat="43.9703" lon="2.23362">
        <ele>237</ele>
        <time>2020-08-25T09:16:58.963Z</time>
      </trkpt>
      <trkpt lat="43.9703" lon="2.23363">
        <ele>237</ele>
        <time>2020-08-25T09:16:59.963Z</time>
      </trkpt>
      <trkpt lat="43.97031" lon="2.23363">
        <ele>237</ele>
        <time>2020-08-25T09:17:00.963Z</time>
      </trkpt>
      <trkpt lat="43.97032" lon="2.23364">
        <ele>237</ele>
        <time>2020-08-25T09:17:01.963Z</time>
      </trkpt>
      <trkpt lat="43.97033" lon="2.23365">
        <ele>237</ele>
        <time>2020-08-25T09:17:02.963Z</time>
      </trkpt>
      <trkpt lat="43.97034" lon="2.23365">
        <ele>237</ele>
        <time>2020-08-25T09:17:03.963Z</time>
      </trkpt>
      <trkpt lat="43.97034" lon="2.23366">
        <ele>237</ele>
        <time>2020-08-25T09:17:04.963Z</time>
      </trkpt>
      <trkpt lat="43.97035" lon="2.23367">
        <ele>237</ele>
        <time>2020-08-25T09:17:05.963Z</time>
      </trkpt>
      <trkpt lat="43.97036" lon="2.23367">
        <ele>237</ele>
        <time>2020-08-25T09:17:06.963Z</time>
      </trkpt>
      <trkpt lat="43.97036" lon="2.23368">
        <ele>237</ele>
        <time>2020-08-25T09:17:07.963Z</time>
      </trkpt>
      <trkpt lat="43.97037" lon="2.23368">
        <ele>237</ele>
        <time>2020-08-25T09:17:08.963Z</time>
      </trkpt>
      <trkpt lat="43.97038" lon="2.23369">
        <ele>237</ele>
        <time>2020-08-25T09:17:09.963Z</time>
      </trkpt>
      <trkpt lat="43.97039" lon="2.2337">
        <ele>237</ele>
        <time>2020-08-25T09:17:10.963Z</time>
      </trkpt>
      <trkpt lat="43.97039" lon="2.23371">
        <ele>237</ele>
        <time>2020-08-25T09:17:11.963Z</time>
      </trkpt>
      <trkpt lat="43.9704" lon="2.23371">
        <ele>237</ele>
        <time>2020-08-25T09:17:12.963Z</time>
      </trkpt>
      <trkpt lat="43.97041" lon="2.23372">
        <ele>237</ele>
        <time>2020-08-25T09:17:13.963Z</time>
      </trkpt>
      <trkpt lat="43.97042" lon="2.23373">
        <ele>237</ele>
        <time>2020-08-25T09:17:14.963Z</time>
      </trkpt>
      <trkpt lat="43.97043" lon="2.23373">
        <ele>237</ele>
        <time>2020-08-25T09:17:15.963Z</time>
      </trkpt>
      <trkpt lat="43.97044" lon="2.23374">
        <ele>237</ele>
        <time>2020-08-25T09:17:16.963Z</time>
      </trkpt>
      <trkpt lat="43.97044" lon="2.23375">
        <ele>238</ele>
        <time>2020-08-25T09:17:17.963Z</time>
      </trkpt>
      <trkpt lat="43.97045" lon="2.23376">
        <ele>238</ele>
        <time>2020-08-25T09:17:18.963Z</time>
      </trkpt>
      <trkpt lat="43.97046" lon="2.23377">
        <ele>238</ele>
        <time>2020-08-25T09:17:19.963Z</time>
      </trkpt>
      <trkpt lat="43.97047" lon="2.23378">
        <ele>238</ele>
        <time>2020-08-25T09:17:20.963Z</time>
      </trkpt>
      <trkpt lat="43.97048" lon="2.23379">
        <ele>238</ele>
        <time>2020-08-25T09:17:21.963Z</time>
      </trkpt>
      <trkpt lat="43.97049" lon="2.2338">
        <ele>238</ele>
        <time>2020-08-25T09:17:22.963Z</time>
      </trkpt>
      <trkpt lat="43.97051" lon="2.23381">
        <ele>238</ele>
        <time>2020-08-25T09:17:23.963Z</time>
      </trkpt>
      <trkpt lat="43.97052" lon="2.23382">
        <ele>238</ele>
        <time>2020-08-25T09:17:24.963Z</time>
      </trkpt>
      <trkpt lat="43.97053" lon="2.23383">
        <ele>238</ele>
        <time>2020-08-25T09:17:25.963Z</time>
      </trkpt>
      <trkpt lat="43.97055" lon="2.23384">
        <ele>237</ele>
        <time>2020-08-25T09:17:26.963Z</time>
      </trkpt>
      <trkpt lat="43.97056" lon="2.23385">
        <ele>237</ele>
        <time>2020-08-25T09:17:27.963Z</time>
      </trkpt>
      <trkpt lat="43.97057" lon="2.23386">
        <ele>237</ele>
        <time>2020-08-25T09:17:28.963Z</time>
      </trkpt>
      <trkpt lat="43.97059" lon="2.23387">
        <ele>237</ele>
        <time>2020-08-25T09:17:29.963Z</time>
      </trkpt>
      <trkpt lat="43.9706" lon="2.23388">
        <ele>237</ele>
        <time>2020-08-25T09:17:30.963Z</time>
      </trkpt>
      <trkpt lat="43.97061" lon="2.23389">
        <ele>237</ele>
        <time>2020-08-25T09:17:31.963Z</time>
      </trkpt>
      <trkpt lat="43.97062" lon="2.2339">
        <ele>238</ele>
        <time>2020-08-25T09:17:32.963Z</time>
      </trkpt>
      <trkpt lat="43.97063" lon="2.23391">
        <ele>238</ele>
        <time>2020-08-25T09:17:33.963Z</time>
      </trkpt>
      <trkpt lat="43.97064" lon="2.23392">
        <ele>238</ele>
        <time>2020-08-25T09:17:34.963Z</time>
      </trkpt>
      <trkpt lat="43.97066" lon="2.23392">
        <ele>238</ele>
        <time>2020-08-25T09:17:35.963Z</time>
      </trkpt>
      <trkpt lat="43.97067" lon="2.23393">
        <ele>238</ele>
        <time>2020-08-25T09:17:36.963Z</time>
      </trkpt>
      <trkpt lat="43.97068" lon="2.23394">
        <ele>238</ele>
        <time>2020-08-25T09:17:37.963Z</time>
      </trkpt>
      <trkpt lat="43.97069" lon="2.23395">
        <ele>238</ele>
        <time>2020-08-25T09:17:38.963Z</time>
      </trkpt>
      <trkpt lat="43.9707" lon="2.23395">
        <ele>238</ele>
        <time>2020-08-25T09:17:39.963Z</time>
      </trkpt>
      <trkpt lat="43.97071" lon="2.23396">
        <ele>238</ele>
        <time>2020-08-25T09:17:40.963Z</time>
      </trkpt>
      <trkpt lat="43.97072" lon="2.23396">
        <ele>238</ele>
        <time>2020-08-25T09:17:41.963Z</time>
      </trkpt>
      <trkpt lat="43.97073" lon="2.23397">
        <ele>238</ele>
        <time>2020-08-25T09:17:42.963Z</time>
      </trkpt>
      <trkpt lat="43.97074" lon="2.23398">
        <ele>238</ele>
        <time>2020-08-25T09:17:43.963Z</time>
      </trkpt>
      <trkpt lat="43.97075" lon="2.23398">
        <ele>238</ele>
        <time>2020-08-25T09:17:44.963Z</time>
      </trkpt>
      <trkpt lat="43.97077" lon="2.23399">
        <ele>238</ele>
        <time>2020-08-25T09:17:45.963Z</time>
      </trkpt>
      <trkpt lat="43.97078" lon="2.23399">
        <ele>238</ele>
        <time>2020-08-25T09:17:46.963Z</time>
      </trkpt>
      <trkpt lat="43.97079" lon="2.234">
        <ele>238</ele>
        <time>2020-08-25T09:17:47.963Z</time>
      </trkpt>
      <trkpt lat="43.9708" lon="2.234">
        <ele>238</ele>
        <time>2020-08-25T09:17:48.963Z</time>
      </trkpt>
      <trkpt lat="43.97081" lon="2.234">
        <ele>238</ele>
        <time>2020-08-25T09:17:49.963Z</time>
      </trkpt>
      <trkpt lat="43.97081" lon="2.23401">
        <ele>238</ele>
        <time>2020-08-25T09:17:50.963Z</time>
      </trkpt>
      <trkpt lat="43.97082" lon="2.23401">
        <ele>238</ele>
        <time>2020-08-25T09:17:51.963Z</time>
      </trkpt>
      <trkpt lat="43.97083" lon="2.23402">
        <ele>238</ele>
        <time>2020-08-25T09:17:52.963Z</time>
      </trkpt>
      <trkpt lat="43.97084" lon="2.23402">
        <ele>238</ele>
        <time>2020-08-25T09:17:53.963Z</time>
      </trkpt>
      <trkpt lat="43.97085" lon="2.23403">
        <ele>238</ele>
        <time>2020-08-25T09:17:54.963Z</time>
      </trkpt>
      <trkpt lat="43.97086" lon="2.23403">
        <ele>238</ele>
        <time>2020-08-25T09:17:55.963Z</time>
      </trkpt>
      <trkpt lat="43.97086" lon="2.23404">
        <ele>238</ele>
        <time>2020-08-25T09:17:56.963Z</time>
      </trkpt>
      <trkpt lat="43.97087" lon="2.23404">
        <ele>238</ele>
        <time>2020-08-25T09:17:57.963Z</time>
      </trkpt>
      <trkpt lat="43.97088" lon="2.23405">
        <ele>238</ele>
        <time>2020-08-25T09:17:58.963Z</time>
      </trkpt>
      <trkpt lat="43.97088" lon="2.23405">
        <ele>238</ele>
        <time>2020-08-25T09:17:59.963Z</time>
      </trkpt>
      <trkpt lat="43.97089" lon="2.23405">
        <ele>238</ele>
        <time>2020-08-25T09:18:00.963Z</time>
      </trkpt>
      <trkpt lat="43.9709" lon="2.23405">
        <ele>238</ele>
        <time>2020-08-25T09:18:01.963Z</time>
      </trkpt>
      <trkpt lat="43.97091" lon="2.23405">
        <ele>238</ele>
        <time>2020-08-25T09:18:02.963Z</time>
      </trkpt>
      <trkpt lat="43.97092" lon="2.23406">
        <ele>238</ele>
        <time>2020-08-25T09:18:03.963Z</time>
      </trkpt>
      <trkpt lat="43.97093" lon="2.23406">
        <ele>238</ele>
        <time>2020-08-25T09:18:04.963Z</time>
      </trkpt>
      <trkpt lat="43.97094" lon="2.23406">
        <ele>238</ele>
        <time>2020-08-25T09:18:05.963Z</time>
      </trkpt>
      <trkpt lat="43.97095" lon="2.23406">
        <ele>238</ele>
        <time>2020-08-25T09:18:06.963Z</time>
      </trkpt>
      <trkpt lat="43.97096" lon="2.23406">
        <ele>238</ele>
        <time>2020-08-25T09:18:07.963Z</time>
      </trkpt>
      <trkpt lat="43.97097" lon="2.23406">
        <ele>238</ele>
        <time>2020-08-25T09:18:08.963Z</time>
      </trkpt>
      <trkpt lat="43.97098" lon="2.23406">
        <ele>238</ele>
        <time>2020-08-25T09:18:09.963Z</time>
      </trkpt>
      <trkpt lat="43.97099" lon="2.23406">
        <ele>238</ele>
        <time>2020-08-25T09:18:10.963Z</time>
      </trkpt>
      <trkpt lat="43.971" lon="2.23406">
        <ele>239</ele>
        <time>2020-08-25T09:18:11.963Z</time>
      </trkpt>
      <trkpt lat="43.97101" lon="2.23406">
        <ele>239</ele>
        <time>2020-08-25T09:18:12.963Z</time>
      </trkpt>
      <trkpt lat="43.97102" lon="2.23407">
        <ele>239</ele>
        <time>2020-08-25T09:18:13.963Z</time>
      </trkpt>
      <trkpt lat="43.97103" lon="2.23407">
        <ele>239</ele>
        <time>2020-08-25T09:18:14.963Z</time>
      </trkpt>
      <trkpt lat="43.97104" lon="2.23407">
        <ele>239</ele>
        <time>2020-08-25T09:18:15.963Z</time>
      </trkpt>
      <trkpt lat="43.97105" lon="2.23407">
        <ele>239</ele>
        <time>2020-08-25T09:18:16.963Z</time>
      </trkpt>
      <trkpt lat="43.97106" lon="2.23406">
        <ele>239</ele>
        <time>2020-08-25T09:18:17.963Z</time>
      </trkpt>
      <trkpt lat="43.97107" lon="2.23406">
        <ele>239</ele>
        <time>2020-08-25T09:18:18.963Z</time>
      </trkpt>
      <trkpt lat="43.97108" lon="2.23406">
        <ele>238</ele>
        <time>2020-08-25T09:18:19.963Z</time>
      </trkpt>
      <trkpt lat="43.97109" lon="2.23406">
        <ele>238</ele>
        <time>2020-08-25T09:18:20.963Z</time>
      </trkpt>
      <trkpt lat="43.9711" lon="2.23406">
        <ele>238</ele>
        <time>2020-08-25T09:18:21.963Z</time>
      </trkpt>
      <trkpt lat="43.97111" lon="2.23405">
        <ele>238</ele>
        <time>2020-08-25T09:18:22.963Z</time>
      </trkpt>
      <trkpt lat="43.97113" lon="2.23405">
        <ele>239</ele>
        <time>2020-08-25T09:18:23.963Z</time>
      </trkpt>
      <trkpt lat="43.97114" lon="2.23405">
        <ele>239</ele>
        <time>2020-08-25T09:18:24.963Z</time>
      </trkpt>
      <trkpt lat="43.97115" lon="2.23405">
        <ele>239</ele>
        <time>2020-08-25T09:18:25.963Z</time>
      </trkpt>
      <trkpt lat="43.97116" lon="2.23405">
        <ele>239</ele>
        <time>2020-08-25T09:18:26.963Z</time>
      </trkpt>
      <trkpt lat="43.97117" lon="2.23406">
        <ele>239</ele>
        <time>2020-08-25T09:18:27.963Z</time>
      </trkpt>
      <trkpt lat="43.97118" lon="2.23406">
        <ele>239</ele>
        <time>2020-08-25T09:18:28.963Z</time>
      </trkpt>
      <trkpt lat="43.97119" lon="2.23406">
        <ele>239</ele>
        <time>2020-08-25T09:18:29.963Z</time>
      </trkpt>
      <trkpt lat="43.9712" lon="2.23406">
        <ele>239</ele>
        <time>2020-08-25T09:18:30.963Z</time>
      </trkpt>
      <trkpt lat="43.97121" lon="2.23407">
        <ele>239</ele>
        <time>2020-08-25T09:18:31.963Z</time>
      </trkpt>
      <trkpt lat="43.97122" lon="2.23407">
        <ele>239</ele>
        <time>2020-08-25T09:18:32.963Z</time>
      </trkpt>
      <trkpt lat="43.97123" lon="2.23408">
        <ele>239</ele>
        <time>2020-08-25T09:18:33.963Z</time>
      </trkpt>
      <trkpt lat="43.97124" lon="2.23408">
        <ele>239</ele>
        <time>2020-08-25T09:18:34.963Z</time>
      </trkpt>
      <trkpt lat="43.97125" lon="2.23408">
        <ele>239</ele>
        <time>2020-08-25T09:18:35.963Z</time>
      </trkpt>
      <trkpt lat="43.97126" lon="2.23408">
        <ele>239</ele>
        <time>2020-08-25T09:18:36.963Z</time>
      </trkpt>
      <trkpt lat="43.97127" lon="2.23409">
        <ele>239</ele>
        <time>2020-08-25T09:18:37.963Z</time>
      </trkpt>
      <trkpt lat="43.97128" lon="2.23409">
        <ele>239</ele>
        <time>2020-08-25T09:18:38.963Z</time>
      </trkpt>
      <trkpt lat="43.97129" lon="2.23409">
        <ele>239</ele>
        <time>2020-08-25T09:18:39.963Z</time>
      </trkpt>
      <trkpt lat="43.9713" lon="2.23409">
        <ele>239</ele>
        <time>2020-08-25T09:18:40.963Z</time>
      </trkpt>
      <trkpt lat="43.97131" lon="2.23409">
        <ele>240</ele>
        <time>2020-08-25T09:18:41.963Z</time>
      </trkpt>
      <trkpt lat="43.97132" lon="2.23409">
        <ele>240</ele>
        <time>2020-08-25T09:18:42.963Z</time>
      </trkpt>
      <trkpt lat="43.97133" lon="2.2341">
        <ele>240</ele>
        <time>2020-08-25T09:18:43.963Z</time>
      </trkpt>
      <trkpt lat="43.97134" lon="2.2341">
        <ele>240</ele>
        <time>2020-08-25T09:18:44.963Z</time>
      </trkpt>
      <trkpt lat="43.97135" lon="2.23411">
        <ele>240</ele>
        <time>2020-08-25T09:18:45.963Z</time>
      </trkpt>
      <trkpt lat="43.97136" lon="2.23411">
        <ele>240</ele>
        <time>2020-08-25T09:18:46.963Z</time>
      </trkpt>
      <trkpt lat="43.97137" lon="2.23411">
        <ele>240</ele>
        <time>2020-08-25T09:18:47.963Z</time>
      </trkpt>
      <trkpt lat="43.97138" lon="2.23412">
        <ele>240</ele>
        <time>2020-08-25T09:18:48.963Z</time>
      </trkpt>
      <trkpt lat="43.97139" lon="2.23412">
        <ele>240</ele>
        <time>2020-08-25T09:18:49.963Z</time>
      </trkpt>
      <trkpt lat="43.9714" lon="2.23413">
        <ele>240</ele>
        <time>2020-08-25T09:18:50.963Z</time>
      </trkpt>
      <trkpt lat="43.97141" lon="2.23413">
        <ele>240</ele>
        <time>2020-08-25T09:18:51.963Z</time>
      </trkpt>
      <trkpt lat="43.97142" lon="2.23414">
        <ele>240</ele>
        <time>2020-08-25T09:18:52.963Z</time>
      </trkpt>
      <trkpt lat="43.97142" lon="2.23414">
        <ele>240</ele>
        <time>2020-08-25T09:18:53.963Z</time>
      </trkpt>
      <trkpt lat="43.97142" lon="2.23414">
        <ele>240</ele>
        <time>2020-08-25T09:18:54.963Z</time>
      </trkpt>
      <trkpt lat="43.97142" lon="2.23414">
        <ele>240</ele>
        <time>2020-08-25T09:18:55.963Z</time>
      </trkpt>
      <trkpt lat="43.97142" lon="2.23414">
        <ele>240</ele>
        <time>2020-08-25T09:18:56.963Z</time>
      </trkpt>
      <trkpt lat="43.97143" lon="2.23414">
        <ele>241</ele>
        <time>2020-08-25T09:19:12.975Z</time>
      </trkpt>
      <trkpt lat="43.97144" lon="2.23415">
        <ele>241</ele>
        <time>2020-08-25T09:19:13.975Z</time>
      </trkpt>
      <trkpt lat="43.97145" lon="2.23416">
        <ele>241</ele>
        <time>2020-08-25T09:19:14.975Z</time>
      </trkpt>
      <trkpt lat="43.97145" lon="2.23417">
        <ele>241</ele>
        <time>2020-08-25T09:19:15.975Z</time>
      </trkpt>
      <trkpt lat="43.97146" lon="2.23418">
        <ele>241</ele>
        <time>2020-08-25T09:19:16.975Z</time>
      </trkpt>
      <trkpt lat="43.97146" lon="2.23419">
        <ele>241</ele>
        <time>2020-08-25T09:19:17.975Z</time>
      </trkpt>
      <trkpt lat="43.97146" lon="2.23419">
        <ele>241</ele>
        <time>2020-08-25T09:19:18.975Z</time>
      </trkpt>
      <trkpt lat="43.97146" lon="2.23419">
        <ele>241</ele>
        <time>2020-08-25T09:19:19.975Z</time>
      </trkpt>
      <trkpt lat="43.97146" lon="2.23419">
        <ele>241</ele>
        <time>2020-08-25T09:19:20.975Z</time>
      </trkpt>
      <trkpt lat="43.97147" lon="2.23421">
        <ele>241</ele>
        <time>2020-08-25T09:19:24.292Z</time>
      </trkpt>
      <trkpt lat="43.97148" lon="2.23421">
        <ele>241</ele>
        <time>2020-08-25T09:19:25.292Z</time>
      </trkpt>
      <trkpt lat="43.97148" lon="2.23421">
        <ele>241</ele>
        <time>2020-08-25T09:19:26.292Z</time>
      </trkpt>
      <trkpt lat="43.97149" lon="2.23423">
        <ele>240</ele>
        <time>2020-08-25T09:19:31.286Z</time>
      </trkpt>
      <trkpt lat="43.97149" lon="2.23424">
        <ele>240</ele>
        <time>2020-08-25T09:19:32.286Z</time>
      </trkpt>
      <trkpt lat="43.97149" lon="2.23424">
        <ele>240</ele>
        <time>2020-08-25T09:19:33.286Z</time>
      </trkpt>
      <trkpt lat="43.97149" lon="2.23424">
        <ele>240</ele>
        <time>2020-08-25T09:19:34.286Z</time>
      </trkpt>
      <trkpt lat="43.9715" lon="2.23425">
        <ele>240</ele>
        <time>2020-08-25T09:19:35.286Z</time>
      </trkpt>
      <trkpt lat="43.97151" lon="2.23426">
        <ele>240</ele>
        <time>2020-08-25T09:19:36.286Z</time>
      </trkpt>
      <trkpt lat="43.97152" lon="2.23427">
        <ele>240</ele>
        <time>2020-08-25T09:19:37.286Z</time>
      </trkpt>
      <trkpt lat="43.97153" lon="2.23429">
        <ele>240</ele>
        <time>2020-08-25T09:19:38.286Z</time>
      </trkpt>
      <trkpt lat="43.97154" lon="2.2343">
        <ele>240</ele>
        <time>2020-08-25T09:19:39.286Z</time>
      </trkpt>
      <trkpt lat="43.97155" lon="2.23431">
        <ele>240</ele>
        <time>2020-08-25T09:19:40.286Z</time>
      </trkpt>
      <trkpt lat="43.97156" lon="2.23433">
        <ele>240</ele>
        <time>2020-08-25T09:19:41.286Z</time>
      </trkpt>
      <trkpt lat="43.97156" lon="2.23434">
        <ele>240</ele>
        <time>2020-08-25T09:19:42.286Z</time>
      </trkpt>
      <trkpt lat="43.97157" lon="2.23436">
        <ele>239</ele>
        <time>2020-08-25T09:19:43.286Z</time>
      </trkpt>
      <trkpt lat="43.97158" lon="2.23437">
        <ele>239</ele>
        <time>2020-08-25T09:19:44.286Z</time>
      </trkpt>
      <trkpt lat="43.97158" lon="2.23439">
        <ele>239</ele>
        <time>2020-08-25T09:19:45.286Z</time>
      </trkpt>
      <trkpt lat="43.97159" lon="2.23441">
        <ele>239</ele>
        <time>2020-08-25T09:19:46.286Z</time>
      </trkpt>
      <trkpt lat="43.9716" lon="2.23442">
        <ele>239</ele>
        <time>2020-08-25T09:19:47.286Z</time>
      </trkpt>
      <trkpt lat="43.9716" lon="2.23443">
        <ele>239</ele>
        <time>2020-08-25T09:19:48.286Z</time>
      </trkpt>
      <trkpt lat="43.9716" lon="2.23445">
        <ele>240</ele>
        <time>2020-08-25T09:19:49.286Z</time>
      </trkpt>
      <trkpt lat="43.9716" lon="2.23447">
        <ele>240</ele>
        <time>2020-08-25T09:19:50.286Z</time>
      </trkpt>
      <trkpt lat="43.97161" lon="2.23448">
        <ele>240</ele>
        <time>2020-08-25T09:19:51.286Z</time>
      </trkpt>
      <trkpt lat="43.97161" lon="2.2345">
        <ele>240</ele>
        <time>2020-08-25T09:19:52.286Z</time>
      </trkpt>
      <trkpt lat="43.97161" lon="2.23451">
        <ele>240</ele>
        <time>2020-08-25T09:19:53.286Z</time>
      </trkpt>
      <trkpt lat="43.97161" lon="2.23453">
        <ele>240</ele>
        <time>2020-08-25T09:19:54.286Z</time>
      </trkpt>
      <trkpt lat="43.97162" lon="2.23455">
        <ele>240</ele>
        <time>2020-08-25T09:19:55.286Z</time>
      </trkpt>
      <trkpt lat="43.97162" lon="2.23456">
        <ele>240</ele>
        <time>2020-08-25T09:19:56.286Z</time>
      </trkpt>
      <trkpt lat="43.97162" lon="2.23457">
        <ele>240</ele>
        <time>2020-08-25T09:19:57.286Z</time>
      </trkpt>
      <trkpt lat="43.97163" lon="2.23459">
        <ele>240</ele>
        <time>2020-08-25T09:19:58.286Z</time>
      </trkpt>
      <trkpt lat="43.97163" lon="2.2346">
        <ele>240</ele>
        <time>2020-08-25T09:19:59.286Z</time>
      </trkpt>
      <trkpt lat="43.97163" lon="2.23461">
        <ele>240</ele>
        <time>2020-08-25T09:20:00.286Z</time>
      </trkpt>
      <trkpt lat="43.97164" lon="2.23462">
        <ele>240</ele>
        <time>2020-08-25T09:20:01.286Z</time>
      </trkpt>
      <trkpt lat="43.97164" lon="2.23464">
        <ele>240</ele>
        <time>2020-08-25T09:20:02.286Z</time>
      </trkpt>
      <trkpt lat="43.97164" lon="2.23466">
        <ele>240</ele>
        <time>2020-08-25T09:20:03.286Z</time>
      </trkpt>
      <trkpt lat="43.97164" lon="2.23467">
        <ele>240</ele>
        <time>2020-08-25T09:20:04.286Z</time>
      </trkpt>
      <trkpt lat="43.97165" lon="2.23469">
        <ele>240</ele>
        <time>2020-08-25T09:20:05.286Z</time>
      </trkpt>
      <trkpt lat="43.97165" lon="2.23471">
        <ele>240</ele>
        <time>2020-08-25T09:20:06.286Z</time>
      </trkpt>
      <trkpt lat="43.97165" lon="2.23473">
        <ele>240</ele>
        <time>2020-08-25T09:20:07.286Z</time>
      </trkpt>
      <trkpt lat="43.97166" lon="2.23474">
        <ele>240</ele>
        <time>2020-08-25T09:20:08.286Z</time>
      </trkpt>
      <trkpt lat="43.97166" lon="2.23476">
        <ele>240</ele>
        <time>2020-08-25T09:20:09.286Z</time>
      </trkpt>
      <trkpt lat="43.97166" lon="2.23478">
        <ele>240</ele>
        <time>2020-08-25T09:20:10.286Z</time>
      </trkpt>
      <trkpt lat="43.97167" lon="2.23479">
        <ele>240</ele>
        <time>2020-08-25T09:20:11.286Z</time>
      </trkpt>
      <trkpt lat="43.97167" lon="2.23481">
        <ele>240</ele>
        <time>2020-08-25T09:20:12.286Z</time>
      </trkpt>
      <trkpt lat="43.97168" lon="2.23482">
        <ele>239</ele>
        <time>2020-08-25T09:20:13.286Z</time>
      </trkpt>
      <trkpt lat="43.97168" lon="2.23484">
        <ele>239</ele>
        <time>2020-08-25T09:20:14.286Z</time>
      </trkpt>
      <trkpt lat="43.97169" lon="2.23485">
        <ele>239</ele>
        <time>2020-08-25T09:20:15.286Z</time>
      </trkpt>
      <trkpt lat="43.9717" lon="2.23487">
        <ele>239</ele>
        <time>2020-08-25T09:20:16.286Z</time>
      </trkpt>
      <trkpt lat="43.9717" lon="2.23488">
        <ele>239</ele>
        <time>2020-08-25T09:20:17.286Z</time>
      </trkpt>
      <trkpt lat="43.97171" lon="2.2349">
        <ele>238</ele>
        <time>2020-08-25T09:20:18.286Z</time>
      </trkpt>
      <trkpt lat="43.97171" lon="2.23491">
        <ele>238</ele>
        <time>2020-08-25T09:20:19.286Z</time>
      </trkpt>
      <trkpt lat="43.97172" lon="2.23492">
        <ele>238</ele>
        <time>2020-08-25T09:20:20.286Z</time>
      </trkpt>
      <trkpt lat="43.97172" lon="2.23493">
        <ele>238</ele>
        <time>2020-08-25T09:20:21.286Z</time>
      </trkpt>
      <trkpt lat="43.97173" lon="2.23494">
        <ele>238</ele>
        <time>2020-08-25T09:20:22.286Z</time>
      </trkpt>
      <trkpt lat="43.97173" lon="2.23495">
        <ele>238</ele>
        <time>2020-08-25T09:20:23.286Z</time>
      </trkpt>
      <trkpt lat="43.97174" lon="2.23496">
        <ele>238</ele>
        <time>2020-08-25T09:20:24.286Z</time>
      </trkpt>
      <trkpt lat="43.97174" lon="2.23497">
        <ele>238</ele>
        <time>2020-08-25T09:20:25.286Z</time>
      </trkpt>
      <trkpt lat="43.97175" lon="2.23498">
        <ele>238</ele>
        <time>2020-08-25T09:20:26.286Z</time>
      </trkpt>
      <trkpt lat="43.97175" lon="2.23499">
        <ele>238</ele>
        <time>2020-08-25T09:20:27.286Z</time>
      </trkpt>
      <trkpt lat="43.97176" lon="2.235">
        <ele>237</ele>
        <time>2020-08-25T09:20:28.286Z</time>
      </trkpt>
      <trkpt lat="43.97176" lon="2.23502">
        <ele>237</ele>
        <time>2020-08-25T09:20:29.286Z</time>
      </trkpt>
      <trkpt lat="43.97177" lon="2.23503">
        <ele>237</ele>
        <time>2020-08-25T09:20:30.286Z</time>
      </trkpt>
      <trkpt lat="43.97177" lon="2.23505">
        <ele>237</ele>
        <time>2020-08-25T09:20:31.286Z</time>
      </trkpt>
      <trkpt lat="43.97178" lon="2.23506">
        <ele>237</ele>
        <time>2020-08-25T09:20:32.286Z</time>
      </trkpt>
      <trkpt lat="43.97179" lon="2.23508">
        <ele>237</ele>
        <time>2020-08-25T09:20:33.286Z</time>
      </trkpt>
      <trkpt lat="43.9718" lon="2.23509">
        <ele>237</ele>
        <time>2020-08-25T09:20:34.286Z</time>
      </trkpt>
      <trkpt lat="43.97181" lon="2.2351">
        <ele>237</ele>
        <time>2020-08-25T09:20:35.286Z</time>
      </trkpt>
      <trkpt lat="43.97181" lon="2.23512">
        <ele>237</ele>
        <time>2020-08-25T09:20:36.286Z</time>
      </trkpt>
      <trkpt lat="43.97182" lon="2.23513">
        <ele>237</ele>
        <time>2020-08-25T09:20:37.286Z</time>
      </trkpt>
      <trkpt lat="43.97183" lon="2.23515">
        <ele>237</ele>
        <time>2020-08-25T09:20:38.286Z</time>
      </trkpt>
      <trkpt lat="43.97183" lon="2.23516">
        <ele>237</ele>
        <time>2020-08-25T09:20:39.286Z</time>
      </trkpt>
      <trkpt lat="43.97184" lon="2.23518">
        <ele>237</ele>
        <time>2020-08-25T09:20:40.286Z</time>
      </trkpt>
      <trkpt lat="43.97184" lon="2.2352">
        <ele>237</ele>
        <time>2020-08-25T09:20:41.286Z</time>
      </trkpt>
      <trkpt lat="43.97184" lon="2.23521">
        <ele>237</ele>
        <time>2020-08-25T09:20:42.286Z</time>
      </trkpt>
      <trkpt lat="43.97185" lon="2.23523">
        <ele>237</ele>
        <time>2020-08-25T09:20:43.286Z</time>
      </trkpt>
      <trkpt lat="43.97185" lon="2.23524">
        <ele>237</ele>
        <time>2020-08-25T09:20:44.286Z</time>
      </trkpt>
      <trkpt lat="43.97186" lon="2.23525">
        <ele>237</ele>
        <time>2020-08-25T09:20:45.286Z</time>
      </trkpt>
      <trkpt lat="43.97186" lon="2.23527">
        <ele>237</ele>
        <time>2020-08-25T09:20:46.286Z</time>
      </trkpt>
      <trkpt lat="43.97187" lon="2.23528">
        <ele>237</ele>
        <time>2020-08-25T09:20:47.286Z</time>
      </trkpt>
      <trkpt lat="43.97187" lon="2.2353">
        <ele>237</ele>
        <time>2020-08-25T09:20:48.286Z</time>
      </trkpt>
      <trkpt lat="43.97188" lon="2.23531">
        <ele>237</ele>
        <time>2020-08-25T09:20:49.286Z</time>
      </trkpt>
      <trkpt lat="43.97188" lon="2.23532">
        <ele>237</ele>
        <time>2020-08-25T09:20:50.286Z</time>
      </trkpt>
      <trkpt lat="43.97189" lon="2.23533">
        <ele>237</ele>
        <time>2020-08-25T09:20:51.286Z</time>
      </trkpt>
      <trkpt lat="43.97189" lon="2.23535">
        <ele>237</ele>
        <time>2020-08-25T09:20:52.286Z</time>
      </trkpt>
      <trkpt lat="43.97189" lon="2.23536">
        <ele>236</ele>
        <time>2020-08-25T09:20:53.286Z</time>
      </trkpt>
      <trkpt lat="43.9719" lon="2.23537">
        <ele>236</ele>
        <time>2020-08-25T09:20:54.286Z</time>
      </trkpt>
      <trkpt lat="43.9719" lon="2.23538">
        <ele>236</ele>
        <time>2020-08-25T09:20:55.286Z</time>
      </trkpt>
      <trkpt lat="43.97191" lon="2.23539">
        <ele>236</ele>
        <time>2020-08-25T09:20:56.286Z</time>
      </trkpt>
      <trkpt lat="43.97191" lon="2.23541">
        <ele>236</ele>
        <time>2020-08-25T09:20:57.286Z</time>
      </trkpt>
      <trkpt lat="43.97192" lon="2.23542">
        <ele>236</ele>
        <time>2020-08-25T09:20:58.286Z</time>
      </trkpt>
      <trkpt lat="43.97193" lon="2.23543">
        <ele>237</ele>
        <time>2020-08-25T09:20:59.286Z</time>
      </trkpt>
      <trkpt lat="43.97193" lon="2.23545">
        <ele>237</ele>
        <time>2020-08-25T09:21:00.286Z</time>
      </trkpt>
      <trkpt lat="43.97194" lon="2.23546">
        <ele>237</ele>
        <time>2020-08-25T09:21:01.286Z</time>
      </trkpt>
      <trkpt lat="43.97194" lon="2.23548">
        <ele>237</ele>
        <time>2020-08-25T09:21:02.286Z</time>
      </trkpt>
      <trkpt lat="43.97195" lon="2.23549">
        <ele>237</ele>
        <time>2020-08-25T09:21:03.286Z</time>
      </trkpt>
      <trkpt lat="43.97195" lon="2.2355">
        <ele>237</ele>
        <time>2020-08-25T09:21:04.286Z</time>
      </trkpt>
      <trkpt lat="43.97196" lon="2.23551">
        <ele>237</ele>
        <time>2020-08-25T09:21:05.286Z</time>
      </trkpt>
      <trkpt lat="43.97197" lon="2.23553">
        <ele>237</ele>
        <time>2020-08-25T09:21:06.286Z</time>
      </trkpt>
      <trkpt lat="43.97197" lon="2.23553">
        <ele>237</ele>
        <time>2020-08-25T09:21:07.286Z</time>
      </trkpt>
      <trkpt lat="43.97198" lon="2.23554">
        <ele>237</ele>
        <time>2020-08-25T09:21:08.286Z</time>
      </trkpt>
      <trkpt lat="43.97198" lon="2.23555">
        <ele>237</ele>
        <time>2020-08-25T09:21:09.286Z</time>
      </trkpt>
      <trkpt lat="43.97199" lon="2.23556">
        <ele>237</ele>
        <time>2020-08-25T09:21:10.286Z</time>
      </trkpt>
      <trkpt lat="43.97199" lon="2.23557">
        <ele>237</ele>
        <time>2020-08-25T09:21:11.286Z</time>
      </trkpt>
      <trkpt lat="43.972" lon="2.23558">
        <ele>237</ele>
        <time>2020-08-25T09:21:12.286Z</time>
      </trkpt>
      <trkpt lat="43.972" lon="2.23559">
        <ele>237</ele>
        <time>2020-08-25T09:21:13.286Z</time>
      </trkpt>
      <trkpt lat="43.97201" lon="2.2356">
        <ele>237</ele>
        <time>2020-08-25T09:21:14.286Z</time>
      </trkpt>
      <trkpt lat="43.97202" lon="2.23561">
        <ele>237</ele>
        <time>2020-08-25T09:21:15.286Z</time>
      </trkpt>
      <trkpt lat="43.97203" lon="2.23561">
        <ele>238</ele>
        <time>2020-08-25T09:21:16.286Z</time>
      </trkpt>
      <trkpt lat="43.97204" lon="2.23562">
        <ele>238</ele>
        <time>2020-08-25T09:21:17.286Z</time>
      </trkpt>
      <trkpt lat="43.97204" lon="2.23563">
        <ele>238</ele>
        <time>2020-08-25T09:21:18.286Z</time>
      </trkpt>
      <trkpt lat="43.97204" lon="2.23564">
        <ele>238</ele>
        <time>2020-08-25T09:21:19.286Z</time>
      </trkpt>
      <trkpt lat="43.97204" lon="2.23564">
        <ele>238</ele>
        <time>2020-08-25T09:21:20.286Z</time>
      </trkpt>
      <trkpt lat="43.97203" lon="2.23564">
        <ele>238</ele>
        <time>2020-08-25T09:21:21.286Z</time>
      </trkpt>
      <trkpt lat="43.97203" lon="2.23565">
        <ele>238</ele>
        <time>2020-08-25T09:21:22.286Z</time>
      </trkpt>
      <trkpt lat="43.97202" lon="2.23566">
        <ele>238</ele>
        <time>2020-08-25T09:21:23.286Z</time>
      </trkpt>
      <trkpt lat="43.97202" lon="2.23567">
        <ele>238</ele>
        <time>2020-08-25T09:21:24.286Z</time>
      </trkpt>
      <trkpt lat="43.97201" lon="2.23568">
        <ele>238</ele>
        <time>2020-08-25T09:21:25.286Z</time>
      </trkpt>
      <trkpt lat="43.97201" lon="2.23569">
        <ele>238</ele>
        <time>2020-08-25T09:21:26.286Z</time>
      </trkpt>
      <trkpt lat="43.97201" lon="2.23571">
        <ele>238</ele>
        <time>2020-08-25T09:21:27.286Z</time>
      </trkpt>
      <trkpt lat="43.97201" lon="2.23572">
        <ele>238</ele>
        <time>2020-08-25T09:21:28.286Z</time>
      </trkpt>
      <trkpt lat="43.97201" lon="2.23573">
        <ele>238</ele>
        <time>2020-08-25T09:21:29.286Z</time>
      </trkpt>
      <trkpt lat="43.97201" lon="2.23575">
        <ele>238</ele>
        <time>2020-08-25T09:21:30.286Z</time>
      </trkpt>
      <trkpt lat="43.97201" lon="2.23576">
        <ele>238</ele>
        <time>2020-08-25T09:21:31.286Z</time>
      </trkpt>
      <trkpt lat="43.97201" lon="2.23577">
        <ele>238</ele>
        <time>2020-08-25T09:21:32.286Z</time>
      </trkpt>
      <trkpt lat="43.97201" lon="2.23578">
        <ele>238</ele>
        <time>2020-08-25T09:21:33.286Z</time>
      </trkpt>
      <trkpt lat="43.97201" lon="2.23579">
        <ele>238</ele>
        <time>2020-08-25T09:21:34.286Z</time>
      </trkpt>
      <trkpt lat="43.97201" lon="2.23581">
        <ele>238</ele>
        <time>2020-08-25T09:21:35.286Z</time>
      </trkpt>
      <trkpt lat="43.97201" lon="2.23582">
        <ele>238</ele>
        <time>2020-08-25T09:21:36.286Z</time>
      </trkpt>
      <trkpt lat="43.97201" lon="2.23583">
        <ele>239</ele>
        <time>2020-08-25T09:21:37.286Z</time>
      </trkpt>
      <trkpt lat="43.97201" lon="2.23585">
        <ele>239</ele>
        <time>2020-08-25T09:21:38.286Z</time>
      </trkpt>
      <trkpt lat="43.97201" lon="2.23585">
        <ele>239</ele>
        <time>2020-08-25T09:21:39.286Z</time>
      </trkpt>
      <trkpt lat="43.97201" lon="2.23585">
        <ele>239</ele>
        <time>2020-08-25T09:21:40.286Z</time>
      </trkpt>
      <trkpt lat="43.97201" lon="2.23585">
        <ele>239</ele>
        <time>2020-08-25T09:21:41.286Z</time>
      </trkpt>
      <trkpt lat="43.97202" lon="2.23585">
        <ele>239</ele>
        <time>2020-08-25T09:21:42.286Z</time>
      </trkpt>
      <trkpt lat="43.97202" lon="2.23587">
        <ele>239</ele>
        <time>2020-08-25T09:21:45.514Z</time>
      </trkpt>
      <trkpt lat="43.97202" lon="2.23588">
        <ele>239</ele>
        <time>2020-08-25T09:21:46.514Z</time>
      </trkpt>
      <trkpt lat="43.97202" lon="2.23589">
        <ele>239</ele>
        <time>2020-08-25T09:21:47.514Z</time>
      </trkpt>
      <trkpt lat="43.97202" lon="2.23591">
        <ele>239</ele>
        <time>2020-08-25T09:21:48.514Z</time>
      </trkpt>
      <trkpt lat="43.97203" lon="2.23592">
        <ele>239</ele>
        <time>2020-08-25T09:21:49.514Z</time>
      </trkpt>
      <trkpt lat="43.97204" lon="2.23594">
        <ele>239</ele>
        <time>2020-08-25T09:21:50.514Z</time>
      </trkpt>
      <trkpt lat="43.97204" lon="2.23595">
        <ele>239</ele>
        <time>2020-08-25T09:21:51.514Z</time>
      </trkpt>
      <trkpt lat="43.97205" lon="2.23596">
        <ele>239</ele>
        <time>2020-08-25T09:21:52.514Z</time>
      </trkpt>
      <trkpt lat="43.97206" lon="2.23598">
        <ele>239</ele>
        <time>2020-08-25T09:21:53.514Z</time>
      </trkpt>
      <trkpt lat="43.97206" lon="2.23599">
        <ele>239</ele>
        <time>2020-08-25T09:21:54.514Z</time>
      </trkpt>
      <trkpt lat="43.97207" lon="2.23601">
        <ele>239</ele>
        <time>2020-08-25T09:21:55.514Z</time>
      </trkpt>
      <trkpt lat="43.97207" lon="2.23603">
        <ele>239</ele>
        <time>2020-08-25T09:21:56.514Z</time>
      </trkpt>
      <trkpt lat="43.97208" lon="2.23604">
        <ele>239</ele>
        <time>2020-08-25T09:21:57.514Z</time>
      </trkpt>
      <trkpt lat="43.97208" lon="2.23606">
        <ele>239</ele>
        <time>2020-08-25T09:21:58.514Z</time>
      </trkpt>
      <trkpt lat="43.97209" lon="2.23607">
        <ele>239</ele>
        <time>2020-08-25T09:21:59.514Z</time>
      </trkpt>
      <trkpt lat="43.97209" lon="2.23608">
        <ele>239</ele>
        <time>2020-08-25T09:22:00.514Z</time>
      </trkpt>
      <trkpt lat="43.9721" lon="2.2361">
        <ele>239</ele>
        <time>2020-08-25T09:22:01.514Z</time>
      </trkpt>
      <trkpt lat="43.9721" lon="2.23611">
        <ele>239</ele>
        <time>2020-08-25T09:22:02.514Z</time>
      </trkpt>
      <trkpt lat="43.97211" lon="2.23613">
        <ele>239</ele>
        <time>2020-08-25T09:22:03.514Z</time>
      </trkpt>
      <trkpt lat="43.97212" lon="2.23614">
        <ele>239</ele>
        <time>2020-08-25T09:22:04.514Z</time>
      </trkpt>
      <trkpt lat="43.97213" lon="2.23616">
        <ele>239</ele>
        <time>2020-08-25T09:22:05.514Z</time>
      </trkpt>
      <trkpt lat="43.97213" lon="2.23617">
        <ele>239</ele>
        <time>2020-08-25T09:22:06.514Z</time>
      </trkpt>
      <trkpt lat="43.97214" lon="2.23619">
        <ele>239</ele>
        <time>2020-08-25T09:22:07.514Z</time>
      </trkpt>
      <trkpt lat="43.97215" lon="2.2362">
        <ele>239</ele>
        <time>2020-08-25T09:22:08.514Z</time>
      </trkpt>
      <trkpt lat="43.97216" lon="2.23622">
        <ele>239</ele>
        <time>2020-08-25T09:22:09.514Z</time>
      </trkpt>
      <trkpt lat="43.97217" lon="2.23623">
        <ele>239</ele>
        <time>2020-08-25T09:22:10.514Z</time>
      </trkpt>
      <trkpt lat="43.97217" lon="2.23624">
        <ele>239</ele>
        <time>2020-08-25T09:22:11.514Z</time>
      </trkpt>
      <trkpt lat="43.97218" lon="2.23625">
        <ele>239</ele>
        <time>2020-08-25T09:22:12.514Z</time>
      </trkpt>
      <trkpt lat="43.97218" lon="2.23626">
        <ele>239</ele>
        <time>2020-08-25T09:22:13.514Z</time>
      </trkpt>
      <trkpt lat="43.97219" lon="2.23627">
        <ele>239</ele>
        <time>2020-08-25T09:22:14.514Z</time>
      </trkpt>
      <trkpt lat="43.9722" lon="2.23628">
        <ele>240</ele>
        <time>2020-08-25T09:22:15.514Z</time>
      </trkpt>
      <trkpt lat="43.9722" lon="2.23629">
        <ele>240</ele>
        <time>2020-08-25T09:22:16.514Z</time>
      </trkpt>
      <trkpt lat="43.97221" lon="2.23629">
        <ele>240</ele>
        <time>2020-08-25T09:22:17.514Z</time>
      </trkpt>
      <trkpt lat="43.97222" lon="2.2363">
        <ele>240</ele>
        <time>2020-08-25T09:22:18.514Z</time>
      </trkpt>
      <trkpt lat="43.97223" lon="2.23631">
        <ele>240</ele>
        <time>2020-08-25T09:22:19.514Z</time>
      </trkpt>
      <trkpt lat="43.97224" lon="2.23632">
        <ele>240</ele>
        <time>2020-08-25T09:22:20.514Z</time>
      </trkpt>
      <trkpt lat="43.97226" lon="2.23633">
        <ele>240</ele>
        <time>2020-08-25T09:22:21.514Z</time>
      </trkpt>
      <trkpt lat="43.97227" lon="2.23633">
        <ele>240</ele>
        <time>2020-08-25T09:22:22.514Z</time>
      </trkpt>
      <trkpt lat="43.97228" lon="2.23634">
        <ele>240</ele>
        <time>2020-08-25T09:22:23.514Z</time>
      </trkpt>
      <trkpt lat="43.97229" lon="2.23635">
        <ele>240</ele>
        <time>2020-08-25T09:22:24.514Z</time>
      </trkpt>
      <trkpt lat="43.9723" lon="2.23636">
        <ele>241</ele>
        <time>2020-08-25T09:22:25.514Z</time>
      </trkpt>
      <trkpt lat="43.97231" lon="2.23636">
        <ele>241</ele>
        <time>2020-08-25T09:22:26.514Z</time>
      </trkpt>
      <trkpt lat="43.97232" lon="2.23636">
        <ele>241</ele>
        <time>2020-08-25T09:22:27.514Z</time>
      </trkpt>
      <trkpt lat="43.97233" lon="2.23636">
        <ele>241</ele>
        <time>2020-08-25T09:22:28.514Z</time>
      </trkpt>
      <trkpt lat="43.97234" lon="2.23637">
        <ele>241</ele>
        <time>2020-08-25T09:22:29.514Z</time>
      </trkpt>
      <trkpt lat="43.97235" lon="2.23637">
        <ele>241</ele>
        <time>2020-08-25T09:22:30.514Z</time>
      </trkpt>
      <trkpt lat="43.97236" lon="2.23637">
        <ele>241</ele>
        <time>2020-08-25T09:22:31.514Z</time>
      </trkpt>
      <trkpt lat="43.97237" lon="2.23637">
        <ele>241</ele>
        <time>2020-08-25T09:22:32.514Z</time>
      </trkpt>
      <trkpt lat="43.97239" lon="2.23638">
        <ele>242</ele>
        <time>2020-08-25T09:22:33.514Z</time>
      </trkpt>
      <trkpt lat="43.9724" lon="2.23639">
        <ele>242</ele>
        <time>2020-08-25T09:22:34.514Z</time>
      </trkpt>
      <trkpt lat="43.97241" lon="2.23639">
        <ele>242</ele>
        <time>2020-08-25T09:22:35.514Z</time>
      </trkpt>
      <trkpt lat="43.97242" lon="2.2364">
        <ele>242</ele>
        <time>2020-08-25T09:22:36.514Z</time>
      </trkpt>
      <trkpt lat="43.97243" lon="2.2364">
        <ele>242</ele>
        <time>2020-08-25T09:22:37.514Z</time>
      </trkpt>
      <trkpt lat="43.97244" lon="2.23641">
        <ele>242</ele>
        <time>2020-08-25T09:22:38.514Z</time>
      </trkpt>
      <trkpt lat="43.97245" lon="2.23641">
        <ele>242</ele>
        <time>2020-08-25T09:22:39.514Z</time>
      </trkpt>
      <trkpt lat="43.97246" lon="2.23642">
        <ele>242</ele>
        <time>2020-08-25T09:22:40.514Z</time>
      </trkpt>
      <trkpt lat="43.97247" lon="2.23643">
        <ele>242</ele>
        <time>2020-08-25T09:22:41.514Z</time>
      </trkpt>
      <trkpt lat="43.97248" lon="2.23643">
        <ele>242</ele>
        <time>2020-08-25T09:22:42.514Z</time>
      </trkpt>
      <trkpt lat="43.97249" lon="2.23644">
        <ele>242</ele>
        <time>2020-08-25T09:22:43.514Z</time>
      </trkpt>
      <trkpt lat="43.9725" lon="2.23644">
        <ele>242</ele>
        <time>2020-08-25T09:22:44.514Z</time>
      </trkpt>
      <trkpt lat="43.9725" lon="2.23645">
        <ele>242</ele>
        <time>2020-08-25T09:22:45.514Z</time>
      </trkpt>
      <trkpt lat="43.97251" lon="2.23645">
        <ele>242</ele>
        <time>2020-08-25T09:22:46.514Z</time>
      </trkpt>
      <trkpt lat="43.97252" lon="2.23646">
        <ele>242</ele>
        <time>2020-08-25T09:22:47.514Z</time>
      </trkpt>
      <trkpt lat="43.97253" lon="2.23647">
        <ele>242</ele>
        <time>2020-08-25T09:22:48.514Z</time>
      </trkpt>
      <trkpt lat="43.97254" lon="2.23647">
        <ele>242</ele>
        <time>2020-08-25T09:22:49.514Z</time>
      </trkpt>
      <trkpt lat="43.97255" lon="2.23648">
        <ele>242</ele>
        <time>2020-08-25T09:22:50.514Z</time>
      </trkpt>
      <trkpt lat="43.97256" lon="2.23648">
        <ele>242</ele>
        <time>2020-08-25T09:22:51.514Z</time>
      </trkpt>
      <trkpt lat="43.97257" lon="2.23648">
        <ele>242</ele>
        <time>2020-08-25T09:22:52.514Z</time>
      </trkpt>
      <trkpt lat="43.97258" lon="2.23648">
        <ele>242</ele>
        <time>2020-08-25T09:22:53.514Z</time>
      </trkpt>
      <trkpt lat="43.97259" lon="2.23648">
        <ele>242</ele>
        <time>2020-08-25T09:22:54.514Z</time>
      </trkpt>
      <trkpt lat="43.9726" lon="2.23648">
        <ele>242</ele>
        <time>2020-08-25T09:22:55.514Z</time>
      </trkpt>
      <trkpt lat="43.97261" lon="2.23648">
        <ele>242</ele>
        <time>2020-08-25T09:22:56.514Z</time>
      </trkpt>
      <trkpt lat="43.97262" lon="2.23647">
        <ele>242</ele>
        <time>2020-08-25T09:22:57.514Z</time>
      </trkpt>
      <trkpt lat="43.97262" lon="2.23646">
        <ele>242</ele>
        <time>2020-08-25T09:22:58.514Z</time>
      </trkpt>
      <trkpt lat="43.97263" lon="2.23645">
        <ele>241</ele>
        <time>2020-08-25T09:22:59.514Z</time>
      </trkpt>
      <trkpt lat="43.97263" lon="2.23644">
        <ele>241</ele>
        <time>2020-08-25T09:23:00.514Z</time>
      </trkpt>
      <trkpt lat="43.97264" lon="2.23642">
        <ele>241</ele>
        <time>2020-08-25T09:23:01.514Z</time>
      </trkpt>
      <trkpt lat="43.97265" lon="2.23641">
        <ele>241</ele>
        <time>2020-08-25T09:23:02.514Z</time>
      </trkpt>
      <trkpt lat="43.97266" lon="2.23641">
        <ele>241</ele>
        <time>2020-08-25T09:23:03.514Z</time>
      </trkpt>
      <trkpt lat="43.97267" lon="2.2364">
        <ele>241</ele>
        <time>2020-08-25T09:23:04.514Z</time>
      </trkpt>
      <trkpt lat="43.97268" lon="2.2364">
        <ele>241</ele>
        <time>2020-08-25T09:23:05.514Z</time>
      </trkpt>
      <trkpt lat="43.97269" lon="2.2364">
        <ele>241</ele>
        <time>2020-08-25T09:23:06.514Z</time>
      </trkpt>
      <trkpt lat="43.9727" lon="2.23641">
        <ele>241</ele>
        <time>2020-08-25T09:23:07.514Z</time>
      </trkpt>
      <trkpt lat="43.97271" lon="2.23641">
        <ele>241</ele>
        <time>2020-08-25T09:23:08.514Z</time>
      </trkpt>
      <trkpt lat="43.97272" lon="2.23641">
        <ele>241</ele>
        <time>2020-08-25T09:23:09.514Z</time>
      </trkpt>
      <trkpt lat="43.97273" lon="2.23642">
        <ele>241</ele>
        <time>2020-08-25T09:23:10.514Z</time>
      </trkpt>
      <trkpt lat="43.97274" lon="2.23642">
        <ele>241</ele>
        <time>2020-08-25T09:23:11.514Z</time>
      </trkpt>
      <trkpt lat="43.97275" lon="2.23641">
        <ele>240</ele>
        <time>2020-08-25T09:23:12.514Z</time>
      </trkpt>
      <trkpt lat="43.97276" lon="2.23641">
        <ele>240</ele>
        <time>2020-08-25T09:23:13.514Z</time>
      </trkpt>
      <trkpt lat="43.97277" lon="2.2364">
        <ele>240</ele>
        <time>2020-08-25T09:23:14.514Z</time>
      </trkpt>
      <trkpt lat="43.97278" lon="2.23639">
        <ele>240</ele>
        <time>2020-08-25T09:23:15.514Z</time>
      </trkpt>
      <trkpt lat="43.97279" lon="2.23639">
        <ele>240</ele>
        <time>2020-08-25T09:23:16.514Z</time>
      </trkpt>
      <trkpt lat="43.9728" lon="2.23639">
        <ele>240</ele>
        <time>2020-08-25T09:23:17.514Z</time>
      </trkpt>
      <trkpt lat="43.97281" lon="2.2364">
        <ele>240</ele>
        <time>2020-08-25T09:23:18.514Z</time>
      </trkpt>
      <trkpt lat="43.97282" lon="2.23641">
        <ele>240</ele>
        <time>2020-08-25T09:23:19.514Z</time>
      </trkpt>
      <trkpt lat="43.97283" lon="2.23642">
        <ele>240</ele>
        <time>2020-08-25T09:23:20.514Z</time>
      </trkpt>
      <trkpt lat="43.97284" lon="2.23643">
        <ele>241</ele>
        <time>2020-08-25T09:23:21.514Z</time>
      </trkpt>
      <trkpt lat="43.97285" lon="2.23644">
        <ele>241</ele>
        <time>2020-08-25T09:23:22.514Z</time>
      </trkpt>
      <trkpt lat="43.97285" lon="2.23645">
        <ele>241</ele>
        <time>2020-08-25T09:23:23.514Z</time>
      </trkpt>
      <trkpt lat="43.97286" lon="2.23646">
        <ele>241</ele>
        <time>2020-08-25T09:23:24.514Z</time>
      </trkpt>
      <trkpt lat="43.97287" lon="2.23646">
        <ele>241</ele>
        <time>2020-08-25T09:23:25.514Z</time>
      </trkpt>
      <trkpt lat="43.97288" lon="2.23647">
        <ele>241</ele>
        <time>2020-08-25T09:23:26.514Z</time>
      </trkpt>
      <trkpt lat="43.97289" lon="2.23647">
        <ele>241</ele>
        <time>2020-08-25T09:23:27.514Z</time>
      </trkpt>
      <trkpt lat="43.9729" lon="2.23648">
        <ele>241</ele>
        <time>2020-08-25T09:23:28.514Z</time>
      </trkpt>
      <trkpt lat="43.97291" lon="2.23648">
        <ele>241</ele>
        <time>2020-08-25T09:23:29.514Z</time>
      </trkpt>
      <trkpt lat="43.97292" lon="2.23649">
        <ele>241</ele>
        <time>2020-08-25T09:23:30.514Z</time>
      </trkpt>
      <trkpt lat="43.97293" lon="2.2365">
        <ele>241</ele>
        <time>2020-08-25T09:23:31.514Z</time>
      </trkpt>
      <trkpt lat="43.97294" lon="2.23651">
        <ele>240</ele>
        <time>2020-08-25T09:23:32.514Z</time>
      </trkpt>
      <trkpt lat="43.97294" lon="2.23652">
        <ele>240</ele>
        <time>2020-08-25T09:23:33.514Z</time>
      </trkpt>
      <trkpt lat="43.97295" lon="2.23653">
        <ele>240</ele>
        <time>2020-08-25T09:23:34.514Z</time>
      </trkpt>
      <trkpt lat="43.97295" lon="2.23655">
        <ele>240</ele>
        <time>2020-08-25T09:23:35.514Z</time>
      </trkpt>
      <trkpt lat="43.97295" lon="2.23656">
        <ele>240</ele>
        <time>2020-08-25T09:23:36.514Z</time>
      </trkpt>
      <trkpt lat="43.97296" lon="2.23657">
        <ele>241</ele>
        <time>2020-08-25T09:23:37.514Z</time>
      </trkpt>
      <trkpt lat="43.97296" lon="2.23658">
        <ele>241</ele>
        <time>2020-08-25T09:23:38.514Z</time>
      </trkpt>
      <trkpt lat="43.97297" lon="2.23659">
        <ele>241</ele>
        <time>2020-08-25T09:23:39.514Z</time>
      </trkpt>
      <trkpt lat="43.97298" lon="2.2366">
        <ele>241</ele>
        <time>2020-08-25T09:23:40.514Z</time>
      </trkpt>
      <trkpt lat="43.97299" lon="2.23661">
        <ele>241</ele>
        <time>2020-08-25T09:23:41.514Z</time>
      </trkpt>
      <trkpt lat="43.973" lon="2.23661">
        <ele>240</ele>
        <time>2020-08-25T09:23:42.514Z</time>
      </trkpt>
      <trkpt lat="43.97301" lon="2.23662">
        <ele>240</ele>
        <time>2020-08-25T09:23:43.514Z</time>
      </trkpt>
      <trkpt lat="43.97302" lon="2.23662">
        <ele>240</ele>
        <time>2020-08-25T09:23:44.514Z</time>
      </trkpt>
      <trkpt lat="43.97303" lon="2.23663">
        <ele>241</ele>
        <time>2020-08-25T09:23:45.514Z</time>
      </trkpt>
      <trkpt lat="43.97304" lon="2.23664">
        <ele>241</ele>
        <time>2020-08-25T09:23:46.514Z</time>
      </trkpt>
      <trkpt lat="43.97305" lon="2.23665">
        <ele>241</ele>
        <time>2020-08-25T09:23:47.514Z</time>
      </trkpt>
      <trkpt lat="43.97306" lon="2.23665">
        <ele>241</ele>
        <time>2020-08-25T09:23:48.514Z</time>
      </trkpt>
      <trkpt lat="43.97307" lon="2.23666">
        <ele>241</ele>
        <time>2020-08-25T09:23:49.514Z</time>
      </trkpt>
      <trkpt lat="43.97308" lon="2.23667">
        <ele>241</ele>
        <time>2020-08-25T09:23:50.514Z</time>
      </trkpt>
      <trkpt lat="43.97308" lon="2.23668">
        <ele>241</ele>
        <time>2020-08-25T09:23:51.514Z</time>
      </trkpt>
      <trkpt lat="43.97309" lon="2.23669">
        <ele>241</ele>
        <time>2020-08-25T09:23:52.514Z</time>
      </trkpt>
      <trkpt lat="43.9731" lon="2.2367">
        <ele>241</ele>
        <time>2020-08-25T09:23:53.514Z</time>
      </trkpt>
      <trkpt lat="43.97311" lon="2.23671">
        <ele>241</ele>
        <time>2020-08-25T09:23:54.514Z</time>
      </trkpt>
      <trkpt lat="43.97312" lon="2.23672">
        <ele>241</ele>
        <time>2020-08-25T09:23:55.514Z</time>
      </trkpt>
      <trkpt lat="43.97313" lon="2.23672">
        <ele>241</ele>
        <time>2020-08-25T09:23:56.514Z</time>
      </trkpt>
      <trkpt lat="43.97314" lon="2.23673">
        <ele>241</ele>
        <time>2020-08-25T09:23:57.514Z</time>
      </trkpt>
      <trkpt lat="43.97315" lon="2.23674">
        <ele>241</ele>
        <time>2020-08-25T09:23:58.514Z</time>
      </trkpt>
      <trkpt lat="43.97316" lon="2.23674">
        <ele>241</ele>
        <time>2020-08-25T09:23:59.514Z</time>
      </trkpt>
      <trkpt lat="43.97317" lon="2.23675">
        <ele>241</ele>
        <time>2020-08-25T09:24:00.514Z</time>
      </trkpt>
      <trkpt lat="43.97317" lon="2.23677">
        <ele>241</ele>
        <time>2020-08-25T09:24:01.514Z</time>
      </trkpt>
      <trkpt lat="43.97317" lon="2.23678">
        <ele>241</ele>
        <time>2020-08-25T09:24:02.514Z</time>
      </trkpt>
      <trkpt lat="43.97317" lon="2.23678">
        <ele>241</ele>
        <time>2020-08-25T09:24:03.514Z</time>
      </trkpt>
      <trkpt lat="43.97317" lon="2.23679">
        <ele>241</ele>
        <time>2020-08-25T09:24:04.514Z</time>
      </trkpt>
      <trkpt lat="43.97317" lon="2.2368">
        <ele>241</ele>
        <time>2020-08-25T09:24:05.514Z</time>
      </trkpt>
      <trkpt lat="43.97316" lon="2.23681">
        <ele>241</ele>
        <time>2020-08-25T09:24:06.514Z</time>
      </trkpt>
      <trkpt lat="43.97316" lon="2.23682">
        <ele>241</ele>
        <time>2020-08-25T09:24:07.514Z</time>
      </trkpt>
      <trkpt lat="43.97316" lon="2.23683">
        <ele>241</ele>
        <time>2020-08-25T09:24:08.514Z</time>
      </trkpt>
      <trkpt lat="43.97316" lon="2.23684">
        <ele>241</ele>
        <time>2020-08-25T09:24:09.514Z</time>
      </trkpt>
      <trkpt lat="43.97316" lon="2.23686">
        <ele>241</ele>
        <time>2020-08-25T09:24:10.514Z</time>
      </trkpt>
      <trkpt lat="43.97316" lon="2.23687">
        <ele>241</ele>
        <time>2020-08-25T09:24:11.514Z</time>
      </trkpt>
      <trkpt lat="43.97317" lon="2.23688">
        <ele>241</ele>
        <time>2020-08-25T09:24:12.514Z</time>
      </trkpt>
      <trkpt lat="43.97317" lon="2.23689">
        <ele>241</ele>
        <time>2020-08-25T09:24:13.514Z</time>
      </trkpt>
      <trkpt lat="43.97317" lon="2.2369">
        <ele>241</ele>
        <time>2020-08-25T09:24:14.514Z</time>
      </trkpt>
      <trkpt lat="43.97318" lon="2.23691">
        <ele>241</ele>
        <time>2020-08-25T09:24:15.514Z</time>
      </trkpt>
      <trkpt lat="43.97319" lon="2.23692">
        <ele>241</ele>
        <time>2020-08-25T09:24:16.514Z</time>
      </trkpt>
      <trkpt lat="43.9732" lon="2.23692">
        <ele>241</ele>
        <time>2020-08-25T09:24:17.514Z</time>
      </trkpt>
      <trkpt lat="43.97321" lon="2.23693">
        <ele>241</ele>
        <time>2020-08-25T09:24:18.514Z</time>
      </trkpt>
      <trkpt lat="43.97322" lon="2.23693">
        <ele>241</ele>
        <time>2020-08-25T09:24:19.514Z</time>
      </trkpt>
      <trkpt lat="43.97323" lon="2.23694">
        <ele>241</ele>
        <time>2020-08-25T09:24:20.514Z</time>
      </trkpt>
      <trkpt lat="43.97324" lon="2.23695">
        <ele>241</ele>
        <time>2020-08-25T09:24:21.514Z</time>
      </trkpt>
      <trkpt lat="43.97325" lon="2.23696">
        <ele>241</ele>
        <time>2020-08-25T09:24:22.514Z</time>
      </trkpt>
      <trkpt lat="43.97325" lon="2.23697">
        <ele>241</ele>
        <time>2020-08-25T09:24:23.514Z</time>
      </trkpt>
      <trkpt lat="43.97325" lon="2.23699">
        <ele>241</ele>
        <time>2020-08-25T09:24:24.514Z</time>
      </trkpt>
      <trkpt lat="43.97326" lon="2.237">
        <ele>241</ele>
        <time>2020-08-25T09:24:25.514Z</time>
      </trkpt>
      <trkpt lat="43.97326" lon="2.23701">
        <ele>241</ele>
        <time>2020-08-25T09:24:26.514Z</time>
      </trkpt>
      <trkpt lat="43.97327" lon="2.23703">
        <ele>241</ele>
        <time>2020-08-25T09:24:27.514Z</time>
      </trkpt>
      <trkpt lat="43.97327" lon="2.23704">
        <ele>241</ele>
        <time>2020-08-25T09:24:28.514Z</time>
      </trkpt>
      <trkpt lat="43.97327" lon="2.23705">
        <ele>241</ele>
        <time>2020-08-25T09:24:29.514Z</time>
      </trkpt>
      <trkpt lat="43.97327" lon="2.23706">
        <ele>241</ele>
        <time>2020-08-25T09:24:30.514Z</time>
      </trkpt>
      <trkpt lat="43.97328" lon="2.23707">
        <ele>241</ele>
        <time>2020-08-25T09:24:31.514Z</time>
      </trkpt>
      <trkpt lat="43.97328" lon="2.23709">
        <ele>241</ele>
        <time>2020-08-25T09:24:32.514Z</time>
      </trkpt>
      <trkpt lat="43.97329" lon="2.2371">
        <ele>241</ele>
        <time>2020-08-25T09:24:33.514Z</time>
      </trkpt>
      <trkpt lat="43.97329" lon="2.23711">
        <ele>242</ele>
        <time>2020-08-25T09:24:34.514Z</time>
      </trkpt>
      <trkpt lat="43.9733" lon="2.23712">
        <ele>241</ele>
        <time>2020-08-25T09:24:35.514Z</time>
      </trkpt>
      <trkpt lat="43.97331" lon="2.23713">
        <ele>241</ele>
        <time>2020-08-25T09:24:36.514Z</time>
      </trkpt>
      <trkpt lat="43.97331" lon="2.23714">
        <ele>242</ele>
        <time>2020-08-25T09:24:37.514Z</time>
      </trkpt>
      <trkpt lat="43.97332" lon="2.23714">
        <ele>242</ele>
        <time>2020-08-25T09:24:38.514Z</time>
      </trkpt>
      <trkpt lat="43.97333" lon="2.23715">
        <ele>242</ele>
        <time>2020-08-25T09:24:39.514Z</time>
      </trkpt>
      <trkpt lat="43.97334" lon="2.23715">
        <ele>242</ele>
        <time>2020-08-25T09:24:40.514Z</time>
      </trkpt>
      <trkpt lat="43.97335" lon="2.23716">
        <ele>242</ele>
        <time>2020-08-25T09:24:41.514Z</time>
      </trkpt>
      <trkpt lat="43.97336" lon="2.23717">
        <ele>242</ele>
        <time>2020-08-25T09:24:42.514Z</time>
      </trkpt>
      <trkpt lat="43.97337" lon="2.23717">
        <ele>242</ele>
        <time>2020-08-25T09:24:43.514Z</time>
      </trkpt>
      <trkpt lat="43.97338" lon="2.23718">
        <ele>242</ele>
        <time>2020-08-25T09:24:44.514Z</time>
      </trkpt>
      <trkpt lat="43.97338" lon="2.23719">
        <ele>241</ele>
        <time>2020-08-25T09:24:45.514Z</time>
      </trkpt>
      <trkpt lat="43.97339" lon="2.2372">
        <ele>241</ele>
        <time>2020-08-25T09:24:46.514Z</time>
      </trkpt>
      <trkpt lat="43.9734" lon="2.23721">
        <ele>241</ele>
        <time>2020-08-25T09:24:47.514Z</time>
      </trkpt>
      <trkpt lat="43.97341" lon="2.23722">
        <ele>241</ele>
        <time>2020-08-25T09:24:48.514Z</time>
      </trkpt>
      <trkpt lat="43.97341" lon="2.23723">
        <ele>241</ele>
        <time>2020-08-25T09:24:49.514Z</time>
      </trkpt>
      <trkpt lat="43.97342" lon="2.23724">
        <ele>241</ele>
        <time>2020-08-25T09:24:50.514Z</time>
      </trkpt>
      <trkpt lat="43.97343" lon="2.23725">
        <ele>241</ele>
        <time>2020-08-25T09:24:51.514Z</time>
      </trkpt>
      <trkpt lat="43.97343" lon="2.23727">
        <ele>241</ele>
        <time>2020-08-25T09:24:52.514Z</time>
      </trkpt>
      <trkpt lat="43.97344" lon="2.23728">
        <ele>241</ele>
        <time>2020-08-25T09:24:53.514Z</time>
      </trkpt>
      <trkpt lat="43.97345" lon="2.23729">
        <ele>242</ele>
        <time>2020-08-25T09:24:54.514Z</time>
      </trkpt>
      <trkpt lat="43.97345" lon="2.2373">
        <ele>242</ele>
        <time>2020-08-25T09:24:55.514Z</time>
      </trkpt>
      <trkpt lat="43.97345" lon="2.23732">
        <ele>242</ele>
        <time>2020-08-25T09:24:56.514Z</time>
      </trkpt>
      <trkpt lat="43.97346" lon="2.23733">
        <ele>242</ele>
        <time>2020-08-25T09:24:57.514Z</time>
      </trkpt>
      <trkpt lat="43.97346" lon="2.23734">
        <ele>242</ele>
        <time>2020-08-25T09:24:58.514Z</time>
      </trkpt>
      <trkpt lat="43.97347" lon="2.23735">
        <ele>242</ele>
        <time>2020-08-25T09:24:59.514Z</time>
      </trkpt>
      <trkpt lat="43.97347" lon="2.23736">
        <ele>242</ele>
        <time>2020-08-25T09:25:00.514Z</time>
      </trkpt>
      <trkpt lat="43.97348" lon="2.23737">
        <ele>242</ele>
        <time>2020-08-25T09:25:01.514Z</time>
      </trkpt>
      <trkpt lat="43.97348" lon="2.23738">
        <ele>242</ele>
        <time>2020-08-25T09:25:02.514Z</time>
      </trkpt>
      <trkpt lat="43.97348" lon="2.23739">
        <ele>242</ele>
        <time>2020-08-25T09:25:03.514Z</time>
      </trkpt>
      <trkpt lat="43.97348" lon="2.2374">
        <ele>242</ele>
        <time>2020-08-25T09:25:04.514Z</time>
      </trkpt>
      <trkpt lat="43.97349" lon="2.23741">
        <ele>242</ele>
        <time>2020-08-25T09:25:05.514Z</time>
      </trkpt>
      <trkpt lat="43.97349" lon="2.23742">
        <ele>242</ele>
        <time>2020-08-25T09:25:06.514Z</time>
      </trkpt>
      <trkpt lat="43.97349" lon="2.23743">
        <ele>242</ele>
        <time>2020-08-25T09:25:07.514Z</time>
      </trkpt>
      <trkpt lat="43.9735" lon="2.23744">
        <ele>242</ele>
        <time>2020-08-25T09:25:08.514Z</time>
      </trkpt>
      <trkpt lat="43.9735" lon="2.23745">
        <ele>242</ele>
        <time>2020-08-25T09:25:09.514Z</time>
      </trkpt>
      <trkpt lat="43.9735" lon="2.23745">
        <ele>242</ele>
        <time>2020-08-25T09:25:10.514Z</time>
      </trkpt>
      <trkpt lat="43.9735" lon="2.23745">
        <ele>242</ele>
        <time>2020-08-25T09:25:11.514Z</time>
      </trkpt>
      <trkpt lat="43.97351" lon="2.23746">
        <ele>242</ele>
        <time>2020-08-25T09:25:24.623Z</time>
      </trkpt>
      <trkpt lat="43.97352" lon="2.23747">
        <ele>242</ele>
        <time>2020-08-25T09:25:25.623Z</time>
      </trkpt>
      <trkpt lat="43.97352" lon="2.23748">
        <ele>242</ele>
        <time>2020-08-25T09:25:26.623Z</time>
      </trkpt>
      <trkpt lat="43.97352" lon="2.23748">
        <ele>243</ele>
        <time>2020-08-25T09:25:27.623Z</time>
      </trkpt>
      <trkpt lat="43.97352" lon="2.23748">
        <ele>243</ele>
        <time>2020-08-25T09:25:28.623Z</time>
      </trkpt>
      <trkpt lat="43.97352" lon="2.23748">
        <ele>243</ele>
        <time>2020-08-25T09:25:29.623Z</time>
      </trkpt>
      <trkpt lat="43.97352" lon="2.23748">
        <ele>243</ele>
        <time>2020-08-25T09:25:30.623Z</time>
      </trkpt>
      <trkpt lat="43.97352" lon="2.23748">
        <ele>243</ele>
        <time>2020-08-25T09:25:31.623Z</time>
      </trkpt>
      <trkpt lat="43.97352" lon="2.23748">
        <ele>244</ele>
        <time>2020-08-25T09:26:07.522Z</time>
      </trkpt>
      <trkpt lat="43.97353" lon="2.23749">
        <ele>244</ele>
        <time>2020-08-25T09:26:08.522Z</time>
      </trkpt>
      <trkpt lat="43.97354" lon="2.2375">
        <ele>244</ele>
        <time>2020-08-25T09:26:09.522Z</time>
      </trkpt>
      <trkpt lat="43.97355" lon="2.23751">
        <ele>244</ele>
        <time>2020-08-25T09:26:10.522Z</time>
      </trkpt>
      <trkpt lat="43.97356" lon="2.23752">
        <ele>244</ele>
        <time>2020-08-25T09:26:11.522Z</time>
      </trkpt>
      <trkpt lat="43.97357" lon="2.23753">
        <ele>244</ele>
        <time>2020-08-25T09:26:12.522Z</time>
      </trkpt>
      <trkpt lat="43.97358" lon="2.23753">
        <ele>244</ele>
        <time>2020-08-25T09:26:13.522Z</time>
      </trkpt>
      <trkpt lat="43.97359" lon="2.23754">
        <ele>244</ele>
        <time>2020-08-25T09:26:14.522Z</time>
      </trkpt>
      <trkpt lat="43.9736" lon="2.23754">
        <ele>244</ele>
        <time>2020-08-25T09:26:15.522Z</time>
      </trkpt>
      <trkpt lat="43.97361" lon="2.23754">
        <ele>244</ele>
        <time>2020-08-25T09:26:16.522Z</time>
      </trkpt>
      <trkpt lat="43.97363" lon="2.23754">
        <ele>244</ele>
        <time>2020-08-25T09:26:17.522Z</time>
      </trkpt>
      <trkpt lat="43.97364" lon="2.23754">
        <ele>244</ele>
        <time>2020-08-25T09:26:18.522Z</time>
      </trkpt>
      <trkpt lat="43.97365" lon="2.23754">
        <ele>244</ele>
        <time>2020-08-25T09:26:19.522Z</time>
      </trkpt>
      <trkpt lat="43.97366" lon="2.23754">
        <ele>244</ele>
        <time>2020-08-25T09:26:20.522Z</time>
      </trkpt>
      <trkpt lat="43.97367" lon="2.23754">
        <ele>244</ele>
        <time>2020-08-25T09:26:21.522Z</time>
      </trkpt>
      <trkpt lat="43.97368" lon="2.23755">
        <ele>244</ele>
        <time>2020-08-25T09:26:22.522Z</time>
      </trkpt>
      <trkpt lat="43.97369" lon="2.23755">
        <ele>245</ele>
        <time>2020-08-25T09:26:23.522Z</time>
      </trkpt>
      <trkpt lat="43.9737" lon="2.23756">
        <ele>245</ele>
        <time>2020-08-25T09:26:24.522Z</time>
      </trkpt>
      <trkpt lat="43.97371" lon="2.23756">
        <ele>245</ele>
        <time>2020-08-25T09:26:25.522Z</time>
      </trkpt>
      <trkpt lat="43.97372" lon="2.23757">
        <ele>245</ele>
        <time>2020-08-25T09:26:26.522Z</time>
      </trkpt>
      <trkpt lat="43.97373" lon="2.23757">
        <ele>245</ele>
        <time>2020-08-25T09:26:27.522Z</time>
      </trkpt>
      <trkpt lat="43.97374" lon="2.23758">
        <ele>245</ele>
        <time>2020-08-25T09:26:28.522Z</time>
      </trkpt>
      <trkpt lat="43.97375" lon="2.23759">
        <ele>245</ele>
        <time>2020-08-25T09:26:29.522Z</time>
      </trkpt>
      <trkpt lat="43.97376" lon="2.23759">
        <ele>245</ele>
        <time>2020-08-25T09:26:30.522Z</time>
      </trkpt>
      <trkpt lat="43.97377" lon="2.23759">
        <ele>245</ele>
        <time>2020-08-25T09:26:31.522Z</time>
      </trkpt>
      <trkpt lat="43.97378" lon="2.23759">
        <ele>245</ele>
        <time>2020-08-25T09:26:32.522Z</time>
      </trkpt>
      <trkpt lat="43.97379" lon="2.23759">
        <ele>245</ele>
        <time>2020-08-25T09:26:33.522Z</time>
      </trkpt>
      <trkpt lat="43.9738" lon="2.23759">
        <ele>245</ele>
        <time>2020-08-25T09:26:34.522Z</time>
      </trkpt>
      <trkpt lat="43.9738" lon="2.2376">
        <ele>245</ele>
        <time>2020-08-25T09:26:35.522Z</time>
      </trkpt>
      <trkpt lat="43.97381" lon="2.2376">
        <ele>246</ele>
        <time>2020-08-25T09:26:36.522Z</time>
      </trkpt>
      <trkpt lat="43.97382" lon="2.23761">
        <ele>246</ele>
        <time>2020-08-25T09:26:37.522Z</time>
      </trkpt>
      <trkpt lat="43.97383" lon="2.23761">
        <ele>246</ele>
        <time>2020-08-25T09:26:38.522Z</time>
      </trkpt>
      <trkpt lat="43.97384" lon="2.23761">
        <ele>246</ele>
        <time>2020-08-25T09:26:39.522Z</time>
      </trkpt>
      <trkpt lat="43.97385" lon="2.23761">
        <ele>246</ele>
        <time>2020-08-25T09:26:40.522Z</time>
      </trkpt>
      <trkpt lat="43.97386" lon="2.23761">
        <ele>246</ele>
        <time>2020-08-25T09:26:41.522Z</time>
      </trkpt>
      <trkpt lat="43.97388" lon="2.23761">
        <ele>246</ele>
        <time>2020-08-25T09:26:42.522Z</time>
      </trkpt>
      <trkpt lat="43.97389" lon="2.2376">
        <ele>246</ele>
        <time>2020-08-25T09:26:43.522Z</time>
      </trkpt>
      <trkpt lat="43.97389" lon="2.2376">
        <ele>246</ele>
        <time>2020-08-25T09:26:44.522Z</time>
      </trkpt>
      <trkpt lat="43.9739" lon="2.23759">
        <ele>246</ele>
        <time>2020-08-25T09:26:45.522Z</time>
      </trkpt>
      <trkpt lat="43.97392" lon="2.23759">
        <ele>246</ele>
        <time>2020-08-25T09:26:46.522Z</time>
      </trkpt>
      <trkpt lat="43.97393" lon="2.23758">
        <ele>246</ele>
        <time>2020-08-25T09:26:47.522Z</time>
      </trkpt>
      <trkpt lat="43.97394" lon="2.23758">
        <ele>246</ele>
        <time>2020-08-25T09:26:48.522Z</time>
      </trkpt>
      <trkpt lat="43.97395" lon="2.23758">
        <ele>246</ele>
        <time>2020-08-25T09:26:49.522Z</time>
      </trkpt>
      <trkpt lat="43.97397" lon="2.23757">
        <ele>246</ele>
        <time>2020-08-25T09:26:50.522Z</time>
      </trkpt>
      <trkpt lat="43.97398" lon="2.23756">
        <ele>246</ele>
        <time>2020-08-25T09:26:51.522Z</time>
      </trkpt>
      <trkpt lat="43.97399" lon="2.23755">
        <ele>246</ele>
        <time>2020-08-25T09:26:52.522Z</time>
      </trkpt>
      <trkpt lat="43.974" lon="2.23755">
        <ele>246</ele>
        <time>2020-08-25T09:26:53.522Z</time>
      </trkpt>
      <trkpt lat="43.97401" lon="2.23754">
        <ele>246</ele>
        <time>2020-08-25T09:26:54.522Z</time>
      </trkpt>
      <trkpt lat="43.97402" lon="2.23753">
        <ele>246</ele>
        <time>2020-08-25T09:26:55.522Z</time>
      </trkpt>
      <trkpt lat="43.97402" lon="2.23751">
        <ele>246</ele>
        <time>2020-08-25T09:26:56.522Z</time>
      </trkpt>
      <trkpt lat="43.97403" lon="2.2375">
        <ele>246</ele>
        <time>2020-08-25T09:26:57.522Z</time>
      </trkpt>
      <trkpt lat="43.97404" lon="2.23749">
        <ele>246</ele>
        <time>2020-08-25T09:26:58.522Z</time>
      </trkpt>
      <trkpt lat="43.97405" lon="2.23748">
        <ele>246</ele>
        <time>2020-08-25T09:26:59.522Z</time>
      </trkpt>
      <trkpt lat="43.97406" lon="2.23747">
        <ele>246</ele>
        <time>2020-08-25T09:27:00.522Z</time>
      </trkpt>
      <trkpt lat="43.97407" lon="2.23745">
        <ele>246</ele>
        <time>2020-08-25T09:27:01.522Z</time>
      </trkpt>
      <trkpt lat="43.97407" lon="2.23745">
        <ele>246</ele>
        <time>2020-08-25T09:27:02.522Z</time>
      </trkpt>
      <trkpt lat="43.97408" lon="2.23744">
        <ele>246</ele>
        <time>2020-08-25T09:27:03.522Z</time>
      </trkpt>
      <trkpt lat="43.97409" lon="2.23743">
        <ele>246</ele>
        <time>2020-08-25T09:27:04.522Z</time>
      </trkpt>
      <trkpt lat="43.9741" lon="2.23742">
        <ele>246</ele>
        <time>2020-08-25T09:27:05.522Z</time>
      </trkpt>
      <trkpt lat="43.97411" lon="2.23741">
        <ele>246</ele>
        <time>2020-08-25T09:27:06.522Z</time>
      </trkpt>
      <trkpt lat="43.97412" lon="2.23741">
        <ele>246</ele>
        <time>2020-08-25T09:27:07.522Z</time>
      </trkpt>
      <trkpt lat="43.97413" lon="2.23741">
        <ele>246</ele>
        <time>2020-08-25T09:27:08.522Z</time>
      </trkpt>
      <trkpt lat="43.97414" lon="2.23742">
        <ele>246</ele>
        <time>2020-08-25T09:27:09.522Z</time>
      </trkpt>
      <trkpt lat="43.97416" lon="2.23742">
        <ele>246</ele>
        <time>2020-08-25T09:27:10.522Z</time>
      </trkpt>
      <trkpt lat="43.97416" lon="2.23742">
        <ele>246</ele>
        <time>2020-08-25T09:27:11.522Z</time>
      </trkpt>
      <trkpt lat="43.97417" lon="2.23742">
        <ele>246</ele>
        <time>2020-08-25T09:27:12.522Z</time>
      </trkpt>
      <trkpt lat="43.97418" lon="2.23742">
        <ele>246</ele>
        <time>2020-08-25T09:27:13.522Z</time>
      </trkpt>
      <trkpt lat="43.97419" lon="2.23742">
        <ele>246</ele>
        <time>2020-08-25T09:27:14.522Z</time>
      </trkpt>
      <trkpt lat="43.9742" lon="2.23742">
        <ele>246</ele>
        <time>2020-08-25T09:27:15.522Z</time>
      </trkpt>
      <trkpt lat="43.97421" lon="2.23742">
        <ele>246</ele>
        <time>2020-08-25T09:27:16.522Z</time>
      </trkpt>
      <trkpt lat="43.97422" lon="2.23741">
        <ele>246</ele>
        <time>2020-08-25T09:27:17.522Z</time>
      </trkpt>
      <trkpt lat="43.97423" lon="2.23741">
        <ele>246</ele>
        <time>2020-08-25T09:27:18.522Z</time>
      </trkpt>
      <trkpt lat="43.97424" lon="2.23741">
        <ele>246</ele>
        <time>2020-08-25T09:27:19.522Z</time>
      </trkpt>
      <trkpt lat="43.97425" lon="2.23741">
        <ele>246</ele>
        <time>2020-08-25T09:27:20.522Z</time>
      </trkpt>
      <trkpt lat="43.97426" lon="2.2374">
        <ele>246</ele>
        <time>2020-08-25T09:27:21.522Z</time>
      </trkpt>
      <trkpt lat="43.97427" lon="2.2374">
        <ele>246</ele>
        <time>2020-08-25T09:27:22.522Z</time>
      </trkpt>
      <trkpt lat="43.97428" lon="2.2374">
        <ele>246</ele>
        <time>2020-08-25T09:27:23.522Z</time>
      </trkpt>
      <trkpt lat="43.97429" lon="2.2374">
        <ele>246</ele>
        <time>2020-08-25T09:27:24.522Z</time>
      </trkpt>
      <trkpt lat="43.9743" lon="2.2374">
        <ele>246</ele>
        <time>2020-08-25T09:27:25.522Z</time>
      </trkpt>
      <trkpt lat="43.97431" lon="2.23741">
        <ele>246</ele>
        <time>2020-08-25T09:27:26.522Z</time>
      </trkpt>
      <trkpt lat="43.97433" lon="2.23742">
        <ele>246</ele>
        <time>2020-08-25T09:27:27.522Z</time>
      </trkpt>
      <trkpt lat="43.97434" lon="2.23743">
        <ele>246</ele>
        <time>2020-08-25T09:27:28.522Z</time>
      </trkpt>
      <trkpt lat="43.97435" lon="2.23744">
        <ele>246</ele>
        <time>2020-08-25T09:27:29.522Z</time>
      </trkpt>
      <trkpt lat="43.97436" lon="2.23746">
        <ele>246</ele>
        <time>2020-08-25T09:27:30.522Z</time>
      </trkpt>
      <trkpt lat="43.97437" lon="2.23747">
        <ele>246</ele>
        <time>2020-08-25T09:27:31.522Z</time>
      </trkpt>
      <trkpt lat="43.97438" lon="2.23749">
        <ele>246</ele>
        <time>2020-08-25T09:27:32.522Z</time>
      </trkpt>
      <trkpt lat="43.97439" lon="2.2375">
        <ele>247</ele>
        <time>2020-08-25T09:27:33.522Z</time>
      </trkpt>
      <trkpt lat="43.97439" lon="2.23752">
        <ele>247</ele>
        <time>2020-08-25T09:27:34.522Z</time>
      </trkpt>
      <trkpt lat="43.9744" lon="2.23753">
        <ele>247</ele>
        <time>2020-08-25T09:27:35.522Z</time>
      </trkpt>
      <trkpt lat="43.97441" lon="2.23755">
        <ele>247</ele>
        <time>2020-08-25T09:27:36.522Z</time>
      </trkpt>
      <trkpt lat="43.97441" lon="2.23755">
        <ele>247</ele>
        <time>2020-08-25T09:27:37.522Z</time>
      </trkpt>
      <trkpt lat="43.97443" lon="2.23756">
        <ele>247</ele>
        <time>2020-08-25T09:27:38.522Z</time>
      </trkpt>
      <trkpt lat="43.97443" lon="2.23756">
        <ele>247</ele>
        <time>2020-08-25T09:27:39.522Z</time>
      </trkpt>
      <trkpt lat="43.97444" lon="2.23756">
        <ele>247</ele>
        <time>2020-08-25T09:27:40.522Z</time>
      </trkpt>
      <trkpt lat="43.97445" lon="2.23755">
        <ele>247</ele>
        <time>2020-08-25T09:27:41.522Z</time>
      </trkpt>
      <trkpt lat="43.97446" lon="2.23755">
        <ele>247</ele>
        <time>2020-08-25T09:27:42.522Z</time>
      </trkpt>
      <trkpt lat="43.97447" lon="2.23754">
        <ele>247</ele>
        <time>2020-08-25T09:27:43.522Z</time>
      </trkpt>
      <trkpt lat="43.97448" lon="2.23754">
        <ele>248</ele>
        <time>2020-08-25T09:27:44.522Z</time>
      </trkpt>
      <trkpt lat="43.97449" lon="2.23754">
        <ele>248</ele>
        <time>2020-08-25T09:27:45.522Z</time>
      </trkpt>
      <trkpt lat="43.9745" lon="2.23754">
        <ele>248</ele>
        <time>2020-08-25T09:27:46.522Z</time>
      </trkpt>
      <trkpt lat="43.97451" lon="2.23755">
        <ele>248</ele>
        <time>2020-08-25T09:27:47.522Z</time>
      </trkpt>
      <trkpt lat="43.97452" lon="2.23756">
        <ele>248</ele>
        <time>2020-08-25T09:27:48.522Z</time>
      </trkpt>
      <trkpt lat="43.97452" lon="2.23757">
        <ele>248</ele>
        <time>2020-08-25T09:27:49.522Z</time>
      </trkpt>
      <trkpt lat="43.97453" lon="2.23757">
        <ele>248</ele>
        <time>2020-08-25T09:27:50.522Z</time>
      </trkpt>
      <trkpt lat="43.97454" lon="2.23758">
        <ele>248</ele>
        <time>2020-08-25T09:27:51.522Z</time>
      </trkpt>
      <trkpt lat="43.97456" lon="2.23759">
        <ele>248</ele>
        <time>2020-08-25T09:27:52.522Z</time>
      </trkpt>
      <trkpt lat="43.97457" lon="2.2376">
        <ele>248</ele>
        <time>2020-08-25T09:27:53.522Z</time>
      </trkpt>
      <trkpt lat="43.97458" lon="2.2376">
        <ele>248</ele>
        <time>2020-08-25T09:27:54.522Z</time>
      </trkpt>
      <trkpt lat="43.97459" lon="2.23761">
        <ele>249</ele>
        <time>2020-08-25T09:27:55.522Z</time>
      </trkpt>
      <trkpt lat="43.9746" lon="2.23761">
        <ele>249</ele>
        <time>2020-08-25T09:27:56.522Z</time>
      </trkpt>
      <trkpt lat="43.97461" lon="2.23761">
        <ele>249</ele>
        <time>2020-08-25T09:27:57.522Z</time>
      </trkpt>
      <trkpt lat="43.97462" lon="2.23761">
        <ele>249</ele>
        <time>2020-08-25T09:27:58.522Z</time>
      </trkpt>
      <trkpt lat="43.97464" lon="2.23762">
        <ele>249</ele>
        <time>2020-08-25T09:27:59.522Z</time>
      </trkpt>
      <trkpt lat="43.97465" lon="2.23762">
        <ele>249</ele>
        <time>2020-08-25T09:28:00.522Z</time>
      </trkpt>
      <trkpt lat="43.97466" lon="2.23762">
        <ele>249</ele>
        <time>2020-08-25T09:28:01.522Z</time>
      </trkpt>
      <trkpt lat="43.97467" lon="2.23762">
        <ele>250</ele>
        <time>2020-08-25T09:28:02.522Z</time>
      </trkpt>
      <trkpt lat="43.97468" lon="2.23763">
        <ele>250</ele>
        <time>2020-08-25T09:28:03.522Z</time>
      </trkpt>
      <trkpt lat="43.97468" lon="2.23763">
        <ele>250</ele>
        <time>2020-08-25T09:28:04.522Z</time>
      </trkpt>
      <trkpt lat="43.9747" lon="2.23764">
        <ele>250</ele>
        <time>2020-08-25T09:28:05.522Z</time>
      </trkpt>
      <trkpt lat="43.97471" lon="2.23764">
        <ele>250</ele>
        <time>2020-08-25T09:28:06.522Z</time>
      </trkpt>
      <trkpt lat="43.97472" lon="2.23765">
        <ele>250</ele>
        <time>2020-08-25T09:28:07.522Z</time>
      </trkpt>
      <trkpt lat="43.97473" lon="2.23766">
        <ele>250</ele>
        <time>2020-08-25T09:28:08.522Z</time>
      </trkpt>
      <trkpt lat="43.97474" lon="2.23767">
        <ele>250</ele>
        <time>2020-08-25T09:28:09.522Z</time>
      </trkpt>
      <trkpt lat="43.97475" lon="2.23768">
        <ele>251</ele>
        <time>2020-08-25T09:28:10.522Z</time>
      </trkpt>
      <trkpt lat="43.97476" lon="2.2377">
        <ele>251</ele>
        <time>2020-08-25T09:28:11.522Z</time>
      </trkpt>
      <trkpt lat="43.97477" lon="2.23771">
        <ele>251</ele>
        <time>2020-08-25T09:28:12.522Z</time>
      </trkpt>
      <trkpt lat="43.97478" lon="2.23772">
        <ele>251</ele>
        <time>2020-08-25T09:28:13.522Z</time>
      </trkpt>
      <trkpt lat="43.97479" lon="2.23773">
        <ele>251</ele>
        <time>2020-08-25T09:28:14.522Z</time>
      </trkpt>
      <trkpt lat="43.9748" lon="2.23773">
        <ele>251</ele>
        <time>2020-08-25T09:28:15.522Z</time>
      </trkpt>
      <trkpt lat="43.97481" lon="2.23774">
        <ele>251</ele>
        <time>2020-08-25T09:28:16.522Z</time>
      </trkpt>
      <trkpt lat="43.97483" lon="2.23774">
        <ele>251</ele>
        <time>2020-08-25T09:28:17.522Z</time>
      </trkpt>
      <trkpt lat="43.97484" lon="2.23775">
        <ele>251</ele>
        <time>2020-08-25T09:28:18.522Z</time>
      </trkpt>
      <trkpt lat="43.97485" lon="2.23776">
        <ele>251</ele>
        <time>2020-08-25T09:28:19.522Z</time>
      </trkpt>
      <trkpt lat="43.97486" lon="2.23777">
        <ele>251</ele>
        <time>2020-08-25T09:28:20.522Z</time>
      </trkpt>
      <trkpt lat="43.97487" lon="2.23778">
        <ele>251</ele>
        <time>2020-08-25T09:28:21.522Z</time>
      </trkpt>
      <trkpt lat="43.97488" lon="2.23779">
        <ele>251</ele>
        <time>2020-08-25T09:28:22.522Z</time>
      </trkpt>
      <trkpt lat="43.97489" lon="2.2378">
        <ele>251</ele>
        <time>2020-08-25T09:28:23.522Z</time>
      </trkpt>
      <trkpt lat="43.9749" lon="2.23781">
        <ele>251</ele>
        <time>2020-08-25T09:28:24.522Z</time>
      </trkpt>
      <trkpt lat="43.9749" lon="2.23782">
        <ele>251</ele>
        <time>2020-08-25T09:28:25.522Z</time>
      </trkpt>
      <trkpt lat="43.97491" lon="2.23783">
        <ele>251</ele>
        <time>2020-08-25T09:28:26.522Z</time>
      </trkpt>
      <trkpt lat="43.97492" lon="2.23784">
        <ele>251</ele>
        <time>2020-08-25T09:28:27.522Z</time>
      </trkpt>
      <trkpt lat="43.97493" lon="2.23785">
        <ele>251</ele>
        <time>2020-08-25T09:28:28.522Z</time>
      </trkpt>
      <trkpt lat="43.97494" lon="2.23786">
        <ele>251</ele>
        <time>2020-08-25T09:28:29.522Z</time>
      </trkpt>
      <trkpt lat="43.97494" lon="2.23786">
        <ele>251</ele>
        <time>2020-08-25T09:28:30.522Z</time>
      </trkpt>
      <trkpt lat="43.97495" lon="2.23785">
        <ele>251</ele>
        <time>2020-08-25T09:28:31.522Z</time>
      </trkpt>
      <trkpt lat="43.97496" lon="2.23785">
        <ele>251</ele>
        <time>2020-08-25T09:28:32.522Z</time>
      </trkpt>
      <trkpt lat="43.97497" lon="2.23784">
        <ele>251</ele>
        <time>2020-08-25T09:28:33.522Z</time>
      </trkpt>
      <trkpt lat="43.97498" lon="2.23784">
        <ele>251</ele>
        <time>2020-08-25T09:28:34.522Z</time>
      </trkpt>
      <trkpt lat="43.97499" lon="2.23783">
        <ele>251</ele>
        <time>2020-08-25T09:28:35.522Z</time>
      </trkpt>
      <trkpt lat="43.975" lon="2.23783">
        <ele>251</ele>
        <time>2020-08-25T09:28:36.522Z</time>
      </trkpt>
      <trkpt lat="43.975" lon="2.23783">
        <ele>251</ele>
        <time>2020-08-25T09:28:37.522Z</time>
      </trkpt>
      <trkpt lat="43.97501" lon="2.23782">
        <ele>250</ele>
        <time>2020-08-25T09:28:38.522Z</time>
      </trkpt>
      <trkpt lat="43.97502" lon="2.23782">
        <ele>250</ele>
        <time>2020-08-25T09:28:39.522Z</time>
      </trkpt>
      <trkpt lat="43.97502" lon="2.23781">
        <ele>250</ele>
        <time>2020-08-25T09:28:40.522Z</time>
      </trkpt>
      <trkpt lat="43.97503" lon="2.2378">
        <ele>250</ele>
        <time>2020-08-25T09:28:41.522Z</time>
      </trkpt>
      <trkpt lat="43.97504" lon="2.2378">
        <ele>250</ele>
        <time>2020-08-25T09:28:42.522Z</time>
      </trkpt>
      <trkpt lat="43.97505" lon="2.2378">
        <ele>250</ele>
        <time>2020-08-25T09:28:43.522Z</time>
      </trkpt>
      <trkpt lat="43.97505" lon="2.23781">
        <ele>250</ele>
        <time>2020-08-25T09:28:44.522Z</time>
      </trkpt>
      <trkpt lat="43.97506" lon="2.23782">
        <ele>251</ele>
        <time>2020-08-25T09:28:45.522Z</time>
      </trkpt>
      <trkpt lat="43.97508" lon="2.23782">
        <ele>251</ele>
        <time>2020-08-25T09:28:46.522Z</time>
      </trkpt>
      <trkpt lat="43.97509" lon="2.23783">
        <ele>251</ele>
        <time>2020-08-25T09:28:47.522Z</time>
      </trkpt>
      <trkpt lat="43.9751" lon="2.23783">
        <ele>251</ele>
        <time>2020-08-25T09:28:48.522Z</time>
      </trkpt>
      <trkpt lat="43.97511" lon="2.23784">
        <ele>251</ele>
        <time>2020-08-25T09:28:49.522Z</time>
      </trkpt>
      <trkpt lat="43.97512" lon="2.23785">
        <ele>251</ele>
        <time>2020-08-25T09:28:50.522Z</time>
      </trkpt>
      <trkpt lat="43.97513" lon="2.23786">
        <ele>251</ele>
        <time>2020-08-25T09:28:51.522Z</time>
      </trkpt>
      <trkpt lat="43.97513" lon="2.23786">
        <ele>251</ele>
        <time>2020-08-25T09:28:52.522Z</time>
      </trkpt>
      <trkpt lat="43.97514" lon="2.23786">
        <ele>251</ele>
        <time>2020-08-25T09:28:53.522Z</time>
      </trkpt>
      <trkpt lat="43.97515" lon="2.23787">
        <ele>251</ele>
        <time>2020-08-25T09:28:54.522Z</time>
      </trkpt>
      <trkpt lat="43.97516" lon="2.23787">
        <ele>252</ele>
        <time>2020-08-25T09:28:55.522Z</time>
      </trkpt>
      <trkpt lat="43.97517" lon="2.23787">
        <ele>252</ele>
        <time>2020-08-25T09:28:56.522Z</time>
      </trkpt>
      <trkpt lat="43.97519" lon="2.23786">
        <ele>252</ele>
        <time>2020-08-25T09:28:57.522Z</time>
      </trkpt>
      <trkpt lat="43.9752" lon="2.23787">
        <ele>252</ele>
        <time>2020-08-25T09:28:58.522Z</time>
      </trkpt>
      <trkpt lat="43.97521" lon="2.23787">
        <ele>252</ele>
        <time>2020-08-25T09:28:59.522Z</time>
      </trkpt>
      <trkpt lat="43.97522" lon="2.23788">
        <ele>252</ele>
        <time>2020-08-25T09:29:00.522Z</time>
      </trkpt>
      <trkpt lat="43.97523" lon="2.23788">
        <ele>252</ele>
        <time>2020-08-25T09:29:01.522Z</time>
      </trkpt>
      <trkpt lat="43.97524" lon="2.23788">
        <ele>252</ele>
        <time>2020-08-25T09:29:02.522Z</time>
      </trkpt>
      <trkpt lat="43.97525" lon="2.23789">
        <ele>252</ele>
        <time>2020-08-25T09:29:03.522Z</time>
      </trkpt>
      <trkpt lat="43.97526" lon="2.2379">
        <ele>252</ele>
        <time>2020-08-25T09:29:04.522Z</time>
      </trkpt>
      <trkpt lat="43.97526" lon="2.23791">
        <ele>252</ele>
        <time>2020-08-25T09:29:05.522Z</time>
      </trkpt>
      <trkpt lat="43.97527" lon="2.23792">
        <ele>252</ele>
        <time>2020-08-25T09:29:06.522Z</time>
      </trkpt>
      <trkpt lat="43.97528" lon="2.23792">
        <ele>253</ele>
        <time>2020-08-25T09:29:07.522Z</time>
      </trkpt>
      <trkpt lat="43.97529" lon="2.23793">
        <ele>253</ele>
        <time>2020-08-25T09:29:08.522Z</time>
      </trkpt>
      <trkpt lat="43.9753" lon="2.23793">
        <ele>253</ele>
        <time>2020-08-25T09:29:09.522Z</time>
      </trkpt>
      <trkpt lat="43.97531" lon="2.23794">
        <ele>253</ele>
        <time>2020-08-25T09:29:10.522Z</time>
      </trkpt>
      <trkpt lat="43.97532" lon="2.23794">
        <ele>253</ele>
        <time>2020-08-25T09:29:11.522Z</time>
      </trkpt>
      <trkpt lat="43.97533" lon="2.23795">
        <ele>253</ele>
        <time>2020-08-25T09:29:12.522Z</time>
      </trkpt>
      <trkpt lat="43.97534" lon="2.23796">
        <ele>253</ele>
        <time>2020-08-25T09:29:13.522Z</time>
      </trkpt>
      <trkpt lat="43.97535" lon="2.23797">
        <ele>253</ele>
        <time>2020-08-25T09:29:14.522Z</time>
      </trkpt>
      <trkpt lat="43.97536" lon="2.23798">
        <ele>253</ele>
        <time>2020-08-25T09:29:15.522Z</time>
      </trkpt>
      <trkpt lat="43.97536" lon="2.23799">
        <ele>253</ele>
        <time>2020-08-25T09:29:16.522Z</time>
      </trkpt>
      <trkpt lat="43.97537" lon="2.238">
        <ele>253</ele>
        <time>2020-08-25T09:29:17.522Z</time>
      </trkpt>
      <trkpt lat="43.97538" lon="2.23801">
        <ele>253</ele>
        <time>2020-08-25T09:29:18.522Z</time>
      </trkpt>
      <trkpt lat="43.97539" lon="2.23801">
        <ele>253</ele>
        <time>2020-08-25T09:29:19.522Z</time>
      </trkpt>
      <trkpt lat="43.97539" lon="2.23801">
        <ele>253</ele>
        <time>2020-08-25T09:29:20.522Z</time>
      </trkpt>
      <trkpt lat="43.97539" lon="2.23801">
        <ele>253</ele>
        <time>2020-08-25T09:29:21.522Z</time>
      </trkpt>
      <trkpt lat="43.9754" lon="2.23801">
        <ele>253</ele>
        <time>2020-08-25T09:29:22.522Z</time>
      </trkpt>
      <trkpt lat="43.97542" lon="2.23801">
        <ele>254</ele>
        <time>2020-08-25T09:29:25.842Z</time>
      </trkpt>
      <trkpt lat="43.97542" lon="2.23802">
        <ele>254</ele>
        <time>2020-08-25T09:29:26.842Z</time>
      </trkpt>
      <trkpt lat="43.97544" lon="2.23802">
        <ele>254</ele>
        <time>2020-08-25T09:29:30.072Z</time>
      </trkpt>
      <trkpt lat="43.97544" lon="2.23802">
        <ele>254</ele>
        <time>2020-08-25T09:29:31.072Z</time>
      </trkpt>
      <trkpt lat="43.97545" lon="2.23803">
        <ele>254</ele>
        <time>2020-08-25T09:29:32.072Z</time>
      </trkpt>
      <trkpt lat="43.97546" lon="2.23804">
        <ele>254</ele>
        <time>2020-08-25T09:29:33.072Z</time>
      </trkpt>
      <trkpt lat="43.97547" lon="2.23804">
        <ele>254</ele>
        <time>2020-08-25T09:29:34.072Z</time>
      </trkpt>
      <trkpt lat="43.97547" lon="2.23805">
        <ele>254</ele>
        <time>2020-08-25T09:29:35.072Z</time>
      </trkpt>
      <trkpt lat="43.97548" lon="2.23806">
        <ele>254</ele>
        <time>2020-08-25T09:29:36.072Z</time>
      </trkpt>
      <trkpt lat="43.97549" lon="2.23807">
        <ele>254</ele>
        <time>2020-08-25T09:29:37.072Z</time>
      </trkpt>
      <trkpt lat="43.97549" lon="2.23808">
        <ele>254</ele>
        <time>2020-08-25T09:29:38.072Z</time>
      </trkpt>
      <trkpt lat="43.9755" lon="2.23809">
        <ele>254</ele>
        <time>2020-08-25T09:29:39.072Z</time>
      </trkpt>
      <trkpt lat="43.97551" lon="2.23809">
        <ele>254</ele>
        <time>2020-08-25T09:29:40.072Z</time>
      </trkpt>
      <trkpt lat="43.97552" lon="2.2381">
        <ele>254</ele>
        <time>2020-08-25T09:29:41.072Z</time>
      </trkpt>
      <trkpt lat="43.97553" lon="2.23811">
        <ele>254</ele>
        <time>2020-08-25T09:29:42.072Z</time>
      </trkpt>
      <trkpt lat="43.97554" lon="2.23812">
        <ele>254</ele>
        <time>2020-08-25T09:29:43.072Z</time>
      </trkpt>
      <trkpt lat="43.97555" lon="2.23813">
        <ele>254</ele>
        <time>2020-08-25T09:29:44.072Z</time>
      </trkpt>
      <trkpt lat="43.97556" lon="2.23814">
        <ele>254</ele>
        <time>2020-08-25T09:29:45.072Z</time>
      </trkpt>
      <trkpt lat="43.97557" lon="2.23815">
        <ele>253</ele>
        <time>2020-08-25T09:29:46.072Z</time>
      </trkpt>
      <trkpt lat="43.97558" lon="2.23817">
        <ele>253</ele>
        <time>2020-08-25T09:29:47.072Z</time>
      </trkpt>
      <trkpt lat="43.97558" lon="2.23818">
        <ele>253</ele>
        <time>2020-08-25T09:29:48.072Z</time>
      </trkpt>
      <trkpt lat="43.97559" lon="2.23819">
        <ele>253</ele>
        <time>2020-08-25T09:29:49.072Z</time>
      </trkpt>
      <trkpt lat="43.9756" lon="2.2382">
        <ele>253</ele>
        <time>2020-08-25T09:29:50.072Z</time>
      </trkpt>
      <trkpt lat="43.97561" lon="2.23821">
        <ele>253</ele>
        <time>2020-08-25T09:29:51.072Z</time>
      </trkpt>
      <trkpt lat="43.97562" lon="2.23822">
        <ele>253</ele>
        <time>2020-08-25T09:29:52.072Z</time>
      </trkpt>
      <trkpt lat="43.97563" lon="2.23822">
        <ele>253</ele>
        <time>2020-08-25T09:29:53.072Z</time>
      </trkpt>
      <trkpt lat="43.97563" lon="2.23823">
        <ele>253</ele>
        <time>2020-08-25T09:29:54.072Z</time>
      </trkpt>
      <trkpt lat="43.97565" lon="2.23823">
        <ele>253</ele>
        <time>2020-08-25T09:29:55.072Z</time>
      </trkpt>
      <trkpt lat="43.97566" lon="2.23823">
        <ele>253</ele>
        <time>2020-08-25T09:29:56.072Z</time>
      </trkpt>
      <trkpt lat="43.97567" lon="2.23823">
        <ele>253</ele>
        <time>2020-08-25T09:29:57.072Z</time>
      </trkpt>
      <trkpt lat="43.97567" lon="2.23823">
        <ele>253</ele>
        <time>2020-08-25T09:29:58.072Z</time>
      </trkpt>
      <trkpt lat="43.97568" lon="2.23824">
        <ele>253</ele>
        <time>2020-08-25T09:29:59.072Z</time>
      </trkpt>
      <trkpt lat="43.97569" lon="2.23824">
        <ele>253</ele>
        <time>2020-08-25T09:30:00.072Z</time>
      </trkpt>
      <trkpt lat="43.9757" lon="2.23825">
        <ele>253</ele>
        <time>2020-08-25T09:30:01.072Z</time>
      </trkpt>
      <trkpt lat="43.9757" lon="2.23826">
        <ele>253</ele>
        <time>2020-08-25T09:30:02.072Z</time>
      </trkpt>
      <trkpt lat="43.9757" lon="2.23827">
        <ele>253</ele>
        <time>2020-08-25T09:30:03.072Z</time>
      </trkpt>
      <trkpt lat="43.97571" lon="2.23828">
        <ele>253</ele>
        <time>2020-08-25T09:30:04.072Z</time>
      </trkpt>
      <trkpt lat="43.97571" lon="2.23829">
        <ele>253</ele>
        <time>2020-08-25T09:30:05.072Z</time>
      </trkpt>
      <trkpt lat="43.97572" lon="2.2383">
        <ele>253</ele>
        <time>2020-08-25T09:30:06.072Z</time>
      </trkpt>
      <trkpt lat="43.97573" lon="2.23832">
        <ele>253</ele>
        <time>2020-08-25T09:30:07.072Z</time>
      </trkpt>
      <trkpt lat="43.97574" lon="2.23833">
        <ele>253</ele>
        <time>2020-08-25T09:30:08.072Z</time>
      </trkpt>
      <trkpt lat="43.97575" lon="2.23834">
        <ele>253</ele>
        <time>2020-08-25T09:30:09.072Z</time>
      </trkpt>
      <trkpt lat="43.97576" lon="2.23835">
        <ele>253</ele>
        <time>2020-08-25T09:30:10.072Z</time>
      </trkpt>
      <trkpt lat="43.97577" lon="2.23837">
        <ele>253</ele>
        <time>2020-08-25T09:30:11.072Z</time>
      </trkpt>
      <trkpt lat="43.97578" lon="2.23838">
        <ele>253</ele>
        <time>2020-08-25T09:30:12.072Z</time>
      </trkpt>
      <trkpt lat="43.97579" lon="2.23839">
        <ele>253</ele>
        <time>2020-08-25T09:30:13.072Z</time>
      </trkpt>
      <trkpt lat="43.9758" lon="2.23841">
        <ele>253</ele>
        <time>2020-08-25T09:30:14.072Z</time>
      </trkpt>
      <trkpt lat="43.9758" lon="2.23842">
        <ele>253</ele>
        <time>2020-08-25T09:30:15.072Z</time>
      </trkpt>
      <trkpt lat="43.97581" lon="2.23843">
        <ele>253</ele>
        <time>2020-08-25T09:30:16.072Z</time>
      </trkpt>
      <trkpt lat="43.97582" lon="2.23844">
        <ele>253</ele>
        <time>2020-08-25T09:30:17.072Z</time>
      </trkpt>
      <trkpt lat="43.97583" lon="2.23846">
        <ele>253</ele>
        <time>2020-08-25T09:30:18.072Z</time>
      </trkpt>
      <trkpt lat="43.97584" lon="2.23847">
        <ele>253</ele>
        <time>2020-08-25T09:30:19.072Z</time>
      </trkpt>
      <trkpt lat="43.97584" lon="2.23848">
        <ele>253</ele>
        <time>2020-08-25T09:30:20.072Z</time>
      </trkpt>
      <trkpt lat="43.97585" lon="2.23849">
        <ele>253</ele>
        <time>2020-08-25T09:30:21.072Z</time>
      </trkpt>
      <trkpt lat="43.97586" lon="2.2385">
        <ele>253</ele>
        <time>2020-08-25T09:30:22.072Z</time>
      </trkpt>
      <trkpt lat="43.97587" lon="2.23851">
        <ele>253</ele>
        <time>2020-08-25T09:30:23.072Z</time>
      </trkpt>
      <trkpt lat="43.97588" lon="2.23853">
        <ele>253</ele>
        <time>2020-08-25T09:30:24.072Z</time>
      </trkpt>
      <trkpt lat="43.97589" lon="2.23854">
        <ele>253</ele>
        <time>2020-08-25T09:30:25.072Z</time>
      </trkpt>
      <trkpt lat="43.97589" lon="2.23855">
        <ele>253</ele>
        <time>2020-08-25T09:30:26.072Z</time>
      </trkpt>
      <trkpt lat="43.9759" lon="2.23856">
        <ele>253</ele>
        <time>2020-08-25T09:30:27.072Z</time>
      </trkpt>
      <trkpt lat="43.97591" lon="2.23857">
        <ele>253</ele>
        <time>2020-08-25T09:30:28.072Z</time>
      </trkpt>
      <trkpt lat="43.97591" lon="2.23857">
        <ele>253</ele>
        <time>2020-08-25T09:30:29.072Z</time>
      </trkpt>
      <trkpt lat="43.97592" lon="2.23858">
        <ele>253</ele>
        <time>2020-08-25T09:30:30.072Z</time>
      </trkpt>
      <trkpt lat="43.97593" lon="2.23859">
        <ele>253</ele>
        <time>2020-08-25T09:30:31.072Z</time>
      </trkpt>
      <trkpt lat="43.97594" lon="2.2386">
        <ele>253</ele>
        <time>2020-08-25T09:30:32.072Z</time>
      </trkpt>
      <trkpt lat="43.97595" lon="2.23861">
        <ele>253</ele>
        <time>2020-08-25T09:30:33.072Z</time>
      </trkpt>
      <trkpt lat="43.97596" lon="2.23861">
        <ele>253</ele>
        <time>2020-08-25T09:30:34.072Z</time>
      </trkpt>
      <trkpt lat="43.97597" lon="2.23862">
        <ele>253</ele>
        <time>2020-08-25T09:30:35.072Z</time>
      </trkpt>
      <trkpt lat="43.97598" lon="2.23862">
        <ele>253</ele>
        <time>2020-08-25T09:30:36.072Z</time>
      </trkpt>
      <trkpt lat="43.97599" lon="2.23863">
        <ele>254</ele>
        <time>2020-08-25T09:30:37.072Z</time>
      </trkpt>
      <trkpt lat="43.976" lon="2.23864">
        <ele>254</ele>
        <time>2020-08-25T09:30:38.072Z</time>
      </trkpt>
      <trkpt lat="43.976" lon="2.23864">
        <ele>254</ele>
        <time>2020-08-25T09:30:39.072Z</time>
      </trkpt>
      <trkpt lat="43.97601" lon="2.23865">
        <ele>254</ele>
        <time>2020-08-25T09:30:40.072Z</time>
      </trkpt>
      <trkpt lat="43.97602" lon="2.23865">
        <ele>254</ele>
        <time>2020-08-25T09:30:41.072Z</time>
      </trkpt>
      <trkpt lat="43.97603" lon="2.23866">
        <ele>254</ele>
        <time>2020-08-25T09:30:42.072Z</time>
      </trkpt>
      <trkpt lat="43.97604" lon="2.23866">
        <ele>254</ele>
        <time>2020-08-25T09:30:43.072Z</time>
      </trkpt>
      <trkpt lat="43.97605" lon="2.23866">
        <ele>254</ele>
        <time>2020-08-25T09:30:44.072Z</time>
      </trkpt>
      <trkpt lat="43.97606" lon="2.23866">
        <ele>254</ele>
        <time>2020-08-25T09:30:45.072Z</time>
      </trkpt>
      <trkpt lat="43.97607" lon="2.23867">
        <ele>254</ele>
        <time>2020-08-25T09:30:46.072Z</time>
      </trkpt>
      <trkpt lat="43.97608" lon="2.23867">
        <ele>254</ele>
        <time>2020-08-25T09:30:47.072Z</time>
      </trkpt>
      <trkpt lat="43.97609" lon="2.23867">
        <ele>254</ele>
        <time>2020-08-25T09:30:48.072Z</time>
      </trkpt>
      <trkpt lat="43.9761" lon="2.23867">
        <ele>254</ele>
        <time>2020-08-25T09:30:49.072Z</time>
      </trkpt>
      <trkpt lat="43.97612" lon="2.23868">
        <ele>254</ele>
        <time>2020-08-25T09:30:50.072Z</time>
      </trkpt>
      <trkpt lat="43.97613" lon="2.23868">
        <ele>254</ele>
        <time>2020-08-25T09:30:51.072Z</time>
      </trkpt>
      <trkpt lat="43.97614" lon="2.23868">
        <ele>254</ele>
        <time>2020-08-25T09:30:52.072Z</time>
      </trkpt>
      <trkpt lat="43.97615" lon="2.23868">
        <ele>254</ele>
        <time>2020-08-25T09:30:53.072Z</time>
      </trkpt>
      <trkpt lat="43.97616" lon="2.23868">
        <ele>254</ele>
        <time>2020-08-25T09:30:54.072Z</time>
      </trkpt>
      <trkpt lat="43.97617" lon="2.23869">
        <ele>254</ele>
        <time>2020-08-25T09:30:55.072Z</time>
      </trkpt>
      <trkpt lat="43.97618" lon="2.23869">
        <ele>254</ele>
        <time>2020-08-25T09:30:56.072Z</time>
      </trkpt>
      <trkpt lat="43.97618" lon="2.2387">
        <ele>254</ele>
        <time>2020-08-25T09:30:57.072Z</time>
      </trkpt>
      <trkpt lat="43.97619" lon="2.23871">
        <ele>254</ele>
        <time>2020-08-25T09:30:58.072Z</time>
      </trkpt>
      <trkpt lat="43.9762" lon="2.23872">
        <ele>254</ele>
        <time>2020-08-25T09:30:59.072Z</time>
      </trkpt>
      <trkpt lat="43.97621" lon="2.23873">
        <ele>254</ele>
        <time>2020-08-25T09:31:00.072Z</time>
      </trkpt>
      <trkpt lat="43.97622" lon="2.23874">
        <ele>254</ele>
        <time>2020-08-25T09:31:01.072Z</time>
      </trkpt>
      <trkpt lat="43.97622" lon="2.23875">
        <ele>254</ele>
        <time>2020-08-25T09:31:02.072Z</time>
      </trkpt>
      <trkpt lat="43.97623" lon="2.23876">
        <ele>254</ele>
        <time>2020-08-25T09:31:03.072Z</time>
      </trkpt>
      <trkpt lat="43.97624" lon="2.23877">
        <ele>254</ele>
        <time>2020-08-25T09:31:04.072Z</time>
      </trkpt>
      <trkpt lat="43.97624" lon="2.23878">
        <ele>254</ele>
        <time>2020-08-25T09:31:05.072Z</time>
      </trkpt>
      <trkpt lat="43.97625" lon="2.23878">
        <ele>255</ele>
        <time>2020-08-25T09:31:06.072Z</time>
      </trkpt>
      <trkpt lat="43.97626" lon="2.23878">
        <ele>255</ele>
        <time>2020-08-25T09:31:07.072Z</time>
      </trkpt>
      <trkpt lat="43.97628" lon="2.23879">
        <ele>255</ele>
        <time>2020-08-25T09:31:08.072Z</time>
      </trkpt>
      <trkpt lat="43.97628" lon="2.23879">
        <ele>255</ele>
        <time>2020-08-25T09:31:09.072Z</time>
      </trkpt>
      <trkpt lat="43.9763" lon="2.23879">
        <ele>255</ele>
        <time>2020-08-25T09:31:10.072Z</time>
      </trkpt>
      <trkpt lat="43.97631" lon="2.2388">
        <ele>255</ele>
        <time>2020-08-25T09:31:11.072Z</time>
      </trkpt>
      <trkpt lat="43.97632" lon="2.2388">
        <ele>255</ele>
        <time>2020-08-25T09:31:12.072Z</time>
      </trkpt>
      <trkpt lat="43.97633" lon="2.23881">
        <ele>255</ele>
        <time>2020-08-25T09:31:13.072Z</time>
      </trkpt>
      <trkpt lat="43.97634" lon="2.23881">
        <ele>255</ele>
        <time>2020-08-25T09:31:14.072Z</time>
      </trkpt>
      <trkpt lat="43.97635" lon="2.23881">
        <ele>255</ele>
        <time>2020-08-25T09:31:15.072Z</time>
      </trkpt>
      <trkpt lat="43.97636" lon="2.23882">
        <ele>255</ele>
        <time>2020-08-25T09:31:16.072Z</time>
      </trkpt>
      <trkpt lat="43.97637" lon="2.23882">
        <ele>256</ele>
        <time>2020-08-25T09:31:17.072Z</time>
      </trkpt>
      <trkpt lat="43.97638" lon="2.23882">
        <ele>256</ele>
        <time>2020-08-25T09:31:18.072Z</time>
      </trkpt>
      <trkpt lat="43.97639" lon="2.23883">
        <ele>256</ele>
        <time>2020-08-25T09:31:19.072Z</time>
      </trkpt>
      <trkpt lat="43.97639" lon="2.23884">
        <ele>256</ele>
        <time>2020-08-25T09:31:20.072Z</time>
      </trkpt>
      <trkpt lat="43.9764" lon="2.23884">
        <ele>256</ele>
        <time>2020-08-25T09:31:21.072Z</time>
      </trkpt>
      <trkpt lat="43.97641" lon="2.23884">
        <ele>256</ele>
        <time>2020-08-25T09:31:22.072Z</time>
      </trkpt>
      <trkpt lat="43.97642" lon="2.23885">
        <ele>256</ele>
        <time>2020-08-25T09:31:23.072Z</time>
      </trkpt>
      <trkpt lat="43.97643" lon="2.23885">
        <ele>256</ele>
        <time>2020-08-25T09:31:24.072Z</time>
      </trkpt>
      <trkpt lat="43.97644" lon="2.23886">
        <ele>256</ele>
        <time>2020-08-25T09:31:25.072Z</time>
      </trkpt>
      <trkpt lat="43.97645" lon="2.23886">
        <ele>256</ele>
        <time>2020-08-25T09:31:26.072Z</time>
      </trkpt>
      <trkpt lat="43.97646" lon="2.23887">
        <ele>257</ele>
        <time>2020-08-25T09:31:27.072Z</time>
      </trkpt>
      <trkpt lat="43.97647" lon="2.23888">
        <ele>257</ele>
        <time>2020-08-25T09:31:28.072Z</time>
      </trkpt>
      <trkpt lat="43.97648" lon="2.23889">
        <ele>257</ele>
        <time>2020-08-25T09:31:29.072Z</time>
      </trkpt>
      <trkpt lat="43.97649" lon="2.23891">
        <ele>257</ele>
        <time>2020-08-25T09:31:30.072Z</time>
      </trkpt>
      <trkpt lat="43.9765" lon="2.23892">
        <ele>257</ele>
        <time>2020-08-25T09:31:31.072Z</time>
      </trkpt>
      <trkpt lat="43.97651" lon="2.23893">
        <ele>257</ele>
        <time>2020-08-25T09:31:32.072Z</time>
      </trkpt>
      <trkpt lat="43.97652" lon="2.23894">
        <ele>257</ele>
        <time>2020-08-25T09:31:33.072Z</time>
      </trkpt>
      <trkpt lat="43.97653" lon="2.23896">
        <ele>257</ele>
        <time>2020-08-25T09:31:34.072Z</time>
      </trkpt>
      <trkpt lat="43.97653" lon="2.23897">
        <ele>257</ele>
        <time>2020-08-25T09:31:35.072Z</time>
      </trkpt>
      <trkpt lat="43.97654" lon="2.23898">
        <ele>257</ele>
        <time>2020-08-25T09:31:36.072Z</time>
      </trkpt>
      <trkpt lat="43.97655" lon="2.23899">
        <ele>257</ele>
        <time>2020-08-25T09:31:37.072Z</time>
      </trkpt>
      <trkpt lat="43.97655" lon="2.23901">
        <ele>257</ele>
        <time>2020-08-25T09:31:38.072Z</time>
      </trkpt>
      <trkpt lat="43.97656" lon="2.23902">
        <ele>257</ele>
        <time>2020-08-25T09:31:39.072Z</time>
      </trkpt>
      <trkpt lat="43.97657" lon="2.23903">
        <ele>257</ele>
        <time>2020-08-25T09:31:40.072Z</time>
      </trkpt>
      <trkpt lat="43.97658" lon="2.23904">
        <ele>257</ele>
        <time>2020-08-25T09:31:41.072Z</time>
      </trkpt>
      <trkpt lat="43.97658" lon="2.23905">
        <ele>257</ele>
        <time>2020-08-25T09:31:42.072Z</time>
      </trkpt>
      <trkpt lat="43.97659" lon="2.23906">
        <ele>257</ele>
        <time>2020-08-25T09:31:43.072Z</time>
      </trkpt>
      <trkpt lat="43.9766" lon="2.23908">
        <ele>257</ele>
        <time>2020-08-25T09:31:44.072Z</time>
      </trkpt>
      <trkpt lat="43.97661" lon="2.23909">
        <ele>257</ele>
        <time>2020-08-25T09:31:45.072Z</time>
      </trkpt>
      <trkpt lat="43.97662" lon="2.2391">
        <ele>257</ele>
        <time>2020-08-25T09:31:46.072Z</time>
      </trkpt>
      <trkpt lat="43.97663" lon="2.23911">
        <ele>257</ele>
        <time>2020-08-25T09:31:47.072Z</time>
      </trkpt>
      <trkpt lat="43.97664" lon="2.23912">
        <ele>257</ele>
        <time>2020-08-25T09:31:48.072Z</time>
      </trkpt>
      <trkpt lat="43.97665" lon="2.23913">
        <ele>257</ele>
        <time>2020-08-25T09:31:49.072Z</time>
      </trkpt>
      <trkpt lat="43.97666" lon="2.23914">
        <ele>257</ele>
        <time>2020-08-25T09:31:50.072Z</time>
      </trkpt>
      <trkpt lat="43.97667" lon="2.23915">
        <ele>257</ele>
        <time>2020-08-25T09:31:51.072Z</time>
      </trkpt>
      <trkpt lat="43.97668" lon="2.23916">
        <ele>257</ele>
        <time>2020-08-25T09:31:52.072Z</time>
      </trkpt>
      <trkpt lat="43.97669" lon="2.23917">
        <ele>257</ele>
        <time>2020-08-25T09:31:53.072Z</time>
      </trkpt>
      <trkpt lat="43.9767" lon="2.23918">
        <ele>257</ele>
        <time>2020-08-25T09:31:54.072Z</time>
      </trkpt>
      <trkpt lat="43.9767" lon="2.23919">
        <ele>257</ele>
        <time>2020-08-25T09:31:55.072Z</time>
      </trkpt>
      <trkpt lat="43.97671" lon="2.2392">
        <ele>257</ele>
        <time>2020-08-25T09:31:56.072Z</time>
      </trkpt>
      <trkpt lat="43.97672" lon="2.23921">
        <ele>257</ele>
        <time>2020-08-25T09:31:57.072Z</time>
      </trkpt>
      <trkpt lat="43.97673" lon="2.23922">
        <ele>257</ele>
        <time>2020-08-25T09:31:58.072Z</time>
      </trkpt>
      <trkpt lat="43.97674" lon="2.23923">
        <ele>257</ele>
        <time>2020-08-25T09:31:59.072Z</time>
      </trkpt>
      <trkpt lat="43.97674" lon="2.23924">
        <ele>256</ele>
        <time>2020-08-25T09:32:00.072Z</time>
      </trkpt>
      <trkpt lat="43.97675" lon="2.23925">
        <ele>256</ele>
        <time>2020-08-25T09:32:01.072Z</time>
      </trkpt>
      <trkpt lat="43.97676" lon="2.23926">
        <ele>256</ele>
        <time>2020-08-25T09:32:02.072Z</time>
      </trkpt>
      <trkpt lat="43.97677" lon="2.23927">
        <ele>256</ele>
        <time>2020-08-25T09:32:03.072Z</time>
      </trkpt>
      <trkpt lat="43.97678" lon="2.23928">
        <ele>256</ele>
        <time>2020-08-25T09:32:04.072Z</time>
      </trkpt>
      <trkpt lat="43.97679" lon="2.23929">
        <ele>256</ele>
        <time>2020-08-25T09:32:05.072Z</time>
      </trkpt>
      <trkpt lat="43.97679" lon="2.2393">
        <ele>256</ele>
        <time>2020-08-25T09:32:06.072Z</time>
      </trkpt>
      <trkpt lat="43.9768" lon="2.23932">
        <ele>256</ele>
        <time>2020-08-25T09:32:07.072Z</time>
      </trkpt>
      <trkpt lat="43.97681" lon="2.23933">
        <ele>256</ele>
        <time>2020-08-25T09:32:08.072Z</time>
      </trkpt>
      <trkpt lat="43.97682" lon="2.23934">
        <ele>255</ele>
        <time>2020-08-25T09:32:09.072Z</time>
      </trkpt>
      <trkpt lat="43.97683" lon="2.23935">
        <ele>255</ele>
        <time>2020-08-25T09:32:10.072Z</time>
      </trkpt>
      <trkpt lat="43.97684" lon="2.23936">
        <ele>255</ele>
        <time>2020-08-25T09:32:11.072Z</time>
      </trkpt>
      <trkpt lat="43.97685" lon="2.23937">
        <ele>255</ele>
        <time>2020-08-25T09:32:12.072Z</time>
      </trkpt>
      <trkpt lat="43.97685" lon="2.23938">
        <ele>255</ele>
        <time>2020-08-25T09:32:13.072Z</time>
      </trkpt>
      <trkpt lat="43.97686" lon="2.23939">
        <ele>255</ele>
        <time>2020-08-25T09:32:14.072Z</time>
      </trkpt>
      <trkpt lat="43.97687" lon="2.2394">
        <ele>255</ele>
        <time>2020-08-25T09:32:15.072Z</time>
      </trkpt>
      <trkpt lat="43.97688" lon="2.23942">
        <ele>255</ele>
        <time>2020-08-25T09:32:16.072Z</time>
      </trkpt>
      <trkpt lat="43.97688" lon="2.23942">
        <ele>255</ele>
        <time>2020-08-25T09:32:17.072Z</time>
      </trkpt>
      <trkpt lat="43.97689" lon="2.23943">
        <ele>255</ele>
        <time>2020-08-25T09:32:18.072Z</time>
      </trkpt>
      <trkpt lat="43.9769" lon="2.23944">
        <ele>255</ele>
        <time>2020-08-25T09:32:19.072Z</time>
      </trkpt>
      <trkpt lat="43.97691" lon="2.23946">
        <ele>255</ele>
        <time>2020-08-25T09:32:20.072Z</time>
      </trkpt>
      <trkpt lat="43.97691" lon="2.23947">
        <ele>255</ele>
        <time>2020-08-25T09:32:21.072Z</time>
      </trkpt>
      <trkpt lat="43.97692" lon="2.23948">
        <ele>255</ele>
        <time>2020-08-25T09:32:22.072Z</time>
      </trkpt>
      <trkpt lat="43.97693" lon="2.23949">
        <ele>255</ele>
        <time>2020-08-25T09:32:23.072Z</time>
      </trkpt>
      <trkpt lat="43.97693" lon="2.23951">
        <ele>255</ele>
        <time>2020-08-25T09:32:24.072Z</time>
      </trkpt>
      <trkpt lat="43.97694" lon="2.23952">
        <ele>255</ele>
        <time>2020-08-25T09:32:25.072Z</time>
      </trkpt>
      <trkpt lat="43.97694" lon="2.23953">
        <ele>254</ele>
        <time>2020-08-25T09:32:26.072Z</time>
      </trkpt>
      <trkpt lat="43.97695" lon="2.23955">
        <ele>254</ele>
        <time>2020-08-25T09:32:27.072Z</time>
      </trkpt>
      <trkpt lat="43.97696" lon="2.23956">
        <ele>254</ele>
        <time>2020-08-25T09:32:28.072Z</time>
      </trkpt>
      <trkpt lat="43.97696" lon="2.23957">
        <ele>254</ele>
        <time>2020-08-25T09:32:29.072Z</time>
      </trkpt>
      <trkpt lat="43.97697" lon="2.23958">
        <ele>254</ele>
        <time>2020-08-25T09:32:30.072Z</time>
      </trkpt>
      <trkpt lat="43.97697" lon="2.23959">
        <ele>254</ele>
        <time>2020-08-25T09:32:31.072Z</time>
      </trkpt>
      <trkpt lat="43.97698" lon="2.23961">
        <ele>254</ele>
        <time>2020-08-25T09:32:32.072Z</time>
      </trkpt>
      <trkpt lat="43.97699" lon="2.23962">
        <ele>254</ele>
        <time>2020-08-25T09:32:33.072Z</time>
      </trkpt>
      <trkpt lat="43.977" lon="2.23963">
        <ele>254</ele>
        <time>2020-08-25T09:32:34.072Z</time>
      </trkpt>
      <trkpt lat="43.977" lon="2.23964">
        <ele>254</ele>
        <time>2020-08-25T09:32:35.072Z</time>
      </trkpt>
      <trkpt lat="43.97701" lon="2.23965">
        <ele>254</ele>
        <time>2020-08-25T09:32:36.072Z</time>
      </trkpt>
      <trkpt lat="43.97702" lon="2.23966">
        <ele>254</ele>
        <time>2020-08-25T09:32:37.072Z</time>
      </trkpt>
      <trkpt lat="43.97703" lon="2.23966">
        <ele>254</ele>
        <time>2020-08-25T09:32:38.072Z</time>
      </trkpt>
      <trkpt lat="43.97705" lon="2.23967">
        <ele>254</ele>
        <time>2020-08-25T09:32:39.072Z</time>
      </trkpt>
      <trkpt lat="43.97705" lon="2.23968">
        <ele>254</ele>
        <time>2020-08-25T09:32:40.072Z</time>
      </trkpt>
      <trkpt lat="43.97706" lon="2.23969">
        <ele>254</ele>
        <time>2020-08-25T09:32:41.072Z</time>
      </trkpt>
      <trkpt lat="43.97707" lon="2.23969">
        <ele>253</ele>
        <time>2020-08-25T09:32:42.072Z</time>
      </trkpt>
      <trkpt lat="43.97708" lon="2.2397">
        <ele>253</ele>
        <time>2020-08-25T09:32:43.072Z</time>
      </trkpt>
      <trkpt lat="43.97709" lon="2.23971">
        <ele>253</ele>
        <time>2020-08-25T09:32:44.072Z</time>
      </trkpt>
      <trkpt lat="43.9771" lon="2.23971">
        <ele>253</ele>
        <time>2020-08-25T09:32:45.072Z</time>
      </trkpt>
      <trkpt lat="43.97711" lon="2.23972">
        <ele>253</ele>
        <time>2020-08-25T09:32:46.072Z</time>
      </trkpt>
      <trkpt lat="43.97712" lon="2.23972">
        <ele>253</ele>
        <time>2020-08-25T09:32:47.072Z</time>
      </trkpt>
      <trkpt lat="43.97713" lon="2.23973">
        <ele>253</ele>
        <time>2020-08-25T09:32:48.072Z</time>
      </trkpt>
      <trkpt lat="43.97714" lon="2.23973">
        <ele>253</ele>
        <time>2020-08-25T09:32:49.072Z</time>
      </trkpt>
      <trkpt lat="43.97715" lon="2.23973">
        <ele>253</ele>
        <time>2020-08-25T09:32:50.072Z</time>
      </trkpt>
      <trkpt lat="43.97716" lon="2.23973">
        <ele>253</ele>
        <time>2020-08-25T09:32:51.072Z</time>
      </trkpt>
      <trkpt lat="43.97717" lon="2.23974">
        <ele>253</ele>
        <time>2020-08-25T09:32:52.072Z</time>
      </trkpt>
      <trkpt lat="43.97717" lon="2.23974">
        <ele>253</ele>
        <time>2020-08-25T09:32:53.072Z</time>
      </trkpt>
      <trkpt lat="43.97718" lon="2.23975">
        <ele>253</ele>
        <time>2020-08-25T09:32:54.072Z</time>
      </trkpt>
      <trkpt lat="43.97719" lon="2.23975">
        <ele>253</ele>
        <time>2020-08-25T09:32:55.072Z</time>
      </trkpt>
      <trkpt lat="43.9772" lon="2.23976">
        <ele>253</ele>
        <time>2020-08-25T09:32:56.072Z</time>
      </trkpt>
      <trkpt lat="43.97721" lon="2.23976">
        <ele>253</ele>
        <time>2020-08-25T09:32:57.072Z</time>
      </trkpt>
      <trkpt lat="43.97722" lon="2.23975">
        <ele>253</ele>
        <time>2020-08-25T09:32:58.072Z</time>
      </trkpt>
      <trkpt lat="43.97723" lon="2.23975">
        <ele>253</ele>
        <time>2020-08-25T09:32:59.072Z</time>
      </trkpt>
      <trkpt lat="43.97724" lon="2.23975">
        <ele>253</ele>
        <time>2020-08-25T09:33:00.072Z</time>
      </trkpt>
      <trkpt lat="43.97725" lon="2.23974">
        <ele>253</ele>
        <time>2020-08-25T09:33:01.072Z</time>
      </trkpt>
      <trkpt lat="43.97726" lon="2.23974">
        <ele>254</ele>
        <time>2020-08-25T09:33:02.072Z</time>
      </trkpt>
      <trkpt lat="43.97727" lon="2.23974">
        <ele>254</ele>
        <time>2020-08-25T09:33:03.072Z</time>
      </trkpt>
      <trkpt lat="43.97728" lon="2.23973">
        <ele>254</ele>
        <time>2020-08-25T09:33:04.072Z</time>
      </trkpt>
      <trkpt lat="43.97729" lon="2.23973">
        <ele>254</ele>
        <time>2020-08-25T09:33:05.072Z</time>
      </trkpt>
      <trkpt lat="43.9773" lon="2.23972">
        <ele>254</ele>
        <time>2020-08-25T09:33:06.072Z</time>
      </trkpt>
      <trkpt lat="43.97731" lon="2.23971">
        <ele>254</ele>
        <time>2020-08-25T09:33:07.072Z</time>
      </trkpt>
      <trkpt lat="43.97732" lon="2.23971">
        <ele>254</ele>
        <time>2020-08-25T09:33:08.072Z</time>
      </trkpt>
      <trkpt lat="43.97733" lon="2.2397">
        <ele>254</ele>
        <time>2020-08-25T09:33:09.072Z</time>
      </trkpt>
      <trkpt lat="43.97734" lon="2.23969">
        <ele>254</ele>
        <time>2020-08-25T09:33:10.072Z</time>
      </trkpt>
      <trkpt lat="43.97735" lon="2.23969">
        <ele>254</ele>
        <time>2020-08-25T09:33:11.072Z</time>
      </trkpt>
      <trkpt lat="43.97736" lon="2.23968">
        <ele>254</ele>
        <time>2020-08-25T09:33:12.072Z</time>
      </trkpt>
      <trkpt lat="43.97737" lon="2.23967">
        <ele>254</ele>
        <time>2020-08-25T09:33:13.072Z</time>
      </trkpt>
      <trkpt lat="43.97738" lon="2.23966">
        <ele>255</ele>
        <time>2020-08-25T09:33:14.072Z</time>
      </trkpt>
      <trkpt lat="43.97739" lon="2.23966">
        <ele>255</ele>
        <time>2020-08-25T09:33:15.072Z</time>
      </trkpt>
      <trkpt lat="43.9774" lon="2.23965">
        <ele>255</ele>
        <time>2020-08-25T09:33:16.072Z</time>
      </trkpt>
      <trkpt lat="43.97741" lon="2.23965">
        <ele>255</ele>
        <time>2020-08-25T09:33:17.072Z</time>
      </trkpt>
      <trkpt lat="43.97742" lon="2.23964">
        <ele>255</ele>
        <time>2020-08-25T09:33:18.072Z</time>
      </trkpt>
      <trkpt lat="43.97743" lon="2.23964">
        <ele>255</ele>
        <time>2020-08-25T09:33:19.072Z</time>
      </trkpt>
      <trkpt lat="43.97743" lon="2.23964">
        <ele>255</ele>
        <time>2020-08-25T09:33:20.072Z</time>
      </trkpt>
      <trkpt lat="43.97744" lon="2.23964">
        <ele>256</ele>
        <time>2020-08-25T09:33:21.072Z</time>
      </trkpt>
      <trkpt lat="43.97745" lon="2.23964">
        <ele>256</ele>
        <time>2020-08-25T09:33:22.072Z</time>
      </trkpt>
      <trkpt lat="43.97745" lon="2.23964">
        <ele>256</ele>
        <time>2020-08-25T09:33:23.072Z</time>
      </trkpt>
      <trkpt lat="43.97746" lon="2.23964">
        <ele>256</ele>
        <time>2020-08-25T09:33:24.072Z</time>
      </trkpt>
      <trkpt lat="43.97746" lon="2.23964">
        <ele>256</ele>
        <time>2020-08-25T09:33:25.072Z</time>
      </trkpt>
      <trkpt lat="43.97747" lon="2.23964">
        <ele>256</ele>
        <time>2020-08-25T09:33:26.072Z</time>
      </trkpt>
      <trkpt lat="43.97747" lon="2.23964">
        <ele>257</ele>
        <time>2020-08-25T09:33:27.072Z</time>
      </trkpt>
      <trkpt lat="43.97748" lon="2.23962">
        <ele>257</ele>
        <time>2020-08-25T09:33:31.076Z</time>
      </trkpt>
      <trkpt lat="43.97749" lon="2.23962">
        <ele>257</ele>
        <time>2020-08-25T09:33:32.076Z</time>
      </trkpt>
      <trkpt lat="43.97749" lon="2.23961">
        <ele>258</ele>
        <time>2020-08-25T09:33:33.076Z</time>
      </trkpt>
      <trkpt lat="43.9775" lon="2.23961">
        <ele>258</ele>
        <time>2020-08-25T09:33:34.076Z</time>
      </trkpt>
      <trkpt lat="43.97751" lon="2.2396">
        <ele>258</ele>
        <time>2020-08-25T09:33:35.076Z</time>
      </trkpt>
      <trkpt lat="43.97751" lon="2.2396">
        <ele>258</ele>
        <time>2020-08-25T09:33:36.076Z</time>
      </trkpt>
      <trkpt lat="43.97752" lon="2.23959">
        <ele>258</ele>
        <time>2020-08-25T09:33:37.076Z</time>
      </trkpt>
      <trkpt lat="43.97753" lon="2.23959">
        <ele>258</ele>
        <time>2020-08-25T09:33:38.076Z</time>
      </trkpt>
      <trkpt lat="43.97753" lon="2.2396">
        <ele>259</ele>
        <time>2020-08-25T09:33:39.076Z</time>
      </trkpt>
      <trkpt lat="43.97754" lon="2.2396">
        <ele>259</ele>
        <time>2020-08-25T09:33:40.076Z</time>
      </trkpt>
      <trkpt lat="43.97755" lon="2.2396">
        <ele>259</ele>
        <time>2020-08-25T09:33:41.076Z</time>
      </trkpt>
      <trkpt lat="43.97755" lon="2.2396">
        <ele>259</ele>
        <time>2020-08-25T09:33:42.076Z</time>
      </trkpt>
      <trkpt lat="43.97756" lon="2.2396">
        <ele>259</ele>
        <time>2020-08-25T09:33:43.076Z</time>
      </trkpt>
      <trkpt lat="43.97756" lon="2.2396">
        <ele>259</ele>
        <time>2020-08-25T09:33:44.076Z</time>
      </trkpt>
      <trkpt lat="43.97757" lon="2.2396">
        <ele>259</ele>
        <time>2020-08-25T09:33:45.076Z</time>
      </trkpt>
      <trkpt lat="43.97758" lon="2.2396">
        <ele>259</ele>
        <time>2020-08-25T09:33:46.076Z</time>
      </trkpt>
      <trkpt lat="43.97759" lon="2.2396">
        <ele>259</ele>
        <time>2020-08-25T09:33:47.076Z</time>
      </trkpt>
      <trkpt lat="43.9776" lon="2.2396">
        <ele>259</ele>
        <time>2020-08-25T09:33:48.076Z</time>
      </trkpt>
      <trkpt lat="43.9776" lon="2.2396">
        <ele>259</ele>
        <time>2020-08-25T09:33:49.076Z</time>
      </trkpt>
      <trkpt lat="43.97761" lon="2.2396">
        <ele>259</ele>
        <time>2020-08-25T09:33:50.076Z</time>
      </trkpt>
      <trkpt lat="43.97762" lon="2.23959">
        <ele>259</ele>
        <time>2020-08-25T09:33:51.076Z</time>
      </trkpt>
      <trkpt lat="43.97763" lon="2.23959">
        <ele>260</ele>
        <time>2020-08-25T09:33:52.076Z</time>
      </trkpt>
      <trkpt lat="43.97764" lon="2.23959">
        <ele>260</ele>
        <time>2020-08-25T09:33:53.076Z</time>
      </trkpt>
      <trkpt lat="43.97765" lon="2.23959">
        <ele>260</ele>
        <time>2020-08-25T09:33:54.076Z</time>
      </trkpt>
      <trkpt lat="43.97766" lon="2.23959">
        <ele>260</ele>
        <time>2020-08-25T09:33:55.076Z</time>
      </trkpt>
      <trkpt lat="43.97767" lon="2.2396">
        <ele>260</ele>
        <time>2020-08-25T09:33:56.076Z</time>
      </trkpt>
      <trkpt lat="43.97768" lon="2.2396">
        <ele>260</ele>
        <time>2020-08-25T09:33:57.076Z</time>
      </trkpt>
      <trkpt lat="43.97768" lon="2.23961">
        <ele>260</ele>
        <time>2020-08-25T09:33:58.076Z</time>
      </trkpt>
      <trkpt lat="43.97768" lon="2.23962">
        <ele>260</ele>
        <time>2020-08-25T09:33:59.076Z</time>
      </trkpt>
      <trkpt lat="43.97769" lon="2.23962">
        <ele>260</ele>
        <time>2020-08-25T09:34:00.076Z</time>
      </trkpt>
      <trkpt lat="43.97769" lon="2.23962">
        <ele>260</ele>
        <time>2020-08-25T09:34:01.076Z</time>
      </trkpt>
      <trkpt lat="43.97769" lon="2.23962">
        <ele>260</ele>
        <time>2020-08-25T09:34:02.076Z</time>
      </trkpt>
      <trkpt lat="43.9777" lon="2.23962">
        <ele>260</ele>
        <time>2020-08-25T09:34:03.076Z</time>
      </trkpt>
      <trkpt lat="43.97771" lon="2.23964">
        <ele>260</ele>
        <time>2020-08-25T09:34:08.079Z</time>
      </trkpt>
      <trkpt lat="43.97772" lon="2.23964">
        <ele>260</ele>
        <time>2020-08-25T09:34:09.079Z</time>
      </trkpt>
      <trkpt lat="43.97773" lon="2.23965">
        <ele>261</ele>
        <time>2020-08-25T09:34:10.079Z</time>
      </trkpt>
      <trkpt lat="43.97773" lon="2.23965">
        <ele>261</ele>
        <time>2020-08-25T09:34:11.079Z</time>
      </trkpt>
      <trkpt lat="43.97774" lon="2.23966">
        <ele>261</ele>
        <time>2020-08-25T09:34:12.079Z</time>
      </trkpt>
      <trkpt lat="43.97775" lon="2.23967">
        <ele>261</ele>
        <time>2020-08-25T09:34:13.079Z</time>
      </trkpt>
      <trkpt lat="43.97776" lon="2.23968">
        <ele>261</ele>
        <time>2020-08-25T09:34:14.079Z</time>
      </trkpt>
      <trkpt lat="43.97777" lon="2.23968">
        <ele>261</ele>
        <time>2020-08-25T09:34:15.079Z</time>
      </trkpt>
      <trkpt lat="43.97777" lon="2.23968">
        <ele>261</ele>
        <time>2020-08-25T09:34:16.079Z</time>
      </trkpt>
      <trkpt lat="43.97778" lon="2.23969">
        <ele>262</ele>
        <time>2020-08-25T09:34:17.079Z</time>
      </trkpt>
      <trkpt lat="43.97779" lon="2.23969">
        <ele>262</ele>
        <time>2020-08-25T09:34:18.079Z</time>
      </trkpt>
      <trkpt lat="43.9778" lon="2.2397">
        <ele>262</ele>
        <time>2020-08-25T09:34:19.079Z</time>
      </trkpt>
      <trkpt lat="43.97781" lon="2.2397">
        <ele>262</ele>
        <time>2020-08-25T09:34:20.079Z</time>
      </trkpt>
      <trkpt lat="43.97782" lon="2.23971">
        <ele>262</ele>
        <time>2020-08-25T09:34:21.079Z</time>
      </trkpt>
      <trkpt lat="43.97783" lon="2.23971">
        <ele>262</ele>
        <time>2020-08-25T09:34:22.079Z</time>
      </trkpt>
      <trkpt lat="43.97784" lon="2.23972">
        <ele>262</ele>
        <time>2020-08-25T09:34:23.079Z</time>
      </trkpt>
      <trkpt lat="43.97784" lon="2.23973">
        <ele>263</ele>
        <time>2020-08-25T09:34:24.079Z</time>
      </trkpt>
      <trkpt lat="43.97785" lon="2.23974">
        <ele>263</ele>
        <time>2020-08-25T09:34:25.079Z</time>
      </trkpt>
      <trkpt lat="43.97786" lon="2.23974">
        <ele>263</ele>
        <time>2020-08-25T09:34:26.079Z</time>
      </trkpt>
      <trkpt lat="43.97787" lon="2.23975">
        <ele>263</ele>
        <time>2020-08-25T09:34:27.079Z</time>
      </trkpt>
      <trkpt lat="43.97788" lon="2.23976">
        <ele>263</ele>
        <time>2020-08-25T09:34:28.079Z</time>
      </trkpt>
      <trkpt lat="43.97789" lon="2.23976">
        <ele>263</ele>
        <time>2020-08-25T09:34:29.079Z</time>
      </trkpt>
      <trkpt lat="43.97789" lon="2.23976">
        <ele>263</ele>
        <time>2020-08-25T09:34:30.079Z</time>
      </trkpt>
      <trkpt lat="43.97789" lon="2.23976">
        <ele>263</ele>
        <time>2020-08-25T09:34:31.079Z</time>
      </trkpt>
      <trkpt lat="43.97789" lon="2.23976">
        <ele>263</ele>
        <time>2020-08-25T09:34:32.079Z</time>
      </trkpt>
      <trkpt lat="43.97792" lon="2.23977">
        <ele>263</ele>
        <time>2020-08-25T09:34:49.083Z</time>
      </trkpt>
      <trkpt lat="43.97792" lon="2.23977">
        <ele>263</ele>
        <time>2020-08-25T09:34:50.083Z</time>
      </trkpt>
      <trkpt lat="43.97793" lon="2.23977">
        <ele>264</ele>
        <time>2020-08-25T09:34:51.083Z</time>
      </trkpt>
      <trkpt lat="43.97794" lon="2.23978">
        <ele>264</ele>
        <time>2020-08-25T09:34:52.083Z</time>
      </trkpt>
      <trkpt lat="43.97795" lon="2.23978">
        <ele>264</ele>
        <time>2020-08-25T09:34:53.083Z</time>
      </trkpt>
      <trkpt lat="43.97796" lon="2.23979">
        <ele>264</ele>
        <time>2020-08-25T09:34:54.083Z</time>
      </trkpt>
      <trkpt lat="43.97797" lon="2.23979">
        <ele>264</ele>
        <time>2020-08-25T09:34:55.083Z</time>
      </trkpt>
      <trkpt lat="43.97798" lon="2.2398">
        <ele>264</ele>
        <time>2020-08-25T09:34:56.083Z</time>
      </trkpt>
      <trkpt lat="43.97799" lon="2.2398">
        <ele>264</ele>
        <time>2020-08-25T09:34:57.083Z</time>
      </trkpt>
      <trkpt lat="43.978" lon="2.23981">
        <ele>264</ele>
        <time>2020-08-25T09:34:58.083Z</time>
      </trkpt>
      <trkpt lat="43.97801" lon="2.23982">
        <ele>264</ele>
        <time>2020-08-25T09:34:59.083Z</time>
      </trkpt>
      <trkpt lat="43.97802" lon="2.23982">
        <ele>264</ele>
        <time>2020-08-25T09:35:00.083Z</time>
      </trkpt>
      <trkpt lat="43.97803" lon="2.23983">
        <ele>264</ele>
        <time>2020-08-25T09:35:01.083Z</time>
      </trkpt>
      <trkpt lat="43.97805" lon="2.23983">
        <ele>264</ele>
        <time>2020-08-25T09:35:02.083Z</time>
      </trkpt>
      <trkpt lat="43.97806" lon="2.23984">
        <ele>264</ele>
        <time>2020-08-25T09:35:03.083Z</time>
      </trkpt>
      <trkpt lat="43.97807" lon="2.23985">
        <ele>264</ele>
        <time>2020-08-25T09:35:04.083Z</time>
      </trkpt>
      <trkpt lat="43.97808" lon="2.23986">
        <ele>264</ele>
        <time>2020-08-25T09:35:05.083Z</time>
      </trkpt>
      <trkpt lat="43.97809" lon="2.23986">
        <ele>264</ele>
        <time>2020-08-25T09:35:06.083Z</time>
      </trkpt>
      <trkpt lat="43.9781" lon="2.23987">
        <ele>264</ele>
        <time>2020-08-25T09:35:07.083Z</time>
      </trkpt>
      <trkpt lat="43.97811" lon="2.23987">
        <ele>264</ele>
        <time>2020-08-25T09:35:08.083Z</time>
      </trkpt>
      <trkpt lat="43.97812" lon="2.23988">
        <ele>264</ele>
        <time>2020-08-25T09:35:09.083Z</time>
      </trkpt>
      <trkpt lat="43.97813" lon="2.23988">
        <ele>264</ele>
        <time>2020-08-25T09:35:10.083Z</time>
      </trkpt>
      <trkpt lat="43.97814" lon="2.23988">
        <ele>264</ele>
        <time>2020-08-25T09:35:11.083Z</time>
      </trkpt>
      <trkpt lat="43.97815" lon="2.23989">
        <ele>264</ele>
        <time>2020-08-25T09:35:12.083Z</time>
      </trkpt>
      <trkpt lat="43.97817" lon="2.2399">
        <ele>264</ele>
        <time>2020-08-25T09:35:13.083Z</time>
      </trkpt>
      <trkpt lat="43.97818" lon="2.2399">
        <ele>264</ele>
        <time>2020-08-25T09:35:14.083Z</time>
      </trkpt>
      <trkpt lat="43.97819" lon="2.23991">
        <ele>264</ele>
        <time>2020-08-25T09:35:15.083Z</time>
      </trkpt>
      <trkpt lat="43.9782" lon="2.23992">
        <ele>264</ele>
        <time>2020-08-25T09:35:16.083Z</time>
      </trkpt>
      <trkpt lat="43.97822" lon="2.23993">
        <ele>265</ele>
        <time>2020-08-25T09:35:17.083Z</time>
      </trkpt>
      <trkpt lat="43.97823" lon="2.23994">
        <ele>265</ele>
        <time>2020-08-25T09:35:18.083Z</time>
      </trkpt>
      <trkpt lat="43.97824" lon="2.23995">
        <ele>265</ele>
        <time>2020-08-25T09:35:19.083Z</time>
      </trkpt>
      <trkpt lat="43.97825" lon="2.23996">
        <ele>265</ele>
        <time>2020-08-25T09:35:20.083Z</time>
      </trkpt>
      <trkpt lat="43.97826" lon="2.23997">
        <ele>265</ele>
        <time>2020-08-25T09:35:21.083Z</time>
      </trkpt>
      <trkpt lat="43.97827" lon="2.23997">
        <ele>265</ele>
        <time>2020-08-25T09:35:22.083Z</time>
      </trkpt>
      <trkpt lat="43.97828" lon="2.23998">
        <ele>265</ele>
        <time>2020-08-25T09:35:23.083Z</time>
      </trkpt>
      <trkpt lat="43.9783" lon="2.23998">
        <ele>265</ele>
        <time>2020-08-25T09:35:24.083Z</time>
      </trkpt>
      <trkpt lat="43.97831" lon="2.23999">
        <ele>265</ele>
        <time>2020-08-25T09:35:25.083Z</time>
      </trkpt>
      <trkpt lat="43.97832" lon="2.23999">
        <ele>266</ele>
        <time>2020-08-25T09:35:26.083Z</time>
      </trkpt>
      <trkpt lat="43.97833" lon="2.24">
        <ele>266</ele>
        <time>2020-08-25T09:35:27.083Z</time>
      </trkpt>
      <trkpt lat="43.97834" lon="2.24">
        <ele>266</ele>
        <time>2020-08-25T09:35:28.083Z</time>
      </trkpt>
      <trkpt lat="43.97835" lon="2.24001">
        <ele>266</ele>
        <time>2020-08-25T09:35:29.083Z</time>
      </trkpt>
      <trkpt lat="43.97836" lon="2.24002">
        <ele>266</ele>
        <time>2020-08-25T09:35:30.083Z</time>
      </trkpt>
      <trkpt lat="43.97837" lon="2.24003">
        <ele>266</ele>
        <time>2020-08-25T09:35:31.083Z</time>
      </trkpt>
      <trkpt lat="43.97838" lon="2.24004">
        <ele>266</ele>
        <time>2020-08-25T09:35:32.083Z</time>
      </trkpt>
      <trkpt lat="43.97839" lon="2.24004">
        <ele>266</ele>
        <time>2020-08-25T09:35:33.083Z</time>
      </trkpt>
      <trkpt lat="43.9784" lon="2.24005">
        <ele>266</ele>
        <time>2020-08-25T09:35:34.083Z</time>
      </trkpt>
      <trkpt lat="43.97842" lon="2.24006">
        <ele>266</ele>
        <time>2020-08-25T09:35:35.083Z</time>
      </trkpt>
      <trkpt lat="43.97843" lon="2.24007">
        <ele>266</ele>
        <time>2020-08-25T09:35:36.083Z</time>
      </trkpt>
      <trkpt lat="43.97844" lon="2.24008">
        <ele>266</ele>
        <time>2020-08-25T09:35:37.083Z</time>
      </trkpt>
      <trkpt lat="43.97845" lon="2.24009">
        <ele>266</ele>
        <time>2020-08-25T09:35:38.083Z</time>
      </trkpt>
      <trkpt lat="43.97845" lon="2.24009">
        <ele>267</ele>
        <time>2020-08-25T09:35:39.083Z</time>
      </trkpt>
      <trkpt lat="43.97846" lon="2.2401">
        <ele>267</ele>
        <time>2020-08-25T09:35:40.083Z</time>
      </trkpt>
      <trkpt lat="43.97847" lon="2.24011">
        <ele>267</ele>
        <time>2020-08-25T09:35:41.083Z</time>
      </trkpt>
      <trkpt lat="43.97848" lon="2.24012">
        <ele>267</ele>
        <time>2020-08-25T09:35:42.083Z</time>
      </trkpt>
      <trkpt lat="43.97849" lon="2.24012">
        <ele>267</ele>
        <time>2020-08-25T09:35:43.083Z</time>
      </trkpt>
      <trkpt lat="43.97849" lon="2.24012">
        <ele>267</ele>
        <time>2020-08-25T09:35:44.083Z</time>
      </trkpt>
      <trkpt lat="43.9785" lon="2.24012">
        <ele>267</ele>
        <time>2020-08-25T09:35:45.083Z</time>
      </trkpt>
      <trkpt lat="43.9785" lon="2.24012">
        <ele>267</ele>
        <time>2020-08-25T09:35:46.083Z</time>
      </trkpt>
      <trkpt lat="43.9785" lon="2.24012">
        <ele>267</ele>
        <time>2020-08-25T09:35:47.083Z</time>
      </trkpt>
      <trkpt lat="43.97853" lon="2.24013">
        <ele>268</ele>
        <time>2020-08-25T09:36:01.089Z</time>
      </trkpt>
      <trkpt lat="43.97854" lon="2.24013">
        <ele>268</ele>
        <time>2020-08-25T09:36:02.089Z</time>
      </trkpt>
      <trkpt lat="43.97855" lon="2.24013">
        <ele>268</ele>
        <time>2020-08-25T09:36:03.089Z</time>
      </trkpt>
      <trkpt lat="43.97856" lon="2.24013">
        <ele>268</ele>
        <time>2020-08-25T09:36:04.089Z</time>
      </trkpt>
      <trkpt lat="43.97857" lon="2.24014">
        <ele>268</ele>
        <time>2020-08-25T09:36:05.089Z</time>
      </trkpt>
      <trkpt lat="43.97858" lon="2.24014">
        <ele>268</ele>
        <time>2020-08-25T09:36:06.089Z</time>
      </trkpt>
      <trkpt lat="43.97858" lon="2.24014">
        <ele>268</ele>
        <time>2020-08-25T09:36:07.089Z</time>
      </trkpt>
      <trkpt lat="43.97859" lon="2.24014">
        <ele>268</ele>
        <time>2020-08-25T09:36:08.089Z</time>
      </trkpt>
      <trkpt lat="43.9786" lon="2.24014">
        <ele>268</ele>
        <time>2020-08-25T09:36:09.089Z</time>
      </trkpt>
      <trkpt lat="43.97861" lon="2.24014">
        <ele>268</ele>
        <time>2020-08-25T09:36:10.089Z</time>
      </trkpt>
      <trkpt lat="43.97862" lon="2.24014">
        <ele>268</ele>
        <time>2020-08-25T09:36:11.089Z</time>
      </trkpt>
      <trkpt lat="43.97863" lon="2.24014">
        <ele>268</ele>
        <time>2020-08-25T09:36:12.089Z</time>
      </trkpt>
      <trkpt lat="43.97864" lon="2.24013">
        <ele>269</ele>
        <time>2020-08-25T09:36:13.089Z</time>
      </trkpt>
      <trkpt lat="43.97864" lon="2.24013">
        <ele>269</ele>
        <time>2020-08-25T09:36:14.089Z</time>
      </trkpt>
      <trkpt lat="43.97865" lon="2.24014">
        <ele>269</ele>
        <time>2020-08-25T09:36:15.089Z</time>
      </trkpt>
      <trkpt lat="43.97866" lon="2.24014">
        <ele>269</ele>
        <time>2020-08-25T09:36:16.089Z</time>
      </trkpt>
      <trkpt lat="43.97867" lon="2.24014">
        <ele>269</ele>
        <time>2020-08-25T09:36:17.089Z</time>
      </trkpt>
      <trkpt lat="43.97868" lon="2.24015">
        <ele>269</ele>
        <time>2020-08-25T09:36:18.089Z</time>
      </trkpt>
      <trkpt lat="43.97869" lon="2.24015">
        <ele>269</ele>
        <time>2020-08-25T09:36:19.089Z</time>
      </trkpt>
      <trkpt lat="43.9787" lon="2.24015">
        <ele>269</ele>
        <time>2020-08-25T09:36:20.089Z</time>
      </trkpt>
      <trkpt lat="43.97871" lon="2.24016">
        <ele>269</ele>
        <time>2020-08-25T09:36:21.089Z</time>
      </trkpt>
      <trkpt lat="43.97872" lon="2.24017">
        <ele>269</ele>
        <time>2020-08-25T09:36:22.089Z</time>
      </trkpt>
      <trkpt lat="43.97873" lon="2.24017">
        <ele>269</ele>
        <time>2020-08-25T09:36:23.089Z</time>
      </trkpt>
      <trkpt lat="43.97875" lon="2.24017">
        <ele>269</ele>
        <time>2020-08-25T09:36:24.089Z</time>
      </trkpt>
      <trkpt lat="43.97876" lon="2.24018">
        <ele>269</ele>
        <time>2020-08-25T09:36:25.089Z</time>
      </trkpt>
      <trkpt lat="43.97877" lon="2.24018">
        <ele>269</ele>
        <time>2020-08-25T09:36:26.089Z</time>
      </trkpt>
      <trkpt lat="43.97878" lon="2.24019">
        <ele>270</ele>
        <time>2020-08-25T09:36:27.089Z</time>
      </trkpt>
      <trkpt lat="43.97879" lon="2.2402">
        <ele>270</ele>
        <time>2020-08-25T09:36:28.089Z</time>
      </trkpt>
      <trkpt lat="43.9788" lon="2.2402">
        <ele>270</ele>
        <time>2020-08-25T09:36:29.089Z</time>
      </trkpt>
      <trkpt lat="43.97881" lon="2.24021">
        <ele>270</ele>
        <time>2020-08-25T09:36:30.089Z</time>
      </trkpt>
      <trkpt lat="43.97882" lon="2.24022">
        <ele>269</ele>
        <time>2020-08-25T09:36:31.089Z</time>
      </trkpt>
      <trkpt lat="43.97883" lon="2.24022">
        <ele>269</ele>
        <time>2020-08-25T09:36:32.089Z</time>
      </trkpt>
      <trkpt lat="43.97885" lon="2.24023">
        <ele>269</ele>
        <time>2020-08-25T09:36:33.089Z</time>
      </trkpt>
      <trkpt lat="43.97886" lon="2.24024">
        <ele>269</ele>
        <time>2020-08-25T09:36:34.089Z</time>
      </trkpt>
      <trkpt lat="43.97887" lon="2.24024">
        <ele>269</ele>
        <time>2020-08-25T09:36:35.089Z</time>
      </trkpt>
      <trkpt lat="43.97888" lon="2.24025">
        <ele>269</ele>
        <time>2020-08-25T09:36:36.089Z</time>
      </trkpt>
      <trkpt lat="43.97889" lon="2.24026">
        <ele>270</ele>
        <time>2020-08-25T09:36:37.089Z</time>
      </trkpt>
      <trkpt lat="43.9789" lon="2.24026">
        <ele>270</ele>
        <time>2020-08-25T09:36:38.089Z</time>
      </trkpt>
      <trkpt lat="43.97891" lon="2.24027">
        <ele>270</ele>
        <time>2020-08-25T09:36:39.089Z</time>
      </trkpt>
      <trkpt lat="43.97891" lon="2.24027">
        <ele>270</ele>
        <time>2020-08-25T09:36:40.089Z</time>
      </trkpt>
      <trkpt lat="43.97892" lon="2.24027">
        <ele>270</ele>
        <time>2020-08-25T09:36:41.089Z</time>
      </trkpt>
      <trkpt lat="43.97893" lon="2.24028">
        <ele>270</ele>
        <time>2020-08-25T09:36:42.089Z</time>
      </trkpt>
      <trkpt lat="43.97894" lon="2.24028">
        <ele>270</ele>
        <time>2020-08-25T09:36:43.089Z</time>
      </trkpt>
      <trkpt lat="43.97895" lon="2.24029">
        <ele>270</ele>
        <time>2020-08-25T09:36:44.089Z</time>
      </trkpt>
      <trkpt lat="43.97896" lon="2.2403">
        <ele>270</ele>
        <time>2020-08-25T09:36:45.089Z</time>
      </trkpt>
      <trkpt lat="43.97897" lon="2.2403">
        <ele>271</ele>
        <time>2020-08-25T09:36:46.089Z</time>
      </trkpt>
      <trkpt lat="43.97898" lon="2.24031">
        <ele>271</ele>
        <time>2020-08-25T09:36:47.089Z</time>
      </trkpt>
      <trkpt lat="43.97899" lon="2.24032">
        <ele>271</ele>
        <time>2020-08-25T09:36:48.089Z</time>
      </trkpt>
      <trkpt lat="43.979" lon="2.24033">
        <ele>271</ele>
        <time>2020-08-25T09:36:49.089Z</time>
      </trkpt>
      <trkpt lat="43.97902" lon="2.24034">
        <ele>271</ele>
        <time>2020-08-25T09:36:50.089Z</time>
      </trkpt>
      <trkpt lat="43.97903" lon="2.24035">
        <ele>271</ele>
        <time>2020-08-25T09:36:51.089Z</time>
      </trkpt>
      <trkpt lat="43.97903" lon="2.24036">
        <ele>271</ele>
        <time>2020-08-25T09:36:52.089Z</time>
      </trkpt>
      <trkpt lat="43.97904" lon="2.24037">
        <ele>272</ele>
        <time>2020-08-25T09:36:53.089Z</time>
      </trkpt>
      <trkpt lat="43.97905" lon="2.24039">
        <ele>272</ele>
        <time>2020-08-25T09:36:54.089Z</time>
      </trkpt>
      <trkpt lat="43.97905" lon="2.24039">
        <ele>272</ele>
        <time>2020-08-25T09:36:55.089Z</time>
      </trkpt>
      <trkpt lat="43.97906" lon="2.24041">
        <ele>272</ele>
        <time>2020-08-25T09:36:56.089Z</time>
      </trkpt>
      <trkpt lat="43.97907" lon="2.24042">
        <ele>272</ele>
        <time>2020-08-25T09:36:57.089Z</time>
      </trkpt>
      <trkpt lat="43.97908" lon="2.24043">
        <ele>272</ele>
        <time>2020-08-25T09:36:58.089Z</time>
      </trkpt>
      <trkpt lat="43.97909" lon="2.24045">
        <ele>272</ele>
        <time>2020-08-25T09:36:59.089Z</time>
      </trkpt>
      <trkpt lat="43.97909" lon="2.24046">
        <ele>272</ele>
        <time>2020-08-25T09:37:00.089Z</time>
      </trkpt>
      <trkpt lat="43.9791" lon="2.24047">
        <ele>272</ele>
        <time>2020-08-25T09:37:01.089Z</time>
      </trkpt>
      <trkpt lat="43.97911" lon="2.24049">
        <ele>272</ele>
        <time>2020-08-25T09:37:02.089Z</time>
      </trkpt>
      <trkpt lat="43.97913" lon="2.2405">
        <ele>272</ele>
        <time>2020-08-25T09:37:03.089Z</time>
      </trkpt>
      <trkpt lat="43.97914" lon="2.24051">
        <ele>272</ele>
        <time>2020-08-25T09:37:04.089Z</time>
      </trkpt>
      <trkpt lat="43.97915" lon="2.24052">
        <ele>272</ele>
        <time>2020-08-25T09:37:05.089Z</time>
      </trkpt>
      <trkpt lat="43.97916" lon="2.24053">
        <ele>272</ele>
        <time>2020-08-25T09:37:06.089Z</time>
      </trkpt>
      <trkpt lat="43.97917" lon="2.24054">
        <ele>272</ele>
        <time>2020-08-25T09:37:07.089Z</time>
      </trkpt>
      <trkpt lat="43.97917" lon="2.24055">
        <ele>272</ele>
        <time>2020-08-25T09:37:08.089Z</time>
      </trkpt>
      <trkpt lat="43.97918" lon="2.24056">
        <ele>272</ele>
        <time>2020-08-25T09:37:09.089Z</time>
      </trkpt>
      <trkpt lat="43.97918" lon="2.24056">
        <ele>272</ele>
        <time>2020-08-25T09:37:10.089Z</time>
      </trkpt>
      <trkpt lat="43.97918" lon="2.24057">
        <ele>272</ele>
        <time>2020-08-25T09:37:11.089Z</time>
      </trkpt>
      <trkpt lat="43.97918" lon="2.24057">
        <ele>272</ele>
        <time>2020-08-25T09:37:12.089Z</time>
      </trkpt>
      <trkpt lat="43.97919" lon="2.24057">
        <ele>272</ele>
        <time>2020-08-25T09:37:13.089Z</time>
      </trkpt>
      <trkpt lat="43.9792" lon="2.2406">
        <ele>272</ele>
        <time>2020-08-25T09:37:16.316Z</time>
      </trkpt>
      <trkpt lat="43.97921" lon="2.24061">
        <ele>272</ele>
        <time>2020-08-25T09:37:17.316Z</time>
      </trkpt>
      <trkpt lat="43.97921" lon="2.24063">
        <ele>272</ele>
        <time>2020-08-25T09:37:18.316Z</time>
      </trkpt>
      <trkpt lat="43.97922" lon="2.24064">
        <ele>272</ele>
        <time>2020-08-25T09:37:19.316Z</time>
      </trkpt>
      <trkpt lat="43.97923" lon="2.24065">
        <ele>272</ele>
        <time>2020-08-25T09:37:20.316Z</time>
      </trkpt>
      <trkpt lat="43.97925" lon="2.24066">
        <ele>272</ele>
        <time>2020-08-25T09:37:21.316Z</time>
      </trkpt>
      <trkpt lat="43.97926" lon="2.24067">
        <ele>272</ele>
        <time>2020-08-25T09:37:22.316Z</time>
      </trkpt>
      <trkpt lat="43.97927" lon="2.24068">
        <ele>272</ele>
        <time>2020-08-25T09:37:23.316Z</time>
      </trkpt>
      <trkpt lat="43.97928" lon="2.24069">
        <ele>272</ele>
        <time>2020-08-25T09:37:24.316Z</time>
      </trkpt>
      <trkpt lat="43.97929" lon="2.2407">
        <ele>272</ele>
        <time>2020-08-25T09:37:25.316Z</time>
      </trkpt>
      <trkpt lat="43.9793" lon="2.24071">
        <ele>272</ele>
        <time>2020-08-25T09:37:26.316Z</time>
      </trkpt>
      <trkpt lat="43.9793" lon="2.24072">
        <ele>272</ele>
        <time>2020-08-25T09:37:27.316Z</time>
      </trkpt>
      <trkpt lat="43.97931" lon="2.24073">
        <ele>272</ele>
        <time>2020-08-25T09:37:28.316Z</time>
      </trkpt>
      <trkpt lat="43.97932" lon="2.24074">
        <ele>272</ele>
        <time>2020-08-25T09:37:29.316Z</time>
      </trkpt>
      <trkpt lat="43.97933" lon="2.24075">
        <ele>272</ele>
        <time>2020-08-25T09:37:30.316Z</time>
      </trkpt>
      <trkpt lat="43.97934" lon="2.24076">
        <ele>272</ele>
        <time>2020-08-25T09:37:31.316Z</time>
      </trkpt>
      <trkpt lat="43.97935" lon="2.24077">
        <ele>272</ele>
        <time>2020-08-25T09:37:32.316Z</time>
      </trkpt>
      <trkpt lat="43.97935" lon="2.24078">
        <ele>272</ele>
        <time>2020-08-25T09:37:33.316Z</time>
      </trkpt>
      <trkpt lat="43.97936" lon="2.24079">
        <ele>272</ele>
        <time>2020-08-25T09:37:34.316Z</time>
      </trkpt>
      <trkpt lat="43.97937" lon="2.2408">
        <ele>272</ele>
        <time>2020-08-25T09:37:35.316Z</time>
      </trkpt>
      <trkpt lat="43.97938" lon="2.24081">
        <ele>272</ele>
        <time>2020-08-25T09:37:36.316Z</time>
      </trkpt>
      <trkpt lat="43.97939" lon="2.24081">
        <ele>272</ele>
        <time>2020-08-25T09:37:37.316Z</time>
      </trkpt>
      <trkpt lat="43.9794" lon="2.24082">
        <ele>272</ele>
        <time>2020-08-25T09:37:38.316Z</time>
      </trkpt>
      <trkpt lat="43.97941" lon="2.24083">
        <ele>272</ele>
        <time>2020-08-25T09:37:39.316Z</time>
      </trkpt>
      <trkpt lat="43.97942" lon="2.24083">
        <ele>272</ele>
        <time>2020-08-25T09:37:40.316Z</time>
      </trkpt>
      <trkpt lat="43.97943" lon="2.24084">
        <ele>272</ele>
        <time>2020-08-25T09:37:41.316Z</time>
      </trkpt>
      <trkpt lat="43.97944" lon="2.24085">
        <ele>272</ele>
        <time>2020-08-25T09:37:42.316Z</time>
      </trkpt>
      <trkpt lat="43.97945" lon="2.24086">
        <ele>272</ele>
        <time>2020-08-25T09:37:43.316Z</time>
      </trkpt>
      <trkpt lat="43.97945" lon="2.24087">
        <ele>272</ele>
        <time>2020-08-25T09:37:44.316Z</time>
      </trkpt>
      <trkpt lat="43.97946" lon="2.24088">
        <ele>272</ele>
        <time>2020-08-25T09:37:45.316Z</time>
      </trkpt>
      <trkpt lat="43.97946" lon="2.24089">
        <ele>272</ele>
        <time>2020-08-25T09:37:46.316Z</time>
      </trkpt>
      <trkpt lat="43.97947" lon="2.24089">
        <ele>272</ele>
        <time>2020-08-25T09:37:47.316Z</time>
      </trkpt>
      <trkpt lat="43.97947" lon="2.2409">
        <ele>272</ele>
        <time>2020-08-25T09:37:48.316Z</time>
      </trkpt>
      <trkpt lat="43.97948" lon="2.24091">
        <ele>272</ele>
        <time>2020-08-25T09:37:49.316Z</time>
      </trkpt>
      <trkpt lat="43.97948" lon="2.24092">
        <ele>272</ele>
        <time>2020-08-25T09:37:50.316Z</time>
      </trkpt>
      <trkpt lat="43.97949" lon="2.24092">
        <ele>272</ele>
        <time>2020-08-25T09:37:51.316Z</time>
      </trkpt>
      <trkpt lat="43.9795" lon="2.24093">
        <ele>272</ele>
        <time>2020-08-25T09:37:52.316Z</time>
      </trkpt>
      <trkpt lat="43.9795" lon="2.24094">
        <ele>272</ele>
        <time>2020-08-25T09:37:53.316Z</time>
      </trkpt>
      <trkpt lat="43.97951" lon="2.24095">
        <ele>272</ele>
        <time>2020-08-25T09:37:54.316Z</time>
      </trkpt>
      <trkpt lat="43.97952" lon="2.24096">
        <ele>272</ele>
        <time>2020-08-25T09:37:55.316Z</time>
      </trkpt>
      <trkpt lat="43.97953" lon="2.24097">
        <ele>272</ele>
        <time>2020-08-25T09:37:56.316Z</time>
      </trkpt>
      <trkpt lat="43.97954" lon="2.24098">
        <ele>272</ele>
        <time>2020-08-25T09:37:57.316Z</time>
      </trkpt>
      <trkpt lat="43.97955" lon="2.24098">
        <ele>272</ele>
        <time>2020-08-25T09:37:58.316Z</time>
      </trkpt>
      <trkpt lat="43.97955" lon="2.24099">
        <ele>272</ele>
        <time>2020-08-25T09:37:59.316Z</time>
      </trkpt>
      <trkpt lat="43.97956" lon="2.241">
        <ele>272</ele>
        <time>2020-08-25T09:38:00.316Z</time>
      </trkpt>
      <trkpt lat="43.97957" lon="2.24101">
        <ele>272</ele>
        <time>2020-08-25T09:38:01.316Z</time>
      </trkpt>
      <trkpt lat="43.97958" lon="2.24101">
        <ele>272</ele>
        <time>2020-08-25T09:38:02.316Z</time>
      </trkpt>
      <trkpt lat="43.97958" lon="2.24102">
        <ele>272</ele>
        <time>2020-08-25T09:38:03.316Z</time>
      </trkpt>
      <trkpt lat="43.97959" lon="2.24103">
        <ele>272</ele>
        <time>2020-08-25T09:38:04.316Z</time>
      </trkpt>
      <trkpt lat="43.9796" lon="2.24104">
        <ele>272</ele>
        <time>2020-08-25T09:38:05.316Z</time>
      </trkpt>
      <trkpt lat="43.97961" lon="2.24105">
        <ele>272</ele>
        <time>2020-08-25T09:38:06.316Z</time>
      </trkpt>
      <trkpt lat="43.97962" lon="2.24106">
        <ele>272</ele>
        <time>2020-08-25T09:38:07.316Z</time>
      </trkpt>
      <trkpt lat="43.97962" lon="2.24107">
        <ele>273</ele>
        <time>2020-08-25T09:38:08.316Z</time>
      </trkpt>
      <trkpt lat="43.97963" lon="2.24107">
        <ele>273</ele>
        <time>2020-08-25T09:38:09.316Z</time>
      </trkpt>
      <trkpt lat="43.97963" lon="2.24108">
        <ele>273</ele>
        <time>2020-08-25T09:38:10.316Z</time>
      </trkpt>
      <trkpt lat="43.97964" lon="2.24109">
        <ele>273</ele>
        <time>2020-08-25T09:38:11.316Z</time>
      </trkpt>
      <trkpt lat="43.97965" lon="2.2411">
        <ele>273</ele>
        <time>2020-08-25T09:38:12.316Z</time>
      </trkpt>
      <trkpt lat="43.97966" lon="2.24111">
        <ele>273</ele>
        <time>2020-08-25T09:38:13.316Z</time>
      </trkpt>
      <trkpt lat="43.97966" lon="2.24113">
        <ele>273</ele>
        <time>2020-08-25T09:38:14.316Z</time>
      </trkpt>
      <trkpt lat="43.97967" lon="2.24115">
        <ele>273</ele>
        <time>2020-08-25T09:38:15.316Z</time>
      </trkpt>
      <trkpt lat="43.97968" lon="2.24116">
        <ele>273</ele>
        <time>2020-08-25T09:38:16.316Z</time>
      </trkpt>
      <trkpt lat="43.97969" lon="2.24118">
        <ele>273</ele>
        <time>2020-08-25T09:38:17.316Z</time>
      </trkpt>
      <trkpt lat="43.97969" lon="2.24119">
        <ele>273</ele>
        <time>2020-08-25T09:38:18.316Z</time>
      </trkpt>
      <trkpt lat="43.9797" lon="2.2412">
        <ele>273</ele>
        <time>2020-08-25T09:38:19.316Z</time>
      </trkpt>
      <trkpt lat="43.97971" lon="2.24122">
        <ele>273</ele>
        <time>2020-08-25T09:38:20.316Z</time>
      </trkpt>
      <trkpt lat="43.97971" lon="2.24123">
        <ele>274</ele>
        <time>2020-08-25T09:38:21.316Z</time>
      </trkpt>
      <trkpt lat="43.97972" lon="2.24124">
        <ele>274</ele>
        <time>2020-08-25T09:38:22.316Z</time>
      </trkpt>
      <trkpt lat="43.97973" lon="2.24125">
        <ele>274</ele>
        <time>2020-08-25T09:38:23.316Z</time>
      </trkpt>
      <trkpt lat="43.97974" lon="2.24127">
        <ele>274</ele>
        <time>2020-08-25T09:38:24.316Z</time>
      </trkpt>
      <trkpt lat="43.97975" lon="2.24128">
        <ele>274</ele>
        <time>2020-08-25T09:38:25.316Z</time>
      </trkpt>
      <trkpt lat="43.97976" lon="2.2413">
        <ele>274</ele>
        <time>2020-08-25T09:38:26.316Z</time>
      </trkpt>
      <trkpt lat="43.97977" lon="2.24131">
        <ele>273</ele>
        <time>2020-08-25T09:38:27.316Z</time>
      </trkpt>
      <trkpt lat="43.97978" lon="2.24133">
        <ele>273</ele>
        <time>2020-08-25T09:38:28.316Z</time>
      </trkpt>
      <trkpt lat="43.97978" lon="2.24134">
        <ele>273</ele>
        <time>2020-08-25T09:38:29.316Z</time>
      </trkpt>
      <trkpt lat="43.97979" lon="2.24135">
        <ele>273</ele>
        <time>2020-08-25T09:38:30.316Z</time>
      </trkpt>
      <trkpt lat="43.9798" lon="2.24137">
        <ele>273</ele>
        <time>2020-08-25T09:38:31.316Z</time>
      </trkpt>
      <trkpt lat="43.9798" lon="2.24138">
        <ele>273</ele>
        <time>2020-08-25T09:38:32.316Z</time>
      </trkpt>
      <trkpt lat="43.97981" lon="2.2414">
        <ele>273</ele>
        <time>2020-08-25T09:38:33.316Z</time>
      </trkpt>
      <trkpt lat="43.97982" lon="2.24141">
        <ele>273</ele>
        <time>2020-08-25T09:38:34.316Z</time>
      </trkpt>
      <trkpt lat="43.97982" lon="2.24142">
        <ele>273</ele>
        <time>2020-08-25T09:38:35.316Z</time>
      </trkpt>
      <trkpt lat="43.97983" lon="2.24144">
        <ele>273</ele>
        <time>2020-08-25T09:38:36.316Z</time>
      </trkpt>
      <trkpt lat="43.97983" lon="2.24145">
        <ele>273</ele>
        <time>2020-08-25T09:38:37.316Z</time>
      </trkpt>
      <trkpt lat="43.97984" lon="2.24147">
        <ele>273</ele>
        <time>2020-08-25T09:38:38.316Z</time>
      </trkpt>
      <trkpt lat="43.97984" lon="2.24148">
        <ele>273</ele>
        <time>2020-08-25T09:38:39.316Z</time>
      </trkpt>
      <trkpt lat="43.97985" lon="2.2415">
        <ele>273</ele>
        <time>2020-08-25T09:38:40.316Z</time>
      </trkpt>
      <trkpt lat="43.97985" lon="2.24151">
        <ele>273</ele>
        <time>2020-08-25T09:38:41.316Z</time>
      </trkpt>
      <trkpt lat="43.97985" lon="2.24153">
        <ele>273</ele>
        <time>2020-08-25T09:38:42.316Z</time>
      </trkpt>
      <trkpt lat="43.97986" lon="2.24154">
        <ele>273</ele>
        <time>2020-08-25T09:38:43.316Z</time>
      </trkpt>
      <trkpt lat="43.97986" lon="2.24156">
        <ele>273</ele>
        <time>2020-08-25T09:38:44.316Z</time>
      </trkpt>
      <trkpt lat="43.97986" lon="2.24157">
        <ele>273</ele>
        <time>2020-08-25T09:38:45.316Z</time>
      </trkpt>
      <trkpt lat="43.97987" lon="2.24159">
        <ele>273</ele>
        <time>2020-08-25T09:38:46.316Z</time>
      </trkpt>
      <trkpt lat="43.97987" lon="2.2416">
        <ele>273</ele>
        <time>2020-08-25T09:38:47.316Z</time>
      </trkpt>
      <trkpt lat="43.97987" lon="2.24162">
        <ele>273</ele>
        <time>2020-08-25T09:38:48.316Z</time>
      </trkpt>
      <trkpt lat="43.97986" lon="2.24163">
        <ele>273</ele>
        <time>2020-08-25T09:38:49.316Z</time>
      </trkpt>
      <trkpt lat="43.97986" lon="2.24164">
        <ele>273</ele>
        <time>2020-08-25T09:38:50.316Z</time>
      </trkpt>
      <trkpt lat="43.97985" lon="2.24165">
        <ele>273</ele>
        <time>2020-08-25T09:38:51.316Z</time>
      </trkpt>
      <trkpt lat="43.97985" lon="2.24165">
        <ele>273</ele>
        <time>2020-08-25T09:38:52.316Z</time>
      </trkpt>
      <trkpt lat="43.97985" lon="2.24166">
        <ele>273</ele>
        <time>2020-08-25T09:38:53.316Z</time>
      </trkpt>
      <trkpt lat="43.97985" lon="2.24166">
        <ele>273</ele>
        <time>2020-08-25T09:38:54.316Z</time>
      </trkpt>
      <trkpt lat="43.97985" lon="2.24166">
        <ele>273</ele>
        <time>2020-08-25T09:38:55.316Z</time>
      </trkpt>
      <trkpt lat="43.97984" lon="2.24168">
        <ele>272</ele>
        <time>2020-08-25T09:38:59.325Z</time>
      </trkpt>
      <trkpt lat="43.97984" lon="2.24168">
        <ele>272</ele>
        <time>2020-08-25T09:39:00.325Z</time>
      </trkpt>
      <trkpt lat="43.97984" lon="2.24169">
        <ele>272</ele>
        <time>2020-08-25T09:39:01.325Z</time>
      </trkpt>
      <trkpt lat="43.97984" lon="2.2417">
        <ele>272</ele>
        <time>2020-08-25T09:39:02.325Z</time>
      </trkpt>
      <trkpt lat="43.97984" lon="2.24171">
        <ele>272</ele>
        <time>2020-08-25T09:39:03.325Z</time>
      </trkpt>
      <trkpt lat="43.97984" lon="2.24174">
        <ele>272</ele>
        <time>2020-08-25T09:39:06.552Z</time>
      </trkpt>
      <trkpt lat="43.97984" lon="2.24175">
        <ele>272</ele>
        <time>2020-08-25T09:39:07.552Z</time>
      </trkpt>
      <trkpt lat="43.97984" lon="2.24177">
        <ele>272</ele>
        <time>2020-08-25T09:39:08.552Z</time>
      </trkpt>
      <trkpt lat="43.97984" lon="2.24179">
        <ele>272</ele>
        <time>2020-08-25T09:39:09.552Z</time>
      </trkpt>
      <trkpt lat="43.97984" lon="2.24181">
        <ele>272</ele>
        <time>2020-08-25T09:39:10.552Z</time>
      </trkpt>
      <trkpt lat="43.97984" lon="2.24182">
        <ele>272</ele>
        <time>2020-08-25T09:39:11.552Z</time>
      </trkpt>
      <trkpt lat="43.97984" lon="2.24184">
        <ele>272</ele>
        <time>2020-08-25T09:39:12.552Z</time>
      </trkpt>
      <trkpt lat="43.97983" lon="2.24186">
        <ele>272</ele>
        <time>2020-08-25T09:39:13.552Z</time>
      </trkpt>
      <trkpt lat="43.97983" lon="2.24187">
        <ele>271</ele>
        <time>2020-08-25T09:39:14.552Z</time>
      </trkpt>
      <trkpt lat="43.97982" lon="2.24189">
        <ele>271</ele>
        <time>2020-08-25T09:39:15.552Z</time>
      </trkpt>
      <trkpt lat="43.97982" lon="2.2419">
        <ele>271</ele>
        <time>2020-08-25T09:39:16.552Z</time>
      </trkpt>
      <trkpt lat="43.97981" lon="2.24192">
        <ele>271</ele>
        <time>2020-08-25T09:39:17.552Z</time>
      </trkpt>
      <trkpt lat="43.97981" lon="2.24193">
        <ele>271</ele>
        <time>2020-08-25T09:39:18.552Z</time>
      </trkpt>
      <trkpt lat="43.9798" lon="2.24195">
        <ele>271</ele>
        <time>2020-08-25T09:39:19.552Z</time>
      </trkpt>
      <trkpt lat="43.9798" lon="2.24196">
        <ele>271</ele>
        <time>2020-08-25T09:39:20.552Z</time>
      </trkpt>
      <trkpt lat="43.97979" lon="2.24198">
        <ele>270</ele>
        <time>2020-08-25T09:39:21.552Z</time>
      </trkpt>
      <trkpt lat="43.97979" lon="2.242">
        <ele>270</ele>
        <time>2020-08-25T09:39:22.552Z</time>
      </trkpt>
      <trkpt lat="43.97978" lon="2.24201">
        <ele>270</ele>
        <time>2020-08-25T09:39:23.552Z</time>
      </trkpt>
      <trkpt lat="43.97977" lon="2.24203">
        <ele>270</ele>
        <time>2020-08-25T09:39:24.552Z</time>
      </trkpt>
      <trkpt lat="43.97977" lon="2.24204">
        <ele>270</ele>
        <time>2020-08-25T09:39:25.552Z</time>
      </trkpt>
      <trkpt lat="43.97976" lon="2.24206">
        <ele>270</ele>
        <time>2020-08-25T09:39:26.552Z</time>
      </trkpt>
      <trkpt lat="43.97975" lon="2.24207">
        <ele>270</ele>
        <time>2020-08-25T09:39:27.552Z</time>
      </trkpt>
      <trkpt lat="43.97975" lon="2.24209">
        <ele>270</ele>
        <time>2020-08-25T09:39:28.552Z</time>
      </trkpt>
      <trkpt lat="43.97974" lon="2.2421">
        <ele>270</ele>
        <time>2020-08-25T09:39:29.552Z</time>
      </trkpt>
      <trkpt lat="43.97974" lon="2.24212">
        <ele>270</ele>
        <time>2020-08-25T09:39:30.552Z</time>
      </trkpt>
      <trkpt lat="43.97973" lon="2.24213">
        <ele>269</ele>
        <time>2020-08-25T09:39:31.552Z</time>
      </trkpt>
      <trkpt lat="43.97973" lon="2.24215">
        <ele>269</ele>
        <time>2020-08-25T09:39:32.552Z</time>
      </trkpt>
      <trkpt lat="43.97972" lon="2.24216">
        <ele>269</ele>
        <time>2020-08-25T09:39:33.552Z</time>
      </trkpt>
      <trkpt lat="43.97972" lon="2.24217">
        <ele>269</ele>
        <time>2020-08-25T09:39:34.552Z</time>
      </trkpt>
      <trkpt lat="43.97972" lon="2.24218">
        <ele>269</ele>
        <time>2020-08-25T09:39:35.552Z</time>
      </trkpt>
      <trkpt lat="43.97971" lon="2.24219">
        <ele>268</ele>
        <time>2020-08-25T09:39:36.552Z</time>
      </trkpt>
      <trkpt lat="43.97971" lon="2.24219">
        <ele>268</ele>
        <time>2020-08-25T09:39:37.552Z</time>
      </trkpt>
      <trkpt lat="43.97971" lon="2.24219">
        <ele>268</ele>
        <time>2020-08-25T09:39:38.552Z</time>
      </trkpt>
      <trkpt lat="43.97971" lon="2.24221">
        <ele>268</ele>
        <time>2020-08-25T09:39:41.779Z</time>
      </trkpt>
      <trkpt lat="43.97971" lon="2.24222">
        <ele>268</ele>
        <time>2020-08-25T09:39:42.779Z</time>
      </trkpt>
      <trkpt lat="43.97972" lon="2.24223">
        <ele>267</ele>
        <time>2020-08-25T09:39:43.779Z</time>
      </trkpt>
      <trkpt lat="43.97972" lon="2.24225">
        <ele>267</ele>
        <time>2020-08-25T09:39:44.779Z</time>
      </trkpt>
      <trkpt lat="43.97972" lon="2.24226">
        <ele>267</ele>
        <time>2020-08-25T09:39:45.779Z</time>
      </trkpt>
      <trkpt lat="43.97972" lon="2.24228">
        <ele>267</ele>
        <time>2020-08-25T09:39:46.779Z</time>
      </trkpt>
      <trkpt lat="43.97972" lon="2.24229">
        <ele>267</ele>
        <time>2020-08-25T09:39:47.779Z</time>
      </trkpt>
      <trkpt lat="43.97972" lon="2.24231">
        <ele>267</ele>
        <time>2020-08-25T09:39:48.779Z</time>
      </trkpt>
      <trkpt lat="43.97972" lon="2.24232">
        <ele>267</ele>
        <time>2020-08-25T09:39:49.779Z</time>
      </trkpt>
      <trkpt lat="43.97972" lon="2.24234">
        <ele>267</ele>
        <time>2020-08-25T09:39:50.779Z</time>
      </trkpt>
      <trkpt lat="43.97972" lon="2.24235">
        <ele>267</ele>
        <time>2020-08-25T09:39:51.779Z</time>
      </trkpt>
      <trkpt lat="43.97972" lon="2.24237">
        <ele>267</ele>
        <time>2020-08-25T09:39:52.779Z</time>
      </trkpt>
      <trkpt lat="43.97972" lon="2.24239">
        <ele>267</ele>
        <time>2020-08-25T09:39:53.779Z</time>
      </trkpt>
      <trkpt lat="43.97972" lon="2.2424">
        <ele>267</ele>
        <time>2020-08-25T09:39:54.779Z</time>
      </trkpt>
      <trkpt lat="43.97971" lon="2.24241">
        <ele>267</ele>
        <time>2020-08-25T09:39:55.779Z</time>
      </trkpt>
      <trkpt lat="43.97971" lon="2.24243">
        <ele>267</ele>
        <time>2020-08-25T09:39:56.779Z</time>
      </trkpt>
      <trkpt lat="43.97971" lon="2.24244">
        <ele>267</ele>
        <time>2020-08-25T09:39:57.779Z</time>
      </trkpt>
      <trkpt lat="43.97971" lon="2.24246">
        <ele>267</ele>
        <time>2020-08-25T09:39:58.779Z</time>
      </trkpt>
      <trkpt lat="43.97971" lon="2.24247">
        <ele>267</ele>
        <time>2020-08-25T09:39:59.779Z</time>
      </trkpt>
      <trkpt lat="43.9797" lon="2.24248">
        <ele>267</ele>
        <time>2020-08-25T09:40:00.779Z</time>
      </trkpt>
      <trkpt lat="43.9797" lon="2.2425">
        <ele>267</ele>
        <time>2020-08-25T09:40:01.779Z</time>
      </trkpt>
      <trkpt lat="43.9797" lon="2.24252">
        <ele>267</ele>
        <time>2020-08-25T09:40:02.779Z</time>
      </trkpt>
      <trkpt lat="43.9797" lon="2.24253">
        <ele>267</ele>
        <time>2020-08-25T09:40:03.779Z</time>
      </trkpt>
      <trkpt lat="43.97969" lon="2.24255">
        <ele>267</ele>
        <time>2020-08-25T09:40:04.779Z</time>
      </trkpt>
      <trkpt lat="43.97968" lon="2.24256">
        <ele>267</ele>
        <time>2020-08-25T09:40:05.779Z</time>
      </trkpt>
      <trkpt lat="43.97968" lon="2.24257">
        <ele>267</ele>
        <time>2020-08-25T09:40:06.779Z</time>
      </trkpt>
      <trkpt lat="43.97967" lon="2.24258">
        <ele>267</ele>
        <time>2020-08-25T09:40:07.779Z</time>
      </trkpt>
      <trkpt lat="43.97967" lon="2.2426">
        <ele>267</ele>
        <time>2020-08-25T09:40:08.779Z</time>
      </trkpt>
      <trkpt lat="43.97966" lon="2.24261">
        <ele>267</ele>
        <time>2020-08-25T09:40:09.779Z</time>
      </trkpt>
      <trkpt lat="43.97966" lon="2.24263">
        <ele>267</ele>
        <time>2020-08-25T09:40:10.779Z</time>
      </trkpt>
      <trkpt lat="43.97965" lon="2.24264">
        <ele>267</ele>
        <time>2020-08-25T09:40:11.779Z</time>
      </trkpt>
      <trkpt lat="43.97964" lon="2.24265">
        <ele>267</ele>
        <time>2020-08-25T09:40:12.779Z</time>
      </trkpt>
      <trkpt lat="43.97964" lon="2.24267">
        <ele>267</ele>
        <time>2020-08-25T09:40:13.779Z</time>
      </trkpt>
      <trkpt lat="43.97963" lon="2.24268">
        <ele>267</ele>
        <time>2020-08-25T09:40:14.779Z</time>
      </trkpt>
      <trkpt lat="43.97963" lon="2.24269">
        <ele>267</ele>
        <time>2020-08-25T09:40:15.779Z</time>
      </trkpt>
      <trkpt lat="43.97963" lon="2.2427">
        <ele>267</ele>
        <time>2020-08-25T09:40:16.779Z</time>
      </trkpt>
      <trkpt lat="43.97963" lon="2.24272">
        <ele>267</ele>
        <time>2020-08-25T09:40:17.779Z</time>
      </trkpt>
      <trkpt lat="43.97962" lon="2.24273">
        <ele>267</ele>
        <time>2020-08-25T09:40:18.779Z</time>
      </trkpt>
      <trkpt lat="43.97962" lon="2.24274">
        <ele>267</ele>
        <time>2020-08-25T09:40:19.779Z</time>
      </trkpt>
      <trkpt lat="43.97962" lon="2.24276">
        <ele>267</ele>
        <time>2020-08-25T09:40:20.779Z</time>
      </trkpt>
      <trkpt lat="43.97962" lon="2.24277">
        <ele>267</ele>
        <time>2020-08-25T09:40:21.779Z</time>
      </trkpt>
      <trkpt lat="43.97961" lon="2.24278">
        <ele>267</ele>
        <time>2020-08-25T09:40:22.779Z</time>
      </trkpt>
      <trkpt lat="43.97961" lon="2.2428">
        <ele>267</ele>
        <time>2020-08-25T09:40:23.779Z</time>
      </trkpt>
      <trkpt lat="43.9796" lon="2.24281">
        <ele>267</ele>
        <time>2020-08-25T09:40:24.779Z</time>
      </trkpt>
      <trkpt lat="43.9796" lon="2.24282">
        <ele>267</ele>
        <time>2020-08-25T09:40:25.779Z</time>
      </trkpt>
      <trkpt lat="43.9796" lon="2.24284">
        <ele>267</ele>
        <time>2020-08-25T09:40:26.779Z</time>
      </trkpt>
      <trkpt lat="43.97959" lon="2.24285">
        <ele>267</ele>
        <time>2020-08-25T09:40:27.779Z</time>
      </trkpt>
      <trkpt lat="43.97959" lon="2.24287">
        <ele>267</ele>
        <time>2020-08-25T09:40:28.779Z</time>
      </trkpt>
      <trkpt lat="43.97958" lon="2.24288">
        <ele>268</ele>
        <time>2020-08-25T09:40:29.779Z</time>
      </trkpt>
      <trkpt lat="43.97957" lon="2.24289">
        <ele>268</ele>
        <time>2020-08-25T09:40:30.779Z</time>
      </trkpt>
      <trkpt lat="43.97957" lon="2.2429">
        <ele>268</ele>
        <time>2020-08-25T09:40:31.779Z</time>
      </trkpt>
      <trkpt lat="43.97957" lon="2.24292">
        <ele>268</ele>
        <time>2020-08-25T09:40:32.779Z</time>
      </trkpt>
      <trkpt lat="43.97956" lon="2.24293">
        <ele>268</ele>
        <time>2020-08-25T09:40:33.779Z</time>
      </trkpt>
      <trkpt lat="43.97956" lon="2.24295">
        <ele>268</ele>
        <time>2020-08-25T09:40:34.779Z</time>
      </trkpt>
      <trkpt lat="43.97956" lon="2.24296">
        <ele>268</ele>
        <time>2020-08-25T09:40:35.779Z</time>
      </trkpt>
      <trkpt lat="43.97956" lon="2.24298">
        <ele>268</ele>
        <time>2020-08-25T09:40:36.779Z</time>
      </trkpt>
      <trkpt lat="43.97956" lon="2.24299">
        <ele>268</ele>
        <time>2020-08-25T09:40:37.779Z</time>
      </trkpt>
      <trkpt lat="43.97955" lon="2.243">
        <ele>268</ele>
        <time>2020-08-25T09:40:38.779Z</time>
      </trkpt>
      <trkpt lat="43.97955" lon="2.24302">
        <ele>268</ele>
        <time>2020-08-25T09:40:39.779Z</time>
      </trkpt>
      <trkpt lat="43.97955" lon="2.24304">
        <ele>268</ele>
        <time>2020-08-25T09:40:40.779Z</time>
      </trkpt>
      <trkpt lat="43.97955" lon="2.24305">
        <ele>269</ele>
        <time>2020-08-25T09:40:41.779Z</time>
      </trkpt>
      <trkpt lat="43.97955" lon="2.24307">
        <ele>269</ele>
        <time>2020-08-25T09:40:42.779Z</time>
      </trkpt>
      <trkpt lat="43.97955" lon="2.24308">
        <ele>269</ele>
        <time>2020-08-25T09:40:43.779Z</time>
      </trkpt>
      <trkpt lat="43.97955" lon="2.2431">
        <ele>269</ele>
        <time>2020-08-25T09:40:44.779Z</time>
      </trkpt>
      <trkpt lat="43.97955" lon="2.24312">
        <ele>269</ele>
        <time>2020-08-25T09:40:45.779Z</time>
      </trkpt>
      <trkpt lat="43.97955" lon="2.24313">
        <ele>269</ele>
        <time>2020-08-25T09:40:46.779Z</time>
      </trkpt>
      <trkpt lat="43.97955" lon="2.24315">
        <ele>269</ele>
        <time>2020-08-25T09:40:47.779Z</time>
      </trkpt>
      <trkpt lat="43.97955" lon="2.24316">
        <ele>269</ele>
        <time>2020-08-25T09:40:48.779Z</time>
      </trkpt>
      <trkpt lat="43.97954" lon="2.24318">
        <ele>269</ele>
        <time>2020-08-25T09:40:49.779Z</time>
      </trkpt>
      <trkpt lat="43.97954" lon="2.24319">
        <ele>269</ele>
        <time>2020-08-25T09:40:50.779Z</time>
      </trkpt>
      <trkpt lat="43.97954" lon="2.2432">
        <ele>270</ele>
        <time>2020-08-25T09:40:51.779Z</time>
      </trkpt>
      <trkpt lat="43.97953" lon="2.24321">
        <ele>270</ele>
        <time>2020-08-25T09:40:52.779Z</time>
      </trkpt>
      <trkpt lat="43.97953" lon="2.24322">
        <ele>270</ele>
        <time>2020-08-25T09:40:53.779Z</time>
      </trkpt>
      <trkpt lat="43.97952" lon="2.24322">
        <ele>270</ele>
        <time>2020-08-25T09:40:54.779Z</time>
      </trkpt>
      <trkpt lat="43.97951" lon="2.24323">
        <ele>270</ele>
        <time>2020-08-25T09:40:55.779Z</time>
      </trkpt>
      <trkpt lat="43.97951" lon="2.24324">
        <ele>270</ele>
        <time>2020-08-25T09:40:56.779Z</time>
      </trkpt>
      <trkpt lat="43.9795" lon="2.24325">
        <ele>270</ele>
        <time>2020-08-25T09:40:57.779Z</time>
      </trkpt>
      <trkpt lat="43.9795" lon="2.24326">
        <ele>270</ele>
        <time>2020-08-25T09:40:58.779Z</time>
      </trkpt>
      <trkpt lat="43.9795" lon="2.24327">
        <ele>270</ele>
        <time>2020-08-25T09:40:59.779Z</time>
      </trkpt>
      <trkpt lat="43.97949" lon="2.24328">
        <ele>270</ele>
        <time>2020-08-25T09:41:00.779Z</time>
      </trkpt>
      <trkpt lat="43.97948" lon="2.24328">
        <ele>270</ele>
        <time>2020-08-25T09:41:01.779Z</time>
      </trkpt>
      <trkpt lat="43.97947" lon="2.24329">
        <ele>271</ele>
        <time>2020-08-25T09:41:02.779Z</time>
      </trkpt>
      <trkpt lat="43.97947" lon="2.24329">
        <ele>271</ele>
        <time>2020-08-25T09:41:03.779Z</time>
      </trkpt>
      <trkpt lat="43.97947" lon="2.24329">
        <ele>271</ele>
        <time>2020-08-25T09:41:04.779Z</time>
      </trkpt>
      <trkpt lat="43.97947" lon="2.24329">
        <ele>271</ele>
        <time>2020-08-25T09:41:05.779Z</time>
      </trkpt>
      <trkpt lat="43.97947" lon="2.24329">
        <ele>271</ele>
        <time>2020-08-25T09:41:06.779Z</time>
      </trkpt>
      <trkpt lat="43.97947" lon="2.24329">
        <ele>271</ele>
        <time>2020-08-25T09:41:07.779Z</time>
      </trkpt>
      <trkpt lat="43.97945" lon="2.2433">
        <ele>271</ele>
        <time>2020-08-25T09:41:10.991Z</time>
      </trkpt>
      <trkpt lat="43.97945" lon="2.2433">
        <ele>271</ele>
        <time>2020-08-25T09:41:11.991Z</time>
      </trkpt>
      <trkpt lat="43.97945" lon="2.24331">
        <ele>271</ele>
        <time>2020-08-25T09:41:12.991Z</time>
      </trkpt>
      <trkpt lat="43.97945" lon="2.24331">
        <ele>271</ele>
        <time>2020-08-25T09:41:13.991Z</time>
      </trkpt>
      <trkpt lat="43.97945" lon="2.24332">
        <ele>271</ele>
        <time>2020-08-25T09:41:18.004Z</time>
      </trkpt>
      <trkpt lat="43.97944" lon="2.24333">
        <ele>271</ele>
        <time>2020-08-25T09:41:19.004Z</time>
      </trkpt>
      <trkpt lat="43.97944" lon="2.24333">
        <ele>271</ele>
        <time>2020-08-25T09:41:20.004Z</time>
      </trkpt>
      <trkpt lat="43.97944" lon="2.24334">
        <ele>271</ele>
        <time>2020-08-25T09:41:21.004Z</time>
      </trkpt>
      <trkpt lat="43.97943" lon="2.24334">
        <ele>272</ele>
        <time>2020-08-25T09:41:22.004Z</time>
      </trkpt>
      <trkpt lat="43.97943" lon="2.24335">
        <ele>272</ele>
        <time>2020-08-25T09:41:23.004Z</time>
      </trkpt>
      <trkpt lat="43.97944" lon="2.24338">
        <ele>276</ele>
        <time>2020-08-25T09:42:35.019Z</time>
      </trkpt>
      <trkpt lat="43.97945" lon="2.24337">
        <ele>276</ele>
        <time>2020-08-25T09:42:36.019Z</time>
      </trkpt>
      <trkpt lat="43.97946" lon="2.24338">
        <ele>276</ele>
        <time>2020-08-25T09:42:37.019Z</time>
      </trkpt>
      <trkpt lat="43.97946" lon="2.24339">
        <ele>276</ele>
        <time>2020-08-25T09:42:38.019Z</time>
      </trkpt>
      <trkpt lat="43.97947" lon="2.24339">
        <ele>276</ele>
        <time>2020-08-25T09:42:39.019Z</time>
      </trkpt>
      <trkpt lat="43.97947" lon="2.2434">
        <ele>276</ele>
        <time>2020-08-25T09:42:40.019Z</time>
      </trkpt>
      <trkpt lat="43.97947" lon="2.2434">
        <ele>277</ele>
        <time>2020-08-25T09:42:41.019Z</time>
      </trkpt>
      <trkpt lat="43.97947" lon="2.2434">
        <ele>277</ele>
        <time>2020-08-25T09:42:42.019Z</time>
      </trkpt>
      <trkpt lat="43.97947" lon="2.2434">
        <ele>277</ele>
        <time>2020-08-25T09:42:43.019Z</time>
      </trkpt>
      <trkpt lat="43.9794" lon="2.24338">
        <ele>274</ele>
        <time>2020-08-25T09:46:41.036Z</time>
      </trkpt>
      <trkpt lat="43.9794" lon="2.24337">
        <ele>274</ele>
        <time>2020-08-25T09:46:42.036Z</time>
      </trkpt>
      <trkpt lat="43.9794" lon="2.24337">
        <ele>274</ele>
        <time>2020-08-25T09:46:43.036Z</time>
      </trkpt>
      <trkpt lat="43.9794" lon="2.24337">
        <ele>274</ele>
        <time>2020-08-25T09:46:44.036Z</time>
      </trkpt>
      <trkpt lat="43.9794" lon="2.24337">
        <ele>274</ele>
        <time>2020-08-25T09:46:45.036Z</time>
      </trkpt>
      <trkpt lat="43.9794" lon="2.24337">
        <ele>274</ele>
        <time>2020-08-25T09:46:46.036Z</time>
      </trkpt>
      <trkpt lat="43.97949" lon="2.24334">
        <ele>275</ele>
        <time>2020-08-25T09:55:14.054Z</time>
      </trkpt>
      <trkpt lat="43.97949" lon="2.24334">
        <ele>275</ele>
        <time>2020-08-25T09:55:15.054Z</time>
      </trkpt>
      <trkpt lat="43.97948" lon="2.24334">
        <ele>275</ele>
        <time>2020-08-25T09:55:16.054Z</time>
      </trkpt>
      <trkpt lat="43.97948" lon="2.24334">
        <ele>275</ele>
        <time>2020-08-25T09:55:17.054Z</time>
      </trkpt>
      <trkpt lat="43.97945" lon="2.24332">
        <ele>273</ele>
        <time>2020-08-25T09:58:59.059Z</time>
      </trkpt>
      <trkpt lat="43.97946" lon="2.24331">
        <ele>273</ele>
        <time>2020-08-25T09:59:00.059Z</time>
      </trkpt>
      <trkpt lat="43.97947" lon="2.24331">
        <ele>273</ele>
        <time>2020-08-25T09:59:01.059Z</time>
      </trkpt>
      <trkpt lat="43.97947" lon="2.2433">
        <ele>273</ele>
        <time>2020-08-25T09:59:02.059Z</time>
      </trkpt>
      <trkpt lat="43.97947" lon="2.2433">
        <ele>273</ele>
        <time>2020-08-25T09:59:03.059Z</time>
      </trkpt>
      <trkpt lat="43.97947" lon="2.2433">
        <ele>273</ele>
        <time>2020-08-25T09:59:04.059Z</time>
      </trkpt>
      <trkpt lat="43.97947" lon="2.2433">
        <ele>273</ele>
        <time>2020-08-25T09:59:05.059Z</time>
      </trkpt>
      <trkpt lat="43.97947" lon="2.2433">
        <ele>273</ele>
        <time>2020-08-25T09:59:06.059Z</time>
      </trkpt>
      <trkpt lat="43.97948" lon="2.24328">
        <ele>273</ele>
        <time>2020-08-25T09:59:09.286Z</time>
      </trkpt>
      <trkpt lat="43.97949" lon="2.24327">
        <ele>273</ele>
        <time>2020-08-25T09:59:10.286Z</time>
      </trkpt>
      <trkpt lat="43.97949" lon="2.24326">
        <ele>273</ele>
        <time>2020-08-25T09:59:11.286Z</time>
      </trkpt>
      <trkpt lat="43.9795" lon="2.24326">
        <ele>273</ele>
        <time>2020-08-25T09:59:12.286Z</time>
      </trkpt>
      <trkpt lat="43.9795" lon="2.24327">
        <ele>273</ele>
        <time>2020-08-25T09:59:13.286Z</time>
      </trkpt>
      <trkpt lat="43.97951" lon="2.24328">
        <ele>273</ele>
        <time>2020-08-25T09:59:14.286Z</time>
      </trkpt>
      <trkpt lat="43.97951" lon="2.24329">
        <ele>273</ele>
        <time>2020-08-25T09:59:15.286Z</time>
      </trkpt>
      <trkpt lat="43.97951" lon="2.2433">
        <ele>273</ele>
        <time>2020-08-25T09:59:16.286Z</time>
      </trkpt>
      <trkpt lat="43.97951" lon="2.24332">
        <ele>273</ele>
        <time>2020-08-25T09:59:17.286Z</time>
      </trkpt>
      <trkpt lat="43.97951" lon="2.24333">
        <ele>273</ele>
        <time>2020-08-25T09:59:18.286Z</time>
      </trkpt>
      <trkpt lat="43.97951" lon="2.24335">
        <ele>273</ele>
        <time>2020-08-25T09:59:19.286Z</time>
      </trkpt>
      <trkpt lat="43.9795" lon="2.24336">
        <ele>273</ele>
        <time>2020-08-25T09:59:20.286Z</time>
      </trkpt>
      <trkpt lat="43.9795" lon="2.24338">
        <ele>273</ele>
        <time>2020-08-25T09:59:21.286Z</time>
      </trkpt>
      <trkpt lat="43.9795" lon="2.2434">
        <ele>274</ele>
        <time>2020-08-25T09:59:22.286Z</time>
      </trkpt>
      <trkpt lat="43.9795" lon="2.24342">
        <ele>274</ele>
        <time>2020-08-25T09:59:23.286Z</time>
      </trkpt>
      <trkpt lat="43.97951" lon="2.24343">
        <ele>274</ele>
        <time>2020-08-25T09:59:24.286Z</time>
      </trkpt>
      <trkpt lat="43.9795" lon="2.24345">
        <ele>274</ele>
        <time>2020-08-25T09:59:25.286Z</time>
      </trkpt>
      <trkpt lat="43.9795" lon="2.24347">
        <ele>274</ele>
        <time>2020-08-25T09:59:26.286Z</time>
      </trkpt>
      <trkpt lat="43.9795" lon="2.24348">
        <ele>274</ele>
        <time>2020-08-25T09:59:27.286Z</time>
      </trkpt>
      <trkpt lat="43.9795" lon="2.2435">
        <ele>274</ele>
        <time>2020-08-25T09:59:28.286Z</time>
      </trkpt>
      <trkpt lat="43.97951" lon="2.24351">
        <ele>274</ele>
        <time>2020-08-25T09:59:29.286Z</time>
      </trkpt>
      <trkpt lat="43.97951" lon="2.24353">
        <ele>274</ele>
        <time>2020-08-25T09:59:30.286Z</time>
      </trkpt>
      <trkpt lat="43.9795" lon="2.24354">
        <ele>274</ele>
        <time>2020-08-25T09:59:31.286Z</time>
      </trkpt>
      <trkpt lat="43.9795" lon="2.24356">
        <ele>274</ele>
        <time>2020-08-25T09:59:32.286Z</time>
      </trkpt>
      <trkpt lat="43.9795" lon="2.24357">
        <ele>274</ele>
        <time>2020-08-25T09:59:33.286Z</time>
      </trkpt>
      <trkpt lat="43.9795" lon="2.24359">
        <ele>274</ele>
        <time>2020-08-25T09:59:34.286Z</time>
      </trkpt>
      <trkpt lat="43.9795" lon="2.2436">
        <ele>274</ele>
        <time>2020-08-25T09:59:35.286Z</time>
      </trkpt>
      <trkpt lat="43.9795" lon="2.24362">
        <ele>274</ele>
        <time>2020-08-25T09:59:36.286Z</time>
      </trkpt>
      <trkpt lat="43.9795" lon="2.24363">
        <ele>274</ele>
        <time>2020-08-25T09:59:37.286Z</time>
      </trkpt>
      <trkpt lat="43.9795" lon="2.24364">
        <ele>274</ele>
        <time>2020-08-25T09:59:38.286Z</time>
      </trkpt>
      <trkpt lat="43.97949" lon="2.24366">
        <ele>274</ele>
        <time>2020-08-25T09:59:39.286Z</time>
      </trkpt>
      <trkpt lat="43.97949" lon="2.24367">
        <ele>274</ele>
        <time>2020-08-25T09:59:40.286Z</time>
      </trkpt>
      <trkpt lat="43.97949" lon="2.24369">
        <ele>274</ele>
        <time>2020-08-25T09:59:41.286Z</time>
      </trkpt>
      <trkpt lat="43.97949" lon="2.2437">
        <ele>274</ele>
        <time>2020-08-25T09:59:42.286Z</time>
      </trkpt>
      <trkpt lat="43.97949" lon="2.24372">
        <ele>274</ele>
        <time>2020-08-25T09:59:43.286Z</time>
      </trkpt>
      <trkpt lat="43.97948" lon="2.24373">
        <ele>274</ele>
        <time>2020-08-25T09:59:44.286Z</time>
      </trkpt>
      <trkpt lat="43.97948" lon="2.24374">
        <ele>274</ele>
        <time>2020-08-25T09:59:45.286Z</time>
      </trkpt>
      <trkpt lat="43.97947" lon="2.24376">
        <ele>274</ele>
        <time>2020-08-25T09:59:46.286Z</time>
      </trkpt>
      <trkpt lat="43.97947" lon="2.24377">
        <ele>274</ele>
        <time>2020-08-25T09:59:47.286Z</time>
      </trkpt>
      <trkpt lat="43.97946" lon="2.24379">
        <ele>274</ele>
        <time>2020-08-25T09:59:48.286Z</time>
      </trkpt>
      <trkpt lat="43.97946" lon="2.2438">
        <ele>274</ele>
        <time>2020-08-25T09:59:49.286Z</time>
      </trkpt>
      <trkpt lat="43.97945" lon="2.24382">
        <ele>274</ele>
        <time>2020-08-25T09:59:50.286Z</time>
      </trkpt>
      <trkpt lat="43.97945" lon="2.24383">
        <ele>274</ele>
        <time>2020-08-25T09:59:51.286Z</time>
      </trkpt>
      <trkpt lat="43.97945" lon="2.24384">
        <ele>274</ele>
        <time>2020-08-25T09:59:52.286Z</time>
      </trkpt>
      <trkpt lat="43.97944" lon="2.24386">
        <ele>273</ele>
        <time>2020-08-25T09:59:53.286Z</time>
      </trkpt>
      <trkpt lat="43.97944" lon="2.24387">
        <ele>274</ele>
        <time>2020-08-25T09:59:54.286Z</time>
      </trkpt>
      <trkpt lat="43.97943" lon="2.24388">
        <ele>274</ele>
        <time>2020-08-25T09:59:55.286Z</time>
      </trkpt>
      <trkpt lat="43.97943" lon="2.24389">
        <ele>274</ele>
        <time>2020-08-25T09:59:56.286Z</time>
      </trkpt>
      <trkpt lat="43.97942" lon="2.24391">
        <ele>274</ele>
        <time>2020-08-25T09:59:57.286Z</time>
      </trkpt>
      <trkpt lat="43.97942" lon="2.24392">
        <ele>274</ele>
        <time>2020-08-25T09:59:58.286Z</time>
      </trkpt>
      <trkpt lat="43.97941" lon="2.24393">
        <ele>274</ele>
        <time>2020-08-25T09:59:59.286Z</time>
      </trkpt>
      <trkpt lat="43.9794" lon="2.24395">
        <ele>274</ele>
        <time>2020-08-25T10:00:00.286Z</time>
      </trkpt>
      <trkpt lat="43.9794" lon="2.24396">
        <ele>274</ele>
        <time>2020-08-25T10:00:01.286Z</time>
      </trkpt>
      <trkpt lat="43.9794" lon="2.24397">
        <ele>274</ele>
        <time>2020-08-25T10:00:02.286Z</time>
      </trkpt>
      <trkpt lat="43.97939" lon="2.24399">
        <ele>274</ele>
        <time>2020-08-25T10:00:03.286Z</time>
      </trkpt>
      <trkpt lat="43.97939" lon="2.244">
        <ele>274</ele>
        <time>2020-08-25T10:00:04.286Z</time>
      </trkpt>
      <trkpt lat="43.97939" lon="2.24401">
        <ele>274</ele>
        <time>2020-08-25T10:00:05.286Z</time>
      </trkpt>
      <trkpt lat="43.97938" lon="2.24403">
        <ele>274</ele>
        <time>2020-08-25T10:00:06.286Z</time>
      </trkpt>
      <trkpt lat="43.97938" lon="2.24404">
        <ele>274</ele>
        <time>2020-08-25T10:00:07.286Z</time>
      </trkpt>
      <trkpt lat="43.97937" lon="2.24405">
        <ele>274</ele>
        <time>2020-08-25T10:00:08.286Z</time>
      </trkpt>
      <trkpt lat="43.97936" lon="2.24407">
        <ele>274</ele>
        <time>2020-08-25T10:00:09.286Z</time>
      </trkpt>
      <trkpt lat="43.97935" lon="2.24408">
        <ele>274</ele>
        <time>2020-08-25T10:00:10.286Z</time>
      </trkpt>
      <trkpt lat="43.97934" lon="2.24409">
        <ele>274</ele>
        <time>2020-08-25T10:00:11.286Z</time>
      </trkpt>
      <trkpt lat="43.97934" lon="2.2441">
        <ele>274</ele>
        <time>2020-08-25T10:00:12.286Z</time>
      </trkpt>
      <trkpt lat="43.97933" lon="2.24411">
        <ele>274</ele>
        <time>2020-08-25T10:00:13.286Z</time>
      </trkpt>
      <trkpt lat="43.97932" lon="2.24412">
        <ele>274</ele>
        <time>2020-08-25T10:00:14.286Z</time>
      </trkpt>
      <trkpt lat="43.97931" lon="2.24413">
        <ele>274</ele>
        <time>2020-08-25T10:00:15.286Z</time>
      </trkpt>
      <trkpt lat="43.97931" lon="2.24414">
        <ele>274</ele>
        <time>2020-08-25T10:00:16.286Z</time>
      </trkpt>
      <trkpt lat="43.9793" lon="2.24415">
        <ele>274</ele>
        <time>2020-08-25T10:00:17.286Z</time>
      </trkpt>
      <trkpt lat="43.97929" lon="2.24416">
        <ele>275</ele>
        <time>2020-08-25T10:00:18.286Z</time>
      </trkpt>
      <trkpt lat="43.97928" lon="2.24417">
        <ele>275</ele>
        <time>2020-08-25T10:00:19.286Z</time>
      </trkpt>
      <trkpt lat="43.97927" lon="2.24418">
        <ele>275</ele>
        <time>2020-08-25T10:00:20.286Z</time>
      </trkpt>
      <trkpt lat="43.97926" lon="2.24419">
        <ele>275</ele>
        <time>2020-08-25T10:00:21.286Z</time>
      </trkpt>
      <trkpt lat="43.97925" lon="2.2442">
        <ele>275</ele>
        <time>2020-08-25T10:00:22.286Z</time>
      </trkpt>
      <trkpt lat="43.97924" lon="2.24421">
        <ele>275</ele>
        <time>2020-08-25T10:00:23.286Z</time>
      </trkpt>
      <trkpt lat="43.97923" lon="2.24421">
        <ele>275</ele>
        <time>2020-08-25T10:00:24.286Z</time>
      </trkpt>
      <trkpt lat="43.97923" lon="2.24422">
        <ele>275</ele>
        <time>2020-08-25T10:00:25.286Z</time>
      </trkpt>
      <trkpt lat="43.97922" lon="2.24423">
        <ele>275</ele>
        <time>2020-08-25T10:00:26.286Z</time>
      </trkpt>
      <trkpt lat="43.97921" lon="2.24424">
        <ele>275</ele>
        <time>2020-08-25T10:00:27.286Z</time>
      </trkpt>
      <trkpt lat="43.9792" lon="2.24425">
        <ele>275</ele>
        <time>2020-08-25T10:00:28.286Z</time>
      </trkpt>
      <trkpt lat="43.9792" lon="2.24426">
        <ele>275</ele>
        <time>2020-08-25T10:00:29.286Z</time>
      </trkpt>
      <trkpt lat="43.97919" lon="2.24427">
        <ele>275</ele>
        <time>2020-08-25T10:00:30.286Z</time>
      </trkpt>
      <trkpt lat="43.97918" lon="2.24428">
        <ele>275</ele>
        <time>2020-08-25T10:00:31.286Z</time>
      </trkpt>
      <trkpt lat="43.97917" lon="2.24429">
        <ele>275</ele>
        <time>2020-08-25T10:00:32.286Z</time>
      </trkpt>
      <trkpt lat="43.97916" lon="2.2443">
        <ele>275</ele>
        <time>2020-08-25T10:00:33.286Z</time>
      </trkpt>
      <trkpt lat="43.97915" lon="2.24431">
        <ele>275</ele>
        <time>2020-08-25T10:00:34.286Z</time>
      </trkpt>
      <trkpt lat="43.97915" lon="2.24431">
        <ele>275</ele>
        <time>2020-08-25T10:00:35.286Z</time>
      </trkpt>
      <trkpt lat="43.97914" lon="2.24432">
        <ele>275</ele>
        <time>2020-08-25T10:00:36.286Z</time>
      </trkpt>
      <trkpt lat="43.97913" lon="2.24433">
        <ele>275</ele>
        <time>2020-08-25T10:00:37.286Z</time>
      </trkpt>
      <trkpt lat="43.97912" lon="2.24434">
        <ele>275</ele>
        <time>2020-08-25T10:00:38.286Z</time>
      </trkpt>
      <trkpt lat="43.97911" lon="2.24435">
        <ele>275</ele>
        <time>2020-08-25T10:00:39.286Z</time>
      </trkpt>
      <trkpt lat="43.9791" lon="2.24436">
        <ele>276</ele>
        <time>2020-08-25T10:00:40.286Z</time>
      </trkpt>
      <trkpt lat="43.97909" lon="2.24437">
        <ele>276</ele>
        <time>2020-08-25T10:00:41.286Z</time>
      </trkpt>
      <trkpt lat="43.97908" lon="2.24438">
        <ele>276</ele>
        <time>2020-08-25T10:00:42.286Z</time>
      </trkpt>
      <trkpt lat="43.97908" lon="2.24439">
        <ele>276</ele>
        <time>2020-08-25T10:00:43.286Z</time>
      </trkpt>
      <trkpt lat="43.97907" lon="2.2444">
        <ele>276</ele>
        <time>2020-08-25T10:00:44.286Z</time>
      </trkpt>
      <trkpt lat="43.97906" lon="2.24441">
        <ele>276</ele>
        <time>2020-08-25T10:00:45.286Z</time>
      </trkpt>
      <trkpt lat="43.97905" lon="2.24442">
        <ele>277</ele>
        <time>2020-08-25T10:00:46.286Z</time>
      </trkpt>
      <trkpt lat="43.97904" lon="2.24443">
        <ele>277</ele>
        <time>2020-08-25T10:00:47.286Z</time>
      </trkpt>
      <trkpt lat="43.97903" lon="2.24444">
        <ele>277</ele>
        <time>2020-08-25T10:00:48.286Z</time>
      </trkpt>
      <trkpt lat="43.97903" lon="2.24445">
        <ele>277</ele>
        <time>2020-08-25T10:00:49.286Z</time>
      </trkpt>
      <trkpt lat="43.97902" lon="2.24446">
        <ele>277</ele>
        <time>2020-08-25T10:00:50.286Z</time>
      </trkpt>
      <trkpt lat="43.97901" lon="2.24447">
        <ele>277</ele>
        <time>2020-08-25T10:00:51.286Z</time>
      </trkpt>
      <trkpt lat="43.97901" lon="2.24447">
        <ele>277</ele>
        <time>2020-08-25T10:00:52.286Z</time>
      </trkpt>
      <trkpt lat="43.979" lon="2.24448">
        <ele>277</ele>
        <time>2020-08-25T10:00:53.286Z</time>
      </trkpt>
      <trkpt lat="43.97899" lon="2.24449">
        <ele>277</ele>
        <time>2020-08-25T10:00:54.286Z</time>
      </trkpt>
      <trkpt lat="43.97898" lon="2.2445">
        <ele>278</ele>
        <time>2020-08-25T10:00:55.286Z</time>
      </trkpt>
      <trkpt lat="43.97898" lon="2.24451">
        <ele>278</ele>
        <time>2020-08-25T10:00:56.286Z</time>
      </trkpt>
      <trkpt lat="43.97897" lon="2.24451">
        <ele>278</ele>
        <time>2020-08-25T10:00:57.286Z</time>
      </trkpt>
      <trkpt lat="43.97896" lon="2.24452">
        <ele>278</ele>
        <time>2020-08-25T10:00:58.286Z</time>
      </trkpt>
      <trkpt lat="43.97895" lon="2.24453">
        <ele>278</ele>
        <time>2020-08-25T10:00:59.286Z</time>
      </trkpt>
      <trkpt lat="43.97895" lon="2.24454">
        <ele>278</ele>
        <time>2020-08-25T10:01:00.286Z</time>
      </trkpt>
      <trkpt lat="43.97894" lon="2.24455">
        <ele>278</ele>
        <time>2020-08-25T10:01:01.286Z</time>
      </trkpt>
      <trkpt lat="43.97893" lon="2.24456">
        <ele>278</ele>
        <time>2020-08-25T10:01:02.286Z</time>
      </trkpt>
      <trkpt lat="43.97892" lon="2.24457">
        <ele>279</ele>
        <time>2020-08-25T10:01:03.286Z</time>
      </trkpt>
      <trkpt lat="43.97892" lon="2.24458">
        <ele>279</ele>
        <time>2020-08-25T10:01:04.286Z</time>
      </trkpt>
      <trkpt lat="43.97891" lon="2.24459">
        <ele>279</ele>
        <time>2020-08-25T10:01:05.286Z</time>
      </trkpt>
      <trkpt lat="43.9789" lon="2.24461">
        <ele>279</ele>
        <time>2020-08-25T10:01:06.286Z</time>
      </trkpt>
      <trkpt lat="43.97889" lon="2.24462">
        <ele>279</ele>
        <time>2020-08-25T10:01:07.286Z</time>
      </trkpt>
      <trkpt lat="43.97889" lon="2.24463">
        <ele>280</ele>
        <time>2020-08-25T10:01:08.286Z</time>
      </trkpt>
      <trkpt lat="43.97888" lon="2.24464">
        <ele>280</ele>
        <time>2020-08-25T10:01:09.286Z</time>
      </trkpt>
      <trkpt lat="43.97887" lon="2.24465">
        <ele>280</ele>
        <time>2020-08-25T10:01:10.286Z</time>
      </trkpt>
      <trkpt lat="43.97886" lon="2.24466">
        <ele>280</ele>
        <time>2020-08-25T10:01:11.286Z</time>
      </trkpt>
      <trkpt lat="43.97886" lon="2.24467">
        <ele>280</ele>
        <time>2020-08-25T10:01:12.286Z</time>
      </trkpt>
      <trkpt lat="43.97885" lon="2.24469">
        <ele>280</ele>
        <time>2020-08-25T10:01:13.286Z</time>
      </trkpt>
      <trkpt lat="43.97885" lon="2.2447">
        <ele>280</ele>
        <time>2020-08-25T10:01:14.286Z</time>
      </trkpt>
      <trkpt lat="43.97884" lon="2.24471">
        <ele>280</ele>
        <time>2020-08-25T10:01:15.286Z</time>
      </trkpt>
      <trkpt lat="43.97884" lon="2.24473">
        <ele>281</ele>
        <time>2020-08-25T10:01:16.286Z</time>
      </trkpt>
      <trkpt lat="43.97883" lon="2.24474">
        <ele>281</ele>
        <time>2020-08-25T10:01:17.286Z</time>
      </trkpt>
      <trkpt lat="43.97883" lon="2.24475">
        <ele>281</ele>
        <time>2020-08-25T10:01:18.286Z</time>
      </trkpt>
      <trkpt lat="43.97882" lon="2.24476">
        <ele>281</ele>
        <time>2020-08-25T10:01:19.286Z</time>
      </trkpt>
      <trkpt lat="43.97882" lon="2.24478">
        <ele>281</ele>
        <time>2020-08-25T10:01:20.286Z</time>
      </trkpt>
      <trkpt lat="43.97882" lon="2.24479">
        <ele>281</ele>
        <time>2020-08-25T10:01:21.286Z</time>
      </trkpt>
      <trkpt lat="43.97881" lon="2.2448">
        <ele>282</ele>
        <time>2020-08-25T10:01:22.286Z</time>
      </trkpt>
      <trkpt lat="43.97881" lon="2.24481">
        <ele>282</ele>
        <time>2020-08-25T10:01:23.286Z</time>
      </trkpt>
      <trkpt lat="43.97881" lon="2.24482">
        <ele>282</ele>
        <time>2020-08-25T10:01:24.286Z</time>
      </trkpt>
      <trkpt lat="43.97881" lon="2.24482">
        <ele>282</ele>
        <time>2020-08-25T10:01:25.286Z</time>
      </trkpt>
      <trkpt lat="43.97881" lon="2.24483">
        <ele>282</ele>
        <time>2020-08-25T10:01:26.286Z</time>
      </trkpt>
      <trkpt lat="43.97881" lon="2.24483">
        <ele>283</ele>
        <time>2020-08-25T10:01:27.286Z</time>
      </trkpt>
      <trkpt lat="43.97881" lon="2.24483">
        <ele>283</ele>
        <time>2020-08-25T10:01:28.286Z</time>
      </trkpt>
      <trkpt lat="43.97881" lon="2.24485">
        <ele>284</ele>
        <time>2020-08-25T10:01:35.297Z</time>
      </trkpt>
      <trkpt lat="43.9788" lon="2.24486">
        <ele>284</ele>
        <time>2020-08-25T10:01:36.297Z</time>
      </trkpt>
      <trkpt lat="43.9788" lon="2.24487">
        <ele>284</ele>
        <time>2020-08-25T10:01:37.297Z</time>
      </trkpt>
      <trkpt lat="43.97879" lon="2.24489">
        <ele>284</ele>
        <time>2020-08-25T10:01:38.297Z</time>
      </trkpt>
      <trkpt lat="43.97879" lon="2.24491">
        <ele>284</ele>
        <time>2020-08-25T10:01:39.297Z</time>
      </trkpt>
      <trkpt lat="43.97878" lon="2.24492">
        <ele>284</ele>
        <time>2020-08-25T10:01:40.297Z</time>
      </trkpt>
      <trkpt lat="43.97878" lon="2.24494">
        <ele>285</ele>
        <time>2020-08-25T10:01:41.297Z</time>
      </trkpt>
      <trkpt lat="43.97877" lon="2.24495">
        <ele>285</ele>
        <time>2020-08-25T10:01:42.297Z</time>
      </trkpt>
      <trkpt lat="43.97877" lon="2.24497">
        <ele>285</ele>
        <time>2020-08-25T10:01:43.297Z</time>
      </trkpt>
      <trkpt lat="43.97876" lon="2.24498">
        <ele>285</ele>
        <time>2020-08-25T10:01:44.297Z</time>
      </trkpt>
      <trkpt lat="43.97875" lon="2.24499">
        <ele>285</ele>
        <time>2020-08-25T10:01:45.297Z</time>
      </trkpt>
      <trkpt lat="43.97875" lon="2.245">
        <ele>285</ele>
        <time>2020-08-25T10:01:46.297Z</time>
      </trkpt>
      <trkpt lat="43.97874" lon="2.24502">
        <ele>285</ele>
        <time>2020-08-25T10:01:47.297Z</time>
      </trkpt>
      <trkpt lat="43.97874" lon="2.24503">
        <ele>285</ele>
        <time>2020-08-25T10:01:48.297Z</time>
      </trkpt>
      <trkpt lat="43.97873" lon="2.24504">
        <ele>285</ele>
        <time>2020-08-25T10:01:49.297Z</time>
      </trkpt>
      <trkpt lat="43.97872" lon="2.24506">
        <ele>286</ele>
        <time>2020-08-25T10:01:50.297Z</time>
      </trkpt>
      <trkpt lat="43.97872" lon="2.24507">
        <ele>286</ele>
        <time>2020-08-25T10:01:51.297Z</time>
      </trkpt>
      <trkpt lat="43.97871" lon="2.24509">
        <ele>286</ele>
        <time>2020-08-25T10:01:52.297Z</time>
      </trkpt>
      <trkpt lat="43.97871" lon="2.2451">
        <ele>286</ele>
        <time>2020-08-25T10:01:53.297Z</time>
      </trkpt>
      <trkpt lat="43.9787" lon="2.24511">
        <ele>286</ele>
        <time>2020-08-25T10:01:54.297Z</time>
      </trkpt>
      <trkpt lat="43.97869" lon="2.24512">
        <ele>287</ele>
        <time>2020-08-25T10:01:55.297Z</time>
      </trkpt>
      <trkpt lat="43.97868" lon="2.24514">
        <ele>287</ele>
        <time>2020-08-25T10:01:56.297Z</time>
      </trkpt>
      <trkpt lat="43.97868" lon="2.24515">
        <ele>287</ele>
        <time>2020-08-25T10:01:57.297Z</time>
      </trkpt>
      <trkpt lat="43.97867" lon="2.24517">
        <ele>287</ele>
        <time>2020-08-25T10:01:58.297Z</time>
      </trkpt>
      <trkpt lat="43.97866" lon="2.24518">
        <ele>287</ele>
        <time>2020-08-25T10:01:59.297Z</time>
      </trkpt>
      <trkpt lat="43.97866" lon="2.2452">
        <ele>287</ele>
        <time>2020-08-25T10:02:00.297Z</time>
      </trkpt>
      <trkpt lat="43.97865" lon="2.24521">
        <ele>288</ele>
        <time>2020-08-25T10:02:01.297Z</time>
      </trkpt>
      <trkpt lat="43.97865" lon="2.24522">
        <ele>288</ele>
        <time>2020-08-25T10:02:02.297Z</time>
      </trkpt>
      <trkpt lat="43.97864" lon="2.24523">
        <ele>288</ele>
        <time>2020-08-25T10:02:03.297Z</time>
      </trkpt>
      <trkpt lat="43.97864" lon="2.24524">
        <ele>288</ele>
        <time>2020-08-25T10:02:04.297Z</time>
      </trkpt>
      <trkpt lat="43.97863" lon="2.24525">
        <ele>288</ele>
        <time>2020-08-25T10:02:05.297Z</time>
      </trkpt>
      <trkpt lat="43.97863" lon="2.24527">
        <ele>288</ele>
        <time>2020-08-25T10:02:06.297Z</time>
      </trkpt>
      <trkpt lat="43.97862" lon="2.24528">
        <ele>288</ele>
        <time>2020-08-25T10:02:07.297Z</time>
      </trkpt>
      <trkpt lat="43.97862" lon="2.24529">
        <ele>288</ele>
        <time>2020-08-25T10:02:08.297Z</time>
      </trkpt>
      <trkpt lat="43.97861" lon="2.2453">
        <ele>288</ele>
        <time>2020-08-25T10:02:09.297Z</time>
      </trkpt>
      <trkpt lat="43.9786" lon="2.24531">
        <ele>289</ele>
        <time>2020-08-25T10:02:10.297Z</time>
      </trkpt>
      <trkpt lat="43.9786" lon="2.24532">
        <ele>289</ele>
        <time>2020-08-25T10:02:11.297Z</time>
      </trkpt>
      <trkpt lat="43.97859" lon="2.24534">
        <ele>289</ele>
        <time>2020-08-25T10:02:12.297Z</time>
      </trkpt>
      <trkpt lat="43.97858" lon="2.24535">
        <ele>289</ele>
        <time>2020-08-25T10:02:13.297Z</time>
      </trkpt>
      <trkpt lat="43.97858" lon="2.24536">
        <ele>289</ele>
        <time>2020-08-25T10:02:14.297Z</time>
      </trkpt>
      <trkpt lat="43.97857" lon="2.24537">
        <ele>289</ele>
        <time>2020-08-25T10:02:15.297Z</time>
      </trkpt>
      <trkpt lat="43.97857" lon="2.24538">
        <ele>289</ele>
        <time>2020-08-25T10:02:16.297Z</time>
      </trkpt>
      <trkpt lat="43.97856" lon="2.24539">
        <ele>289</ele>
        <time>2020-08-25T10:02:17.297Z</time>
      </trkpt>
      <trkpt lat="43.97856" lon="2.24541">
        <ele>289</ele>
        <time>2020-08-25T10:02:18.297Z</time>
      </trkpt>
      <trkpt lat="43.97855" lon="2.24542">
        <ele>289</ele>
        <time>2020-08-25T10:02:19.297Z</time>
      </trkpt>
      <trkpt lat="43.97855" lon="2.24543">
        <ele>289</ele>
        <time>2020-08-25T10:02:20.297Z</time>
      </trkpt>
      <trkpt lat="43.97854" lon="2.24543">
        <ele>289</ele>
        <time>2020-08-25T10:02:21.297Z</time>
      </trkpt>
      <trkpt lat="43.97854" lon="2.24544">
        <ele>289</ele>
        <time>2020-08-25T10:02:22.297Z</time>
      </trkpt>
      <trkpt lat="43.97854" lon="2.24545">
        <ele>289</ele>
        <time>2020-08-25T10:02:23.297Z</time>
      </trkpt>
      <trkpt lat="43.97853" lon="2.24546">
        <ele>289</ele>
        <time>2020-08-25T10:02:24.297Z</time>
      </trkpt>
      <trkpt lat="43.97853" lon="2.24547">
        <ele>289</ele>
        <time>2020-08-25T10:02:25.297Z</time>
      </trkpt>
      <trkpt lat="43.97853" lon="2.24547">
        <ele>289</ele>
        <time>2020-08-25T10:02:26.297Z</time>
      </trkpt>
      <trkpt lat="43.97852" lon="2.24548">
        <ele>289</ele>
        <time>2020-08-25T10:02:27.297Z</time>
      </trkpt>
      <trkpt lat="43.97852" lon="2.24549">
        <ele>289</ele>
        <time>2020-08-25T10:02:28.297Z</time>
      </trkpt>
      <trkpt lat="43.97851" lon="2.2455">
        <ele>289</ele>
        <time>2020-08-25T10:02:29.297Z</time>
      </trkpt>
      <trkpt lat="43.9785" lon="2.24551">
        <ele>289</ele>
        <time>2020-08-25T10:02:30.297Z</time>
      </trkpt>
      <trkpt lat="43.9785" lon="2.24552">
        <ele>289</ele>
        <time>2020-08-25T10:02:31.297Z</time>
      </trkpt>
      <trkpt lat="43.97849" lon="2.24553">
        <ele>289</ele>
        <time>2020-08-25T10:02:32.297Z</time>
      </trkpt>
      <trkpt lat="43.97848" lon="2.24554">
        <ele>289</ele>
        <time>2020-08-25T10:02:33.297Z</time>
      </trkpt>
      <trkpt lat="43.97848" lon="2.24555">
        <ele>289</ele>
        <time>2020-08-25T10:02:34.297Z</time>
      </trkpt>
      <trkpt lat="43.97847" lon="2.24556">
        <ele>289</ele>
        <time>2020-08-25T10:02:35.297Z</time>
      </trkpt>
      <trkpt lat="43.97846" lon="2.24557">
        <ele>289</ele>
        <time>2020-08-25T10:02:36.297Z</time>
      </trkpt>
      <trkpt lat="43.97845" lon="2.24558">
        <ele>290</ele>
        <time>2020-08-25T10:02:37.297Z</time>
      </trkpt>
      <trkpt lat="43.97844" lon="2.24559">
        <ele>290</ele>
        <time>2020-08-25T10:02:38.297Z</time>
      </trkpt>
      <trkpt lat="43.97843" lon="2.2456">
        <ele>290</ele>
        <time>2020-08-25T10:02:39.297Z</time>
      </trkpt>
      <trkpt lat="43.97842" lon="2.24561">
        <ele>290</ele>
        <time>2020-08-25T10:02:40.297Z</time>
      </trkpt>
      <trkpt lat="43.97841" lon="2.24562">
        <ele>290</ele>
        <time>2020-08-25T10:02:41.297Z</time>
      </trkpt>
      <trkpt lat="43.9784" lon="2.24562">
        <ele>290</ele>
        <time>2020-08-25T10:02:42.297Z</time>
      </trkpt>
      <trkpt lat="43.9784" lon="2.24563">
        <ele>290</ele>
        <time>2020-08-25T10:02:43.297Z</time>
      </trkpt>
      <trkpt lat="43.97839" lon="2.24563">
        <ele>290</ele>
        <time>2020-08-25T10:02:44.297Z</time>
      </trkpt>
      <trkpt lat="43.97838" lon="2.24563">
        <ele>290</ele>
        <time>2020-08-25T10:02:45.297Z</time>
      </trkpt>
      <trkpt lat="43.97838" lon="2.24564">
        <ele>290</ele>
        <time>2020-08-25T10:02:46.297Z</time>
      </trkpt>
      <trkpt lat="43.97838" lon="2.24564">
        <ele>290</ele>
        <time>2020-08-25T10:02:47.297Z</time>
      </trkpt>
      <trkpt lat="43.97838" lon="2.24564">
        <ele>290</ele>
        <time>2020-08-25T10:02:48.297Z</time>
      </trkpt>
      <trkpt lat="43.97836" lon="2.24565">
        <ele>290</ele>
        <time>2020-08-25T10:02:51.524Z</time>
      </trkpt>
      <trkpt lat="43.97835" lon="2.24565">
        <ele>290</ele>
        <time>2020-08-25T10:02:52.524Z</time>
      </trkpt>
      <trkpt lat="43.97834" lon="2.24565">
        <ele>290</ele>
        <time>2020-08-25T10:02:53.524Z</time>
      </trkpt>
      <trkpt lat="43.97833" lon="2.24565">
        <ele>290</ele>
        <time>2020-08-25T10:02:54.524Z</time>
      </trkpt>
      <trkpt lat="43.97832" lon="2.24565">
        <ele>290</ele>
        <time>2020-08-25T10:02:55.524Z</time>
      </trkpt>
      <trkpt lat="43.97831" lon="2.24565">
        <ele>290</ele>
        <time>2020-08-25T10:02:56.524Z</time>
      </trkpt>
      <trkpt lat="43.9783" lon="2.24565">
        <ele>290</ele>
        <time>2020-08-25T10:02:57.524Z</time>
      </trkpt>
      <trkpt lat="43.97829" lon="2.24565">
        <ele>290</ele>
        <time>2020-08-25T10:02:58.524Z</time>
      </trkpt>
      <trkpt lat="43.97829" lon="2.24565">
        <ele>290</ele>
        <time>2020-08-25T10:02:59.524Z</time>
      </trkpt>
      <trkpt lat="43.97827" lon="2.24565">
        <ele>290</ele>
        <time>2020-08-25T10:03:00.524Z</time>
      </trkpt>
      <trkpt lat="43.97826" lon="2.24565">
        <ele>291</ele>
        <time>2020-08-25T10:03:01.524Z</time>
      </trkpt>
      <trkpt lat="43.97826" lon="2.24564">
        <ele>291</ele>
        <time>2020-08-25T10:03:02.524Z</time>
      </trkpt>
      <trkpt lat="43.97825" lon="2.24563">
        <ele>291</ele>
        <time>2020-08-25T10:03:03.524Z</time>
      </trkpt>
      <trkpt lat="43.97824" lon="2.24563">
        <ele>291</ele>
        <time>2020-08-25T10:03:04.524Z</time>
      </trkpt>
      <trkpt lat="43.97823" lon="2.24562">
        <ele>291</ele>
        <time>2020-08-25T10:03:05.524Z</time>
      </trkpt>
      <trkpt lat="43.97822" lon="2.24562">
        <ele>291</ele>
        <time>2020-08-25T10:03:06.524Z</time>
      </trkpt>
      <trkpt lat="43.97821" lon="2.24562">
        <ele>291</ele>
        <time>2020-08-25T10:03:07.524Z</time>
      </trkpt>
      <trkpt lat="43.9782" lon="2.24561">
        <ele>291</ele>
        <time>2020-08-25T10:03:08.524Z</time>
      </trkpt>
      <trkpt lat="43.9782" lon="2.24561">
        <ele>291</ele>
        <time>2020-08-25T10:03:09.524Z</time>
      </trkpt>
      <trkpt lat="43.97819" lon="2.24561">
        <ele>291</ele>
        <time>2020-08-25T10:03:10.524Z</time>
      </trkpt>
      <trkpt lat="43.97819" lon="2.24561">
        <ele>291</ele>
        <time>2020-08-25T10:03:11.524Z</time>
      </trkpt>
      <trkpt lat="43.97819" lon="2.2456">
        <ele>291</ele>
        <time>2020-08-25T10:03:12.524Z</time>
      </trkpt>
      <trkpt lat="43.97818" lon="2.24559">
        <ele>291</ele>
        <time>2020-08-25T10:03:13.524Z</time>
      </trkpt>
      <trkpt lat="43.97818" lon="2.24558">
        <ele>291</ele>
        <time>2020-08-25T10:03:14.524Z</time>
      </trkpt>
      <trkpt lat="43.97818" lon="2.24557">
        <ele>291</ele>
        <time>2020-08-25T10:03:15.524Z</time>
      </trkpt>
      <trkpt lat="43.97818" lon="2.24556">
        <ele>292</ele>
        <time>2020-08-25T10:03:16.524Z</time>
      </trkpt>
      <trkpt lat="43.97818" lon="2.24555">
        <ele>292</ele>
        <time>2020-08-25T10:03:17.524Z</time>
      </trkpt>
      <trkpt lat="43.97817" lon="2.24554">
        <ele>292</ele>
        <time>2020-08-25T10:03:18.524Z</time>
      </trkpt>
      <trkpt lat="43.97817" lon="2.24553">
        <ele>292</ele>
        <time>2020-08-25T10:03:19.524Z</time>
      </trkpt>
      <trkpt lat="43.97817" lon="2.24553">
        <ele>293</ele>
        <time>2020-08-25T10:03:20.524Z</time>
      </trkpt>
      <trkpt lat="43.97817" lon="2.24552">
        <ele>293</ele>
        <time>2020-08-25T10:03:21.524Z</time>
      </trkpt>
      <trkpt lat="43.97817" lon="2.24552">
        <ele>293</ele>
        <time>2020-08-25T10:03:22.524Z</time>
      </trkpt>
      <trkpt lat="43.97818" lon="2.24553">
        <ele>295</ele>
        <time>2020-08-25T10:05:24.536Z</time>
      </trkpt>
      <trkpt lat="43.97817" lon="2.24553">
        <ele>295</ele>
        <time>2020-08-25T10:05:25.536Z</time>
      </trkpt>
      <trkpt lat="43.97817" lon="2.24554">
        <ele>295</ele>
        <time>2020-08-25T10:05:26.536Z</time>
      </trkpt>
      <trkpt lat="43.97816" lon="2.24554">
        <ele>295</ele>
        <time>2020-08-25T10:05:27.536Z</time>
      </trkpt>
      <trkpt lat="43.97816" lon="2.24555">
        <ele>295</ele>
        <time>2020-08-25T10:05:28.536Z</time>
      </trkpt>
      <trkpt lat="43.97816" lon="2.24556">
        <ele>294</ele>
        <time>2020-08-25T10:05:29.536Z</time>
      </trkpt>
      <trkpt lat="43.97816" lon="2.24557">
        <ele>294</ele>
        <time>2020-08-25T10:05:30.536Z</time>
      </trkpt>
      <trkpt lat="43.97815" lon="2.24558">
        <ele>294</ele>
        <time>2020-08-25T10:05:31.536Z</time>
      </trkpt>
      <trkpt lat="43.97816" lon="2.24558">
        <ele>294</ele>
        <time>2020-08-25T10:05:32.536Z</time>
      </trkpt>
      <trkpt lat="43.97816" lon="2.24559">
        <ele>294</ele>
        <time>2020-08-25T10:05:33.536Z</time>
      </trkpt>
      <trkpt lat="43.97816" lon="2.2456">
        <ele>294</ele>
        <time>2020-08-25T10:05:34.536Z</time>
      </trkpt>
      <trkpt lat="43.97816" lon="2.2456">
        <ele>294</ele>
        <time>2020-08-25T10:05:35.536Z</time>
      </trkpt>
      <trkpt lat="43.97816" lon="2.2456">
        <ele>294</ele>
        <time>2020-08-25T10:05:36.536Z</time>
      </trkpt>
      <trkpt lat="43.97818" lon="2.24561">
        <ele>294</ele>
        <time>2020-08-25T10:05:50.548Z</time>
      </trkpt>
      <trkpt lat="43.97819" lon="2.24562">
        <ele>294</ele>
        <time>2020-08-25T10:05:51.548Z</time>
      </trkpt>
      <trkpt lat="43.9782" lon="2.24562">
        <ele>294</ele>
        <time>2020-08-25T10:05:52.548Z</time>
      </trkpt>
      <trkpt lat="43.9782" lon="2.24562">
        <ele>294</ele>
        <time>2020-08-25T10:05:53.548Z</time>
      </trkpt>
      <trkpt lat="43.97821" lon="2.24563">
        <ele>294</ele>
        <time>2020-08-25T10:05:54.548Z</time>
      </trkpt>
      <trkpt lat="43.97822" lon="2.24563">
        <ele>294</ele>
        <time>2020-08-25T10:05:55.548Z</time>
      </trkpt>
      <trkpt lat="43.97822" lon="2.24563">
        <ele>294</ele>
        <time>2020-08-25T10:05:56.548Z</time>
      </trkpt>
      <trkpt lat="43.97823" lon="2.24564">
        <ele>294</ele>
        <time>2020-08-25T10:05:57.548Z</time>
      </trkpt>
      <trkpt lat="43.97823" lon="2.24564">
        <ele>294</ele>
        <time>2020-08-25T10:05:58.548Z</time>
      </trkpt>
      <trkpt lat="43.97824" lon="2.24564">
        <ele>294</ele>
        <time>2020-08-25T10:05:59.548Z</time>
      </trkpt>
      <trkpt lat="43.97825" lon="2.24564">
        <ele>294</ele>
        <time>2020-08-25T10:06:00.548Z</time>
      </trkpt>
      <trkpt lat="43.97825" lon="2.24564">
        <ele>294</ele>
        <time>2020-08-25T10:06:01.548Z</time>
      </trkpt>
      <trkpt lat="43.97826" lon="2.24564">
        <ele>294</ele>
        <time>2020-08-25T10:06:02.548Z</time>
      </trkpt>
      <trkpt lat="43.97827" lon="2.24564">
        <ele>294</ele>
        <time>2020-08-25T10:06:03.548Z</time>
      </trkpt>
      <trkpt lat="43.97828" lon="2.24564">
        <ele>293</ele>
        <time>2020-08-25T10:06:04.548Z</time>
      </trkpt>
      <trkpt lat="43.97828" lon="2.24565">
        <ele>293</ele>
        <time>2020-08-25T10:06:05.548Z</time>
      </trkpt>
      <trkpt lat="43.97829" lon="2.24565">
        <ele>293</ele>
        <time>2020-08-25T10:06:06.548Z</time>
      </trkpt>
      <trkpt lat="43.9783" lon="2.24565">
        <ele>293</ele>
        <time>2020-08-25T10:06:07.548Z</time>
      </trkpt>
      <trkpt lat="43.97831" lon="2.24564">
        <ele>293</ele>
        <time>2020-08-25T10:06:08.548Z</time>
      </trkpt>
      <trkpt lat="43.97831" lon="2.24564">
        <ele>293</ele>
        <time>2020-08-25T10:06:09.548Z</time>
      </trkpt>
      <trkpt lat="43.97832" lon="2.24564">
        <ele>293</ele>
        <time>2020-08-25T10:06:10.548Z</time>
      </trkpt>
      <trkpt lat="43.97832" lon="2.24564">
        <ele>293</ele>
        <time>2020-08-25T10:06:11.548Z</time>
      </trkpt>
      <trkpt lat="43.97833" lon="2.24563">
        <ele>293</ele>
        <time>2020-08-25T10:06:12.548Z</time>
      </trkpt>
      <trkpt lat="43.97834" lon="2.24563">
        <ele>293</ele>
        <time>2020-08-25T10:06:13.548Z</time>
      </trkpt>
      <trkpt lat="43.97835" lon="2.24563">
        <ele>293</ele>
        <time>2020-08-25T10:06:14.548Z</time>
      </trkpt>
      <trkpt lat="43.97836" lon="2.24562">
        <ele>293</ele>
        <time>2020-08-25T10:06:15.548Z</time>
      </trkpt>
      <trkpt lat="43.97837" lon="2.24561">
        <ele>293</ele>
        <time>2020-08-25T10:06:16.548Z</time>
      </trkpt>
      <trkpt lat="43.97838" lon="2.2456">
        <ele>293</ele>
        <time>2020-08-25T10:06:17.548Z</time>
      </trkpt>
      <trkpt lat="43.97839" lon="2.24559">
        <ele>293</ele>
        <time>2020-08-25T10:06:18.548Z</time>
      </trkpt>
      <trkpt lat="43.97839" lon="2.24559">
        <ele>293</ele>
        <time>2020-08-25T10:06:19.548Z</time>
      </trkpt>
      <trkpt lat="43.9784" lon="2.24558">
        <ele>293</ele>
        <time>2020-08-25T10:06:20.548Z</time>
      </trkpt>
      <trkpt lat="43.97841" lon="2.24558">
        <ele>293</ele>
        <time>2020-08-25T10:06:21.548Z</time>
      </trkpt>
      <trkpt lat="43.97842" lon="2.24557">
        <ele>293</ele>
        <time>2020-08-25T10:06:22.548Z</time>
      </trkpt>
      <trkpt lat="43.97842" lon="2.24556">
        <ele>293</ele>
        <time>2020-08-25T10:06:23.548Z</time>
      </trkpt>
      <trkpt lat="43.97843" lon="2.24555">
        <ele>293</ele>
        <time>2020-08-25T10:06:24.548Z</time>
      </trkpt>
      <trkpt lat="43.97844" lon="2.24555">
        <ele>293</ele>
        <time>2020-08-25T10:06:25.548Z</time>
      </trkpt>
      <trkpt lat="43.97844" lon="2.24554">
        <ele>293</ele>
        <time>2020-08-25T10:06:26.548Z</time>
      </trkpt>
      <trkpt lat="43.97845" lon="2.24553">
        <ele>293</ele>
        <time>2020-08-25T10:06:27.548Z</time>
      </trkpt>
      <trkpt lat="43.97845" lon="2.24553">
        <ele>293</ele>
        <time>2020-08-25T10:06:28.548Z</time>
      </trkpt>
      <trkpt lat="43.97846" lon="2.24553">
        <ele>293</ele>
        <time>2020-08-25T10:06:29.548Z</time>
      </trkpt>
      <trkpt lat="43.97846" lon="2.24552">
        <ele>293</ele>
        <time>2020-08-25T10:06:30.548Z</time>
      </trkpt>
      <trkpt lat="43.97846" lon="2.24552">
        <ele>293</ele>
        <time>2020-08-25T10:06:31.548Z</time>
      </trkpt>
      <trkpt lat="43.97847" lon="2.24551">
        <ele>293</ele>
        <time>2020-08-25T10:06:32.548Z</time>
      </trkpt>
      <trkpt lat="43.97847" lon="2.24551">
        <ele>292</ele>
        <time>2020-08-25T10:06:33.548Z</time>
      </trkpt>
      <trkpt lat="43.97848" lon="2.2455">
        <ele>292</ele>
        <time>2020-08-25T10:06:34.548Z</time>
      </trkpt>
      <trkpt lat="43.97848" lon="2.24549">
        <ele>292</ele>
        <time>2020-08-25T10:06:35.548Z</time>
      </trkpt>
      <trkpt lat="43.97849" lon="2.24548">
        <ele>292</ele>
        <time>2020-08-25T10:06:36.548Z</time>
      </trkpt>
      <trkpt lat="43.97849" lon="2.24547">
        <ele>292</ele>
        <time>2020-08-25T10:06:37.548Z</time>
      </trkpt>
      <trkpt lat="43.9785" lon="2.24546">
        <ele>292</ele>
        <time>2020-08-25T10:06:38.548Z</time>
      </trkpt>
      <trkpt lat="43.9785" lon="2.24545">
        <ele>292</ele>
        <time>2020-08-25T10:06:39.548Z</time>
      </trkpt>
      <trkpt lat="43.97851" lon="2.24544">
        <ele>293</ele>
        <time>2020-08-25T10:06:40.548Z</time>
      </trkpt>
      <trkpt lat="43.97851" lon="2.24543">
        <ele>293</ele>
        <time>2020-08-25T10:06:41.548Z</time>
      </trkpt>
      <trkpt lat="43.97852" lon="2.24542">
        <ele>293</ele>
        <time>2020-08-25T10:06:42.548Z</time>
      </trkpt>
      <trkpt lat="43.97852" lon="2.24541">
        <ele>293</ele>
        <time>2020-08-25T10:06:43.548Z</time>
      </trkpt>
      <trkpt lat="43.97852" lon="2.2454">
        <ele>293</ele>
        <time>2020-08-25T10:06:44.548Z</time>
      </trkpt>
      <trkpt lat="43.97853" lon="2.24539">
        <ele>293</ele>
        <time>2020-08-25T10:06:45.548Z</time>
      </trkpt>
      <trkpt lat="43.97853" lon="2.24538">
        <ele>293</ele>
        <time>2020-08-25T10:06:46.548Z</time>
      </trkpt>
      <trkpt lat="43.97854" lon="2.24537">
        <ele>293</ele>
        <time>2020-08-25T10:06:47.548Z</time>
      </trkpt>
      <trkpt lat="43.97855" lon="2.24536">
        <ele>293</ele>
        <time>2020-08-25T10:06:48.548Z</time>
      </trkpt>
      <trkpt lat="43.97855" lon="2.24536">
        <ele>293</ele>
        <time>2020-08-25T10:06:49.548Z</time>
      </trkpt>
      <trkpt lat="43.97856" lon="2.24536">
        <ele>293</ele>
        <time>2020-08-25T10:06:50.548Z</time>
      </trkpt>
      <trkpt lat="43.97856" lon="2.24536">
        <ele>293</ele>
        <time>2020-08-25T10:06:51.548Z</time>
      </trkpt>
      <trkpt lat="43.97856" lon="2.24537">
        <ele>292</ele>
        <time>2020-08-25T10:06:52.548Z</time>
      </trkpt>
      <trkpt lat="43.97856" lon="2.24537">
        <ele>292</ele>
        <time>2020-08-25T10:06:53.548Z</time>
      </trkpt>
      <trkpt lat="43.97856" lon="2.24539">
        <ele>292</ele>
        <time>2020-08-25T10:06:54.548Z</time>
      </trkpt>
      <trkpt lat="43.97856" lon="2.2454">
        <ele>292</ele>
        <time>2020-08-25T10:06:55.548Z</time>
      </trkpt>
      <trkpt lat="43.97856" lon="2.24541">
        <ele>292</ele>
        <time>2020-08-25T10:06:56.548Z</time>
      </trkpt>
      <trkpt lat="43.97856" lon="2.24541">
        <ele>292</ele>
        <time>2020-08-25T10:06:57.548Z</time>
      </trkpt>
      <trkpt lat="43.97856" lon="2.24541">
        <ele>292</ele>
        <time>2020-08-25T10:06:58.548Z</time>
      </trkpt>
      <trkpt lat="43.97856" lon="2.24541">
        <ele>292</ele>
        <time>2020-08-25T10:06:59.548Z</time>
      </trkpt>
      <trkpt lat="43.97856" lon="2.24541">
        <ele>292</ele>
        <time>2020-08-25T10:07:00.548Z</time>
      </trkpt>
      <trkpt lat="43.97859" lon="2.24542">
        <ele>292</ele>
        <time>2020-08-25T10:07:37.561Z</time>
      </trkpt>
      <trkpt lat="43.97859" lon="2.24541">
        <ele>292</ele>
        <time>2020-08-25T10:07:38.561Z</time>
      </trkpt>
      <trkpt lat="43.9786" lon="2.2454">
        <ele>292</ele>
        <time>2020-08-25T10:07:39.561Z</time>
      </trkpt>
      <trkpt lat="43.9786" lon="2.24539">
        <ele>292</ele>
        <time>2020-08-25T10:07:40.561Z</time>
      </trkpt>
      <trkpt lat="43.9786" lon="2.24538">
        <ele>292</ele>
        <time>2020-08-25T10:07:41.561Z</time>
      </trkpt>
      <trkpt lat="43.9786" lon="2.24536">
        <ele>292</ele>
        <time>2020-08-25T10:07:42.561Z</time>
      </trkpt>
      <trkpt lat="43.97861" lon="2.24535">
        <ele>292</ele>
        <time>2020-08-25T10:07:43.561Z</time>
      </trkpt>
      <trkpt lat="43.97861" lon="2.24533">
        <ele>292</ele>
        <time>2020-08-25T10:07:44.561Z</time>
      </trkpt>
      <trkpt lat="43.97861" lon="2.24532">
        <ele>292</ele>
        <time>2020-08-25T10:07:45.561Z</time>
      </trkpt>
      <trkpt lat="43.97862" lon="2.24531">
        <ele>292</ele>
        <time>2020-08-25T10:07:46.561Z</time>
      </trkpt>
      <trkpt lat="43.97862" lon="2.24529">
        <ele>292</ele>
        <time>2020-08-25T10:07:47.561Z</time>
      </trkpt>
      <trkpt lat="43.97863" lon="2.24528">
        <ele>292</ele>
        <time>2020-08-25T10:07:48.561Z</time>
      </trkpt>
      <trkpt lat="43.97863" lon="2.24527">
        <ele>292</ele>
        <time>2020-08-25T10:07:49.561Z</time>
      </trkpt>
      <trkpt lat="43.97864" lon="2.24525">
        <ele>292</ele>
        <time>2020-08-25T10:07:50.561Z</time>
      </trkpt>
      <trkpt lat="43.97864" lon="2.24524">
        <ele>292</ele>
        <time>2020-08-25T10:07:51.561Z</time>
      </trkpt>
      <trkpt lat="43.97865" lon="2.24523">
        <ele>292</ele>
        <time>2020-08-25T10:07:52.561Z</time>
      </trkpt>
      <trkpt lat="43.97865" lon="2.24521">
        <ele>292</ele>
        <time>2020-08-25T10:07:53.561Z</time>
      </trkpt>
      <trkpt lat="43.97866" lon="2.2452">
        <ele>292</ele>
        <time>2020-08-25T10:07:54.561Z</time>
      </trkpt>
      <trkpt lat="43.97867" lon="2.24519">
        <ele>292</ele>
        <time>2020-08-25T10:07:55.561Z</time>
      </trkpt>
      <trkpt lat="43.97867" lon="2.24517">
        <ele>292</ele>
        <time>2020-08-25T10:07:56.561Z</time>
      </trkpt>
      <trkpt lat="43.97868" lon="2.24516">
        <ele>292</ele>
        <time>2020-08-25T10:07:57.561Z</time>
      </trkpt>
      <trkpt lat="43.97868" lon="2.24514">
        <ele>292</ele>
        <time>2020-08-25T10:07:58.561Z</time>
      </trkpt>
      <trkpt lat="43.97869" lon="2.24513">
        <ele>292</ele>
        <time>2020-08-25T10:07:59.561Z</time>
      </trkpt>
      <trkpt lat="43.9787" lon="2.24512">
        <ele>292</ele>
        <time>2020-08-25T10:08:00.561Z</time>
      </trkpt>
      <trkpt lat="43.97871" lon="2.2451">
        <ele>292</ele>
        <time>2020-08-25T10:08:01.561Z</time>
      </trkpt>
      <trkpt lat="43.97872" lon="2.24509">
        <ele>292</ele>
        <time>2020-08-25T10:08:02.561Z</time>
      </trkpt>
      <trkpt lat="43.97872" lon="2.24508">
        <ele>292</ele>
        <time>2020-08-25T10:08:03.561Z</time>
      </trkpt>
      <trkpt lat="43.97873" lon="2.24507">
        <ele>292</ele>
        <time>2020-08-25T10:08:04.561Z</time>
      </trkpt>
      <trkpt lat="43.97874" lon="2.24505">
        <ele>292</ele>
        <time>2020-08-25T10:08:05.561Z</time>
      </trkpt>
      <trkpt lat="43.97875" lon="2.24504">
        <ele>292</ele>
        <time>2020-08-25T10:08:06.561Z</time>
      </trkpt>
      <trkpt lat="43.97876" lon="2.24503">
        <ele>291</ele>
        <time>2020-08-25T10:08:07.561Z</time>
      </trkpt>
      <trkpt lat="43.97876" lon="2.24501">
        <ele>291</ele>
        <time>2020-08-25T10:08:08.561Z</time>
      </trkpt>
      <trkpt lat="43.97877" lon="2.245">
        <ele>291</ele>
        <time>2020-08-25T10:08:09.561Z</time>
      </trkpt>
      <trkpt lat="43.97878" lon="2.24499">
        <ele>291</ele>
        <time>2020-08-25T10:08:10.561Z</time>
      </trkpt>
      <trkpt lat="43.97878" lon="2.24497">
        <ele>291</ele>
        <time>2020-08-25T10:08:11.561Z</time>
      </trkpt>
      <trkpt lat="43.97879" lon="2.24496">
        <ele>291</ele>
        <time>2020-08-25T10:08:12.561Z</time>
      </trkpt>
      <trkpt lat="43.97879" lon="2.24494">
        <ele>291</ele>
        <time>2020-08-25T10:08:13.561Z</time>
      </trkpt>
      <trkpt lat="43.97879" lon="2.24493">
        <ele>291</ele>
        <time>2020-08-25T10:08:14.561Z</time>
      </trkpt>
      <trkpt lat="43.9788" lon="2.24491">
        <ele>291</ele>
        <time>2020-08-25T10:08:15.561Z</time>
      </trkpt>
      <trkpt lat="43.9788" lon="2.2449">
        <ele>291</ele>
        <time>2020-08-25T10:08:16.561Z</time>
      </trkpt>
      <trkpt lat="43.9788" lon="2.24488">
        <ele>291</ele>
        <time>2020-08-25T10:08:17.561Z</time>
      </trkpt>
      <trkpt lat="43.9788" lon="2.24486">
        <ele>291</ele>
        <time>2020-08-25T10:08:18.561Z</time>
      </trkpt>
      <trkpt lat="43.97881" lon="2.24485">
        <ele>291</ele>
        <time>2020-08-25T10:08:19.561Z</time>
      </trkpt>
      <trkpt lat="43.97881" lon="2.24483">
        <ele>291</ele>
        <time>2020-08-25T10:08:20.561Z</time>
      </trkpt>
      <trkpt lat="43.97882" lon="2.24482">
        <ele>291</ele>
        <time>2020-08-25T10:08:21.561Z</time>
      </trkpt>
      <trkpt lat="43.97882" lon="2.24481">
        <ele>291</ele>
        <time>2020-08-25T10:08:22.561Z</time>
      </trkpt>
      <trkpt lat="43.97882" lon="2.2448">
        <ele>291</ele>
        <time>2020-08-25T10:08:23.561Z</time>
      </trkpt>
      <trkpt lat="43.97882" lon="2.24479">
        <ele>291</ele>
        <time>2020-08-25T10:08:24.561Z</time>
      </trkpt>
      <trkpt lat="43.97883" lon="2.24478">
        <ele>291</ele>
        <time>2020-08-25T10:08:25.561Z</time>
      </trkpt>
      <trkpt lat="43.97883" lon="2.24477">
        <ele>291</ele>
        <time>2020-08-25T10:08:26.561Z</time>
      </trkpt>
      <trkpt lat="43.97884" lon="2.24476">
        <ele>291</ele>
        <time>2020-08-25T10:08:27.561Z</time>
      </trkpt>
      <trkpt lat="43.97884" lon="2.24474">
        <ele>291</ele>
        <time>2020-08-25T10:08:28.561Z</time>
      </trkpt>
      <trkpt lat="43.97885" lon="2.24472">
        <ele>290</ele>
        <time>2020-08-25T10:08:29.561Z</time>
      </trkpt>
      <trkpt lat="43.97885" lon="2.24471">
        <ele>290</ele>
        <time>2020-08-25T10:08:30.561Z</time>
      </trkpt>
      <trkpt lat="43.97886" lon="2.24469">
        <ele>290</ele>
        <time>2020-08-25T10:08:31.561Z</time>
      </trkpt>
      <trkpt lat="43.97886" lon="2.24468">
        <ele>290</ele>
        <time>2020-08-25T10:08:32.561Z</time>
      </trkpt>
      <trkpt lat="43.97887" lon="2.24466">
        <ele>290</ele>
        <time>2020-08-25T10:08:33.561Z</time>
      </trkpt>
      <trkpt lat="43.97888" lon="2.24465">
        <ele>289</ele>
        <time>2020-08-25T10:08:34.561Z</time>
      </trkpt>
      <trkpt lat="43.97888" lon="2.24464">
        <ele>289</ele>
        <time>2020-08-25T10:08:35.561Z</time>
      </trkpt>
      <trkpt lat="43.97889" lon="2.24462">
        <ele>289</ele>
        <time>2020-08-25T10:08:36.561Z</time>
      </trkpt>
      <trkpt lat="43.9789" lon="2.24461">
        <ele>289</ele>
        <time>2020-08-25T10:08:37.561Z</time>
      </trkpt>
      <trkpt lat="43.9789" lon="2.2446">
        <ele>288</ele>
        <time>2020-08-25T10:08:38.561Z</time>
      </trkpt>
      <trkpt lat="43.97891" lon="2.24459">
        <ele>288</ele>
        <time>2020-08-25T10:08:39.561Z</time>
      </trkpt>
      <trkpt lat="43.97892" lon="2.24457">
        <ele>288</ele>
        <time>2020-08-25T10:08:40.561Z</time>
      </trkpt>
      <trkpt lat="43.97892" lon="2.24456">
        <ele>288</ele>
        <time>2020-08-25T10:08:41.561Z</time>
      </trkpt>
      <trkpt lat="43.97893" lon="2.24455">
        <ele>288</ele>
        <time>2020-08-25T10:08:42.561Z</time>
      </trkpt>
      <trkpt lat="43.97894" lon="2.24454">
        <ele>288</ele>
        <time>2020-08-25T10:08:43.561Z</time>
      </trkpt>
      <trkpt lat="43.97895" lon="2.24453">
        <ele>287</ele>
        <time>2020-08-25T10:08:44.561Z</time>
      </trkpt>
      <trkpt lat="43.97896" lon="2.24452">
        <ele>287</ele>
        <time>2020-08-25T10:08:45.561Z</time>
      </trkpt>
      <trkpt lat="43.97897" lon="2.2445">
        <ele>287</ele>
        <time>2020-08-25T10:08:46.561Z</time>
      </trkpt>
      <trkpt lat="43.97898" lon="2.24449">
        <ele>287</ele>
        <time>2020-08-25T10:08:47.561Z</time>
      </trkpt>
      <trkpt lat="43.97898" lon="2.24448">
        <ele>287</ele>
        <time>2020-08-25T10:08:48.561Z</time>
      </trkpt>
      <trkpt lat="43.97899" lon="2.24447">
        <ele>286</ele>
        <time>2020-08-25T10:08:49.561Z</time>
      </trkpt>
      <trkpt lat="43.979" lon="2.24446">
        <ele>286</ele>
        <time>2020-08-25T10:08:50.561Z</time>
      </trkpt>
      <trkpt lat="43.97901" lon="2.24445">
        <ele>286</ele>
        <time>2020-08-25T10:08:51.561Z</time>
      </trkpt>
      <trkpt lat="43.97902" lon="2.24443">
        <ele>285</ele>
        <time>2020-08-25T10:08:52.561Z</time>
      </trkpt>
      <trkpt lat="43.97903" lon="2.24442">
        <ele>285</ele>
        <time>2020-08-25T10:08:53.561Z</time>
      </trkpt>
      <trkpt lat="43.97903" lon="2.24441">
        <ele>285</ele>
        <time>2020-08-25T10:08:54.561Z</time>
      </trkpt>
      <trkpt lat="43.97904" lon="2.2444">
        <ele>285</ele>
        <time>2020-08-25T10:08:55.561Z</time>
      </trkpt>
      <trkpt lat="43.97905" lon="2.24439">
        <ele>285</ele>
        <time>2020-08-25T10:08:56.561Z</time>
      </trkpt>
      <trkpt lat="43.97905" lon="2.24438">
        <ele>285</ele>
        <time>2020-08-25T10:08:57.561Z</time>
      </trkpt>
      <trkpt lat="43.97906" lon="2.24437">
        <ele>284</ele>
        <time>2020-08-25T10:08:58.561Z</time>
      </trkpt>
      <trkpt lat="43.97907" lon="2.24436">
        <ele>284</ele>
        <time>2020-08-25T10:08:59.561Z</time>
      </trkpt>
      <trkpt lat="43.97908" lon="2.24435">
        <ele>284</ele>
        <time>2020-08-25T10:09:00.561Z</time>
      </trkpt>
      <trkpt lat="43.97909" lon="2.24435">
        <ele>284</ele>
        <time>2020-08-25T10:09:01.561Z</time>
      </trkpt>
      <trkpt lat="43.97909" lon="2.24434">
        <ele>284</ele>
        <time>2020-08-25T10:09:02.561Z</time>
      </trkpt>
      <trkpt lat="43.9791" lon="2.24433">
        <ele>284</ele>
        <time>2020-08-25T10:09:03.561Z</time>
      </trkpt>
      <trkpt lat="43.97911" lon="2.24432">
        <ele>284</ele>
        <time>2020-08-25T10:09:04.561Z</time>
      </trkpt>
      <trkpt lat="43.97912" lon="2.24431">
        <ele>284</ele>
        <time>2020-08-25T10:09:05.561Z</time>
      </trkpt>
      <trkpt lat="43.97913" lon="2.2443">
        <ele>284</ele>
        <time>2020-08-25T10:09:06.561Z</time>
      </trkpt>
      <trkpt lat="43.97914" lon="2.24429">
        <ele>284</ele>
        <time>2020-08-25T10:09:07.561Z</time>
      </trkpt>
      <trkpt lat="43.97915" lon="2.24428">
        <ele>284</ele>
        <time>2020-08-25T10:09:08.561Z</time>
      </trkpt>
      <trkpt lat="43.97915" lon="2.24428">
        <ele>284</ele>
        <time>2020-08-25T10:09:09.561Z</time>
      </trkpt>
      <trkpt lat="43.97916" lon="2.24427">
        <ele>284</ele>
        <time>2020-08-25T10:09:10.561Z</time>
      </trkpt>
      <trkpt lat="43.97917" lon="2.24425">
        <ele>283</ele>
        <time>2020-08-25T10:09:11.561Z</time>
      </trkpt>
      <trkpt lat="43.97918" lon="2.24424">
        <ele>283</ele>
        <time>2020-08-25T10:09:12.561Z</time>
      </trkpt>
      <trkpt lat="43.97918" lon="2.24423">
        <ele>283</ele>
        <time>2020-08-25T10:09:13.561Z</time>
      </trkpt>
      <trkpt lat="43.97919" lon="2.24422">
        <ele>283</ele>
        <time>2020-08-25T10:09:14.561Z</time>
      </trkpt>
      <trkpt lat="43.9792" lon="2.24421">
        <ele>283</ele>
        <time>2020-08-25T10:09:15.561Z</time>
      </trkpt>
      <trkpt lat="43.9792" lon="2.2442">
        <ele>283</ele>
        <time>2020-08-25T10:09:16.561Z</time>
      </trkpt>
      <trkpt lat="43.97921" lon="2.24419">
        <ele>283</ele>
        <time>2020-08-25T10:09:17.561Z</time>
      </trkpt>
      <trkpt lat="43.97922" lon="2.24418">
        <ele>283</ele>
        <time>2020-08-25T10:09:18.561Z</time>
      </trkpt>
      <trkpt lat="43.97922" lon="2.24417">
        <ele>283</ele>
        <time>2020-08-25T10:09:19.561Z</time>
      </trkpt>
      <trkpt lat="43.97923" lon="2.24416">
        <ele>283</ele>
        <time>2020-08-25T10:09:20.561Z</time>
      </trkpt>
      <trkpt lat="43.97924" lon="2.24415">
        <ele>283</ele>
        <time>2020-08-25T10:09:21.561Z</time>
      </trkpt>
      <trkpt lat="43.97924" lon="2.24414">
        <ele>283</ele>
        <time>2020-08-25T10:09:22.561Z</time>
      </trkpt>
      <trkpt lat="43.97925" lon="2.24413">
        <ele>283</ele>
        <time>2020-08-25T10:09:23.561Z</time>
      </trkpt>
      <trkpt lat="43.97926" lon="2.24412">
        <ele>283</ele>
        <time>2020-08-25T10:09:24.561Z</time>
      </trkpt>
      <trkpt lat="43.97927" lon="2.24411">
        <ele>283</ele>
        <time>2020-08-25T10:09:25.561Z</time>
      </trkpt>
      <trkpt lat="43.97927" lon="2.2441">
        <ele>283</ele>
        <time>2020-08-25T10:09:26.561Z</time>
      </trkpt>
      <trkpt lat="43.97928" lon="2.24409">
        <ele>283</ele>
        <time>2020-08-25T10:09:27.561Z</time>
      </trkpt>
      <trkpt lat="43.97929" lon="2.24408">
        <ele>283</ele>
        <time>2020-08-25T10:09:28.561Z</time>
      </trkpt>
      <trkpt lat="43.97929" lon="2.24407">
        <ele>283</ele>
        <time>2020-08-25T10:09:29.561Z</time>
      </trkpt>
      <trkpt lat="43.9793" lon="2.24406">
        <ele>283</ele>
        <time>2020-08-25T10:09:30.561Z</time>
      </trkpt>
      <trkpt lat="43.97931" lon="2.24404">
        <ele>283</ele>
        <time>2020-08-25T10:09:31.561Z</time>
      </trkpt>
      <trkpt lat="43.97931" lon="2.24403">
        <ele>283</ele>
        <time>2020-08-25T10:09:32.561Z</time>
      </trkpt>
      <trkpt lat="43.97932" lon="2.24402">
        <ele>282</ele>
        <time>2020-08-25T10:09:33.561Z</time>
      </trkpt>
      <trkpt lat="43.97932" lon="2.24401">
        <ele>282</ele>
        <time>2020-08-25T10:09:34.561Z</time>
      </trkpt>
      <trkpt lat="43.97933" lon="2.244">
        <ele>282</ele>
        <time>2020-08-25T10:09:35.561Z</time>
      </trkpt>
      <trkpt lat="43.97934" lon="2.24398">
        <ele>282</ele>
        <time>2020-08-25T10:09:36.561Z</time>
      </trkpt>
      <trkpt lat="43.97934" lon="2.24397">
        <ele>282</ele>
        <time>2020-08-25T10:09:37.561Z</time>
      </trkpt>
      <trkpt lat="43.97935" lon="2.24396">
        <ele>282</ele>
        <time>2020-08-25T10:09:38.561Z</time>
      </trkpt>
      <trkpt lat="43.97935" lon="2.24395">
        <ele>282</ele>
        <time>2020-08-25T10:09:39.561Z</time>
      </trkpt>
      <trkpt lat="43.97936" lon="2.24393">
        <ele>281</ele>
        <time>2020-08-25T10:09:40.561Z</time>
      </trkpt>
      <trkpt lat="43.97936" lon="2.24392">
        <ele>281</ele>
        <time>2020-08-25T10:09:41.561Z</time>
      </trkpt>
      <trkpt lat="43.97936" lon="2.2439">
        <ele>281</ele>
        <time>2020-08-25T10:09:42.561Z</time>
      </trkpt>
      <trkpt lat="43.97936" lon="2.24389">
        <ele>281</ele>
        <time>2020-08-25T10:09:43.561Z</time>
      </trkpt>
      <trkpt lat="43.97937" lon="2.24387">
        <ele>281</ele>
        <time>2020-08-25T10:09:44.561Z</time>
      </trkpt>
      <trkpt lat="43.97937" lon="2.24386">
        <ele>280</ele>
        <time>2020-08-25T10:09:45.561Z</time>
      </trkpt>
      <trkpt lat="43.97938" lon="2.24385">
        <ele>280</ele>
        <time>2020-08-25T10:09:46.561Z</time>
      </trkpt>
      <trkpt lat="43.97938" lon="2.24384">
        <ele>280</ele>
        <time>2020-08-25T10:09:47.561Z</time>
      </trkpt>
      <trkpt lat="43.97938" lon="2.24382">
        <ele>280</ele>
        <time>2020-08-25T10:09:48.561Z</time>
      </trkpt>
      <trkpt lat="43.97939" lon="2.24381">
        <ele>280</ele>
        <time>2020-08-25T10:09:49.561Z</time>
      </trkpt>
      <trkpt lat="43.97939" lon="2.2438">
        <ele>280</ele>
        <time>2020-08-25T10:09:50.561Z</time>
      </trkpt>
      <trkpt lat="43.9794" lon="2.24379">
        <ele>280</ele>
        <time>2020-08-25T10:09:51.561Z</time>
      </trkpt>
      <trkpt lat="43.9794" lon="2.24377">
        <ele>279</ele>
        <time>2020-08-25T10:09:52.561Z</time>
      </trkpt>
      <trkpt lat="43.9794" lon="2.24376">
        <ele>279</ele>
        <time>2020-08-25T10:09:53.561Z</time>
      </trkpt>
      <trkpt lat="43.9794" lon="2.24374">
        <ele>279</ele>
        <time>2020-08-25T10:09:54.561Z</time>
      </trkpt>
      <trkpt lat="43.97941" lon="2.24373">
        <ele>280</ele>
        <time>2020-08-25T10:09:55.561Z</time>
      </trkpt>
      <trkpt lat="43.97941" lon="2.24372">
        <ele>280</ele>
        <time>2020-08-25T10:09:56.561Z</time>
      </trkpt>
      <trkpt lat="43.97941" lon="2.2437">
        <ele>280</ele>
        <time>2020-08-25T10:09:57.561Z</time>
      </trkpt>
      <trkpt lat="43.97942" lon="2.24369">
        <ele>280</ele>
        <time>2020-08-25T10:09:58.561Z</time>
      </trkpt>
      <trkpt lat="43.97942" lon="2.24368">
        <ele>280</ele>
        <time>2020-08-25T10:09:59.561Z</time>
      </trkpt>
      <trkpt lat="43.97942" lon="2.24366">
        <ele>280</ele>
        <time>2020-08-25T10:10:00.561Z</time>
      </trkpt>
      <trkpt lat="43.97943" lon="2.24365">
        <ele>280</ele>
        <time>2020-08-25T10:10:01.561Z</time>
      </trkpt>
      <trkpt lat="43.97943" lon="2.24364">
        <ele>280</ele>
        <time>2020-08-25T10:10:02.561Z</time>
      </trkpt>
      <trkpt lat="43.97943" lon="2.24363">
        <ele>280</ele>
        <time>2020-08-25T10:10:03.561Z</time>
      </trkpt>
      <trkpt lat="43.97943" lon="2.24361">
        <ele>279</ele>
        <time>2020-08-25T10:10:04.561Z</time>
      </trkpt>
      <trkpt lat="43.97943" lon="2.2436">
        <ele>279</ele>
        <time>2020-08-25T10:10:05.561Z</time>
      </trkpt>
      <trkpt lat="43.97943" lon="2.24359">
        <ele>279</ele>
        <time>2020-08-25T10:10:06.561Z</time>
      </trkpt>
      <trkpt lat="43.97944" lon="2.24357">
        <ele>279</ele>
        <time>2020-08-25T10:10:07.561Z</time>
      </trkpt>
      <trkpt lat="43.97944" lon="2.24356">
        <ele>279</ele>
        <time>2020-08-25T10:10:08.561Z</time>
      </trkpt>
      <trkpt lat="43.97944" lon="2.24355">
        <ele>279</ele>
        <time>2020-08-25T10:10:09.561Z</time>
      </trkpt>
      <trkpt lat="43.97944" lon="2.24354">
        <ele>279</ele>
        <time>2020-08-25T10:10:10.561Z</time>
      </trkpt>
      <trkpt lat="43.97944" lon="2.24352">
        <ele>279</ele>
        <time>2020-08-25T10:10:11.561Z</time>
      </trkpt>
      <trkpt lat="43.97944" lon="2.24351">
        <ele>279</ele>
        <time>2020-08-25T10:10:12.561Z</time>
      </trkpt>
      <trkpt lat="43.97944" lon="2.24349">
        <ele>279</ele>
        <time>2020-08-25T10:10:13.561Z</time>
      </trkpt>
      <trkpt lat="43.97944" lon="2.24348">
        <ele>279</ele>
        <time>2020-08-25T10:10:14.561Z</time>
      </trkpt>
      <trkpt lat="43.97944" lon="2.24347">
        <ele>279</ele>
        <time>2020-08-25T10:10:15.561Z</time>
      </trkpt>
      <trkpt lat="43.97944" lon="2.24346">
        <ele>279</ele>
        <time>2020-08-25T10:10:16.561Z</time>
      </trkpt>
      <trkpt lat="43.97944" lon="2.24344">
        <ele>279</ele>
        <time>2020-08-25T10:10:17.561Z</time>
      </trkpt>
      <trkpt lat="43.97944" lon="2.24343">
        <ele>279</ele>
        <time>2020-08-25T10:10:18.561Z</time>
      </trkpt>
      <trkpt lat="43.97944" lon="2.24341">
        <ele>280</ele>
        <time>2020-08-25T10:10:19.561Z</time>
      </trkpt>
      <trkpt lat="43.97944" lon="2.2434">
        <ele>280</ele>
        <time>2020-08-25T10:10:20.561Z</time>
      </trkpt>
      <trkpt lat="43.97944" lon="2.24338">
        <ele>280</ele>
        <time>2020-08-25T10:10:21.561Z</time>
      </trkpt>
      <trkpt lat="43.97944" lon="2.24337">
        <ele>279</ele>
        <time>2020-08-25T10:10:22.561Z</time>
      </trkpt>
      <trkpt lat="43.97944" lon="2.24336">
        <ele>279</ele>
        <time>2020-08-25T10:10:23.561Z</time>
      </trkpt>
      <trkpt lat="43.97944" lon="2.24335">
        <ele>279</ele>
        <time>2020-08-25T10:10:24.561Z</time>
      </trkpt>
      <trkpt lat="43.97944" lon="2.24333">
        <ele>279</ele>
        <time>2020-08-25T10:10:25.561Z</time>
      </trkpt>
      <trkpt lat="43.97944" lon="2.24332">
        <ele>279</ele>
        <time>2020-08-25T10:10:26.561Z</time>
      </trkpt>
      <trkpt lat="43.97944" lon="2.2433">
        <ele>280</ele>
        <time>2020-08-25T10:10:27.561Z</time>
      </trkpt>
      <trkpt lat="43.97944" lon="2.24329">
        <ele>280</ele>
        <time>2020-08-25T10:10:28.561Z</time>
      </trkpt>
      <trkpt lat="43.97944" lon="2.24328">
        <ele>280</ele>
        <time>2020-08-25T10:10:29.561Z</time>
      </trkpt>
      <trkpt lat="43.97944" lon="2.24327">
        <ele>280</ele>
        <time>2020-08-25T10:10:30.561Z</time>
      </trkpt>
      <trkpt lat="43.97944" lon="2.24325">
        <ele>280</ele>
        <time>2020-08-25T10:10:31.561Z</time>
      </trkpt>
      <trkpt lat="43.97944" lon="2.24324">
        <ele>280</ele>
        <time>2020-08-25T10:10:32.561Z</time>
      </trkpt>
      <trkpt lat="43.97944" lon="2.24323">
        <ele>280</ele>
        <time>2020-08-25T10:10:33.561Z</time>
      </trkpt>
      <trkpt lat="43.97944" lon="2.24321">
        <ele>280</ele>
        <time>2020-08-25T10:10:34.561Z</time>
      </trkpt>
      <trkpt lat="43.97944" lon="2.2432">
        <ele>280</ele>
        <time>2020-08-25T10:10:35.561Z</time>
      </trkpt>
      <trkpt lat="43.97944" lon="2.24318">
        <ele>280</ele>
        <time>2020-08-25T10:10:36.561Z</time>
      </trkpt>
      <trkpt lat="43.97944" lon="2.24317">
        <ele>280</ele>
        <time>2020-08-25T10:10:37.561Z</time>
      </trkpt>
      <trkpt lat="43.97944" lon="2.24315">
        <ele>280</ele>
        <time>2020-08-25T10:10:38.561Z</time>
      </trkpt>
      <trkpt lat="43.97944" lon="2.24314">
        <ele>280</ele>
        <time>2020-08-25T10:10:39.561Z</time>
      </trkpt>
      <trkpt lat="43.97944" lon="2.24312">
        <ele>280</ele>
        <time>2020-08-25T10:10:40.561Z</time>
      </trkpt>
      <trkpt lat="43.97944" lon="2.24311">
        <ele>280</ele>
        <time>2020-08-25T10:10:41.561Z</time>
      </trkpt>
      <trkpt lat="43.97944" lon="2.24309">
        <ele>281</ele>
        <time>2020-08-25T10:10:42.561Z</time>
      </trkpt>
      <trkpt lat="43.97945" lon="2.24308">
        <ele>281</ele>
        <time>2020-08-25T10:10:43.561Z</time>
      </trkpt>
      <trkpt lat="43.97945" lon="2.24307">
        <ele>281</ele>
        <time>2020-08-25T10:10:44.561Z</time>
      </trkpt>
      <trkpt lat="43.97945" lon="2.24306">
        <ele>281</ele>
        <time>2020-08-25T10:10:45.561Z</time>
      </trkpt>
      <trkpt lat="43.97946" lon="2.24304">
        <ele>281</ele>
        <time>2020-08-25T10:10:46.561Z</time>
      </trkpt>
      <trkpt lat="43.97946" lon="2.24303">
        <ele>281</ele>
        <time>2020-08-25T10:10:47.561Z</time>
      </trkpt>
      <trkpt lat="43.97946" lon="2.24301">
        <ele>281</ele>
        <time>2020-08-25T10:10:48.561Z</time>
      </trkpt>
      <trkpt lat="43.97946" lon="2.243">
        <ele>280</ele>
        <time>2020-08-25T10:10:49.561Z</time>
      </trkpt>
      <trkpt lat="43.97946" lon="2.24298">
        <ele>280</ele>
        <time>2020-08-25T10:10:50.561Z</time>
      </trkpt>
      <trkpt lat="43.97946" lon="2.24297">
        <ele>280</ele>
        <time>2020-08-25T10:10:51.561Z</time>
      </trkpt>
      <trkpt lat="43.97946" lon="2.24295">
        <ele>280</ele>
        <time>2020-08-25T10:10:52.561Z</time>
      </trkpt>
      <trkpt lat="43.97946" lon="2.24293">
        <ele>280</ele>
        <time>2020-08-25T10:10:53.561Z</time>
      </trkpt>
      <trkpt lat="43.97947" lon="2.24291">
        <ele>279</ele>
        <time>2020-08-25T10:10:54.561Z</time>
      </trkpt>
      <trkpt lat="43.97947" lon="2.24289">
        <ele>279</ele>
        <time>2020-08-25T10:10:55.561Z</time>
      </trkpt>
      <trkpt lat="43.97947" lon="2.24287">
        <ele>279</ele>
        <time>2020-08-25T10:10:56.561Z</time>
      </trkpt>
      <trkpt lat="43.97948" lon="2.24285">
        <ele>278</ele>
        <time>2020-08-25T10:10:57.561Z</time>
      </trkpt>
      <trkpt lat="43.97948" lon="2.24284">
        <ele>278</ele>
        <time>2020-08-25T10:10:58.561Z</time>
      </trkpt>
      <trkpt lat="43.97948" lon="2.24282">
        <ele>278</ele>
        <time>2020-08-25T10:10:59.561Z</time>
      </trkpt>
      <trkpt lat="43.97949" lon="2.2428">
        <ele>278</ele>
        <time>2020-08-25T10:11:00.561Z</time>
      </trkpt>
      <trkpt lat="43.97949" lon="2.24278">
        <ele>278</ele>
        <time>2020-08-25T10:11:01.561Z</time>
      </trkpt>
      <trkpt lat="43.97949" lon="2.24276">
        <ele>278</ele>
        <time>2020-08-25T10:11:02.561Z</time>
      </trkpt>
      <trkpt lat="43.9795" lon="2.24274">
        <ele>278</ele>
        <time>2020-08-25T10:11:03.561Z</time>
      </trkpt>
      <trkpt lat="43.9795" lon="2.24273">
        <ele>277</ele>
        <time>2020-08-25T10:11:04.561Z</time>
      </trkpt>
      <trkpt lat="43.97951" lon="2.24271">
        <ele>277</ele>
        <time>2020-08-25T10:11:05.561Z</time>
      </trkpt>
      <trkpt lat="43.97951" lon="2.24269">
        <ele>277</ele>
        <time>2020-08-25T10:11:06.561Z</time>
      </trkpt>
      <trkpt lat="43.97952" lon="2.24267">
        <ele>277</ele>
        <time>2020-08-25T10:11:07.561Z</time>
      </trkpt>
      <trkpt lat="43.97952" lon="2.24266">
        <ele>277</ele>
        <time>2020-08-25T10:11:08.561Z</time>
      </trkpt>
      <trkpt lat="43.97953" lon="2.24264">
        <ele>277</ele>
        <time>2020-08-25T10:11:09.561Z</time>
      </trkpt>
      <trkpt lat="43.97953" lon="2.24262">
        <ele>277</ele>
        <time>2020-08-25T10:11:10.561Z</time>
      </trkpt>
      <trkpt lat="43.97954" lon="2.2426">
        <ele>276</ele>
        <time>2020-08-25T10:11:11.561Z</time>
      </trkpt>
      <trkpt lat="43.97954" lon="2.24259">
        <ele>276</ele>
        <time>2020-08-25T10:11:12.561Z</time>
      </trkpt>
      <trkpt lat="43.97955" lon="2.24257">
        <ele>276</ele>
        <time>2020-08-25T10:11:13.561Z</time>
      </trkpt>
      <trkpt lat="43.97955" lon="2.24256">
        <ele>276</ele>
        <time>2020-08-25T10:11:14.561Z</time>
      </trkpt>
      <trkpt lat="43.97956" lon="2.24255">
        <ele>276</ele>
        <time>2020-08-25T10:11:15.561Z</time>
      </trkpt>
      <trkpt lat="43.97956" lon="2.24254">
        <ele>276</ele>
        <time>2020-08-25T10:11:16.561Z</time>
      </trkpt>
      <trkpt lat="43.97957" lon="2.24252">
        <ele>276</ele>
        <time>2020-08-25T10:11:17.561Z</time>
      </trkpt>
      <trkpt lat="43.97957" lon="2.24251">
        <ele>275</ele>
        <time>2020-08-25T10:11:18.561Z</time>
      </trkpt>
      <trkpt lat="43.97958" lon="2.24249">
        <ele>275</ele>
        <time>2020-08-25T10:11:19.561Z</time>
      </trkpt>
      <trkpt lat="43.97958" lon="2.24247">
        <ele>275</ele>
        <time>2020-08-25T10:11:20.561Z</time>
      </trkpt>
      <trkpt lat="43.97958" lon="2.24245">
        <ele>275</ele>
        <time>2020-08-25T10:11:21.561Z</time>
      </trkpt>
      <trkpt lat="43.97959" lon="2.24244">
        <ele>275</ele>
        <time>2020-08-25T10:11:22.561Z</time>
      </trkpt>
      <trkpt lat="43.97959" lon="2.24242">
        <ele>274</ele>
        <time>2020-08-25T10:11:23.561Z</time>
      </trkpt>
      <trkpt lat="43.97959" lon="2.24241">
        <ele>274</ele>
        <time>2020-08-25T10:11:24.561Z</time>
      </trkpt>
      <trkpt lat="43.9796" lon="2.24239">
        <ele>274</ele>
        <time>2020-08-25T10:11:25.561Z</time>
      </trkpt>
      <trkpt lat="43.9796" lon="2.24238">
        <ele>274</ele>
        <time>2020-08-25T10:11:26.561Z</time>
      </trkpt>
      <trkpt lat="43.9796" lon="2.24236">
        <ele>273</ele>
        <time>2020-08-25T10:11:27.561Z</time>
      </trkpt>
      <trkpt lat="43.97961" lon="2.24235">
        <ele>273</ele>
        <time>2020-08-25T10:11:28.561Z</time>
      </trkpt>
      <trkpt lat="43.97961" lon="2.24234">
        <ele>273</ele>
        <time>2020-08-25T10:11:29.561Z</time>
      </trkpt>
      <trkpt lat="43.97961" lon="2.24232">
        <ele>272</ele>
        <time>2020-08-25T10:11:30.561Z</time>
      </trkpt>
      <trkpt lat="43.97961" lon="2.24232">
        <ele>272</ele>
        <time>2020-08-25T10:11:31.561Z</time>
      </trkpt>
      <trkpt lat="43.97962" lon="2.2423">
        <ele>272</ele>
        <time>2020-08-25T10:11:32.561Z</time>
      </trkpt>
      <trkpt lat="43.97962" lon="2.24229">
        <ele>272</ele>
        <time>2020-08-25T10:11:33.561Z</time>
      </trkpt>
      <trkpt lat="43.97962" lon="2.24228">
        <ele>271</ele>
        <time>2020-08-25T10:11:34.561Z</time>
      </trkpt>
      <trkpt lat="43.97962" lon="2.24227">
        <ele>271</ele>
        <time>2020-08-25T10:11:35.561Z</time>
      </trkpt>
      <trkpt lat="43.97962" lon="2.24226">
        <ele>271</ele>
        <time>2020-08-25T10:11:36.561Z</time>
      </trkpt>
      <trkpt lat="43.97962" lon="2.24225">
        <ele>271</ele>
        <time>2020-08-25T10:11:37.561Z</time>
      </trkpt>
      <trkpt lat="43.97962" lon="2.24224">
        <ele>271</ele>
        <time>2020-08-25T10:11:38.561Z</time>
      </trkpt>
      <trkpt lat="43.97962" lon="2.24223">
        <ele>271</ele>
        <time>2020-08-25T10:11:39.561Z</time>
      </trkpt>
      <trkpt lat="43.97962" lon="2.24222">
        <ele>271</ele>
        <time>2020-08-25T10:11:40.561Z</time>
      </trkpt>
      <trkpt lat="43.97962" lon="2.24221">
        <ele>271</ele>
        <time>2020-08-25T10:11:41.561Z</time>
      </trkpt>
      <trkpt lat="43.97962" lon="2.24219">
        <ele>271</ele>
        <time>2020-08-25T10:11:42.561Z</time>
      </trkpt>
      <trkpt lat="43.97962" lon="2.24218">
        <ele>270</ele>
        <time>2020-08-25T10:11:43.561Z</time>
      </trkpt>
      <trkpt lat="43.97962" lon="2.24217">
        <ele>270</ele>
        <time>2020-08-25T10:11:44.561Z</time>
      </trkpt>
      <trkpt lat="43.97963" lon="2.24216">
        <ele>270</ele>
        <time>2020-08-25T10:11:45.561Z</time>
      </trkpt>
      <trkpt lat="43.97963" lon="2.24215">
        <ele>270</ele>
        <time>2020-08-25T10:11:46.561Z</time>
      </trkpt>
      <trkpt lat="43.97963" lon="2.24214">
        <ele>270</ele>
        <time>2020-08-25T10:11:47.561Z</time>
      </trkpt>
      <trkpt lat="43.97963" lon="2.24212">
        <ele>270</ele>
        <time>2020-08-25T10:11:48.561Z</time>
      </trkpt>
      <trkpt lat="43.97964" lon="2.24211">
        <ele>270</ele>
        <time>2020-08-25T10:11:49.561Z</time>
      </trkpt>
      <trkpt lat="43.97964" lon="2.2421">
        <ele>270</ele>
        <time>2020-08-25T10:11:50.561Z</time>
      </trkpt>
      <trkpt lat="43.97965" lon="2.24208">
        <ele>269</ele>
        <time>2020-08-25T10:11:51.561Z</time>
      </trkpt>
      <trkpt lat="43.97965" lon="2.24207">
        <ele>269</ele>
        <time>2020-08-25T10:11:52.561Z</time>
      </trkpt>
      <trkpt lat="43.97966" lon="2.24206">
        <ele>269</ele>
        <time>2020-08-25T10:11:53.561Z</time>
      </trkpt>
      <trkpt lat="43.97966" lon="2.24204">
        <ele>269</ele>
        <time>2020-08-25T10:11:54.561Z</time>
      </trkpt>
      <trkpt lat="43.97967" lon="2.24202">
        <ele>269</ele>
        <time>2020-08-25T10:11:55.561Z</time>
      </trkpt>
      <trkpt lat="43.97967" lon="2.24201">
        <ele>268</ele>
        <time>2020-08-25T10:11:56.561Z</time>
      </trkpt>
      <trkpt lat="43.97967" lon="2.24199">
        <ele>268</ele>
        <time>2020-08-25T10:11:57.561Z</time>
      </trkpt>
      <trkpt lat="43.97968" lon="2.24198">
        <ele>268</ele>
        <time>2020-08-25T10:11:58.561Z</time>
      </trkpt>
      <trkpt lat="43.97968" lon="2.24196">
        <ele>268</ele>
        <time>2020-08-25T10:11:59.561Z</time>
      </trkpt>
      <trkpt lat="43.97969" lon="2.24195">
        <ele>267</ele>
        <time>2020-08-25T10:12:00.561Z</time>
      </trkpt>
      <trkpt lat="43.97969" lon="2.24193">
        <ele>267</ele>
        <time>2020-08-25T10:12:01.561Z</time>
      </trkpt>
      <trkpt lat="43.97969" lon="2.24192">
        <ele>267</ele>
        <time>2020-08-25T10:12:02.561Z</time>
      </trkpt>
      <trkpt lat="43.9797" lon="2.24191">
        <ele>266</ele>
        <time>2020-08-25T10:12:03.561Z</time>
      </trkpt>
      <trkpt lat="43.9797" lon="2.24189">
        <ele>266</ele>
        <time>2020-08-25T10:12:04.561Z</time>
      </trkpt>
      <trkpt lat="43.97971" lon="2.24188">
        <ele>266</ele>
        <time>2020-08-25T10:12:05.561Z</time>
      </trkpt>
      <trkpt lat="43.97971" lon="2.24186">
        <ele>265</ele>
        <time>2020-08-25T10:12:06.561Z</time>
      </trkpt>
      <trkpt lat="43.97971" lon="2.24185">
        <ele>265</ele>
        <time>2020-08-25T10:12:07.561Z</time>
      </trkpt>
      <trkpt lat="43.97972" lon="2.24183">
        <ele>265</ele>
        <time>2020-08-25T10:12:08.561Z</time>
      </trkpt>
      <trkpt lat="43.97972" lon="2.24181">
        <ele>264</ele>
        <time>2020-08-25T10:12:09.561Z</time>
      </trkpt>
      <trkpt lat="43.97972" lon="2.2418">
        <ele>264</ele>
        <time>2020-08-25T10:12:10.561Z</time>
      </trkpt>
      <trkpt lat="43.97972" lon="2.24178">
        <ele>264</ele>
        <time>2020-08-25T10:12:11.561Z</time>
      </trkpt>
      <trkpt lat="43.97972" lon="2.24176">
        <ele>264</ele>
        <time>2020-08-25T10:12:12.561Z</time>
      </trkpt>
      <trkpt lat="43.97972" lon="2.24175">
        <ele>263</ele>
        <time>2020-08-25T10:12:13.561Z</time>
      </trkpt>
      <trkpt lat="43.97972" lon="2.24173">
        <ele>263</ele>
        <time>2020-08-25T10:12:14.561Z</time>
      </trkpt>
      <trkpt lat="43.97972" lon="2.24172">
        <ele>263</ele>
        <time>2020-08-25T10:12:15.561Z</time>
      </trkpt>
      <trkpt lat="43.97973" lon="2.24171">
        <ele>263</ele>
        <time>2020-08-25T10:12:16.561Z</time>
      </trkpt>
      <trkpt lat="43.97973" lon="2.24169">
        <ele>263</ele>
        <time>2020-08-25T10:12:17.561Z</time>
      </trkpt>
      <trkpt lat="43.97973" lon="2.24168">
        <ele>263</ele>
        <time>2020-08-25T10:12:18.561Z</time>
      </trkpt>
      <trkpt lat="43.97974" lon="2.24167">
        <ele>263</ele>
        <time>2020-08-25T10:12:19.561Z</time>
      </trkpt>
      <trkpt lat="43.97975" lon="2.24166">
        <ele>263</ele>
        <time>2020-08-25T10:12:20.561Z</time>
      </trkpt>
      <trkpt lat="43.97975" lon="2.24165">
        <ele>263</ele>
        <time>2020-08-25T10:12:21.561Z</time>
      </trkpt>
      <trkpt lat="43.97976" lon="2.24164">
        <ele>263</ele>
        <time>2020-08-25T10:12:22.561Z</time>
      </trkpt>
      <trkpt lat="43.97976" lon="2.24162">
        <ele>263</ele>
        <time>2020-08-25T10:12:23.561Z</time>
      </trkpt>
      <trkpt lat="43.97976" lon="2.24161">
        <ele>263</ele>
        <time>2020-08-25T10:12:24.561Z</time>
      </trkpt>
      <trkpt lat="43.97976" lon="2.24159">
        <ele>263</ele>
        <time>2020-08-25T10:12:25.561Z</time>
      </trkpt>
      <trkpt lat="43.97976" lon="2.24158">
        <ele>263</ele>
        <time>2020-08-25T10:12:26.561Z</time>
      </trkpt>
      <trkpt lat="43.97975" lon="2.24156">
        <ele>263</ele>
        <time>2020-08-25T10:12:27.561Z</time>
      </trkpt>
      <trkpt lat="43.97975" lon="2.24155">
        <ele>263</ele>
        <time>2020-08-25T10:12:28.561Z</time>
      </trkpt>
      <trkpt lat="43.97975" lon="2.24154">
        <ele>263</ele>
        <time>2020-08-25T10:12:29.561Z</time>
      </trkpt>
      <trkpt lat="43.97975" lon="2.24153">
        <ele>263</ele>
        <time>2020-08-25T10:12:30.561Z</time>
      </trkpt>
      <trkpt lat="43.97975" lon="2.24152">
        <ele>263</ele>
        <time>2020-08-25T10:12:31.561Z</time>
      </trkpt>
      <trkpt lat="43.97975" lon="2.24152">
        <ele>263</ele>
        <time>2020-08-25T10:12:32.561Z</time>
      </trkpt>
      <trkpt lat="43.97975" lon="2.24152">
        <ele>263</ele>
        <time>2020-08-25T10:12:33.561Z</time>
      </trkpt>
      <trkpt lat="43.97975" lon="2.24152">
        <ele>263</ele>
        <time>2020-08-25T10:12:34.561Z</time>
      </trkpt>
      <trkpt lat="43.97974" lon="2.24149">
        <ele>263</ele>
        <time>2020-08-25T10:12:41.562Z</time>
      </trkpt>
      <trkpt lat="43.97974" lon="2.24148">
        <ele>263</ele>
        <time>2020-08-25T10:12:42.562Z</time>
      </trkpt>
      <trkpt lat="43.97974" lon="2.24147">
        <ele>263</ele>
        <time>2020-08-25T10:12:43.562Z</time>
      </trkpt>
      <trkpt lat="43.97973" lon="2.24145">
        <ele>263</ele>
        <time>2020-08-25T10:12:44.562Z</time>
      </trkpt>
      <trkpt lat="43.97973" lon="2.24144">
        <ele>263</ele>
        <time>2020-08-25T10:12:45.562Z</time>
      </trkpt>
      <trkpt lat="43.97972" lon="2.24143">
        <ele>263</ele>
        <time>2020-08-25T10:12:46.562Z</time>
      </trkpt>
      <trkpt lat="43.97972" lon="2.24141">
        <ele>263</ele>
        <time>2020-08-25T10:12:47.562Z</time>
      </trkpt>
      <trkpt lat="43.97972" lon="2.2414">
        <ele>263</ele>
        <time>2020-08-25T10:12:48.562Z</time>
      </trkpt>
      <trkpt lat="43.97971" lon="2.24139">
        <ele>263</ele>
        <time>2020-08-25T10:12:49.562Z</time>
      </trkpt>
      <trkpt lat="43.97971" lon="2.24137">
        <ele>263</ele>
        <time>2020-08-25T10:12:50.562Z</time>
      </trkpt>
      <trkpt lat="43.9797" lon="2.24136">
        <ele>264</ele>
        <time>2020-08-25T10:12:51.562Z</time>
      </trkpt>
      <trkpt lat="43.9797" lon="2.24135">
        <ele>264</ele>
        <time>2020-08-25T10:12:52.562Z</time>
      </trkpt>
      <trkpt lat="43.97969" lon="2.24134">
        <ele>264</ele>
        <time>2020-08-25T10:12:53.562Z</time>
      </trkpt>
      <trkpt lat="43.97968" lon="2.24133">
        <ele>264</ele>
        <time>2020-08-25T10:12:54.562Z</time>
      </trkpt>
      <trkpt lat="43.97968" lon="2.24132">
        <ele>264</ele>
        <time>2020-08-25T10:12:55.562Z</time>
      </trkpt>
      <trkpt lat="43.97967" lon="2.24131">
        <ele>264</ele>
        <time>2020-08-25T10:12:56.562Z</time>
      </trkpt>
      <trkpt lat="43.97966" lon="2.24129">
        <ele>264</ele>
        <time>2020-08-25T10:12:57.562Z</time>
      </trkpt>
      <trkpt lat="43.97966" lon="2.24128">
        <ele>264</ele>
        <time>2020-08-25T10:12:58.562Z</time>
      </trkpt>
      <trkpt lat="43.97965" lon="2.24127">
        <ele>264</ele>
        <time>2020-08-25T10:12:59.562Z</time>
      </trkpt>
      <trkpt lat="43.97964" lon="2.24125">
        <ele>264</ele>
        <time>2020-08-25T10:13:00.562Z</time>
      </trkpt>
      <trkpt lat="43.97964" lon="2.24124">
        <ele>264</ele>
        <time>2020-08-25T10:13:01.562Z</time>
      </trkpt>
      <trkpt lat="43.97963" lon="2.24123">
        <ele>264</ele>
        <time>2020-08-25T10:13:02.562Z</time>
      </trkpt>
      <trkpt lat="43.97963" lon="2.24121">
        <ele>264</ele>
        <time>2020-08-25T10:13:03.562Z</time>
      </trkpt>
      <trkpt lat="43.97962" lon="2.24121">
        <ele>264</ele>
        <time>2020-08-25T10:13:04.562Z</time>
      </trkpt>
      <trkpt lat="43.97961" lon="2.2412">
        <ele>265</ele>
        <time>2020-08-25T10:13:05.562Z</time>
      </trkpt>
      <trkpt lat="43.97961" lon="2.24119">
        <ele>265</ele>
        <time>2020-08-25T10:13:06.562Z</time>
      </trkpt>
      <trkpt lat="43.9796" lon="2.24118">
        <ele>265</ele>
        <time>2020-08-25T10:13:07.562Z</time>
      </trkpt>
      <trkpt lat="43.97959" lon="2.24117">
        <ele>265</ele>
        <time>2020-08-25T10:13:08.562Z</time>
      </trkpt>
      <trkpt lat="43.97959" lon="2.24116">
        <ele>265</ele>
        <time>2020-08-25T10:13:09.562Z</time>
      </trkpt>
      <trkpt lat="43.97958" lon="2.24115">
        <ele>265</ele>
        <time>2020-08-25T10:13:10.562Z</time>
      </trkpt>
      <trkpt lat="43.97958" lon="2.24115">
        <ele>266</ele>
        <time>2020-08-25T10:13:11.562Z</time>
      </trkpt>
      <trkpt lat="43.97957" lon="2.24114">
        <ele>266</ele>
        <time>2020-08-25T10:13:12.562Z</time>
      </trkpt>
      <trkpt lat="43.97957" lon="2.24113">
        <ele>266</ele>
        <time>2020-08-25T10:13:13.562Z</time>
      </trkpt>
      <trkpt lat="43.97956" lon="2.24112">
        <ele>266</ele>
        <time>2020-08-25T10:13:14.562Z</time>
      </trkpt>
      <trkpt lat="43.97955" lon="2.24111">
        <ele>266</ele>
        <time>2020-08-25T10:13:15.562Z</time>
      </trkpt>
      <trkpt lat="43.97954" lon="2.24111">
        <ele>266</ele>
        <time>2020-08-25T10:13:16.562Z</time>
      </trkpt>
      <trkpt lat="43.97954" lon="2.2411">
        <ele>266</ele>
        <time>2020-08-25T10:13:17.562Z</time>
      </trkpt>
      <trkpt lat="43.97953" lon="2.24109">
        <ele>267</ele>
        <time>2020-08-25T10:13:18.562Z</time>
      </trkpt>
      <trkpt lat="43.97952" lon="2.24108">
        <ele>267</ele>
        <time>2020-08-25T10:13:19.562Z</time>
      </trkpt>
      <trkpt lat="43.97951" lon="2.24108">
        <ele>267</ele>
        <time>2020-08-25T10:13:20.562Z</time>
      </trkpt>
      <trkpt lat="43.9795" lon="2.24107">
        <ele>267</ele>
        <time>2020-08-25T10:13:21.562Z</time>
      </trkpt>
      <trkpt lat="43.97949" lon="2.24106">
        <ele>267</ele>
        <time>2020-08-25T10:13:22.562Z</time>
      </trkpt>
      <trkpt lat="43.97948" lon="2.24105">
        <ele>267</ele>
        <time>2020-08-25T10:13:23.562Z</time>
      </trkpt>
      <trkpt lat="43.97948" lon="2.24104">
        <ele>267</ele>
        <time>2020-08-25T10:13:24.562Z</time>
      </trkpt>
      <trkpt lat="43.97947" lon="2.24103">
        <ele>267</ele>
        <time>2020-08-25T10:13:25.562Z</time>
      </trkpt>
      <trkpt lat="43.97946" lon="2.24102">
        <ele>268</ele>
        <time>2020-08-25T10:13:26.562Z</time>
      </trkpt>
      <trkpt lat="43.97945" lon="2.241">
        <ele>268</ele>
        <time>2020-08-25T10:13:27.562Z</time>
      </trkpt>
      <trkpt lat="43.97944" lon="2.24099">
        <ele>268</ele>
        <time>2020-08-25T10:13:28.562Z</time>
      </trkpt>
      <trkpt lat="43.97943" lon="2.24098">
        <ele>268</ele>
        <time>2020-08-25T10:13:29.562Z</time>
      </trkpt>
      <trkpt lat="43.97942" lon="2.24097">
        <ele>268</ele>
        <time>2020-08-25T10:13:30.562Z</time>
      </trkpt>
      <trkpt lat="43.97941" lon="2.24095">
        <ele>268</ele>
        <time>2020-08-25T10:13:31.562Z</time>
      </trkpt>
      <trkpt lat="43.9794" lon="2.24094">
        <ele>268</ele>
        <time>2020-08-25T10:13:32.562Z</time>
      </trkpt>
      <trkpt lat="43.97939" lon="2.24093">
        <ele>268</ele>
        <time>2020-08-25T10:13:33.562Z</time>
      </trkpt>
      <trkpt lat="43.97938" lon="2.24093">
        <ele>268</ele>
        <time>2020-08-25T10:13:34.562Z</time>
      </trkpt>
      <trkpt lat="43.97937" lon="2.24092">
        <ele>268</ele>
        <time>2020-08-25T10:13:35.562Z</time>
      </trkpt>
      <trkpt lat="43.97936" lon="2.24091">
        <ele>267</ele>
        <time>2020-08-25T10:13:36.562Z</time>
      </trkpt>
      <trkpt lat="43.97935" lon="2.24091">
        <ele>267</ele>
        <time>2020-08-25T10:13:37.562Z</time>
      </trkpt>
      <trkpt lat="43.97934" lon="2.2409">
        <ele>267</ele>
        <time>2020-08-25T10:13:38.562Z</time>
      </trkpt>
      <trkpt lat="43.97933" lon="2.24089">
        <ele>267</ele>
        <time>2020-08-25T10:13:39.562Z</time>
      </trkpt>
      <trkpt lat="43.97932" lon="2.24088">
        <ele>267</ele>
        <time>2020-08-25T10:13:40.562Z</time>
      </trkpt>
      <trkpt lat="43.97932" lon="2.24088">
        <ele>267</ele>
        <time>2020-08-25T10:13:41.562Z</time>
      </trkpt>
      <trkpt lat="43.97931" lon="2.24087">
        <ele>267</ele>
        <time>2020-08-25T10:13:42.562Z</time>
      </trkpt>
      <trkpt lat="43.9793" lon="2.24086">
        <ele>267</ele>
        <time>2020-08-25T10:13:43.562Z</time>
      </trkpt>
      <trkpt lat="43.9793" lon="2.24085">
        <ele>267</ele>
        <time>2020-08-25T10:13:44.562Z</time>
      </trkpt>
      <trkpt lat="43.97929" lon="2.24084">
        <ele>268</ele>
        <time>2020-08-25T10:13:45.562Z</time>
      </trkpt>
      <trkpt lat="43.97928" lon="2.24083">
        <ele>268</ele>
        <time>2020-08-25T10:13:46.562Z</time>
      </trkpt>
      <trkpt lat="43.97927" lon="2.24082">
        <ele>268</ele>
        <time>2020-08-25T10:13:47.562Z</time>
      </trkpt>
      <trkpt lat="43.97926" lon="2.24081">
        <ele>268</ele>
        <time>2020-08-25T10:13:48.562Z</time>
      </trkpt>
      <trkpt lat="43.97925" lon="2.2408">
        <ele>268</ele>
        <time>2020-08-25T10:13:49.562Z</time>
      </trkpt>
      <trkpt lat="43.97924" lon="2.2408">
        <ele>268</ele>
        <time>2020-08-25T10:13:50.562Z</time>
      </trkpt>
      <trkpt lat="43.97923" lon="2.24079">
        <ele>268</ele>
        <time>2020-08-25T10:13:51.562Z</time>
      </trkpt>
      <trkpt lat="43.97922" lon="2.24078">
        <ele>268</ele>
        <time>2020-08-25T10:13:52.562Z</time>
      </trkpt>
      <trkpt lat="43.97921" lon="2.24077">
        <ele>269</ele>
        <time>2020-08-25T10:13:53.562Z</time>
      </trkpt>
      <trkpt lat="43.9792" lon="2.24076">
        <ele>269</ele>
        <time>2020-08-25T10:13:54.562Z</time>
      </trkpt>
      <trkpt lat="43.97919" lon="2.24075">
        <ele>269</ele>
        <time>2020-08-25T10:13:55.562Z</time>
      </trkpt>
      <trkpt lat="43.97919" lon="2.24074">
        <ele>269</ele>
        <time>2020-08-25T10:13:56.562Z</time>
      </trkpt>
      <trkpt lat="43.97918" lon="2.24073">
        <ele>269</ele>
        <time>2020-08-25T10:13:57.562Z</time>
      </trkpt>
      <trkpt lat="43.97917" lon="2.24072">
        <ele>269</ele>
        <time>2020-08-25T10:13:58.562Z</time>
      </trkpt>
      <trkpt lat="43.97916" lon="2.24071">
        <ele>269</ele>
        <time>2020-08-25T10:13:59.562Z</time>
      </trkpt>
      <trkpt lat="43.97915" lon="2.2407">
        <ele>269</ele>
        <time>2020-08-25T10:14:00.562Z</time>
      </trkpt>
      <trkpt lat="43.97914" lon="2.24069">
        <ele>269</ele>
        <time>2020-08-25T10:14:01.562Z</time>
      </trkpt>
      <trkpt lat="43.97914" lon="2.24068">
        <ele>269</ele>
        <time>2020-08-25T10:14:02.562Z</time>
      </trkpt>
      <trkpt lat="43.97913" lon="2.24067">
        <ele>269</ele>
        <time>2020-08-25T10:14:03.562Z</time>
      </trkpt>
      <trkpt lat="43.97912" lon="2.24066">
        <ele>269</ele>
        <time>2020-08-25T10:14:04.562Z</time>
      </trkpt>
      <trkpt lat="43.97911" lon="2.24065">
        <ele>269</ele>
        <time>2020-08-25T10:14:05.562Z</time>
      </trkpt>
      <trkpt lat="43.9791" lon="2.24064">
        <ele>269</ele>
        <time>2020-08-25T10:14:06.562Z</time>
      </trkpt>
      <trkpt lat="43.97909" lon="2.24063">
        <ele>269</ele>
        <time>2020-08-25T10:14:07.562Z</time>
      </trkpt>
      <trkpt lat="43.97908" lon="2.24062">
        <ele>269</ele>
        <time>2020-08-25T10:14:08.562Z</time>
      </trkpt>
      <trkpt lat="43.97907" lon="2.24061">
        <ele>269</ele>
        <time>2020-08-25T10:14:09.562Z</time>
      </trkpt>
      <trkpt lat="43.97907" lon="2.24059">
        <ele>269</ele>
        <time>2020-08-25T10:14:10.562Z</time>
      </trkpt>
      <trkpt lat="43.97906" lon="2.24058">
        <ele>269</ele>
        <time>2020-08-25T10:14:11.562Z</time>
      </trkpt>
      <trkpt lat="43.97905" lon="2.24057">
        <ele>269</ele>
        <time>2020-08-25T10:14:12.562Z</time>
      </trkpt>
      <trkpt lat="43.97904" lon="2.24055">
        <ele>269</ele>
        <time>2020-08-25T10:14:13.562Z</time>
      </trkpt>
      <trkpt lat="43.97904" lon="2.24054">
        <ele>269</ele>
        <time>2020-08-25T10:14:14.562Z</time>
      </trkpt>
      <trkpt lat="43.97903" lon="2.24053">
        <ele>269</ele>
        <time>2020-08-25T10:14:15.562Z</time>
      </trkpt>
      <trkpt lat="43.97902" lon="2.24052">
        <ele>269</ele>
        <time>2020-08-25T10:14:16.562Z</time>
      </trkpt>
      <trkpt lat="43.97901" lon="2.24051">
        <ele>268</ele>
        <time>2020-08-25T10:14:17.562Z</time>
      </trkpt>
      <trkpt lat="43.979" lon="2.2405">
        <ele>268</ele>
        <time>2020-08-25T10:14:18.562Z</time>
      </trkpt>
      <trkpt lat="43.97899" lon="2.24049">
        <ele>268</ele>
        <time>2020-08-25T10:14:19.562Z</time>
      </trkpt>
      <trkpt lat="43.97898" lon="2.24048">
        <ele>268</ele>
        <time>2020-08-25T10:14:20.562Z</time>
      </trkpt>
      <trkpt lat="43.97897" lon="2.24047">
        <ele>268</ele>
        <time>2020-08-25T10:14:21.562Z</time>
      </trkpt>
      <trkpt lat="43.97896" lon="2.24046">
        <ele>268</ele>
        <time>2020-08-25T10:14:22.562Z</time>
      </trkpt>
      <trkpt lat="43.97895" lon="2.24046">
        <ele>268</ele>
        <time>2020-08-25T10:14:23.562Z</time>
      </trkpt>
      <trkpt lat="43.97894" lon="2.24045">
        <ele>268</ele>
        <time>2020-08-25T10:14:24.562Z</time>
      </trkpt>
      <trkpt lat="43.97894" lon="2.24044">
        <ele>268</ele>
        <time>2020-08-25T10:14:25.562Z</time>
      </trkpt>
      <trkpt lat="43.97893" lon="2.24043">
        <ele>268</ele>
        <time>2020-08-25T10:14:26.562Z</time>
      </trkpt>
      <trkpt lat="43.97892" lon="2.24042">
        <ele>268</ele>
        <time>2020-08-25T10:14:27.562Z</time>
      </trkpt>
      <trkpt lat="43.97891" lon="2.24041">
        <ele>268</ele>
        <time>2020-08-25T10:14:28.562Z</time>
      </trkpt>
      <trkpt lat="43.9789" lon="2.2404">
        <ele>267</ele>
        <time>2020-08-25T10:14:29.562Z</time>
      </trkpt>
      <trkpt lat="43.97889" lon="2.24039">
        <ele>267</ele>
        <time>2020-08-25T10:14:30.562Z</time>
      </trkpt>
      <trkpt lat="43.97888" lon="2.24038">
        <ele>267</ele>
        <time>2020-08-25T10:14:31.562Z</time>
      </trkpt>
      <trkpt lat="43.97887" lon="2.24037">
        <ele>267</ele>
        <time>2020-08-25T10:14:32.562Z</time>
      </trkpt>
      <trkpt lat="43.97886" lon="2.24036">
        <ele>267</ele>
        <time>2020-08-25T10:14:33.562Z</time>
      </trkpt>
      <trkpt lat="43.97885" lon="2.24036">
        <ele>267</ele>
        <time>2020-08-25T10:14:34.562Z</time>
      </trkpt>
      <trkpt lat="43.97884" lon="2.24035">
        <ele>267</ele>
        <time>2020-08-25T10:14:35.562Z</time>
      </trkpt>
      <trkpt lat="43.97883" lon="2.24034">
        <ele>267</ele>
        <time>2020-08-25T10:14:36.562Z</time>
      </trkpt>
      <trkpt lat="43.97882" lon="2.24034">
        <ele>267</ele>
        <time>2020-08-25T10:14:37.562Z</time>
      </trkpt>
      <trkpt lat="43.97881" lon="2.24033">
        <ele>267</ele>
        <time>2020-08-25T10:14:38.562Z</time>
      </trkpt>
      <trkpt lat="43.9788" lon="2.24032">
        <ele>267</ele>
        <time>2020-08-25T10:14:39.562Z</time>
      </trkpt>
      <trkpt lat="43.97879" lon="2.24032">
        <ele>267</ele>
        <time>2020-08-25T10:14:40.562Z</time>
      </trkpt>
      <trkpt lat="43.97878" lon="2.24032">
        <ele>267</ele>
        <time>2020-08-25T10:14:41.562Z</time>
      </trkpt>
      <trkpt lat="43.97877" lon="2.24031">
        <ele>267</ele>
        <time>2020-08-25T10:14:42.562Z</time>
      </trkpt>
      <trkpt lat="43.97876" lon="2.24031">
        <ele>267</ele>
        <time>2020-08-25T10:14:43.562Z</time>
      </trkpt>
      <trkpt lat="43.97875" lon="2.2403">
        <ele>267</ele>
        <time>2020-08-25T10:14:44.562Z</time>
      </trkpt>
      <trkpt lat="43.97874" lon="2.24029">
        <ele>267</ele>
        <time>2020-08-25T10:14:45.562Z</time>
      </trkpt>
      <trkpt lat="43.97873" lon="2.24029">
        <ele>267</ele>
        <time>2020-08-25T10:14:46.562Z</time>
      </trkpt>
      <trkpt lat="43.97873" lon="2.24028">
        <ele>267</ele>
        <time>2020-08-25T10:14:47.562Z</time>
      </trkpt>
      <trkpt lat="43.97872" lon="2.24028">
        <ele>267</ele>
        <time>2020-08-25T10:14:48.562Z</time>
      </trkpt>
      <trkpt lat="43.97871" lon="2.24027">
        <ele>267</ele>
        <time>2020-08-25T10:14:49.562Z</time>
      </trkpt>
      <trkpt lat="43.9787" lon="2.24027">
        <ele>267</ele>
        <time>2020-08-25T10:14:50.562Z</time>
      </trkpt>
      <trkpt lat="43.97868" lon="2.24026">
        <ele>267</ele>
        <time>2020-08-25T10:14:51.562Z</time>
      </trkpt>
      <trkpt lat="43.97867" lon="2.24026">
        <ele>267</ele>
        <time>2020-08-25T10:14:52.562Z</time>
      </trkpt>
      <trkpt lat="43.97866" lon="2.24026">
        <ele>267</ele>
        <time>2020-08-25T10:14:53.562Z</time>
      </trkpt>
      <trkpt lat="43.97865" lon="2.24025">
        <ele>267</ele>
        <time>2020-08-25T10:14:54.562Z</time>
      </trkpt>
      <trkpt lat="43.97864" lon="2.24025">
        <ele>267</ele>
        <time>2020-08-25T10:14:55.562Z</time>
      </trkpt>
      <trkpt lat="43.97863" lon="2.24025">
        <ele>267</ele>
        <time>2020-08-25T10:14:56.562Z</time>
      </trkpt>
      <trkpt lat="43.97862" lon="2.24025">
        <ele>268</ele>
        <time>2020-08-25T10:14:57.562Z</time>
      </trkpt>
      <trkpt lat="43.9786" lon="2.24025">
        <ele>268</ele>
        <time>2020-08-25T10:14:58.562Z</time>
      </trkpt>
      <trkpt lat="43.97859" lon="2.24024">
        <ele>268</ele>
        <time>2020-08-25T10:14:59.562Z</time>
      </trkpt>
      <trkpt lat="43.97858" lon="2.24024">
        <ele>268</ele>
        <time>2020-08-25T10:15:00.562Z</time>
      </trkpt>
      <trkpt lat="43.97857" lon="2.24024">
        <ele>268</ele>
        <time>2020-08-25T10:15:01.562Z</time>
      </trkpt>
      <trkpt lat="43.97856" lon="2.24024">
        <ele>268</ele>
        <time>2020-08-25T10:15:02.562Z</time>
      </trkpt>
      <trkpt lat="43.97855" lon="2.24024">
        <ele>268</ele>
        <time>2020-08-25T10:15:03.562Z</time>
      </trkpt>
      <trkpt lat="43.97854" lon="2.24023">
        <ele>268</ele>
        <time>2020-08-25T10:15:04.562Z</time>
      </trkpt>
      <trkpt lat="43.97853" lon="2.24023">
        <ele>268</ele>
        <time>2020-08-25T10:15:05.562Z</time>
      </trkpt>
      <trkpt lat="43.97852" lon="2.24022">
        <ele>268</ele>
        <time>2020-08-25T10:15:06.562Z</time>
      </trkpt>
      <trkpt lat="43.97851" lon="2.24021">
        <ele>268</ele>
        <time>2020-08-25T10:15:07.562Z</time>
      </trkpt>
      <trkpt lat="43.9785" lon="2.24021">
        <ele>268</ele>
        <time>2020-08-25T10:15:08.562Z</time>
      </trkpt>
      <trkpt lat="43.97849" lon="2.2402">
        <ele>268</ele>
        <time>2020-08-25T10:15:09.562Z</time>
      </trkpt>
      <trkpt lat="43.97848" lon="2.24019">
        <ele>268</ele>
        <time>2020-08-25T10:15:10.562Z</time>
      </trkpt>
      <trkpt lat="43.97847" lon="2.24019">
        <ele>268</ele>
        <time>2020-08-25T10:15:11.562Z</time>
      </trkpt>
      <trkpt lat="43.97846" lon="2.24018">
        <ele>268</ele>
        <time>2020-08-25T10:15:12.562Z</time>
      </trkpt>
      <trkpt lat="43.97845" lon="2.24017">
        <ele>268</ele>
        <time>2020-08-25T10:15:13.562Z</time>
      </trkpt>
      <trkpt lat="43.97844" lon="2.24016">
        <ele>269</ele>
        <time>2020-08-25T10:15:14.562Z</time>
      </trkpt>
      <trkpt lat="43.97843" lon="2.24015">
        <ele>269</ele>
        <time>2020-08-25T10:15:15.562Z</time>
      </trkpt>
      <trkpt lat="43.97842" lon="2.24015">
        <ele>269</ele>
        <time>2020-08-25T10:15:16.562Z</time>
      </trkpt>
      <trkpt lat="43.97841" lon="2.24014">
        <ele>269</ele>
        <time>2020-08-25T10:15:17.562Z</time>
      </trkpt>
      <trkpt lat="43.9784" lon="2.24013">
        <ele>269</ele>
        <time>2020-08-25T10:15:18.562Z</time>
      </trkpt>
      <trkpt lat="43.97839" lon="2.24013">
        <ele>269</ele>
        <time>2020-08-25T10:15:19.562Z</time>
      </trkpt>
      <trkpt lat="43.97838" lon="2.24012">
        <ele>269</ele>
        <time>2020-08-25T10:15:20.562Z</time>
      </trkpt>
      <trkpt lat="43.97837" lon="2.24012">
        <ele>269</ele>
        <time>2020-08-25T10:15:21.562Z</time>
      </trkpt>
      <trkpt lat="43.97836" lon="2.24011">
        <ele>269</ele>
        <time>2020-08-25T10:15:22.562Z</time>
      </trkpt>
      <trkpt lat="43.97835" lon="2.24011">
        <ele>269</ele>
        <time>2020-08-25T10:15:23.562Z</time>
      </trkpt>
      <trkpt lat="43.97834" lon="2.24011">
        <ele>269</ele>
        <time>2020-08-25T10:15:24.562Z</time>
      </trkpt>
      <trkpt lat="43.97833" lon="2.2401">
        <ele>269</ele>
        <time>2020-08-25T10:15:25.562Z</time>
      </trkpt>
      <trkpt lat="43.97831" lon="2.24009">
        <ele>269</ele>
        <time>2020-08-25T10:15:26.562Z</time>
      </trkpt>
      <trkpt lat="43.97831" lon="2.24009">
        <ele>269</ele>
        <time>2020-08-25T10:15:27.562Z</time>
      </trkpt>
      <trkpt lat="43.9783" lon="2.24008">
        <ele>269</ele>
        <time>2020-08-25T10:15:28.562Z</time>
      </trkpt>
      <trkpt lat="43.97829" lon="2.24008">
        <ele>269</ele>
        <time>2020-08-25T10:15:29.562Z</time>
      </trkpt>
      <trkpt lat="43.97828" lon="2.24007">
        <ele>269</ele>
        <time>2020-08-25T10:15:30.562Z</time>
      </trkpt>
      <trkpt lat="43.97827" lon="2.24007">
        <ele>269</ele>
        <time>2020-08-25T10:15:31.562Z</time>
      </trkpt>
      <trkpt lat="43.97825" lon="2.24006">
        <ele>269</ele>
        <time>2020-08-25T10:15:32.562Z</time>
      </trkpt>
      <trkpt lat="43.97824" lon="2.24005">
        <ele>269</ele>
        <time>2020-08-25T10:15:33.562Z</time>
      </trkpt>
      <trkpt lat="43.97823" lon="2.24005">
        <ele>268</ele>
        <time>2020-08-25T10:15:34.562Z</time>
      </trkpt>
      <trkpt lat="43.97821" lon="2.24004">
        <ele>268</ele>
        <time>2020-08-25T10:15:35.562Z</time>
      </trkpt>
      <trkpt lat="43.9782" lon="2.24003">
        <ele>268</ele>
        <time>2020-08-25T10:15:36.562Z</time>
      </trkpt>
      <trkpt lat="43.97819" lon="2.24003">
        <ele>268</ele>
        <time>2020-08-25T10:15:37.562Z</time>
      </trkpt>
      <trkpt lat="43.97817" lon="2.24002">
        <ele>268</ele>
        <time>2020-08-25T10:15:38.562Z</time>
      </trkpt>
      <trkpt lat="43.97816" lon="2.24002">
        <ele>268</ele>
        <time>2020-08-25T10:15:39.562Z</time>
      </trkpt>
      <trkpt lat="43.97815" lon="2.24002">
        <ele>268</ele>
        <time>2020-08-25T10:15:40.562Z</time>
      </trkpt>
      <trkpt lat="43.97814" lon="2.24001">
        <ele>268</ele>
        <time>2020-08-25T10:15:41.562Z</time>
      </trkpt>
      <trkpt lat="43.97813" lon="2.24001">
        <ele>268</ele>
        <time>2020-08-25T10:15:42.562Z</time>
      </trkpt>
      <trkpt lat="43.97812" lon="2.24001">
        <ele>268</ele>
        <time>2020-08-25T10:15:43.562Z</time>
      </trkpt>
      <trkpt lat="43.97811" lon="2.24">
        <ele>268</ele>
        <time>2020-08-25T10:15:44.562Z</time>
      </trkpt>
      <trkpt lat="43.9781" lon="2.24">
        <ele>268</ele>
        <time>2020-08-25T10:15:45.562Z</time>
      </trkpt>
      <trkpt lat="43.97809" lon="2.23999">
        <ele>268</ele>
        <time>2020-08-25T10:15:46.562Z</time>
      </trkpt>
      <trkpt lat="43.97808" lon="2.23998">
        <ele>268</ele>
        <time>2020-08-25T10:15:47.562Z</time>
      </trkpt>
      <trkpt lat="43.97807" lon="2.23998">
        <ele>268</ele>
        <time>2020-08-25T10:15:48.562Z</time>
      </trkpt>
      <trkpt lat="43.97806" lon="2.23997">
        <ele>268</ele>
        <time>2020-08-25T10:15:49.562Z</time>
      </trkpt>
      <trkpt lat="43.97806" lon="2.23997">
        <ele>268</ele>
        <time>2020-08-25T10:15:50.562Z</time>
      </trkpt>
      <trkpt lat="43.97805" lon="2.23996">
        <ele>268</ele>
        <time>2020-08-25T10:15:51.562Z</time>
      </trkpt>
      <trkpt lat="43.97804" lon="2.23996">
        <ele>267</ele>
        <time>2020-08-25T10:15:52.562Z</time>
      </trkpt>
      <trkpt lat="43.97803" lon="2.23996">
        <ele>267</ele>
        <time>2020-08-25T10:15:53.562Z</time>
      </trkpt>
      <trkpt lat="43.97802" lon="2.23995">
        <ele>267</ele>
        <time>2020-08-25T10:15:54.562Z</time>
      </trkpt>
      <trkpt lat="43.97801" lon="2.23995">
        <ele>267</ele>
        <time>2020-08-25T10:15:55.562Z</time>
      </trkpt>
      <trkpt lat="43.978" lon="2.23994">
        <ele>267</ele>
        <time>2020-08-25T10:15:56.562Z</time>
      </trkpt>
      <trkpt lat="43.97799" lon="2.23994">
        <ele>267</ele>
        <time>2020-08-25T10:15:57.562Z</time>
      </trkpt>
      <trkpt lat="43.97798" lon="2.23994">
        <ele>267</ele>
        <time>2020-08-25T10:15:58.562Z</time>
      </trkpt>
      <trkpt lat="43.97797" lon="2.23993">
        <ele>267</ele>
        <time>2020-08-25T10:15:59.562Z</time>
      </trkpt>
      <trkpt lat="43.97796" lon="2.23993">
        <ele>266</ele>
        <time>2020-08-25T10:16:00.562Z</time>
      </trkpt>
      <trkpt lat="43.97795" lon="2.23992">
        <ele>266</ele>
        <time>2020-08-25T10:16:01.562Z</time>
      </trkpt>
      <trkpt lat="43.97794" lon="2.23992">
        <ele>266</ele>
        <time>2020-08-25T10:16:02.562Z</time>
      </trkpt>
      <trkpt lat="43.97793" lon="2.23991">
        <ele>266</ele>
        <time>2020-08-25T10:16:03.562Z</time>
      </trkpt>
      <trkpt lat="43.97792" lon="2.2399">
        <ele>266</ele>
        <time>2020-08-25T10:16:04.562Z</time>
      </trkpt>
      <trkpt lat="43.97791" lon="2.23989">
        <ele>266</ele>
        <time>2020-08-25T10:16:05.562Z</time>
      </trkpt>
      <trkpt lat="43.9779" lon="2.23989">
        <ele>266</ele>
        <time>2020-08-25T10:16:06.562Z</time>
      </trkpt>
      <trkpt lat="43.97789" lon="2.23988">
        <ele>266</ele>
        <time>2020-08-25T10:16:07.562Z</time>
      </trkpt>
      <trkpt lat="43.97787" lon="2.23988">
        <ele>266</ele>
        <time>2020-08-25T10:16:08.562Z</time>
      </trkpt>
      <trkpt lat="43.97786" lon="2.23987">
        <ele>266</ele>
        <time>2020-08-25T10:16:09.562Z</time>
      </trkpt>
      <trkpt lat="43.97785" lon="2.23986">
        <ele>266</ele>
        <time>2020-08-25T10:16:10.562Z</time>
      </trkpt>
      <trkpt lat="43.97784" lon="2.23986">
        <ele>266</ele>
        <time>2020-08-25T10:16:11.562Z</time>
      </trkpt>
      <trkpt lat="43.97783" lon="2.23986">
        <ele>266</ele>
        <time>2020-08-25T10:16:12.562Z</time>
      </trkpt>
      <trkpt lat="43.97782" lon="2.23985">
        <ele>266</ele>
        <time>2020-08-25T10:16:13.562Z</time>
      </trkpt>
      <trkpt lat="43.97782" lon="2.23984">
        <ele>266</ele>
        <time>2020-08-25T10:16:14.562Z</time>
      </trkpt>
      <trkpt lat="43.97781" lon="2.23984">
        <ele>266</ele>
        <time>2020-08-25T10:16:15.562Z</time>
      </trkpt>
      <trkpt lat="43.9778" lon="2.23983">
        <ele>266</ele>
        <time>2020-08-25T10:16:16.562Z</time>
      </trkpt>
      <trkpt lat="43.97779" lon="2.23982">
        <ele>266</ele>
        <time>2020-08-25T10:16:17.562Z</time>
      </trkpt>
      <trkpt lat="43.97779" lon="2.23981">
        <ele>266</ele>
        <time>2020-08-25T10:16:18.562Z</time>
      </trkpt>
      <trkpt lat="43.97778" lon="2.2398">
        <ele>266</ele>
        <time>2020-08-25T10:16:19.562Z</time>
      </trkpt>
      <trkpt lat="43.97778" lon="2.2398">
        <ele>266</ele>
        <time>2020-08-25T10:16:20.562Z</time>
      </trkpt>
      <trkpt lat="43.97777" lon="2.23979">
        <ele>265</ele>
        <time>2020-08-25T10:16:21.562Z</time>
      </trkpt>
      <trkpt lat="43.97777" lon="2.23978">
        <ele>265</ele>
        <time>2020-08-25T10:16:22.562Z</time>
      </trkpt>
      <trkpt lat="43.97777" lon="2.23978">
        <ele>265</ele>
        <time>2020-08-25T10:16:23.562Z</time>
      </trkpt>
      <trkpt lat="43.97775" lon="2.23975">
        <ele>264</ele>
        <time>2020-08-25T10:16:33.567Z</time>
      </trkpt>
      <trkpt lat="43.97775" lon="2.23975">
        <ele>264</ele>
        <time>2020-08-25T10:16:34.567Z</time>
      </trkpt>
      <trkpt lat="43.97774" lon="2.23974">
        <ele>265</ele>
        <time>2020-08-25T10:16:35.567Z</time>
      </trkpt>
      <trkpt lat="43.97773" lon="2.23974">
        <ele>265</ele>
        <time>2020-08-25T10:16:36.567Z</time>
      </trkpt>
      <trkpt lat="43.97772" lon="2.23973">
        <ele>264</ele>
        <time>2020-08-25T10:16:37.567Z</time>
      </trkpt>
      <trkpt lat="43.97771" lon="2.23973">
        <ele>264</ele>
        <time>2020-08-25T10:16:38.567Z</time>
      </trkpt>
      <trkpt lat="43.9777" lon="2.23973">
        <ele>264</ele>
        <time>2020-08-25T10:16:39.567Z</time>
      </trkpt>
      <trkpt lat="43.97769" lon="2.23973">
        <ele>264</ele>
        <time>2020-08-25T10:16:40.567Z</time>
      </trkpt>
      <trkpt lat="43.97768" lon="2.23973">
        <ele>264</ele>
        <time>2020-08-25T10:16:41.567Z</time>
      </trkpt>
      <trkpt lat="43.97767" lon="2.23974">
        <ele>264</ele>
        <time>2020-08-25T10:16:42.567Z</time>
      </trkpt>
      <trkpt lat="43.97766" lon="2.23974">
        <ele>264</ele>
        <time>2020-08-25T10:16:43.567Z</time>
      </trkpt>
      <trkpt lat="43.97765" lon="2.23974">
        <ele>264</ele>
        <time>2020-08-25T10:16:44.567Z</time>
      </trkpt>
      <trkpt lat="43.97764" lon="2.23974">
        <ele>264</ele>
        <time>2020-08-25T10:16:45.567Z</time>
      </trkpt>
      <trkpt lat="43.97763" lon="2.23974">
        <ele>264</ele>
        <time>2020-08-25T10:16:46.567Z</time>
      </trkpt>
      <trkpt lat="43.97762" lon="2.23974">
        <ele>264</ele>
        <time>2020-08-25T10:16:47.567Z</time>
      </trkpt>
      <trkpt lat="43.97761" lon="2.23974">
        <ele>264</ele>
        <time>2020-08-25T10:16:48.567Z</time>
      </trkpt>
      <trkpt lat="43.9776" lon="2.23973">
        <ele>264</ele>
        <time>2020-08-25T10:16:49.567Z</time>
      </trkpt>
      <trkpt lat="43.97759" lon="2.23973">
        <ele>264</ele>
        <time>2020-08-25T10:16:50.567Z</time>
      </trkpt>
      <trkpt lat="43.97758" lon="2.23972">
        <ele>264</ele>
        <time>2020-08-25T10:16:51.567Z</time>
      </trkpt>
      <trkpt lat="43.97757" lon="2.23972">
        <ele>264</ele>
        <time>2020-08-25T10:16:52.567Z</time>
      </trkpt>
      <trkpt lat="43.97756" lon="2.23972">
        <ele>263</ele>
        <time>2020-08-25T10:16:53.567Z</time>
      </trkpt>
      <trkpt lat="43.97755" lon="2.23972">
        <ele>263</ele>
        <time>2020-08-25T10:16:54.567Z</time>
      </trkpt>
      <trkpt lat="43.97754" lon="2.23973">
        <ele>263</ele>
        <time>2020-08-25T10:16:55.567Z</time>
      </trkpt>
      <trkpt lat="43.97753" lon="2.23973">
        <ele>263</ele>
        <time>2020-08-25T10:16:56.567Z</time>
      </trkpt>
      <trkpt lat="43.97753" lon="2.23974">
        <ele>263</ele>
        <time>2020-08-25T10:16:57.567Z</time>
      </trkpt>
      <trkpt lat="43.97752" lon="2.23974">
        <ele>263</ele>
        <time>2020-08-25T10:16:58.567Z</time>
      </trkpt>
      <trkpt lat="43.9775" lon="2.23975">
        <ele>263</ele>
        <time>2020-08-25T10:16:59.567Z</time>
      </trkpt>
      <trkpt lat="43.97749" lon="2.23975">
        <ele>263</ele>
        <time>2020-08-25T10:17:00.567Z</time>
      </trkpt>
      <trkpt lat="43.97749" lon="2.23975">
        <ele>263</ele>
        <time>2020-08-25T10:17:01.567Z</time>
      </trkpt>
      <trkpt lat="43.97748" lon="2.23975">
        <ele>262</ele>
        <time>2020-08-25T10:17:02.567Z</time>
      </trkpt>
      <trkpt lat="43.97747" lon="2.23974">
        <ele>262</ele>
        <time>2020-08-25T10:17:03.567Z</time>
      </trkpt>
      <trkpt lat="43.97746" lon="2.23974">
        <ele>262</ele>
        <time>2020-08-25T10:17:04.567Z</time>
      </trkpt>
      <trkpt lat="43.97745" lon="2.23974">
        <ele>262</ele>
        <time>2020-08-25T10:17:05.567Z</time>
      </trkpt>
      <trkpt lat="43.97744" lon="2.23974">
        <ele>262</ele>
        <time>2020-08-25T10:17:06.567Z</time>
      </trkpt>
      <trkpt lat="43.97743" lon="2.23974">
        <ele>262</ele>
        <time>2020-08-25T10:17:07.567Z</time>
      </trkpt>
      <trkpt lat="43.97742" lon="2.23975">
        <ele>262</ele>
        <time>2020-08-25T10:17:08.567Z</time>
      </trkpt>
      <trkpt lat="43.97741" lon="2.23975">
        <ele>262</ele>
        <time>2020-08-25T10:17:09.567Z</time>
      </trkpt>
      <trkpt lat="43.97741" lon="2.23975">
        <ele>262</ele>
        <time>2020-08-25T10:17:10.567Z</time>
      </trkpt>
      <trkpt lat="43.9774" lon="2.23975">
        <ele>262</ele>
        <time>2020-08-25T10:17:11.567Z</time>
      </trkpt>
      <trkpt lat="43.97739" lon="2.23975">
        <ele>262</ele>
        <time>2020-08-25T10:17:12.567Z</time>
      </trkpt>
      <trkpt lat="43.97738" lon="2.23976">
        <ele>262</ele>
        <time>2020-08-25T10:17:13.567Z</time>
      </trkpt>
      <trkpt lat="43.97737" lon="2.23976">
        <ele>262</ele>
        <time>2020-08-25T10:17:14.567Z</time>
      </trkpt>
      <trkpt lat="43.97736" lon="2.23977">
        <ele>262</ele>
        <time>2020-08-25T10:17:15.567Z</time>
      </trkpt>
      <trkpt lat="43.97735" lon="2.23977">
        <ele>262</ele>
        <time>2020-08-25T10:17:16.567Z</time>
      </trkpt>
      <trkpt lat="43.97733" lon="2.23977">
        <ele>262</ele>
        <time>2020-08-25T10:17:17.567Z</time>
      </trkpt>
      <trkpt lat="43.97732" lon="2.23978">
        <ele>262</ele>
        <time>2020-08-25T10:17:18.567Z</time>
      </trkpt>
      <trkpt lat="43.97731" lon="2.23978">
        <ele>262</ele>
        <time>2020-08-25T10:17:19.567Z</time>
      </trkpt>
      <trkpt lat="43.97729" lon="2.23978">
        <ele>262</ele>
        <time>2020-08-25T10:17:20.567Z</time>
      </trkpt>
      <trkpt lat="43.97728" lon="2.23978">
        <ele>262</ele>
        <time>2020-08-25T10:17:21.567Z</time>
      </trkpt>
      <trkpt lat="43.97727" lon="2.23978">
        <ele>262</ele>
        <time>2020-08-25T10:17:22.567Z</time>
      </trkpt>
      <trkpt lat="43.97726" lon="2.23978">
        <ele>262</ele>
        <time>2020-08-25T10:17:23.567Z</time>
      </trkpt>
      <trkpt lat="43.97724" lon="2.23978">
        <ele>262</ele>
        <time>2020-08-25T10:17:24.567Z</time>
      </trkpt>
      <trkpt lat="43.97723" lon="2.23978">
        <ele>262</ele>
        <time>2020-08-25T10:17:25.567Z</time>
      </trkpt>
      <trkpt lat="43.97722" lon="2.23978">
        <ele>262</ele>
        <time>2020-08-25T10:17:26.567Z</time>
      </trkpt>
      <trkpt lat="43.9772" lon="2.23978">
        <ele>262</ele>
        <time>2020-08-25T10:17:27.567Z</time>
      </trkpt>
      <trkpt lat="43.97719" lon="2.23978">
        <ele>262</ele>
        <time>2020-08-25T10:17:28.567Z</time>
      </trkpt>
      <trkpt lat="43.97718" lon="2.23978">
        <ele>262</ele>
        <time>2020-08-25T10:17:29.567Z</time>
      </trkpt>
      <trkpt lat="43.97717" lon="2.23978">
        <ele>262</ele>
        <time>2020-08-25T10:17:30.567Z</time>
      </trkpt>
      <trkpt lat="43.97716" lon="2.23978">
        <ele>262</ele>
        <time>2020-08-25T10:17:31.567Z</time>
      </trkpt>
      <trkpt lat="43.97715" lon="2.23978">
        <ele>262</ele>
        <time>2020-08-25T10:17:32.567Z</time>
      </trkpt>
      <trkpt lat="43.97714" lon="2.23977">
        <ele>262</ele>
        <time>2020-08-25T10:17:33.567Z</time>
      </trkpt>
      <trkpt lat="43.97712" lon="2.23977">
        <ele>263</ele>
        <time>2020-08-25T10:17:34.567Z</time>
      </trkpt>
      <trkpt lat="43.97711" lon="2.23977">
        <ele>263</ele>
        <time>2020-08-25T10:17:35.567Z</time>
      </trkpt>
      <trkpt lat="43.9771" lon="2.23977">
        <ele>263</ele>
        <time>2020-08-25T10:17:36.567Z</time>
      </trkpt>
      <trkpt lat="43.97709" lon="2.23977">
        <ele>263</ele>
        <time>2020-08-25T10:17:37.567Z</time>
      </trkpt>
      <trkpt lat="43.97708" lon="2.23976">
        <ele>264</ele>
        <time>2020-08-25T10:17:38.567Z</time>
      </trkpt>
      <trkpt lat="43.97706" lon="2.23976">
        <ele>264</ele>
        <time>2020-08-25T10:17:39.567Z</time>
      </trkpt>
      <trkpt lat="43.97705" lon="2.23976">
        <ele>264</ele>
        <time>2020-08-25T10:17:40.567Z</time>
      </trkpt>
      <trkpt lat="43.97704" lon="2.23975">
        <ele>265</ele>
        <time>2020-08-25T10:17:41.567Z</time>
      </trkpt>
      <trkpt lat="43.97703" lon="2.23975">
        <ele>265</ele>
        <time>2020-08-25T10:17:42.567Z</time>
      </trkpt>
      <trkpt lat="43.97702" lon="2.23974">
        <ele>265</ele>
        <time>2020-08-25T10:17:43.567Z</time>
      </trkpt>
      <trkpt lat="43.97701" lon="2.23974">
        <ele>266</ele>
        <time>2020-08-25T10:17:44.567Z</time>
      </trkpt>
      <trkpt lat="43.977" lon="2.23973">
        <ele>266</ele>
        <time>2020-08-25T10:17:45.567Z</time>
      </trkpt>
      <trkpt lat="43.97699" lon="2.23972">
        <ele>266</ele>
        <time>2020-08-25T10:17:46.567Z</time>
      </trkpt>
      <trkpt lat="43.97697" lon="2.23971">
        <ele>266</ele>
        <time>2020-08-25T10:17:47.567Z</time>
      </trkpt>
      <trkpt lat="43.97696" lon="2.2397">
        <ele>267</ele>
        <time>2020-08-25T10:17:48.567Z</time>
      </trkpt>
      <trkpt lat="43.97695" lon="2.23969">
        <ele>267</ele>
        <time>2020-08-25T10:17:49.567Z</time>
      </trkpt>
      <trkpt lat="43.97694" lon="2.23968">
        <ele>267</ele>
        <time>2020-08-25T10:17:50.567Z</time>
      </trkpt>
      <trkpt lat="43.97693" lon="2.23967">
        <ele>267</ele>
        <time>2020-08-25T10:17:51.567Z</time>
      </trkpt>
      <trkpt lat="43.97692" lon="2.23966">
        <ele>268</ele>
        <time>2020-08-25T10:17:52.567Z</time>
      </trkpt>
      <trkpt lat="43.97692" lon="2.23965">
        <ele>268</ele>
        <time>2020-08-25T10:17:53.567Z</time>
      </trkpt>
      <trkpt lat="43.97691" lon="2.23964">
        <ele>268</ele>
        <time>2020-08-25T10:17:54.567Z</time>
      </trkpt>
      <trkpt lat="43.9769" lon="2.23963">
        <ele>269</ele>
        <time>2020-08-25T10:17:55.567Z</time>
      </trkpt>
      <trkpt lat="43.97689" lon="2.23961">
        <ele>269</ele>
        <time>2020-08-25T10:17:56.567Z</time>
      </trkpt>
      <trkpt lat="43.97688" lon="2.2396">
        <ele>269</ele>
        <time>2020-08-25T10:17:57.567Z</time>
      </trkpt>
      <trkpt lat="43.97687" lon="2.23959">
        <ele>270</ele>
        <time>2020-08-25T10:17:58.567Z</time>
      </trkpt>
      <trkpt lat="43.97687" lon="2.23958">
        <ele>270</ele>
        <time>2020-08-25T10:17:59.567Z</time>
      </trkpt>
      <trkpt lat="43.97686" lon="2.23957">
        <ele>270</ele>
        <time>2020-08-25T10:18:00.567Z</time>
      </trkpt>
      <trkpt lat="43.97685" lon="2.23956">
        <ele>270</ele>
        <time>2020-08-25T10:18:01.567Z</time>
      </trkpt>
      <trkpt lat="43.97684" lon="2.23955">
        <ele>270</ele>
        <time>2020-08-25T10:18:02.567Z</time>
      </trkpt>
      <trkpt lat="43.97683" lon="2.23954">
        <ele>270</ele>
        <time>2020-08-25T10:18:03.567Z</time>
      </trkpt>
      <trkpt lat="43.97683" lon="2.23953">
        <ele>270</ele>
        <time>2020-08-25T10:18:04.567Z</time>
      </trkpt>
      <trkpt lat="43.97682" lon="2.23952">
        <ele>270</ele>
        <time>2020-08-25T10:18:05.567Z</time>
      </trkpt>
      <trkpt lat="43.97681" lon="2.23951">
        <ele>270</ele>
        <time>2020-08-25T10:18:06.567Z</time>
      </trkpt>
      <trkpt lat="43.9768" lon="2.2395">
        <ele>270</ele>
        <time>2020-08-25T10:18:07.567Z</time>
      </trkpt>
      <trkpt lat="43.97679" lon="2.23949">
        <ele>270</ele>
        <time>2020-08-25T10:18:08.567Z</time>
      </trkpt>
      <trkpt lat="43.97679" lon="2.23948">
        <ele>270</ele>
        <time>2020-08-25T10:18:09.567Z</time>
      </trkpt>
      <trkpt lat="43.97678" lon="2.23948">
        <ele>270</ele>
        <time>2020-08-25T10:18:10.567Z</time>
      </trkpt>
      <trkpt lat="43.97677" lon="2.23947">
        <ele>270</ele>
        <time>2020-08-25T10:18:11.567Z</time>
      </trkpt>
      <trkpt lat="43.97676" lon="2.23946">
        <ele>270</ele>
        <time>2020-08-25T10:18:12.567Z</time>
      </trkpt>
      <trkpt lat="43.97675" lon="2.23944">
        <ele>269</ele>
        <time>2020-08-25T10:18:13.567Z</time>
      </trkpt>
      <trkpt lat="43.97675" lon="2.23943">
        <ele>269</ele>
        <time>2020-08-25T10:18:14.567Z</time>
      </trkpt>
      <trkpt lat="43.97674" lon="2.23942">
        <ele>269</ele>
        <time>2020-08-25T10:18:15.567Z</time>
      </trkpt>
      <trkpt lat="43.97673" lon="2.23941">
        <ele>269</ele>
        <time>2020-08-25T10:18:16.567Z</time>
      </trkpt>
      <trkpt lat="43.97672" lon="2.2394">
        <ele>269</ele>
        <time>2020-08-25T10:18:17.567Z</time>
      </trkpt>
      <trkpt lat="43.97672" lon="2.23939">
        <ele>269</ele>
        <time>2020-08-25T10:18:18.567Z</time>
      </trkpt>
      <trkpt lat="43.97671" lon="2.23938">
        <ele>269</ele>
        <time>2020-08-25T10:18:19.567Z</time>
      </trkpt>
      <trkpt lat="43.9767" lon="2.23938">
        <ele>269</ele>
        <time>2020-08-25T10:18:20.567Z</time>
      </trkpt>
      <trkpt lat="43.97669" lon="2.23937">
        <ele>269</ele>
        <time>2020-08-25T10:18:21.567Z</time>
      </trkpt>
      <trkpt lat="43.97668" lon="2.23935">
        <ele>269</ele>
        <time>2020-08-25T10:18:22.567Z</time>
      </trkpt>
      <trkpt lat="43.97668" lon="2.23934">
        <ele>269</ele>
        <time>2020-08-25T10:18:23.567Z</time>
      </trkpt>
      <trkpt lat="43.97667" lon="2.23933">
        <ele>269</ele>
        <time>2020-08-25T10:18:24.567Z</time>
      </trkpt>
      <trkpt lat="43.97666" lon="2.23932">
        <ele>269</ele>
        <time>2020-08-25T10:18:25.567Z</time>
      </trkpt>
      <trkpt lat="43.97666" lon="2.23932">
        <ele>269</ele>
        <time>2020-08-25T10:18:26.567Z</time>
      </trkpt>
      <trkpt lat="43.97665" lon="2.2393">
        <ele>269</ele>
        <time>2020-08-25T10:18:27.567Z</time>
      </trkpt>
      <trkpt lat="43.97664" lon="2.23929">
        <ele>269</ele>
        <time>2020-08-25T10:18:28.567Z</time>
      </trkpt>
      <trkpt lat="43.97663" lon="2.23929">
        <ele>269</ele>
        <time>2020-08-25T10:18:29.567Z</time>
      </trkpt>
      <trkpt lat="43.97662" lon="2.23928">
        <ele>268</ele>
        <time>2020-08-25T10:18:30.567Z</time>
      </trkpt>
      <trkpt lat="43.97661" lon="2.23927">
        <ele>268</ele>
        <time>2020-08-25T10:18:31.567Z</time>
      </trkpt>
      <trkpt lat="43.97661" lon="2.23926">
        <ele>268</ele>
        <time>2020-08-25T10:18:32.567Z</time>
      </trkpt>
      <trkpt lat="43.9766" lon="2.23925">
        <ele>268</ele>
        <time>2020-08-25T10:18:33.567Z</time>
      </trkpt>
      <trkpt lat="43.97659" lon="2.23924">
        <ele>268</ele>
        <time>2020-08-25T10:18:34.567Z</time>
      </trkpt>
      <trkpt lat="43.97658" lon="2.23923">
        <ele>268</ele>
        <time>2020-08-25T10:18:35.567Z</time>
      </trkpt>
      <trkpt lat="43.97658" lon="2.23921">
        <ele>268</ele>
        <time>2020-08-25T10:18:36.567Z</time>
      </trkpt>
      <trkpt lat="43.97657" lon="2.2392">
        <ele>267</ele>
        <time>2020-08-25T10:18:37.567Z</time>
      </trkpt>
      <trkpt lat="43.97656" lon="2.23919">
        <ele>267</ele>
        <time>2020-08-25T10:18:38.567Z</time>
      </trkpt>
      <trkpt lat="43.97656" lon="2.23918">
        <ele>267</ele>
        <time>2020-08-25T10:18:39.567Z</time>
      </trkpt>
      <trkpt lat="43.97655" lon="2.23917">
        <ele>267</ele>
        <time>2020-08-25T10:18:40.567Z</time>
      </trkpt>
      <trkpt lat="43.97654" lon="2.23915">
        <ele>267</ele>
        <time>2020-08-25T10:18:41.567Z</time>
      </trkpt>
      <trkpt lat="43.97654" lon="2.23914">
        <ele>266</ele>
        <time>2020-08-25T10:18:42.567Z</time>
      </trkpt>
      <trkpt lat="43.97653" lon="2.23913">
        <ele>266</ele>
        <time>2020-08-25T10:18:43.567Z</time>
      </trkpt>
      <trkpt lat="43.97653" lon="2.23912">
        <ele>266</ele>
        <time>2020-08-25T10:18:44.567Z</time>
      </trkpt>
      <trkpt lat="43.97652" lon="2.2391">
        <ele>266</ele>
        <time>2020-08-25T10:18:45.567Z</time>
      </trkpt>
      <trkpt lat="43.97651" lon="2.23909">
        <ele>265</ele>
        <time>2020-08-25T10:18:46.567Z</time>
      </trkpt>
      <trkpt lat="43.97651" lon="2.23908">
        <ele>265</ele>
        <time>2020-08-25T10:18:47.567Z</time>
      </trkpt>
      <trkpt lat="43.9765" lon="2.23906">
        <ele>265</ele>
        <time>2020-08-25T10:18:48.567Z</time>
      </trkpt>
      <trkpt lat="43.97649" lon="2.23905">
        <ele>265</ele>
        <time>2020-08-25T10:18:49.567Z</time>
      </trkpt>
      <trkpt lat="43.97648" lon="2.23904">
        <ele>265</ele>
        <time>2020-08-25T10:18:50.567Z</time>
      </trkpt>
      <trkpt lat="43.97648" lon="2.23903">
        <ele>264</ele>
        <time>2020-08-25T10:18:51.567Z</time>
      </trkpt>
      <trkpt lat="43.97647" lon="2.23903">
        <ele>264</ele>
        <time>2020-08-25T10:18:52.567Z</time>
      </trkpt>
      <trkpt lat="43.97646" lon="2.23902">
        <ele>264</ele>
        <time>2020-08-25T10:18:53.567Z</time>
      </trkpt>
      <trkpt lat="43.97645" lon="2.23901">
        <ele>264</ele>
        <time>2020-08-25T10:18:54.567Z</time>
      </trkpt>
      <trkpt lat="43.97644" lon="2.239">
        <ele>264</ele>
        <time>2020-08-25T10:18:55.567Z</time>
      </trkpt>
      <trkpt lat="43.97643" lon="2.239">
        <ele>264</ele>
        <time>2020-08-25T10:18:56.567Z</time>
      </trkpt>
      <trkpt lat="43.97642" lon="2.23899">
        <ele>264</ele>
        <time>2020-08-25T10:18:57.567Z</time>
      </trkpt>
      <trkpt lat="43.97641" lon="2.23898">
        <ele>264</ele>
        <time>2020-08-25T10:18:58.567Z</time>
      </trkpt>
      <trkpt lat="43.9764" lon="2.23898">
        <ele>264</ele>
        <time>2020-08-25T10:18:59.567Z</time>
      </trkpt>
      <trkpt lat="43.97639" lon="2.23897">
        <ele>263</ele>
        <time>2020-08-25T10:19:00.567Z</time>
      </trkpt>
      <trkpt lat="43.97638" lon="2.23897">
        <ele>263</ele>
        <time>2020-08-25T10:19:01.567Z</time>
      </trkpt>
      <trkpt lat="43.97637" lon="2.23897">
        <ele>263</ele>
        <time>2020-08-25T10:19:02.567Z</time>
      </trkpt>
      <trkpt lat="43.97636" lon="2.23896">
        <ele>263</ele>
        <time>2020-08-25T10:19:03.567Z</time>
      </trkpt>
      <trkpt lat="43.97635" lon="2.23896">
        <ele>263</ele>
        <time>2020-08-25T10:19:04.567Z</time>
      </trkpt>
      <trkpt lat="43.97634" lon="2.23895">
        <ele>263</ele>
        <time>2020-08-25T10:19:05.567Z</time>
      </trkpt>
      <trkpt lat="43.97632" lon="2.23895">
        <ele>263</ele>
        <time>2020-08-25T10:19:06.567Z</time>
      </trkpt>
      <trkpt lat="43.97631" lon="2.23895">
        <ele>263</ele>
        <time>2020-08-25T10:19:07.567Z</time>
      </trkpt>
      <trkpt lat="43.9763" lon="2.23894">
        <ele>263</ele>
        <time>2020-08-25T10:19:08.567Z</time>
      </trkpt>
      <trkpt lat="43.97629" lon="2.23894">
        <ele>263</ele>
        <time>2020-08-25T10:19:09.567Z</time>
      </trkpt>
      <trkpt lat="43.97628" lon="2.23893">
        <ele>262</ele>
        <time>2020-08-25T10:19:10.567Z</time>
      </trkpt>
      <trkpt lat="43.97627" lon="2.23893">
        <ele>262</ele>
        <time>2020-08-25T10:19:11.567Z</time>
      </trkpt>
      <trkpt lat="43.97626" lon="2.23892">
        <ele>262</ele>
        <time>2020-08-25T10:19:12.567Z</time>
      </trkpt>
      <trkpt lat="43.97625" lon="2.23892">
        <ele>262</ele>
        <time>2020-08-25T10:19:13.567Z</time>
      </trkpt>
      <trkpt lat="43.97624" lon="2.23891">
        <ele>262</ele>
        <time>2020-08-25T10:19:14.567Z</time>
      </trkpt>
      <trkpt lat="43.97623" lon="2.2389">
        <ele>262</ele>
        <time>2020-08-25T10:19:15.567Z</time>
      </trkpt>
      <trkpt lat="43.97622" lon="2.23888">
        <ele>262</ele>
        <time>2020-08-25T10:19:16.567Z</time>
      </trkpt>
      <trkpt lat="43.97621" lon="2.23887">
        <ele>261</ele>
        <time>2020-08-25T10:19:17.567Z</time>
      </trkpt>
      <trkpt lat="43.9762" lon="2.23886">
        <ele>261</ele>
        <time>2020-08-25T10:19:18.567Z</time>
      </trkpt>
      <trkpt lat="43.97619" lon="2.23884">
        <ele>261</ele>
        <time>2020-08-25T10:19:19.567Z</time>
      </trkpt>
      <trkpt lat="43.97618" lon="2.23883">
        <ele>261</ele>
        <time>2020-08-25T10:19:20.567Z</time>
      </trkpt>
      <trkpt lat="43.97617" lon="2.23882">
        <ele>261</ele>
        <time>2020-08-25T10:19:21.567Z</time>
      </trkpt>
      <trkpt lat="43.97616" lon="2.23881">
        <ele>261</ele>
        <time>2020-08-25T10:19:22.567Z</time>
      </trkpt>
      <trkpt lat="43.97615" lon="2.23881">
        <ele>260</ele>
        <time>2020-08-25T10:19:23.567Z</time>
      </trkpt>
      <trkpt lat="43.97614" lon="2.2388">
        <ele>260</ele>
        <time>2020-08-25T10:19:24.567Z</time>
      </trkpt>
      <trkpt lat="43.97613" lon="2.2388">
        <ele>260</ele>
        <time>2020-08-25T10:19:25.567Z</time>
      </trkpt>
      <trkpt lat="43.97612" lon="2.2388">
        <ele>260</ele>
        <time>2020-08-25T10:19:26.567Z</time>
      </trkpt>
      <trkpt lat="43.97611" lon="2.23879">
        <ele>260</ele>
        <time>2020-08-25T10:19:27.567Z</time>
      </trkpt>
      <trkpt lat="43.9761" lon="2.23879">
        <ele>260</ele>
        <time>2020-08-25T10:19:28.567Z</time>
      </trkpt>
      <trkpt lat="43.97609" lon="2.23879">
        <ele>260</ele>
        <time>2020-08-25T10:19:29.567Z</time>
      </trkpt>
      <trkpt lat="43.97608" lon="2.23879">
        <ele>260</ele>
        <time>2020-08-25T10:19:30.567Z</time>
      </trkpt>
      <trkpt lat="43.97607" lon="2.23879">
        <ele>260</ele>
        <time>2020-08-25T10:19:31.567Z</time>
      </trkpt>
      <trkpt lat="43.97606" lon="2.23879">
        <ele>260</ele>
        <time>2020-08-25T10:19:32.567Z</time>
      </trkpt>
      <trkpt lat="43.97604" lon="2.23879">
        <ele>260</ele>
        <time>2020-08-25T10:19:33.567Z</time>
      </trkpt>
      <trkpt lat="43.97603" lon="2.23879">
        <ele>260</ele>
        <time>2020-08-25T10:19:34.567Z</time>
      </trkpt>
      <trkpt lat="43.97602" lon="2.23878">
        <ele>260</ele>
        <time>2020-08-25T10:19:35.567Z</time>
      </trkpt>
      <trkpt lat="43.97601" lon="2.23878">
        <ele>260</ele>
        <time>2020-08-25T10:19:36.567Z</time>
      </trkpt>
      <trkpt lat="43.976" lon="2.23877">
        <ele>260</ele>
        <time>2020-08-25T10:19:37.567Z</time>
      </trkpt>
      <trkpt lat="43.97599" lon="2.23877">
        <ele>260</ele>
        <time>2020-08-25T10:19:38.567Z</time>
      </trkpt>
      <trkpt lat="43.97598" lon="2.23876">
        <ele>260</ele>
        <time>2020-08-25T10:19:39.567Z</time>
      </trkpt>
      <trkpt lat="43.97597" lon="2.23875">
        <ele>260</ele>
        <time>2020-08-25T10:19:40.567Z</time>
      </trkpt>
      <trkpt lat="43.97596" lon="2.23875">
        <ele>260</ele>
        <time>2020-08-25T10:19:41.567Z</time>
      </trkpt>
      <trkpt lat="43.97595" lon="2.23874">
        <ele>260</ele>
        <time>2020-08-25T10:19:42.567Z</time>
      </trkpt>
      <trkpt lat="43.97593" lon="2.23873">
        <ele>260</ele>
        <time>2020-08-25T10:19:43.567Z</time>
      </trkpt>
      <trkpt lat="43.97592" lon="2.23873">
        <ele>261</ele>
        <time>2020-08-25T10:19:44.567Z</time>
      </trkpt>
      <trkpt lat="43.97591" lon="2.23872">
        <ele>261</ele>
        <time>2020-08-25T10:19:45.567Z</time>
      </trkpt>
      <trkpt lat="43.9759" lon="2.23871">
        <ele>261</ele>
        <time>2020-08-25T10:19:46.567Z</time>
      </trkpt>
      <trkpt lat="43.97589" lon="2.2387">
        <ele>261</ele>
        <time>2020-08-25T10:19:47.567Z</time>
      </trkpt>
      <trkpt lat="43.97589" lon="2.2387">
        <ele>261</ele>
        <time>2020-08-25T10:19:48.567Z</time>
      </trkpt>
      <trkpt lat="43.97588" lon="2.23869">
        <ele>261</ele>
        <time>2020-08-25T10:19:49.567Z</time>
      </trkpt>
      <trkpt lat="43.97587" lon="2.23868">
        <ele>261</ele>
        <time>2020-08-25T10:19:50.567Z</time>
      </trkpt>
      <trkpt lat="43.97586" lon="2.23867">
        <ele>261</ele>
        <time>2020-08-25T10:19:51.567Z</time>
      </trkpt>
      <trkpt lat="43.97585" lon="2.23866">
        <ele>261</ele>
        <time>2020-08-25T10:19:52.567Z</time>
      </trkpt>
      <trkpt lat="43.97584" lon="2.23865">
        <ele>261</ele>
        <time>2020-08-25T10:19:53.567Z</time>
      </trkpt>
      <trkpt lat="43.97583" lon="2.23864">
        <ele>261</ele>
        <time>2020-08-25T10:19:54.567Z</time>
      </trkpt>
      <trkpt lat="43.97582" lon="2.23863">
        <ele>261</ele>
        <time>2020-08-25T10:19:55.567Z</time>
      </trkpt>
      <trkpt lat="43.97582" lon="2.23862">
        <ele>261</ele>
        <time>2020-08-25T10:19:56.567Z</time>
      </trkpt>
      <trkpt lat="43.97581" lon="2.23862">
        <ele>262</ele>
        <time>2020-08-25T10:19:57.567Z</time>
      </trkpt>
      <trkpt lat="43.9758" lon="2.23861">
        <ele>262</ele>
        <time>2020-08-25T10:19:58.567Z</time>
      </trkpt>
      <trkpt lat="43.97579" lon="2.2386">
        <ele>262</ele>
        <time>2020-08-25T10:19:59.567Z</time>
      </trkpt>
      <trkpt lat="43.97578" lon="2.23859">
        <ele>262</ele>
        <time>2020-08-25T10:20:00.567Z</time>
      </trkpt>
      <trkpt lat="43.97577" lon="2.23858">
        <ele>262</ele>
        <time>2020-08-25T10:20:01.567Z</time>
      </trkpt>
      <trkpt lat="43.97577" lon="2.23857">
        <ele>262</ele>
        <time>2020-08-25T10:20:02.567Z</time>
      </trkpt>
      <trkpt lat="43.97576" lon="2.23856">
        <ele>262</ele>
        <time>2020-08-25T10:20:03.567Z</time>
      </trkpt>
      <trkpt lat="43.97575" lon="2.23855">
        <ele>262</ele>
        <time>2020-08-25T10:20:04.567Z</time>
      </trkpt>
      <trkpt lat="43.97574" lon="2.23854">
        <ele>262</ele>
        <time>2020-08-25T10:20:05.567Z</time>
      </trkpt>
      <trkpt lat="43.97574" lon="2.23853">
        <ele>262</ele>
        <time>2020-08-25T10:20:06.567Z</time>
      </trkpt>
      <trkpt lat="43.97573" lon="2.23852">
        <ele>263</ele>
        <time>2020-08-25T10:20:07.567Z</time>
      </trkpt>
      <trkpt lat="43.97572" lon="2.23851">
        <ele>263</ele>
        <time>2020-08-25T10:20:08.567Z</time>
      </trkpt>
      <trkpt lat="43.97571" lon="2.2385">
        <ele>263</ele>
        <time>2020-08-25T10:20:09.567Z</time>
      </trkpt>
      <trkpt lat="43.9757" lon="2.23849">
        <ele>263</ele>
        <time>2020-08-25T10:20:10.567Z</time>
      </trkpt>
      <trkpt lat="43.97569" lon="2.23848">
        <ele>263</ele>
        <time>2020-08-25T10:20:11.567Z</time>
      </trkpt>
      <trkpt lat="43.97569" lon="2.23847">
        <ele>263</ele>
        <time>2020-08-25T10:20:12.567Z</time>
      </trkpt>
      <trkpt lat="43.97568" lon="2.23846">
        <ele>263</ele>
        <time>2020-08-25T10:20:13.567Z</time>
      </trkpt>
      <trkpt lat="43.97568" lon="2.23845">
        <ele>263</ele>
        <time>2020-08-25T10:20:14.567Z</time>
      </trkpt>
      <trkpt lat="43.97568" lon="2.23845">
        <ele>263</ele>
        <time>2020-08-25T10:20:15.567Z</time>
      </trkpt>
      <trkpt lat="43.97567" lon="2.23845">
        <ele>263</ele>
        <time>2020-08-25T10:20:16.567Z</time>
      </trkpt>
      <trkpt lat="43.97567" lon="2.23845">
        <ele>263</ele>
        <time>2020-08-25T10:20:17.567Z</time>
      </trkpt>
      <trkpt lat="43.97563" lon="2.23837">
        <ele>262</ele>
        <time>2020-08-25T10:22:32.575Z</time>
      </trkpt>
      <trkpt lat="43.97563" lon="2.23837">
        <ele>262</ele>
        <time>2020-08-25T10:22:33.575Z</time>
      </trkpt>
      <trkpt lat="43.97564" lon="2.23836">
        <ele>262</ele>
        <time>2020-08-25T10:22:34.575Z</time>
      </trkpt>
      <trkpt lat="43.97564" lon="2.23835">
        <ele>262</ele>
        <time>2020-08-25T10:22:35.575Z</time>
      </trkpt>
      <trkpt lat="43.97564" lon="2.23835">
        <ele>262</ele>
        <time>2020-08-25T10:22:36.575Z</time>
      </trkpt>
      <trkpt lat="43.97564" lon="2.23835">
        <ele>262</ele>
        <time>2020-08-25T10:22:37.575Z</time>
      </trkpt>
      <trkpt lat="43.97563" lon="2.23835">
        <ele>262</ele>
        <time>2020-08-25T10:22:38.575Z</time>
      </trkpt>
      <trkpt lat="43.97562" lon="2.23835">
        <ele>262</ele>
        <time>2020-08-25T10:22:39.575Z</time>
      </trkpt>
      <trkpt lat="43.97562" lon="2.23835">
        <ele>262</ele>
        <time>2020-08-25T10:22:40.575Z</time>
      </trkpt>
      <trkpt lat="43.97561" lon="2.23835">
        <ele>262</ele>
        <time>2020-08-25T10:22:41.575Z</time>
      </trkpt>
      <trkpt lat="43.9756" lon="2.23835">
        <ele>262</ele>
        <time>2020-08-25T10:22:42.575Z</time>
      </trkpt>
      <trkpt lat="43.97559" lon="2.23835">
        <ele>262</ele>
        <time>2020-08-25T10:22:43.575Z</time>
      </trkpt>
      <trkpt lat="43.97559" lon="2.23834">
        <ele>261</ele>
        <time>2020-08-25T10:22:44.575Z</time>
      </trkpt>
      <trkpt lat="43.97558" lon="2.23834">
        <ele>261</ele>
        <time>2020-08-25T10:22:45.575Z</time>
      </trkpt>
      <trkpt lat="43.97558" lon="2.23834">
        <ele>261</ele>
        <time>2020-08-25T10:22:46.575Z</time>
      </trkpt>
      <trkpt lat="43.97558" lon="2.23834">
        <ele>261</ele>
        <time>2020-08-25T10:22:47.575Z</time>
      </trkpt>
      <trkpt lat="43.97558" lon="2.23834">
        <ele>261</ele>
        <time>2020-08-25T10:22:48.575Z</time>
      </trkpt>
      <trkpt lat="43.97558" lon="2.23834">
        <ele>261</ele>
        <time>2020-08-25T10:22:49.575Z</time>
      </trkpt>
      <trkpt lat="43.97557" lon="2.23833">
        <ele>261</ele>
        <time>2020-08-25T10:23:15.586Z</time>
      </trkpt>
      <trkpt lat="43.97557" lon="2.23833">
        <ele>261</ele>
        <time>2020-08-25T10:23:16.586Z</time>
      </trkpt>
      <trkpt lat="43.97556" lon="2.23832">
        <ele>261</ele>
        <time>2020-08-25T10:23:17.586Z</time>
      </trkpt>
      <trkpt lat="43.97555" lon="2.23831">
        <ele>261</ele>
        <time>2020-08-25T10:23:18.586Z</time>
      </trkpt>
      <trkpt lat="43.97554" lon="2.2383">
        <ele>261</ele>
        <time>2020-08-25T10:23:19.586Z</time>
      </trkpt>
      <trkpt lat="43.97553" lon="2.23829">
        <ele>260</ele>
        <time>2020-08-25T10:23:20.586Z</time>
      </trkpt>
      <trkpt lat="43.97553" lon="2.23829">
        <ele>261</ele>
        <time>2020-08-25T10:23:21.586Z</time>
      </trkpt>
      <trkpt lat="43.97552" lon="2.23828">
        <ele>260</ele>
        <time>2020-08-25T10:23:22.586Z</time>
      </trkpt>
      <trkpt lat="43.97551" lon="2.23827">
        <ele>261</ele>
        <time>2020-08-25T10:23:23.586Z</time>
      </trkpt>
      <trkpt lat="43.9755" lon="2.23826">
        <ele>261</ele>
        <time>2020-08-25T10:23:24.586Z</time>
      </trkpt>
      <trkpt lat="43.97549" lon="2.23825">
        <ele>261</ele>
        <time>2020-08-25T10:23:25.586Z</time>
      </trkpt>
      <trkpt lat="43.97548" lon="2.23824">
        <ele>261</ele>
        <time>2020-08-25T10:23:26.586Z</time>
      </trkpt>
      <trkpt lat="43.97547" lon="2.23823">
        <ele>261</ele>
        <time>2020-08-25T10:23:27.586Z</time>
      </trkpt>
      <trkpt lat="43.97546" lon="2.23823">
        <ele>261</ele>
        <time>2020-08-25T10:23:28.586Z</time>
      </trkpt>
      <trkpt lat="43.97545" lon="2.23822">
        <ele>261</ele>
        <time>2020-08-25T10:23:29.586Z</time>
      </trkpt>
      <trkpt lat="43.97544" lon="2.23821">
        <ele>261</ele>
        <time>2020-08-25T10:23:30.586Z</time>
      </trkpt>
      <trkpt lat="43.97543" lon="2.2382">
        <ele>261</ele>
        <time>2020-08-25T10:23:31.586Z</time>
      </trkpt>
      <trkpt lat="43.97543" lon="2.2382">
        <ele>261</ele>
        <time>2020-08-25T10:23:32.586Z</time>
      </trkpt>
      <trkpt lat="43.97542" lon="2.23819">
        <ele>261</ele>
        <time>2020-08-25T10:23:33.586Z</time>
      </trkpt>
      <trkpt lat="43.97541" lon="2.23819">
        <ele>261</ele>
        <time>2020-08-25T10:23:34.586Z</time>
      </trkpt>
      <trkpt lat="43.97541" lon="2.23818">
        <ele>261</ele>
        <time>2020-08-25T10:23:35.586Z</time>
      </trkpt>
      <trkpt lat="43.9754" lon="2.23818">
        <ele>261</ele>
        <time>2020-08-25T10:23:36.586Z</time>
      </trkpt>
      <trkpt lat="43.97539" lon="2.23819">
        <ele>261</ele>
        <time>2020-08-25T10:23:37.586Z</time>
      </trkpt>
      <trkpt lat="43.97538" lon="2.23819">
        <ele>261</ele>
        <time>2020-08-25T10:23:38.586Z</time>
      </trkpt>
      <trkpt lat="43.97537" lon="2.23819">
        <ele>261</ele>
        <time>2020-08-25T10:23:39.586Z</time>
      </trkpt>
      <trkpt lat="43.97537" lon="2.23818">
        <ele>261</ele>
        <time>2020-08-25T10:23:40.586Z</time>
      </trkpt>
      <trkpt lat="43.97536" lon="2.23818">
        <ele>261</ele>
        <time>2020-08-25T10:23:41.586Z</time>
      </trkpt>
      <trkpt lat="43.97535" lon="2.23817">
        <ele>261</ele>
        <time>2020-08-25T10:23:42.586Z</time>
      </trkpt>
      <trkpt lat="43.97535" lon="2.23817">
        <ele>261</ele>
        <time>2020-08-25T10:23:43.586Z</time>
      </trkpt>
      <trkpt lat="43.97534" lon="2.23816">
        <ele>261</ele>
        <time>2020-08-25T10:23:44.586Z</time>
      </trkpt>
      <trkpt lat="43.97533" lon="2.23815">
        <ele>261</ele>
        <time>2020-08-25T10:23:45.586Z</time>
      </trkpt>
      <trkpt lat="43.97533" lon="2.23814">
        <ele>261</ele>
        <time>2020-08-25T10:23:46.586Z</time>
      </trkpt>
      <trkpt lat="43.97532" lon="2.23814">
        <ele>261</ele>
        <time>2020-08-25T10:23:47.586Z</time>
      </trkpt>
      <trkpt lat="43.97531" lon="2.23813">
        <ele>261</ele>
        <time>2020-08-25T10:23:48.586Z</time>
      </trkpt>
      <trkpt lat="43.97531" lon="2.23813">
        <ele>261</ele>
        <time>2020-08-25T10:23:49.586Z</time>
      </trkpt>
      <trkpt lat="43.9753" lon="2.23812">
        <ele>261</ele>
        <time>2020-08-25T10:23:50.586Z</time>
      </trkpt>
      <trkpt lat="43.97529" lon="2.23812">
        <ele>261</ele>
        <time>2020-08-25T10:23:51.586Z</time>
      </trkpt>
      <trkpt lat="43.97528" lon="2.23811">
        <ele>261</ele>
        <time>2020-08-25T10:23:52.586Z</time>
      </trkpt>
      <trkpt lat="43.97527" lon="2.23811">
        <ele>261</ele>
        <time>2020-08-25T10:23:53.586Z</time>
      </trkpt>
      <trkpt lat="43.97526" lon="2.2381">
        <ele>261</ele>
        <time>2020-08-25T10:23:54.586Z</time>
      </trkpt>
      <trkpt lat="43.97526" lon="2.23809">
        <ele>261</ele>
        <time>2020-08-25T10:23:55.586Z</time>
      </trkpt>
      <trkpt lat="43.97525" lon="2.23808">
        <ele>261</ele>
        <time>2020-08-25T10:23:56.586Z</time>
      </trkpt>
      <trkpt lat="43.97524" lon="2.23807">
        <ele>261</ele>
        <time>2020-08-25T10:23:57.586Z</time>
      </trkpt>
      <trkpt lat="43.97523" lon="2.23805">
        <ele>260</ele>
        <time>2020-08-25T10:23:58.586Z</time>
      </trkpt>
      <trkpt lat="43.97522" lon="2.23804">
        <ele>260</ele>
        <time>2020-08-25T10:23:59.586Z</time>
      </trkpt>
      <trkpt lat="43.97521" lon="2.23803">
        <ele>260</ele>
        <time>2020-08-25T10:24:00.586Z</time>
      </trkpt>
      <trkpt lat="43.9752" lon="2.23802">
        <ele>260</ele>
        <time>2020-08-25T10:24:01.586Z</time>
      </trkpt>
      <trkpt lat="43.97519" lon="2.23801">
        <ele>260</ele>
        <time>2020-08-25T10:24:02.586Z</time>
      </trkpt>
      <trkpt lat="43.97518" lon="2.23801">
        <ele>260</ele>
        <time>2020-08-25T10:24:03.586Z</time>
      </trkpt>
      <trkpt lat="43.97517" lon="2.238">
        <ele>259</ele>
        <time>2020-08-25T10:24:04.586Z</time>
      </trkpt>
      <trkpt lat="43.97516" lon="2.238">
        <ele>259</ele>
        <time>2020-08-25T10:24:05.586Z</time>
      </trkpt>
      <trkpt lat="43.97514" lon="2.238">
        <ele>259</ele>
        <time>2020-08-25T10:24:06.586Z</time>
      </trkpt>
      <trkpt lat="43.97513" lon="2.238">
        <ele>258</ele>
        <time>2020-08-25T10:24:07.586Z</time>
      </trkpt>
      <trkpt lat="43.97512" lon="2.23799">
        <ele>258</ele>
        <time>2020-08-25T10:24:08.586Z</time>
      </trkpt>
      <trkpt lat="43.97511" lon="2.23799">
        <ele>258</ele>
        <time>2020-08-25T10:24:09.586Z</time>
      </trkpt>
      <trkpt lat="43.9751" lon="2.23798">
        <ele>258</ele>
        <time>2020-08-25T10:24:10.586Z</time>
      </trkpt>
      <trkpt lat="43.97509" lon="2.23796">
        <ele>258</ele>
        <time>2020-08-25T10:24:11.586Z</time>
      </trkpt>
      <trkpt lat="43.97508" lon="2.23796">
        <ele>257</ele>
        <time>2020-08-25T10:24:12.586Z</time>
      </trkpt>
      <trkpt lat="43.97507" lon="2.23795">
        <ele>257</ele>
        <time>2020-08-25T10:24:13.586Z</time>
      </trkpt>
      <trkpt lat="43.97506" lon="2.23795">
        <ele>257</ele>
        <time>2020-08-25T10:24:14.586Z</time>
      </trkpt>
      <trkpt lat="43.97505" lon="2.23795">
        <ele>257</ele>
        <time>2020-08-25T10:24:15.586Z</time>
      </trkpt>
      <trkpt lat="43.97504" lon="2.23794">
        <ele>257</ele>
        <time>2020-08-25T10:24:16.586Z</time>
      </trkpt>
      <trkpt lat="43.97503" lon="2.23793">
        <ele>257</ele>
        <time>2020-08-25T10:24:17.586Z</time>
      </trkpt>
      <trkpt lat="43.97502" lon="2.23793">
        <ele>257</ele>
        <time>2020-08-25T10:24:18.586Z</time>
      </trkpt>
      <trkpt lat="43.97501" lon="2.23792">
        <ele>257</ele>
        <time>2020-08-25T10:24:19.586Z</time>
      </trkpt>
      <trkpt lat="43.97501" lon="2.23792">
        <ele>257</ele>
        <time>2020-08-25T10:24:20.586Z</time>
      </trkpt>
      <trkpt lat="43.975" lon="2.23793">
        <ele>257</ele>
        <time>2020-08-25T10:24:21.586Z</time>
      </trkpt>
      <trkpt lat="43.97499" lon="2.23793">
        <ele>257</ele>
        <time>2020-08-25T10:24:22.586Z</time>
      </trkpt>
      <trkpt lat="43.97499" lon="2.23794">
        <ele>257</ele>
        <time>2020-08-25T10:24:23.586Z</time>
      </trkpt>
      <trkpt lat="43.97498" lon="2.23795">
        <ele>256</ele>
        <time>2020-08-25T10:24:24.586Z</time>
      </trkpt>
      <trkpt lat="43.97497" lon="2.23795">
        <ele>256</ele>
        <time>2020-08-25T10:24:25.586Z</time>
      </trkpt>
      <trkpt lat="43.97496" lon="2.23795">
        <ele>256</ele>
        <time>2020-08-25T10:24:26.586Z</time>
      </trkpt>
      <trkpt lat="43.97495" lon="2.23795">
        <ele>256</ele>
        <time>2020-08-25T10:24:27.586Z</time>
      </trkpt>
      <trkpt lat="43.97494" lon="2.23795">
        <ele>256</ele>
        <time>2020-08-25T10:24:28.586Z</time>
      </trkpt>
      <trkpt lat="43.97494" lon="2.23796">
        <ele>256</ele>
        <time>2020-08-25T10:24:29.586Z</time>
      </trkpt>
      <trkpt lat="43.97493" lon="2.23797">
        <ele>256</ele>
        <time>2020-08-25T10:24:30.586Z</time>
      </trkpt>
      <trkpt lat="43.97493" lon="2.23797">
        <ele>256</ele>
        <time>2020-08-25T10:24:31.586Z</time>
      </trkpt>
      <trkpt lat="43.97492" lon="2.23798">
        <ele>256</ele>
        <time>2020-08-25T10:24:32.586Z</time>
      </trkpt>
      <trkpt lat="43.97491" lon="2.23798">
        <ele>256</ele>
        <time>2020-08-25T10:24:33.586Z</time>
      </trkpt>
      <trkpt lat="43.97491" lon="2.23797">
        <ele>256</ele>
        <time>2020-08-25T10:24:34.586Z</time>
      </trkpt>
      <trkpt lat="43.9749" lon="2.23796">
        <ele>256</ele>
        <time>2020-08-25T10:24:35.586Z</time>
      </trkpt>
      <trkpt lat="43.97489" lon="2.23795">
        <ele>256</ele>
        <time>2020-08-25T10:24:36.586Z</time>
      </trkpt>
      <trkpt lat="43.97489" lon="2.23795">
        <ele>256</ele>
        <time>2020-08-25T10:24:37.586Z</time>
      </trkpt>
      <trkpt lat="43.97488" lon="2.23794">
        <ele>256</ele>
        <time>2020-08-25T10:24:38.586Z</time>
      </trkpt>
      <trkpt lat="43.97487" lon="2.23794">
        <ele>256</ele>
        <time>2020-08-25T10:24:39.586Z</time>
      </trkpt>
      <trkpt lat="43.97487" lon="2.23793">
        <ele>256</ele>
        <time>2020-08-25T10:24:40.586Z</time>
      </trkpt>
      <trkpt lat="43.97486" lon="2.23791">
        <ele>256</ele>
        <time>2020-08-25T10:24:41.586Z</time>
      </trkpt>
      <trkpt lat="43.97486" lon="2.2379">
        <ele>256</ele>
        <time>2020-08-25T10:24:42.586Z</time>
      </trkpt>
      <trkpt lat="43.97485" lon="2.23789">
        <ele>256</ele>
        <time>2020-08-25T10:24:43.586Z</time>
      </trkpt>
      <trkpt lat="43.97484" lon="2.23788">
        <ele>256</ele>
        <time>2020-08-25T10:24:44.586Z</time>
      </trkpt>
      <trkpt lat="43.97483" lon="2.23788">
        <ele>256</ele>
        <time>2020-08-25T10:24:45.586Z</time>
      </trkpt>
      <trkpt lat="43.97482" lon="2.23788">
        <ele>257</ele>
        <time>2020-08-25T10:24:46.586Z</time>
      </trkpt>
      <trkpt lat="43.97481" lon="2.23788">
        <ele>257</ele>
        <time>2020-08-25T10:24:47.586Z</time>
      </trkpt>
      <trkpt lat="43.9748" lon="2.23787">
        <ele>257</ele>
        <time>2020-08-25T10:24:48.586Z</time>
      </trkpt>
      <trkpt lat="43.97479" lon="2.23787">
        <ele>257</ele>
        <time>2020-08-25T10:24:49.586Z</time>
      </trkpt>
      <trkpt lat="43.97477" lon="2.23786">
        <ele>257</ele>
        <time>2020-08-25T10:24:50.586Z</time>
      </trkpt>
      <trkpt lat="43.97477" lon="2.23785">
        <ele>257</ele>
        <time>2020-08-25T10:24:51.586Z</time>
      </trkpt>
      <trkpt lat="43.97476" lon="2.23785">
        <ele>257</ele>
        <time>2020-08-25T10:24:52.586Z</time>
      </trkpt>
      <trkpt lat="43.97475" lon="2.23783">
        <ele>258</ele>
        <time>2020-08-25T10:24:53.586Z</time>
      </trkpt>
      <trkpt lat="43.97475" lon="2.23783">
        <ele>258</ele>
        <time>2020-08-25T10:24:54.586Z</time>
      </trkpt>
      <trkpt lat="43.97474" lon="2.23781">
        <ele>258</ele>
        <time>2020-08-25T10:24:55.586Z</time>
      </trkpt>
      <trkpt lat="43.97474" lon="2.2378">
        <ele>258</ele>
        <time>2020-08-25T10:24:56.586Z</time>
      </trkpt>
      <trkpt lat="43.97473" lon="2.2378">
        <ele>258</ele>
        <time>2020-08-25T10:24:57.586Z</time>
      </trkpt>
      <trkpt lat="43.97472" lon="2.23779">
        <ele>258</ele>
        <time>2020-08-25T10:24:58.586Z</time>
      </trkpt>
      <trkpt lat="43.97471" lon="2.23778">
        <ele>258</ele>
        <time>2020-08-25T10:24:59.586Z</time>
      </trkpt>
      <trkpt lat="43.9747" lon="2.23778">
        <ele>259</ele>
        <time>2020-08-25T10:25:00.586Z</time>
      </trkpt>
      <trkpt lat="43.97468" lon="2.23777">
        <ele>259</ele>
        <time>2020-08-25T10:25:01.586Z</time>
      </trkpt>
      <trkpt lat="43.97467" lon="2.23777">
        <ele>259</ele>
        <time>2020-08-25T10:25:02.586Z</time>
      </trkpt>
      <trkpt lat="43.97466" lon="2.23776">
        <ele>259</ele>
        <time>2020-08-25T10:25:03.586Z</time>
      </trkpt>
      <trkpt lat="43.97465" lon="2.23776">
        <ele>259</ele>
        <time>2020-08-25T10:25:04.586Z</time>
      </trkpt>
      <trkpt lat="43.97464" lon="2.23775">
        <ele>259</ele>
        <time>2020-08-25T10:25:05.586Z</time>
      </trkpt>
      <trkpt lat="43.97463" lon="2.23775">
        <ele>259</ele>
        <time>2020-08-25T10:25:06.586Z</time>
      </trkpt>
      <trkpt lat="43.97461" lon="2.23775">
        <ele>259</ele>
        <time>2020-08-25T10:25:07.586Z</time>
      </trkpt>
      <trkpt lat="43.9746" lon="2.23774">
        <ele>259</ele>
        <time>2020-08-25T10:25:08.586Z</time>
      </trkpt>
      <trkpt lat="43.97459" lon="2.23774">
        <ele>259</ele>
        <time>2020-08-25T10:25:09.586Z</time>
      </trkpt>
      <trkpt lat="43.97458" lon="2.23774">
        <ele>259</ele>
        <time>2020-08-25T10:25:10.586Z</time>
      </trkpt>
      <trkpt lat="43.97457" lon="2.23773">
        <ele>259</ele>
        <time>2020-08-25T10:25:11.586Z</time>
      </trkpt>
      <trkpt lat="43.97455" lon="2.23773">
        <ele>259</ele>
        <time>2020-08-25T10:25:12.586Z</time>
      </trkpt>
      <trkpt lat="43.97454" lon="2.23773">
        <ele>259</ele>
        <time>2020-08-25T10:25:13.586Z</time>
      </trkpt>
      <trkpt lat="43.97453" lon="2.23772">
        <ele>259</ele>
        <time>2020-08-25T10:25:14.586Z</time>
      </trkpt>
      <trkpt lat="43.97452" lon="2.23771">
        <ele>259</ele>
        <time>2020-08-25T10:25:15.586Z</time>
      </trkpt>
      <trkpt lat="43.97451" lon="2.2377">
        <ele>259</ele>
        <time>2020-08-25T10:25:16.586Z</time>
      </trkpt>
      <trkpt lat="43.97451" lon="2.23768">
        <ele>259</ele>
        <time>2020-08-25T10:25:17.586Z</time>
      </trkpt>
      <trkpt lat="43.9745" lon="2.23768">
        <ele>259</ele>
        <time>2020-08-25T10:25:18.586Z</time>
      </trkpt>
      <trkpt lat="43.97449" lon="2.23767">
        <ele>260</ele>
        <time>2020-08-25T10:25:19.586Z</time>
      </trkpt>
      <trkpt lat="43.97448" lon="2.23767">
        <ele>260</ele>
        <time>2020-08-25T10:25:20.586Z</time>
      </trkpt>
      <trkpt lat="43.97447" lon="2.23767">
        <ele>260</ele>
        <time>2020-08-25T10:25:21.586Z</time>
      </trkpt>
      <trkpt lat="43.97446" lon="2.23767">
        <ele>260</ele>
        <time>2020-08-25T10:25:22.586Z</time>
      </trkpt>
      <trkpt lat="43.97446" lon="2.23768">
        <ele>260</ele>
        <time>2020-08-25T10:25:23.586Z</time>
      </trkpt>
      <trkpt lat="43.97445" lon="2.23768">
        <ele>260</ele>
        <time>2020-08-25T10:25:24.586Z</time>
      </trkpt>
      <trkpt lat="43.97444" lon="2.23768">
        <ele>260</ele>
        <time>2020-08-25T10:25:25.586Z</time>
      </trkpt>
      <trkpt lat="43.97442" lon="2.23768">
        <ele>260</ele>
        <time>2020-08-25T10:25:26.586Z</time>
      </trkpt>
      <trkpt lat="43.97441" lon="2.23767">
        <ele>260</ele>
        <time>2020-08-25T10:25:27.586Z</time>
      </trkpt>
      <trkpt lat="43.9744" lon="2.23766">
        <ele>260</ele>
        <time>2020-08-25T10:25:28.586Z</time>
      </trkpt>
      <trkpt lat="43.9744" lon="2.23765">
        <ele>260</ele>
        <time>2020-08-25T10:25:29.586Z</time>
      </trkpt>
      <trkpt lat="43.97439" lon="2.23764">
        <ele>260</ele>
        <time>2020-08-25T10:25:30.586Z</time>
      </trkpt>
      <trkpt lat="43.97439" lon="2.23764">
        <ele>260</ele>
        <time>2020-08-25T10:25:31.586Z</time>
      </trkpt>
      <trkpt lat="43.97439" lon="2.23764">
        <ele>260</ele>
        <time>2020-08-25T10:25:32.586Z</time>
      </trkpt>
      <trkpt lat="43.97439" lon="2.23764">
        <ele>260</ele>
        <time>2020-08-25T10:25:33.586Z</time>
      </trkpt>
      <trkpt lat="43.97439" lon="2.23763">
        <ele>260</ele>
        <time>2020-08-25T10:25:34.586Z</time>
      </trkpt>
      <trkpt lat="43.97438" lon="2.23763">
        <ele>260</ele>
        <time>2020-08-25T10:25:35.586Z</time>
      </trkpt>
      <trkpt lat="43.97437" lon="2.23762">
        <ele>259</ele>
        <time>2020-08-25T10:25:36.586Z</time>
      </trkpt>
      <trkpt lat="43.97436" lon="2.23761">
        <ele>259</ele>
        <time>2020-08-25T10:25:37.586Z</time>
      </trkpt>
      <trkpt lat="43.97436" lon="2.2376">
        <ele>259</ele>
        <time>2020-08-25T10:25:38.586Z</time>
      </trkpt>
      <trkpt lat="43.97435" lon="2.23759">
        <ele>259</ele>
        <time>2020-08-25T10:25:39.586Z</time>
      </trkpt>
      <trkpt lat="43.97434" lon="2.23758">
        <ele>259</ele>
        <time>2020-08-25T10:25:40.586Z</time>
      </trkpt>
      <trkpt lat="43.97433" lon="2.23758">
        <ele>259</ele>
        <time>2020-08-25T10:25:41.586Z</time>
      </trkpt>
      <trkpt lat="43.97431" lon="2.23757">
        <ele>259</ele>
        <time>2020-08-25T10:25:42.586Z</time>
      </trkpt>
      <trkpt lat="43.9743" lon="2.23757">
        <ele>259</ele>
        <time>2020-08-25T10:25:43.586Z</time>
      </trkpt>
      <trkpt lat="43.97429" lon="2.23756">
        <ele>258</ele>
        <time>2020-08-25T10:25:44.586Z</time>
      </trkpt>
      <trkpt lat="43.97428" lon="2.23756">
        <ele>258</ele>
        <time>2020-08-25T10:25:45.586Z</time>
      </trkpt>
      <trkpt lat="43.97427" lon="2.23756">
        <ele>258</ele>
        <time>2020-08-25T10:25:46.586Z</time>
      </trkpt>
      <trkpt lat="43.97425" lon="2.23756">
        <ele>258</ele>
        <time>2020-08-25T10:25:47.586Z</time>
      </trkpt>
      <trkpt lat="43.97424" lon="2.23756">
        <ele>257</ele>
        <time>2020-08-25T10:25:48.586Z</time>
      </trkpt>
      <trkpt lat="43.97423" lon="2.23756">
        <ele>257</ele>
        <time>2020-08-25T10:25:49.586Z</time>
      </trkpt>
      <trkpt lat="43.97422" lon="2.23756">
        <ele>257</ele>
        <time>2020-08-25T10:25:50.586Z</time>
      </trkpt>
      <trkpt lat="43.97421" lon="2.23756">
        <ele>256</ele>
        <time>2020-08-25T10:25:51.586Z</time>
      </trkpt>
      <trkpt lat="43.9742" lon="2.23756">
        <ele>256</ele>
        <time>2020-08-25T10:25:52.586Z</time>
      </trkpt>
      <trkpt lat="43.97418" lon="2.23755">
        <ele>256</ele>
        <time>2020-08-25T10:25:53.586Z</time>
      </trkpt>
      <trkpt lat="43.97417" lon="2.23755">
        <ele>255</ele>
        <time>2020-08-25T10:25:54.586Z</time>
      </trkpt>
      <trkpt lat="43.97416" lon="2.23754">
        <ele>255</ele>
        <time>2020-08-25T10:25:55.586Z</time>
      </trkpt>
      <trkpt lat="43.97415" lon="2.23753">
        <ele>255</ele>
        <time>2020-08-25T10:25:56.586Z</time>
      </trkpt>
      <trkpt lat="43.97414" lon="2.23752">
        <ele>255</ele>
        <time>2020-08-25T10:25:57.586Z</time>
      </trkpt>
      <trkpt lat="43.97413" lon="2.23752">
        <ele>254</ele>
        <time>2020-08-25T10:25:58.586Z</time>
      </trkpt>
      <trkpt lat="43.97412" lon="2.23752">
        <ele>254</ele>
        <time>2020-08-25T10:25:59.586Z</time>
      </trkpt>
      <trkpt lat="43.97411" lon="2.23752">
        <ele>254</ele>
        <time>2020-08-25T10:26:00.586Z</time>
      </trkpt>
      <trkpt lat="43.9741" lon="2.23753">
        <ele>254</ele>
        <time>2020-08-25T10:26:01.586Z</time>
      </trkpt>
      <trkpt lat="43.97409" lon="2.23753">
        <ele>254</ele>
        <time>2020-08-25T10:26:02.586Z</time>
      </trkpt>
      <trkpt lat="43.97408" lon="2.23754">
        <ele>254</ele>
        <time>2020-08-25T10:26:03.586Z</time>
      </trkpt>
      <trkpt lat="43.97407" lon="2.23754">
        <ele>254</ele>
        <time>2020-08-25T10:26:04.586Z</time>
      </trkpt>
      <trkpt lat="43.97406" lon="2.23755">
        <ele>254</ele>
        <time>2020-08-25T10:26:05.586Z</time>
      </trkpt>
      <trkpt lat="43.97406" lon="2.23756">
        <ele>254</ele>
        <time>2020-08-25T10:26:06.586Z</time>
      </trkpt>
      <trkpt lat="43.97405" lon="2.23757">
        <ele>254</ele>
        <time>2020-08-25T10:26:07.586Z</time>
      </trkpt>
      <trkpt lat="43.97404" lon="2.23758">
        <ele>253</ele>
        <time>2020-08-25T10:26:08.586Z</time>
      </trkpt>
      <trkpt lat="43.97403" lon="2.23758">
        <ele>253</ele>
        <time>2020-08-25T10:26:09.586Z</time>
      </trkpt>
      <trkpt lat="43.97402" lon="2.23759">
        <ele>253</ele>
        <time>2020-08-25T10:26:10.586Z</time>
      </trkpt>
      <trkpt lat="43.97402" lon="2.23759">
        <ele>253</ele>
        <time>2020-08-25T10:26:11.586Z</time>
      </trkpt>
      <trkpt lat="43.97401" lon="2.2376">
        <ele>253</ele>
        <time>2020-08-25T10:26:12.586Z</time>
      </trkpt>
      <trkpt lat="43.974" lon="2.2376">
        <ele>253</ele>
        <time>2020-08-25T10:26:13.586Z</time>
      </trkpt>
      <trkpt lat="43.97399" lon="2.23761">
        <ele>253</ele>
        <time>2020-08-25T10:26:14.586Z</time>
      </trkpt>
      <trkpt lat="43.97398" lon="2.23761">
        <ele>253</ele>
        <time>2020-08-25T10:26:15.586Z</time>
      </trkpt>
      <trkpt lat="43.97397" lon="2.23762">
        <ele>252</ele>
        <time>2020-08-25T10:26:16.586Z</time>
      </trkpt>
      <trkpt lat="43.97396" lon="2.23762">
        <ele>252</ele>
        <time>2020-08-25T10:26:17.586Z</time>
      </trkpt>
      <trkpt lat="43.97395" lon="2.23763">
        <ele>252</ele>
        <time>2020-08-25T10:26:18.586Z</time>
      </trkpt>
      <trkpt lat="43.97394" lon="2.23763">
        <ele>252</ele>
        <time>2020-08-25T10:26:19.586Z</time>
      </trkpt>
      <trkpt lat="43.97393" lon="2.23764">
        <ele>252</ele>
        <time>2020-08-25T10:26:20.586Z</time>
      </trkpt>
      <trkpt lat="43.97392" lon="2.23764">
        <ele>252</ele>
        <time>2020-08-25T10:26:21.586Z</time>
      </trkpt>
      <trkpt lat="43.97391" lon="2.23764">
        <ele>252</ele>
        <time>2020-08-25T10:26:22.586Z</time>
      </trkpt>
      <trkpt lat="43.97389" lon="2.23765">
        <ele>252</ele>
        <time>2020-08-25T10:26:23.586Z</time>
      </trkpt>
      <trkpt lat="43.97388" lon="2.23765">
        <ele>252</ele>
        <time>2020-08-25T10:26:24.586Z</time>
      </trkpt>
      <trkpt lat="43.97387" lon="2.23765">
        <ele>252</ele>
        <time>2020-08-25T10:26:25.586Z</time>
      </trkpt>
      <trkpt lat="43.97386" lon="2.23765">
        <ele>252</ele>
        <time>2020-08-25T10:26:26.586Z</time>
      </trkpt>
      <trkpt lat="43.97385" lon="2.23765">
        <ele>252</ele>
        <time>2020-08-25T10:26:27.586Z</time>
      </trkpt>
      <trkpt lat="43.97384" lon="2.23765">
        <ele>252</ele>
        <time>2020-08-25T10:26:28.586Z</time>
      </trkpt>
      <trkpt lat="43.97383" lon="2.23765">
        <ele>252</ele>
        <time>2020-08-25T10:26:29.586Z</time>
      </trkpt>
      <trkpt lat="43.97381" lon="2.23764">
        <ele>252</ele>
        <time>2020-08-25T10:26:30.586Z</time>
      </trkpt>
      <trkpt lat="43.9738" lon="2.23764">
        <ele>252</ele>
        <time>2020-08-25T10:26:31.586Z</time>
      </trkpt>
      <trkpt lat="43.97379" lon="2.23764">
        <ele>252</ele>
        <time>2020-08-25T10:26:32.586Z</time>
      </trkpt>
      <trkpt lat="43.97378" lon="2.23763">
        <ele>252</ele>
        <time>2020-08-25T10:26:33.586Z</time>
      </trkpt>
      <trkpt lat="43.97377" lon="2.23763">
        <ele>252</ele>
        <time>2020-08-25T10:26:34.586Z</time>
      </trkpt>
      <trkpt lat="43.97376" lon="2.23763">
        <ele>252</ele>
        <time>2020-08-25T10:26:35.586Z</time>
      </trkpt>
      <trkpt lat="43.97375" lon="2.23763">
        <ele>252</ele>
        <time>2020-08-25T10:26:36.586Z</time>
      </trkpt>
      <trkpt lat="43.97374" lon="2.23763">
        <ele>251</ele>
        <time>2020-08-25T10:26:37.586Z</time>
      </trkpt>
      <trkpt lat="43.97372" lon="2.23762">
        <ele>251</ele>
        <time>2020-08-25T10:26:38.586Z</time>
      </trkpt>
      <trkpt lat="43.97371" lon="2.23762">
        <ele>251</ele>
        <time>2020-08-25T10:26:39.586Z</time>
      </trkpt>
      <trkpt lat="43.9737" lon="2.23761">
        <ele>251</ele>
        <time>2020-08-25T10:26:40.586Z</time>
      </trkpt>
      <trkpt lat="43.97369" lon="2.23761">
        <ele>251</ele>
        <time>2020-08-25T10:26:41.586Z</time>
      </trkpt>
      <trkpt lat="43.97368" lon="2.2376">
        <ele>251</ele>
        <time>2020-08-25T10:26:42.586Z</time>
      </trkpt>
      <trkpt lat="43.97367" lon="2.2376">
        <ele>251</ele>
        <time>2020-08-25T10:26:43.586Z</time>
      </trkpt>
      <trkpt lat="43.97365" lon="2.23759">
        <ele>251</ele>
        <time>2020-08-25T10:26:44.586Z</time>
      </trkpt>
      <trkpt lat="43.97364" lon="2.23758">
        <ele>251</ele>
        <time>2020-08-25T10:26:45.586Z</time>
      </trkpt>
      <trkpt lat="43.97363" lon="2.23758">
        <ele>251</ele>
        <time>2020-08-25T10:26:46.586Z</time>
      </trkpt>
      <trkpt lat="43.97362" lon="2.23757">
        <ele>251</ele>
        <time>2020-08-25T10:26:47.586Z</time>
      </trkpt>
      <trkpt lat="43.97361" lon="2.23757">
        <ele>251</ele>
        <time>2020-08-25T10:26:48.586Z</time>
      </trkpt>
      <trkpt lat="43.9736" lon="2.23757">
        <ele>251</ele>
        <time>2020-08-25T10:26:49.586Z</time>
      </trkpt>
      <trkpt lat="43.97359" lon="2.23756">
        <ele>251</ele>
        <time>2020-08-25T10:26:50.586Z</time>
      </trkpt>
      <trkpt lat="43.97359" lon="2.23756">
        <ele>250</ele>
        <time>2020-08-25T10:26:51.586Z</time>
      </trkpt>
      <trkpt lat="43.97358" lon="2.23756">
        <ele>250</ele>
        <time>2020-08-25T10:26:52.586Z</time>
      </trkpt>
      <trkpt lat="43.97358" lon="2.23756">
        <ele>250</ele>
        <time>2020-08-25T10:26:53.586Z</time>
      </trkpt>
      <trkpt lat="43.97358" lon="2.23756">
        <ele>250</ele>
        <time>2020-08-25T10:26:54.586Z</time>
      </trkpt>
      <trkpt lat="43.97356" lon="2.23756">
        <ele>250</ele>
        <time>2020-08-25T10:26:57.813Z</time>
      </trkpt>
      <trkpt lat="43.97356" lon="2.23756">
        <ele>250</ele>
        <time>2020-08-25T10:26:58.813Z</time>
      </trkpt>
      <trkpt lat="43.97355" lon="2.23756">
        <ele>249</ele>
        <time>2020-08-25T10:26:59.813Z</time>
      </trkpt>
      <trkpt lat="43.97354" lon="2.23756">
        <ele>249</ele>
        <time>2020-08-25T10:27:00.813Z</time>
      </trkpt>
      <trkpt lat="43.97353" lon="2.23755">
        <ele>249</ele>
        <time>2020-08-25T10:27:01.813Z</time>
      </trkpt>
      <trkpt lat="43.97352" lon="2.23754">
        <ele>249</ele>
        <time>2020-08-25T10:27:02.813Z</time>
      </trkpt>
      <trkpt lat="43.97351" lon="2.23753">
        <ele>248</ele>
        <time>2020-08-25T10:27:03.813Z</time>
      </trkpt>
      <trkpt lat="43.9735" lon="2.23752">
        <ele>248</ele>
        <time>2020-08-25T10:27:04.813Z</time>
      </trkpt>
      <trkpt lat="43.97349" lon="2.23752">
        <ele>248</ele>
        <time>2020-08-25T10:27:05.813Z</time>
      </trkpt>
      <trkpt lat="43.97348" lon="2.23751">
        <ele>248</ele>
        <time>2020-08-25T10:27:06.813Z</time>
      </trkpt>
      <trkpt lat="43.97348" lon="2.2375">
        <ele>248</ele>
        <time>2020-08-25T10:27:07.813Z</time>
      </trkpt>
      <trkpt lat="43.97347" lon="2.23749">
        <ele>247</ele>
        <time>2020-08-25T10:27:08.813Z</time>
      </trkpt>
      <trkpt lat="43.97347" lon="2.23748">
        <ele>247</ele>
        <time>2020-08-25T10:27:09.813Z</time>
      </trkpt>
      <trkpt lat="43.97346" lon="2.23747">
        <ele>247</ele>
        <time>2020-08-25T10:27:10.813Z</time>
      </trkpt>
      <trkpt lat="43.97346" lon="2.23746">
        <ele>247</ele>
        <time>2020-08-25T10:27:11.813Z</time>
      </trkpt>
      <trkpt lat="43.97345" lon="2.23744">
        <ele>246</ele>
        <time>2020-08-25T10:27:12.813Z</time>
      </trkpt>
      <trkpt lat="43.97345" lon="2.23743">
        <ele>246</ele>
        <time>2020-08-25T10:27:13.813Z</time>
      </trkpt>
      <trkpt lat="43.97344" lon="2.23742">
        <ele>246</ele>
        <time>2020-08-25T10:27:14.813Z</time>
      </trkpt>
      <trkpt lat="43.97344" lon="2.23741">
        <ele>246</ele>
        <time>2020-08-25T10:27:15.813Z</time>
      </trkpt>
      <trkpt lat="43.97344" lon="2.2374">
        <ele>245</ele>
        <time>2020-08-25T10:27:16.813Z</time>
      </trkpt>
      <trkpt lat="43.97343" lon="2.23739">
        <ele>245</ele>
        <time>2020-08-25T10:27:17.813Z</time>
      </trkpt>
      <trkpt lat="43.97343" lon="2.23737">
        <ele>245</ele>
        <time>2020-08-25T10:27:18.813Z</time>
      </trkpt>
      <trkpt lat="43.97342" lon="2.23736">
        <ele>245</ele>
        <time>2020-08-25T10:27:19.813Z</time>
      </trkpt>
      <trkpt lat="43.97342" lon="2.23735">
        <ele>244</ele>
        <time>2020-08-25T10:27:20.813Z</time>
      </trkpt>
      <trkpt lat="43.97341" lon="2.23734">
        <ele>244</ele>
        <time>2020-08-25T10:27:21.813Z</time>
      </trkpt>
      <trkpt lat="43.97341" lon="2.23733">
        <ele>244</ele>
        <time>2020-08-25T10:27:22.813Z</time>
      </trkpt>
      <trkpt lat="43.9734" lon="2.23732">
        <ele>244</ele>
        <time>2020-08-25T10:27:23.813Z</time>
      </trkpt>
      <trkpt lat="43.9734" lon="2.23731">
        <ele>244</ele>
        <time>2020-08-25T10:27:24.813Z</time>
      </trkpt>
      <trkpt lat="43.97339" lon="2.2373">
        <ele>243</ele>
        <time>2020-08-25T10:27:25.813Z</time>
      </trkpt>
      <trkpt lat="43.97339" lon="2.23729">
        <ele>243</ele>
        <time>2020-08-25T10:27:26.813Z</time>
      </trkpt>
      <trkpt lat="43.97338" lon="2.23727">
        <ele>243</ele>
        <time>2020-08-25T10:27:27.813Z</time>
      </trkpt>
      <trkpt lat="43.97338" lon="2.23726">
        <ele>243</ele>
        <time>2020-08-25T10:27:28.813Z</time>
      </trkpt>
      <trkpt lat="43.97337" lon="2.23725">
        <ele>243</ele>
        <time>2020-08-25T10:27:29.813Z</time>
      </trkpt>
      <trkpt lat="43.97336" lon="2.23724">
        <ele>243</ele>
        <time>2020-08-25T10:27:30.813Z</time>
      </trkpt>
      <trkpt lat="43.97336" lon="2.23723">
        <ele>242</ele>
        <time>2020-08-25T10:27:31.813Z</time>
      </trkpt>
      <trkpt lat="43.97335" lon="2.23722">
        <ele>242</ele>
        <time>2020-08-25T10:27:32.813Z</time>
      </trkpt>
      <trkpt lat="43.97334" lon="2.23721">
        <ele>242</ele>
        <time>2020-08-25T10:27:33.813Z</time>
      </trkpt>
      <trkpt lat="43.97333" lon="2.2372">
        <ele>242</ele>
        <time>2020-08-25T10:27:34.813Z</time>
      </trkpt>
      <trkpt lat="43.97333" lon="2.2372">
        <ele>242</ele>
        <time>2020-08-25T10:27:35.813Z</time>
      </trkpt>
      <trkpt lat="43.97332" lon="2.23719">
        <ele>242</ele>
        <time>2020-08-25T10:27:36.813Z</time>
      </trkpt>
      <trkpt lat="43.97331" lon="2.23718">
        <ele>242</ele>
        <time>2020-08-25T10:27:37.813Z</time>
      </trkpt>
      <trkpt lat="43.97331" lon="2.23718">
        <ele>242</ele>
        <time>2020-08-25T10:27:38.813Z</time>
      </trkpt>
      <trkpt lat="43.9733" lon="2.23717">
        <ele>242</ele>
        <time>2020-08-25T10:27:39.813Z</time>
      </trkpt>
      <trkpt lat="43.9733" lon="2.23716">
        <ele>242</ele>
        <time>2020-08-25T10:27:40.813Z</time>
      </trkpt>
      <trkpt lat="43.97329" lon="2.23716">
        <ele>242</ele>
        <time>2020-08-25T10:27:41.813Z</time>
      </trkpt>
      <trkpt lat="43.97328" lon="2.23715">
        <ele>241</ele>
        <time>2020-08-25T10:27:42.813Z</time>
      </trkpt>
      <trkpt lat="43.97327" lon="2.23715">
        <ele>241</ele>
        <time>2020-08-25T10:27:43.813Z</time>
      </trkpt>
      <trkpt lat="43.97326" lon="2.23715">
        <ele>241</ele>
        <time>2020-08-25T10:27:44.813Z</time>
      </trkpt>
      <trkpt lat="43.97326" lon="2.23714">
        <ele>241</ele>
        <time>2020-08-25T10:27:45.813Z</time>
      </trkpt>
      <trkpt lat="43.97325" lon="2.23713">
        <ele>241</ele>
        <time>2020-08-25T10:27:46.813Z</time>
      </trkpt>
      <trkpt lat="43.97324" lon="2.23712">
        <ele>241</ele>
        <time>2020-08-25T10:27:47.813Z</time>
      </trkpt>
      <trkpt lat="43.97324" lon="2.23711">
        <ele>241</ele>
        <time>2020-08-25T10:27:48.813Z</time>
      </trkpt>
      <trkpt lat="43.97324" lon="2.23709">
        <ele>241</ele>
        <time>2020-08-25T10:27:49.813Z</time>
      </trkpt>
      <trkpt lat="43.97323" lon="2.23708">
        <ele>241</ele>
        <time>2020-08-25T10:27:50.813Z</time>
      </trkpt>
      <trkpt lat="43.97323" lon="2.23706">
        <ele>240</ele>
        <time>2020-08-25T10:27:51.813Z</time>
      </trkpt>
      <trkpt lat="43.97323" lon="2.23705">
        <ele>240</ele>
        <time>2020-08-25T10:27:52.813Z</time>
      </trkpt>
      <trkpt lat="43.97322" lon="2.23704">
        <ele>240</ele>
        <time>2020-08-25T10:27:53.813Z</time>
      </trkpt>
      <trkpt lat="43.97322" lon="2.23702">
        <ele>240</ele>
        <time>2020-08-25T10:27:54.813Z</time>
      </trkpt>
      <trkpt lat="43.97322" lon="2.23701">
        <ele>240</ele>
        <time>2020-08-25T10:27:55.813Z</time>
      </trkpt>
      <trkpt lat="43.97322" lon="2.23699">
        <ele>240</ele>
        <time>2020-08-25T10:27:56.813Z</time>
      </trkpt>
      <trkpt lat="43.97321" lon="2.23698">
        <ele>240</ele>
        <time>2020-08-25T10:27:57.813Z</time>
      </trkpt>
      <trkpt lat="43.97321" lon="2.23697">
        <ele>240</ele>
        <time>2020-08-25T10:27:58.813Z</time>
      </trkpt>
      <trkpt lat="43.9732" lon="2.23696">
        <ele>239</ele>
        <time>2020-08-25T10:27:59.813Z</time>
      </trkpt>
      <trkpt lat="43.9732" lon="2.23695">
        <ele>239</ele>
        <time>2020-08-25T10:28:00.813Z</time>
      </trkpt>
      <trkpt lat="43.97319" lon="2.23694">
        <ele>239</ele>
        <time>2020-08-25T10:28:01.813Z</time>
      </trkpt>
      <trkpt lat="43.97318" lon="2.23694">
        <ele>239</ele>
        <time>2020-08-25T10:28:02.813Z</time>
      </trkpt>
      <trkpt lat="43.97317" lon="2.23694">
        <ele>239</ele>
        <time>2020-08-25T10:28:03.813Z</time>
      </trkpt>
      <trkpt lat="43.97316" lon="2.23693">
        <ele>239</ele>
        <time>2020-08-25T10:28:04.813Z</time>
      </trkpt>
      <trkpt lat="43.97316" lon="2.23693">
        <ele>239</ele>
        <time>2020-08-25T10:28:05.813Z</time>
      </trkpt>
      <trkpt lat="43.97315" lon="2.23692">
        <ele>239</ele>
        <time>2020-08-25T10:28:06.813Z</time>
      </trkpt>
      <trkpt lat="43.97314" lon="2.23691">
        <ele>239</ele>
        <time>2020-08-25T10:28:07.813Z</time>
      </trkpt>
      <trkpt lat="43.97314" lon="2.2369">
        <ele>239</ele>
        <time>2020-08-25T10:28:08.813Z</time>
      </trkpt>
      <trkpt lat="43.97314" lon="2.23689">
        <ele>239</ele>
        <time>2020-08-25T10:28:09.813Z</time>
      </trkpt>
      <trkpt lat="43.97314" lon="2.23687">
        <ele>239</ele>
        <time>2020-08-25T10:28:10.813Z</time>
      </trkpt>
      <trkpt lat="43.97313" lon="2.23686">
        <ele>239</ele>
        <time>2020-08-25T10:28:11.813Z</time>
      </trkpt>
      <trkpt lat="43.97313" lon="2.23685">
        <ele>239</ele>
        <time>2020-08-25T10:28:12.813Z</time>
      </trkpt>
      <trkpt lat="43.97314" lon="2.23684">
        <ele>239</ele>
        <time>2020-08-25T10:28:13.813Z</time>
      </trkpt>
      <trkpt lat="43.97314" lon="2.23683">
        <ele>239</ele>
        <time>2020-08-25T10:28:14.813Z</time>
      </trkpt>
      <trkpt lat="43.97314" lon="2.23682">
        <ele>238</ele>
        <time>2020-08-25T10:28:15.813Z</time>
      </trkpt>
      <trkpt lat="43.97314" lon="2.23681">
        <ele>238</ele>
        <time>2020-08-25T10:28:16.813Z</time>
      </trkpt>
      <trkpt lat="43.97315" lon="2.2368">
        <ele>238</ele>
        <time>2020-08-25T10:28:17.813Z</time>
      </trkpt>
      <trkpt lat="43.97315" lon="2.23679">
        <ele>238</ele>
        <time>2020-08-25T10:28:18.813Z</time>
      </trkpt>
      <trkpt lat="43.97314" lon="2.23678">
        <ele>238</ele>
        <time>2020-08-25T10:28:19.813Z</time>
      </trkpt>
      <trkpt lat="43.97314" lon="2.23678">
        <ele>238</ele>
        <time>2020-08-25T10:28:20.813Z</time>
      </trkpt>
      <trkpt lat="43.97314" lon="2.23678">
        <ele>238</ele>
        <time>2020-08-25T10:28:21.813Z</time>
      </trkpt>
      <trkpt lat="43.97314" lon="2.23678">
        <ele>238</ele>
        <time>2020-08-25T10:28:22.813Z</time>
      </trkpt>
      <trkpt lat="43.97314" lon="2.23678">
        <ele>238</ele>
        <time>2020-08-25T10:28:23.813Z</time>
      </trkpt>
      <trkpt lat="43.97313" lon="2.23676">
        <ele>237</ele>
        <time>2020-08-25T10:28:59.809Z</time>
      </trkpt>
      <trkpt lat="43.97312" lon="2.23675">
        <ele>237</ele>
        <time>2020-08-25T10:29:00.809Z</time>
      </trkpt>
      <trkpt lat="43.97311" lon="2.23675">
        <ele>237</ele>
        <time>2020-08-25T10:29:01.809Z</time>
      </trkpt>
      <trkpt lat="43.9731" lon="2.23674">
        <ele>237</ele>
        <time>2020-08-25T10:29:02.809Z</time>
      </trkpt>
      <trkpt lat="43.97309" lon="2.23673">
        <ele>237</ele>
        <time>2020-08-25T10:29:03.809Z</time>
      </trkpt>
      <trkpt lat="43.97309" lon="2.23673">
        <ele>237</ele>
        <time>2020-08-25T10:29:04.809Z</time>
      </trkpt>
      <trkpt lat="43.97308" lon="2.23672">
        <ele>237</ele>
        <time>2020-08-25T10:29:05.809Z</time>
      </trkpt>
      <trkpt lat="43.97307" lon="2.23671">
        <ele>237</ele>
        <time>2020-08-25T10:29:06.809Z</time>
      </trkpt>
      <trkpt lat="43.97306" lon="2.2367">
        <ele>237</ele>
        <time>2020-08-25T10:29:07.809Z</time>
      </trkpt>
      <trkpt lat="43.97305" lon="2.2367">
        <ele>237</ele>
        <time>2020-08-25T10:29:08.809Z</time>
      </trkpt>
      <trkpt lat="43.97304" lon="2.23669">
        <ele>237</ele>
        <time>2020-08-25T10:29:09.809Z</time>
      </trkpt>
      <trkpt lat="43.97303" lon="2.23668">
        <ele>236</ele>
        <time>2020-08-25T10:29:10.809Z</time>
      </trkpt>
      <trkpt lat="43.97302" lon="2.23667">
        <ele>236</ele>
        <time>2020-08-25T10:29:11.809Z</time>
      </trkpt>
      <trkpt lat="43.97301" lon="2.23667">
        <ele>236</ele>
        <time>2020-08-25T10:29:12.809Z</time>
      </trkpt>
      <trkpt lat="43.973" lon="2.23666">
        <ele>236</ele>
        <time>2020-08-25T10:29:13.809Z</time>
      </trkpt>
      <trkpt lat="43.97299" lon="2.23666">
        <ele>236</ele>
        <time>2020-08-25T10:29:14.809Z</time>
      </trkpt>
      <trkpt lat="43.97298" lon="2.23665">
        <ele>236</ele>
        <time>2020-08-25T10:29:15.809Z</time>
      </trkpt>
      <trkpt lat="43.97297" lon="2.23665">
        <ele>236</ele>
        <time>2020-08-25T10:29:16.809Z</time>
      </trkpt>
      <trkpt lat="43.97296" lon="2.23664">
        <ele>236</ele>
        <time>2020-08-25T10:29:17.809Z</time>
      </trkpt>
      <trkpt lat="43.97296" lon="2.23664">
        <ele>236</ele>
        <time>2020-08-25T10:29:18.809Z</time>
      </trkpt>
      <trkpt lat="43.97295" lon="2.23663">
        <ele>236</ele>
        <time>2020-08-25T10:29:19.809Z</time>
      </trkpt>
      <trkpt lat="43.97294" lon="2.23662">
        <ele>236</ele>
        <time>2020-08-25T10:29:20.809Z</time>
      </trkpt>
      <trkpt lat="43.97293" lon="2.2366">
        <ele>236</ele>
        <time>2020-08-25T10:29:21.809Z</time>
      </trkpt>
      <trkpt lat="43.97293" lon="2.23659">
        <ele>236</ele>
        <time>2020-08-25T10:29:22.809Z</time>
      </trkpt>
      <trkpt lat="43.97293" lon="2.23658">
        <ele>236</ele>
        <time>2020-08-25T10:29:23.809Z</time>
      </trkpt>
      <trkpt lat="43.97293" lon="2.23656">
        <ele>235</ele>
        <time>2020-08-25T10:29:24.809Z</time>
      </trkpt>
      <trkpt lat="43.97293" lon="2.23655">
        <ele>235</ele>
        <time>2020-08-25T10:29:25.809Z</time>
      </trkpt>
      <trkpt lat="43.97292" lon="2.23654">
        <ele>235</ele>
        <time>2020-08-25T10:29:26.809Z</time>
      </trkpt>
      <trkpt lat="43.97292" lon="2.23653">
        <ele>235</ele>
        <time>2020-08-25T10:29:27.809Z</time>
      </trkpt>
      <trkpt lat="43.97291" lon="2.23652">
        <ele>235</ele>
        <time>2020-08-25T10:29:28.809Z</time>
      </trkpt>
      <trkpt lat="43.9729" lon="2.23651">
        <ele>235</ele>
        <time>2020-08-25T10:29:29.809Z</time>
      </trkpt>
      <trkpt lat="43.97289" lon="2.23651">
        <ele>234</ele>
        <time>2020-08-25T10:29:30.809Z</time>
      </trkpt>
      <trkpt lat="43.97288" lon="2.2365">
        <ele>234</ele>
        <time>2020-08-25T10:29:31.809Z</time>
      </trkpt>
      <trkpt lat="43.97287" lon="2.2365">
        <ele>234</ele>
        <time>2020-08-25T10:29:32.809Z</time>
      </trkpt>
      <trkpt lat="43.97286" lon="2.23649">
        <ele>234</ele>
        <time>2020-08-25T10:29:33.809Z</time>
      </trkpt>
      <trkpt lat="43.97285" lon="2.23648">
        <ele>234</ele>
        <time>2020-08-25T10:29:34.809Z</time>
      </trkpt>
      <trkpt lat="43.97284" lon="2.23647">
        <ele>234</ele>
        <time>2020-08-25T10:29:35.809Z</time>
      </trkpt>
      <trkpt lat="43.97283" lon="2.23646">
        <ele>234</ele>
        <time>2020-08-25T10:29:36.809Z</time>
      </trkpt>
      <trkpt lat="43.97282" lon="2.23645">
        <ele>234</ele>
        <time>2020-08-25T10:29:37.809Z</time>
      </trkpt>
      <trkpt lat="43.97282" lon="2.23645">
        <ele>234</ele>
        <time>2020-08-25T10:29:38.809Z</time>
      </trkpt>
      <trkpt lat="43.97281" lon="2.23644">
        <ele>234</ele>
        <time>2020-08-25T10:29:39.809Z</time>
      </trkpt>
      <trkpt lat="43.9728" lon="2.23643">
        <ele>234</ele>
        <time>2020-08-25T10:29:40.809Z</time>
      </trkpt>
      <trkpt lat="43.9728" lon="2.23642">
        <ele>233</ele>
        <time>2020-08-25T10:29:41.809Z</time>
      </trkpt>
      <trkpt lat="43.97279" lon="2.23641">
        <ele>233</ele>
        <time>2020-08-25T10:29:42.809Z</time>
      </trkpt>
      <trkpt lat="43.97278" lon="2.23641">
        <ele>233</ele>
        <time>2020-08-25T10:29:43.809Z</time>
      </trkpt>
      <trkpt lat="43.97277" lon="2.23642">
        <ele>233</ele>
        <time>2020-08-25T10:29:44.809Z</time>
      </trkpt>
      <trkpt lat="43.97276" lon="2.23643">
        <ele>233</ele>
        <time>2020-08-25T10:29:45.809Z</time>
      </trkpt>
      <trkpt lat="43.97275" lon="2.23643">
        <ele>233</ele>
        <time>2020-08-25T10:29:46.809Z</time>
      </trkpt>
      <trkpt lat="43.97275" lon="2.23644">
        <ele>233</ele>
        <time>2020-08-25T10:29:47.809Z</time>
      </trkpt>
      <trkpt lat="43.97273" lon="2.23645">
        <ele>233</ele>
        <time>2020-08-25T10:29:48.809Z</time>
      </trkpt>
      <trkpt lat="43.97272" lon="2.23645">
        <ele>233</ele>
        <time>2020-08-25T10:29:49.809Z</time>
      </trkpt>
      <trkpt lat="43.97271" lon="2.23645">
        <ele>232</ele>
        <time>2020-08-25T10:29:50.809Z</time>
      </trkpt>
      <trkpt lat="43.9727" lon="2.23645">
        <ele>232</ele>
        <time>2020-08-25T10:29:51.809Z</time>
      </trkpt>
      <trkpt lat="43.97269" lon="2.23644">
        <ele>232</ele>
        <time>2020-08-25T10:29:52.809Z</time>
      </trkpt>
      <trkpt lat="43.97268" lon="2.23644">
        <ele>232</ele>
        <time>2020-08-25T10:29:53.809Z</time>
      </trkpt>
      <trkpt lat="43.97267" lon="2.23644">
        <ele>232</ele>
        <time>2020-08-25T10:29:54.809Z</time>
      </trkpt>
      <trkpt lat="43.97266" lon="2.23644">
        <ele>232</ele>
        <time>2020-08-25T10:29:55.809Z</time>
      </trkpt>
      <trkpt lat="43.97265" lon="2.23644">
        <ele>232</ele>
        <time>2020-08-25T10:29:56.809Z</time>
      </trkpt>
      <trkpt lat="43.97264" lon="2.23645">
        <ele>232</ele>
        <time>2020-08-25T10:29:57.809Z</time>
      </trkpt>
      <trkpt lat="43.97263" lon="2.23645">
        <ele>232</ele>
        <time>2020-08-25T10:29:58.809Z</time>
      </trkpt>
      <trkpt lat="43.97263" lon="2.23646">
        <ele>232</ele>
        <time>2020-08-25T10:29:59.809Z</time>
      </trkpt>
      <trkpt lat="43.97262" lon="2.23647">
        <ele>232</ele>
        <time>2020-08-25T10:30:00.809Z</time>
      </trkpt>
      <trkpt lat="43.97262" lon="2.23649">
        <ele>232</ele>
        <time>2020-08-25T10:30:01.809Z</time>
      </trkpt>
      <trkpt lat="43.97261" lon="2.2365">
        <ele>232</ele>
        <time>2020-08-25T10:30:02.809Z</time>
      </trkpt>
      <trkpt lat="43.9726" lon="2.23651">
        <ele>232</ele>
        <time>2020-08-25T10:30:03.809Z</time>
      </trkpt>
      <trkpt lat="43.97259" lon="2.23651">
        <ele>232</ele>
        <time>2020-08-25T10:30:04.809Z</time>
      </trkpt>
      <trkpt lat="43.97258" lon="2.23651">
        <ele>232</ele>
        <time>2020-08-25T10:30:05.809Z</time>
      </trkpt>
      <trkpt lat="43.97257" lon="2.23652">
        <ele>232</ele>
        <time>2020-08-25T10:30:06.809Z</time>
      </trkpt>
      <trkpt lat="43.97256" lon="2.23652">
        <ele>232</ele>
        <time>2020-08-25T10:30:07.809Z</time>
      </trkpt>
      <trkpt lat="43.97255" lon="2.23652">
        <ele>232</ele>
        <time>2020-08-25T10:30:08.809Z</time>
      </trkpt>
      <trkpt lat="43.97254" lon="2.23652">
        <ele>232</ele>
        <time>2020-08-25T10:30:09.809Z</time>
      </trkpt>
      <trkpt lat="43.97253" lon="2.23651">
        <ele>232</ele>
        <time>2020-08-25T10:30:10.809Z</time>
      </trkpt>
      <trkpt lat="43.97252" lon="2.23651">
        <ele>232</ele>
        <time>2020-08-25T10:30:11.809Z</time>
      </trkpt>
      <trkpt lat="43.97251" lon="2.23651">
        <ele>232</ele>
        <time>2020-08-25T10:30:12.809Z</time>
      </trkpt>
      <trkpt lat="43.9725" lon="2.2365">
        <ele>232</ele>
        <time>2020-08-25T10:30:13.809Z</time>
      </trkpt>
      <trkpt lat="43.97249" lon="2.2365">
        <ele>232</ele>
        <time>2020-08-25T10:30:14.809Z</time>
      </trkpt>
      <trkpt lat="43.97249" lon="2.23649">
        <ele>232</ele>
        <time>2020-08-25T10:30:15.809Z</time>
      </trkpt>
      <trkpt lat="43.97248" lon="2.23649">
        <ele>232</ele>
        <time>2020-08-25T10:30:16.809Z</time>
      </trkpt>
      <trkpt lat="43.97247" lon="2.23648">
        <ele>233</ele>
        <time>2020-08-25T10:30:17.809Z</time>
      </trkpt>
      <trkpt lat="43.97246" lon="2.23648">
        <ele>233</ele>
        <time>2020-08-25T10:30:18.809Z</time>
      </trkpt>
      <trkpt lat="43.97245" lon="2.23647">
        <ele>233</ele>
        <time>2020-08-25T10:30:19.809Z</time>
      </trkpt>
      <trkpt lat="43.97244" lon="2.23647">
        <ele>233</ele>
        <time>2020-08-25T10:30:20.809Z</time>
      </trkpt>
      <trkpt lat="43.97243" lon="2.23646">
        <ele>233</ele>
        <time>2020-08-25T10:30:21.809Z</time>
      </trkpt>
      <trkpt lat="43.97242" lon="2.23646">
        <ele>233</ele>
        <time>2020-08-25T10:30:22.809Z</time>
      </trkpt>
      <trkpt lat="43.97241" lon="2.23646">
        <ele>233</ele>
        <time>2020-08-25T10:30:23.809Z</time>
      </trkpt>
      <trkpt lat="43.9724" lon="2.23645">
        <ele>233</ele>
        <time>2020-08-25T10:30:24.809Z</time>
      </trkpt>
      <trkpt lat="43.97239" lon="2.23645">
        <ele>233</ele>
        <time>2020-08-25T10:30:25.809Z</time>
      </trkpt>
      <trkpt lat="43.97238" lon="2.23645">
        <ele>233</ele>
        <time>2020-08-25T10:30:26.809Z</time>
      </trkpt>
      <trkpt lat="43.97237" lon="2.23644">
        <ele>233</ele>
        <time>2020-08-25T10:30:27.809Z</time>
      </trkpt>
      <trkpt lat="43.97236" lon="2.23644">
        <ele>233</ele>
        <time>2020-08-25T10:30:28.809Z</time>
      </trkpt>
      <trkpt lat="43.97235" lon="2.23643">
        <ele>233</ele>
        <time>2020-08-25T10:30:29.809Z</time>
      </trkpt>
      <trkpt lat="43.97234" lon="2.23643">
        <ele>233</ele>
        <time>2020-08-25T10:30:30.809Z</time>
      </trkpt>
      <trkpt lat="43.97233" lon="2.23642">
        <ele>234</ele>
        <time>2020-08-25T10:30:31.809Z</time>
      </trkpt>
      <trkpt lat="43.97232" lon="2.23642">
        <ele>234</ele>
        <time>2020-08-25T10:30:32.809Z</time>
      </trkpt>
      <trkpt lat="43.97231" lon="2.23642">
        <ele>234</ele>
        <time>2020-08-25T10:30:33.809Z</time>
      </trkpt>
      <trkpt lat="43.9723" lon="2.23642">
        <ele>234</ele>
        <time>2020-08-25T10:30:34.809Z</time>
      </trkpt>
      <trkpt lat="43.97229" lon="2.23642">
        <ele>234</ele>
        <time>2020-08-25T10:30:35.809Z</time>
      </trkpt>
      <trkpt lat="43.97228" lon="2.23642">
        <ele>234</ele>
        <time>2020-08-25T10:30:36.809Z</time>
      </trkpt>
      <trkpt lat="43.97227" lon="2.23642">
        <ele>234</ele>
        <time>2020-08-25T10:30:37.809Z</time>
      </trkpt>
      <trkpt lat="43.97226" lon="2.23642">
        <ele>234</ele>
        <time>2020-08-25T10:30:38.809Z</time>
      </trkpt>
      <trkpt lat="43.97225" lon="2.23641">
        <ele>235</ele>
        <time>2020-08-25T10:30:39.809Z</time>
      </trkpt>
      <trkpt lat="43.97224" lon="2.23641">
        <ele>235</ele>
        <time>2020-08-25T10:30:40.809Z</time>
      </trkpt>
      <trkpt lat="43.97223" lon="2.2364">
        <ele>235</ele>
        <time>2020-08-25T10:30:41.809Z</time>
      </trkpt>
      <trkpt lat="43.97222" lon="2.2364">
        <ele>235</ele>
        <time>2020-08-25T10:30:42.809Z</time>
      </trkpt>
      <trkpt lat="43.97221" lon="2.2364">
        <ele>235</ele>
        <time>2020-08-25T10:30:43.809Z</time>
      </trkpt>
      <trkpt lat="43.9722" lon="2.23639">
        <ele>235</ele>
        <time>2020-08-25T10:30:44.809Z</time>
      </trkpt>
      <trkpt lat="43.97219" lon="2.23639">
        <ele>236</ele>
        <time>2020-08-25T10:30:45.809Z</time>
      </trkpt>
      <trkpt lat="43.97218" lon="2.23638">
        <ele>236</ele>
        <time>2020-08-25T10:30:46.809Z</time>
      </trkpt>
      <trkpt lat="43.97217" lon="2.23637">
        <ele>236</ele>
        <time>2020-08-25T10:30:47.809Z</time>
      </trkpt>
      <trkpt lat="43.97216" lon="2.23636">
        <ele>236</ele>
        <time>2020-08-25T10:30:48.809Z</time>
      </trkpt>
      <trkpt lat="43.97216" lon="2.23636">
        <ele>236</ele>
        <time>2020-08-25T10:30:49.809Z</time>
      </trkpt>
      <trkpt lat="43.97215" lon="2.23635">
        <ele>236</ele>
        <time>2020-08-25T10:30:50.809Z</time>
      </trkpt>
      <trkpt lat="43.97214" lon="2.23634">
        <ele>236</ele>
        <time>2020-08-25T10:30:51.809Z</time>
      </trkpt>
      <trkpt lat="43.97214" lon="2.23633">
        <ele>236</ele>
        <time>2020-08-25T10:30:52.809Z</time>
      </trkpt>
      <trkpt lat="43.97213" lon="2.23633">
        <ele>237</ele>
        <time>2020-08-25T10:30:53.809Z</time>
      </trkpt>
      <trkpt lat="43.97213" lon="2.23632">
        <ele>237</ele>
        <time>2020-08-25T10:30:54.809Z</time>
      </trkpt>
      <trkpt lat="43.97212" lon="2.23631">
        <ele>237</ele>
        <time>2020-08-25T10:30:55.809Z</time>
      </trkpt>
      <trkpt lat="43.97211" lon="2.2363">
        <ele>237</ele>
        <time>2020-08-25T10:30:56.809Z</time>
      </trkpt>
      <trkpt lat="43.97211" lon="2.23628">
        <ele>237</ele>
        <time>2020-08-25T10:30:57.809Z</time>
      </trkpt>
      <trkpt lat="43.9721" lon="2.23627">
        <ele>237</ele>
        <time>2020-08-25T10:30:58.809Z</time>
      </trkpt>
      <trkpt lat="43.97209" lon="2.23626">
        <ele>237</ele>
        <time>2020-08-25T10:30:59.809Z</time>
      </trkpt>
      <trkpt lat="43.97209" lon="2.23624">
        <ele>237</ele>
        <time>2020-08-25T10:31:00.809Z</time>
      </trkpt>
      <trkpt lat="43.97208" lon="2.23623">
        <ele>237</ele>
        <time>2020-08-25T10:31:01.809Z</time>
      </trkpt>
      <trkpt lat="43.97208" lon="2.23622">
        <ele>237</ele>
        <time>2020-08-25T10:31:02.809Z</time>
      </trkpt>
      <trkpt lat="43.97207" lon="2.23621">
        <ele>237</ele>
        <time>2020-08-25T10:31:03.809Z</time>
      </trkpt>
      <trkpt lat="43.97206" lon="2.2362">
        <ele>238</ele>
        <time>2020-08-25T10:31:04.809Z</time>
      </trkpt>
      <trkpt lat="43.97206" lon="2.23618">
        <ele>238</ele>
        <time>2020-08-25T10:31:05.809Z</time>
      </trkpt>
      <trkpt lat="43.97205" lon="2.23617">
        <ele>238</ele>
        <time>2020-08-25T10:31:06.809Z</time>
      </trkpt>
      <trkpt lat="43.97204" lon="2.23616">
        <ele>238</ele>
        <time>2020-08-25T10:31:07.809Z</time>
      </trkpt>
      <trkpt lat="43.97204" lon="2.23614">
        <ele>238</ele>
        <time>2020-08-25T10:31:08.809Z</time>
      </trkpt>
      <trkpt lat="43.97203" lon="2.23613">
        <ele>238</ele>
        <time>2020-08-25T10:31:09.809Z</time>
      </trkpt>
      <trkpt lat="43.97203" lon="2.23612">
        <ele>237</ele>
        <time>2020-08-25T10:31:10.809Z</time>
      </trkpt>
      <trkpt lat="43.97202" lon="2.23611">
        <ele>237</ele>
        <time>2020-08-25T10:31:11.809Z</time>
      </trkpt>
      <trkpt lat="43.97202" lon="2.23609">
        <ele>237</ele>
        <time>2020-08-25T10:31:12.809Z</time>
      </trkpt>
      <trkpt lat="43.97201" lon="2.23608">
        <ele>238</ele>
        <time>2020-08-25T10:31:13.809Z</time>
      </trkpt>
      <trkpt lat="43.97201" lon="2.23607">
        <ele>238</ele>
        <time>2020-08-25T10:31:14.809Z</time>
      </trkpt>
      <trkpt lat="43.972" lon="2.23605">
        <ele>238</ele>
        <time>2020-08-25T10:31:15.809Z</time>
      </trkpt>
      <trkpt lat="43.972" lon="2.23604">
        <ele>238</ele>
        <time>2020-08-25T10:31:16.809Z</time>
      </trkpt>
      <trkpt lat="43.97199" lon="2.23602">
        <ele>238</ele>
        <time>2020-08-25T10:31:17.809Z</time>
      </trkpt>
      <trkpt lat="43.97199" lon="2.23601">
        <ele>238</ele>
        <time>2020-08-25T10:31:18.809Z</time>
      </trkpt>
      <trkpt lat="43.97198" lon="2.23599">
        <ele>238</ele>
        <time>2020-08-25T10:31:19.809Z</time>
      </trkpt>
      <trkpt lat="43.97198" lon="2.23598">
        <ele>238</ele>
        <time>2020-08-25T10:31:20.809Z</time>
      </trkpt>
      <trkpt lat="43.97198" lon="2.23596">
        <ele>238</ele>
        <time>2020-08-25T10:31:21.809Z</time>
      </trkpt>
      <trkpt lat="43.97198" lon="2.23594">
        <ele>238</ele>
        <time>2020-08-25T10:31:22.809Z</time>
      </trkpt>
      <trkpt lat="43.97198" lon="2.23592">
        <ele>238</ele>
        <time>2020-08-25T10:31:23.809Z</time>
      </trkpt>
      <trkpt lat="43.97198" lon="2.23591">
        <ele>238</ele>
        <time>2020-08-25T10:31:24.809Z</time>
      </trkpt>
      <trkpt lat="43.97198" lon="2.2359">
        <ele>238</ele>
        <time>2020-08-25T10:31:25.809Z</time>
      </trkpt>
      <trkpt lat="43.97198" lon="2.23588">
        <ele>238</ele>
        <time>2020-08-25T10:31:26.809Z</time>
      </trkpt>
      <trkpt lat="43.97198" lon="2.23587">
        <ele>238</ele>
        <time>2020-08-25T10:31:27.809Z</time>
      </trkpt>
      <trkpt lat="43.97198" lon="2.23586">
        <ele>238</ele>
        <time>2020-08-25T10:31:28.809Z</time>
      </trkpt>
      <trkpt lat="43.97198" lon="2.23584">
        <ele>238</ele>
        <time>2020-08-25T10:31:29.809Z</time>
      </trkpt>
      <trkpt lat="43.97198" lon="2.23583">
        <ele>238</ele>
        <time>2020-08-25T10:31:30.809Z</time>
      </trkpt>
      <trkpt lat="43.97198" lon="2.23581">
        <ele>238</ele>
        <time>2020-08-25T10:31:31.809Z</time>
      </trkpt>
      <trkpt lat="43.97197" lon="2.2358">
        <ele>238</ele>
        <time>2020-08-25T10:31:32.809Z</time>
      </trkpt>
      <trkpt lat="43.97197" lon="2.23579">
        <ele>238</ele>
        <time>2020-08-25T10:31:33.809Z</time>
      </trkpt>
      <trkpt lat="43.97197" lon="2.23577">
        <ele>239</ele>
        <time>2020-08-25T10:31:34.809Z</time>
      </trkpt>
      <trkpt lat="43.97196" lon="2.23576">
        <ele>239</ele>
        <time>2020-08-25T10:31:35.809Z</time>
      </trkpt>
      <trkpt lat="43.97196" lon="2.23575">
        <ele>239</ele>
        <time>2020-08-25T10:31:36.809Z</time>
      </trkpt>
      <trkpt lat="43.97196" lon="2.23575">
        <ele>239</ele>
        <time>2020-08-25T10:31:37.809Z</time>
      </trkpt>
      <trkpt lat="43.97196" lon="2.23575">
        <ele>239</ele>
        <time>2020-08-25T10:31:38.809Z</time>
      </trkpt>
      <trkpt lat="43.97196" lon="2.23567">
        <ele>239</ele>
        <time>2020-08-25T10:32:40.816Z</time>
      </trkpt>
      <trkpt lat="43.97196" lon="2.23566">
        <ele>239</ele>
        <time>2020-08-25T10:32:41.816Z</time>
      </trkpt>
      <trkpt lat="43.97197" lon="2.23566">
        <ele>239</ele>
        <time>2020-08-25T10:32:42.816Z</time>
      </trkpt>
      <trkpt lat="43.97197" lon="2.23565">
        <ele>239</ele>
        <time>2020-08-25T10:32:43.816Z</time>
      </trkpt>
      <trkpt lat="43.97197" lon="2.23564">
        <ele>239</ele>
        <time>2020-08-25T10:32:44.816Z</time>
      </trkpt>
      <trkpt lat="43.97196" lon="2.23563">
        <ele>239</ele>
        <time>2020-08-25T10:32:45.816Z</time>
      </trkpt>
      <trkpt lat="43.97196" lon="2.23562">
        <ele>239</ele>
        <time>2020-08-25T10:32:46.816Z</time>
      </trkpt>
      <trkpt lat="43.97195" lon="2.23562">
        <ele>239</ele>
        <time>2020-08-25T10:32:47.816Z</time>
      </trkpt>
      <trkpt lat="43.97194" lon="2.23561">
        <ele>239</ele>
        <time>2020-08-25T10:32:48.816Z</time>
      </trkpt>
      <trkpt lat="43.97193" lon="2.23561">
        <ele>239</ele>
        <time>2020-08-25T10:32:49.816Z</time>
      </trkpt>
      <trkpt lat="43.97192" lon="2.2356">
        <ele>239</ele>
        <time>2020-08-25T10:32:50.816Z</time>
      </trkpt>
      <trkpt lat="43.97191" lon="2.23559">
        <ele>239</ele>
        <time>2020-08-25T10:32:51.816Z</time>
      </trkpt>
      <trkpt lat="43.97191" lon="2.23559">
        <ele>239</ele>
        <time>2020-08-25T10:32:52.816Z</time>
      </trkpt>
      <trkpt lat="43.9719" lon="2.23558">
        <ele>239</ele>
        <time>2020-08-25T10:32:53.816Z</time>
      </trkpt>
      <trkpt lat="43.97189" lon="2.23557">
        <ele>239</ele>
        <time>2020-08-25T10:32:54.816Z</time>
      </trkpt>
      <trkpt lat="43.97189" lon="2.23556">
        <ele>239</ele>
        <time>2020-08-25T10:32:55.816Z</time>
      </trkpt>
      <trkpt lat="43.97189" lon="2.23556">
        <ele>239</ele>
        <time>2020-08-25T10:32:56.816Z</time>
      </trkpt>
      <trkpt lat="43.97188" lon="2.23555">
        <ele>239</ele>
        <time>2020-08-25T10:32:57.816Z</time>
      </trkpt>
      <trkpt lat="43.97188" lon="2.23554">
        <ele>239</ele>
        <time>2020-08-25T10:32:58.816Z</time>
      </trkpt>
      <trkpt lat="43.97188" lon="2.23553">
        <ele>239</ele>
        <time>2020-08-25T10:32:59.816Z</time>
      </trkpt>
      <trkpt lat="43.97188" lon="2.23553">
        <ele>239</ele>
        <time>2020-08-25T10:33:00.816Z</time>
      </trkpt>
      <trkpt lat="43.97187" lon="2.23553">
        <ele>239</ele>
        <time>2020-08-25T10:33:01.816Z</time>
      </trkpt>
      <trkpt lat="43.97187" lon="2.23552">
        <ele>239</ele>
        <time>2020-08-25T10:33:02.816Z</time>
      </trkpt>
      <trkpt lat="43.97186" lon="2.23551">
        <ele>239</ele>
        <time>2020-08-25T10:33:03.816Z</time>
      </trkpt>
      <trkpt lat="43.97186" lon="2.2355">
        <ele>239</ele>
        <time>2020-08-25T10:33:04.816Z</time>
      </trkpt>
      <trkpt lat="43.97185" lon="2.23549">
        <ele>239</ele>
        <time>2020-08-25T10:33:05.816Z</time>
      </trkpt>
      <trkpt lat="43.97185" lon="2.23548">
        <ele>239</ele>
        <time>2020-08-25T10:33:06.816Z</time>
      </trkpt>
      <trkpt lat="43.97185" lon="2.23547">
        <ele>239</ele>
        <time>2020-08-25T10:33:07.816Z</time>
      </trkpt>
      <trkpt lat="43.97184" lon="2.23546">
        <ele>238</ele>
        <time>2020-08-25T10:33:08.816Z</time>
      </trkpt>
      <trkpt lat="43.97184" lon="2.23545">
        <ele>238</ele>
        <time>2020-08-25T10:33:09.816Z</time>
      </trkpt>
      <trkpt lat="43.97184" lon="2.23545">
        <ele>238</ele>
        <time>2020-08-25T10:33:10.816Z</time>
      </trkpt>
      <trkpt lat="43.97183" lon="2.23543">
        <ele>238</ele>
        <time>2020-08-25T10:33:11.816Z</time>
      </trkpt>
      <trkpt lat="43.97183" lon="2.23543">
        <ele>238</ele>
        <time>2020-08-25T10:33:12.816Z</time>
      </trkpt>
      <trkpt lat="43.97183" lon="2.23542">
        <ele>238</ele>
        <time>2020-08-25T10:33:13.816Z</time>
      </trkpt>
      <trkpt lat="43.97182" lon="2.23541">
        <ele>238</ele>
        <time>2020-08-25T10:33:14.816Z</time>
      </trkpt>
      <trkpt lat="43.97182" lon="2.2354">
        <ele>238</ele>
        <time>2020-08-25T10:33:15.816Z</time>
      </trkpt>
      <trkpt lat="43.97181" lon="2.23538">
        <ele>238</ele>
        <time>2020-08-25T10:33:16.816Z</time>
      </trkpt>
      <trkpt lat="43.97181" lon="2.23537">
        <ele>237</ele>
        <time>2020-08-25T10:33:17.816Z</time>
      </trkpt>
      <trkpt lat="43.9718" lon="2.23536">
        <ele>237</ele>
        <time>2020-08-25T10:33:18.816Z</time>
      </trkpt>
      <trkpt lat="43.9718" lon="2.23535">
        <ele>237</ele>
        <time>2020-08-25T10:33:19.816Z</time>
      </trkpt>
      <trkpt lat="43.9718" lon="2.23534">
        <ele>237</ele>
        <time>2020-08-25T10:33:20.816Z</time>
      </trkpt>
      <trkpt lat="43.9718" lon="2.23533">
        <ele>237</ele>
        <time>2020-08-25T10:33:21.816Z</time>
      </trkpt>
      <trkpt lat="43.97179" lon="2.23532">
        <ele>237</ele>
        <time>2020-08-25T10:33:22.816Z</time>
      </trkpt>
      <trkpt lat="43.97179" lon="2.23531">
        <ele>237</ele>
        <time>2020-08-25T10:33:23.816Z</time>
      </trkpt>
      <trkpt lat="43.97178" lon="2.2353">
        <ele>236</ele>
        <time>2020-08-25T10:33:24.816Z</time>
      </trkpt>
      <trkpt lat="43.97178" lon="2.23529">
        <ele>236</ele>
        <time>2020-08-25T10:33:25.816Z</time>
      </trkpt>
      <trkpt lat="43.97178" lon="2.23528">
        <ele>236</ele>
        <time>2020-08-25T10:33:26.816Z</time>
      </trkpt>
      <trkpt lat="43.97177" lon="2.23526">
        <ele>236</ele>
        <time>2020-08-25T10:33:27.816Z</time>
      </trkpt>
      <trkpt lat="43.97177" lon="2.23525">
        <ele>236</ele>
        <time>2020-08-25T10:33:28.816Z</time>
      </trkpt>
      <trkpt lat="43.97176" lon="2.23524">
        <ele>235</ele>
        <time>2020-08-25T10:33:29.816Z</time>
      </trkpt>
      <trkpt lat="43.97176" lon="2.23522">
        <ele>235</ele>
        <time>2020-08-25T10:33:30.816Z</time>
      </trkpt>
      <trkpt lat="43.97175" lon="2.2352">
        <ele>235</ele>
        <time>2020-08-25T10:33:31.816Z</time>
      </trkpt>
      <trkpt lat="43.97175" lon="2.23519">
        <ele>235</ele>
        <time>2020-08-25T10:33:32.816Z</time>
      </trkpt>
      <trkpt lat="43.97174" lon="2.23517">
        <ele>235</ele>
        <time>2020-08-25T10:33:33.816Z</time>
      </trkpt>
      <trkpt lat="43.97174" lon="2.23516">
        <ele>235</ele>
        <time>2020-08-25T10:33:34.816Z</time>
      </trkpt>
      <trkpt lat="43.97173" lon="2.23514">
        <ele>234</ele>
        <time>2020-08-25T10:33:35.816Z</time>
      </trkpt>
      <trkpt lat="43.97173" lon="2.23513">
        <ele>234</ele>
        <time>2020-08-25T10:33:36.816Z</time>
      </trkpt>
      <trkpt lat="43.97172" lon="2.23511">
        <ele>234</ele>
        <time>2020-08-25T10:33:37.816Z</time>
      </trkpt>
      <trkpt lat="43.97172" lon="2.2351">
        <ele>234</ele>
        <time>2020-08-25T10:33:38.816Z</time>
      </trkpt>
      <trkpt lat="43.97171" lon="2.23509">
        <ele>234</ele>
        <time>2020-08-25T10:33:39.816Z</time>
      </trkpt>
      <trkpt lat="43.97171" lon="2.23508">
        <ele>234</ele>
        <time>2020-08-25T10:33:40.816Z</time>
      </trkpt>
      <trkpt lat="43.9717" lon="2.23506">
        <ele>234</ele>
        <time>2020-08-25T10:33:41.816Z</time>
      </trkpt>
      <trkpt lat="43.9717" lon="2.23505">
        <ele>234</ele>
        <time>2020-08-25T10:33:42.816Z</time>
      </trkpt>
      <trkpt lat="43.97169" lon="2.23504">
        <ele>233</ele>
        <time>2020-08-25T10:33:43.816Z</time>
      </trkpt>
      <trkpt lat="43.97169" lon="2.23503">
        <ele>233</ele>
        <time>2020-08-25T10:33:44.816Z</time>
      </trkpt>
      <trkpt lat="43.97168" lon="2.23501">
        <ele>233</ele>
        <time>2020-08-25T10:33:45.816Z</time>
      </trkpt>
      <trkpt lat="43.97168" lon="2.235">
        <ele>233</ele>
        <time>2020-08-25T10:33:46.816Z</time>
      </trkpt>
      <trkpt lat="43.97167" lon="2.23499">
        <ele>233</ele>
        <time>2020-08-25T10:33:47.816Z</time>
      </trkpt>
      <trkpt lat="43.97167" lon="2.23498">
        <ele>233</ele>
        <time>2020-08-25T10:33:48.816Z</time>
      </trkpt>
      <trkpt lat="43.97167" lon="2.23496">
        <ele>233</ele>
        <time>2020-08-25T10:33:49.816Z</time>
      </trkpt>
      <trkpt lat="43.97166" lon="2.23495">
        <ele>233</ele>
        <time>2020-08-25T10:33:50.816Z</time>
      </trkpt>
      <trkpt lat="43.97166" lon="2.23493">
        <ele>233</ele>
        <time>2020-08-25T10:33:51.816Z</time>
      </trkpt>
      <trkpt lat="43.97165" lon="2.23492">
        <ele>233</ele>
        <time>2020-08-25T10:33:52.816Z</time>
      </trkpt>
      <trkpt lat="43.97165" lon="2.2349">
        <ele>233</ele>
        <time>2020-08-25T10:33:53.816Z</time>
      </trkpt>
      <trkpt lat="43.97165" lon="2.23488">
        <ele>233</ele>
        <time>2020-08-25T10:33:54.816Z</time>
      </trkpt>
      <trkpt lat="43.97164" lon="2.23487">
        <ele>233</ele>
        <time>2020-08-25T10:33:55.816Z</time>
      </trkpt>
      <trkpt lat="43.97164" lon="2.23485">
        <ele>234</ele>
        <time>2020-08-25T10:33:56.816Z</time>
      </trkpt>
      <trkpt lat="43.97164" lon="2.23483">
        <ele>234</ele>
        <time>2020-08-25T10:33:57.816Z</time>
      </trkpt>
      <trkpt lat="43.97164" lon="2.23482">
        <ele>234</ele>
        <time>2020-08-25T10:33:58.816Z</time>
      </trkpt>
      <trkpt lat="43.97164" lon="2.2348">
        <ele>234</ele>
        <time>2020-08-25T10:33:59.816Z</time>
      </trkpt>
      <trkpt lat="43.97163" lon="2.23478">
        <ele>234</ele>
        <time>2020-08-25T10:34:00.816Z</time>
      </trkpt>
      <trkpt lat="43.97163" lon="2.23477">
        <ele>234</ele>
        <time>2020-08-25T10:34:01.816Z</time>
      </trkpt>
      <trkpt lat="43.97163" lon="2.23475">
        <ele>234</ele>
        <time>2020-08-25T10:34:02.816Z</time>
      </trkpt>
      <trkpt lat="43.97163" lon="2.23473">
        <ele>234</ele>
        <time>2020-08-25T10:34:03.816Z</time>
      </trkpt>
      <trkpt lat="43.97163" lon="2.23472">
        <ele>234</ele>
        <time>2020-08-25T10:34:04.816Z</time>
      </trkpt>
      <trkpt lat="43.97162" lon="2.2347">
        <ele>234</ele>
        <time>2020-08-25T10:34:05.816Z</time>
      </trkpt>
      <trkpt lat="43.97162" lon="2.23469">
        <ele>234</ele>
        <time>2020-08-25T10:34:06.816Z</time>
      </trkpt>
      <trkpt lat="43.97161" lon="2.23468">
        <ele>234</ele>
        <time>2020-08-25T10:34:07.816Z</time>
      </trkpt>
      <trkpt lat="43.97161" lon="2.23467">
        <ele>234</ele>
        <time>2020-08-25T10:34:08.816Z</time>
      </trkpt>
      <trkpt lat="43.97161" lon="2.23465">
        <ele>234</ele>
        <time>2020-08-25T10:34:09.816Z</time>
      </trkpt>
      <trkpt lat="43.9716" lon="2.23464">
        <ele>234</ele>
        <time>2020-08-25T10:34:10.816Z</time>
      </trkpt>
      <trkpt lat="43.9716" lon="2.23463">
        <ele>234</ele>
        <time>2020-08-25T10:34:11.816Z</time>
      </trkpt>
      <trkpt lat="43.9716" lon="2.23462">
        <ele>234</ele>
        <time>2020-08-25T10:34:12.816Z</time>
      </trkpt>
      <trkpt lat="43.97159" lon="2.23461">
        <ele>234</ele>
        <time>2020-08-25T10:34:13.816Z</time>
      </trkpt>
      <trkpt lat="43.97159" lon="2.2346">
        <ele>234</ele>
        <time>2020-08-25T10:34:14.816Z</time>
      </trkpt>
      <trkpt lat="43.97158" lon="2.23458">
        <ele>234</ele>
        <time>2020-08-25T10:34:15.816Z</time>
      </trkpt>
      <trkpt lat="43.97158" lon="2.23457">
        <ele>234</ele>
        <time>2020-08-25T10:34:16.816Z</time>
      </trkpt>
      <trkpt lat="43.97157" lon="2.23455">
        <ele>234</ele>
        <time>2020-08-25T10:34:17.816Z</time>
      </trkpt>
      <trkpt lat="43.97157" lon="2.23454">
        <ele>234</ele>
        <time>2020-08-25T10:34:18.816Z</time>
      </trkpt>
      <trkpt lat="43.97157" lon="2.23452">
        <ele>234</ele>
        <time>2020-08-25T10:34:19.816Z</time>
      </trkpt>
      <trkpt lat="43.97157" lon="2.23451">
        <ele>234</ele>
        <time>2020-08-25T10:34:20.816Z</time>
      </trkpt>
      <trkpt lat="43.97156" lon="2.23449">
        <ele>234</ele>
        <time>2020-08-25T10:34:21.816Z</time>
      </trkpt>
      <trkpt lat="43.97156" lon="2.23448">
        <ele>234</ele>
        <time>2020-08-25T10:34:22.816Z</time>
      </trkpt>
      <trkpt lat="43.97155" lon="2.23447">
        <ele>234</ele>
        <time>2020-08-25T10:34:23.816Z</time>
      </trkpt>
      <trkpt lat="43.97154" lon="2.23446">
        <ele>234</ele>
        <time>2020-08-25T10:34:24.816Z</time>
      </trkpt>
      <trkpt lat="43.97154" lon="2.23445">
        <ele>234</ele>
        <time>2020-08-25T10:34:25.816Z</time>
      </trkpt>
      <trkpt lat="43.97153" lon="2.23444">
        <ele>234</ele>
        <time>2020-08-25T10:34:26.816Z</time>
      </trkpt>
      <trkpt lat="43.97153" lon="2.23443">
        <ele>234</ele>
        <time>2020-08-25T10:34:27.816Z</time>
      </trkpt>
      <trkpt lat="43.97153" lon="2.23443">
        <ele>234</ele>
        <time>2020-08-25T10:34:28.816Z</time>
      </trkpt>
      <trkpt lat="43.97153" lon="2.23443">
        <ele>234</ele>
        <time>2020-08-25T10:34:29.816Z</time>
      </trkpt>
      <trkpt lat="43.97153" lon="2.23443">
        <ele>234</ele>
        <time>2020-08-25T10:34:30.816Z</time>
      </trkpt>
      <trkpt lat="43.97152" lon="2.23437">
        <ele>234</ele>
        <time>2020-08-25T10:37:41.828Z</time>
      </trkpt>
      <trkpt lat="43.97151" lon="2.23436">
        <ele>234</ele>
        <time>2020-08-25T10:37:42.828Z</time>
      </trkpt>
      <trkpt lat="43.97151" lon="2.23435">
        <ele>235</ele>
        <time>2020-08-25T10:37:43.828Z</time>
      </trkpt>
      <trkpt lat="43.9715" lon="2.23434">
        <ele>235</ele>
        <time>2020-08-25T10:37:44.828Z</time>
      </trkpt>
      <trkpt lat="43.97149" lon="2.23434">
        <ele>235</ele>
        <time>2020-08-25T10:37:45.828Z</time>
      </trkpt>
      <trkpt lat="43.97149" lon="2.23433">
        <ele>235</ele>
        <time>2020-08-25T10:37:46.828Z</time>
      </trkpt>
      <trkpt lat="43.97148" lon="2.23432">
        <ele>235</ele>
        <time>2020-08-25T10:37:47.828Z</time>
      </trkpt>
      <trkpt lat="43.97147" lon="2.23432">
        <ele>235</ele>
        <time>2020-08-25T10:37:48.828Z</time>
      </trkpt>
      <trkpt lat="43.97147" lon="2.23431">
        <ele>235</ele>
        <time>2020-08-25T10:37:49.828Z</time>
      </trkpt>
      <trkpt lat="43.97146" lon="2.2343">
        <ele>235</ele>
        <time>2020-08-25T10:37:50.828Z</time>
      </trkpt>
      <trkpt lat="43.97145" lon="2.2343">
        <ele>235</ele>
        <time>2020-08-25T10:37:51.828Z</time>
      </trkpt>
      <trkpt lat="43.97145" lon="2.23429">
        <ele>235</ele>
        <time>2020-08-25T10:37:52.828Z</time>
      </trkpt>
      <trkpt lat="43.97144" lon="2.23428">
        <ele>235</ele>
        <time>2020-08-25T10:37:53.828Z</time>
      </trkpt>
      <trkpt lat="43.97143" lon="2.23427">
        <ele>235</ele>
        <time>2020-08-25T10:37:54.828Z</time>
      </trkpt>
      <trkpt lat="43.97143" lon="2.23427">
        <ele>235</ele>
        <time>2020-08-25T10:37:55.828Z</time>
      </trkpt>
      <trkpt lat="43.97143" lon="2.23427">
        <ele>235</ele>
        <time>2020-08-25T10:37:56.828Z</time>
      </trkpt>
      <trkpt lat="43.97143" lon="2.23427">
        <ele>235</ele>
        <time>2020-08-25T10:37:57.828Z</time>
      </trkpt>
      <trkpt lat="43.97143" lon="2.23427">
        <ele>235</ele>
        <time>2020-08-25T10:37:58.828Z</time>
      </trkpt>
      <trkpt lat="43.97143" lon="2.23427">
        <ele>234</ele>
        <time>2020-08-25T10:38:09.838Z</time>
      </trkpt>
      <trkpt lat="43.97142" lon="2.23425">
        <ele>234</ele>
        <time>2020-08-25T10:38:10.838Z</time>
      </trkpt>
      <trkpt lat="43.97142" lon="2.23424">
        <ele>234</ele>
        <time>2020-08-25T10:38:11.838Z</time>
      </trkpt>
      <trkpt lat="43.97142" lon="2.23423">
        <ele>234</ele>
        <time>2020-08-25T10:38:12.838Z</time>
      </trkpt>
      <trkpt lat="43.97141" lon="2.23421">
        <ele>234</ele>
        <time>2020-08-25T10:38:13.838Z</time>
      </trkpt>
      <trkpt lat="43.97141" lon="2.2342">
        <ele>234</ele>
        <time>2020-08-25T10:38:14.838Z</time>
      </trkpt>
      <trkpt lat="43.97141" lon="2.23419">
        <ele>234</ele>
        <time>2020-08-25T10:38:15.838Z</time>
      </trkpt>
      <trkpt lat="43.97141" lon="2.23418">
        <ele>234</ele>
        <time>2020-08-25T10:38:16.838Z</time>
      </trkpt>
      <trkpt lat="43.9714" lon="2.23417">
        <ele>234</ele>
        <time>2020-08-25T10:38:17.838Z</time>
      </trkpt>
      <trkpt lat="43.9714" lon="2.23416">
        <ele>234</ele>
        <time>2020-08-25T10:38:18.838Z</time>
      </trkpt>
      <trkpt lat="43.9714" lon="2.23415">
        <ele>234</ele>
        <time>2020-08-25T10:38:19.838Z</time>
      </trkpt>
      <trkpt lat="43.9714" lon="2.23414">
        <ele>234</ele>
        <time>2020-08-25T10:38:20.838Z</time>
      </trkpt>
      <trkpt lat="43.9714" lon="2.23413">
        <ele>234</ele>
        <time>2020-08-25T10:38:21.838Z</time>
      </trkpt>
      <trkpt lat="43.9714" lon="2.23412">
        <ele>234</ele>
        <time>2020-08-25T10:38:22.838Z</time>
      </trkpt>
      <trkpt lat="43.9714" lon="2.23411">
        <ele>234</ele>
        <time>2020-08-25T10:38:23.838Z</time>
      </trkpt>
      <trkpt lat="43.9714" lon="2.23411">
        <ele>234</ele>
        <time>2020-08-25T10:38:24.838Z</time>
      </trkpt>
      <trkpt lat="43.9714" lon="2.23411">
        <ele>234</ele>
        <time>2020-08-25T10:38:25.838Z</time>
      </trkpt>
      <trkpt lat="43.9714" lon="2.2341">
        <ele>233</ele>
        <time>2020-08-25T10:38:26.838Z</time>
      </trkpt>
      <trkpt lat="43.97139" lon="2.23406">
        <ele>233</ele>
        <time>2020-08-25T10:38:40.850Z</time>
      </trkpt>
      <trkpt lat="43.97139" lon="2.23405">
        <ele>233</ele>
        <time>2020-08-25T10:38:41.850Z</time>
      </trkpt>
      <trkpt lat="43.97138" lon="2.23405">
        <ele>233</ele>
        <time>2020-08-25T10:38:42.850Z</time>
      </trkpt>
      <trkpt lat="43.97138" lon="2.23404">
        <ele>233</ele>
        <time>2020-08-25T10:38:43.850Z</time>
      </trkpt>
      <trkpt lat="43.97137" lon="2.23404">
        <ele>233</ele>
        <time>2020-08-25T10:38:44.850Z</time>
      </trkpt>
      <trkpt lat="43.97137" lon="2.23403">
        <ele>233</ele>
        <time>2020-08-25T10:38:45.850Z</time>
      </trkpt>
      <trkpt lat="43.97137" lon="2.23403">
        <ele>233</ele>
        <time>2020-08-25T10:38:46.850Z</time>
      </trkpt>
      <trkpt lat="43.97138" lon="2.23402">
        <ele>233</ele>
        <time>2020-08-25T10:38:47.850Z</time>
      </trkpt>
      <trkpt lat="43.97138" lon="2.23402">
        <ele>233</ele>
        <time>2020-08-25T10:38:48.850Z</time>
      </trkpt>
      <trkpt lat="43.9714" lon="2.23398">
        <ele>232</ele>
        <time>2020-08-25T10:39:13.862Z</time>
      </trkpt>
      <trkpt lat="43.9714" lon="2.23398">
        <ele>232</ele>
        <time>2020-08-25T10:39:14.862Z</time>
      </trkpt>
      <trkpt lat="43.97141" lon="2.23398">
        <ele>232</ele>
        <time>2020-08-25T10:39:15.862Z</time>
      </trkpt>
      <trkpt lat="43.97141" lon="2.23398">
        <ele>232</ele>
        <time>2020-08-25T10:39:16.862Z</time>
      </trkpt>
      <trkpt lat="43.97141" lon="2.23398">
        <ele>232</ele>
        <time>2020-08-25T10:39:17.862Z</time>
      </trkpt>
      <trkpt lat="43.97142" lon="2.23398">
        <ele>232</ele>
        <time>2020-08-25T10:39:21.089Z</time>
      </trkpt>
      <trkpt lat="43.97143" lon="2.23398">
        <ele>232</ele>
        <time>2020-08-25T10:39:22.089Z</time>
      </trkpt>
      <trkpt lat="43.97143" lon="2.23397">
        <ele>232</ele>
        <time>2020-08-25T10:39:23.089Z</time>
      </trkpt>
      <trkpt lat="43.97143" lon="2.23397">
        <ele>232</ele>
        <time>2020-08-25T10:39:24.089Z</time>
      </trkpt>
      <trkpt lat="43.97143" lon="2.23396">
        <ele>232</ele>
        <time>2020-08-25T10:39:25.089Z</time>
      </trkpt>
      <trkpt lat="43.97144" lon="2.23395">
        <ele>232</ele>
        <time>2020-08-25T10:39:26.089Z</time>
      </trkpt>
      <trkpt lat="43.97144" lon="2.23395">
        <ele>232</ele>
        <time>2020-08-25T10:39:27.089Z</time>
      </trkpt>
      <trkpt lat="43.97143" lon="2.23394">
        <ele>232</ele>
        <time>2020-08-25T10:39:28.089Z</time>
      </trkpt>
      <trkpt lat="43.97143" lon="2.23393">
        <ele>232</ele>
        <time>2020-08-25T10:39:29.089Z</time>
      </trkpt>
      <trkpt lat="43.97143" lon="2.23392">
        <ele>232</ele>
        <time>2020-08-25T10:39:30.089Z</time>
      </trkpt>
      <trkpt lat="43.97143" lon="2.23392">
        <ele>232</ele>
        <time>2020-08-25T10:39:31.089Z</time>
      </trkpt>
      <trkpt lat="43.97143" lon="2.23391">
        <ele>232</ele>
        <time>2020-08-25T10:39:32.089Z</time>
      </trkpt>
      <trkpt lat="43.97143" lon="2.2339">
        <ele>232</ele>
        <time>2020-08-25T10:39:33.089Z</time>
      </trkpt>
      <trkpt lat="43.97143" lon="2.2339">
        <ele>232</ele>
        <time>2020-08-25T10:39:34.089Z</time>
      </trkpt>
      <trkpt lat="43.9715" lon="2.23383">
        <ele>233</ele>
        <time>2020-08-25T10:40:01.088Z</time>
      </trkpt>
      <trkpt lat="43.97151" lon="2.23382">
        <ele>233</ele>
        <time>2020-08-25T10:40:02.088Z</time>
      </trkpt>
      <trkpt lat="43.97152" lon="2.23382">
        <ele>233</ele>
        <time>2020-08-25T10:40:03.088Z</time>
      </trkpt>
      <trkpt lat="43.97152" lon="2.23382">
        <ele>233</ele>
        <time>2020-08-25T10:40:04.088Z</time>
      </trkpt>
      <trkpt lat="43.97152" lon="2.23381">
        <ele>233</ele>
        <time>2020-08-25T10:40:05.088Z</time>
      </trkpt>
      <trkpt lat="43.97153" lon="2.23381">
        <ele>233</ele>
        <time>2020-08-25T10:40:06.088Z</time>
      </trkpt>
      <trkpt lat="43.97154" lon="2.2338">
        <ele>233</ele>
        <time>2020-08-25T10:40:10.085Z</time>
      </trkpt>
      <trkpt lat="43.97155" lon="2.2338">
        <ele>233</ele>
        <time>2020-08-25T10:40:11.085Z</time>
      </trkpt>
      <trkpt lat="43.97156" lon="2.23376">
        <ele>234</ele>
        <time>2020-08-25T10:40:29.084Z</time>
      </trkpt>
      <trkpt lat="43.97157" lon="2.23375">
        <ele>234</ele>
        <time>2020-08-25T10:40:30.084Z</time>
      </trkpt>
      <trkpt lat="43.97157" lon="2.23374">
        <ele>234</ele>
        <time>2020-08-25T10:40:31.084Z</time>
      </trkpt>
      <trkpt lat="43.97157" lon="2.23374">
        <ele>234</ele>
        <time>2020-08-25T10:40:32.084Z</time>
      </trkpt>
      <trkpt lat="43.97157" lon="2.23373">
        <ele>234</ele>
        <time>2020-08-25T10:40:33.084Z</time>
      </trkpt>
      <trkpt lat="43.97158" lon="2.23373">
        <ele>234</ele>
        <time>2020-08-25T10:40:34.084Z</time>
      </trkpt>
      <trkpt lat="43.97158" lon="2.23372">
        <ele>234</ele>
        <time>2020-08-25T10:40:35.084Z</time>
      </trkpt>
      <trkpt lat="43.97158" lon="2.23372">
        <ele>234</ele>
        <time>2020-08-25T10:40:36.084Z</time>
      </trkpt>
      <trkpt lat="43.97158" lon="2.23371">
        <ele>234</ele>
        <time>2020-08-25T10:40:37.084Z</time>
      </trkpt>
      <trkpt lat="43.97159" lon="2.2337">
        <ele>235</ele>
        <time>2020-08-25T10:40:38.084Z</time>
      </trkpt>
      <trkpt lat="43.97159" lon="2.23369">
        <ele>235</ele>
        <time>2020-08-25T10:40:39.084Z</time>
      </trkpt>
      <trkpt lat="43.97158" lon="2.23368">
        <ele>235</ele>
        <time>2020-08-25T10:40:40.084Z</time>
      </trkpt>
      <trkpt lat="43.97159" lon="2.23367">
        <ele>235</ele>
        <time>2020-08-25T10:40:41.084Z</time>
      </trkpt>
      <trkpt lat="43.97159" lon="2.23367">
        <ele>235</ele>
        <time>2020-08-25T10:40:42.084Z</time>
      </trkpt>
      <trkpt lat="43.97159" lon="2.23366">
        <ele>235</ele>
        <time>2020-08-25T10:40:43.084Z</time>
      </trkpt>
      <trkpt lat="43.9716" lon="2.23366">
        <ele>235</ele>
        <time>2020-08-25T10:40:44.084Z</time>
      </trkpt>
      <trkpt lat="43.9716" lon="2.23365">
        <ele>235</ele>
        <time>2020-08-25T10:40:45.084Z</time>
      </trkpt>
      <trkpt lat="43.97161" lon="2.23365">
        <ele>235</ele>
        <time>2020-08-25T10:40:46.084Z</time>
      </trkpt>
      <trkpt lat="43.97161" lon="2.23364">
        <ele>235</ele>
        <time>2020-08-25T10:40:47.084Z</time>
      </trkpt>
      <trkpt lat="43.97161" lon="2.23363">
        <ele>235</ele>
        <time>2020-08-25T10:40:48.084Z</time>
      </trkpt>
      <trkpt lat="43.97161" lon="2.23362">
        <ele>235</ele>
        <time>2020-08-25T10:40:49.084Z</time>
      </trkpt>
      <trkpt lat="43.97161" lon="2.23361">
        <ele>235</ele>
        <time>2020-08-25T10:40:50.084Z</time>
      </trkpt>
      <trkpt lat="43.9716" lon="2.2336">
        <ele>235</ele>
        <time>2020-08-25T10:40:51.084Z</time>
      </trkpt>
      <trkpt lat="43.9716" lon="2.23359">
        <ele>235</ele>
        <time>2020-08-25T10:40:52.084Z</time>
      </trkpt>
      <trkpt lat="43.97161" lon="2.23358">
        <ele>236</ele>
        <time>2020-08-25T10:40:53.084Z</time>
      </trkpt>
      <trkpt lat="43.97161" lon="2.23357">
        <ele>236</ele>
        <time>2020-08-25T10:40:54.084Z</time>
      </trkpt>
      <trkpt lat="43.97161" lon="2.23356">
        <ele>236</ele>
        <time>2020-08-25T10:40:55.084Z</time>
      </trkpt>
      <trkpt lat="43.97162" lon="2.23355">
        <ele>236</ele>
        <time>2020-08-25T10:40:56.084Z</time>
      </trkpt>
      <trkpt lat="43.97162" lon="2.23353">
        <ele>236</ele>
        <time>2020-08-25T10:40:57.084Z</time>
      </trkpt>
      <trkpt lat="43.97162" lon="2.23352">
        <ele>236</ele>
        <time>2020-08-25T10:40:58.084Z</time>
      </trkpt>
      <trkpt lat="43.97162" lon="2.23351">
        <ele>236</ele>
        <time>2020-08-25T10:40:59.084Z</time>
      </trkpt>
      <trkpt lat="43.97162" lon="2.2335">
        <ele>237</ele>
        <time>2020-08-25T10:41:00.084Z</time>
      </trkpt>
      <trkpt lat="43.97162" lon="2.23349">
        <ele>237</ele>
        <time>2020-08-25T10:41:01.084Z</time>
      </trkpt>
      <trkpt lat="43.97162" lon="2.23348">
        <ele>237</ele>
        <time>2020-08-25T10:41:02.084Z</time>
      </trkpt>
      <trkpt lat="43.97162" lon="2.23347">
        <ele>237</ele>
        <time>2020-08-25T10:41:03.084Z</time>
      </trkpt>
      <trkpt lat="43.97162" lon="2.23346">
        <ele>237</ele>
        <time>2020-08-25T10:41:04.084Z</time>
      </trkpt>
      <trkpt lat="43.97162" lon="2.23345">
        <ele>238</ele>
        <time>2020-08-25T10:41:05.084Z</time>
      </trkpt>
      <trkpt lat="43.97162" lon="2.23344">
        <ele>238</ele>
        <time>2020-08-25T10:41:06.084Z</time>
      </trkpt>
      <trkpt lat="43.97163" lon="2.23343">
        <ele>238</ele>
        <time>2020-08-25T10:41:07.084Z</time>
      </trkpt>
      <trkpt lat="43.97163" lon="2.23342">
        <ele>238</ele>
        <time>2020-08-25T10:41:08.084Z</time>
      </trkpt>
      <trkpt lat="43.97163" lon="2.23341">
        <ele>238</ele>
        <time>2020-08-25T10:41:09.084Z</time>
      </trkpt>
      <trkpt lat="43.97163" lon="2.23339">
        <ele>238</ele>
        <time>2020-08-25T10:41:10.084Z</time>
      </trkpt>
      <trkpt lat="43.97163" lon="2.23338">
        <ele>238</ele>
        <time>2020-08-25T10:41:11.084Z</time>
      </trkpt>
      <trkpt lat="43.97164" lon="2.23337">
        <ele>238</ele>
        <time>2020-08-25T10:41:12.084Z</time>
      </trkpt>
      <trkpt lat="43.97164" lon="2.23336">
        <ele>238</ele>
        <time>2020-08-25T10:41:13.084Z</time>
      </trkpt>
      <trkpt lat="43.97164" lon="2.23334">
        <ele>238</ele>
        <time>2020-08-25T10:41:14.084Z</time>
      </trkpt>
      <trkpt lat="43.97164" lon="2.23333">
        <ele>238</ele>
        <time>2020-08-25T10:41:15.084Z</time>
      </trkpt>
      <trkpt lat="43.97165" lon="2.23331">
        <ele>238</ele>
        <time>2020-08-25T10:41:16.084Z</time>
      </trkpt>
      <trkpt lat="43.97165" lon="2.2333">
        <ele>239</ele>
        <time>2020-08-25T10:41:17.084Z</time>
      </trkpt>
      <trkpt lat="43.97165" lon="2.23329">
        <ele>239</ele>
        <time>2020-08-25T10:41:18.084Z</time>
      </trkpt>
      <trkpt lat="43.97165" lon="2.23329">
        <ele>239</ele>
        <time>2020-08-25T10:41:19.084Z</time>
      </trkpt>
      <trkpt lat="43.97165" lon="2.23328">
        <ele>239</ele>
        <time>2020-08-25T10:41:20.084Z</time>
      </trkpt>
      <trkpt lat="43.97165" lon="2.23327">
        <ele>239</ele>
        <time>2020-08-25T10:41:21.084Z</time>
      </trkpt>
      <trkpt lat="43.97166" lon="2.23326">
        <ele>239</ele>
        <time>2020-08-25T10:41:22.084Z</time>
      </trkpt>
      <trkpt lat="43.97166" lon="2.23325">
        <ele>239</ele>
        <time>2020-08-25T10:41:23.084Z</time>
      </trkpt>
      <trkpt lat="43.97166" lon="2.23324">
        <ele>239</ele>
        <time>2020-08-25T10:41:24.084Z</time>
      </trkpt>
      <trkpt lat="43.97166" lon="2.23323">
        <ele>239</ele>
        <time>2020-08-25T10:41:25.084Z</time>
      </trkpt>
      <trkpt lat="43.97166" lon="2.23322">
        <ele>239</ele>
        <time>2020-08-25T10:41:26.084Z</time>
      </trkpt>
      <trkpt lat="43.97167" lon="2.23321">
        <ele>240</ele>
        <time>2020-08-25T10:41:27.084Z</time>
      </trkpt>
      <trkpt lat="43.97167" lon="2.2332">
        <ele>240</ele>
        <time>2020-08-25T10:41:28.084Z</time>
      </trkpt>
      <trkpt lat="43.97167" lon="2.23319">
        <ele>240</ele>
        <time>2020-08-25T10:41:29.084Z</time>
      </trkpt>
      <trkpt lat="43.97168" lon="2.23318">
        <ele>240</ele>
        <time>2020-08-25T10:41:30.084Z</time>
      </trkpt>
      <trkpt lat="43.97168" lon="2.23318">
        <ele>240</ele>
        <time>2020-08-25T10:41:31.084Z</time>
      </trkpt>
      <trkpt lat="43.97168" lon="2.23317">
        <ele>240</ele>
        <time>2020-08-25T10:41:32.084Z</time>
      </trkpt>
      <trkpt lat="43.97169" lon="2.23316">
        <ele>240</ele>
        <time>2020-08-25T10:41:33.084Z</time>
      </trkpt>
      <trkpt lat="43.97169" lon="2.23316">
        <ele>240</ele>
        <time>2020-08-25T10:41:34.084Z</time>
      </trkpt>
      <trkpt lat="43.9717" lon="2.23316">
        <ele>241</ele>
        <time>2020-08-25T10:41:35.084Z</time>
      </trkpt>
      <trkpt lat="43.9717" lon="2.23315">
        <ele>241</ele>
        <time>2020-08-25T10:41:36.084Z</time>
      </trkpt>
      <trkpt lat="43.97171" lon="2.23314">
        <ele>241</ele>
        <time>2020-08-25T10:41:37.084Z</time>
      </trkpt>
      <trkpt lat="43.97171" lon="2.23314">
        <ele>241</ele>
        <time>2020-08-25T10:41:38.084Z</time>
      </trkpt>
      <trkpt lat="43.97171" lon="2.23313">
        <ele>241</ele>
        <time>2020-08-25T10:41:39.084Z</time>
      </trkpt>
      <trkpt lat="43.97172" lon="2.23312">
        <ele>241</ele>
        <time>2020-08-25T10:41:40.084Z</time>
      </trkpt>
      <trkpt lat="43.97172" lon="2.23312">
        <ele>241</ele>
        <time>2020-08-25T10:41:41.084Z</time>
      </trkpt>
      <trkpt lat="43.97173" lon="2.23311">
        <ele>241</ele>
        <time>2020-08-25T10:41:42.084Z</time>
      </trkpt>
      <trkpt lat="43.97174" lon="2.23311">
        <ele>241</ele>
        <time>2020-08-25T10:41:43.084Z</time>
      </trkpt>
      <trkpt lat="43.97174" lon="2.2331">
        <ele>242</ele>
        <time>2020-08-25T10:41:44.084Z</time>
      </trkpt>
      <trkpt lat="43.97174" lon="2.23309">
        <ele>242</ele>
        <time>2020-08-25T10:41:45.084Z</time>
      </trkpt>
      <trkpt lat="43.97174" lon="2.23309">
        <ele>242</ele>
        <time>2020-08-25T10:41:46.084Z</time>
      </trkpt>
      <trkpt lat="43.97175" lon="2.23308">
        <ele>242</ele>
        <time>2020-08-25T10:41:47.084Z</time>
      </trkpt>
      <trkpt lat="43.97175" lon="2.23308">
        <ele>242</ele>
        <time>2020-08-25T10:41:48.084Z</time>
      </trkpt>
      <trkpt lat="43.97176" lon="2.23306">
        <ele>243</ele>
        <time>2020-08-25T10:41:51.310Z</time>
      </trkpt>
      <trkpt lat="43.97176" lon="2.23305">
        <ele>243</ele>
        <time>2020-08-25T10:41:52.310Z</time>
      </trkpt>
      <trkpt lat="43.97176" lon="2.23304">
        <ele>243</ele>
        <time>2020-08-25T10:41:53.310Z</time>
      </trkpt>
      <trkpt lat="43.97177" lon="2.23304">
        <ele>243</ele>
        <time>2020-08-25T10:41:54.310Z</time>
      </trkpt>
      <trkpt lat="43.97177" lon="2.23303">
        <ele>243</ele>
        <time>2020-08-25T10:41:55.310Z</time>
      </trkpt>
      <trkpt lat="43.97177" lon="2.23302">
        <ele>243</ele>
        <time>2020-08-25T10:41:56.310Z</time>
      </trkpt>
      <trkpt lat="43.97177" lon="2.23301">
        <ele>244</ele>
        <time>2020-08-25T10:41:57.310Z</time>
      </trkpt>
      <trkpt lat="43.97178" lon="2.23301">
        <ele>244</ele>
        <time>2020-08-25T10:41:58.310Z</time>
      </trkpt>
      <trkpt lat="43.97178" lon="2.233">
        <ele>244</ele>
        <time>2020-08-25T10:41:59.310Z</time>
      </trkpt>
      <trkpt lat="43.97178" lon="2.23299">
        <ele>244</ele>
        <time>2020-08-25T10:42:00.310Z</time>
      </trkpt>
      <trkpt lat="43.97178" lon="2.23298">
        <ele>244</ele>
        <time>2020-08-25T10:42:01.310Z</time>
      </trkpt>
      <trkpt lat="43.97178" lon="2.23298">
        <ele>244</ele>
        <time>2020-08-25T10:42:02.310Z</time>
      </trkpt>
      <trkpt lat="43.97178" lon="2.23298">
        <ele>244</ele>
        <time>2020-08-25T10:42:03.310Z</time>
      </trkpt>
      <trkpt lat="43.97177" lon="2.23294">
        <ele>245</ele>
        <time>2020-08-25T10:42:18.310Z</time>
      </trkpt>
      <trkpt lat="43.97177" lon="2.23293">
        <ele>245</ele>
        <time>2020-08-25T10:42:19.310Z</time>
      </trkpt>
      <trkpt lat="43.97177" lon="2.23292">
        <ele>245</ele>
        <time>2020-08-25T10:42:20.310Z</time>
      </trkpt>
      <trkpt lat="43.97177" lon="2.23291">
        <ele>245</ele>
        <time>2020-08-25T10:42:21.310Z</time>
      </trkpt>
      <trkpt lat="43.97177" lon="2.23291">
        <ele>245</ele>
        <time>2020-08-25T10:42:22.310Z</time>
      </trkpt>
      <trkpt lat="43.97177" lon="2.2329">
        <ele>246</ele>
        <time>2020-08-25T10:42:23.310Z</time>
      </trkpt>
      <trkpt lat="43.97177" lon="2.2329">
        <ele>246</ele>
        <time>2020-08-25T10:42:24.310Z</time>
      </trkpt>
      <trkpt lat="43.97177" lon="2.23287">
        <ele>246</ele>
        <time>2020-08-25T10:42:27.536Z</time>
      </trkpt>
      <trkpt lat="43.97177" lon="2.23287">
        <ele>246</ele>
        <time>2020-08-25T10:42:28.536Z</time>
      </trkpt>
      <trkpt lat="43.97177" lon="2.23285">
        <ele>247</ele>
        <time>2020-08-25T10:42:34.941Z</time>
      </trkpt>
      <trkpt lat="43.97177" lon="2.23284">
        <ele>247</ele>
        <time>2020-08-25T10:42:35.941Z</time>
      </trkpt>
      <trkpt lat="43.97177" lon="2.23283">
        <ele>248</ele>
        <time>2020-08-25T10:42:36.941Z</time>
      </trkpt>
      <trkpt lat="43.97177" lon="2.23282">
        <ele>248</ele>
        <time>2020-08-25T10:42:37.941Z</time>
      </trkpt>
      <trkpt lat="43.97177" lon="2.23282">
        <ele>248</ele>
        <time>2020-08-25T10:42:38.941Z</time>
      </trkpt>
      <trkpt lat="43.97177" lon="2.23282">
        <ele>248</ele>
        <time>2020-08-25T10:42:39.941Z</time>
      </trkpt>
      <trkpt lat="43.97177" lon="2.23282">
        <ele>248</ele>
        <time>2020-08-25T10:42:40.941Z</time>
      </trkpt>
      <trkpt lat="43.97178" lon="2.2328">
        <ele>248</ele>
        <time>2020-08-25T10:42:46.941Z</time>
      </trkpt>
      <trkpt lat="43.97178" lon="2.23279">
        <ele>248</ele>
        <time>2020-08-25T10:42:47.941Z</time>
      </trkpt>
      <trkpt lat="43.97178" lon="2.23278">
        <ele>248</ele>
        <time>2020-08-25T10:42:48.941Z</time>
      </trkpt>
      <trkpt lat="43.97179" lon="2.23277">
        <ele>248</ele>
        <time>2020-08-25T10:42:49.941Z</time>
      </trkpt>
      <trkpt lat="43.97179" lon="2.23276">
        <ele>248</ele>
        <time>2020-08-25T10:42:50.941Z</time>
      </trkpt>
      <trkpt lat="43.97179" lon="2.23275">
        <ele>248</ele>
        <time>2020-08-25T10:42:51.941Z</time>
      </trkpt>
      <trkpt lat="43.9718" lon="2.23274">
        <ele>249</ele>
        <time>2020-08-25T10:42:52.941Z</time>
      </trkpt>
      <trkpt lat="43.9718" lon="2.23272">
        <ele>249</ele>
        <time>2020-08-25T10:42:53.941Z</time>
      </trkpt>
      <trkpt lat="43.9718" lon="2.23271">
        <ele>249</ele>
        <time>2020-08-25T10:42:54.941Z</time>
      </trkpt>
      <trkpt lat="43.9718" lon="2.2327">
        <ele>249</ele>
        <time>2020-08-25T10:42:55.941Z</time>
      </trkpt>
      <trkpt lat="43.97181" lon="2.23269">
        <ele>249</ele>
        <time>2020-08-25T10:42:56.941Z</time>
      </trkpt>
      <trkpt lat="43.97181" lon="2.23268">
        <ele>249</ele>
        <time>2020-08-25T10:42:57.941Z</time>
      </trkpt>
      <trkpt lat="43.97181" lon="2.23266">
        <ele>250</ele>
        <time>2020-08-25T10:42:58.941Z</time>
      </trkpt>
      <trkpt lat="43.97181" lon="2.23265">
        <ele>250</ele>
        <time>2020-08-25T10:42:59.941Z</time>
      </trkpt>
      <trkpt lat="43.97182" lon="2.23264">
        <ele>250</ele>
        <time>2020-08-25T10:43:00.941Z</time>
      </trkpt>
      <trkpt lat="43.97182" lon="2.23263">
        <ele>250</ele>
        <time>2020-08-25T10:43:01.941Z</time>
      </trkpt>
      <trkpt lat="43.97182" lon="2.23263">
        <ele>250</ele>
        <time>2020-08-25T10:43:02.941Z</time>
      </trkpt>
      <trkpt lat="43.97182" lon="2.23263">
        <ele>250</ele>
        <time>2020-08-25T10:43:03.941Z</time>
      </trkpt>
      <trkpt lat="43.97182" lon="2.23263">
        <ele>250</ele>
        <time>2020-08-25T10:43:04.941Z</time>
      </trkpt>
      <trkpt lat="43.97181" lon="2.23263">
        <ele>251</ele>
        <time>2020-08-25T10:43:11.943Z</time>
      </trkpt>
      <trkpt lat="43.9718" lon="2.23263">
        <ele>251</ele>
        <time>2020-08-25T10:43:12.943Z</time>
      </trkpt>
      <trkpt lat="43.97179" lon="2.23263">
        <ele>251</ele>
        <time>2020-08-25T10:43:13.943Z</time>
      </trkpt>
      <trkpt lat="43.97178" lon="2.23264">
        <ele>251</ele>
        <time>2020-08-25T10:43:14.943Z</time>
      </trkpt>
      <trkpt lat="43.97177" lon="2.23264">
        <ele>251</ele>
        <time>2020-08-25T10:43:15.943Z</time>
      </trkpt>
      <trkpt lat="43.97176" lon="2.23264">
        <ele>251</ele>
        <time>2020-08-25T10:43:16.943Z</time>
      </trkpt>
      <trkpt lat="43.97175" lon="2.23264">
        <ele>252</ele>
        <time>2020-08-25T10:43:17.943Z</time>
      </trkpt>
      <trkpt lat="43.97174" lon="2.23264">
        <ele>252</ele>
        <time>2020-08-25T10:43:18.943Z</time>
      </trkpt>
      <trkpt lat="43.97173" lon="2.23264">
        <ele>252</ele>
        <time>2020-08-25T10:43:19.943Z</time>
      </trkpt>
      <trkpt lat="43.97171" lon="2.23264">
        <ele>252</ele>
        <time>2020-08-25T10:43:20.943Z</time>
      </trkpt>
      <trkpt lat="43.9717" lon="2.23263">
        <ele>252</ele>
        <time>2020-08-25T10:43:21.943Z</time>
      </trkpt>
      <trkpt lat="43.9717" lon="2.23263">
        <ele>252</ele>
        <time>2020-08-25T10:43:22.943Z</time>
      </trkpt>
      <trkpt lat="43.97169" lon="2.23263">
        <ele>253</ele>
        <time>2020-08-25T10:43:23.943Z</time>
      </trkpt>
      <trkpt lat="43.97168" lon="2.23263">
        <ele>253</ele>
        <time>2020-08-25T10:43:24.943Z</time>
      </trkpt>
      <trkpt lat="43.97167" lon="2.23263">
        <ele>253</ele>
        <time>2020-08-25T10:43:25.943Z</time>
      </trkpt>
      <trkpt lat="43.97166" lon="2.23263">
        <ele>253</ele>
        <time>2020-08-25T10:43:26.943Z</time>
      </trkpt>
      <trkpt lat="43.97165" lon="2.23263">
        <ele>254</ele>
        <time>2020-08-25T10:43:27.943Z</time>
      </trkpt>
      <trkpt lat="43.97164" lon="2.23263">
        <ele>254</ele>
        <time>2020-08-25T10:43:28.943Z</time>
      </trkpt>
      <trkpt lat="43.97163" lon="2.23263">
        <ele>254</ele>
        <time>2020-08-25T10:43:29.943Z</time>
      </trkpt>
      <trkpt lat="43.97162" lon="2.23263">
        <ele>255</ele>
        <time>2020-08-25T10:43:30.943Z</time>
      </trkpt>
      <trkpt lat="43.97161" lon="2.23263">
        <ele>255</ele>
        <time>2020-08-25T10:43:31.943Z</time>
      </trkpt>
      <trkpt lat="43.97161" lon="2.23263">
        <ele>255</ele>
        <time>2020-08-25T10:43:32.943Z</time>
      </trkpt>
      <trkpt lat="43.9716" lon="2.23263">
        <ele>255</ele>
        <time>2020-08-25T10:43:33.943Z</time>
      </trkpt>
      <trkpt lat="43.97159" lon="2.23263">
        <ele>255</ele>
        <time>2020-08-25T10:43:34.943Z</time>
      </trkpt>
      <trkpt lat="43.97159" lon="2.23262">
        <ele>256</ele>
        <time>2020-08-25T10:43:35.943Z</time>
      </trkpt>
      <trkpt lat="43.97158" lon="2.23262">
        <ele>256</ele>
        <time>2020-08-25T10:43:36.943Z</time>
      </trkpt>
      <trkpt lat="43.97157" lon="2.23262">
        <ele>256</ele>
        <time>2020-08-25T10:43:37.943Z</time>
      </trkpt>
      <trkpt lat="43.97157" lon="2.23262">
        <ele>257</ele>
        <time>2020-08-25T10:43:38.943Z</time>
      </trkpt>
      <trkpt lat="43.97156" lon="2.23262">
        <ele>257</ele>
        <time>2020-08-25T10:43:39.943Z</time>
      </trkpt>
      <trkpt lat="43.97155" lon="2.23262">
        <ele>257</ele>
        <time>2020-08-25T10:43:40.943Z</time>
      </trkpt>
      <trkpt lat="43.97155" lon="2.23261">
        <ele>257</ele>
        <time>2020-08-25T10:43:41.943Z</time>
      </trkpt>
      <trkpt lat="43.97154" lon="2.23261">
        <ele>258</ele>
        <time>2020-08-25T10:43:42.943Z</time>
      </trkpt>
      <trkpt lat="43.97153" lon="2.23261">
        <ele>258</ele>
        <time>2020-08-25T10:43:43.943Z</time>
      </trkpt>
      <trkpt lat="43.97152" lon="2.23261">
        <ele>258</ele>
        <time>2020-08-25T10:43:44.943Z</time>
      </trkpt>
      <trkpt lat="43.97152" lon="2.23261">
        <ele>259</ele>
        <time>2020-08-25T10:43:45.943Z</time>
      </trkpt>
      <trkpt lat="43.97151" lon="2.2326">
        <ele>259</ele>
        <time>2020-08-25T10:43:46.943Z</time>
      </trkpt>
      <trkpt lat="43.9715" lon="2.2326">
        <ele>259</ele>
        <time>2020-08-25T10:43:47.943Z</time>
      </trkpt>
      <trkpt lat="43.9715" lon="2.23259">
        <ele>259</ele>
        <time>2020-08-25T10:43:48.943Z</time>
      </trkpt>
      <trkpt lat="43.97149" lon="2.23259">
        <ele>259</ele>
        <time>2020-08-25T10:43:49.943Z</time>
      </trkpt>
      <trkpt lat="43.97149" lon="2.23259">
        <ele>259</ele>
        <time>2020-08-25T10:43:50.943Z</time>
      </trkpt>
      <trkpt lat="43.97148" lon="2.23258">
        <ele>260</ele>
        <time>2020-08-25T10:43:51.943Z</time>
      </trkpt>
      <trkpt lat="43.97147" lon="2.23257">
        <ele>260</ele>
        <time>2020-08-25T10:43:52.943Z</time>
      </trkpt>
      <trkpt lat="43.97147" lon="2.23256">
        <ele>260</ele>
        <time>2020-08-25T10:43:53.943Z</time>
      </trkpt>
      <trkpt lat="43.97146" lon="2.23255">
        <ele>260</ele>
        <time>2020-08-25T10:43:54.943Z</time>
      </trkpt>
      <trkpt lat="43.97146" lon="2.23254">
        <ele>261</ele>
        <time>2020-08-25T10:43:55.943Z</time>
      </trkpt>
      <trkpt lat="43.97145" lon="2.23254">
        <ele>261</ele>
        <time>2020-08-25T10:43:56.943Z</time>
      </trkpt>
      <trkpt lat="43.97144" lon="2.23253">
        <ele>261</ele>
        <time>2020-08-25T10:43:57.943Z</time>
      </trkpt>
      <trkpt lat="43.97144" lon="2.23252">
        <ele>261</ele>
        <time>2020-08-25T10:43:58.943Z</time>
      </trkpt>
      <trkpt lat="43.97143" lon="2.23251">
        <ele>261</ele>
        <time>2020-08-25T10:43:59.943Z</time>
      </trkpt>
      <trkpt lat="43.97142" lon="2.2325">
        <ele>262</ele>
        <time>2020-08-25T10:44:00.943Z</time>
      </trkpt>
      <trkpt lat="43.97142" lon="2.23249">
        <ele>262</ele>
        <time>2020-08-25T10:44:01.943Z</time>
      </trkpt>
      <trkpt lat="43.97141" lon="2.23248">
        <ele>262</ele>
        <time>2020-08-25T10:44:02.943Z</time>
      </trkpt>
      <trkpt lat="43.97141" lon="2.23247">
        <ele>262</ele>
        <time>2020-08-25T10:44:03.943Z</time>
      </trkpt>
      <trkpt lat="43.9714" lon="2.23246">
        <ele>262</ele>
        <time>2020-08-25T10:44:04.943Z</time>
      </trkpt>
      <trkpt lat="43.9714" lon="2.23245">
        <ele>262</ele>
        <time>2020-08-25T10:44:05.943Z</time>
      </trkpt>
      <trkpt lat="43.97139" lon="2.23244">
        <ele>263</ele>
        <time>2020-08-25T10:44:06.943Z</time>
      </trkpt>
      <trkpt lat="43.97139" lon="2.23243">
        <ele>263</ele>
        <time>2020-08-25T10:44:07.943Z</time>
      </trkpt>
      <trkpt lat="43.97138" lon="2.23242">
        <ele>263</ele>
        <time>2020-08-25T10:44:08.943Z</time>
      </trkpt>
      <trkpt lat="43.97138" lon="2.23241">
        <ele>263</ele>
        <time>2020-08-25T10:44:09.943Z</time>
      </trkpt>
      <trkpt lat="43.97137" lon="2.2324">
        <ele>263</ele>
        <time>2020-08-25T10:44:10.943Z</time>
      </trkpt>
      <trkpt lat="43.97136" lon="2.23239">
        <ele>263</ele>
        <time>2020-08-25T10:44:11.943Z</time>
      </trkpt>
      <trkpt lat="43.97136" lon="2.23237">
        <ele>263</ele>
        <time>2020-08-25T10:44:12.943Z</time>
      </trkpt>
      <trkpt lat="43.97135" lon="2.23236">
        <ele>264</ele>
        <time>2020-08-25T10:44:13.943Z</time>
      </trkpt>
      <trkpt lat="43.97135" lon="2.23235">
        <ele>264</ele>
        <time>2020-08-25T10:44:14.943Z</time>
      </trkpt>
      <trkpt lat="43.97134" lon="2.23234">
        <ele>264</ele>
        <time>2020-08-25T10:44:15.943Z</time>
      </trkpt>
      <trkpt lat="43.97134" lon="2.23232">
        <ele>264</ele>
        <time>2020-08-25T10:44:16.943Z</time>
      </trkpt>
      <trkpt lat="43.97133" lon="2.23231">
        <ele>264</ele>
        <time>2020-08-25T10:44:17.943Z</time>
      </trkpt>
      <trkpt lat="43.97133" lon="2.23229">
        <ele>264</ele>
        <time>2020-08-25T10:44:18.943Z</time>
      </trkpt>
      <trkpt lat="43.97132" lon="2.23228">
        <ele>264</ele>
        <time>2020-08-25T10:44:19.943Z</time>
      </trkpt>
      <trkpt lat="43.97132" lon="2.23227">
        <ele>264</ele>
        <time>2020-08-25T10:44:20.943Z</time>
      </trkpt>
      <trkpt lat="43.97131" lon="2.23226">
        <ele>265</ele>
        <time>2020-08-25T10:44:21.943Z</time>
      </trkpt>
      <trkpt lat="43.9713" lon="2.23225">
        <ele>265</ele>
        <time>2020-08-25T10:44:22.943Z</time>
      </trkpt>
      <trkpt lat="43.9713" lon="2.23223">
        <ele>265</ele>
        <time>2020-08-25T10:44:23.943Z</time>
      </trkpt>
      <trkpt lat="43.97129" lon="2.23222">
        <ele>265</ele>
        <time>2020-08-25T10:44:24.943Z</time>
      </trkpt>
      <trkpt lat="43.97129" lon="2.23221">
        <ele>265</ele>
        <time>2020-08-25T10:44:25.943Z</time>
      </trkpt>
      <trkpt lat="43.97128" lon="2.23219">
        <ele>265</ele>
        <time>2020-08-25T10:44:26.943Z</time>
      </trkpt>
      <trkpt lat="43.97128" lon="2.23218">
        <ele>265</ele>
        <time>2020-08-25T10:44:27.943Z</time>
      </trkpt>
      <trkpt lat="43.97127" lon="2.23216">
        <ele>266</ele>
        <time>2020-08-25T10:44:28.943Z</time>
      </trkpt>
      <trkpt lat="43.97127" lon="2.23215">
        <ele>266</ele>
        <time>2020-08-25T10:44:29.943Z</time>
      </trkpt>
      <trkpt lat="43.97127" lon="2.23214">
        <ele>266</ele>
        <time>2020-08-25T10:44:30.943Z</time>
      </trkpt>
      <trkpt lat="43.97127" lon="2.23212">
        <ele>266</ele>
        <time>2020-08-25T10:44:31.943Z</time>
      </trkpt>
      <trkpt lat="43.97126" lon="2.23211">
        <ele>266</ele>
        <time>2020-08-25T10:44:32.943Z</time>
      </trkpt>
      <trkpt lat="43.97126" lon="2.23209">
        <ele>266</ele>
        <time>2020-08-25T10:44:33.943Z</time>
      </trkpt>
      <trkpt lat="43.97126" lon="2.23208">
        <ele>266</ele>
        <time>2020-08-25T10:44:34.943Z</time>
      </trkpt>
      <trkpt lat="43.97126" lon="2.23206">
        <ele>266</ele>
        <time>2020-08-25T10:44:35.943Z</time>
      </trkpt>
      <trkpt lat="43.97126" lon="2.23205">
        <ele>267</ele>
        <time>2020-08-25T10:44:36.943Z</time>
      </trkpt>
      <trkpt lat="43.97126" lon="2.23203">
        <ele>267</ele>
        <time>2020-08-25T10:44:37.943Z</time>
      </trkpt>
      <trkpt lat="43.97126" lon="2.23202">
        <ele>267</ele>
        <time>2020-08-25T10:44:38.943Z</time>
      </trkpt>
      <trkpt lat="43.97126" lon="2.232">
        <ele>267</ele>
        <time>2020-08-25T10:44:39.943Z</time>
      </trkpt>
      <trkpt lat="43.97126" lon="2.23199">
        <ele>267</ele>
        <time>2020-08-25T10:44:40.943Z</time>
      </trkpt>
      <trkpt lat="43.97126" lon="2.23198">
        <ele>267</ele>
        <time>2020-08-25T10:44:41.943Z</time>
      </trkpt>
      <trkpt lat="43.97126" lon="2.23198">
        <ele>267</ele>
        <time>2020-08-25T10:44:42.943Z</time>
      </trkpt>
      <trkpt lat="43.97126" lon="2.23198">
        <ele>267</ele>
        <time>2020-08-25T10:44:43.943Z</time>
      </trkpt>
      <trkpt lat="43.97126" lon="2.23198">
        <ele>267</ele>
        <time>2020-08-25T10:44:44.943Z</time>
      </trkpt>
      <trkpt lat="43.97126" lon="2.23198">
        <ele>267</ele>
        <time>2020-08-25T10:44:45.943Z</time>
      </trkpt>
      <trkpt lat="43.97127" lon="2.23196">
        <ele>267</ele>
        <time>2020-08-25T10:44:49.169Z</time>
      </trkpt>
      <trkpt lat="43.97127" lon="2.23195">
        <ele>267</ele>
        <time>2020-08-25T10:44:50.169Z</time>
      </trkpt>
      <trkpt lat="43.97127" lon="2.23194">
        <ele>267</ele>
        <time>2020-08-25T10:44:51.169Z</time>
      </trkpt>
      <trkpt lat="43.97128" lon="2.23193">
        <ele>267</ele>
        <time>2020-08-25T10:44:52.169Z</time>
      </trkpt>
      <trkpt lat="43.97128" lon="2.23192">
        <ele>268</ele>
        <time>2020-08-25T10:44:53.169Z</time>
      </trkpt>
      <trkpt lat="43.97129" lon="2.23191">
        <ele>268</ele>
        <time>2020-08-25T10:44:54.169Z</time>
      </trkpt>
      <trkpt lat="43.97129" lon="2.23189">
        <ele>268</ele>
        <time>2020-08-25T10:44:55.169Z</time>
      </trkpt>
      <trkpt lat="43.9713" lon="2.23188">
        <ele>268</ele>
        <time>2020-08-25T10:44:56.169Z</time>
      </trkpt>
      <trkpt lat="43.9713" lon="2.23187">
        <ele>268</ele>
        <time>2020-08-25T10:44:57.169Z</time>
      </trkpt>
      <trkpt lat="43.9713" lon="2.23185">
        <ele>268</ele>
        <time>2020-08-25T10:44:58.169Z</time>
      </trkpt>
      <trkpt lat="43.9713" lon="2.23184">
        <ele>268</ele>
        <time>2020-08-25T10:44:59.169Z</time>
      </trkpt>
      <trkpt lat="43.97131" lon="2.23183">
        <ele>268</ele>
        <time>2020-08-25T10:45:00.169Z</time>
      </trkpt>
      <trkpt lat="43.97131" lon="2.23182">
        <ele>268</ele>
        <time>2020-08-25T10:45:01.169Z</time>
      </trkpt>
      <trkpt lat="43.97131" lon="2.23182">
        <ele>268</ele>
        <time>2020-08-25T10:45:02.169Z</time>
      </trkpt>
      <trkpt lat="43.97131" lon="2.23182">
        <ele>268</ele>
        <time>2020-08-25T10:45:03.169Z</time>
      </trkpt>
      <trkpt lat="43.97132" lon="2.23181">
        <ele>268</ele>
        <time>2020-08-25T10:45:04.169Z</time>
      </trkpt>
      <trkpt lat="43.97132" lon="2.23179">
        <ele>268</ele>
        <time>2020-08-25T10:45:05.169Z</time>
      </trkpt>
      <trkpt lat="43.97133" lon="2.23178">
        <ele>268</ele>
        <time>2020-08-25T10:45:06.169Z</time>
      </trkpt>
      <trkpt lat="43.97133" lon="2.23177">
        <ele>268</ele>
        <time>2020-08-25T10:45:07.169Z</time>
      </trkpt>
      <trkpt lat="43.97133" lon="2.23176">
        <ele>268</ele>
        <time>2020-08-25T10:45:08.169Z</time>
      </trkpt>
      <trkpt lat="43.97133" lon="2.23176">
        <ele>268</ele>
        <time>2020-08-25T10:45:09.169Z</time>
      </trkpt>
      <trkpt lat="43.97133" lon="2.23176">
        <ele>268</ele>
        <time>2020-08-25T10:45:10.169Z</time>
      </trkpt>
      <trkpt lat="43.97133" lon="2.23176">
        <ele>268</ele>
        <time>2020-08-25T10:45:11.169Z</time>
      </trkpt>
      <trkpt lat="43.97132" lon="2.23174">
        <ele>268</ele>
        <time>2020-08-25T10:45:24.173Z</time>
      </trkpt>
      <trkpt lat="43.97132" lon="2.23174">
        <ele>268</ele>
        <time>2020-08-25T10:45:25.173Z</time>
      </trkpt>
      <trkpt lat="43.97133" lon="2.23173">
        <ele>268</ele>
        <time>2020-08-25T10:45:33.176Z</time>
      </trkpt>
      <trkpt lat="43.97133" lon="2.23172">
        <ele>268</ele>
        <time>2020-08-25T10:45:34.176Z</time>
      </trkpt>
      <trkpt lat="43.97133" lon="2.2317">
        <ele>268</ele>
        <time>2020-08-25T10:45:35.176Z</time>
      </trkpt>
      <trkpt lat="43.97134" lon="2.23169">
        <ele>269</ele>
        <time>2020-08-25T10:45:36.176Z</time>
      </trkpt>
      <trkpt lat="43.97134" lon="2.23167">
        <ele>269</ele>
        <time>2020-08-25T10:45:37.176Z</time>
      </trkpt>
      <trkpt lat="43.97135" lon="2.23166">
        <ele>269</ele>
        <time>2020-08-25T10:45:38.176Z</time>
      </trkpt>
      <trkpt lat="43.97135" lon="2.23164">
        <ele>269</ele>
        <time>2020-08-25T10:45:39.176Z</time>
      </trkpt>
      <trkpt lat="43.97136" lon="2.23163">
        <ele>269</ele>
        <time>2020-08-25T10:45:40.176Z</time>
      </trkpt>
      <trkpt lat="43.97136" lon="2.23161">
        <ele>269</ele>
        <time>2020-08-25T10:45:41.176Z</time>
      </trkpt>
      <trkpt lat="43.97137" lon="2.2316">
        <ele>269</ele>
        <time>2020-08-25T10:45:42.176Z</time>
      </trkpt>
      <trkpt lat="43.97137" lon="2.23158">
        <ele>269</ele>
        <time>2020-08-25T10:45:43.176Z</time>
      </trkpt>
      <trkpt lat="43.97138" lon="2.23156">
        <ele>269</ele>
        <time>2020-08-25T10:45:44.176Z</time>
      </trkpt>
      <trkpt lat="43.97138" lon="2.23154">
        <ele>269</ele>
        <time>2020-08-25T10:45:45.176Z</time>
      </trkpt>
      <trkpt lat="43.97139" lon="2.23153">
        <ele>269</ele>
        <time>2020-08-25T10:45:46.176Z</time>
      </trkpt>
      <trkpt lat="43.97139" lon="2.23151">
        <ele>270</ele>
        <time>2020-08-25T10:45:47.176Z</time>
      </trkpt>
      <trkpt lat="43.9714" lon="2.2315">
        <ele>270</ele>
        <time>2020-08-25T10:45:48.176Z</time>
      </trkpt>
      <trkpt lat="43.9714" lon="2.23148">
        <ele>270</ele>
        <time>2020-08-25T10:45:49.176Z</time>
      </trkpt>
      <trkpt lat="43.97141" lon="2.23147">
        <ele>270</ele>
        <time>2020-08-25T10:45:50.176Z</time>
      </trkpt>
      <trkpt lat="43.97142" lon="2.23145">
        <ele>270</ele>
        <time>2020-08-25T10:45:51.176Z</time>
      </trkpt>
      <trkpt lat="43.97142" lon="2.23144">
        <ele>270</ele>
        <time>2020-08-25T10:45:52.176Z</time>
      </trkpt>
      <trkpt lat="43.97143" lon="2.23142">
        <ele>270</ele>
        <time>2020-08-25T10:45:53.176Z</time>
      </trkpt>
      <trkpt lat="43.97143" lon="2.23141">
        <ele>270</ele>
        <time>2020-08-25T10:45:54.176Z</time>
      </trkpt>
      <trkpt lat="43.97143" lon="2.23139">
        <ele>270</ele>
        <time>2020-08-25T10:45:55.176Z</time>
      </trkpt>
      <trkpt lat="43.97144" lon="2.23138">
        <ele>270</ele>
        <time>2020-08-25T10:45:56.176Z</time>
      </trkpt>
      <trkpt lat="43.97145" lon="2.23136">
        <ele>270</ele>
        <time>2020-08-25T10:45:57.176Z</time>
      </trkpt>
      <trkpt lat="43.97145" lon="2.23135">
        <ele>270</ele>
        <time>2020-08-25T10:45:58.176Z</time>
      </trkpt>
      <trkpt lat="43.97145" lon="2.23133">
        <ele>270</ele>
        <time>2020-08-25T10:45:59.176Z</time>
      </trkpt>
      <trkpt lat="43.97146" lon="2.23132">
        <ele>270</ele>
        <time>2020-08-25T10:46:00.176Z</time>
      </trkpt>
      <trkpt lat="43.97146" lon="2.2313">
        <ele>270</ele>
        <time>2020-08-25T10:46:01.176Z</time>
      </trkpt>
      <trkpt lat="43.97147" lon="2.23129">
        <ele>271</ele>
        <time>2020-08-25T10:46:02.176Z</time>
      </trkpt>
      <trkpt lat="43.97148" lon="2.23127">
        <ele>271</ele>
        <time>2020-08-25T10:46:03.176Z</time>
      </trkpt>
      <trkpt lat="43.97148" lon="2.23125">
        <ele>271</ele>
        <time>2020-08-25T10:46:04.176Z</time>
      </trkpt>
      <trkpt lat="43.97148" lon="2.23124">
        <ele>271</ele>
        <time>2020-08-25T10:46:05.176Z</time>
      </trkpt>
      <trkpt lat="43.97149" lon="2.23122">
        <ele>271</ele>
        <time>2020-08-25T10:46:06.176Z</time>
      </trkpt>
      <trkpt lat="43.97149" lon="2.23121">
        <ele>271</ele>
        <time>2020-08-25T10:46:07.176Z</time>
      </trkpt>
      <trkpt lat="43.9715" lon="2.23119">
        <ele>271</ele>
        <time>2020-08-25T10:46:08.176Z</time>
      </trkpt>
      <trkpt lat="43.9715" lon="2.23118">
        <ele>271</ele>
        <time>2020-08-25T10:46:09.176Z</time>
      </trkpt>
      <trkpt lat="43.9715" lon="2.23116">
        <ele>271</ele>
        <time>2020-08-25T10:46:10.176Z</time>
      </trkpt>
      <trkpt lat="43.97151" lon="2.23115">
        <ele>271</ele>
        <time>2020-08-25T10:46:11.176Z</time>
      </trkpt>
      <trkpt lat="43.97151" lon="2.23114">
        <ele>271</ele>
        <time>2020-08-25T10:46:12.176Z</time>
      </trkpt>
      <trkpt lat="43.97152" lon="2.23112">
        <ele>271</ele>
        <time>2020-08-25T10:46:13.176Z</time>
      </trkpt>
      <trkpt lat="43.97152" lon="2.23111">
        <ele>271</ele>
        <time>2020-08-25T10:46:14.176Z</time>
      </trkpt>
      <trkpt lat="43.97152" lon="2.23109">
        <ele>271</ele>
        <time>2020-08-25T10:46:15.176Z</time>
      </trkpt>
      <trkpt lat="43.97153" lon="2.23108">
        <ele>271</ele>
        <time>2020-08-25T10:46:16.176Z</time>
      </trkpt>
      <trkpt lat="43.97153" lon="2.23107">
        <ele>271</ele>
        <time>2020-08-25T10:46:17.176Z</time>
      </trkpt>
      <trkpt lat="43.97153" lon="2.23106">
        <ele>271</ele>
        <time>2020-08-25T10:46:18.176Z</time>
      </trkpt>
      <trkpt lat="43.97154" lon="2.23104">
        <ele>271</ele>
        <time>2020-08-25T10:46:19.176Z</time>
      </trkpt>
      <trkpt lat="43.97154" lon="2.23103">
        <ele>271</ele>
        <time>2020-08-25T10:46:20.176Z</time>
      </trkpt>
      <trkpt lat="43.97154" lon="2.23103">
        <ele>271</ele>
        <time>2020-08-25T10:46:21.176Z</time>
      </trkpt>
      <trkpt lat="43.97154" lon="2.23102">
        <ele>271</ele>
        <time>2020-08-25T10:46:22.176Z</time>
      </trkpt>
      <trkpt lat="43.97154" lon="2.23102">
        <ele>271</ele>
        <time>2020-08-25T10:46:23.176Z</time>
      </trkpt>
      <trkpt lat="43.97155" lon="2.23101">
        <ele>271</ele>
        <time>2020-08-25T10:46:24.176Z</time>
      </trkpt>
      <trkpt lat="43.97155" lon="2.231">
        <ele>271</ele>
        <time>2020-08-25T10:46:25.176Z</time>
      </trkpt>
      <trkpt lat="43.97155" lon="2.23098">
        <ele>271</ele>
        <time>2020-08-25T10:46:26.176Z</time>
      </trkpt>
      <trkpt lat="43.97156" lon="2.23096">
        <ele>271</ele>
        <time>2020-08-25T10:46:27.176Z</time>
      </trkpt>
      <trkpt lat="43.97157" lon="2.23095">
        <ele>271</ele>
        <time>2020-08-25T10:46:28.176Z</time>
      </trkpt>
      <trkpt lat="43.97157" lon="2.23094">
        <ele>272</ele>
        <time>2020-08-25T10:46:29.176Z</time>
      </trkpt>
      <trkpt lat="43.97158" lon="2.23092">
        <ele>272</ele>
        <time>2020-08-25T10:46:30.176Z</time>
      </trkpt>
      <trkpt lat="43.97158" lon="2.23091">
        <ele>272</ele>
        <time>2020-08-25T10:46:31.176Z</time>
      </trkpt>
      <trkpt lat="43.97159" lon="2.23089">
        <ele>272</ele>
        <time>2020-08-25T10:46:32.176Z</time>
      </trkpt>
      <trkpt lat="43.97159" lon="2.23088">
        <ele>272</ele>
        <time>2020-08-25T10:46:33.176Z</time>
      </trkpt>
      <trkpt lat="43.9716" lon="2.23086">
        <ele>272</ele>
        <time>2020-08-25T10:46:34.176Z</time>
      </trkpt>
      <trkpt lat="43.9716" lon="2.23085">
        <ele>272</ele>
        <time>2020-08-25T10:46:35.176Z</time>
      </trkpt>
      <trkpt lat="43.97161" lon="2.23084">
        <ele>273</ele>
        <time>2020-08-25T10:46:36.176Z</time>
      </trkpt>
      <trkpt lat="43.97161" lon="2.23082">
        <ele>273</ele>
        <time>2020-08-25T10:46:37.176Z</time>
      </trkpt>
      <trkpt lat="43.97161" lon="2.23082">
        <ele>273</ele>
        <time>2020-08-25T10:46:38.176Z</time>
      </trkpt>
      <trkpt lat="43.97161" lon="2.23081">
        <ele>273</ele>
        <time>2020-08-25T10:46:39.176Z</time>
      </trkpt>
      <trkpt lat="43.97161" lon="2.23081">
        <ele>273</ele>
        <time>2020-08-25T10:46:40.176Z</time>
      </trkpt>
      <trkpt lat="43.97162" lon="2.2308">
        <ele>273</ele>
        <time>2020-08-25T10:46:41.176Z</time>
      </trkpt>
      <trkpt lat="43.97162" lon="2.23079">
        <ele>273</ele>
        <time>2020-08-25T10:46:42.176Z</time>
      </trkpt>
      <trkpt lat="43.97162" lon="2.23077">
        <ele>273</ele>
        <time>2020-08-25T10:46:43.176Z</time>
      </trkpt>
      <trkpt lat="43.97162" lon="2.23076">
        <ele>274</ele>
        <time>2020-08-25T10:46:44.176Z</time>
      </trkpt>
      <trkpt lat="43.97163" lon="2.23075">
        <ele>274</ele>
        <time>2020-08-25T10:46:45.176Z</time>
      </trkpt>
      <trkpt lat="43.97163" lon="2.23073">
        <ele>274</ele>
        <time>2020-08-25T10:46:46.176Z</time>
      </trkpt>
      <trkpt lat="43.97163" lon="2.23072">
        <ele>274</ele>
        <time>2020-08-25T10:46:47.176Z</time>
      </trkpt>
      <trkpt lat="43.97164" lon="2.23071">
        <ele>274</ele>
        <time>2020-08-25T10:46:48.176Z</time>
      </trkpt>
      <trkpt lat="43.97164" lon="2.2307">
        <ele>275</ele>
        <time>2020-08-25T10:46:49.176Z</time>
      </trkpt>
      <trkpt lat="43.97165" lon="2.23069">
        <ele>275</ele>
        <time>2020-08-25T10:46:50.176Z</time>
      </trkpt>
      <trkpt lat="43.97165" lon="2.23067">
        <ele>275</ele>
        <time>2020-08-25T10:46:51.176Z</time>
      </trkpt>
      <trkpt lat="43.97166" lon="2.23066">
        <ele>275</ele>
        <time>2020-08-25T10:46:52.176Z</time>
      </trkpt>
      <trkpt lat="43.97166" lon="2.23065">
        <ele>275</ele>
        <time>2020-08-25T10:46:53.176Z</time>
      </trkpt>
      <trkpt lat="43.97166" lon="2.23064">
        <ele>275</ele>
        <time>2020-08-25T10:46:54.176Z</time>
      </trkpt>
      <trkpt lat="43.97167" lon="2.23063">
        <ele>276</ele>
        <time>2020-08-25T10:46:55.176Z</time>
      </trkpt>
      <trkpt lat="43.97167" lon="2.23062">
        <ele>276</ele>
        <time>2020-08-25T10:46:56.176Z</time>
      </trkpt>
      <trkpt lat="43.97167" lon="2.23061">
        <ele>276</ele>
        <time>2020-08-25T10:46:57.176Z</time>
      </trkpt>
      <trkpt lat="43.97167" lon="2.2306">
        <ele>276</ele>
        <time>2020-08-25T10:46:58.176Z</time>
      </trkpt>
      <trkpt lat="43.97167" lon="2.23059">
        <ele>276</ele>
        <time>2020-08-25T10:46:59.176Z</time>
      </trkpt>
      <trkpt lat="43.97167" lon="2.23058">
        <ele>276</ele>
        <time>2020-08-25T10:47:00.176Z</time>
      </trkpt>
      <trkpt lat="43.97167" lon="2.23057">
        <ele>276</ele>
        <time>2020-08-25T10:47:01.176Z</time>
      </trkpt>
      <trkpt lat="43.97167" lon="2.23056">
        <ele>276</ele>
        <time>2020-08-25T10:47:02.176Z</time>
      </trkpt>
      <trkpt lat="43.97167" lon="2.23055">
        <ele>277</ele>
        <time>2020-08-25T10:47:03.176Z</time>
      </trkpt>
      <trkpt lat="43.97167" lon="2.23055">
        <ele>277</ele>
        <time>2020-08-25T10:47:04.176Z</time>
      </trkpt>
      <trkpt lat="43.97167" lon="2.23055">
        <ele>277</ele>
        <time>2020-08-25T10:47:05.176Z</time>
      </trkpt>
      <trkpt lat="43.97168" lon="2.23054">
        <ele>277</ele>
        <time>2020-08-25T10:47:06.176Z</time>
      </trkpt>
      <trkpt lat="43.97168" lon="2.23053">
        <ele>277</ele>
        <time>2020-08-25T10:47:07.176Z</time>
      </trkpt>
      <trkpt lat="43.97168" lon="2.23052">
        <ele>277</ele>
        <time>2020-08-25T10:47:08.176Z</time>
      </trkpt>
      <trkpt lat="43.97169" lon="2.23051">
        <ele>277</ele>
        <time>2020-08-25T10:47:09.176Z</time>
      </trkpt>
      <trkpt lat="43.97169" lon="2.2305">
        <ele>278</ele>
        <time>2020-08-25T10:47:10.176Z</time>
      </trkpt>
      <trkpt lat="43.97169" lon="2.23048">
        <ele>278</ele>
        <time>2020-08-25T10:47:11.176Z</time>
      </trkpt>
      <trkpt lat="43.97169" lon="2.23047">
        <ele>278</ele>
        <time>2020-08-25T10:47:12.176Z</time>
      </trkpt>
      <trkpt lat="43.9717" lon="2.23046">
        <ele>278</ele>
        <time>2020-08-25T10:47:13.176Z</time>
      </trkpt>
      <trkpt lat="43.9717" lon="2.23044">
        <ele>278</ele>
        <time>2020-08-25T10:47:14.176Z</time>
      </trkpt>
      <trkpt lat="43.9717" lon="2.23043">
        <ele>278</ele>
        <time>2020-08-25T10:47:15.176Z</time>
      </trkpt>
      <trkpt lat="43.9717" lon="2.23042">
        <ele>278</ele>
        <time>2020-08-25T10:47:16.176Z</time>
      </trkpt>
      <trkpt lat="43.9717" lon="2.2304">
        <ele>278</ele>
        <time>2020-08-25T10:47:17.176Z</time>
      </trkpt>
      <trkpt lat="43.9717" lon="2.23039">
        <ele>279</ele>
        <time>2020-08-25T10:47:18.176Z</time>
      </trkpt>
      <trkpt lat="43.9717" lon="2.23037">
        <ele>279</ele>
        <time>2020-08-25T10:47:19.176Z</time>
      </trkpt>
      <trkpt lat="43.9717" lon="2.23036">
        <ele>279</ele>
        <time>2020-08-25T10:47:20.176Z</time>
      </trkpt>
      <trkpt lat="43.9717" lon="2.23035">
        <ele>279</ele>
        <time>2020-08-25T10:47:21.176Z</time>
      </trkpt>
      <trkpt lat="43.9717" lon="2.23033">
        <ele>279</ele>
        <time>2020-08-25T10:47:22.176Z</time>
      </trkpt>
      <trkpt lat="43.9717" lon="2.23032">
        <ele>279</ele>
        <time>2020-08-25T10:47:23.176Z</time>
      </trkpt>
      <trkpt lat="43.9717" lon="2.2303">
        <ele>279</ele>
        <time>2020-08-25T10:47:24.176Z</time>
      </trkpt>
      <trkpt lat="43.97171" lon="2.23029">
        <ele>279</ele>
        <time>2020-08-25T10:47:25.176Z</time>
      </trkpt>
      <trkpt lat="43.97172" lon="2.23028">
        <ele>279</ele>
        <time>2020-08-25T10:47:26.176Z</time>
      </trkpt>
      <trkpt lat="43.97172" lon="2.23027">
        <ele>279</ele>
        <time>2020-08-25T10:47:27.176Z</time>
      </trkpt>
      <trkpt lat="43.97172" lon="2.23025">
        <ele>279</ele>
        <time>2020-08-25T10:47:28.176Z</time>
      </trkpt>
      <trkpt lat="43.97172" lon="2.23024">
        <ele>279</ele>
        <time>2020-08-25T10:47:29.176Z</time>
      </trkpt>
      <trkpt lat="43.97172" lon="2.23022">
        <ele>279</ele>
        <time>2020-08-25T10:47:30.176Z</time>
      </trkpt>
      <trkpt lat="43.97172" lon="2.23021">
        <ele>280</ele>
        <time>2020-08-25T10:47:31.176Z</time>
      </trkpt>
      <trkpt lat="43.97172" lon="2.2302">
        <ele>280</ele>
        <time>2020-08-25T10:47:32.176Z</time>
      </trkpt>
      <trkpt lat="43.97172" lon="2.23018">
        <ele>280</ele>
        <time>2020-08-25T10:47:33.176Z</time>
      </trkpt>
      <trkpt lat="43.97172" lon="2.23017">
        <ele>280</ele>
        <time>2020-08-25T10:47:34.176Z</time>
      </trkpt>
      <trkpt lat="43.97172" lon="2.23015">
        <ele>280</ele>
        <time>2020-08-25T10:47:35.176Z</time>
      </trkpt>
      <trkpt lat="43.97172" lon="2.23014">
        <ele>280</ele>
        <time>2020-08-25T10:47:36.176Z</time>
      </trkpt>
      <trkpt lat="43.97171" lon="2.23012">
        <ele>280</ele>
        <time>2020-08-25T10:47:37.176Z</time>
      </trkpt>
      <trkpt lat="43.97171" lon="2.23011">
        <ele>280</ele>
        <time>2020-08-25T10:47:38.176Z</time>
      </trkpt>
      <trkpt lat="43.97171" lon="2.2301">
        <ele>280</ele>
        <time>2020-08-25T10:47:39.176Z</time>
      </trkpt>
      <trkpt lat="43.97171" lon="2.23008">
        <ele>280</ele>
        <time>2020-08-25T10:47:40.176Z</time>
      </trkpt>
      <trkpt lat="43.9717" lon="2.23007">
        <ele>280</ele>
        <time>2020-08-25T10:47:41.176Z</time>
      </trkpt>
      <trkpt lat="43.9717" lon="2.23005">
        <ele>280</ele>
        <time>2020-08-25T10:47:42.176Z</time>
      </trkpt>
      <trkpt lat="43.97169" lon="2.23003">
        <ele>280</ele>
        <time>2020-08-25T10:47:43.176Z</time>
      </trkpt>
      <trkpt lat="43.97168" lon="2.23002">
        <ele>280</ele>
        <time>2020-08-25T10:47:44.176Z</time>
      </trkpt>
      <trkpt lat="43.97168" lon="2.23">
        <ele>280</ele>
        <time>2020-08-25T10:47:45.176Z</time>
      </trkpt>
      <trkpt lat="43.97168" lon="2.22999">
        <ele>280</ele>
        <time>2020-08-25T10:47:46.176Z</time>
      </trkpt>
      <trkpt lat="43.97168" lon="2.22997">
        <ele>280</ele>
        <time>2020-08-25T10:47:47.176Z</time>
      </trkpt>
      <trkpt lat="43.97167" lon="2.22996">
        <ele>280</ele>
        <time>2020-08-25T10:47:48.176Z</time>
      </trkpt>
      <trkpt lat="43.97167" lon="2.22994">
        <ele>281</ele>
        <time>2020-08-25T10:47:49.176Z</time>
      </trkpt>
      <trkpt lat="43.97167" lon="2.22993">
        <ele>281</ele>
        <time>2020-08-25T10:47:50.176Z</time>
      </trkpt>
      <trkpt lat="43.97167" lon="2.22991">
        <ele>281</ele>
        <time>2020-08-25T10:47:51.176Z</time>
      </trkpt>
      <trkpt lat="43.97167" lon="2.2299">
        <ele>281</ele>
        <time>2020-08-25T10:47:52.176Z</time>
      </trkpt>
      <trkpt lat="43.97167" lon="2.22989">
        <ele>281</ele>
        <time>2020-08-25T10:47:53.176Z</time>
      </trkpt>
      <trkpt lat="43.97166" lon="2.22987">
        <ele>281</ele>
        <time>2020-08-25T10:47:54.176Z</time>
      </trkpt>
      <trkpt lat="43.97166" lon="2.22986">
        <ele>281</ele>
        <time>2020-08-25T10:47:55.176Z</time>
      </trkpt>
      <trkpt lat="43.97166" lon="2.22984">
        <ele>281</ele>
        <time>2020-08-25T10:47:56.176Z</time>
      </trkpt>
      <trkpt lat="43.97166" lon="2.22982">
        <ele>281</ele>
        <time>2020-08-25T10:47:57.176Z</time>
      </trkpt>
      <trkpt lat="43.97166" lon="2.22981">
        <ele>281</ele>
        <time>2020-08-25T10:47:58.176Z</time>
      </trkpt>
      <trkpt lat="43.97166" lon="2.22979">
        <ele>281</ele>
        <time>2020-08-25T10:47:59.176Z</time>
      </trkpt>
      <trkpt lat="43.97166" lon="2.22978">
        <ele>281</ele>
        <time>2020-08-25T10:48:00.176Z</time>
      </trkpt>
      <trkpt lat="43.97166" lon="2.22976">
        <ele>281</ele>
        <time>2020-08-25T10:48:01.176Z</time>
      </trkpt>
      <trkpt lat="43.97167" lon="2.22975">
        <ele>281</ele>
        <time>2020-08-25T10:48:02.176Z</time>
      </trkpt>
      <trkpt lat="43.97167" lon="2.22973">
        <ele>281</ele>
        <time>2020-08-25T10:48:03.176Z</time>
      </trkpt>
      <trkpt lat="43.97167" lon="2.22971">
        <ele>280</ele>
        <time>2020-08-25T10:48:04.176Z</time>
      </trkpt>
      <trkpt lat="43.97167" lon="2.22969">
        <ele>280</ele>
        <time>2020-08-25T10:48:05.176Z</time>
      </trkpt>
      <trkpt lat="43.97167" lon="2.22967">
        <ele>280</ele>
        <time>2020-08-25T10:48:06.176Z</time>
      </trkpt>
      <trkpt lat="43.97167" lon="2.22966">
        <ele>280</ele>
        <time>2020-08-25T10:48:07.176Z</time>
      </trkpt>
      <trkpt lat="43.97167" lon="2.22964">
        <ele>280</ele>
        <time>2020-08-25T10:48:08.176Z</time>
      </trkpt>
      <trkpt lat="43.97167" lon="2.22962">
        <ele>280</ele>
        <time>2020-08-25T10:48:09.176Z</time>
      </trkpt>
      <trkpt lat="43.97166" lon="2.22961">
        <ele>280</ele>
        <time>2020-08-25T10:48:10.176Z</time>
      </trkpt>
      <trkpt lat="43.97166" lon="2.22959">
        <ele>280</ele>
        <time>2020-08-25T10:48:11.176Z</time>
      </trkpt>
      <trkpt lat="43.97166" lon="2.22957">
        <ele>280</ele>
        <time>2020-08-25T10:48:12.176Z</time>
      </trkpt>
      <trkpt lat="43.97166" lon="2.22955">
        <ele>280</ele>
        <time>2020-08-25T10:48:13.176Z</time>
      </trkpt>
      <trkpt lat="43.97165" lon="2.22954">
        <ele>280</ele>
        <time>2020-08-25T10:48:14.176Z</time>
      </trkpt>
      <trkpt lat="43.97165" lon="2.22952">
        <ele>280</ele>
        <time>2020-08-25T10:48:15.176Z</time>
      </trkpt>
      <trkpt lat="43.97166" lon="2.22951">
        <ele>280</ele>
        <time>2020-08-25T10:48:16.176Z</time>
      </trkpt>
      <trkpt lat="43.97166" lon="2.2295">
        <ele>280</ele>
        <time>2020-08-25T10:48:17.176Z</time>
      </trkpt>
      <trkpt lat="43.97166" lon="2.2295">
        <ele>280</ele>
        <time>2020-08-25T10:48:18.176Z</time>
      </trkpt>
      <trkpt lat="43.97166" lon="2.2295">
        <ele>279</ele>
        <time>2020-08-25T10:48:19.176Z</time>
      </trkpt>
      <trkpt lat="43.97166" lon="2.2295">
        <ele>279</ele>
        <time>2020-08-25T10:48:20.176Z</time>
      </trkpt>
      <trkpt lat="43.97166" lon="2.22949">
        <ele>279</ele>
        <time>2020-08-25T10:48:21.176Z</time>
      </trkpt>
      <trkpt lat="43.97165" lon="2.22948">
        <ele>279</ele>
        <time>2020-08-25T10:48:53.281Z</time>
      </trkpt>
      <trkpt lat="43.97164" lon="2.22947">
        <ele>279</ele>
        <time>2020-08-25T10:48:54.281Z</time>
      </trkpt>
      <trkpt lat="43.97163" lon="2.22945">
        <ele>279</ele>
        <time>2020-08-25T10:48:55.281Z</time>
      </trkpt>
      <trkpt lat="43.97163" lon="2.22944">
        <ele>279</ele>
        <time>2020-08-25T10:48:56.281Z</time>
      </trkpt>
      <trkpt lat="43.97162" lon="2.22943">
        <ele>279</ele>
        <time>2020-08-25T10:48:57.281Z</time>
      </trkpt>
      <trkpt lat="43.97162" lon="2.22942">
        <ele>279</ele>
        <time>2020-08-25T10:48:58.281Z</time>
      </trkpt>
      <trkpt lat="43.97162" lon="2.2294">
        <ele>278</ele>
        <time>2020-08-25T10:48:59.281Z</time>
      </trkpt>
      <trkpt lat="43.97162" lon="2.22939">
        <ele>278</ele>
        <time>2020-08-25T10:49:00.281Z</time>
      </trkpt>
      <trkpt lat="43.97161" lon="2.22937">
        <ele>278</ele>
        <time>2020-08-25T10:49:01.281Z</time>
      </trkpt>
      <trkpt lat="43.97162" lon="2.22935">
        <ele>278</ele>
        <time>2020-08-25T10:49:02.281Z</time>
      </trkpt>
      <trkpt lat="43.97162" lon="2.22934">
        <ele>278</ele>
        <time>2020-08-25T10:49:03.281Z</time>
      </trkpt>
      <trkpt lat="43.97162" lon="2.22932">
        <ele>278</ele>
        <time>2020-08-25T10:49:04.281Z</time>
      </trkpt>
      <trkpt lat="43.97162" lon="2.2293">
        <ele>278</ele>
        <time>2020-08-25T10:49:05.281Z</time>
      </trkpt>
      <trkpt lat="43.97161" lon="2.22929">
        <ele>278</ele>
        <time>2020-08-25T10:49:06.281Z</time>
      </trkpt>
      <trkpt lat="43.9716" lon="2.22927">
        <ele>278</ele>
        <time>2020-08-25T10:49:07.281Z</time>
      </trkpt>
      <trkpt lat="43.9716" lon="2.22925">
        <ele>278</ele>
        <time>2020-08-25T10:49:08.281Z</time>
      </trkpt>
      <trkpt lat="43.97159" lon="2.22923">
        <ele>278</ele>
        <time>2020-08-25T10:49:09.281Z</time>
      </trkpt>
      <trkpt lat="43.97158" lon="2.22921">
        <ele>279</ele>
        <time>2020-08-25T10:49:10.281Z</time>
      </trkpt>
      <trkpt lat="43.97157" lon="2.2292">
        <ele>279</ele>
        <time>2020-08-25T10:49:11.281Z</time>
      </trkpt>
      <trkpt lat="43.97156" lon="2.22918">
        <ele>279</ele>
        <time>2020-08-25T10:49:12.281Z</time>
      </trkpt>
      <trkpt lat="43.97156" lon="2.22917">
        <ele>279</ele>
        <time>2020-08-25T10:49:13.281Z</time>
      </trkpt>
      <trkpt lat="43.97155" lon="2.22916">
        <ele>279</ele>
        <time>2020-08-25T10:49:14.281Z</time>
      </trkpt>
      <trkpt lat="43.97154" lon="2.22915">
        <ele>279</ele>
        <time>2020-08-25T10:49:15.281Z</time>
      </trkpt>
      <trkpt lat="43.97153" lon="2.22914">
        <ele>279</ele>
        <time>2020-08-25T10:49:16.281Z</time>
      </trkpt>
      <trkpt lat="43.97152" lon="2.22913">
        <ele>279</ele>
        <time>2020-08-25T10:49:17.281Z</time>
      </trkpt>
      <trkpt lat="43.97151" lon="2.22911">
        <ele>279</ele>
        <time>2020-08-25T10:49:18.281Z</time>
      </trkpt>
      <trkpt lat="43.9715" lon="2.2291">
        <ele>279</ele>
        <time>2020-08-25T10:49:19.281Z</time>
      </trkpt>
      <trkpt lat="43.97149" lon="2.22909">
        <ele>279</ele>
        <time>2020-08-25T10:49:20.281Z</time>
      </trkpt>
      <trkpt lat="43.97148" lon="2.22908">
        <ele>279</ele>
        <time>2020-08-25T10:49:21.281Z</time>
      </trkpt>
      <trkpt lat="43.97147" lon="2.22907">
        <ele>279</ele>
        <time>2020-08-25T10:49:22.281Z</time>
      </trkpt>
      <trkpt lat="43.97146" lon="2.22905">
        <ele>279</ele>
        <time>2020-08-25T10:49:23.281Z</time>
      </trkpt>
      <trkpt lat="43.97145" lon="2.22904">
        <ele>279</ele>
        <time>2020-08-25T10:49:24.281Z</time>
      </trkpt>
      <trkpt lat="43.97145" lon="2.22903">
        <ele>279</ele>
        <time>2020-08-25T10:49:25.281Z</time>
      </trkpt>
      <trkpt lat="43.97144" lon="2.22902">
        <ele>279</ele>
        <time>2020-08-25T10:49:26.281Z</time>
      </trkpt>
      <trkpt lat="43.97143" lon="2.22902">
        <ele>279</ele>
        <time>2020-08-25T10:49:27.281Z</time>
      </trkpt>
      <trkpt lat="43.97142" lon="2.22901">
        <ele>279</ele>
        <time>2020-08-25T10:49:28.281Z</time>
      </trkpt>
      <trkpt lat="43.97141" lon="2.22901">
        <ele>279</ele>
        <time>2020-08-25T10:49:29.281Z</time>
      </trkpt>
      <trkpt lat="43.9714" lon="2.229">
        <ele>279</ele>
        <time>2020-08-25T10:49:30.281Z</time>
      </trkpt>
      <trkpt lat="43.97139" lon="2.22899">
        <ele>278</ele>
        <time>2020-08-25T10:49:31.281Z</time>
      </trkpt>
      <trkpt lat="43.97137" lon="2.22899">
        <ele>278</ele>
        <time>2020-08-25T10:49:32.281Z</time>
      </trkpt>
      <trkpt lat="43.97136" lon="2.22898">
        <ele>278</ele>
        <time>2020-08-25T10:49:33.281Z</time>
      </trkpt>
      <trkpt lat="43.97135" lon="2.22897">
        <ele>278</ele>
        <time>2020-08-25T10:49:34.281Z</time>
      </trkpt>
      <trkpt lat="43.97134" lon="2.22896">
        <ele>278</ele>
        <time>2020-08-25T10:49:35.281Z</time>
      </trkpt>
      <trkpt lat="43.97133" lon="2.22896">
        <ele>278</ele>
        <time>2020-08-25T10:49:36.281Z</time>
      </trkpt>
      <trkpt lat="43.97132" lon="2.22895">
        <ele>278</ele>
        <time>2020-08-25T10:49:37.281Z</time>
      </trkpt>
      <trkpt lat="43.97131" lon="2.22894">
        <ele>278</ele>
        <time>2020-08-25T10:49:38.281Z</time>
      </trkpt>
      <trkpt lat="43.97129" lon="2.22893">
        <ele>278</ele>
        <time>2020-08-25T10:49:39.281Z</time>
      </trkpt>
      <trkpt lat="43.97129" lon="2.22892">
        <ele>278</ele>
        <time>2020-08-25T10:49:40.281Z</time>
      </trkpt>
      <trkpt lat="43.97128" lon="2.22891">
        <ele>278</ele>
        <time>2020-08-25T10:49:41.281Z</time>
      </trkpt>
      <trkpt lat="43.97126" lon="2.2289">
        <ele>278</ele>
        <time>2020-08-25T10:49:42.281Z</time>
      </trkpt>
      <trkpt lat="43.97125" lon="2.22889">
        <ele>277</ele>
        <time>2020-08-25T10:49:43.281Z</time>
      </trkpt>
      <trkpt lat="43.97124" lon="2.22888">
        <ele>277</ele>
        <time>2020-08-25T10:49:44.281Z</time>
      </trkpt>
      <trkpt lat="43.97123" lon="2.22887">
        <ele>277</ele>
        <time>2020-08-25T10:49:45.281Z</time>
      </trkpt>
      <trkpt lat="43.97122" lon="2.22887">
        <ele>277</ele>
        <time>2020-08-25T10:49:46.281Z</time>
      </trkpt>
      <trkpt lat="43.97121" lon="2.22887">
        <ele>278</ele>
        <time>2020-08-25T10:49:47.281Z</time>
      </trkpt>
      <trkpt lat="43.9712" lon="2.22886">
        <ele>278</ele>
        <time>2020-08-25T10:49:48.281Z</time>
      </trkpt>
      <trkpt lat="43.9712" lon="2.22886">
        <ele>278</ele>
        <time>2020-08-25T10:49:49.281Z</time>
      </trkpt>
      <trkpt lat="43.97119" lon="2.22885">
        <ele>278</ele>
        <time>2020-08-25T10:49:50.281Z</time>
      </trkpt>
      <trkpt lat="43.97118" lon="2.22884">
        <ele>278</ele>
        <time>2020-08-25T10:49:51.281Z</time>
      </trkpt>
      <trkpt lat="43.97117" lon="2.22882">
        <ele>278</ele>
        <time>2020-08-25T10:49:52.281Z</time>
      </trkpt>
      <trkpt lat="43.97116" lon="2.22881">
        <ele>278</ele>
        <time>2020-08-25T10:49:53.281Z</time>
      </trkpt>
      <trkpt lat="43.97114" lon="2.2288">
        <ele>278</ele>
        <time>2020-08-25T10:49:54.281Z</time>
      </trkpt>
      <trkpt lat="43.97113" lon="2.22879">
        <ele>278</ele>
        <time>2020-08-25T10:49:55.281Z</time>
      </trkpt>
      <trkpt lat="43.97112" lon="2.22879">
        <ele>278</ele>
        <time>2020-08-25T10:49:56.281Z</time>
      </trkpt>
      <trkpt lat="43.97111" lon="2.22878">
        <ele>278</ele>
        <time>2020-08-25T10:49:57.281Z</time>
      </trkpt>
      <trkpt lat="43.9711" lon="2.22876">
        <ele>278</ele>
        <time>2020-08-25T10:49:58.281Z</time>
      </trkpt>
      <trkpt lat="43.97109" lon="2.22875">
        <ele>278</ele>
        <time>2020-08-25T10:49:59.281Z</time>
      </trkpt>
      <trkpt lat="43.97108" lon="2.22873">
        <ele>278</ele>
        <time>2020-08-25T10:50:00.281Z</time>
      </trkpt>
      <trkpt lat="43.97107" lon="2.2287">
        <ele>278</ele>
        <time>2020-08-25T10:50:01.281Z</time>
      </trkpt>
      <trkpt lat="43.97105" lon="2.22867">
        <ele>278</ele>
        <time>2020-08-25T10:50:02.281Z</time>
      </trkpt>
      <trkpt lat="43.97104" lon="2.22864">
        <ele>278</ele>
        <time>2020-08-25T10:50:03.281Z</time>
      </trkpt>
      <trkpt lat="43.97103" lon="2.22863">
        <ele>278</ele>
        <time>2020-08-25T10:50:04.281Z</time>
      </trkpt>
      <trkpt lat="43.97102" lon="2.22862">
        <ele>278</ele>
        <time>2020-08-25T10:50:05.281Z</time>
      </trkpt>
      <trkpt lat="43.97102" lon="2.22862">
        <ele>278</ele>
        <time>2020-08-25T10:50:06.281Z</time>
      </trkpt>
      <trkpt lat="43.97101" lon="2.22861">
        <ele>278</ele>
        <time>2020-08-25T10:50:07.281Z</time>
      </trkpt>
      <trkpt lat="43.97101" lon="2.22861">
        <ele>278</ele>
        <time>2020-08-25T10:50:08.281Z</time>
      </trkpt>
      <trkpt lat="43.971" lon="2.22859">
        <ele>278</ele>
        <time>2020-08-25T10:50:09.281Z</time>
      </trkpt>
      <trkpt lat="43.97099" lon="2.22857">
        <ele>278</ele>
        <time>2020-08-25T10:50:10.281Z</time>
      </trkpt>
      <trkpt lat="43.97099" lon="2.22854">
        <ele>278</ele>
        <time>2020-08-25T10:50:11.281Z</time>
      </trkpt>
      <trkpt lat="43.97097" lon="2.22851">
        <ele>278</ele>
        <time>2020-08-25T10:50:12.281Z</time>
      </trkpt>
      <trkpt lat="43.97096" lon="2.22849">
        <ele>278</ele>
        <time>2020-08-25T10:50:13.281Z</time>
      </trkpt>
      <trkpt lat="43.97095" lon="2.22847">
        <ele>278</ele>
        <time>2020-08-25T10:50:14.281Z</time>
      </trkpt>
      <trkpt lat="43.97094" lon="2.22844">
        <ele>278</ele>
        <time>2020-08-25T10:50:15.281Z</time>
      </trkpt>
      <trkpt lat="43.97094" lon="2.22842">
        <ele>278</ele>
        <time>2020-08-25T10:50:16.281Z</time>
      </trkpt>
      <trkpt lat="43.97093" lon="2.2284">
        <ele>278</ele>
        <time>2020-08-25T10:50:17.281Z</time>
      </trkpt>
      <trkpt lat="43.97093" lon="2.2284">
        <ele>278</ele>
        <time>2020-08-25T10:50:18.281Z</time>
      </trkpt>
      <trkpt lat="43.97092" lon="2.2284">
        <ele>278</ele>
        <time>2020-08-25T10:50:19.281Z</time>
      </trkpt>
      <trkpt lat="43.97092" lon="2.22839">
        <ele>278</ele>
        <time>2020-08-25T10:50:20.281Z</time>
      </trkpt>
      <trkpt lat="43.97092" lon="2.22838">
        <ele>278</ele>
        <time>2020-08-25T10:50:21.281Z</time>
      </trkpt>
      <trkpt lat="43.97091" lon="2.22837">
        <ele>278</ele>
        <time>2020-08-25T10:50:22.281Z</time>
      </trkpt>
      <trkpt lat="43.97091" lon="2.22836">
        <ele>278</ele>
        <time>2020-08-25T10:50:23.281Z</time>
      </trkpt>
      <trkpt lat="43.9709" lon="2.22834">
        <ele>278</ele>
        <time>2020-08-25T10:50:24.281Z</time>
      </trkpt>
      <trkpt lat="43.97089" lon="2.22832">
        <ele>278</ele>
        <time>2020-08-25T10:50:25.281Z</time>
      </trkpt>
      <trkpt lat="43.97088" lon="2.22831">
        <ele>278</ele>
        <time>2020-08-25T10:50:26.281Z</time>
      </trkpt>
      <trkpt lat="43.97088" lon="2.22829">
        <ele>278</ele>
        <time>2020-08-25T10:50:27.281Z</time>
      </trkpt>
      <trkpt lat="43.97087" lon="2.22828">
        <ele>277</ele>
        <time>2020-08-25T10:50:28.281Z</time>
      </trkpt>
      <trkpt lat="43.97087" lon="2.22826">
        <ele>277</ele>
        <time>2020-08-25T10:50:29.281Z</time>
      </trkpt>
      <trkpt lat="43.97086" lon="2.22825">
        <ele>277</ele>
        <time>2020-08-25T10:50:30.281Z</time>
      </trkpt>
      <trkpt lat="43.97085" lon="2.22824">
        <ele>277</ele>
        <time>2020-08-25T10:50:31.281Z</time>
      </trkpt>
      <trkpt lat="43.97084" lon="2.22822">
        <ele>277</ele>
        <time>2020-08-25T10:50:32.281Z</time>
      </trkpt>
      <trkpt lat="43.97084" lon="2.22821">
        <ele>276</ele>
        <time>2020-08-25T10:50:33.281Z</time>
      </trkpt>
      <trkpt lat="43.97083" lon="2.22819">
        <ele>276</ele>
        <time>2020-08-25T10:50:34.281Z</time>
      </trkpt>
      <trkpt lat="43.97083" lon="2.22817">
        <ele>276</ele>
        <time>2020-08-25T10:50:35.281Z</time>
      </trkpt>
      <trkpt lat="43.97083" lon="2.22815">
        <ele>276</ele>
        <time>2020-08-25T10:50:36.281Z</time>
      </trkpt>
      <trkpt lat="43.97083" lon="2.22813">
        <ele>276</ele>
        <time>2020-08-25T10:50:37.281Z</time>
      </trkpt>
      <trkpt lat="43.97082" lon="2.22811">
        <ele>276</ele>
        <time>2020-08-25T10:50:38.281Z</time>
      </trkpt>
      <trkpt lat="43.97081" lon="2.22809">
        <ele>276</ele>
        <time>2020-08-25T10:50:39.281Z</time>
      </trkpt>
      <trkpt lat="43.9708" lon="2.22807">
        <ele>276</ele>
        <time>2020-08-25T10:50:40.281Z</time>
      </trkpt>
      <trkpt lat="43.97079" lon="2.22805">
        <ele>276</ele>
        <time>2020-08-25T10:50:41.281Z</time>
      </trkpt>
      <trkpt lat="43.97079" lon="2.22804">
        <ele>276</ele>
        <time>2020-08-25T10:50:42.281Z</time>
      </trkpt>
      <trkpt lat="43.97078" lon="2.22801">
        <ele>276</ele>
        <time>2020-08-25T10:50:43.281Z</time>
      </trkpt>
      <trkpt lat="43.97077" lon="2.22799">
        <ele>276</ele>
        <time>2020-08-25T10:50:44.281Z</time>
      </trkpt>
      <trkpt lat="43.97077" lon="2.22797">
        <ele>276</ele>
        <time>2020-08-25T10:50:45.281Z</time>
      </trkpt>
      <trkpt lat="43.97076" lon="2.22796">
        <ele>276</ele>
        <time>2020-08-25T10:50:46.281Z</time>
      </trkpt>
      <trkpt lat="43.97076" lon="2.22795">
        <ele>276</ele>
        <time>2020-08-25T10:50:47.281Z</time>
      </trkpt>
      <trkpt lat="43.97076" lon="2.22794">
        <ele>276</ele>
        <time>2020-08-25T10:50:48.281Z</time>
      </trkpt>
      <trkpt lat="43.97075" lon="2.22791">
        <ele>276</ele>
        <time>2020-08-25T10:50:49.281Z</time>
      </trkpt>
      <trkpt lat="43.97075" lon="2.22788">
        <ele>276</ele>
        <time>2020-08-25T10:50:50.281Z</time>
      </trkpt>
      <trkpt lat="43.97074" lon="2.22786">
        <ele>276</ele>
        <time>2020-08-25T10:50:51.281Z</time>
      </trkpt>
      <trkpt lat="43.97073" lon="2.22783">
        <ele>276</ele>
        <time>2020-08-25T10:50:52.281Z</time>
      </trkpt>
      <trkpt lat="43.97072" lon="2.22781">
        <ele>276</ele>
        <time>2020-08-25T10:50:53.281Z</time>
      </trkpt>
      <trkpt lat="43.97071" lon="2.22779">
        <ele>276</ele>
        <time>2020-08-25T10:50:54.281Z</time>
      </trkpt>
      <trkpt lat="43.97071" lon="2.22778">
        <ele>276</ele>
        <time>2020-08-25T10:50:55.281Z</time>
      </trkpt>
      <trkpt lat="43.9707" lon="2.22777">
        <ele>276</ele>
        <time>2020-08-25T10:50:56.281Z</time>
      </trkpt>
      <trkpt lat="43.9707" lon="2.22777">
        <ele>276</ele>
        <time>2020-08-25T10:50:57.281Z</time>
      </trkpt>
      <trkpt lat="43.97069" lon="2.22777">
        <ele>275</ele>
        <time>2020-08-25T10:50:58.281Z</time>
      </trkpt>
      <trkpt lat="43.97068" lon="2.22776">
        <ele>275</ele>
        <time>2020-08-25T10:50:59.281Z</time>
      </trkpt>
      <trkpt lat="43.97068" lon="2.22775">
        <ele>275</ele>
        <time>2020-08-25T10:51:00.281Z</time>
      </trkpt>
      <trkpt lat="43.97067" lon="2.22773">
        <ele>275</ele>
        <time>2020-08-25T10:51:01.281Z</time>
      </trkpt>
      <trkpt lat="43.97066" lon="2.22771">
        <ele>275</ele>
        <time>2020-08-25T10:51:02.281Z</time>
      </trkpt>
      <trkpt lat="43.97065" lon="2.22769">
        <ele>275</ele>
        <time>2020-08-25T10:51:03.281Z</time>
      </trkpt>
      <trkpt lat="43.97064" lon="2.22767">
        <ele>275</ele>
        <time>2020-08-25T10:51:04.281Z</time>
      </trkpt>
      <trkpt lat="43.97063" lon="2.22766">
        <ele>275</ele>
        <time>2020-08-25T10:51:05.281Z</time>
      </trkpt>
      <trkpt lat="43.97063" lon="2.22764">
        <ele>275</ele>
        <time>2020-08-25T10:51:06.281Z</time>
      </trkpt>
      <trkpt lat="43.97062" lon="2.22762">
        <ele>274</ele>
        <time>2020-08-25T10:51:07.281Z</time>
      </trkpt>
      <trkpt lat="43.97061" lon="2.22761">
        <ele>274</ele>
        <time>2020-08-25T10:51:08.281Z</time>
      </trkpt>
      <trkpt lat="43.9706" lon="2.2276">
        <ele>274</ele>
        <time>2020-08-25T10:51:09.281Z</time>
      </trkpt>
      <trkpt lat="43.97059" lon="2.22758">
        <ele>274</ele>
        <time>2020-08-25T10:51:10.281Z</time>
      </trkpt>
      <trkpt lat="43.97059" lon="2.22757">
        <ele>274</ele>
        <time>2020-08-25T10:51:11.281Z</time>
      </trkpt>
      <trkpt lat="43.97058" lon="2.22756">
        <ele>274</ele>
        <time>2020-08-25T10:51:12.281Z</time>
      </trkpt>
      <trkpt lat="43.97058" lon="2.22754">
        <ele>274</ele>
        <time>2020-08-25T10:51:13.281Z</time>
      </trkpt>
      <trkpt lat="43.97058" lon="2.22753">
        <ele>274</ele>
        <time>2020-08-25T10:51:14.281Z</time>
      </trkpt>
      <trkpt lat="43.97057" lon="2.22751">
        <ele>274</ele>
        <time>2020-08-25T10:51:15.281Z</time>
      </trkpt>
      <trkpt lat="43.97056" lon="2.22749">
        <ele>274</ele>
        <time>2020-08-25T10:51:16.281Z</time>
      </trkpt>
      <trkpt lat="43.97055" lon="2.22748">
        <ele>273</ele>
        <time>2020-08-25T10:51:17.281Z</time>
      </trkpt>
      <trkpt lat="43.97054" lon="2.22746">
        <ele>273</ele>
        <time>2020-08-25T10:51:18.281Z</time>
      </trkpt>
      <trkpt lat="43.97053" lon="2.22745">
        <ele>273</ele>
        <time>2020-08-25T10:51:19.281Z</time>
      </trkpt>
      <trkpt lat="43.97052" lon="2.22744">
        <ele>273</ele>
        <time>2020-08-25T10:51:20.281Z</time>
      </trkpt>
      <trkpt lat="43.97051" lon="2.22744">
        <ele>273</ele>
        <time>2020-08-25T10:51:21.281Z</time>
      </trkpt>
      <trkpt lat="43.97051" lon="2.22743">
        <ele>272</ele>
        <time>2020-08-25T10:51:22.281Z</time>
      </trkpt>
      <trkpt lat="43.9705" lon="2.22743">
        <ele>272</ele>
        <time>2020-08-25T10:51:23.281Z</time>
      </trkpt>
      <trkpt lat="43.97049" lon="2.22742">
        <ele>272</ele>
        <time>2020-08-25T10:51:24.281Z</time>
      </trkpt>
      <trkpt lat="43.97048" lon="2.22741">
        <ele>272</ele>
        <time>2020-08-25T10:51:25.281Z</time>
      </trkpt>
      <trkpt lat="43.97047" lon="2.22739">
        <ele>272</ele>
        <time>2020-08-25T10:51:26.281Z</time>
      </trkpt>
      <trkpt lat="43.97046" lon="2.22738">
        <ele>272</ele>
        <time>2020-08-25T10:51:27.281Z</time>
      </trkpt>
      <trkpt lat="43.97045" lon="2.22736">
        <ele>271</ele>
        <time>2020-08-25T10:51:28.281Z</time>
      </trkpt>
      <trkpt lat="43.97044" lon="2.22735">
        <ele>271</ele>
        <time>2020-08-25T10:51:29.281Z</time>
      </trkpt>
      <trkpt lat="43.97043" lon="2.22733">
        <ele>271</ele>
        <time>2020-08-25T10:51:30.281Z</time>
      </trkpt>
      <trkpt lat="43.97042" lon="2.22731">
        <ele>271</ele>
        <time>2020-08-25T10:51:31.281Z</time>
      </trkpt>
      <trkpt lat="43.97041" lon="2.2273">
        <ele>271</ele>
        <time>2020-08-25T10:51:32.281Z</time>
      </trkpt>
      <trkpt lat="43.9704" lon="2.22729">
        <ele>271</ele>
        <time>2020-08-25T10:51:33.281Z</time>
      </trkpt>
      <trkpt lat="43.97039" lon="2.22728">
        <ele>270</ele>
        <time>2020-08-25T10:51:34.281Z</time>
      </trkpt>
      <trkpt lat="43.97039" lon="2.22727">
        <ele>270</ele>
        <time>2020-08-25T10:51:35.281Z</time>
      </trkpt>
      <trkpt lat="43.97038" lon="2.22726">
        <ele>270</ele>
        <time>2020-08-25T10:51:36.281Z</time>
      </trkpt>
      <trkpt lat="43.97038" lon="2.22725">
        <ele>270</ele>
        <time>2020-08-25T10:51:37.281Z</time>
      </trkpt>
      <trkpt lat="43.97037" lon="2.22724">
        <ele>270</ele>
        <time>2020-08-25T10:51:38.281Z</time>
      </trkpt>
      <trkpt lat="43.97037" lon="2.22722">
        <ele>270</ele>
        <time>2020-08-25T10:51:39.281Z</time>
      </trkpt>
      <trkpt lat="43.97036" lon="2.22719">
        <ele>269</ele>
        <time>2020-08-25T10:51:40.281Z</time>
      </trkpt>
      <trkpt lat="43.97035" lon="2.22717">
        <ele>269</ele>
        <time>2020-08-25T10:51:41.281Z</time>
      </trkpt>
      <trkpt lat="43.97034" lon="2.22715">
        <ele>269</ele>
        <time>2020-08-25T10:51:42.281Z</time>
      </trkpt>
      <trkpt lat="43.97033" lon="2.22714">
        <ele>269</ele>
        <time>2020-08-25T10:51:43.281Z</time>
      </trkpt>
      <trkpt lat="43.97032" lon="2.22711">
        <ele>269</ele>
        <time>2020-08-25T10:51:44.281Z</time>
      </trkpt>
      <trkpt lat="43.97032" lon="2.2271">
        <ele>268</ele>
        <time>2020-08-25T10:51:45.281Z</time>
      </trkpt>
      <trkpt lat="43.97032" lon="2.22708">
        <ele>268</ele>
        <time>2020-08-25T10:51:46.281Z</time>
      </trkpt>
      <trkpt lat="43.97032" lon="2.22707">
        <ele>268</ele>
        <time>2020-08-25T10:51:47.281Z</time>
      </trkpt>
      <trkpt lat="43.97032" lon="2.22706">
        <ele>268</ele>
        <time>2020-08-25T10:51:48.281Z</time>
      </trkpt>
      <trkpt lat="43.97032" lon="2.22704">
        <ele>268</ele>
        <time>2020-08-25T10:51:49.281Z</time>
      </trkpt>
      <trkpt lat="43.97031" lon="2.22702">
        <ele>268</ele>
        <time>2020-08-25T10:51:50.281Z</time>
      </trkpt>
      <trkpt lat="43.97031" lon="2.227">
        <ele>268</ele>
        <time>2020-08-25T10:51:51.281Z</time>
      </trkpt>
      <trkpt lat="43.97031" lon="2.22698">
        <ele>267</ele>
        <time>2020-08-25T10:51:52.281Z</time>
      </trkpt>
      <trkpt lat="43.9703" lon="2.22696">
        <ele>267</ele>
        <time>2020-08-25T10:51:53.281Z</time>
      </trkpt>
      <trkpt lat="43.9703" lon="2.22694">
        <ele>267</ele>
        <time>2020-08-25T10:51:54.281Z</time>
      </trkpt>
      <trkpt lat="43.9703" lon="2.22693">
        <ele>267</ele>
        <time>2020-08-25T10:51:55.281Z</time>
      </trkpt>
      <trkpt lat="43.9703" lon="2.22691">
        <ele>267</ele>
        <time>2020-08-25T10:51:56.281Z</time>
      </trkpt>
      <trkpt lat="43.97029" lon="2.22689">
        <ele>266</ele>
        <time>2020-08-25T10:51:57.281Z</time>
      </trkpt>
      <trkpt lat="43.97029" lon="2.22687">
        <ele>266</ele>
        <time>2020-08-25T10:51:58.281Z</time>
      </trkpt>
      <trkpt lat="43.97029" lon="2.22685">
        <ele>266</ele>
        <time>2020-08-25T10:51:59.281Z</time>
      </trkpt>
      <trkpt lat="43.97029" lon="2.22684">
        <ele>266</ele>
        <time>2020-08-25T10:52:00.281Z</time>
      </trkpt>
      <trkpt lat="43.97029" lon="2.22682">
        <ele>266</ele>
        <time>2020-08-25T10:52:01.281Z</time>
      </trkpt>
      <trkpt lat="43.97029" lon="2.2268">
        <ele>266</ele>
        <time>2020-08-25T10:52:02.281Z</time>
      </trkpt>
      <trkpt lat="43.97029" lon="2.22679">
        <ele>266</ele>
        <time>2020-08-25T10:52:03.281Z</time>
      </trkpt>
      <trkpt lat="43.97029" lon="2.22677">
        <ele>266</ele>
        <time>2020-08-25T10:52:04.281Z</time>
      </trkpt>
      <trkpt lat="43.97029" lon="2.22676">
        <ele>265</ele>
        <time>2020-08-25T10:52:05.281Z</time>
      </trkpt>
      <trkpt lat="43.97029" lon="2.22674">
        <ele>265</ele>
        <time>2020-08-25T10:52:06.281Z</time>
      </trkpt>
      <trkpt lat="43.9703" lon="2.22673">
        <ele>265</ele>
        <time>2020-08-25T10:52:07.281Z</time>
      </trkpt>
      <trkpt lat="43.9703" lon="2.22671">
        <ele>265</ele>
        <time>2020-08-25T10:52:08.281Z</time>
      </trkpt>
      <trkpt lat="43.9703" lon="2.22669">
        <ele>265</ele>
        <time>2020-08-25T10:52:09.281Z</time>
      </trkpt>
      <trkpt lat="43.9703" lon="2.22666">
        <ele>264</ele>
        <time>2020-08-25T10:52:10.281Z</time>
      </trkpt>
      <trkpt lat="43.9703" lon="2.22663">
        <ele>264</ele>
        <time>2020-08-25T10:52:11.281Z</time>
      </trkpt>
      <trkpt lat="43.9703" lon="2.2266">
        <ele>264</ele>
        <time>2020-08-25T10:52:12.281Z</time>
      </trkpt>
      <trkpt lat="43.9703" lon="2.22658">
        <ele>264</ele>
        <time>2020-08-25T10:52:13.281Z</time>
      </trkpt>
      <trkpt lat="43.9703" lon="2.22655">
        <ele>264</ele>
        <time>2020-08-25T10:52:14.281Z</time>
      </trkpt>
      <trkpt lat="43.9703" lon="2.22654">
        <ele>264</ele>
        <time>2020-08-25T10:52:15.281Z</time>
      </trkpt>
      <trkpt lat="43.9703" lon="2.22652">
        <ele>264</ele>
        <time>2020-08-25T10:52:16.281Z</time>
      </trkpt>
      <trkpt lat="43.9703" lon="2.22651">
        <ele>264</ele>
        <time>2020-08-25T10:52:17.281Z</time>
      </trkpt>
      <trkpt lat="43.9703" lon="2.22651">
        <ele>264</ele>
        <time>2020-08-25T10:52:18.281Z</time>
      </trkpt>
      <trkpt lat="43.9703" lon="2.2265">
        <ele>264</ele>
        <time>2020-08-25T10:52:19.281Z</time>
      </trkpt>
      <trkpt lat="43.97029" lon="2.22649">
        <ele>264</ele>
        <time>2020-08-25T10:52:20.281Z</time>
      </trkpt>
      <trkpt lat="43.97029" lon="2.22648">
        <ele>264</ele>
        <time>2020-08-25T10:52:21.281Z</time>
      </trkpt>
      <trkpt lat="43.9703" lon="2.22646">
        <ele>264</ele>
        <time>2020-08-25T10:52:22.281Z</time>
      </trkpt>
      <trkpt lat="43.9703" lon="2.22644">
        <ele>264</ele>
        <time>2020-08-25T10:52:23.281Z</time>
      </trkpt>
      <trkpt lat="43.9703" lon="2.22642">
        <ele>264</ele>
        <time>2020-08-25T10:52:24.281Z</time>
      </trkpt>
      <trkpt lat="43.9703" lon="2.2264">
        <ele>264</ele>
        <time>2020-08-25T10:52:25.281Z</time>
      </trkpt>
      <trkpt lat="43.97031" lon="2.22637">
        <ele>264</ele>
        <time>2020-08-25T10:52:26.281Z</time>
      </trkpt>
      <trkpt lat="43.97031" lon="2.22635">
        <ele>264</ele>
        <time>2020-08-25T10:52:27.281Z</time>
      </trkpt>
      <trkpt lat="43.97031" lon="2.22633">
        <ele>264</ele>
        <time>2020-08-25T10:52:28.281Z</time>
      </trkpt>
      <trkpt lat="43.97031" lon="2.22632">
        <ele>264</ele>
        <time>2020-08-25T10:52:29.281Z</time>
      </trkpt>
      <trkpt lat="43.97031" lon="2.22631">
        <ele>264</ele>
        <time>2020-08-25T10:52:30.281Z</time>
      </trkpt>
      <trkpt lat="43.97031" lon="2.2263">
        <ele>264</ele>
        <time>2020-08-25T10:52:31.281Z</time>
      </trkpt>
      <trkpt lat="43.9703" lon="2.22629">
        <ele>264</ele>
        <time>2020-08-25T10:52:32.281Z</time>
      </trkpt>
      <trkpt lat="43.9703" lon="2.22628">
        <ele>264</ele>
        <time>2020-08-25T10:52:33.281Z</time>
      </trkpt>
      <trkpt lat="43.97029" lon="2.22626">
        <ele>264</ele>
        <time>2020-08-25T10:52:34.281Z</time>
      </trkpt>
      <trkpt lat="43.97029" lon="2.22624">
        <ele>264</ele>
        <time>2020-08-25T10:52:35.281Z</time>
      </trkpt>
      <trkpt lat="43.97029" lon="2.22622">
        <ele>264</ele>
        <time>2020-08-25T10:52:36.281Z</time>
      </trkpt>
      <trkpt lat="43.97028" lon="2.22619">
        <ele>264</ele>
        <time>2020-08-25T10:52:37.281Z</time>
      </trkpt>
      <trkpt lat="43.97027" lon="2.22616">
        <ele>264</ele>
        <time>2020-08-25T10:52:38.281Z</time>
      </trkpt>
      <trkpt lat="43.97027" lon="2.22613">
        <ele>264</ele>
        <time>2020-08-25T10:52:39.281Z</time>
      </trkpt>
      <trkpt lat="43.97026" lon="2.2261">
        <ele>264</ele>
        <time>2020-08-25T10:52:40.281Z</time>
      </trkpt>
      <trkpt lat="43.97025" lon="2.22609">
        <ele>264</ele>
        <time>2020-08-25T10:52:41.281Z</time>
      </trkpt>
      <trkpt lat="43.97025" lon="2.22608">
        <ele>264</ele>
        <time>2020-08-25T10:52:42.281Z</time>
      </trkpt>
      <trkpt lat="43.97024" lon="2.22608">
        <ele>264</ele>
        <time>2020-08-25T10:52:43.281Z</time>
      </trkpt>
      <trkpt lat="43.97024" lon="2.22608">
        <ele>264</ele>
        <time>2020-08-25T10:52:44.281Z</time>
      </trkpt>
      <trkpt lat="43.97023" lon="2.22608">
        <ele>264</ele>
        <time>2020-08-25T10:52:45.281Z</time>
      </trkpt>
      <trkpt lat="43.97022" lon="2.22608">
        <ele>263</ele>
        <time>2020-08-25T10:52:46.281Z</time>
      </trkpt>
      <trkpt lat="43.97021" lon="2.22607">
        <ele>263</ele>
        <time>2020-08-25T10:52:47.281Z</time>
      </trkpt>
      <trkpt lat="43.97021" lon="2.22605">
        <ele>263</ele>
        <time>2020-08-25T10:52:48.281Z</time>
      </trkpt>
      <trkpt lat="43.97019" lon="2.22603">
        <ele>263</ele>
        <time>2020-08-25T10:52:49.281Z</time>
      </trkpt>
      <trkpt lat="43.97018" lon="2.22601">
        <ele>263</ele>
        <time>2020-08-25T10:52:50.281Z</time>
      </trkpt>
      <trkpt lat="43.97016" lon="2.22599">
        <ele>263</ele>
        <time>2020-08-25T10:52:51.281Z</time>
      </trkpt>
      <trkpt lat="43.97014" lon="2.22598">
        <ele>263</ele>
        <time>2020-08-25T10:52:52.281Z</time>
      </trkpt>
      <trkpt lat="43.97013" lon="2.22595">
        <ele>263</ele>
        <time>2020-08-25T10:52:53.281Z</time>
      </trkpt>
      <trkpt lat="43.97012" lon="2.22594">
        <ele>263</ele>
        <time>2020-08-25T10:52:54.281Z</time>
      </trkpt>
      <trkpt lat="43.97011" lon="2.22594">
        <ele>263</ele>
        <time>2020-08-25T10:52:55.281Z</time>
      </trkpt>
      <trkpt lat="43.97011" lon="2.22593">
        <ele>263</ele>
        <time>2020-08-25T10:52:56.281Z</time>
      </trkpt>
      <trkpt lat="43.9701" lon="2.22592">
        <ele>263</ele>
        <time>2020-08-25T10:52:57.281Z</time>
      </trkpt>
      <trkpt lat="43.97009" lon="2.22591">
        <ele>263</ele>
        <time>2020-08-25T10:52:58.281Z</time>
      </trkpt>
      <trkpt lat="43.97008" lon="2.2259">
        <ele>263</ele>
        <time>2020-08-25T10:52:59.281Z</time>
      </trkpt>
      <trkpt lat="43.97008" lon="2.22589">
        <ele>263</ele>
        <time>2020-08-25T10:53:00.281Z</time>
      </trkpt>
      <trkpt lat="43.97006" lon="2.22588">
        <ele>263</ele>
        <time>2020-08-25T10:53:01.281Z</time>
      </trkpt>
      <trkpt lat="43.97005" lon="2.22588">
        <ele>263</ele>
        <time>2020-08-25T10:53:02.281Z</time>
      </trkpt>
      <trkpt lat="43.97004" lon="2.22587">
        <ele>262</ele>
        <time>2020-08-25T10:53:03.281Z</time>
      </trkpt>
      <trkpt lat="43.97003" lon="2.22586">
        <ele>262</ele>
        <time>2020-08-25T10:53:04.281Z</time>
      </trkpt>
      <trkpt lat="43.97002" lon="2.22586">
        <ele>262</ele>
        <time>2020-08-25T10:53:05.281Z</time>
      </trkpt>
      <trkpt lat="43.97001" lon="2.22585">
        <ele>262</ele>
        <time>2020-08-25T10:53:06.281Z</time>
      </trkpt>
      <trkpt lat="43.97" lon="2.22584">
        <ele>262</ele>
        <time>2020-08-25T10:53:07.281Z</time>
      </trkpt>
      <trkpt lat="43.96999" lon="2.22584">
        <ele>262</ele>
        <time>2020-08-25T10:53:08.281Z</time>
      </trkpt>
      <trkpt lat="43.96998" lon="2.22583">
        <ele>262</ele>
        <time>2020-08-25T10:53:09.281Z</time>
      </trkpt>
      <trkpt lat="43.96996" lon="2.22582">
        <ele>261</ele>
        <time>2020-08-25T10:53:10.281Z</time>
      </trkpt>
      <trkpt lat="43.96995" lon="2.22581">
        <ele>261</ele>
        <time>2020-08-25T10:53:11.281Z</time>
      </trkpt>
      <trkpt lat="43.96994" lon="2.2258">
        <ele>261</ele>
        <time>2020-08-25T10:53:12.281Z</time>
      </trkpt>
      <trkpt lat="43.96993" lon="2.22579">
        <ele>261</ele>
        <time>2020-08-25T10:53:13.281Z</time>
      </trkpt>
      <trkpt lat="43.96991" lon="2.22578">
        <ele>260</ele>
        <time>2020-08-25T10:53:14.281Z</time>
      </trkpt>
      <trkpt lat="43.9699" lon="2.22578">
        <ele>260</ele>
        <time>2020-08-25T10:53:15.281Z</time>
      </trkpt>
      <trkpt lat="43.96989" lon="2.22577">
        <ele>260</ele>
        <time>2020-08-25T10:53:16.281Z</time>
      </trkpt>
      <trkpt lat="43.96988" lon="2.22576">
        <ele>260</ele>
        <time>2020-08-25T10:53:17.281Z</time>
      </trkpt>
      <trkpt lat="43.96987" lon="2.22575">
        <ele>260</ele>
        <time>2020-08-25T10:53:18.281Z</time>
      </trkpt>
      <trkpt lat="43.96986" lon="2.22574">
        <ele>260</ele>
        <time>2020-08-25T10:53:19.281Z</time>
      </trkpt>
      <trkpt lat="43.96985" lon="2.22573">
        <ele>259</ele>
        <time>2020-08-25T10:53:20.281Z</time>
      </trkpt>
      <trkpt lat="43.96984" lon="2.22571">
        <ele>259</ele>
        <time>2020-08-25T10:53:21.281Z</time>
      </trkpt>
      <trkpt lat="43.96983" lon="2.2257">
        <ele>259</ele>
        <time>2020-08-25T10:53:22.281Z</time>
      </trkpt>
      <trkpt lat="43.96982" lon="2.22569">
        <ele>259</ele>
        <time>2020-08-25T10:53:23.281Z</time>
      </trkpt>
      <trkpt lat="43.9698" lon="2.22567">
        <ele>259</ele>
        <time>2020-08-25T10:53:24.281Z</time>
      </trkpt>
      <trkpt lat="43.96979" lon="2.22565">
        <ele>259</ele>
        <time>2020-08-25T10:53:25.281Z</time>
      </trkpt>
      <trkpt lat="43.96978" lon="2.22563">
        <ele>259</ele>
        <time>2020-08-25T10:53:26.281Z</time>
      </trkpt>
      <trkpt lat="43.96977" lon="2.22562">
        <ele>259</ele>
        <time>2020-08-25T10:53:27.281Z</time>
      </trkpt>
      <trkpt lat="43.96976" lon="2.22561">
        <ele>259</ele>
        <time>2020-08-25T10:53:28.281Z</time>
      </trkpt>
      <trkpt lat="43.96976" lon="2.2256">
        <ele>259</ele>
        <time>2020-08-25T10:53:29.281Z</time>
      </trkpt>
      <trkpt lat="43.96975" lon="2.22559">
        <ele>259</ele>
        <time>2020-08-25T10:53:30.281Z</time>
      </trkpt>
      <trkpt lat="43.96974" lon="2.22558">
        <ele>259</ele>
        <time>2020-08-25T10:53:31.281Z</time>
      </trkpt>
      <trkpt lat="43.96973" lon="2.22556">
        <ele>258</ele>
        <time>2020-08-25T10:53:32.281Z</time>
      </trkpt>
      <trkpt lat="43.96972" lon="2.22554">
        <ele>258</ele>
        <time>2020-08-25T10:53:33.281Z</time>
      </trkpt>
      <trkpt lat="43.96972" lon="2.22553">
        <ele>258</ele>
        <time>2020-08-25T10:53:34.281Z</time>
      </trkpt>
      <trkpt lat="43.96971" lon="2.22552">
        <ele>258</ele>
        <time>2020-08-25T10:53:35.281Z</time>
      </trkpt>
      <trkpt lat="43.9697" lon="2.22549">
        <ele>258</ele>
        <time>2020-08-25T10:53:36.281Z</time>
      </trkpt>
      <trkpt lat="43.9697" lon="2.22546">
        <ele>258</ele>
        <time>2020-08-25T10:53:37.281Z</time>
      </trkpt>
      <trkpt lat="43.96969" lon="2.22544">
        <ele>258</ele>
        <time>2020-08-25T10:53:38.281Z</time>
      </trkpt>
      <trkpt lat="43.96969" lon="2.22543">
        <ele>258</ele>
        <time>2020-08-25T10:53:39.281Z</time>
      </trkpt>
      <trkpt lat="43.96968" lon="2.22543">
        <ele>258</ele>
        <time>2020-08-25T10:53:40.281Z</time>
      </trkpt>
      <trkpt lat="43.96968" lon="2.22542">
        <ele>258</ele>
        <time>2020-08-25T10:53:41.281Z</time>
      </trkpt>
      <trkpt lat="43.96967" lon="2.22542">
        <ele>258</ele>
        <time>2020-08-25T10:53:42.281Z</time>
      </trkpt>
      <trkpt lat="43.96967" lon="2.22541">
        <ele>258</ele>
        <time>2020-08-25T10:53:43.281Z</time>
      </trkpt>
      <trkpt lat="43.96967" lon="2.22539">
        <ele>258</ele>
        <time>2020-08-25T10:53:44.281Z</time>
      </trkpt>
      <trkpt lat="43.96966" lon="2.22537">
        <ele>258</ele>
        <time>2020-08-25T10:53:45.281Z</time>
      </trkpt>
      <trkpt lat="43.96965" lon="2.22534">
        <ele>258</ele>
        <time>2020-08-25T10:53:46.281Z</time>
      </trkpt>
      <trkpt lat="43.96965" lon="2.22531">
        <ele>258</ele>
        <time>2020-08-25T10:53:47.281Z</time>
      </trkpt>
      <trkpt lat="43.96965" lon="2.22528">
        <ele>258</ele>
        <time>2020-08-25T10:53:48.281Z</time>
      </trkpt>
      <trkpt lat="43.96965" lon="2.22526">
        <ele>258</ele>
        <time>2020-08-25T10:53:49.281Z</time>
      </trkpt>
      <trkpt lat="43.96964" lon="2.22523">
        <ele>257</ele>
        <time>2020-08-25T10:53:50.281Z</time>
      </trkpt>
      <trkpt lat="43.96964" lon="2.22521">
        <ele>257</ele>
        <time>2020-08-25T10:53:51.281Z</time>
      </trkpt>
      <trkpt lat="43.96964" lon="2.22519">
        <ele>257</ele>
        <time>2020-08-25T10:53:52.281Z</time>
      </trkpt>
      <trkpt lat="43.96964" lon="2.22518">
        <ele>257</ele>
        <time>2020-08-25T10:53:53.281Z</time>
      </trkpt>
      <trkpt lat="43.96963" lon="2.22517">
        <ele>257</ele>
        <time>2020-08-25T10:53:54.281Z</time>
      </trkpt>
      <trkpt lat="43.96962" lon="2.22515">
        <ele>257</ele>
        <time>2020-08-25T10:53:55.281Z</time>
      </trkpt>
      <trkpt lat="43.96962" lon="2.22513">
        <ele>256</ele>
        <time>2020-08-25T10:53:56.281Z</time>
      </trkpt>
      <trkpt lat="43.96962" lon="2.22511">
        <ele>256</ele>
        <time>2020-08-25T10:53:57.281Z</time>
      </trkpt>
      <trkpt lat="43.96962" lon="2.22508">
        <ele>256</ele>
        <time>2020-08-25T10:53:58.281Z</time>
      </trkpt>
      <trkpt lat="43.96963" lon="2.22506">
        <ele>256</ele>
        <time>2020-08-25T10:53:59.281Z</time>
      </trkpt>
      <trkpt lat="43.96963" lon="2.22504">
        <ele>256</ele>
        <time>2020-08-25T10:54:00.281Z</time>
      </trkpt>
      <trkpt lat="43.96963" lon="2.22501">
        <ele>256</ele>
        <time>2020-08-25T10:54:01.281Z</time>
      </trkpt>
      <trkpt lat="43.96963" lon="2.22499">
        <ele>256</ele>
        <time>2020-08-25T10:54:02.281Z</time>
      </trkpt>
      <trkpt lat="43.96963" lon="2.22497">
        <ele>256</ele>
        <time>2020-08-25T10:54:03.281Z</time>
      </trkpt>
      <trkpt lat="43.96963" lon="2.22495">
        <ele>255</ele>
        <time>2020-08-25T10:54:04.281Z</time>
      </trkpt>
      <trkpt lat="43.96963" lon="2.22493">
        <ele>255</ele>
        <time>2020-08-25T10:54:05.281Z</time>
      </trkpt>
      <trkpt lat="43.96964" lon="2.22492">
        <ele>255</ele>
        <time>2020-08-25T10:54:06.281Z</time>
      </trkpt>
      <trkpt lat="43.96964" lon="2.2249">
        <ele>255</ele>
        <time>2020-08-25T10:54:07.281Z</time>
      </trkpt>
      <trkpt lat="43.96964" lon="2.22488">
        <ele>255</ele>
        <time>2020-08-25T10:54:08.281Z</time>
      </trkpt>
      <trkpt lat="43.96964" lon="2.22486">
        <ele>255</ele>
        <time>2020-08-25T10:54:09.281Z</time>
      </trkpt>
      <trkpt lat="43.96965" lon="2.22484">
        <ele>255</ele>
        <time>2020-08-25T10:54:10.281Z</time>
      </trkpt>
      <trkpt lat="43.96965" lon="2.22483">
        <ele>255</ele>
        <time>2020-08-25T10:54:11.281Z</time>
      </trkpt>
      <trkpt lat="43.96966" lon="2.22481">
        <ele>255</ele>
        <time>2020-08-25T10:54:12.281Z</time>
      </trkpt>
      <trkpt lat="43.96967" lon="2.2248">
        <ele>255</ele>
        <time>2020-08-25T10:54:13.281Z</time>
      </trkpt>
      <trkpt lat="43.96968" lon="2.22479">
        <ele>255</ele>
        <time>2020-08-25T10:54:14.281Z</time>
      </trkpt>
      <trkpt lat="43.96968" lon="2.22477">
        <ele>255</ele>
        <time>2020-08-25T10:54:15.281Z</time>
      </trkpt>
      <trkpt lat="43.96969" lon="2.22476">
        <ele>255</ele>
        <time>2020-08-25T10:54:16.281Z</time>
      </trkpt>
      <trkpt lat="43.9697" lon="2.22475">
        <ele>255</ele>
        <time>2020-08-25T10:54:17.281Z</time>
      </trkpt>
      <trkpt lat="43.96971" lon="2.22473">
        <ele>255</ele>
        <time>2020-08-25T10:54:18.281Z</time>
      </trkpt>
      <trkpt lat="43.96972" lon="2.22472">
        <ele>255</ele>
        <time>2020-08-25T10:54:19.281Z</time>
      </trkpt>
      <trkpt lat="43.96972" lon="2.22471">
        <ele>255</ele>
        <time>2020-08-25T10:54:20.281Z</time>
      </trkpt>
      <trkpt lat="43.96973" lon="2.2247">
        <ele>255</ele>
        <time>2020-08-25T10:54:21.281Z</time>
      </trkpt>
      <trkpt lat="43.96973" lon="2.22469">
        <ele>254</ele>
        <time>2020-08-25T10:54:22.281Z</time>
      </trkpt>
      <trkpt lat="43.96974" lon="2.22467">
        <ele>254</ele>
        <time>2020-08-25T10:54:23.281Z</time>
      </trkpt>
      <trkpt lat="43.96974" lon="2.22466">
        <ele>254</ele>
        <time>2020-08-25T10:54:24.281Z</time>
      </trkpt>
      <trkpt lat="43.96975" lon="2.22465">
        <ele>254</ele>
        <time>2020-08-25T10:54:25.281Z</time>
      </trkpt>
      <trkpt lat="43.96976" lon="2.22463">
        <ele>254</ele>
        <time>2020-08-25T10:54:26.281Z</time>
      </trkpt>
      <trkpt lat="43.96976" lon="2.22461">
        <ele>254</ele>
        <time>2020-08-25T10:54:27.281Z</time>
      </trkpt>
      <trkpt lat="43.96977" lon="2.2246">
        <ele>254</ele>
        <time>2020-08-25T10:54:28.281Z</time>
      </trkpt>
      <trkpt lat="43.96977" lon="2.22458">
        <ele>253</ele>
        <time>2020-08-25T10:54:29.281Z</time>
      </trkpt>
      <trkpt lat="43.96978" lon="2.22457">
        <ele>253</ele>
        <time>2020-08-25T10:54:30.281Z</time>
      </trkpt>
      <trkpt lat="43.96979" lon="2.22455">
        <ele>253</ele>
        <time>2020-08-25T10:54:31.281Z</time>
      </trkpt>
      <trkpt lat="43.96979" lon="2.22454">
        <ele>253</ele>
        <time>2020-08-25T10:54:32.281Z</time>
      </trkpt>
      <trkpt lat="43.9698" lon="2.22453">
        <ele>253</ele>
        <time>2020-08-25T10:54:33.281Z</time>
      </trkpt>
      <trkpt lat="43.9698" lon="2.22452">
        <ele>252</ele>
        <time>2020-08-25T10:54:34.281Z</time>
      </trkpt>
      <trkpt lat="43.96981" lon="2.22451">
        <ele>252</ele>
        <time>2020-08-25T10:54:35.281Z</time>
      </trkpt>
      <trkpt lat="43.96982" lon="2.22449">
        <ele>252</ele>
        <time>2020-08-25T10:54:36.281Z</time>
      </trkpt>
      <trkpt lat="43.96982" lon="2.22448">
        <ele>251</ele>
        <time>2020-08-25T10:54:37.281Z</time>
      </trkpt>
      <trkpt lat="43.96983" lon="2.22446">
        <ele>251</ele>
        <time>2020-08-25T10:54:38.281Z</time>
      </trkpt>
      <trkpt lat="43.96983" lon="2.22445">
        <ele>251</ele>
        <time>2020-08-25T10:54:39.281Z</time>
      </trkpt>
      <trkpt lat="43.96984" lon="2.22443">
        <ele>251</ele>
        <time>2020-08-25T10:54:40.281Z</time>
      </trkpt>
      <trkpt lat="43.96985" lon="2.22442">
        <ele>251</ele>
        <time>2020-08-25T10:54:41.281Z</time>
      </trkpt>
      <trkpt lat="43.96986" lon="2.22441">
        <ele>250</ele>
        <time>2020-08-25T10:54:42.281Z</time>
      </trkpt>
      <trkpt lat="43.96987" lon="2.22439">
        <ele>250</ele>
        <time>2020-08-25T10:54:43.281Z</time>
      </trkpt>
      <trkpt lat="43.96988" lon="2.22438">
        <ele>250</ele>
        <time>2020-08-25T10:54:44.281Z</time>
      </trkpt>
      <trkpt lat="43.96989" lon="2.22437">
        <ele>250</ele>
        <time>2020-08-25T10:54:45.281Z</time>
      </trkpt>
      <trkpt lat="43.96989" lon="2.22435">
        <ele>250</ele>
        <time>2020-08-25T10:54:46.281Z</time>
      </trkpt>
      <trkpt lat="43.9699" lon="2.22434">
        <ele>250</ele>
        <time>2020-08-25T10:54:47.281Z</time>
      </trkpt>
      <trkpt lat="43.9699" lon="2.22433">
        <ele>250</ele>
        <time>2020-08-25T10:54:48.281Z</time>
      </trkpt>
      <trkpt lat="43.96991" lon="2.22431">
        <ele>249</ele>
        <time>2020-08-25T10:54:49.281Z</time>
      </trkpt>
      <trkpt lat="43.96992" lon="2.2243">
        <ele>249</ele>
        <time>2020-08-25T10:54:50.281Z</time>
      </trkpt>
      <trkpt lat="43.96992" lon="2.22428">
        <ele>249</ele>
        <time>2020-08-25T10:54:51.281Z</time>
      </trkpt>
      <trkpt lat="43.96993" lon="2.22426">
        <ele>249</ele>
        <time>2020-08-25T10:54:52.281Z</time>
      </trkpt>
      <trkpt lat="43.96994" lon="2.22425">
        <ele>249</ele>
        <time>2020-08-25T10:54:53.281Z</time>
      </trkpt>
      <trkpt lat="43.96994" lon="2.22423">
        <ele>248</ele>
        <time>2020-08-25T10:54:54.281Z</time>
      </trkpt>
      <trkpt lat="43.96995" lon="2.22422">
        <ele>248</ele>
        <time>2020-08-25T10:54:55.281Z</time>
      </trkpt>
      <trkpt lat="43.96995" lon="2.2242">
        <ele>248</ele>
        <time>2020-08-25T10:54:56.281Z</time>
      </trkpt>
      <trkpt lat="43.96996" lon="2.22418">
        <ele>248</ele>
        <time>2020-08-25T10:54:57.281Z</time>
      </trkpt>
      <trkpt lat="43.96996" lon="2.22417">
        <ele>247</ele>
        <time>2020-08-25T10:54:58.281Z</time>
      </trkpt>
      <trkpt lat="43.96997" lon="2.22415">
        <ele>247</ele>
        <time>2020-08-25T10:54:59.281Z</time>
      </trkpt>
      <trkpt lat="43.96997" lon="2.22414">
        <ele>247</ele>
        <time>2020-08-25T10:55:00.281Z</time>
      </trkpt>
      <trkpt lat="43.96998" lon="2.22412">
        <ele>247</ele>
        <time>2020-08-25T10:55:01.281Z</time>
      </trkpt>
      <trkpt lat="43.96999" lon="2.22411">
        <ele>247</ele>
        <time>2020-08-25T10:55:02.281Z</time>
      </trkpt>
      <trkpt lat="43.96999" lon="2.2241">
        <ele>246</ele>
        <time>2020-08-25T10:55:03.281Z</time>
      </trkpt>
      <trkpt lat="43.97" lon="2.22408">
        <ele>246</ele>
        <time>2020-08-25T10:55:04.281Z</time>
      </trkpt>
      <trkpt lat="43.97" lon="2.22406">
        <ele>246</ele>
        <time>2020-08-25T10:55:05.281Z</time>
      </trkpt>
      <trkpt lat="43.97001" lon="2.22404">
        <ele>246</ele>
        <time>2020-08-25T10:55:06.281Z</time>
      </trkpt>
      <trkpt lat="43.97001" lon="2.22402">
        <ele>246</ele>
        <time>2020-08-25T10:55:07.281Z</time>
      </trkpt>
      <trkpt lat="43.97002" lon="2.22401">
        <ele>246</ele>
        <time>2020-08-25T10:55:08.281Z</time>
      </trkpt>
      <trkpt lat="43.97002" lon="2.22399">
        <ele>246</ele>
        <time>2020-08-25T10:55:09.281Z</time>
      </trkpt>
      <trkpt lat="43.97003" lon="2.22398">
        <ele>246</ele>
        <time>2020-08-25T10:55:10.281Z</time>
      </trkpt>
      <trkpt lat="43.97003" lon="2.22396">
        <ele>246</ele>
        <time>2020-08-25T10:55:11.281Z</time>
      </trkpt>
      <trkpt lat="43.97004" lon="2.22395">
        <ele>246</ele>
        <time>2020-08-25T10:55:12.281Z</time>
      </trkpt>
      <trkpt lat="43.97004" lon="2.22393">
        <ele>245</ele>
        <time>2020-08-25T10:55:13.281Z</time>
      </trkpt>
      <trkpt lat="43.97005" lon="2.22392">
        <ele>245</ele>
        <time>2020-08-25T10:55:14.281Z</time>
      </trkpt>
      <trkpt lat="43.97006" lon="2.2239">
        <ele>245</ele>
        <time>2020-08-25T10:55:15.281Z</time>
      </trkpt>
      <trkpt lat="43.97007" lon="2.22388">
        <ele>245</ele>
        <time>2020-08-25T10:55:16.281Z</time>
      </trkpt>
      <trkpt lat="43.97007" lon="2.22387">
        <ele>245</ele>
        <time>2020-08-25T10:55:17.281Z</time>
      </trkpt>
      <trkpt lat="43.97008" lon="2.22385">
        <ele>245</ele>
        <time>2020-08-25T10:55:18.281Z</time>
      </trkpt>
      <trkpt lat="43.97008" lon="2.22384">
        <ele>245</ele>
        <time>2020-08-25T10:55:19.281Z</time>
      </trkpt>
      <trkpt lat="43.97008" lon="2.22382">
        <ele>244</ele>
        <time>2020-08-25T10:55:20.281Z</time>
      </trkpt>
      <trkpt lat="43.97009" lon="2.22381">
        <ele>244</ele>
        <time>2020-08-25T10:55:21.281Z</time>
      </trkpt>
      <trkpt lat="43.97009" lon="2.2238">
        <ele>244</ele>
        <time>2020-08-25T10:55:22.281Z</time>
      </trkpt>
      <trkpt lat="43.9701" lon="2.22379">
        <ele>244</ele>
        <time>2020-08-25T10:55:23.281Z</time>
      </trkpt>
      <trkpt lat="43.9701" lon="2.22377">
        <ele>244</ele>
        <time>2020-08-25T10:55:24.281Z</time>
      </trkpt>
      <trkpt lat="43.97011" lon="2.22376">
        <ele>244</ele>
        <time>2020-08-25T10:55:25.281Z</time>
      </trkpt>
      <trkpt lat="43.97011" lon="2.22375">
        <ele>244</ele>
        <time>2020-08-25T10:55:26.281Z</time>
      </trkpt>
      <trkpt lat="43.97012" lon="2.22373">
        <ele>244</ele>
        <time>2020-08-25T10:55:27.281Z</time>
      </trkpt>
      <trkpt lat="43.97012" lon="2.22372">
        <ele>244</ele>
        <time>2020-08-25T10:55:28.281Z</time>
      </trkpt>
      <trkpt lat="43.97013" lon="2.2237">
        <ele>243</ele>
        <time>2020-08-25T10:55:29.281Z</time>
      </trkpt>
      <trkpt lat="43.97013" lon="2.22369">
        <ele>243</ele>
        <time>2020-08-25T10:55:30.281Z</time>
      </trkpt>
      <trkpt lat="43.97014" lon="2.22368">
        <ele>243</ele>
        <time>2020-08-25T10:55:31.281Z</time>
      </trkpt>
      <trkpt lat="43.97014" lon="2.22366">
        <ele>243</ele>
        <time>2020-08-25T10:55:32.281Z</time>
      </trkpt>
      <trkpt lat="43.97015" lon="2.22365">
        <ele>243</ele>
        <time>2020-08-25T10:55:33.281Z</time>
      </trkpt>
      <trkpt lat="43.97015" lon="2.22363">
        <ele>243</ele>
        <time>2020-08-25T10:55:34.281Z</time>
      </trkpt>
      <trkpt lat="43.97016" lon="2.22362">
        <ele>243</ele>
        <time>2020-08-25T10:55:35.281Z</time>
      </trkpt>
      <trkpt lat="43.97016" lon="2.2236">
        <ele>243</ele>
        <time>2020-08-25T10:55:36.281Z</time>
      </trkpt>
      <trkpt lat="43.97017" lon="2.22359">
        <ele>242</ele>
        <time>2020-08-25T10:55:37.281Z</time>
      </trkpt>
      <trkpt lat="43.97017" lon="2.22357">
        <ele>242</ele>
        <time>2020-08-25T10:55:38.281Z</time>
      </trkpt>
      <trkpt lat="43.97018" lon="2.22356">
        <ele>242</ele>
        <time>2020-08-25T10:55:39.281Z</time>
      </trkpt>
      <trkpt lat="43.97018" lon="2.22355">
        <ele>242</ele>
        <time>2020-08-25T10:55:40.281Z</time>
      </trkpt>
      <trkpt lat="43.97019" lon="2.22354">
        <ele>242</ele>
        <time>2020-08-25T10:55:41.281Z</time>
      </trkpt>
      <trkpt lat="43.9702" lon="2.22352">
        <ele>242</ele>
        <time>2020-08-25T10:55:42.281Z</time>
      </trkpt>
      <trkpt lat="43.9702" lon="2.22351">
        <ele>242</ele>
        <time>2020-08-25T10:55:43.281Z</time>
      </trkpt>
      <trkpt lat="43.97021" lon="2.2235">
        <ele>242</ele>
        <time>2020-08-25T10:55:44.281Z</time>
      </trkpt>
      <trkpt lat="43.97021" lon="2.22349">
        <ele>242</ele>
        <time>2020-08-25T10:55:45.281Z</time>
      </trkpt>
      <trkpt lat="43.97022" lon="2.22348">
        <ele>242</ele>
        <time>2020-08-25T10:55:46.281Z</time>
      </trkpt>
      <trkpt lat="43.97022" lon="2.22347">
        <ele>241</ele>
        <time>2020-08-25T10:55:47.281Z</time>
      </trkpt>
      <trkpt lat="43.97023" lon="2.22345">
        <ele>241</ele>
        <time>2020-08-25T10:55:48.281Z</time>
      </trkpt>
      <trkpt lat="43.97023" lon="2.22344">
        <ele>241</ele>
        <time>2020-08-25T10:55:49.281Z</time>
      </trkpt>
      <trkpt lat="43.97024" lon="2.22343">
        <ele>241</ele>
        <time>2020-08-25T10:55:50.281Z</time>
      </trkpt>
      <trkpt lat="43.97024" lon="2.22341">
        <ele>241</ele>
        <time>2020-08-25T10:55:51.281Z</time>
      </trkpt>
      <trkpt lat="43.97025" lon="2.2234">
        <ele>241</ele>
        <time>2020-08-25T10:55:52.281Z</time>
      </trkpt>
      <trkpt lat="43.97025" lon="2.22339">
        <ele>241</ele>
        <time>2020-08-25T10:55:53.281Z</time>
      </trkpt>
      <trkpt lat="43.97026" lon="2.22337">
        <ele>241</ele>
        <time>2020-08-25T10:55:54.281Z</time>
      </trkpt>
      <trkpt lat="43.97026" lon="2.22336">
        <ele>240</ele>
        <time>2020-08-25T10:55:55.281Z</time>
      </trkpt>
      <trkpt lat="43.97027" lon="2.22335">
        <ele>240</ele>
        <time>2020-08-25T10:55:56.281Z</time>
      </trkpt>
      <trkpt lat="43.97027" lon="2.22333">
        <ele>240</ele>
        <time>2020-08-25T10:55:57.281Z</time>
      </trkpt>
      <trkpt lat="43.97028" lon="2.22332">
        <ele>240</ele>
        <time>2020-08-25T10:55:58.281Z</time>
      </trkpt>
      <trkpt lat="43.97029" lon="2.22331">
        <ele>240</ele>
        <time>2020-08-25T10:55:59.281Z</time>
      </trkpt>
      <trkpt lat="43.97029" lon="2.2233">
        <ele>240</ele>
        <time>2020-08-25T10:56:00.281Z</time>
      </trkpt>
      <trkpt lat="43.9703" lon="2.22328">
        <ele>239</ele>
        <time>2020-08-25T10:56:01.281Z</time>
      </trkpt>
      <trkpt lat="43.97031" lon="2.22326">
        <ele>239</ele>
        <time>2020-08-25T10:56:02.281Z</time>
      </trkpt>
      <trkpt lat="43.97031" lon="2.22325">
        <ele>239</ele>
        <time>2020-08-25T10:56:03.281Z</time>
      </trkpt>
      <trkpt lat="43.97032" lon="2.22323">
        <ele>238</ele>
        <time>2020-08-25T10:56:04.281Z</time>
      </trkpt>
      <trkpt lat="43.97032" lon="2.22322">
        <ele>238</ele>
        <time>2020-08-25T10:56:05.281Z</time>
      </trkpt>
      <trkpt lat="43.97033" lon="2.22321">
        <ele>238</ele>
        <time>2020-08-25T10:56:06.281Z</time>
      </trkpt>
      <trkpt lat="43.97034" lon="2.2232">
        <ele>238</ele>
        <time>2020-08-25T10:56:07.281Z</time>
      </trkpt>
      <trkpt lat="43.97034" lon="2.22318">
        <ele>238</ele>
        <time>2020-08-25T10:56:08.281Z</time>
      </trkpt>
      <trkpt lat="43.97035" lon="2.22317">
        <ele>237</ele>
        <time>2020-08-25T10:56:09.281Z</time>
      </trkpt>
      <trkpt lat="43.97035" lon="2.22315">
        <ele>237</ele>
        <time>2020-08-25T10:56:10.281Z</time>
      </trkpt>
      <trkpt lat="43.97036" lon="2.22314">
        <ele>237</ele>
        <time>2020-08-25T10:56:11.281Z</time>
      </trkpt>
      <trkpt lat="43.97036" lon="2.22313">
        <ele>237</ele>
        <time>2020-08-25T10:56:12.281Z</time>
      </trkpt>
      <trkpt lat="43.97037" lon="2.22311">
        <ele>237</ele>
        <time>2020-08-25T10:56:13.281Z</time>
      </trkpt>
      <trkpt lat="43.97037" lon="2.2231">
        <ele>236</ele>
        <time>2020-08-25T10:56:14.281Z</time>
      </trkpt>
      <trkpt lat="43.97037" lon="2.22309">
        <ele>236</ele>
        <time>2020-08-25T10:56:15.281Z</time>
      </trkpt>
      <trkpt lat="43.97038" lon="2.22307">
        <ele>236</ele>
        <time>2020-08-25T10:56:16.281Z</time>
      </trkpt>
      <trkpt lat="43.97038" lon="2.22306">
        <ele>236</ele>
        <time>2020-08-25T10:56:17.281Z</time>
      </trkpt>
      <trkpt lat="43.97038" lon="2.22304">
        <ele>236</ele>
        <time>2020-08-25T10:56:18.281Z</time>
      </trkpt>
      <trkpt lat="43.97039" lon="2.22303">
        <ele>236</ele>
        <time>2020-08-25T10:56:19.281Z</time>
      </trkpt>
      <trkpt lat="43.97039" lon="2.22301">
        <ele>236</ele>
        <time>2020-08-25T10:56:20.281Z</time>
      </trkpt>
      <trkpt lat="43.97039" lon="2.223">
        <ele>236</ele>
        <time>2020-08-25T10:56:21.281Z</time>
      </trkpt>
      <trkpt lat="43.97039" lon="2.22299">
        <ele>236</ele>
        <time>2020-08-25T10:56:22.281Z</time>
      </trkpt>
      <trkpt lat="43.9704" lon="2.22297">
        <ele>236</ele>
        <time>2020-08-25T10:56:23.281Z</time>
      </trkpt>
      <trkpt lat="43.9704" lon="2.22295">
        <ele>236</ele>
        <time>2020-08-25T10:56:24.281Z</time>
      </trkpt>
      <trkpt lat="43.9704" lon="2.22294">
        <ele>236</ele>
        <time>2020-08-25T10:56:25.281Z</time>
      </trkpt>
      <trkpt lat="43.97041" lon="2.22293">
        <ele>236</ele>
        <time>2020-08-25T10:56:26.281Z</time>
      </trkpt>
      <trkpt lat="43.97041" lon="2.22292">
        <ele>236</ele>
        <time>2020-08-25T10:56:27.281Z</time>
      </trkpt>
      <trkpt lat="43.97042" lon="2.22291">
        <ele>236</ele>
        <time>2020-08-25T10:56:28.281Z</time>
      </trkpt>
      <trkpt lat="43.97042" lon="2.22289">
        <ele>236</ele>
        <time>2020-08-25T10:56:29.281Z</time>
      </trkpt>
      <trkpt lat="43.97042" lon="2.22287">
        <ele>236</ele>
        <time>2020-08-25T10:56:30.281Z</time>
      </trkpt>
      <trkpt lat="43.97043" lon="2.22286">
        <ele>236</ele>
        <time>2020-08-25T10:56:31.281Z</time>
      </trkpt>
      <trkpt lat="43.97043" lon="2.22284">
        <ele>236</ele>
        <time>2020-08-25T10:56:32.281Z</time>
      </trkpt>
      <trkpt lat="43.97043" lon="2.22283">
        <ele>236</ele>
        <time>2020-08-25T10:56:33.281Z</time>
      </trkpt>
      <trkpt lat="43.97044" lon="2.22281">
        <ele>236</ele>
        <time>2020-08-25T10:56:34.281Z</time>
      </trkpt>
      <trkpt lat="43.97044" lon="2.2228">
        <ele>236</ele>
        <time>2020-08-25T10:56:35.281Z</time>
      </trkpt>
      <trkpt lat="43.97045" lon="2.22279">
        <ele>236</ele>
        <time>2020-08-25T10:56:36.281Z</time>
      </trkpt>
      <trkpt lat="43.97045" lon="2.22278">
        <ele>236</ele>
        <time>2020-08-25T10:56:37.281Z</time>
      </trkpt>
      <trkpt lat="43.97046" lon="2.22278">
        <ele>236</ele>
        <time>2020-08-25T10:56:38.281Z</time>
      </trkpt>
      <trkpt lat="43.97046" lon="2.22277">
        <ele>236</ele>
        <time>2020-08-25T10:56:39.281Z</time>
      </trkpt>
      <trkpt lat="43.97047" lon="2.22275">
        <ele>236</ele>
        <time>2020-08-25T10:56:40.281Z</time>
      </trkpt>
      <trkpt lat="43.97048" lon="2.22275">
        <ele>236</ele>
        <time>2020-08-25T10:56:41.281Z</time>
      </trkpt>
      <trkpt lat="43.97049" lon="2.22274">
        <ele>236</ele>
        <time>2020-08-25T10:56:42.281Z</time>
      </trkpt>
      <trkpt lat="43.97049" lon="2.22274">
        <ele>236</ele>
        <time>2020-08-25T10:56:43.281Z</time>
      </trkpt>
      <trkpt lat="43.9705" lon="2.22273">
        <ele>236</ele>
        <time>2020-08-25T10:56:44.281Z</time>
      </trkpt>
      <trkpt lat="43.97051" lon="2.22273">
        <ele>236</ele>
        <time>2020-08-25T10:56:45.281Z</time>
      </trkpt>
      <trkpt lat="43.97052" lon="2.22273">
        <ele>236</ele>
        <time>2020-08-25T10:56:46.281Z</time>
      </trkpt>
      <trkpt lat="43.97052" lon="2.22272">
        <ele>236</ele>
        <time>2020-08-25T10:56:47.281Z</time>
      </trkpt>
      <trkpt lat="43.97052" lon="2.22272">
        <ele>236</ele>
        <time>2020-08-25T10:56:48.281Z</time>
      </trkpt>
      <trkpt lat="43.97053" lon="2.22272">
        <ele>236</ele>
        <time>2020-08-25T10:56:49.281Z</time>
      </trkpt>
      <trkpt lat="43.97054" lon="2.22272">
        <ele>236</ele>
        <time>2020-08-25T10:56:50.281Z</time>
      </trkpt>
      <trkpt lat="43.97054" lon="2.22272">
        <ele>236</ele>
        <time>2020-08-25T10:56:51.281Z</time>
      </trkpt>
      <trkpt lat="43.97054" lon="2.22272">
        <ele>236</ele>
        <time>2020-08-25T10:56:52.281Z</time>
      </trkpt>
      <trkpt lat="43.97054" lon="2.22272">
        <ele>236</ele>
        <time>2020-08-25T10:56:53.281Z</time>
      </trkpt>
      <trkpt lat="43.97055" lon="2.22271">
        <ele>236</ele>
        <time>2020-08-25T10:56:54.281Z</time>
      </trkpt>
      <trkpt lat="43.97056" lon="2.2227">
        <ele>236</ele>
        <time>2020-08-25T10:56:55.281Z</time>
      </trkpt>
      <trkpt lat="43.97057" lon="2.2227">
        <ele>236</ele>
        <time>2020-08-25T10:56:56.281Z</time>
      </trkpt>
      <trkpt lat="43.97058" lon="2.2227">
        <ele>236</ele>
        <time>2020-08-25T10:56:57.281Z</time>
      </trkpt>
      <trkpt lat="43.97059" lon="2.2227">
        <ele>236</ele>
        <time>2020-08-25T10:56:58.281Z</time>
      </trkpt>
      <trkpt lat="43.97061" lon="2.2227">
        <ele>236</ele>
        <time>2020-08-25T10:56:59.281Z</time>
      </trkpt>
      <trkpt lat="43.97062" lon="2.2227">
        <ele>236</ele>
        <time>2020-08-25T10:57:00.281Z</time>
      </trkpt>
      <trkpt lat="43.97063" lon="2.2227">
        <ele>236</ele>
        <time>2020-08-25T10:57:01.281Z</time>
      </trkpt>
      <trkpt lat="43.97064" lon="2.22271">
        <ele>236</ele>
        <time>2020-08-25T10:57:02.281Z</time>
      </trkpt>
      <trkpt lat="43.97065" lon="2.22271">
        <ele>236</ele>
        <time>2020-08-25T10:57:03.281Z</time>
      </trkpt>
      <trkpt lat="43.97066" lon="2.22271">
        <ele>236</ele>
        <time>2020-08-25T10:57:04.281Z</time>
      </trkpt>
      <trkpt lat="43.97067" lon="2.22272">
        <ele>236</ele>
        <time>2020-08-25T10:57:05.281Z</time>
      </trkpt>
      <trkpt lat="43.97068" lon="2.22273">
        <ele>236</ele>
        <time>2020-08-25T10:57:06.281Z</time>
      </trkpt>
      <trkpt lat="43.97068" lon="2.22273">
        <ele>236</ele>
        <time>2020-08-25T10:57:07.281Z</time>
      </trkpt>
      <trkpt lat="43.97068" lon="2.22273">
        <ele>236</ele>
        <time>2020-08-25T10:57:08.281Z</time>
      </trkpt>
      <trkpt lat="43.97069" lon="2.22273">
        <ele>236</ele>
        <time>2020-08-25T10:57:09.281Z</time>
      </trkpt>
      <trkpt lat="43.97069" lon="2.22273">
        <ele>236</ele>
        <time>2020-08-25T10:57:10.281Z</time>
      </trkpt>
      <trkpt lat="43.9707" lon="2.22273">
        <ele>236</ele>
        <time>2020-08-25T10:57:11.281Z</time>
      </trkpt>
      <trkpt lat="43.97071" lon="2.22273">
        <ele>236</ele>
        <time>2020-08-25T10:57:12.281Z</time>
      </trkpt>
      <trkpt lat="43.97072" lon="2.22274">
        <ele>236</ele>
        <time>2020-08-25T10:57:13.281Z</time>
      </trkpt>
      <trkpt lat="43.97072" lon="2.22274">
        <ele>236</ele>
        <time>2020-08-25T10:57:14.281Z</time>
      </trkpt>
      <trkpt lat="43.97073" lon="2.22274">
        <ele>236</ele>
        <time>2020-08-25T10:57:15.281Z</time>
      </trkpt>
      <trkpt lat="43.97074" lon="2.22274">
        <ele>237</ele>
        <time>2020-08-25T10:57:16.281Z</time>
      </trkpt>
      <trkpt lat="43.97075" lon="2.22273">
        <ele>237</ele>
        <time>2020-08-25T10:57:17.281Z</time>
      </trkpt>
      <trkpt lat="43.97075" lon="2.22273">
        <ele>237</ele>
        <time>2020-08-25T10:57:18.281Z</time>
      </trkpt>
      <trkpt lat="43.97076" lon="2.22272">
        <ele>237</ele>
        <time>2020-08-25T10:57:19.281Z</time>
      </trkpt>
      <trkpt lat="43.97077" lon="2.22272">
        <ele>237</ele>
        <time>2020-08-25T10:57:20.281Z</time>
      </trkpt>
      <trkpt lat="43.97077" lon="2.22271">
        <ele>237</ele>
        <time>2020-08-25T10:57:21.281Z</time>
      </trkpt>
      <trkpt lat="43.97078" lon="2.2227">
        <ele>237</ele>
        <time>2020-08-25T10:57:22.281Z</time>
      </trkpt>
      <trkpt lat="43.97079" lon="2.22269">
        <ele>237</ele>
        <time>2020-08-25T10:57:23.281Z</time>
      </trkpt>
      <trkpt lat="43.97079" lon="2.22269">
        <ele>237</ele>
        <time>2020-08-25T10:57:24.281Z</time>
      </trkpt>
      <trkpt lat="43.9708" lon="2.22268">
        <ele>237</ele>
        <time>2020-08-25T10:57:25.281Z</time>
      </trkpt>
      <trkpt lat="43.9708" lon="2.22268">
        <ele>237</ele>
        <time>2020-08-25T10:57:26.281Z</time>
      </trkpt>
      <trkpt lat="43.97081" lon="2.22267">
        <ele>237</ele>
        <time>2020-08-25T10:57:27.281Z</time>
      </trkpt>
      <trkpt lat="43.97081" lon="2.22267">
        <ele>237</ele>
        <time>2020-08-25T10:57:28.281Z</time>
      </trkpt>
      <trkpt lat="43.97082" lon="2.22266">
        <ele>236</ele>
        <time>2020-08-25T10:57:29.281Z</time>
      </trkpt>
      <trkpt lat="43.97082" lon="2.22266">
        <ele>236</ele>
        <time>2020-08-25T10:57:30.281Z</time>
      </trkpt>
      <trkpt lat="43.97082" lon="2.22265">
        <ele>236</ele>
        <time>2020-08-25T10:57:31.281Z</time>
      </trkpt>
      <trkpt lat="43.97083" lon="2.22265">
        <ele>236</ele>
        <time>2020-08-25T10:57:32.281Z</time>
      </trkpt>
      <trkpt lat="43.97083" lon="2.22264">
        <ele>236</ele>
        <time>2020-08-25T10:57:33.281Z</time>
      </trkpt>
      <trkpt lat="43.97083" lon="2.22258">
        <ele>234</ele>
        <time>2020-08-25T10:57:52.280Z</time>
      </trkpt>
      <trkpt lat="43.97084" lon="2.22257">
        <ele>234</ele>
        <time>2020-08-25T10:57:53.280Z</time>
      </trkpt>
      <trkpt lat="43.97084" lon="2.22256">
        <ele>234</ele>
        <time>2020-08-25T10:57:54.280Z</time>
      </trkpt>
      <trkpt lat="43.97084" lon="2.22256">
        <ele>234</ele>
        <time>2020-08-25T10:57:55.280Z</time>
      </trkpt>
      <trkpt lat="43.97084" lon="2.22255">
        <ele>234</ele>
        <time>2020-08-25T10:57:56.280Z</time>
      </trkpt>
      <trkpt lat="43.97085" lon="2.22255">
        <ele>234</ele>
        <time>2020-08-25T10:57:57.280Z</time>
      </trkpt>
      <trkpt lat="43.97085" lon="2.22255">
        <ele>234</ele>
        <time>2020-08-25T10:57:58.280Z</time>
      </trkpt>
      <trkpt lat="43.97086" lon="2.22255">
        <ele>234</ele>
        <time>2020-08-25T10:57:59.280Z</time>
      </trkpt>
      <trkpt lat="43.97089" lon="2.22249">
        <ele>233</ele>
        <time>2020-08-25T10:58:14.278Z</time>
      </trkpt>
      <trkpt lat="43.9709" lon="2.22249">
        <ele>233</ele>
        <time>2020-08-25T10:58:15.278Z</time>
      </trkpt>
      <trkpt lat="43.97091" lon="2.22247">
        <ele>234</ele>
        <time>2020-08-25T10:58:18.504Z</time>
      </trkpt>
      <trkpt lat="43.97092" lon="2.22247">
        <ele>234</ele>
        <time>2020-08-25T10:58:19.504Z</time>
      </trkpt>
      <trkpt lat="43.97094" lon="2.22246">
        <ele>235</ele>
        <time>2020-08-25T10:58:24.503Z</time>
      </trkpt>
      <trkpt lat="43.97094" lon="2.22246">
        <ele>235</ele>
        <time>2020-08-25T10:58:25.503Z</time>
      </trkpt>
      <trkpt lat="43.9711" lon="2.22249">
        <ele>235</ele>
        <time>2020-08-25T10:59:49.501Z</time>
      </trkpt>
      <trkpt lat="43.97111" lon="2.22249">
        <ele>235</ele>
        <time>2020-08-25T10:59:50.501Z</time>
      </trkpt>
      <trkpt lat="43.97111" lon="2.22249">
        <ele>235</ele>
        <time>2020-08-25T10:59:51.501Z</time>
      </trkpt>
      <trkpt lat="43.97112" lon="2.22249">
        <ele>236</ele>
        <time>2020-08-25T10:59:52.501Z</time>
      </trkpt>
      <trkpt lat="43.97113" lon="2.22249">
        <ele>236</ele>
        <time>2020-08-25T10:59:53.501Z</time>
      </trkpt>
      <trkpt lat="43.97113" lon="2.22249">
        <ele>236</ele>
        <time>2020-08-25T10:59:54.501Z</time>
      </trkpt>
      <trkpt lat="43.97114" lon="2.22249">
        <ele>236</ele>
        <time>2020-08-25T10:59:55.501Z</time>
      </trkpt>
      <trkpt lat="43.97115" lon="2.22249">
        <ele>236</ele>
        <time>2020-08-25T10:59:56.501Z</time>
      </trkpt>
      <trkpt lat="43.97115" lon="2.22249">
        <ele>237</ele>
        <time>2020-08-25T10:59:57.501Z</time>
      </trkpt>
      <trkpt lat="43.97116" lon="2.22248">
        <ele>237</ele>
        <time>2020-08-25T10:59:58.501Z</time>
      </trkpt>
      <trkpt lat="43.97116" lon="2.22248">
        <ele>237</ele>
        <time>2020-08-25T10:59:59.501Z</time>
      </trkpt>
      <trkpt lat="43.97116" lon="2.22248">
        <ele>237</ele>
        <time>2020-08-25T11:00:00.501Z</time>
      </trkpt>
      <trkpt lat="43.97118" lon="2.22247">
        <ele>238</ele>
        <time>2020-08-25T11:00:11.498Z</time>
      </trkpt>
      <trkpt lat="43.97118" lon="2.22247">
        <ele>238</ele>
        <time>2020-08-25T11:00:12.498Z</time>
      </trkpt>
      <trkpt lat="43.97119" lon="2.22247">
        <ele>239</ele>
        <time>2020-08-25T11:00:13.498Z</time>
      </trkpt>
      <trkpt lat="43.97119" lon="2.22246">
        <ele>239</ele>
        <time>2020-08-25T11:00:14.498Z</time>
      </trkpt>
      <trkpt lat="43.9712" lon="2.22246">
        <ele>239</ele>
        <time>2020-08-25T11:00:15.498Z</time>
      </trkpt>
      <trkpt lat="43.9712" lon="2.22246">
        <ele>239</ele>
        <time>2020-08-25T11:00:16.498Z</time>
      </trkpt>
      <trkpt lat="43.9712" lon="2.22246">
        <ele>239</ele>
        <time>2020-08-25T11:00:17.498Z</time>
      </trkpt>
      <trkpt lat="43.9712" lon="2.22246">
        <ele>239</ele>
        <time>2020-08-25T11:00:18.498Z</time>
      </trkpt>
      <trkpt lat="43.9712" lon="2.22245">
        <ele>239</ele>
        <time>2020-08-25T11:00:19.498Z</time>
      </trkpt>
      <trkpt lat="43.97123" lon="2.22245">
        <ele>241</ele>
        <time>2020-08-25T11:00:35.503Z</time>
      </trkpt>
      <trkpt lat="43.97124" lon="2.22244">
        <ele>241</ele>
        <time>2020-08-25T11:00:36.503Z</time>
      </trkpt>
      <trkpt lat="43.97124" lon="2.22244">
        <ele>241</ele>
        <time>2020-08-25T11:00:37.503Z</time>
      </trkpt>
      <trkpt lat="43.97125" lon="2.22244">
        <ele>241</ele>
        <time>2020-08-25T11:00:38.503Z</time>
      </trkpt>
      <trkpt lat="43.97125" lon="2.22244">
        <ele>241</ele>
        <time>2020-08-25T11:00:39.503Z</time>
      </trkpt>
      <trkpt lat="43.97125" lon="2.22244">
        <ele>241</ele>
        <time>2020-08-25T11:00:40.503Z</time>
      </trkpt>
      <trkpt lat="43.97127" lon="2.22242">
        <ele>242</ele>
        <time>2020-08-25T11:00:43.730Z</time>
      </trkpt>
      <trkpt lat="43.97127" lon="2.22242">
        <ele>242</ele>
        <time>2020-08-25T11:00:44.730Z</time>
      </trkpt>
      <trkpt lat="43.97127" lon="2.22242">
        <ele>242</ele>
        <time>2020-08-25T11:00:45.730Z</time>
      </trkpt>
      <trkpt lat="43.97128" lon="2.22242">
        <ele>242</ele>
        <time>2020-08-25T11:00:46.730Z</time>
      </trkpt>
      <trkpt lat="43.97131" lon="2.22236">
        <ele>245</ele>
        <time>2020-08-25T11:01:05.734Z</time>
      </trkpt>
      <trkpt lat="43.97131" lon="2.22236">
        <ele>245</ele>
        <time>2020-08-25T11:01:06.734Z</time>
      </trkpt>
      <trkpt lat="43.97132" lon="2.22235">
        <ele>245</ele>
        <time>2020-08-25T11:01:07.734Z</time>
      </trkpt>
      <trkpt lat="43.97132" lon="2.22235">
        <ele>245</ele>
        <time>2020-08-25T11:01:08.734Z</time>
      </trkpt>
      <trkpt lat="43.97133" lon="2.22235">
        <ele>245</ele>
        <time>2020-08-25T11:01:09.734Z</time>
      </trkpt>
      <trkpt lat="43.97133" lon="2.22235">
        <ele>246</ele>
        <time>2020-08-25T11:01:10.734Z</time>
      </trkpt>
      <trkpt lat="43.97133" lon="2.22235">
        <ele>246</ele>
        <time>2020-08-25T11:01:11.734Z</time>
      </trkpt>
      <trkpt lat="43.97135" lon="2.22232">
        <ele>248</ele>
        <time>2020-08-25T11:01:29.748Z</time>
      </trkpt>
      <trkpt lat="43.97136" lon="2.22231">
        <ele>249</ele>
        <time>2020-08-25T11:01:30.748Z</time>
      </trkpt>
      <trkpt lat="43.97137" lon="2.22231">
        <ele>249</ele>
        <time>2020-08-25T11:01:31.748Z</time>
      </trkpt>
      <trkpt lat="43.97138" lon="2.2223">
        <ele>249</ele>
        <time>2020-08-25T11:01:32.748Z</time>
      </trkpt>
      <trkpt lat="43.97139" lon="2.2223">
        <ele>249</ele>
        <time>2020-08-25T11:01:33.748Z</time>
      </trkpt>
      <trkpt lat="43.9714" lon="2.2223">
        <ele>249</ele>
        <time>2020-08-25T11:01:34.748Z</time>
      </trkpt>
      <trkpt lat="43.97141" lon="2.22231">
        <ele>249</ele>
        <time>2020-08-25T11:01:35.748Z</time>
      </trkpt>
      <trkpt lat="43.97142" lon="2.22231">
        <ele>250</ele>
        <time>2020-08-25T11:01:36.748Z</time>
      </trkpt>
      <trkpt lat="43.97143" lon="2.22232">
        <ele>250</ele>
        <time>2020-08-25T11:01:37.748Z</time>
      </trkpt>
      <trkpt lat="43.97144" lon="2.22232">
        <ele>250</ele>
        <time>2020-08-25T11:01:38.748Z</time>
      </trkpt>
      <trkpt lat="43.97144" lon="2.22232">
        <ele>250</ele>
        <time>2020-08-25T11:01:39.748Z</time>
      </trkpt>
      <trkpt lat="43.97145" lon="2.22233">
        <ele>250</ele>
        <time>2020-08-25T11:01:40.748Z</time>
      </trkpt>
      <trkpt lat="43.97145" lon="2.22233">
        <ele>250</ele>
        <time>2020-08-25T11:01:41.748Z</time>
      </trkpt>
      <trkpt lat="43.97145" lon="2.22233">
        <ele>250</ele>
        <time>2020-08-25T11:01:42.748Z</time>
      </trkpt>
      <trkpt lat="43.97145" lon="2.22233">
        <ele>250</ele>
        <time>2020-08-25T11:01:43.748Z</time>
      </trkpt>
      <trkpt lat="43.97145" lon="2.22232">
        <ele>250</ele>
        <time>2020-08-25T11:01:44.748Z</time>
      </trkpt>
      <trkpt lat="43.97147" lon="2.2223">
        <ele>251</ele>
        <time>2020-08-25T11:01:55.756Z</time>
      </trkpt>
      <trkpt lat="43.97147" lon="2.22229">
        <ele>251</ele>
        <time>2020-08-25T11:01:56.756Z</time>
      </trkpt>
      <trkpt lat="43.97147" lon="2.22228">
        <ele>251</ele>
        <time>2020-08-25T11:01:57.756Z</time>
      </trkpt>
      <trkpt lat="43.97148" lon="2.22227">
        <ele>251</ele>
        <time>2020-08-25T11:01:58.756Z</time>
      </trkpt>
      <trkpt lat="43.97148" lon="2.22226">
        <ele>251</ele>
        <time>2020-08-25T11:01:59.756Z</time>
      </trkpt>
      <trkpt lat="43.97148" lon="2.22225">
        <ele>252</ele>
        <time>2020-08-25T11:02:00.756Z</time>
      </trkpt>
      <trkpt lat="43.97148" lon="2.22224">
        <ele>252</ele>
        <time>2020-08-25T11:02:01.756Z</time>
      </trkpt>
      <trkpt lat="43.97149" lon="2.22223">
        <ele>252</ele>
        <time>2020-08-25T11:02:02.756Z</time>
      </trkpt>
      <trkpt lat="43.97149" lon="2.22223">
        <ele>252</ele>
        <time>2020-08-25T11:02:03.756Z</time>
      </trkpt>
      <trkpt lat="43.9715" lon="2.22222">
        <ele>252</ele>
        <time>2020-08-25T11:02:04.756Z</time>
      </trkpt>
      <trkpt lat="43.9715" lon="2.22221">
        <ele>252</ele>
        <time>2020-08-25T11:02:05.756Z</time>
      </trkpt>
      <trkpt lat="43.9715" lon="2.2222">
        <ele>252</ele>
        <time>2020-08-25T11:02:06.756Z</time>
      </trkpt>
      <trkpt lat="43.97151" lon="2.2222">
        <ele>253</ele>
        <time>2020-08-25T11:02:07.756Z</time>
      </trkpt>
      <trkpt lat="43.97151" lon="2.22219">
        <ele>253</ele>
        <time>2020-08-25T11:02:08.756Z</time>
      </trkpt>
      <trkpt lat="43.97151" lon="2.22218">
        <ele>253</ele>
        <time>2020-08-25T11:02:09.756Z</time>
      </trkpt>
      <trkpt lat="43.97152" lon="2.22217">
        <ele>253</ele>
        <time>2020-08-25T11:02:10.756Z</time>
      </trkpt>
      <trkpt lat="43.97152" lon="2.22216">
        <ele>253</ele>
        <time>2020-08-25T11:02:11.756Z</time>
      </trkpt>
      <trkpt lat="43.97152" lon="2.22215">
        <ele>253</ele>
        <time>2020-08-25T11:02:12.756Z</time>
      </trkpt>
      <trkpt lat="43.97153" lon="2.22215">
        <ele>253</ele>
        <time>2020-08-25T11:02:13.756Z</time>
      </trkpt>
      <trkpt lat="43.97153" lon="2.22214">
        <ele>254</ele>
        <time>2020-08-25T11:02:14.756Z</time>
      </trkpt>
      <trkpt lat="43.97153" lon="2.22213">
        <ele>254</ele>
        <time>2020-08-25T11:02:15.756Z</time>
      </trkpt>
      <trkpt lat="43.97154" lon="2.22212">
        <ele>254</ele>
        <time>2020-08-25T11:02:16.756Z</time>
      </trkpt>
      <trkpt lat="43.97154" lon="2.22211">
        <ele>254</ele>
        <time>2020-08-25T11:02:17.756Z</time>
      </trkpt>
      <trkpt lat="43.97154" lon="2.2221">
        <ele>254</ele>
        <time>2020-08-25T11:02:18.756Z</time>
      </trkpt>
      <trkpt lat="43.97154" lon="2.22209">
        <ele>255</ele>
        <time>2020-08-25T11:02:19.756Z</time>
      </trkpt>
      <trkpt lat="43.97155" lon="2.22208">
        <ele>255</ele>
        <time>2020-08-25T11:02:20.756Z</time>
      </trkpt>
      <trkpt lat="43.97155" lon="2.22208">
        <ele>255</ele>
        <time>2020-08-25T11:02:21.756Z</time>
      </trkpt>
      <trkpt lat="43.97155" lon="2.22206">
        <ele>255</ele>
        <time>2020-08-25T11:02:22.756Z</time>
      </trkpt>
      <trkpt lat="43.97155" lon="2.22206">
        <ele>255</ele>
        <time>2020-08-25T11:02:23.756Z</time>
      </trkpt>
      <trkpt lat="43.97156" lon="2.22205">
        <ele>256</ele>
        <time>2020-08-25T11:02:24.756Z</time>
      </trkpt>
      <trkpt lat="43.97156" lon="2.22205">
        <ele>256</ele>
        <time>2020-08-25T11:02:25.756Z</time>
      </trkpt>
      <trkpt lat="43.97156" lon="2.22204">
        <ele>256</ele>
        <time>2020-08-25T11:02:26.756Z</time>
      </trkpt>
      <trkpt lat="43.97157" lon="2.22203">
        <ele>256</ele>
        <time>2020-08-25T11:02:27.756Z</time>
      </trkpt>
      <trkpt lat="43.97157" lon="2.22202">
        <ele>256</ele>
        <time>2020-08-25T11:02:28.756Z</time>
      </trkpt>
      <trkpt lat="43.97158" lon="2.22201">
        <ele>256</ele>
        <time>2020-08-25T11:02:29.756Z</time>
      </trkpt>
      <trkpt lat="43.97158" lon="2.222">
        <ele>256</ele>
        <time>2020-08-25T11:02:30.756Z</time>
      </trkpt>
      <trkpt lat="43.97159" lon="2.22199">
        <ele>256</ele>
        <time>2020-08-25T11:02:31.756Z</time>
      </trkpt>
      <trkpt lat="43.97159" lon="2.22198">
        <ele>256</ele>
        <time>2020-08-25T11:02:32.756Z</time>
      </trkpt>
      <trkpt lat="43.97159" lon="2.22197">
        <ele>256</ele>
        <time>2020-08-25T11:02:33.756Z</time>
      </trkpt>
      <trkpt lat="43.9716" lon="2.22195">
        <ele>257</ele>
        <time>2020-08-25T11:02:34.756Z</time>
      </trkpt>
      <trkpt lat="43.9716" lon="2.22194">
        <ele>257</ele>
        <time>2020-08-25T11:02:35.756Z</time>
      </trkpt>
      <trkpt lat="43.9716" lon="2.22193">
        <ele>257</ele>
        <time>2020-08-25T11:02:36.756Z</time>
      </trkpt>
      <trkpt lat="43.9716" lon="2.22192">
        <ele>257</ele>
        <time>2020-08-25T11:02:37.756Z</time>
      </trkpt>
      <trkpt lat="43.97161" lon="2.22191">
        <ele>257</ele>
        <time>2020-08-25T11:02:38.756Z</time>
      </trkpt>
      <trkpt lat="43.97161" lon="2.2219">
        <ele>257</ele>
        <time>2020-08-25T11:02:39.756Z</time>
      </trkpt>
      <trkpt lat="43.97162" lon="2.22189">
        <ele>258</ele>
        <time>2020-08-25T11:02:40.756Z</time>
      </trkpt>
      <trkpt lat="43.97162" lon="2.22188">
        <ele>258</ele>
        <time>2020-08-25T11:02:41.756Z</time>
      </trkpt>
      <trkpt lat="43.97163" lon="2.22187">
        <ele>258</ele>
        <time>2020-08-25T11:02:42.756Z</time>
      </trkpt>
      <trkpt lat="43.97163" lon="2.22186">
        <ele>258</ele>
        <time>2020-08-25T11:02:43.756Z</time>
      </trkpt>
      <trkpt lat="43.97164" lon="2.22185">
        <ele>258</ele>
        <time>2020-08-25T11:02:44.756Z</time>
      </trkpt>
      <trkpt lat="43.97164" lon="2.22184">
        <ele>258</ele>
        <time>2020-08-25T11:02:45.756Z</time>
      </trkpt>
      <trkpt lat="43.97165" lon="2.22183">
        <ele>259</ele>
        <time>2020-08-25T11:02:46.756Z</time>
      </trkpt>
      <trkpt lat="43.97166" lon="2.22182">
        <ele>259</ele>
        <time>2020-08-25T11:02:47.756Z</time>
      </trkpt>
      <trkpt lat="43.97166" lon="2.22181">
        <ele>259</ele>
        <time>2020-08-25T11:02:48.756Z</time>
      </trkpt>
      <trkpt lat="43.97167" lon="2.22179">
        <ele>259</ele>
        <time>2020-08-25T11:02:49.756Z</time>
      </trkpt>
      <trkpt lat="43.97167" lon="2.22178">
        <ele>259</ele>
        <time>2020-08-25T11:02:50.756Z</time>
      </trkpt>
      <trkpt lat="43.97168" lon="2.22177">
        <ele>260</ele>
        <time>2020-08-25T11:02:51.756Z</time>
      </trkpt>
      <trkpt lat="43.97168" lon="2.22177">
        <ele>260</ele>
        <time>2020-08-25T11:02:52.756Z</time>
      </trkpt>
      <trkpt lat="43.97168" lon="2.22176">
        <ele>260</ele>
        <time>2020-08-25T11:02:53.756Z</time>
      </trkpt>
      <trkpt lat="43.97169" lon="2.22174">
        <ele>260</ele>
        <time>2020-08-25T11:02:54.756Z</time>
      </trkpt>
      <trkpt lat="43.97169" lon="2.22173">
        <ele>260</ele>
        <time>2020-08-25T11:02:55.756Z</time>
      </trkpt>
      <trkpt lat="43.97169" lon="2.22172">
        <ele>261</ele>
        <time>2020-08-25T11:02:56.756Z</time>
      </trkpt>
      <trkpt lat="43.97169" lon="2.2217">
        <ele>261</ele>
        <time>2020-08-25T11:02:57.756Z</time>
      </trkpt>
      <trkpt lat="43.97169" lon="2.22169">
        <ele>261</ele>
        <time>2020-08-25T11:02:58.756Z</time>
      </trkpt>
      <trkpt lat="43.9717" lon="2.22167">
        <ele>261</ele>
        <time>2020-08-25T11:02:59.756Z</time>
      </trkpt>
      <trkpt lat="43.97171" lon="2.22166">
        <ele>261</ele>
        <time>2020-08-25T11:03:00.756Z</time>
      </trkpt>
      <trkpt lat="43.97171" lon="2.22164">
        <ele>262</ele>
        <time>2020-08-25T11:03:01.756Z</time>
      </trkpt>
      <trkpt lat="43.97172" lon="2.22163">
        <ele>262</ele>
        <time>2020-08-25T11:03:02.756Z</time>
      </trkpt>
      <trkpt lat="43.97172" lon="2.22162">
        <ele>262</ele>
        <time>2020-08-25T11:03:03.756Z</time>
      </trkpt>
      <trkpt lat="43.97173" lon="2.22161">
        <ele>262</ele>
        <time>2020-08-25T11:03:04.756Z</time>
      </trkpt>
      <trkpt lat="43.97173" lon="2.22159">
        <ele>262</ele>
        <time>2020-08-25T11:03:05.756Z</time>
      </trkpt>
      <trkpt lat="43.97174" lon="2.22158">
        <ele>262</ele>
        <time>2020-08-25T11:03:06.756Z</time>
      </trkpt>
      <trkpt lat="43.97175" lon="2.22157">
        <ele>262</ele>
        <time>2020-08-25T11:03:07.756Z</time>
      </trkpt>
      <trkpt lat="43.97175" lon="2.22156">
        <ele>262</ele>
        <time>2020-08-25T11:03:08.756Z</time>
      </trkpt>
      <trkpt lat="43.97176" lon="2.22155">
        <ele>262</ele>
        <time>2020-08-25T11:03:09.756Z</time>
      </trkpt>
      <trkpt lat="43.97176" lon="2.22154">
        <ele>262</ele>
        <time>2020-08-25T11:03:10.756Z</time>
      </trkpt>
      <trkpt lat="43.97177" lon="2.22152">
        <ele>262</ele>
        <time>2020-08-25T11:03:11.756Z</time>
      </trkpt>
      <trkpt lat="43.97177" lon="2.22151">
        <ele>263</ele>
        <time>2020-08-25T11:03:12.756Z</time>
      </trkpt>
      <trkpt lat="43.97178" lon="2.2215">
        <ele>263</ele>
        <time>2020-08-25T11:03:13.756Z</time>
      </trkpt>
      <trkpt lat="43.97179" lon="2.22148">
        <ele>263</ele>
        <time>2020-08-25T11:03:14.756Z</time>
      </trkpt>
      <trkpt lat="43.97179" lon="2.22147">
        <ele>263</ele>
        <time>2020-08-25T11:03:15.756Z</time>
      </trkpt>
      <trkpt lat="43.97179" lon="2.22146">
        <ele>263</ele>
        <time>2020-08-25T11:03:16.756Z</time>
      </trkpt>
      <trkpt lat="43.9718" lon="2.22144">
        <ele>263</ele>
        <time>2020-08-25T11:03:17.756Z</time>
      </trkpt>
      <trkpt lat="43.9718" lon="2.22143">
        <ele>263</ele>
        <time>2020-08-25T11:03:18.756Z</time>
      </trkpt>
      <trkpt lat="43.9718" lon="2.22142">
        <ele>263</ele>
        <time>2020-08-25T11:03:19.756Z</time>
      </trkpt>
      <trkpt lat="43.97181" lon="2.22141">
        <ele>263</ele>
        <time>2020-08-25T11:03:20.756Z</time>
      </trkpt>
      <trkpt lat="43.97181" lon="2.2214">
        <ele>263</ele>
        <time>2020-08-25T11:03:21.756Z</time>
      </trkpt>
      <trkpt lat="43.97182" lon="2.22139">
        <ele>263</ele>
        <time>2020-08-25T11:03:22.756Z</time>
      </trkpt>
      <trkpt lat="43.97183" lon="2.22138">
        <ele>263</ele>
        <time>2020-08-25T11:03:23.756Z</time>
      </trkpt>
      <trkpt lat="43.97183" lon="2.22137">
        <ele>263</ele>
        <time>2020-08-25T11:03:24.756Z</time>
      </trkpt>
      <trkpt lat="43.97184" lon="2.22135">
        <ele>264</ele>
        <time>2020-08-25T11:03:25.756Z</time>
      </trkpt>
      <trkpt lat="43.97184" lon="2.22134">
        <ele>264</ele>
        <time>2020-08-25T11:03:26.756Z</time>
      </trkpt>
      <trkpt lat="43.97185" lon="2.22133">
        <ele>264</ele>
        <time>2020-08-25T11:03:27.756Z</time>
      </trkpt>
      <trkpt lat="43.97185" lon="2.22132">
        <ele>264</ele>
        <time>2020-08-25T11:03:28.756Z</time>
      </trkpt>
      <trkpt lat="43.97186" lon="2.22131">
        <ele>264</ele>
        <time>2020-08-25T11:03:29.756Z</time>
      </trkpt>
      <trkpt lat="43.97186" lon="2.22129">
        <ele>264</ele>
        <time>2020-08-25T11:03:30.756Z</time>
      </trkpt>
      <trkpt lat="43.97187" lon="2.22128">
        <ele>264</ele>
        <time>2020-08-25T11:03:31.756Z</time>
      </trkpt>
      <trkpt lat="43.97187" lon="2.22127">
        <ele>264</ele>
        <time>2020-08-25T11:03:32.756Z</time>
      </trkpt>
      <trkpt lat="43.97188" lon="2.22126">
        <ele>264</ele>
        <time>2020-08-25T11:03:33.756Z</time>
      </trkpt>
      <trkpt lat="43.97188" lon="2.22125">
        <ele>264</ele>
        <time>2020-08-25T11:03:34.756Z</time>
      </trkpt>
      <trkpt lat="43.97189" lon="2.22124">
        <ele>264</ele>
        <time>2020-08-25T11:03:35.756Z</time>
      </trkpt>
      <trkpt lat="43.9719" lon="2.22123">
        <ele>264</ele>
        <time>2020-08-25T11:03:36.756Z</time>
      </trkpt>
      <trkpt lat="43.9719" lon="2.22122">
        <ele>264</ele>
        <time>2020-08-25T11:03:37.756Z</time>
      </trkpt>
      <trkpt lat="43.97191" lon="2.22121">
        <ele>265</ele>
        <time>2020-08-25T11:03:38.756Z</time>
      </trkpt>
      <trkpt lat="43.97191" lon="2.2212">
        <ele>265</ele>
        <time>2020-08-25T11:03:39.756Z</time>
      </trkpt>
      <trkpt lat="43.97192" lon="2.22118">
        <ele>265</ele>
        <time>2020-08-25T11:03:40.756Z</time>
      </trkpt>
      <trkpt lat="43.97193" lon="2.22117">
        <ele>265</ele>
        <time>2020-08-25T11:03:41.756Z</time>
      </trkpt>
      <trkpt lat="43.97193" lon="2.22116">
        <ele>265</ele>
        <time>2020-08-25T11:03:42.756Z</time>
      </trkpt>
      <trkpt lat="43.97194" lon="2.22115">
        <ele>265</ele>
        <time>2020-08-25T11:03:43.756Z</time>
      </trkpt>
      <trkpt lat="43.97195" lon="2.22114">
        <ele>265</ele>
        <time>2020-08-25T11:03:44.756Z</time>
      </trkpt>
      <trkpt lat="43.97195" lon="2.22113">
        <ele>265</ele>
        <time>2020-08-25T11:03:45.756Z</time>
      </trkpt>
      <trkpt lat="43.97196" lon="2.22111">
        <ele>266</ele>
        <time>2020-08-25T11:03:46.756Z</time>
      </trkpt>
      <trkpt lat="43.97196" lon="2.2211">
        <ele>266</ele>
        <time>2020-08-25T11:03:47.756Z</time>
      </trkpt>
      <trkpt lat="43.97197" lon="2.22109">
        <ele>266</ele>
        <time>2020-08-25T11:03:48.756Z</time>
      </trkpt>
      <trkpt lat="43.97198" lon="2.22109">
        <ele>266</ele>
        <time>2020-08-25T11:03:49.756Z</time>
      </trkpt>
      <trkpt lat="43.972" lon="2.22108">
        <ele>266</ele>
        <time>2020-08-25T11:03:50.756Z</time>
      </trkpt>
      <trkpt lat="43.97201" lon="2.22107">
        <ele>266</ele>
        <time>2020-08-25T11:03:51.756Z</time>
      </trkpt>
      <trkpt lat="43.97202" lon="2.22107">
        <ele>267</ele>
        <time>2020-08-25T11:03:52.756Z</time>
      </trkpt>
      <trkpt lat="43.97203" lon="2.22107">
        <ele>267</ele>
        <time>2020-08-25T11:03:53.756Z</time>
      </trkpt>
      <trkpt lat="43.97203" lon="2.22107">
        <ele>267</ele>
        <time>2020-08-25T11:03:54.756Z</time>
      </trkpt>
      <trkpt lat="43.97204" lon="2.22106">
        <ele>267</ele>
        <time>2020-08-25T11:03:55.756Z</time>
      </trkpt>
      <trkpt lat="43.97205" lon="2.22106">
        <ele>267</ele>
        <time>2020-08-25T11:03:56.756Z</time>
      </trkpt>
      <trkpt lat="43.97206" lon="2.22105">
        <ele>268</ele>
        <time>2020-08-25T11:03:57.756Z</time>
      </trkpt>
      <trkpt lat="43.97207" lon="2.22105">
        <ele>268</ele>
        <time>2020-08-25T11:03:58.756Z</time>
      </trkpt>
      <trkpt lat="43.97207" lon="2.22104">
        <ele>268</ele>
        <time>2020-08-25T11:03:59.756Z</time>
      </trkpt>
      <trkpt lat="43.97208" lon="2.22103">
        <ele>268</ele>
        <time>2020-08-25T11:04:00.756Z</time>
      </trkpt>
      <trkpt lat="43.97209" lon="2.22102">
        <ele>268</ele>
        <time>2020-08-25T11:04:01.756Z</time>
      </trkpt>
      <trkpt lat="43.9721" lon="2.22102">
        <ele>268</ele>
        <time>2020-08-25T11:04:02.756Z</time>
      </trkpt>
      <trkpt lat="43.97211" lon="2.22101">
        <ele>268</ele>
        <time>2020-08-25T11:04:03.756Z</time>
      </trkpt>
      <trkpt lat="43.97212" lon="2.221">
        <ele>268</ele>
        <time>2020-08-25T11:04:04.756Z</time>
      </trkpt>
      <trkpt lat="43.97213" lon="2.22099">
        <ele>268</ele>
        <time>2020-08-25T11:04:05.756Z</time>
      </trkpt>
      <trkpt lat="43.97213" lon="2.22098">
        <ele>268</ele>
        <time>2020-08-25T11:04:06.756Z</time>
      </trkpt>
      <trkpt lat="43.97214" lon="2.22097">
        <ele>268</ele>
        <time>2020-08-25T11:04:07.756Z</time>
      </trkpt>
      <trkpt lat="43.97214" lon="2.22095">
        <ele>268</ele>
        <time>2020-08-25T11:04:08.756Z</time>
      </trkpt>
      <trkpt lat="43.97214" lon="2.22094">
        <ele>268</ele>
        <time>2020-08-25T11:04:09.756Z</time>
      </trkpt>
      <trkpt lat="43.97215" lon="2.22093">
        <ele>268</ele>
        <time>2020-08-25T11:04:10.756Z</time>
      </trkpt>
      <trkpt lat="43.97215" lon="2.22092">
        <ele>268</ele>
        <time>2020-08-25T11:04:11.756Z</time>
      </trkpt>
      <trkpt lat="43.97216" lon="2.2209">
        <ele>268</ele>
        <time>2020-08-25T11:04:12.756Z</time>
      </trkpt>
      <trkpt lat="43.97216" lon="2.22089">
        <ele>268</ele>
        <time>2020-08-25T11:04:13.756Z</time>
      </trkpt>
      <trkpt lat="43.97216" lon="2.22088">
        <ele>268</ele>
        <time>2020-08-25T11:04:14.756Z</time>
      </trkpt>
      <trkpt lat="43.97216" lon="2.22087">
        <ele>268</ele>
        <time>2020-08-25T11:04:15.756Z</time>
      </trkpt>
      <trkpt lat="43.97216" lon="2.22085">
        <ele>268</ele>
        <time>2020-08-25T11:04:16.756Z</time>
      </trkpt>
      <trkpt lat="43.97217" lon="2.22084">
        <ele>268</ele>
        <time>2020-08-25T11:04:17.756Z</time>
      </trkpt>
      <trkpt lat="43.97217" lon="2.22083">
        <ele>268</ele>
        <time>2020-08-25T11:04:18.756Z</time>
      </trkpt>
      <trkpt lat="43.97217" lon="2.22082">
        <ele>268</ele>
        <time>2020-08-25T11:04:19.756Z</time>
      </trkpt>
      <trkpt lat="43.97217" lon="2.22081">
        <ele>268</ele>
        <time>2020-08-25T11:04:20.756Z</time>
      </trkpt>
      <trkpt lat="43.97217" lon="2.22079">
        <ele>269</ele>
        <time>2020-08-25T11:04:21.756Z</time>
      </trkpt>
      <trkpt lat="43.97218" lon="2.22078">
        <ele>269</ele>
        <time>2020-08-25T11:04:22.756Z</time>
      </trkpt>
      <trkpt lat="43.97218" lon="2.22077">
        <ele>269</ele>
        <time>2020-08-25T11:04:23.756Z</time>
      </trkpt>
      <trkpt lat="43.97219" lon="2.22076">
        <ele>269</ele>
        <time>2020-08-25T11:04:24.756Z</time>
      </trkpt>
      <trkpt lat="43.97219" lon="2.22075">
        <ele>269</ele>
        <time>2020-08-25T11:04:25.756Z</time>
      </trkpt>
      <trkpt lat="43.9722" lon="2.22073">
        <ele>269</ele>
        <time>2020-08-25T11:04:26.756Z</time>
      </trkpt>
      <trkpt lat="43.9722" lon="2.22072">
        <ele>269</ele>
        <time>2020-08-25T11:04:27.756Z</time>
      </trkpt>
      <trkpt lat="43.97221" lon="2.22071">
        <ele>269</ele>
        <time>2020-08-25T11:04:28.756Z</time>
      </trkpt>
      <trkpt lat="43.97221" lon="2.22069">
        <ele>270</ele>
        <time>2020-08-25T11:04:29.756Z</time>
      </trkpt>
      <trkpt lat="43.97221" lon="2.22068">
        <ele>270</ele>
        <time>2020-08-25T11:04:30.756Z</time>
      </trkpt>
      <trkpt lat="43.97221" lon="2.22066">
        <ele>270</ele>
        <time>2020-08-25T11:04:31.756Z</time>
      </trkpt>
      <trkpt lat="43.97222" lon="2.22065">
        <ele>270</ele>
        <time>2020-08-25T11:04:32.756Z</time>
      </trkpt>
      <trkpt lat="43.97222" lon="2.22063">
        <ele>270</ele>
        <time>2020-08-25T11:04:33.756Z</time>
      </trkpt>
      <trkpt lat="43.97222" lon="2.22062">
        <ele>270</ele>
        <time>2020-08-25T11:04:34.756Z</time>
      </trkpt>
      <trkpt lat="43.97223" lon="2.22061">
        <ele>270</ele>
        <time>2020-08-25T11:04:35.756Z</time>
      </trkpt>
      <trkpt lat="43.97224" lon="2.2206">
        <ele>270</ele>
        <time>2020-08-25T11:04:36.756Z</time>
      </trkpt>
      <trkpt lat="43.97224" lon="2.22059">
        <ele>270</ele>
        <time>2020-08-25T11:04:37.756Z</time>
      </trkpt>
      <trkpt lat="43.97225" lon="2.22057">
        <ele>270</ele>
        <time>2020-08-25T11:04:38.756Z</time>
      </trkpt>
      <trkpt lat="43.97225" lon="2.22056">
        <ele>270</ele>
        <time>2020-08-25T11:04:39.756Z</time>
      </trkpt>
      <trkpt lat="43.97225" lon="2.22055">
        <ele>270</ele>
        <time>2020-08-25T11:04:40.756Z</time>
      </trkpt>
      <trkpt lat="43.97226" lon="2.22054">
        <ele>271</ele>
        <time>2020-08-25T11:04:41.756Z</time>
      </trkpt>
      <trkpt lat="43.97227" lon="2.22053">
        <ele>271</ele>
        <time>2020-08-25T11:04:42.756Z</time>
      </trkpt>
      <trkpt lat="43.97227" lon="2.22051">
        <ele>271</ele>
        <time>2020-08-25T11:04:43.756Z</time>
      </trkpt>
      <trkpt lat="43.97228" lon="2.2205">
        <ele>271</ele>
        <time>2020-08-25T11:04:44.756Z</time>
      </trkpt>
      <trkpt lat="43.97229" lon="2.22049">
        <ele>271</ele>
        <time>2020-08-25T11:04:45.756Z</time>
      </trkpt>
      <trkpt lat="43.97229" lon="2.22048">
        <ele>271</ele>
        <time>2020-08-25T11:04:46.756Z</time>
      </trkpt>
      <trkpt lat="43.97229" lon="2.22047">
        <ele>271</ele>
        <time>2020-08-25T11:04:47.756Z</time>
      </trkpt>
      <trkpt lat="43.9723" lon="2.22045">
        <ele>272</ele>
        <time>2020-08-25T11:04:48.756Z</time>
      </trkpt>
      <trkpt lat="43.9723" lon="2.22044">
        <ele>272</ele>
        <time>2020-08-25T11:04:49.756Z</time>
      </trkpt>
      <trkpt lat="43.9723" lon="2.22043">
        <ele>272</ele>
        <time>2020-08-25T11:04:50.756Z</time>
      </trkpt>
      <trkpt lat="43.97231" lon="2.22042">
        <ele>272</ele>
        <time>2020-08-25T11:04:51.756Z</time>
      </trkpt>
      <trkpt lat="43.97231" lon="2.2204">
        <ele>272</ele>
        <time>2020-08-25T11:04:52.756Z</time>
      </trkpt>
      <trkpt lat="43.97231" lon="2.22039">
        <ele>272</ele>
        <time>2020-08-25T11:04:53.756Z</time>
      </trkpt>
      <trkpt lat="43.97231" lon="2.22038">
        <ele>272</ele>
        <time>2020-08-25T11:04:54.756Z</time>
      </trkpt>
      <trkpt lat="43.97231" lon="2.22036">
        <ele>273</ele>
        <time>2020-08-25T11:04:55.756Z</time>
      </trkpt>
      <trkpt lat="43.97232" lon="2.22035">
        <ele>273</ele>
        <time>2020-08-25T11:04:56.756Z</time>
      </trkpt>
      <trkpt lat="43.97232" lon="2.22034">
        <ele>273</ele>
        <time>2020-08-25T11:04:57.756Z</time>
      </trkpt>
      <trkpt lat="43.97232" lon="2.22033">
        <ele>273</ele>
        <time>2020-08-25T11:04:58.756Z</time>
      </trkpt>
      <trkpt lat="43.97232" lon="2.22032">
        <ele>273</ele>
        <time>2020-08-25T11:04:59.756Z</time>
      </trkpt>
      <trkpt lat="43.97232" lon="2.22031">
        <ele>273</ele>
        <time>2020-08-25T11:05:00.756Z</time>
      </trkpt>
      <trkpt lat="43.97233" lon="2.22029">
        <ele>273</ele>
        <time>2020-08-25T11:05:01.756Z</time>
      </trkpt>
      <trkpt lat="43.97233" lon="2.22028">
        <ele>273</ele>
        <time>2020-08-25T11:05:02.756Z</time>
      </trkpt>
      <trkpt lat="43.97233" lon="2.22027">
        <ele>274</ele>
        <time>2020-08-25T11:05:03.756Z</time>
      </trkpt>
      <trkpt lat="43.97233" lon="2.22025">
        <ele>274</ele>
        <time>2020-08-25T11:05:04.756Z</time>
      </trkpt>
      <trkpt lat="43.97234" lon="2.22024">
        <ele>274</ele>
        <time>2020-08-25T11:05:05.756Z</time>
      </trkpt>
      <trkpt lat="43.97234" lon="2.22023">
        <ele>274</ele>
        <time>2020-08-25T11:05:06.756Z</time>
      </trkpt>
      <trkpt lat="43.97234" lon="2.22022">
        <ele>274</ele>
        <time>2020-08-25T11:05:07.756Z</time>
      </trkpt>
      <trkpt lat="43.97235" lon="2.2202">
        <ele>274</ele>
        <time>2020-08-25T11:05:08.756Z</time>
      </trkpt>
      <trkpt lat="43.97235" lon="2.22019">
        <ele>274</ele>
        <time>2020-08-25T11:05:09.756Z</time>
      </trkpt>
      <trkpt lat="43.97235" lon="2.22018">
        <ele>274</ele>
        <time>2020-08-25T11:05:10.756Z</time>
      </trkpt>
      <trkpt lat="43.97236" lon="2.22017">
        <ele>274</ele>
        <time>2020-08-25T11:05:11.756Z</time>
      </trkpt>
      <trkpt lat="43.97236" lon="2.22016">
        <ele>274</ele>
        <time>2020-08-25T11:05:12.756Z</time>
      </trkpt>
      <trkpt lat="43.97237" lon="2.22015">
        <ele>274</ele>
        <time>2020-08-25T11:05:13.756Z</time>
      </trkpt>
      <trkpt lat="43.97237" lon="2.22014">
        <ele>275</ele>
        <time>2020-08-25T11:05:14.756Z</time>
      </trkpt>
      <trkpt lat="43.97238" lon="2.22014">
        <ele>275</ele>
        <time>2020-08-25T11:05:15.756Z</time>
      </trkpt>
      <trkpt lat="43.97238" lon="2.22013">
        <ele>275</ele>
        <time>2020-08-25T11:05:16.756Z</time>
      </trkpt>
      <trkpt lat="43.97239" lon="2.22012">
        <ele>275</ele>
        <time>2020-08-25T11:05:17.756Z</time>
      </trkpt>
      <trkpt lat="43.9724" lon="2.22011">
        <ele>275</ele>
        <time>2020-08-25T11:05:18.756Z</time>
      </trkpt>
      <trkpt lat="43.9724" lon="2.2201">
        <ele>276</ele>
        <time>2020-08-25T11:05:19.756Z</time>
      </trkpt>
      <trkpt lat="43.97241" lon="2.22009">
        <ele>276</ele>
        <time>2020-08-25T11:05:20.756Z</time>
      </trkpt>
      <trkpt lat="43.97242" lon="2.22008">
        <ele>276</ele>
        <time>2020-08-25T11:05:21.756Z</time>
      </trkpt>
      <trkpt lat="43.97242" lon="2.22007">
        <ele>277</ele>
        <time>2020-08-25T11:05:22.756Z</time>
      </trkpt>
      <trkpt lat="43.97243" lon="2.22006">
        <ele>277</ele>
        <time>2020-08-25T11:05:23.756Z</time>
      </trkpt>
      <trkpt lat="43.97243" lon="2.22005">
        <ele>277</ele>
        <time>2020-08-25T11:05:24.756Z</time>
      </trkpt>
      <trkpt lat="43.97244" lon="2.22004">
        <ele>278</ele>
        <time>2020-08-25T11:05:25.756Z</time>
      </trkpt>
      <trkpt lat="43.97245" lon="2.22003">
        <ele>278</ele>
        <time>2020-08-25T11:05:26.756Z</time>
      </trkpt>
      <trkpt lat="43.97246" lon="2.22003">
        <ele>278</ele>
        <time>2020-08-25T11:05:27.756Z</time>
      </trkpt>
      <trkpt lat="43.97246" lon="2.22002">
        <ele>278</ele>
        <time>2020-08-25T11:05:28.756Z</time>
      </trkpt>
      <trkpt lat="43.97247" lon="2.22001">
        <ele>279</ele>
        <time>2020-08-25T11:05:29.756Z</time>
      </trkpt>
      <trkpt lat="43.97247" lon="2.22">
        <ele>279</ele>
        <time>2020-08-25T11:05:30.756Z</time>
      </trkpt>
      <trkpt lat="43.97247" lon="2.21998">
        <ele>279</ele>
        <time>2020-08-25T11:05:31.756Z</time>
      </trkpt>
      <trkpt lat="43.97248" lon="2.21997">
        <ele>279</ele>
        <time>2020-08-25T11:05:32.756Z</time>
      </trkpt>
      <trkpt lat="43.97248" lon="2.21996">
        <ele>279</ele>
        <time>2020-08-25T11:05:33.756Z</time>
      </trkpt>
      <trkpt lat="43.97249" lon="2.21995">
        <ele>279</ele>
        <time>2020-08-25T11:05:34.756Z</time>
      </trkpt>
      <trkpt lat="43.9725" lon="2.21994">
        <ele>279</ele>
        <time>2020-08-25T11:05:35.756Z</time>
      </trkpt>
      <trkpt lat="43.9725" lon="2.21993">
        <ele>280</ele>
        <time>2020-08-25T11:05:36.756Z</time>
      </trkpt>
      <trkpt lat="43.97251" lon="2.21992">
        <ele>280</ele>
        <time>2020-08-25T11:05:37.756Z</time>
      </trkpt>
      <trkpt lat="43.97252" lon="2.21992">
        <ele>280</ele>
        <time>2020-08-25T11:05:38.756Z</time>
      </trkpt>
      <trkpt lat="43.97253" lon="2.21991">
        <ele>280</ele>
        <time>2020-08-25T11:05:39.756Z</time>
      </trkpt>
      <trkpt lat="43.97253" lon="2.2199">
        <ele>280</ele>
        <time>2020-08-25T11:05:40.756Z</time>
      </trkpt>
      <trkpt lat="43.97254" lon="2.2199">
        <ele>280</ele>
        <time>2020-08-25T11:05:41.756Z</time>
      </trkpt>
      <trkpt lat="43.97255" lon="2.21989">
        <ele>280</ele>
        <time>2020-08-25T11:05:42.756Z</time>
      </trkpt>
      <trkpt lat="43.97256" lon="2.21988">
        <ele>281</ele>
        <time>2020-08-25T11:05:43.756Z</time>
      </trkpt>
      <trkpt lat="43.97257" lon="2.21988">
        <ele>281</ele>
        <time>2020-08-25T11:05:44.756Z</time>
      </trkpt>
      <trkpt lat="43.97257" lon="2.21987">
        <ele>281</ele>
        <time>2020-08-25T11:05:45.756Z</time>
      </trkpt>
      <trkpt lat="43.97258" lon="2.21986">
        <ele>281</ele>
        <time>2020-08-25T11:05:46.756Z</time>
      </trkpt>
      <trkpt lat="43.97259" lon="2.21985">
        <ele>281</ele>
        <time>2020-08-25T11:05:47.756Z</time>
      </trkpt>
      <trkpt lat="43.97259" lon="2.21984">
        <ele>281</ele>
        <time>2020-08-25T11:05:48.756Z</time>
      </trkpt>
      <trkpt lat="43.9726" lon="2.21984">
        <ele>282</ele>
        <time>2020-08-25T11:05:49.756Z</time>
      </trkpt>
      <trkpt lat="43.97261" lon="2.21983">
        <ele>282</ele>
        <time>2020-08-25T11:05:50.756Z</time>
      </trkpt>
      <trkpt lat="43.97261" lon="2.21982">
        <ele>282</ele>
        <time>2020-08-25T11:05:51.756Z</time>
      </trkpt>
      <trkpt lat="43.97262" lon="2.21981">
        <ele>282</ele>
        <time>2020-08-25T11:05:52.756Z</time>
      </trkpt>
      <trkpt lat="43.97263" lon="2.2198">
        <ele>282</ele>
        <time>2020-08-25T11:05:53.756Z</time>
      </trkpt>
      <trkpt lat="43.97263" lon="2.2198">
        <ele>283</ele>
        <time>2020-08-25T11:05:54.756Z</time>
      </trkpt>
      <trkpt lat="43.97264" lon="2.21979">
        <ele>283</ele>
        <time>2020-08-25T11:05:55.756Z</time>
      </trkpt>
      <trkpt lat="43.97265" lon="2.21978">
        <ele>283</ele>
        <time>2020-08-25T11:05:56.756Z</time>
      </trkpt>
      <trkpt lat="43.97266" lon="2.21977">
        <ele>283</ele>
        <time>2020-08-25T11:05:57.756Z</time>
      </trkpt>
      <trkpt lat="43.97266" lon="2.21976">
        <ele>283</ele>
        <time>2020-08-25T11:05:58.756Z</time>
      </trkpt>
      <trkpt lat="43.97267" lon="2.21975">
        <ele>283</ele>
        <time>2020-08-25T11:05:59.756Z</time>
      </trkpt>
      <trkpt lat="43.97267" lon="2.21975">
        <ele>283</ele>
        <time>2020-08-25T11:06:00.756Z</time>
      </trkpt>
      <trkpt lat="43.97268" lon="2.21974">
        <ele>284</ele>
        <time>2020-08-25T11:06:01.756Z</time>
      </trkpt>
      <trkpt lat="43.97269" lon="2.21973">
        <ele>284</ele>
        <time>2020-08-25T11:06:02.756Z</time>
      </trkpt>
      <trkpt lat="43.9727" lon="2.21972">
        <ele>284</ele>
        <time>2020-08-25T11:06:03.756Z</time>
      </trkpt>
      <trkpt lat="43.9727" lon="2.21972">
        <ele>284</ele>
        <time>2020-08-25T11:06:04.756Z</time>
      </trkpt>
      <trkpt lat="43.97271" lon="2.21971">
        <ele>284</ele>
        <time>2020-08-25T11:06:05.756Z</time>
      </trkpt>
      <trkpt lat="43.97271" lon="2.2197">
        <ele>284</ele>
        <time>2020-08-25T11:06:06.756Z</time>
      </trkpt>
      <trkpt lat="43.97272" lon="2.21969">
        <ele>285</ele>
        <time>2020-08-25T11:06:07.756Z</time>
      </trkpt>
      <trkpt lat="43.97273" lon="2.21968">
        <ele>285</ele>
        <time>2020-08-25T11:06:08.756Z</time>
      </trkpt>
      <trkpt lat="43.97273" lon="2.21967">
        <ele>285</ele>
        <time>2020-08-25T11:06:09.756Z</time>
      </trkpt>
      <trkpt lat="43.97274" lon="2.21966">
        <ele>285</ele>
        <time>2020-08-25T11:06:10.756Z</time>
      </trkpt>
      <trkpt lat="43.97275" lon="2.21965">
        <ele>285</ele>
        <time>2020-08-25T11:06:11.756Z</time>
      </trkpt>
      <trkpt lat="43.97275" lon="2.21965">
        <ele>285</ele>
        <time>2020-08-25T11:06:12.756Z</time>
      </trkpt>
      <trkpt lat="43.97276" lon="2.21964">
        <ele>285</ele>
        <time>2020-08-25T11:06:13.756Z</time>
      </trkpt>
      <trkpt lat="43.97276" lon="2.21963">
        <ele>285</ele>
        <time>2020-08-25T11:06:14.756Z</time>
      </trkpt>
      <trkpt lat="43.97277" lon="2.21962">
        <ele>286</ele>
        <time>2020-08-25T11:06:15.756Z</time>
      </trkpt>
      <trkpt lat="43.97277" lon="2.21961">
        <ele>286</ele>
        <time>2020-08-25T11:06:16.756Z</time>
      </trkpt>
      <trkpt lat="43.97278" lon="2.2196">
        <ele>286</ele>
        <time>2020-08-25T11:06:17.756Z</time>
      </trkpt>
      <trkpt lat="43.97278" lon="2.21959">
        <ele>286</ele>
        <time>2020-08-25T11:06:18.756Z</time>
      </trkpt>
      <trkpt lat="43.97279" lon="2.21958">
        <ele>286</ele>
        <time>2020-08-25T11:06:19.756Z</time>
      </trkpt>
      <trkpt lat="43.97279" lon="2.21957">
        <ele>286</ele>
        <time>2020-08-25T11:06:20.756Z</time>
      </trkpt>
      <trkpt lat="43.9728" lon="2.21956">
        <ele>286</ele>
        <time>2020-08-25T11:06:21.756Z</time>
      </trkpt>
      <trkpt lat="43.97281" lon="2.21955">
        <ele>286</ele>
        <time>2020-08-25T11:06:22.756Z</time>
      </trkpt>
      <trkpt lat="43.97281" lon="2.21955">
        <ele>286</ele>
        <time>2020-08-25T11:06:23.756Z</time>
      </trkpt>
      <trkpt lat="43.97282" lon="2.21954">
        <ele>286</ele>
        <time>2020-08-25T11:06:24.756Z</time>
      </trkpt>
      <trkpt lat="43.97283" lon="2.21953">
        <ele>287</ele>
        <time>2020-08-25T11:06:25.756Z</time>
      </trkpt>
      <trkpt lat="43.97284" lon="2.21952">
        <ele>287</ele>
        <time>2020-08-25T11:06:26.756Z</time>
      </trkpt>
      <trkpt lat="43.97284" lon="2.21952">
        <ele>287</ele>
        <time>2020-08-25T11:06:27.756Z</time>
      </trkpt>
      <trkpt lat="43.97285" lon="2.21951">
        <ele>287</ele>
        <time>2020-08-25T11:06:28.756Z</time>
      </trkpt>
      <trkpt lat="43.97286" lon="2.2195">
        <ele>287</ele>
        <time>2020-08-25T11:06:29.756Z</time>
      </trkpt>
      <trkpt lat="43.97287" lon="2.21949">
        <ele>288</ele>
        <time>2020-08-25T11:06:30.756Z</time>
      </trkpt>
      <trkpt lat="43.97288" lon="2.21948">
        <ele>288</ele>
        <time>2020-08-25T11:06:31.756Z</time>
      </trkpt>
      <trkpt lat="43.97288" lon="2.21948">
        <ele>288</ele>
        <time>2020-08-25T11:06:32.756Z</time>
      </trkpt>
      <trkpt lat="43.97289" lon="2.21947">
        <ele>288</ele>
        <time>2020-08-25T11:06:33.756Z</time>
      </trkpt>
      <trkpt lat="43.9729" lon="2.21946">
        <ele>288</ele>
        <time>2020-08-25T11:06:34.756Z</time>
      </trkpt>
      <trkpt lat="43.9729" lon="2.21945">
        <ele>288</ele>
        <time>2020-08-25T11:06:35.756Z</time>
      </trkpt>
      <trkpt lat="43.97291" lon="2.21944">
        <ele>289</ele>
        <time>2020-08-25T11:06:36.756Z</time>
      </trkpt>
      <trkpt lat="43.97291" lon="2.21943">
        <ele>289</ele>
        <time>2020-08-25T11:06:37.756Z</time>
      </trkpt>
      <trkpt lat="43.97292" lon="2.21943">
        <ele>289</ele>
        <time>2020-08-25T11:06:38.756Z</time>
      </trkpt>
      <trkpt lat="43.97292" lon="2.21942">
        <ele>289</ele>
        <time>2020-08-25T11:06:39.756Z</time>
      </trkpt>
      <trkpt lat="43.97293" lon="2.21941">
        <ele>289</ele>
        <time>2020-08-25T11:06:40.756Z</time>
      </trkpt>
      <trkpt lat="43.97294" lon="2.21941">
        <ele>290</ele>
        <time>2020-08-25T11:06:41.756Z</time>
      </trkpt>
      <trkpt lat="43.97295" lon="2.2194">
        <ele>290</ele>
        <time>2020-08-25T11:06:42.756Z</time>
      </trkpt>
      <trkpt lat="43.97295" lon="2.2194">
        <ele>290</ele>
        <time>2020-08-25T11:06:43.756Z</time>
      </trkpt>
      <trkpt lat="43.97296" lon="2.21939">
        <ele>290</ele>
        <time>2020-08-25T11:06:44.756Z</time>
      </trkpt>
      <trkpt lat="43.97296" lon="2.21938">
        <ele>290</ele>
        <time>2020-08-25T11:06:45.756Z</time>
      </trkpt>
      <trkpt lat="43.97297" lon="2.21937">
        <ele>290</ele>
        <time>2020-08-25T11:06:46.756Z</time>
      </trkpt>
      <trkpt lat="43.97297" lon="2.21936">
        <ele>290</ele>
        <time>2020-08-25T11:06:47.756Z</time>
      </trkpt>
      <trkpt lat="43.97298" lon="2.21935">
        <ele>290</ele>
        <time>2020-08-25T11:06:48.756Z</time>
      </trkpt>
      <trkpt lat="43.97298" lon="2.21934">
        <ele>290</ele>
        <time>2020-08-25T11:06:49.756Z</time>
      </trkpt>
      <trkpt lat="43.97299" lon="2.21933">
        <ele>291</ele>
        <time>2020-08-25T11:06:50.756Z</time>
      </trkpt>
      <trkpt lat="43.97299" lon="2.21932">
        <ele>291</ele>
        <time>2020-08-25T11:06:51.756Z</time>
      </trkpt>
      <trkpt lat="43.973" lon="2.21931">
        <ele>291</ele>
        <time>2020-08-25T11:06:52.756Z</time>
      </trkpt>
      <trkpt lat="43.973" lon="2.2193">
        <ele>291</ele>
        <time>2020-08-25T11:06:53.756Z</time>
      </trkpt>
      <trkpt lat="43.97301" lon="2.21929">
        <ele>291</ele>
        <time>2020-08-25T11:06:54.756Z</time>
      </trkpt>
      <trkpt lat="43.97302" lon="2.21928">
        <ele>291</ele>
        <time>2020-08-25T11:06:55.756Z</time>
      </trkpt>
      <trkpt lat="43.97302" lon="2.21927">
        <ele>291</ele>
        <time>2020-08-25T11:06:56.756Z</time>
      </trkpt>
      <trkpt lat="43.97303" lon="2.21926">
        <ele>292</ele>
        <time>2020-08-25T11:06:57.756Z</time>
      </trkpt>
      <trkpt lat="43.97303" lon="2.21926">
        <ele>292</ele>
        <time>2020-08-25T11:06:58.756Z</time>
      </trkpt>
      <trkpt lat="43.97304" lon="2.21925">
        <ele>292</ele>
        <time>2020-08-25T11:06:59.756Z</time>
      </trkpt>
      <trkpt lat="43.97304" lon="2.21925">
        <ele>292</ele>
        <time>2020-08-25T11:07:00.756Z</time>
      </trkpt>
      <trkpt lat="43.97304" lon="2.21924">
        <ele>292</ele>
        <time>2020-08-25T11:07:01.756Z</time>
      </trkpt>
      <trkpt lat="43.97304" lon="2.21924">
        <ele>292</ele>
        <time>2020-08-25T11:07:02.756Z</time>
      </trkpt>
      <trkpt lat="43.97304" lon="2.21922">
        <ele>292</ele>
        <time>2020-08-25T11:07:05.983Z</time>
      </trkpt>
      <trkpt lat="43.97304" lon="2.21922">
        <ele>292</ele>
        <time>2020-08-25T11:07:06.983Z</time>
      </trkpt>
      <trkpt lat="43.97304" lon="2.21922">
        <ele>292</ele>
        <time>2020-08-25T11:07:07.983Z</time>
      </trkpt>
      <trkpt lat="43.97304" lon="2.21921">
        <ele>292</ele>
        <time>2020-08-25T11:07:08.983Z</time>
      </trkpt>
      <trkpt lat="43.97304" lon="2.21921">
        <ele>292</ele>
        <time>2020-08-25T11:07:09.983Z</time>
      </trkpt>
      <trkpt lat="43.97306" lon="2.21922">
        <ele>293</ele>
        <time>2020-08-25T11:07:13.209Z</time>
      </trkpt>
      <trkpt lat="43.97306" lon="2.21922">
        <ele>293</ele>
        <time>2020-08-25T11:07:14.209Z</time>
      </trkpt>
      <trkpt lat="43.97306" lon="2.21922">
        <ele>293</ele>
        <time>2020-08-25T11:07:15.209Z</time>
      </trkpt>
      <trkpt lat="43.97305" lon="2.21922">
        <ele>293</ele>
        <time>2020-08-25T11:07:16.209Z</time>
      </trkpt>
      <trkpt lat="43.97305" lon="2.21921">
        <ele>293</ele>
        <time>2020-08-25T11:07:17.209Z</time>
      </trkpt>
      <trkpt lat="43.97306" lon="2.2192">
        <ele>293</ele>
        <time>2020-08-25T11:07:24.221Z</time>
      </trkpt>
      <trkpt lat="43.97306" lon="2.21919">
        <ele>293</ele>
        <time>2020-08-25T11:07:25.221Z</time>
      </trkpt>
      <trkpt lat="43.97307" lon="2.21918">
        <ele>293</ele>
        <time>2020-08-25T11:07:26.221Z</time>
      </trkpt>
      <trkpt lat="43.97307" lon="2.21917">
        <ele>294</ele>
        <time>2020-08-25T11:07:27.221Z</time>
      </trkpt>
      <trkpt lat="43.97308" lon="2.21917">
        <ele>294</ele>
        <time>2020-08-25T11:07:28.221Z</time>
      </trkpt>
      <trkpt lat="43.97308" lon="2.21916">
        <ele>294</ele>
        <time>2020-08-25T11:07:29.221Z</time>
      </trkpt>
      <trkpt lat="43.97309" lon="2.21915">
        <ele>294</ele>
        <time>2020-08-25T11:07:30.221Z</time>
      </trkpt>
      <trkpt lat="43.9731" lon="2.21914">
        <ele>294</ele>
        <time>2020-08-25T11:07:31.221Z</time>
      </trkpt>
      <trkpt lat="43.9731" lon="2.21913">
        <ele>294</ele>
        <time>2020-08-25T11:07:32.221Z</time>
      </trkpt>
      <trkpt lat="43.97311" lon="2.21911">
        <ele>294</ele>
        <time>2020-08-25T11:07:33.221Z</time>
      </trkpt>
      <trkpt lat="43.97311" lon="2.2191">
        <ele>294</ele>
        <time>2020-08-25T11:07:34.221Z</time>
      </trkpt>
      <trkpt lat="43.97312" lon="2.21909">
        <ele>294</ele>
        <time>2020-08-25T11:07:35.221Z</time>
      </trkpt>
      <trkpt lat="43.97312" lon="2.21908">
        <ele>294</ele>
        <time>2020-08-25T11:07:36.221Z</time>
      </trkpt>
      <trkpt lat="43.97313" lon="2.21907">
        <ele>294</ele>
        <time>2020-08-25T11:07:37.221Z</time>
      </trkpt>
      <trkpt lat="43.97314" lon="2.21906">
        <ele>294</ele>
        <time>2020-08-25T11:07:38.221Z</time>
      </trkpt>
      <trkpt lat="43.97315" lon="2.21905">
        <ele>294</ele>
        <time>2020-08-25T11:07:39.221Z</time>
      </trkpt>
      <trkpt lat="43.97316" lon="2.21904">
        <ele>294</ele>
        <time>2020-08-25T11:07:40.221Z</time>
      </trkpt>
      <trkpt lat="43.97316" lon="2.21903">
        <ele>294</ele>
        <time>2020-08-25T11:07:41.221Z</time>
      </trkpt>
      <trkpt lat="43.97317" lon="2.21902">
        <ele>295</ele>
        <time>2020-08-25T11:07:42.221Z</time>
      </trkpt>
      <trkpt lat="43.97318" lon="2.21901">
        <ele>295</ele>
        <time>2020-08-25T11:07:43.221Z</time>
      </trkpt>
      <trkpt lat="43.97319" lon="2.219">
        <ele>295</ele>
        <time>2020-08-25T11:07:44.221Z</time>
      </trkpt>
      <trkpt lat="43.9732" lon="2.21899">
        <ele>295</ele>
        <time>2020-08-25T11:07:45.221Z</time>
      </trkpt>
      <trkpt lat="43.9732" lon="2.21898">
        <ele>295</ele>
        <time>2020-08-25T11:07:46.221Z</time>
      </trkpt>
      <trkpt lat="43.97321" lon="2.21897">
        <ele>295</ele>
        <time>2020-08-25T11:07:47.221Z</time>
      </trkpt>
      <trkpt lat="43.97322" lon="2.21897">
        <ele>296</ele>
        <time>2020-08-25T11:07:48.221Z</time>
      </trkpt>
      <trkpt lat="43.97323" lon="2.21896">
        <ele>296</ele>
        <time>2020-08-25T11:07:49.221Z</time>
      </trkpt>
      <trkpt lat="43.97324" lon="2.21895">
        <ele>296</ele>
        <time>2020-08-25T11:07:50.221Z</time>
      </trkpt>
      <trkpt lat="43.97325" lon="2.21893">
        <ele>296</ele>
        <time>2020-08-25T11:07:51.221Z</time>
      </trkpt>
      <trkpt lat="43.97325" lon="2.21893">
        <ele>296</ele>
        <time>2020-08-25T11:07:52.221Z</time>
      </trkpt>
      <trkpt lat="43.97326" lon="2.21892">
        <ele>296</ele>
        <time>2020-08-25T11:07:53.221Z</time>
      </trkpt>
      <trkpt lat="43.97327" lon="2.21891">
        <ele>296</ele>
        <time>2020-08-25T11:07:54.221Z</time>
      </trkpt>
      <trkpt lat="43.97327" lon="2.2189">
        <ele>296</ele>
        <time>2020-08-25T11:07:55.221Z</time>
      </trkpt>
      <trkpt lat="43.97328" lon="2.21889">
        <ele>296</ele>
        <time>2020-08-25T11:07:56.221Z</time>
      </trkpt>
      <trkpt lat="43.97329" lon="2.21888">
        <ele>296</ele>
        <time>2020-08-25T11:07:57.221Z</time>
      </trkpt>
      <trkpt lat="43.97329" lon="2.21887">
        <ele>296</ele>
        <time>2020-08-25T11:07:58.221Z</time>
      </trkpt>
      <trkpt lat="43.9733" lon="2.21886">
        <ele>296</ele>
        <time>2020-08-25T11:07:59.221Z</time>
      </trkpt>
      <trkpt lat="43.97331" lon="2.21886">
        <ele>296</ele>
        <time>2020-08-25T11:08:00.221Z</time>
      </trkpt>
      <trkpt lat="43.97331" lon="2.21885">
        <ele>295</ele>
        <time>2020-08-25T11:08:01.221Z</time>
      </trkpt>
      <trkpt lat="43.97332" lon="2.21884">
        <ele>295</ele>
        <time>2020-08-25T11:08:02.221Z</time>
      </trkpt>
      <trkpt lat="43.97332" lon="2.21883">
        <ele>295</ele>
        <time>2020-08-25T11:08:03.221Z</time>
      </trkpt>
      <trkpt lat="43.97333" lon="2.21881">
        <ele>295</ele>
        <time>2020-08-25T11:08:04.221Z</time>
      </trkpt>
      <trkpt lat="43.97333" lon="2.2188">
        <ele>295</ele>
        <time>2020-08-25T11:08:05.221Z</time>
      </trkpt>
      <trkpt lat="43.97334" lon="2.21879">
        <ele>295</ele>
        <time>2020-08-25T11:08:06.221Z</time>
      </trkpt>
      <trkpt lat="43.97334" lon="2.21878">
        <ele>296</ele>
        <time>2020-08-25T11:08:07.221Z</time>
      </trkpt>
      <trkpt lat="43.97335" lon="2.21877">
        <ele>296</ele>
        <time>2020-08-25T11:08:08.221Z</time>
      </trkpt>
      <trkpt lat="43.97335" lon="2.21876">
        <ele>296</ele>
        <time>2020-08-25T11:08:09.221Z</time>
      </trkpt>
      <trkpt lat="43.97336" lon="2.21875">
        <ele>296</ele>
        <time>2020-08-25T11:08:10.221Z</time>
      </trkpt>
      <trkpt lat="43.97336" lon="2.21874">
        <ele>296</ele>
        <time>2020-08-25T11:08:11.221Z</time>
      </trkpt>
      <trkpt lat="43.97336" lon="2.21873">
        <ele>296</ele>
        <time>2020-08-25T11:08:12.221Z</time>
      </trkpt>
      <trkpt lat="43.97337" lon="2.21872">
        <ele>296</ele>
        <time>2020-08-25T11:08:13.221Z</time>
      </trkpt>
      <trkpt lat="43.97337" lon="2.2187">
        <ele>296</ele>
        <time>2020-08-25T11:08:14.221Z</time>
      </trkpt>
      <trkpt lat="43.97337" lon="2.21869">
        <ele>296</ele>
        <time>2020-08-25T11:08:15.221Z</time>
      </trkpt>
      <trkpt lat="43.97338" lon="2.21868">
        <ele>296</ele>
        <time>2020-08-25T11:08:16.221Z</time>
      </trkpt>
      <trkpt lat="43.97338" lon="2.21866">
        <ele>296</ele>
        <time>2020-08-25T11:08:17.221Z</time>
      </trkpt>
      <trkpt lat="43.97338" lon="2.21865">
        <ele>297</ele>
        <time>2020-08-25T11:08:18.221Z</time>
      </trkpt>
      <trkpt lat="43.97339" lon="2.21864">
        <ele>297</ele>
        <time>2020-08-25T11:08:19.221Z</time>
      </trkpt>
      <trkpt lat="43.97339" lon="2.21862">
        <ele>297</ele>
        <time>2020-08-25T11:08:20.221Z</time>
      </trkpt>
      <trkpt lat="43.97339" lon="2.21861">
        <ele>297</ele>
        <time>2020-08-25T11:08:21.221Z</time>
      </trkpt>
      <trkpt lat="43.97339" lon="2.2186">
        <ele>297</ele>
        <time>2020-08-25T11:08:22.221Z</time>
      </trkpt>
      <trkpt lat="43.97339" lon="2.21859">
        <ele>297</ele>
        <time>2020-08-25T11:08:23.221Z</time>
      </trkpt>
      <trkpt lat="43.9734" lon="2.21857">
        <ele>298</ele>
        <time>2020-08-25T11:08:24.221Z</time>
      </trkpt>
      <trkpt lat="43.9734" lon="2.21856">
        <ele>298</ele>
        <time>2020-08-25T11:08:25.221Z</time>
      </trkpt>
      <trkpt lat="43.97341" lon="2.21855">
        <ele>298</ele>
        <time>2020-08-25T11:08:26.221Z</time>
      </trkpt>
      <trkpt lat="43.97341" lon="2.21854">
        <ele>298</ele>
        <time>2020-08-25T11:08:27.221Z</time>
      </trkpt>
      <trkpt lat="43.97341" lon="2.21852">
        <ele>298</ele>
        <time>2020-08-25T11:08:28.221Z</time>
      </trkpt>
      <trkpt lat="43.97342" lon="2.21851">
        <ele>298</ele>
        <time>2020-08-25T11:08:29.221Z</time>
      </trkpt>
      <trkpt lat="43.97342" lon="2.2185">
        <ele>298</ele>
        <time>2020-08-25T11:08:30.221Z</time>
      </trkpt>
      <trkpt lat="43.97342" lon="2.21849">
        <ele>298</ele>
        <time>2020-08-25T11:08:31.221Z</time>
      </trkpt>
      <trkpt lat="43.97342" lon="2.21848">
        <ele>298</ele>
        <time>2020-08-25T11:08:32.221Z</time>
      </trkpt>
      <trkpt lat="43.97343" lon="2.21846">
        <ele>298</ele>
        <time>2020-08-25T11:08:33.221Z</time>
      </trkpt>
      <trkpt lat="43.97343" lon="2.21845">
        <ele>298</ele>
        <time>2020-08-25T11:08:34.221Z</time>
      </trkpt>
      <trkpt lat="43.97344" lon="2.21844">
        <ele>298</ele>
        <time>2020-08-25T11:08:35.221Z</time>
      </trkpt>
      <trkpt lat="43.97344" lon="2.21843">
        <ele>298</ele>
        <time>2020-08-25T11:08:36.221Z</time>
      </trkpt>
      <trkpt lat="43.97345" lon="2.21841">
        <ele>299</ele>
        <time>2020-08-25T11:08:37.221Z</time>
      </trkpt>
      <trkpt lat="43.97346" lon="2.2184">
        <ele>299</ele>
        <time>2020-08-25T11:08:38.221Z</time>
      </trkpt>
      <trkpt lat="43.97346" lon="2.21839">
        <ele>299</ele>
        <time>2020-08-25T11:08:39.221Z</time>
      </trkpt>
      <trkpt lat="43.97346" lon="2.21838">
        <ele>299</ele>
        <time>2020-08-25T11:08:40.221Z</time>
      </trkpt>
      <trkpt lat="43.97347" lon="2.21836">
        <ele>299</ele>
        <time>2020-08-25T11:08:41.221Z</time>
      </trkpt>
      <trkpt lat="43.97347" lon="2.21835">
        <ele>300</ele>
        <time>2020-08-25T11:08:42.221Z</time>
      </trkpt>
      <trkpt lat="43.97347" lon="2.21833">
        <ele>300</ele>
        <time>2020-08-25T11:08:43.221Z</time>
      </trkpt>
      <trkpt lat="43.97347" lon="2.21831">
        <ele>300</ele>
        <time>2020-08-25T11:08:44.221Z</time>
      </trkpt>
      <trkpt lat="43.97348" lon="2.2183">
        <ele>300</ele>
        <time>2020-08-25T11:08:45.221Z</time>
      </trkpt>
      <trkpt lat="43.97348" lon="2.21828">
        <ele>301</ele>
        <time>2020-08-25T11:08:46.221Z</time>
      </trkpt>
      <trkpt lat="43.97348" lon="2.21826">
        <ele>301</ele>
        <time>2020-08-25T11:08:47.221Z</time>
      </trkpt>
      <trkpt lat="43.97349" lon="2.21825">
        <ele>301</ele>
        <time>2020-08-25T11:08:48.221Z</time>
      </trkpt>
      <trkpt lat="43.97349" lon="2.21823">
        <ele>301</ele>
        <time>2020-08-25T11:08:49.221Z</time>
      </trkpt>
      <trkpt lat="43.97349" lon="2.21822">
        <ele>301</ele>
        <time>2020-08-25T11:08:50.221Z</time>
      </trkpt>
      <trkpt lat="43.9735" lon="2.2182">
        <ele>301</ele>
        <time>2020-08-25T11:08:51.221Z</time>
      </trkpt>
      <trkpt lat="43.9735" lon="2.21818">
        <ele>301</ele>
        <time>2020-08-25T11:08:52.221Z</time>
      </trkpt>
      <trkpt lat="43.9735" lon="2.21817">
        <ele>302</ele>
        <time>2020-08-25T11:08:53.221Z</time>
      </trkpt>
      <trkpt lat="43.9735" lon="2.21816">
        <ele>302</ele>
        <time>2020-08-25T11:08:54.221Z</time>
      </trkpt>
      <trkpt lat="43.9735" lon="2.21815">
        <ele>302</ele>
        <time>2020-08-25T11:08:55.221Z</time>
      </trkpt>
      <trkpt lat="43.9735" lon="2.21815">
        <ele>302</ele>
        <time>2020-08-25T11:08:56.221Z</time>
      </trkpt>
      <trkpt lat="43.9735" lon="2.21815">
        <ele>302</ele>
        <time>2020-08-25T11:08:57.221Z</time>
      </trkpt>
      <trkpt lat="43.9735" lon="2.21815">
        <ele>302</ele>
        <time>2020-08-25T11:08:58.221Z</time>
      </trkpt>
      <trkpt lat="43.97349" lon="2.21812">
        <ele>302</ele>
        <time>2020-08-25T11:09:11.219Z</time>
      </trkpt>
      <trkpt lat="43.9735" lon="2.21811">
        <ele>303</ele>
        <time>2020-08-25T11:09:12.219Z</time>
      </trkpt>
      <trkpt lat="43.9735" lon="2.21809">
        <ele>303</ele>
        <time>2020-08-25T11:09:13.219Z</time>
      </trkpt>
      <trkpt lat="43.9735" lon="2.21808">
        <ele>303</ele>
        <time>2020-08-25T11:09:14.219Z</time>
      </trkpt>
      <trkpt lat="43.9735" lon="2.21807">
        <ele>303</ele>
        <time>2020-08-25T11:09:15.219Z</time>
      </trkpt>
      <trkpt lat="43.9735" lon="2.21806">
        <ele>303</ele>
        <time>2020-08-25T11:09:16.219Z</time>
      </trkpt>
      <trkpt lat="43.9735" lon="2.21805">
        <ele>303</ele>
        <time>2020-08-25T11:09:17.219Z</time>
      </trkpt>
      <trkpt lat="43.9735" lon="2.21805">
        <ele>303</ele>
        <time>2020-08-25T11:09:18.219Z</time>
      </trkpt>
      <trkpt lat="43.9735" lon="2.21805">
        <ele>303</ele>
        <time>2020-08-25T11:09:19.219Z</time>
      </trkpt>
      <trkpt lat="43.97351" lon="2.21805">
        <ele>303</ele>
        <time>2020-08-25T11:09:20.219Z</time>
      </trkpt>
      <trkpt lat="43.97351" lon="2.21805">
        <ele>303</ele>
        <time>2020-08-25T11:09:21.219Z</time>
      </trkpt>
      <trkpt lat="43.9735" lon="2.21803">
        <ele>303</ele>
        <time>2020-08-25T11:09:25.238Z</time>
      </trkpt>
      <trkpt lat="43.9735" lon="2.21802">
        <ele>303</ele>
        <time>2020-08-25T11:09:26.238Z</time>
      </trkpt>
      <trkpt lat="43.97349" lon="2.21801">
        <ele>303</ele>
        <time>2020-08-25T11:09:27.238Z</time>
      </trkpt>
      <trkpt lat="43.97349" lon="2.21799">
        <ele>303</ele>
        <time>2020-08-25T11:09:28.238Z</time>
      </trkpt>
      <trkpt lat="43.97349" lon="2.21797">
        <ele>303</ele>
        <time>2020-08-25T11:09:29.238Z</time>
      </trkpt>
      <trkpt lat="43.97349" lon="2.21796">
        <ele>303</ele>
        <time>2020-08-25T11:09:30.238Z</time>
      </trkpt>
      <trkpt lat="43.97348" lon="2.21794">
        <ele>303</ele>
        <time>2020-08-25T11:09:31.238Z</time>
      </trkpt>
      <trkpt lat="43.97348" lon="2.21792">
        <ele>303</ele>
        <time>2020-08-25T11:09:32.238Z</time>
      </trkpt>
      <trkpt lat="43.97348" lon="2.21791">
        <ele>303</ele>
        <time>2020-08-25T11:09:33.238Z</time>
      </trkpt>
      <trkpt lat="43.97348" lon="2.21789">
        <ele>303</ele>
        <time>2020-08-25T11:09:34.238Z</time>
      </trkpt>
      <trkpt lat="43.97348" lon="2.21788">
        <ele>303</ele>
        <time>2020-08-25T11:09:35.238Z</time>
      </trkpt>
      <trkpt lat="43.97348" lon="2.21786">
        <ele>303</ele>
        <time>2020-08-25T11:09:36.238Z</time>
      </trkpt>
      <trkpt lat="43.97347" lon="2.21784">
        <ele>303</ele>
        <time>2020-08-25T11:09:37.238Z</time>
      </trkpt>
      <trkpt lat="43.97347" lon="2.21782">
        <ele>303</ele>
        <time>2020-08-25T11:09:38.238Z</time>
      </trkpt>
      <trkpt lat="43.97347" lon="2.21781">
        <ele>303</ele>
        <time>2020-08-25T11:09:39.238Z</time>
      </trkpt>
      <trkpt lat="43.97347" lon="2.21779">
        <ele>303</ele>
        <time>2020-08-25T11:09:40.238Z</time>
      </trkpt>
      <trkpt lat="43.97347" lon="2.21778">
        <ele>303</ele>
        <time>2020-08-25T11:09:41.238Z</time>
      </trkpt>
      <trkpt lat="43.97347" lon="2.21776">
        <ele>303</ele>
        <time>2020-08-25T11:09:42.238Z</time>
      </trkpt>
      <trkpt lat="43.97347" lon="2.21775">
        <ele>303</ele>
        <time>2020-08-25T11:09:43.238Z</time>
      </trkpt>
      <trkpt lat="43.97347" lon="2.21774">
        <ele>303</ele>
        <time>2020-08-25T11:09:44.238Z</time>
      </trkpt>
      <trkpt lat="43.97347" lon="2.21772">
        <ele>303</ele>
        <time>2020-08-25T11:09:45.238Z</time>
      </trkpt>
      <trkpt lat="43.97346" lon="2.21771">
        <ele>302</ele>
        <time>2020-08-25T11:09:46.238Z</time>
      </trkpt>
      <trkpt lat="43.97346" lon="2.2177">
        <ele>302</ele>
        <time>2020-08-25T11:09:47.238Z</time>
      </trkpt>
      <trkpt lat="43.97346" lon="2.21768">
        <ele>302</ele>
        <time>2020-08-25T11:09:48.238Z</time>
      </trkpt>
      <trkpt lat="43.97346" lon="2.21767">
        <ele>302</ele>
        <time>2020-08-25T11:09:49.238Z</time>
      </trkpt>
      <trkpt lat="43.97346" lon="2.21765">
        <ele>302</ele>
        <time>2020-08-25T11:09:50.238Z</time>
      </trkpt>
      <trkpt lat="43.97346" lon="2.21764">
        <ele>302</ele>
        <time>2020-08-25T11:09:51.238Z</time>
      </trkpt>
      <trkpt lat="43.97345" lon="2.21762">
        <ele>302</ele>
        <time>2020-08-25T11:09:52.238Z</time>
      </trkpt>
      <trkpt lat="43.97345" lon="2.2176">
        <ele>302</ele>
        <time>2020-08-25T11:09:53.238Z</time>
      </trkpt>
      <trkpt lat="43.97345" lon="2.21759">
        <ele>302</ele>
        <time>2020-08-25T11:09:54.238Z</time>
      </trkpt>
      <trkpt lat="43.97345" lon="2.21757">
        <ele>302</ele>
        <time>2020-08-25T11:09:55.238Z</time>
      </trkpt>
      <trkpt lat="43.97345" lon="2.21756">
        <ele>302</ele>
        <time>2020-08-25T11:09:56.238Z</time>
      </trkpt>
      <trkpt lat="43.97345" lon="2.21754">
        <ele>302</ele>
        <time>2020-08-25T11:09:57.238Z</time>
      </trkpt>
      <trkpt lat="43.97345" lon="2.21753">
        <ele>302</ele>
        <time>2020-08-25T11:09:58.238Z</time>
      </trkpt>
      <trkpt lat="43.97344" lon="2.21751">
        <ele>302</ele>
        <time>2020-08-25T11:09:59.238Z</time>
      </trkpt>
      <trkpt lat="43.97344" lon="2.2175">
        <ele>302</ele>
        <time>2020-08-25T11:10:00.238Z</time>
      </trkpt>
      <trkpt lat="43.97344" lon="2.21749">
        <ele>302</ele>
        <time>2020-08-25T11:10:01.238Z</time>
      </trkpt>
      <trkpt lat="43.97344" lon="2.21747">
        <ele>302</ele>
        <time>2020-08-25T11:10:02.238Z</time>
      </trkpt>
      <trkpt lat="43.97344" lon="2.21745">
        <ele>302</ele>
        <time>2020-08-25T11:10:03.238Z</time>
      </trkpt>
      <trkpt lat="43.97343" lon="2.21744">
        <ele>302</ele>
        <time>2020-08-25T11:10:04.238Z</time>
      </trkpt>
      <trkpt lat="43.97343" lon="2.21742">
        <ele>303</ele>
        <time>2020-08-25T11:10:05.238Z</time>
      </trkpt>
      <trkpt lat="43.97343" lon="2.21741">
        <ele>303</ele>
        <time>2020-08-25T11:10:06.238Z</time>
      </trkpt>
      <trkpt lat="43.97343" lon="2.21739">
        <ele>303</ele>
        <time>2020-08-25T11:10:07.238Z</time>
      </trkpt>
      <trkpt lat="43.97343" lon="2.21738">
        <ele>303</ele>
        <time>2020-08-25T11:10:08.238Z</time>
      </trkpt>
      <trkpt lat="43.97343" lon="2.21736">
        <ele>303</ele>
        <time>2020-08-25T11:10:09.238Z</time>
      </trkpt>
      <trkpt lat="43.97343" lon="2.21734">
        <ele>303</ele>
        <time>2020-08-25T11:10:10.238Z</time>
      </trkpt>
      <trkpt lat="43.97342" lon="2.21733">
        <ele>303</ele>
        <time>2020-08-25T11:10:11.238Z</time>
      </trkpt>
      <trkpt lat="43.97342" lon="2.21731">
        <ele>303</ele>
        <time>2020-08-25T11:10:12.238Z</time>
      </trkpt>
      <trkpt lat="43.97342" lon="2.2173">
        <ele>303</ele>
        <time>2020-08-25T11:10:13.238Z</time>
      </trkpt>
      <trkpt lat="43.97342" lon="2.21728">
        <ele>303</ele>
        <time>2020-08-25T11:10:14.238Z</time>
      </trkpt>
      <trkpt lat="43.97342" lon="2.21727">
        <ele>303</ele>
        <time>2020-08-25T11:10:15.238Z</time>
      </trkpt>
      <trkpt lat="43.97342" lon="2.21726">
        <ele>303</ele>
        <time>2020-08-25T11:10:16.238Z</time>
      </trkpt>
      <trkpt lat="43.97342" lon="2.21725">
        <ele>303</ele>
        <time>2020-08-25T11:10:17.238Z</time>
      </trkpt>
      <trkpt lat="43.97342" lon="2.21725">
        <ele>303</ele>
        <time>2020-08-25T11:10:18.238Z</time>
      </trkpt>
      <trkpt lat="43.97342" lon="2.21725">
        <ele>303</ele>
        <time>2020-08-25T11:10:19.238Z</time>
      </trkpt>
      <trkpt lat="43.97342" lon="2.21725">
        <ele>303</ele>
        <time>2020-08-25T11:10:20.238Z</time>
      </trkpt>
      <trkpt lat="43.97341" lon="2.21723">
        <ele>303</ele>
        <time>2020-08-25T11:10:25.252Z</time>
      </trkpt>
      <trkpt lat="43.97341" lon="2.21722">
        <ele>303</ele>
        <time>2020-08-25T11:10:26.252Z</time>
      </trkpt>
      <trkpt lat="43.97341" lon="2.21721">
        <ele>303</ele>
        <time>2020-08-25T11:10:27.252Z</time>
      </trkpt>
      <trkpt lat="43.97341" lon="2.2172">
        <ele>303</ele>
        <time>2020-08-25T11:10:28.252Z</time>
      </trkpt>
      <trkpt lat="43.97341" lon="2.21718">
        <ele>303</ele>
        <time>2020-08-25T11:10:29.252Z</time>
      </trkpt>
      <trkpt lat="43.9734" lon="2.21717">
        <ele>303</ele>
        <time>2020-08-25T11:10:30.252Z</time>
      </trkpt>
      <trkpt lat="43.9734" lon="2.21715">
        <ele>303</ele>
        <time>2020-08-25T11:10:31.252Z</time>
      </trkpt>
      <trkpt lat="43.9734" lon="2.21714">
        <ele>303</ele>
        <time>2020-08-25T11:10:32.252Z</time>
      </trkpt>
      <trkpt lat="43.9734" lon="2.21714">
        <ele>303</ele>
        <time>2020-08-25T11:10:33.252Z</time>
      </trkpt>
      <trkpt lat="43.9734" lon="2.21714">
        <ele>303</ele>
        <time>2020-08-25T11:10:34.252Z</time>
      </trkpt>
      <trkpt lat="43.9734" lon="2.21714">
        <ele>303</ele>
        <time>2020-08-25T11:10:35.252Z</time>
      </trkpt>
      <trkpt lat="43.9734" lon="2.21714">
        <ele>303</ele>
        <time>2020-08-25T11:10:36.252Z</time>
      </trkpt>
      <trkpt lat="43.97339" lon="2.2171">
        <ele>303</ele>
        <time>2020-08-25T11:10:39.462Z</time>
      </trkpt>
      <trkpt lat="43.97339" lon="2.21709">
        <ele>303</ele>
        <time>2020-08-25T11:10:40.462Z</time>
      </trkpt>
      <trkpt lat="43.97338" lon="2.21707">
        <ele>303</ele>
        <time>2020-08-25T11:10:41.462Z</time>
      </trkpt>
      <trkpt lat="43.97338" lon="2.21706">
        <ele>303</ele>
        <time>2020-08-25T11:10:42.462Z</time>
      </trkpt>
      <trkpt lat="43.97338" lon="2.21704">
        <ele>303</ele>
        <time>2020-08-25T11:10:43.462Z</time>
      </trkpt>
      <trkpt lat="43.97337" lon="2.21703">
        <ele>303</ele>
        <time>2020-08-25T11:10:44.462Z</time>
      </trkpt>
      <trkpt lat="43.97337" lon="2.21701">
        <ele>303</ele>
        <time>2020-08-25T11:10:45.462Z</time>
      </trkpt>
      <trkpt lat="43.97337" lon="2.21699">
        <ele>303</ele>
        <time>2020-08-25T11:10:46.462Z</time>
      </trkpt>
      <trkpt lat="43.97336" lon="2.21698">
        <ele>303</ele>
        <time>2020-08-25T11:10:47.462Z</time>
      </trkpt>
      <trkpt lat="43.97336" lon="2.21696">
        <ele>303</ele>
        <time>2020-08-25T11:10:48.462Z</time>
      </trkpt>
      <trkpt lat="43.97335" lon="2.21695">
        <ele>303</ele>
        <time>2020-08-25T11:10:49.462Z</time>
      </trkpt>
      <trkpt lat="43.97335" lon="2.21693">
        <ele>303</ele>
        <time>2020-08-25T11:10:50.462Z</time>
      </trkpt>
      <trkpt lat="43.97335" lon="2.21691">
        <ele>303</ele>
        <time>2020-08-25T11:10:51.462Z</time>
      </trkpt>
      <trkpt lat="43.97334" lon="2.2169">
        <ele>303</ele>
        <time>2020-08-25T11:10:52.462Z</time>
      </trkpt>
      <trkpt lat="43.97334" lon="2.21688">
        <ele>303</ele>
        <time>2020-08-25T11:10:53.462Z</time>
      </trkpt>
      <trkpt lat="43.97333" lon="2.21687">
        <ele>303</ele>
        <time>2020-08-25T11:10:54.462Z</time>
      </trkpt>
      <trkpt lat="43.97333" lon="2.21685">
        <ele>303</ele>
        <time>2020-08-25T11:10:55.462Z</time>
      </trkpt>
      <trkpt lat="43.97333" lon="2.21683">
        <ele>303</ele>
        <time>2020-08-25T11:10:56.462Z</time>
      </trkpt>
      <trkpt lat="43.97332" lon="2.21682">
        <ele>303</ele>
        <time>2020-08-25T11:10:57.462Z</time>
      </trkpt>
      <trkpt lat="43.97332" lon="2.2168">
        <ele>303</ele>
        <time>2020-08-25T11:10:58.462Z</time>
      </trkpt>
      <trkpt lat="43.97331" lon="2.21678">
        <ele>303</ele>
        <time>2020-08-25T11:10:59.462Z</time>
      </trkpt>
      <trkpt lat="43.97331" lon="2.21677">
        <ele>303</ele>
        <time>2020-08-25T11:11:00.462Z</time>
      </trkpt>
      <trkpt lat="43.9733" lon="2.21675">
        <ele>303</ele>
        <time>2020-08-25T11:11:01.462Z</time>
      </trkpt>
      <trkpt lat="43.9733" lon="2.21674">
        <ele>303</ele>
        <time>2020-08-25T11:11:02.462Z</time>
      </trkpt>
      <trkpt lat="43.97329" lon="2.21672">
        <ele>303</ele>
        <time>2020-08-25T11:11:03.462Z</time>
      </trkpt>
      <trkpt lat="43.97328" lon="2.21671">
        <ele>303</ele>
        <time>2020-08-25T11:11:04.462Z</time>
      </trkpt>
      <trkpt lat="43.97328" lon="2.21669">
        <ele>303</ele>
        <time>2020-08-25T11:11:05.462Z</time>
      </trkpt>
      <trkpt lat="43.97327" lon="2.21667">
        <ele>302</ele>
        <time>2020-08-25T11:11:06.462Z</time>
      </trkpt>
      <trkpt lat="43.97327" lon="2.21666">
        <ele>302</ele>
        <time>2020-08-25T11:11:07.462Z</time>
      </trkpt>
      <trkpt lat="43.97326" lon="2.21664">
        <ele>302</ele>
        <time>2020-08-25T11:11:08.462Z</time>
      </trkpt>
      <trkpt lat="43.97326" lon="2.21663">
        <ele>303</ele>
        <time>2020-08-25T11:11:09.462Z</time>
      </trkpt>
      <trkpt lat="43.97325" lon="2.21661">
        <ele>303</ele>
        <time>2020-08-25T11:11:10.462Z</time>
      </trkpt>
      <trkpt lat="43.97325" lon="2.2166">
        <ele>303</ele>
        <time>2020-08-25T11:11:11.462Z</time>
      </trkpt>
      <trkpt lat="43.97324" lon="2.21658">
        <ele>303</ele>
        <time>2020-08-25T11:11:12.462Z</time>
      </trkpt>
      <trkpt lat="43.97324" lon="2.21657">
        <ele>303</ele>
        <time>2020-08-25T11:11:13.462Z</time>
      </trkpt>
      <trkpt lat="43.97323" lon="2.21656">
        <ele>302</ele>
        <time>2020-08-25T11:11:14.462Z</time>
      </trkpt>
      <trkpt lat="43.97322" lon="2.21654">
        <ele>302</ele>
        <time>2020-08-25T11:11:15.462Z</time>
      </trkpt>
      <trkpt lat="43.97322" lon="2.21653">
        <ele>302</ele>
        <time>2020-08-25T11:11:16.462Z</time>
      </trkpt>
      <trkpt lat="43.97321" lon="2.21651">
        <ele>302</ele>
        <time>2020-08-25T11:11:17.462Z</time>
      </trkpt>
      <trkpt lat="43.9732" lon="2.2165">
        <ele>302</ele>
        <time>2020-08-25T11:11:18.462Z</time>
      </trkpt>
      <trkpt lat="43.9732" lon="2.21648">
        <ele>302</ele>
        <time>2020-08-25T11:11:19.462Z</time>
      </trkpt>
      <trkpt lat="43.97319" lon="2.21647">
        <ele>302</ele>
        <time>2020-08-25T11:11:20.462Z</time>
      </trkpt>
      <trkpt lat="43.97318" lon="2.21646">
        <ele>302</ele>
        <time>2020-08-25T11:11:21.462Z</time>
      </trkpt>
      <trkpt lat="43.97318" lon="2.21644">
        <ele>302</ele>
        <time>2020-08-25T11:11:22.462Z</time>
      </trkpt>
      <trkpt lat="43.97317" lon="2.21643">
        <ele>302</ele>
        <time>2020-08-25T11:11:23.462Z</time>
      </trkpt>
      <trkpt lat="43.97316" lon="2.21641">
        <ele>302</ele>
        <time>2020-08-25T11:11:24.462Z</time>
      </trkpt>
      <trkpt lat="43.97315" lon="2.2164">
        <ele>302</ele>
        <time>2020-08-25T11:11:25.462Z</time>
      </trkpt>
      <trkpt lat="43.97315" lon="2.21639">
        <ele>302</ele>
        <time>2020-08-25T11:11:26.462Z</time>
      </trkpt>
      <trkpt lat="43.97314" lon="2.21638">
        <ele>302</ele>
        <time>2020-08-25T11:11:27.462Z</time>
      </trkpt>
      <trkpt lat="43.97313" lon="2.21637">
        <ele>302</ele>
        <time>2020-08-25T11:11:28.462Z</time>
      </trkpt>
      <trkpt lat="43.97312" lon="2.21636">
        <ele>301</ele>
        <time>2020-08-25T11:11:29.462Z</time>
      </trkpt>
      <trkpt lat="43.97311" lon="2.21635">
        <ele>301</ele>
        <time>2020-08-25T11:11:30.462Z</time>
      </trkpt>
      <trkpt lat="43.97311" lon="2.21634">
        <ele>301</ele>
        <time>2020-08-25T11:11:31.462Z</time>
      </trkpt>
      <trkpt lat="43.97311" lon="2.21634">
        <ele>301</ele>
        <time>2020-08-25T11:11:32.462Z</time>
      </trkpt>
      <trkpt lat="43.97311" lon="2.21634">
        <ele>301</ele>
        <time>2020-08-25T11:11:33.462Z</time>
      </trkpt>
      <trkpt lat="43.97311" lon="2.21634">
        <ele>301</ele>
        <time>2020-08-25T11:11:34.462Z</time>
      </trkpt>
      <trkpt lat="43.9731" lon="2.21633">
        <ele>301</ele>
        <time>2020-08-25T11:11:43.476Z</time>
      </trkpt>
      <trkpt lat="43.97309" lon="2.21633">
        <ele>301</ele>
        <time>2020-08-25T11:11:44.476Z</time>
      </trkpt>
      <trkpt lat="43.97309" lon="2.21631">
        <ele>301</ele>
        <time>2020-08-25T11:11:45.476Z</time>
      </trkpt>
      <trkpt lat="43.97308" lon="2.2163">
        <ele>301</ele>
        <time>2020-08-25T11:11:46.476Z</time>
      </trkpt>
      <trkpt lat="43.97307" lon="2.2163">
        <ele>301</ele>
        <time>2020-08-25T11:11:47.476Z</time>
      </trkpt>
      <trkpt lat="43.97307" lon="2.21629">
        <ele>301</ele>
        <time>2020-08-25T11:11:48.476Z</time>
      </trkpt>
      <trkpt lat="43.97307" lon="2.21629">
        <ele>301</ele>
        <time>2020-08-25T11:11:49.476Z</time>
      </trkpt>
      <trkpt lat="43.97307" lon="2.21629">
        <ele>301</ele>
        <time>2020-08-25T11:11:50.476Z</time>
      </trkpt>
      <trkpt lat="43.97307" lon="2.21629">
        <ele>301</ele>
        <time>2020-08-25T11:11:51.476Z</time>
      </trkpt>
      <trkpt lat="43.97306" lon="2.21627">
        <ele>300</ele>
        <time>2020-08-25T11:12:35.476Z</time>
      </trkpt>
      <trkpt lat="43.97305" lon="2.21626">
        <ele>300</ele>
        <time>2020-08-25T11:12:36.476Z</time>
      </trkpt>
      <trkpt lat="43.97304" lon="2.21625">
        <ele>300</ele>
        <time>2020-08-25T11:12:37.476Z</time>
      </trkpt>
      <trkpt lat="43.97303" lon="2.21624">
        <ele>300</ele>
        <time>2020-08-25T11:12:38.476Z</time>
      </trkpt>
      <trkpt lat="43.97302" lon="2.21623">
        <ele>300</ele>
        <time>2020-08-25T11:12:39.476Z</time>
      </trkpt>
      <trkpt lat="43.97301" lon="2.21622">
        <ele>300</ele>
        <time>2020-08-25T11:12:40.476Z</time>
      </trkpt>
      <trkpt lat="43.973" lon="2.2162">
        <ele>300</ele>
        <time>2020-08-25T11:12:41.476Z</time>
      </trkpt>
      <trkpt lat="43.973" lon="2.21619">
        <ele>300</ele>
        <time>2020-08-25T11:12:42.476Z</time>
      </trkpt>
      <trkpt lat="43.97299" lon="2.21618">
        <ele>300</ele>
        <time>2020-08-25T11:12:43.476Z</time>
      </trkpt>
      <trkpt lat="43.97298" lon="2.21617">
        <ele>300</ele>
        <time>2020-08-25T11:12:44.476Z</time>
      </trkpt>
      <trkpt lat="43.97297" lon="2.21616">
        <ele>300</ele>
        <time>2020-08-25T11:12:45.476Z</time>
      </trkpt>
      <trkpt lat="43.97296" lon="2.21615">
        <ele>300</ele>
        <time>2020-08-25T11:12:46.476Z</time>
      </trkpt>
      <trkpt lat="43.97295" lon="2.21614">
        <ele>300</ele>
        <time>2020-08-25T11:12:47.476Z</time>
      </trkpt>
      <trkpt lat="43.97294" lon="2.21613">
        <ele>300</ele>
        <time>2020-08-25T11:12:48.476Z</time>
      </trkpt>
      <trkpt lat="43.97293" lon="2.21612">
        <ele>300</ele>
        <time>2020-08-25T11:12:49.476Z</time>
      </trkpt>
      <trkpt lat="43.97292" lon="2.21611">
        <ele>300</ele>
        <time>2020-08-25T11:12:50.476Z</time>
      </trkpt>
      <trkpt lat="43.97291" lon="2.2161">
        <ele>300</ele>
        <time>2020-08-25T11:12:51.476Z</time>
      </trkpt>
      <trkpt lat="43.9729" lon="2.21609">
        <ele>300</ele>
        <time>2020-08-25T11:12:52.476Z</time>
      </trkpt>
      <trkpt lat="43.97289" lon="2.21608">
        <ele>300</ele>
        <time>2020-08-25T11:12:53.476Z</time>
      </trkpt>
      <trkpt lat="43.97288" lon="2.21607">
        <ele>300</ele>
        <time>2020-08-25T11:12:54.476Z</time>
      </trkpt>
      <trkpt lat="43.97287" lon="2.21606">
        <ele>300</ele>
        <time>2020-08-25T11:12:55.476Z</time>
      </trkpt>
      <trkpt lat="43.97286" lon="2.21605">
        <ele>300</ele>
        <time>2020-08-25T11:12:56.476Z</time>
      </trkpt>
      <trkpt lat="43.97285" lon="2.21604">
        <ele>300</ele>
        <time>2020-08-25T11:12:57.476Z</time>
      </trkpt>
      <trkpt lat="43.97284" lon="2.21603">
        <ele>300</ele>
        <time>2020-08-25T11:12:58.476Z</time>
      </trkpt>
      <trkpt lat="43.97283" lon="2.21602">
        <ele>300</ele>
        <time>2020-08-25T11:12:59.476Z</time>
      </trkpt>
      <trkpt lat="43.97282" lon="2.21601">
        <ele>300</ele>
        <time>2020-08-25T11:13:00.476Z</time>
      </trkpt>
      <trkpt lat="43.97281" lon="2.216">
        <ele>300</ele>
        <time>2020-08-25T11:13:01.476Z</time>
      </trkpt>
      <trkpt lat="43.9728" lon="2.216">
        <ele>300</ele>
        <time>2020-08-25T11:13:02.476Z</time>
      </trkpt>
      <trkpt lat="43.97278" lon="2.21599">
        <ele>300</ele>
        <time>2020-08-25T11:13:03.476Z</time>
      </trkpt>
      <trkpt lat="43.97277" lon="2.21598">
        <ele>300</ele>
        <time>2020-08-25T11:13:04.476Z</time>
      </trkpt>
      <trkpt lat="43.97276" lon="2.21597">
        <ele>300</ele>
        <time>2020-08-25T11:13:05.476Z</time>
      </trkpt>
      <trkpt lat="43.97275" lon="2.21597">
        <ele>300</ele>
        <time>2020-08-25T11:13:06.476Z</time>
      </trkpt>
      <trkpt lat="43.97274" lon="2.21596">
        <ele>300</ele>
        <time>2020-08-25T11:13:07.476Z</time>
      </trkpt>
      <trkpt lat="43.97273" lon="2.21595">
        <ele>300</ele>
        <time>2020-08-25T11:13:08.476Z</time>
      </trkpt>
      <trkpt lat="43.97271" lon="2.21595">
        <ele>300</ele>
        <time>2020-08-25T11:13:09.476Z</time>
      </trkpt>
      <trkpt lat="43.9727" lon="2.21594">
        <ele>300</ele>
        <time>2020-08-25T11:13:10.476Z</time>
      </trkpt>
      <trkpt lat="43.97269" lon="2.21593">
        <ele>300</ele>
        <time>2020-08-25T11:13:11.476Z</time>
      </trkpt>
      <trkpt lat="43.97268" lon="2.21593">
        <ele>300</ele>
        <time>2020-08-25T11:13:12.476Z</time>
      </trkpt>
      <trkpt lat="43.97267" lon="2.21592">
        <ele>300</ele>
        <time>2020-08-25T11:13:13.476Z</time>
      </trkpt>
      <trkpt lat="43.97265" lon="2.21592">
        <ele>300</ele>
        <time>2020-08-25T11:13:14.476Z</time>
      </trkpt>
      <trkpt lat="43.97264" lon="2.21591">
        <ele>299</ele>
        <time>2020-08-25T11:13:15.476Z</time>
      </trkpt>
      <trkpt lat="43.97263" lon="2.21591">
        <ele>299</ele>
        <time>2020-08-25T11:13:16.476Z</time>
      </trkpt>
      <trkpt lat="43.97262" lon="2.2159">
        <ele>299</ele>
        <time>2020-08-25T11:13:17.476Z</time>
      </trkpt>
      <trkpt lat="43.97261" lon="2.21589">
        <ele>299</ele>
        <time>2020-08-25T11:13:18.476Z</time>
      </trkpt>
      <trkpt lat="43.97259" lon="2.21589">
        <ele>299</ele>
        <time>2020-08-25T11:13:19.476Z</time>
      </trkpt>
      <trkpt lat="43.97258" lon="2.21589">
        <ele>299</ele>
        <time>2020-08-25T11:13:20.476Z</time>
      </trkpt>
      <trkpt lat="43.97257" lon="2.21589">
        <ele>299</ele>
        <time>2020-08-25T11:13:21.476Z</time>
      </trkpt>
      <trkpt lat="43.97255" lon="2.21589">
        <ele>299</ele>
        <time>2020-08-25T11:13:22.476Z</time>
      </trkpt>
      <trkpt lat="43.97254" lon="2.21588">
        <ele>299</ele>
        <time>2020-08-25T11:13:23.476Z</time>
      </trkpt>
      <trkpt lat="43.97253" lon="2.21588">
        <ele>299</ele>
        <time>2020-08-25T11:13:24.476Z</time>
      </trkpt>
      <trkpt lat="43.97252" lon="2.21588">
        <ele>299</ele>
        <time>2020-08-25T11:13:25.476Z</time>
      </trkpt>
      <trkpt lat="43.9725" lon="2.21587">
        <ele>299</ele>
        <time>2020-08-25T11:13:26.476Z</time>
      </trkpt>
      <trkpt lat="43.97249" lon="2.21587">
        <ele>299</ele>
        <time>2020-08-25T11:13:27.476Z</time>
      </trkpt>
      <trkpt lat="43.97248" lon="2.21587">
        <ele>299</ele>
        <time>2020-08-25T11:13:28.476Z</time>
      </trkpt>
      <trkpt lat="43.97246" lon="2.21587">
        <ele>299</ele>
        <time>2020-08-25T11:13:29.476Z</time>
      </trkpt>
      <trkpt lat="43.97245" lon="2.21587">
        <ele>299</ele>
        <time>2020-08-25T11:13:30.476Z</time>
      </trkpt>
      <trkpt lat="43.97244" lon="2.21587">
        <ele>299</ele>
        <time>2020-08-25T11:13:31.476Z</time>
      </trkpt>
      <trkpt lat="43.97243" lon="2.21586">
        <ele>299</ele>
        <time>2020-08-25T11:13:32.476Z</time>
      </trkpt>
      <trkpt lat="43.97241" lon="2.21586">
        <ele>299</ele>
        <time>2020-08-25T11:13:33.476Z</time>
      </trkpt>
      <trkpt lat="43.9724" lon="2.21586">
        <ele>299</ele>
        <time>2020-08-25T11:13:34.476Z</time>
      </trkpt>
      <trkpt lat="43.97239" lon="2.21586">
        <ele>299</ele>
        <time>2020-08-25T11:13:35.476Z</time>
      </trkpt>
      <trkpt lat="43.97238" lon="2.21586">
        <ele>299</ele>
        <time>2020-08-25T11:13:36.476Z</time>
      </trkpt>
      <trkpt lat="43.97236" lon="2.21586">
        <ele>299</ele>
        <time>2020-08-25T11:13:37.476Z</time>
      </trkpt>
      <trkpt lat="43.97235" lon="2.21586">
        <ele>299</ele>
        <time>2020-08-25T11:13:38.476Z</time>
      </trkpt>
      <trkpt lat="43.97234" lon="2.21586">
        <ele>299</ele>
        <time>2020-08-25T11:13:39.476Z</time>
      </trkpt>
      <trkpt lat="43.97232" lon="2.21586">
        <ele>299</ele>
        <time>2020-08-25T11:13:40.476Z</time>
      </trkpt>
      <trkpt lat="43.97231" lon="2.21586">
        <ele>299</ele>
        <time>2020-08-25T11:13:41.476Z</time>
      </trkpt>
      <trkpt lat="43.9723" lon="2.21586">
        <ele>299</ele>
        <time>2020-08-25T11:13:42.476Z</time>
      </trkpt>
      <trkpt lat="43.97229" lon="2.21586">
        <ele>299</ele>
        <time>2020-08-25T11:13:43.476Z</time>
      </trkpt>
      <trkpt lat="43.97227" lon="2.21586">
        <ele>299</ele>
        <time>2020-08-25T11:13:44.476Z</time>
      </trkpt>
      <trkpt lat="43.97226" lon="2.21586">
        <ele>299</ele>
        <time>2020-08-25T11:13:45.476Z</time>
      </trkpt>
      <trkpt lat="43.97224" lon="2.21586">
        <ele>299</ele>
        <time>2020-08-25T11:13:46.476Z</time>
      </trkpt>
      <trkpt lat="43.97223" lon="2.21586">
        <ele>299</ele>
        <time>2020-08-25T11:13:47.476Z</time>
      </trkpt>
      <trkpt lat="43.97222" lon="2.21586">
        <ele>299</ele>
        <time>2020-08-25T11:13:48.476Z</time>
      </trkpt>
      <trkpt lat="43.97221" lon="2.21587">
        <ele>299</ele>
        <time>2020-08-25T11:13:49.476Z</time>
      </trkpt>
      <trkpt lat="43.97219" lon="2.21587">
        <ele>299</ele>
        <time>2020-08-25T11:13:50.476Z</time>
      </trkpt>
      <trkpt lat="43.97218" lon="2.21587">
        <ele>299</ele>
        <time>2020-08-25T11:13:51.476Z</time>
      </trkpt>
      <trkpt lat="43.97217" lon="2.21587">
        <ele>299</ele>
        <time>2020-08-25T11:13:52.476Z</time>
      </trkpt>
      <trkpt lat="43.97215" lon="2.21588">
        <ele>298</ele>
        <time>2020-08-25T11:13:53.476Z</time>
      </trkpt>
      <trkpt lat="43.97214" lon="2.21588">
        <ele>298</ele>
        <time>2020-08-25T11:13:54.476Z</time>
      </trkpt>
      <trkpt lat="43.97213" lon="2.21588">
        <ele>298</ele>
        <time>2020-08-25T11:13:55.476Z</time>
      </trkpt>
      <trkpt lat="43.97212" lon="2.21588">
        <ele>298</ele>
        <time>2020-08-25T11:13:56.476Z</time>
      </trkpt>
      <trkpt lat="43.9721" lon="2.21588">
        <ele>298</ele>
        <time>2020-08-25T11:13:57.476Z</time>
      </trkpt>
      <trkpt lat="43.97209" lon="2.21588">
        <ele>298</ele>
        <time>2020-08-25T11:13:58.476Z</time>
      </trkpt>
      <trkpt lat="43.97208" lon="2.21588">
        <ele>298</ele>
        <time>2020-08-25T11:13:59.476Z</time>
      </trkpt>
      <trkpt lat="43.97207" lon="2.21588">
        <ele>298</ele>
        <time>2020-08-25T11:14:00.476Z</time>
      </trkpt>
      <trkpt lat="43.97205" lon="2.21589">
        <ele>298</ele>
        <time>2020-08-25T11:14:01.476Z</time>
      </trkpt>
      <trkpt lat="43.97204" lon="2.21589">
        <ele>298</ele>
        <time>2020-08-25T11:14:02.476Z</time>
      </trkpt>
      <trkpt lat="43.97203" lon="2.21589">
        <ele>298</ele>
        <time>2020-08-25T11:14:03.476Z</time>
      </trkpt>
      <trkpt lat="43.97201" lon="2.21589">
        <ele>298</ele>
        <time>2020-08-25T11:14:04.476Z</time>
      </trkpt>
      <trkpt lat="43.972" lon="2.2159">
        <ele>297</ele>
        <time>2020-08-25T11:14:05.476Z</time>
      </trkpt>
      <trkpt lat="43.97199" lon="2.2159">
        <ele>297</ele>
        <time>2020-08-25T11:14:06.476Z</time>
      </trkpt>
      <trkpt lat="43.97198" lon="2.2159">
        <ele>297</ele>
        <time>2020-08-25T11:14:07.476Z</time>
      </trkpt>
      <trkpt lat="43.97196" lon="2.21591">
        <ele>297</ele>
        <time>2020-08-25T11:14:08.476Z</time>
      </trkpt>
      <trkpt lat="43.97195" lon="2.21591">
        <ele>297</ele>
        <time>2020-08-25T11:14:09.476Z</time>
      </trkpt>
      <trkpt lat="43.97194" lon="2.21591">
        <ele>297</ele>
        <time>2020-08-25T11:14:10.476Z</time>
      </trkpt>
      <trkpt lat="43.97193" lon="2.21592">
        <ele>297</ele>
        <time>2020-08-25T11:14:11.476Z</time>
      </trkpt>
      <trkpt lat="43.97191" lon="2.21592">
        <ele>297</ele>
        <time>2020-08-25T11:14:12.476Z</time>
      </trkpt>
      <trkpt lat="43.9719" lon="2.21593">
        <ele>297</ele>
        <time>2020-08-25T11:14:13.476Z</time>
      </trkpt>
      <trkpt lat="43.97189" lon="2.21593">
        <ele>297</ele>
        <time>2020-08-25T11:14:14.476Z</time>
      </trkpt>
      <trkpt lat="43.97188" lon="2.21594">
        <ele>297</ele>
        <time>2020-08-25T11:14:15.476Z</time>
      </trkpt>
      <trkpt lat="43.97186" lon="2.21594">
        <ele>297</ele>
        <time>2020-08-25T11:14:16.476Z</time>
      </trkpt>
      <trkpt lat="43.97185" lon="2.21594">
        <ele>297</ele>
        <time>2020-08-25T11:14:17.476Z</time>
      </trkpt>
      <trkpt lat="43.97184" lon="2.21595">
        <ele>297</ele>
        <time>2020-08-25T11:14:18.476Z</time>
      </trkpt>
      <trkpt lat="43.97182" lon="2.21595">
        <ele>297</ele>
        <time>2020-08-25T11:14:19.476Z</time>
      </trkpt>
      <trkpt lat="43.97181" lon="2.21595">
        <ele>297</ele>
        <time>2020-08-25T11:14:20.476Z</time>
      </trkpt>
      <trkpt lat="43.9718" lon="2.21596">
        <ele>297</ele>
        <time>2020-08-25T11:14:21.476Z</time>
      </trkpt>
      <trkpt lat="43.97179" lon="2.21596">
        <ele>298</ele>
        <time>2020-08-25T11:14:22.476Z</time>
      </trkpt>
      <trkpt lat="43.97177" lon="2.21596">
        <ele>298</ele>
        <time>2020-08-25T11:14:23.476Z</time>
      </trkpt>
      <trkpt lat="43.97176" lon="2.21596">
        <ele>298</ele>
        <time>2020-08-25T11:14:24.476Z</time>
      </trkpt>
      <trkpt lat="43.97175" lon="2.21597">
        <ele>298</ele>
        <time>2020-08-25T11:14:25.476Z</time>
      </trkpt>
      <trkpt lat="43.97174" lon="2.21597">
        <ele>298</ele>
        <time>2020-08-25T11:14:26.476Z</time>
      </trkpt>
      <trkpt lat="43.97172" lon="2.21597">
        <ele>298</ele>
        <time>2020-08-25T11:14:27.476Z</time>
      </trkpt>
      <trkpt lat="43.97171" lon="2.21598">
        <ele>298</ele>
        <time>2020-08-25T11:14:28.476Z</time>
      </trkpt>
      <trkpt lat="43.9717" lon="2.21598">
        <ele>298</ele>
        <time>2020-08-25T11:14:29.476Z</time>
      </trkpt>
      <trkpt lat="43.97168" lon="2.21598">
        <ele>298</ele>
        <time>2020-08-25T11:14:30.476Z</time>
      </trkpt>
      <trkpt lat="43.97167" lon="2.21598">
        <ele>298</ele>
        <time>2020-08-25T11:14:31.476Z</time>
      </trkpt>
      <trkpt lat="43.97166" lon="2.21599">
        <ele>298</ele>
        <time>2020-08-25T11:14:32.476Z</time>
      </trkpt>
      <trkpt lat="43.97165" lon="2.216">
        <ele>298</ele>
        <time>2020-08-25T11:14:33.476Z</time>
      </trkpt>
      <trkpt lat="43.97163" lon="2.216">
        <ele>298</ele>
        <time>2020-08-25T11:14:34.476Z</time>
      </trkpt>
      <trkpt lat="43.97162" lon="2.21601">
        <ele>298</ele>
        <time>2020-08-25T11:14:35.476Z</time>
      </trkpt>
      <trkpt lat="43.97161" lon="2.21602">
        <ele>298</ele>
        <time>2020-08-25T11:14:36.476Z</time>
      </trkpt>
      <trkpt lat="43.9716" lon="2.21602">
        <ele>298</ele>
        <time>2020-08-25T11:14:37.476Z</time>
      </trkpt>
      <trkpt lat="43.97159" lon="2.21604">
        <ele>298</ele>
        <time>2020-08-25T11:14:38.476Z</time>
      </trkpt>
      <trkpt lat="43.97157" lon="2.21605">
        <ele>298</ele>
        <time>2020-08-25T11:14:39.476Z</time>
      </trkpt>
      <trkpt lat="43.97156" lon="2.21606">
        <ele>298</ele>
        <time>2020-08-25T11:14:40.476Z</time>
      </trkpt>
      <trkpt lat="43.97155" lon="2.21607">
        <ele>297</ele>
        <time>2020-08-25T11:14:41.476Z</time>
      </trkpt>
      <trkpt lat="43.97154" lon="2.21608">
        <ele>297</ele>
        <time>2020-08-25T11:14:42.476Z</time>
      </trkpt>
      <trkpt lat="43.97153" lon="2.21609">
        <ele>297</ele>
        <time>2020-08-25T11:14:43.476Z</time>
      </trkpt>
      <trkpt lat="43.97152" lon="2.2161">
        <ele>297</ele>
        <time>2020-08-25T11:14:44.476Z</time>
      </trkpt>
      <trkpt lat="43.97151" lon="2.21611">
        <ele>297</ele>
        <time>2020-08-25T11:14:45.476Z</time>
      </trkpt>
      <trkpt lat="43.9715" lon="2.21611">
        <ele>297</ele>
        <time>2020-08-25T11:14:46.476Z</time>
      </trkpt>
      <trkpt lat="43.97149" lon="2.21612">
        <ele>297</ele>
        <time>2020-08-25T11:14:47.476Z</time>
      </trkpt>
      <trkpt lat="43.97147" lon="2.21613">
        <ele>297</ele>
        <time>2020-08-25T11:14:48.476Z</time>
      </trkpt>
      <trkpt lat="43.97146" lon="2.21615">
        <ele>297</ele>
        <time>2020-08-25T11:14:49.476Z</time>
      </trkpt>
      <trkpt lat="43.97145" lon="2.21615">
        <ele>297</ele>
        <time>2020-08-25T11:14:50.476Z</time>
      </trkpt>
      <trkpt lat="43.97144" lon="2.21616">
        <ele>296</ele>
        <time>2020-08-25T11:14:51.476Z</time>
      </trkpt>
      <trkpt lat="43.97143" lon="2.21617">
        <ele>296</ele>
        <time>2020-08-25T11:14:52.476Z</time>
      </trkpt>
      <trkpt lat="43.97141" lon="2.21618">
        <ele>296</ele>
        <time>2020-08-25T11:14:53.476Z</time>
      </trkpt>
      <trkpt lat="43.9714" lon="2.21619">
        <ele>296</ele>
        <time>2020-08-25T11:14:54.476Z</time>
      </trkpt>
      <trkpt lat="43.97139" lon="2.21619">
        <ele>296</ele>
        <time>2020-08-25T11:14:55.476Z</time>
      </trkpt>
      <trkpt lat="43.97138" lon="2.2162">
        <ele>296</ele>
        <time>2020-08-25T11:14:56.476Z</time>
      </trkpt>
      <trkpt lat="43.97137" lon="2.21621">
        <ele>296</ele>
        <time>2020-08-25T11:14:57.476Z</time>
      </trkpt>
      <trkpt lat="43.97136" lon="2.21621">
        <ele>297</ele>
        <time>2020-08-25T11:14:58.476Z</time>
      </trkpt>
      <trkpt lat="43.97135" lon="2.21622">
        <ele>297</ele>
        <time>2020-08-25T11:14:59.476Z</time>
      </trkpt>
      <trkpt lat="43.97134" lon="2.21623">
        <ele>297</ele>
        <time>2020-08-25T11:15:00.476Z</time>
      </trkpt>
      <trkpt lat="43.97132" lon="2.21624">
        <ele>297</ele>
        <time>2020-08-25T11:15:01.476Z</time>
      </trkpt>
      <trkpt lat="43.97131" lon="2.21625">
        <ele>296</ele>
        <time>2020-08-25T11:15:02.476Z</time>
      </trkpt>
      <trkpt lat="43.9713" lon="2.21625">
        <ele>296</ele>
        <time>2020-08-25T11:15:03.476Z</time>
      </trkpt>
      <trkpt lat="43.97129" lon="2.21626">
        <ele>296</ele>
        <time>2020-08-25T11:15:04.476Z</time>
      </trkpt>
      <trkpt lat="43.97128" lon="2.21626">
        <ele>296</ele>
        <time>2020-08-25T11:15:05.476Z</time>
      </trkpt>
      <trkpt lat="43.97127" lon="2.21627">
        <ele>296</ele>
        <time>2020-08-25T11:15:06.476Z</time>
      </trkpt>
      <trkpt lat="43.97126" lon="2.21628">
        <ele>296</ele>
        <time>2020-08-25T11:15:07.476Z</time>
      </trkpt>
      <trkpt lat="43.97124" lon="2.21628">
        <ele>296</ele>
        <time>2020-08-25T11:15:08.476Z</time>
      </trkpt>
      <trkpt lat="43.97123" lon="2.21629">
        <ele>296</ele>
        <time>2020-08-25T11:15:09.476Z</time>
      </trkpt>
      <trkpt lat="43.97122" lon="2.2163">
        <ele>296</ele>
        <time>2020-08-25T11:15:10.476Z</time>
      </trkpt>
      <trkpt lat="43.97121" lon="2.2163">
        <ele>296</ele>
        <time>2020-08-25T11:15:11.476Z</time>
      </trkpt>
      <trkpt lat="43.9712" lon="2.21631">
        <ele>296</ele>
        <time>2020-08-25T11:15:12.476Z</time>
      </trkpt>
      <trkpt lat="43.97119" lon="2.21632">
        <ele>296</ele>
        <time>2020-08-25T11:15:13.476Z</time>
      </trkpt>
      <trkpt lat="43.97118" lon="2.21633">
        <ele>295</ele>
        <time>2020-08-25T11:15:14.476Z</time>
      </trkpt>
      <trkpt lat="43.97117" lon="2.21634">
        <ele>295</ele>
        <time>2020-08-25T11:15:15.476Z</time>
      </trkpt>
      <trkpt lat="43.97116" lon="2.21634">
        <ele>295</ele>
        <time>2020-08-25T11:15:16.476Z</time>
      </trkpt>
      <trkpt lat="43.97115" lon="2.21635">
        <ele>295</ele>
        <time>2020-08-25T11:15:17.476Z</time>
      </trkpt>
      <trkpt lat="43.97114" lon="2.21636">
        <ele>295</ele>
        <time>2020-08-25T11:15:18.476Z</time>
      </trkpt>
      <trkpt lat="43.97113" lon="2.21637">
        <ele>295</ele>
        <time>2020-08-25T11:15:19.476Z</time>
      </trkpt>
      <trkpt lat="43.97112" lon="2.21637">
        <ele>295</ele>
        <time>2020-08-25T11:15:20.476Z</time>
      </trkpt>
      <trkpt lat="43.97111" lon="2.21638">
        <ele>295</ele>
        <time>2020-08-25T11:15:21.476Z</time>
      </trkpt>
      <trkpt lat="43.9711" lon="2.21639">
        <ele>295</ele>
        <time>2020-08-25T11:15:22.476Z</time>
      </trkpt>
      <trkpt lat="43.97109" lon="2.2164">
        <ele>295</ele>
        <time>2020-08-25T11:15:23.476Z</time>
      </trkpt>
      <trkpt lat="43.97108" lon="2.2164">
        <ele>295</ele>
        <time>2020-08-25T11:15:24.476Z</time>
      </trkpt>
      <trkpt lat="43.97107" lon="2.21641">
        <ele>295</ele>
        <time>2020-08-25T11:15:25.476Z</time>
      </trkpt>
      <trkpt lat="43.97106" lon="2.21642">
        <ele>294</ele>
        <time>2020-08-25T11:15:26.476Z</time>
      </trkpt>
      <trkpt lat="43.97105" lon="2.21643">
        <ele>294</ele>
        <time>2020-08-25T11:15:27.476Z</time>
      </trkpt>
      <trkpt lat="43.97103" lon="2.21643">
        <ele>294</ele>
        <time>2020-08-25T11:15:28.476Z</time>
      </trkpt>
      <trkpt lat="43.97102" lon="2.21644">
        <ele>294</ele>
        <time>2020-08-25T11:15:29.476Z</time>
      </trkpt>
      <trkpt lat="43.97101" lon="2.21645">
        <ele>294</ele>
        <time>2020-08-25T11:15:30.476Z</time>
      </trkpt>
      <trkpt lat="43.971" lon="2.21645">
        <ele>294</ele>
        <time>2020-08-25T11:15:31.476Z</time>
      </trkpt>
      <trkpt lat="43.97099" lon="2.21646">
        <ele>294</ele>
        <time>2020-08-25T11:15:32.476Z</time>
      </trkpt>
      <trkpt lat="43.97098" lon="2.21647">
        <ele>294</ele>
        <time>2020-08-25T11:15:33.476Z</time>
      </trkpt>
      <trkpt lat="43.97097" lon="2.21648">
        <ele>294</ele>
        <time>2020-08-25T11:15:34.476Z</time>
      </trkpt>
      <trkpt lat="43.97096" lon="2.21648">
        <ele>294</ele>
        <time>2020-08-25T11:15:35.476Z</time>
      </trkpt>
      <trkpt lat="43.97095" lon="2.21649">
        <ele>294</ele>
        <time>2020-08-25T11:15:36.476Z</time>
      </trkpt>
      <trkpt lat="43.97094" lon="2.2165">
        <ele>294</ele>
        <time>2020-08-25T11:15:37.476Z</time>
      </trkpt>
      <trkpt lat="43.97092" lon="2.2165">
        <ele>294</ele>
        <time>2020-08-25T11:15:38.476Z</time>
      </trkpt>
      <trkpt lat="43.97091" lon="2.21651">
        <ele>294</ele>
        <time>2020-08-25T11:15:39.476Z</time>
      </trkpt>
      <trkpt lat="43.9709" lon="2.21652">
        <ele>294</ele>
        <time>2020-08-25T11:15:40.476Z</time>
      </trkpt>
      <trkpt lat="43.97089" lon="2.21652">
        <ele>294</ele>
        <time>2020-08-25T11:15:41.476Z</time>
      </trkpt>
      <trkpt lat="43.97088" lon="2.21653">
        <ele>294</ele>
        <time>2020-08-25T11:15:42.476Z</time>
      </trkpt>
      <trkpt lat="43.97087" lon="2.21654">
        <ele>294</ele>
        <time>2020-08-25T11:15:43.476Z</time>
      </trkpt>
      <trkpt lat="43.97086" lon="2.21654">
        <ele>294</ele>
        <time>2020-08-25T11:15:44.476Z</time>
      </trkpt>
      <trkpt lat="43.97085" lon="2.21655">
        <ele>294</ele>
        <time>2020-08-25T11:15:45.476Z</time>
      </trkpt>
      <trkpt lat="43.97084" lon="2.21656">
        <ele>294</ele>
        <time>2020-08-25T11:15:46.476Z</time>
      </trkpt>
      <trkpt lat="43.97083" lon="2.21657">
        <ele>294</ele>
        <time>2020-08-25T11:15:47.476Z</time>
      </trkpt>
      <trkpt lat="43.97082" lon="2.21657">
        <ele>294</ele>
        <time>2020-08-25T11:15:48.476Z</time>
      </trkpt>
      <trkpt lat="43.97081" lon="2.21658">
        <ele>294</ele>
        <time>2020-08-25T11:15:49.476Z</time>
      </trkpt>
      <trkpt lat="43.97081" lon="2.21658">
        <ele>294</ele>
        <time>2020-08-25T11:15:50.476Z</time>
      </trkpt>
      <trkpt lat="43.97081" lon="2.21659">
        <ele>294</ele>
        <time>2020-08-25T11:15:51.476Z</time>
      </trkpt>
      <trkpt lat="43.9708" lon="2.21659">
        <ele>294</ele>
        <time>2020-08-25T11:15:52.476Z</time>
      </trkpt>
      <trkpt lat="43.97078" lon="2.2166">
        <ele>294</ele>
        <time>2020-08-25T11:15:53.476Z</time>
      </trkpt>
      <trkpt lat="43.97077" lon="2.21661">
        <ele>294</ele>
        <time>2020-08-25T11:15:54.476Z</time>
      </trkpt>
      <trkpt lat="43.97076" lon="2.21661">
        <ele>294</ele>
        <time>2020-08-25T11:15:55.476Z</time>
      </trkpt>
      <trkpt lat="43.97075" lon="2.21662">
        <ele>294</ele>
        <time>2020-08-25T11:15:56.476Z</time>
      </trkpt>
      <trkpt lat="43.97074" lon="2.21663">
        <ele>294</ele>
        <time>2020-08-25T11:15:57.476Z</time>
      </trkpt>
      <trkpt lat="43.97073" lon="2.21664">
        <ele>294</ele>
        <time>2020-08-25T11:15:58.476Z</time>
      </trkpt>
      <trkpt lat="43.97072" lon="2.21665">
        <ele>294</ele>
        <time>2020-08-25T11:15:59.476Z</time>
      </trkpt>
      <trkpt lat="43.97071" lon="2.21665">
        <ele>294</ele>
        <time>2020-08-25T11:16:00.476Z</time>
      </trkpt>
      <trkpt lat="43.9707" lon="2.21666">
        <ele>294</ele>
        <time>2020-08-25T11:16:01.476Z</time>
      </trkpt>
      <trkpt lat="43.97069" lon="2.21667">
        <ele>294</ele>
        <time>2020-08-25T11:16:02.476Z</time>
      </trkpt>
      <trkpt lat="43.97068" lon="2.21668">
        <ele>294</ele>
        <time>2020-08-25T11:16:03.476Z</time>
      </trkpt>
      <trkpt lat="43.97068" lon="2.21668">
        <ele>293</ele>
        <time>2020-08-25T11:16:04.476Z</time>
      </trkpt>
      <trkpt lat="43.97067" lon="2.21669">
        <ele>293</ele>
        <time>2020-08-25T11:16:05.476Z</time>
      </trkpt>
      <trkpt lat="43.97066" lon="2.2167">
        <ele>293</ele>
        <time>2020-08-25T11:16:06.476Z</time>
      </trkpt>
      <trkpt lat="43.97065" lon="2.21671">
        <ele>293</ele>
        <time>2020-08-25T11:16:07.476Z</time>
      </trkpt>
      <trkpt lat="43.97064" lon="2.21671">
        <ele>293</ele>
        <time>2020-08-25T11:16:08.476Z</time>
      </trkpt>
      <trkpt lat="43.97063" lon="2.21672">
        <ele>293</ele>
        <time>2020-08-25T11:16:09.476Z</time>
      </trkpt>
      <trkpt lat="43.97063" lon="2.21672">
        <ele>293</ele>
        <time>2020-08-25T11:16:10.476Z</time>
      </trkpt>
      <trkpt lat="43.97063" lon="2.21672">
        <ele>293</ele>
        <time>2020-08-25T11:16:11.476Z</time>
      </trkpt>
      <trkpt lat="43.97063" lon="2.21672">
        <ele>293</ele>
        <time>2020-08-25T11:16:12.476Z</time>
      </trkpt>
      <trkpt lat="43.97062" lon="2.21672">
        <ele>293</ele>
        <time>2020-08-25T11:16:18.477Z</time>
      </trkpt>
      <trkpt lat="43.97061" lon="2.21673">
        <ele>293</ele>
        <time>2020-08-25T11:16:19.477Z</time>
      </trkpt>
      <trkpt lat="43.9706" lon="2.21674">
        <ele>293</ele>
        <time>2020-08-25T11:16:20.477Z</time>
      </trkpt>
      <trkpt lat="43.97059" lon="2.21674">
        <ele>293</ele>
        <time>2020-08-25T11:16:21.477Z</time>
      </trkpt>
      <trkpt lat="43.97058" lon="2.21675">
        <ele>293</ele>
        <time>2020-08-25T11:16:22.477Z</time>
      </trkpt>
      <trkpt lat="43.97058" lon="2.21676">
        <ele>293</ele>
        <time>2020-08-25T11:16:23.477Z</time>
      </trkpt>
      <trkpt lat="43.97057" lon="2.21676">
        <ele>293</ele>
        <time>2020-08-25T11:16:24.477Z</time>
      </trkpt>
      <trkpt lat="43.97057" lon="2.21677">
        <ele>293</ele>
        <time>2020-08-25T11:16:25.477Z</time>
      </trkpt>
      <trkpt lat="43.97056" lon="2.21677">
        <ele>293</ele>
        <time>2020-08-25T11:16:26.477Z</time>
      </trkpt>
      <trkpt lat="43.97056" lon="2.21677">
        <ele>293</ele>
        <time>2020-08-25T11:16:27.477Z</time>
      </trkpt>
      <trkpt lat="43.97056" lon="2.21676">
        <ele>293</ele>
        <time>2020-08-25T11:16:28.477Z</time>
      </trkpt>
      <trkpt lat="43.97056" lon="2.21676">
        <ele>293</ele>
        <time>2020-08-25T11:16:29.477Z</time>
      </trkpt>
      <trkpt lat="43.97055" lon="2.21677">
        <ele>293</ele>
        <time>2020-08-25T11:16:38.477Z</time>
      </trkpt>
      <trkpt lat="43.97054" lon="2.21678">
        <ele>293</ele>
        <time>2020-08-25T11:16:39.477Z</time>
      </trkpt>
      <trkpt lat="43.97053" lon="2.21679">
        <ele>293</ele>
        <time>2020-08-25T11:16:40.477Z</time>
      </trkpt>
      <trkpt lat="43.97051" lon="2.21679">
        <ele>293</ele>
        <time>2020-08-25T11:16:41.477Z</time>
      </trkpt>
      <trkpt lat="43.9705" lon="2.2168">
        <ele>293</ele>
        <time>2020-08-25T11:16:42.477Z</time>
      </trkpt>
      <trkpt lat="43.97049" lon="2.21681">
        <ele>293</ele>
        <time>2020-08-25T11:16:43.477Z</time>
      </trkpt>
      <trkpt lat="43.97048" lon="2.21681">
        <ele>293</ele>
        <time>2020-08-25T11:16:44.477Z</time>
      </trkpt>
      <trkpt lat="43.97047" lon="2.21682">
        <ele>293</ele>
        <time>2020-08-25T11:16:45.477Z</time>
      </trkpt>
      <trkpt lat="43.97046" lon="2.21683">
        <ele>293</ele>
        <time>2020-08-25T11:16:46.477Z</time>
      </trkpt>
      <trkpt lat="43.97045" lon="2.21684">
        <ele>293</ele>
        <time>2020-08-25T11:16:47.477Z</time>
      </trkpt>
      <trkpt lat="43.97044" lon="2.21685">
        <ele>293</ele>
        <time>2020-08-25T11:16:48.477Z</time>
      </trkpt>
      <trkpt lat="43.97043" lon="2.21685">
        <ele>293</ele>
        <time>2020-08-25T11:16:49.477Z</time>
      </trkpt>
      <trkpt lat="43.97042" lon="2.21686">
        <ele>293</ele>
        <time>2020-08-25T11:16:50.477Z</time>
      </trkpt>
      <trkpt lat="43.97041" lon="2.21687">
        <ele>293</ele>
        <time>2020-08-25T11:16:51.477Z</time>
      </trkpt>
      <trkpt lat="43.9704" lon="2.21688">
        <ele>293</ele>
        <time>2020-08-25T11:16:52.477Z</time>
      </trkpt>
      <trkpt lat="43.97039" lon="2.21689">
        <ele>293</ele>
        <time>2020-08-25T11:16:53.477Z</time>
      </trkpt>
      <trkpt lat="43.97038" lon="2.21689">
        <ele>293</ele>
        <time>2020-08-25T11:16:54.477Z</time>
      </trkpt>
      <trkpt lat="43.97037" lon="2.2169">
        <ele>292</ele>
        <time>2020-08-25T11:16:55.477Z</time>
      </trkpt>
      <trkpt lat="43.97037" lon="2.2169">
        <ele>292</ele>
        <time>2020-08-25T11:16:56.477Z</time>
      </trkpt>
      <trkpt lat="43.97037" lon="2.2169">
        <ele>292</ele>
        <time>2020-08-25T11:16:57.477Z</time>
      </trkpt>
      <trkpt lat="43.97037" lon="2.21689">
        <ele>292</ele>
        <time>2020-08-25T11:16:58.477Z</time>
      </trkpt>
      <trkpt lat="43.97036" lon="2.21691">
        <ele>292</ele>
        <time>2020-08-25T11:17:01.702Z</time>
      </trkpt>
      <trkpt lat="43.97034" lon="2.21692">
        <ele>292</ele>
        <time>2020-08-25T11:17:02.702Z</time>
      </trkpt>
      <trkpt lat="43.97033" lon="2.21692">
        <ele>292</ele>
        <time>2020-08-25T11:17:03.702Z</time>
      </trkpt>
      <trkpt lat="43.97032" lon="2.21693">
        <ele>292</ele>
        <time>2020-08-25T11:17:04.702Z</time>
      </trkpt>
      <trkpt lat="43.97031" lon="2.21694">
        <ele>292</ele>
        <time>2020-08-25T11:17:05.702Z</time>
      </trkpt>
      <trkpt lat="43.9703" lon="2.21695">
        <ele>292</ele>
        <time>2020-08-25T11:17:06.702Z</time>
      </trkpt>
      <trkpt lat="43.97029" lon="2.21696">
        <ele>292</ele>
        <time>2020-08-25T11:17:07.702Z</time>
      </trkpt>
      <trkpt lat="43.97028" lon="2.21696">
        <ele>292</ele>
        <time>2020-08-25T11:17:08.702Z</time>
      </trkpt>
      <trkpt lat="43.97027" lon="2.21697">
        <ele>292</ele>
        <time>2020-08-25T11:17:09.702Z</time>
      </trkpt>
      <trkpt lat="43.97026" lon="2.21697">
        <ele>292</ele>
        <time>2020-08-25T11:17:10.702Z</time>
      </trkpt>
      <trkpt lat="43.97025" lon="2.21698">
        <ele>292</ele>
        <time>2020-08-25T11:17:11.702Z</time>
      </trkpt>
      <trkpt lat="43.97024" lon="2.21699">
        <ele>292</ele>
        <time>2020-08-25T11:17:12.702Z</time>
      </trkpt>
      <trkpt lat="43.97023" lon="2.21699">
        <ele>292</ele>
        <time>2020-08-25T11:17:13.702Z</time>
      </trkpt>
      <trkpt lat="43.97022" lon="2.217">
        <ele>292</ele>
        <time>2020-08-25T11:17:14.702Z</time>
      </trkpt>
      <trkpt lat="43.97021" lon="2.21701">
        <ele>292</ele>
        <time>2020-08-25T11:17:15.702Z</time>
      </trkpt>
      <trkpt lat="43.9702" lon="2.21702">
        <ele>292</ele>
        <time>2020-08-25T11:17:16.702Z</time>
      </trkpt>
      <trkpt lat="43.97019" lon="2.21702">
        <ele>292</ele>
        <time>2020-08-25T11:17:17.702Z</time>
      </trkpt>
      <trkpt lat="43.97018" lon="2.21703">
        <ele>292</ele>
        <time>2020-08-25T11:17:18.702Z</time>
      </trkpt>
      <trkpt lat="43.97018" lon="2.21704">
        <ele>292</ele>
        <time>2020-08-25T11:17:19.702Z</time>
      </trkpt>
      <trkpt lat="43.97017" lon="2.21704">
        <ele>292</ele>
        <time>2020-08-25T11:17:20.702Z</time>
      </trkpt>
      <trkpt lat="43.97016" lon="2.21705">
        <ele>292</ele>
        <time>2020-08-25T11:17:21.702Z</time>
      </trkpt>
      <trkpt lat="43.97014" lon="2.21706">
        <ele>292</ele>
        <time>2020-08-25T11:17:22.702Z</time>
      </trkpt>
      <trkpt lat="43.97013" lon="2.21706">
        <ele>292</ele>
        <time>2020-08-25T11:17:23.702Z</time>
      </trkpt>
      <trkpt lat="43.97012" lon="2.21707">
        <ele>292</ele>
        <time>2020-08-25T11:17:24.702Z</time>
      </trkpt>
      <trkpt lat="43.97011" lon="2.21708">
        <ele>292</ele>
        <time>2020-08-25T11:17:25.702Z</time>
      </trkpt>
      <trkpt lat="43.97011" lon="2.21708">
        <ele>292</ele>
        <time>2020-08-25T11:17:26.702Z</time>
      </trkpt>
      <trkpt lat="43.9701" lon="2.21709">
        <ele>291</ele>
        <time>2020-08-25T11:17:27.702Z</time>
      </trkpt>
      <trkpt lat="43.97009" lon="2.2171">
        <ele>291</ele>
        <time>2020-08-25T11:17:28.702Z</time>
      </trkpt>
      <trkpt lat="43.97008" lon="2.2171">
        <ele>291</ele>
        <time>2020-08-25T11:17:29.702Z</time>
      </trkpt>
      <trkpt lat="43.97007" lon="2.21711">
        <ele>291</ele>
        <time>2020-08-25T11:17:30.702Z</time>
      </trkpt>
      <trkpt lat="43.97006" lon="2.21712">
        <ele>291</ele>
        <time>2020-08-25T11:17:31.702Z</time>
      </trkpt>
      <trkpt lat="43.97005" lon="2.21713">
        <ele>291</ele>
        <time>2020-08-25T11:17:32.702Z</time>
      </trkpt>
      <trkpt lat="43.97003" lon="2.21713">
        <ele>291</ele>
        <time>2020-08-25T11:17:33.702Z</time>
      </trkpt>
      <trkpt lat="43.97002" lon="2.21714">
        <ele>291</ele>
        <time>2020-08-25T11:17:34.702Z</time>
      </trkpt>
      <trkpt lat="43.97001" lon="2.21715">
        <ele>291</ele>
        <time>2020-08-25T11:17:35.702Z</time>
      </trkpt>
      <trkpt lat="43.97" lon="2.21715">
        <ele>291</ele>
        <time>2020-08-25T11:17:36.702Z</time>
      </trkpt>
      <trkpt lat="43.96999" lon="2.21716">
        <ele>291</ele>
        <time>2020-08-25T11:17:37.702Z</time>
      </trkpt>
      <trkpt lat="43.96997" lon="2.21717">
        <ele>291</ele>
        <time>2020-08-25T11:17:38.702Z</time>
      </trkpt>
      <trkpt lat="43.96996" lon="2.21717">
        <ele>291</ele>
        <time>2020-08-25T11:17:39.702Z</time>
      </trkpt>
      <trkpt lat="43.96995" lon="2.21718">
        <ele>291</ele>
        <time>2020-08-25T11:17:40.702Z</time>
      </trkpt>
      <trkpt lat="43.96994" lon="2.21719">
        <ele>291</ele>
        <time>2020-08-25T11:17:41.702Z</time>
      </trkpt>
      <trkpt lat="43.96992" lon="2.2172">
        <ele>290</ele>
        <time>2020-08-25T11:17:42.702Z</time>
      </trkpt>
      <trkpt lat="43.96991" lon="2.2172">
        <ele>290</ele>
        <time>2020-08-25T11:17:43.702Z</time>
      </trkpt>
      <trkpt lat="43.9699" lon="2.21721">
        <ele>290</ele>
        <time>2020-08-25T11:17:44.702Z</time>
      </trkpt>
      <trkpt lat="43.96989" lon="2.21722">
        <ele>290</ele>
        <time>2020-08-25T11:17:45.702Z</time>
      </trkpt>
      <trkpt lat="43.96987" lon="2.21722">
        <ele>290</ele>
        <time>2020-08-25T11:17:46.702Z</time>
      </trkpt>
      <trkpt lat="43.96986" lon="2.21722">
        <ele>290</ele>
        <time>2020-08-25T11:17:47.702Z</time>
      </trkpt>
      <trkpt lat="43.96985" lon="2.21723">
        <ele>290</ele>
        <time>2020-08-25T11:17:48.702Z</time>
      </trkpt>
      <trkpt lat="43.96983" lon="2.21723">
        <ele>290</ele>
        <time>2020-08-25T11:17:49.702Z</time>
      </trkpt>
      <trkpt lat="43.96982" lon="2.21723">
        <ele>290</ele>
        <time>2020-08-25T11:17:50.702Z</time>
      </trkpt>
      <trkpt lat="43.9698" lon="2.21723">
        <ele>290</ele>
        <time>2020-08-25T11:17:51.702Z</time>
      </trkpt>
      <trkpt lat="43.96979" lon="2.21723">
        <ele>290</ele>
        <time>2020-08-25T11:17:52.702Z</time>
      </trkpt>
      <trkpt lat="43.96978" lon="2.21723">
        <ele>290</ele>
        <time>2020-08-25T11:17:53.702Z</time>
      </trkpt>
      <trkpt lat="43.96976" lon="2.21723">
        <ele>289</ele>
        <time>2020-08-25T11:17:54.702Z</time>
      </trkpt>
      <trkpt lat="43.96975" lon="2.21723">
        <ele>289</ele>
        <time>2020-08-25T11:17:55.702Z</time>
      </trkpt>
      <trkpt lat="43.96973" lon="2.21723">
        <ele>289</ele>
        <time>2020-08-25T11:17:56.702Z</time>
      </trkpt>
      <trkpt lat="43.96972" lon="2.21723">
        <ele>289</ele>
        <time>2020-08-25T11:17:57.702Z</time>
      </trkpt>
      <trkpt lat="43.9697" lon="2.21723">
        <ele>289</ele>
        <time>2020-08-25T11:17:58.702Z</time>
      </trkpt>
      <trkpt lat="43.96969" lon="2.21722">
        <ele>289</ele>
        <time>2020-08-25T11:17:59.702Z</time>
      </trkpt>
      <trkpt lat="43.96968" lon="2.21722">
        <ele>289</ele>
        <time>2020-08-25T11:18:00.702Z</time>
      </trkpt>
      <trkpt lat="43.96966" lon="2.21722">
        <ele>289</ele>
        <time>2020-08-25T11:18:01.702Z</time>
      </trkpt>
      <trkpt lat="43.96965" lon="2.21721">
        <ele>289</ele>
        <time>2020-08-25T11:18:02.702Z</time>
      </trkpt>
      <trkpt lat="43.96964" lon="2.21721">
        <ele>289</ele>
        <time>2020-08-25T11:18:03.702Z</time>
      </trkpt>
      <trkpt lat="43.96963" lon="2.21721">
        <ele>289</ele>
        <time>2020-08-25T11:18:04.702Z</time>
      </trkpt>
      <trkpt lat="43.96961" lon="2.21721">
        <ele>289</ele>
        <time>2020-08-25T11:18:05.702Z</time>
      </trkpt>
      <trkpt lat="43.9696" lon="2.2172">
        <ele>289</ele>
        <time>2020-08-25T11:18:06.702Z</time>
      </trkpt>
      <trkpt lat="43.96959" lon="2.2172">
        <ele>288</ele>
        <time>2020-08-25T11:18:07.702Z</time>
      </trkpt>
      <trkpt lat="43.96958" lon="2.21719">
        <ele>288</ele>
        <time>2020-08-25T11:18:08.702Z</time>
      </trkpt>
      <trkpt lat="43.96956" lon="2.21719">
        <ele>288</ele>
        <time>2020-08-25T11:18:09.702Z</time>
      </trkpt>
      <trkpt lat="43.96955" lon="2.21719">
        <ele>288</ele>
        <time>2020-08-25T11:18:10.702Z</time>
      </trkpt>
      <trkpt lat="43.96954" lon="2.21719">
        <ele>288</ele>
        <time>2020-08-25T11:18:11.702Z</time>
      </trkpt>
      <trkpt lat="43.96952" lon="2.21719">
        <ele>288</ele>
        <time>2020-08-25T11:18:12.702Z</time>
      </trkpt>
      <trkpt lat="43.96951" lon="2.21719">
        <ele>288</ele>
        <time>2020-08-25T11:18:13.702Z</time>
      </trkpt>
      <trkpt lat="43.96949" lon="2.21719">
        <ele>288</ele>
        <time>2020-08-25T11:18:14.702Z</time>
      </trkpt>
      <trkpt lat="43.96948" lon="2.21719">
        <ele>288</ele>
        <time>2020-08-25T11:18:15.702Z</time>
      </trkpt>
      <trkpt lat="43.96947" lon="2.21718">
        <ele>287</ele>
        <time>2020-08-25T11:18:16.702Z</time>
      </trkpt>
      <trkpt lat="43.96946" lon="2.21718">
        <ele>287</ele>
        <time>2020-08-25T11:18:17.702Z</time>
      </trkpt>
      <trkpt lat="43.96944" lon="2.21718">
        <ele>287</ele>
        <time>2020-08-25T11:18:18.702Z</time>
      </trkpt>
      <trkpt lat="43.96943" lon="2.21718">
        <ele>287</ele>
        <time>2020-08-25T11:18:19.702Z</time>
      </trkpt>
      <trkpt lat="43.96942" lon="2.21718">
        <ele>287</ele>
        <time>2020-08-25T11:18:20.702Z</time>
      </trkpt>
      <trkpt lat="43.96941" lon="2.21717">
        <ele>287</ele>
        <time>2020-08-25T11:18:21.702Z</time>
      </trkpt>
      <trkpt lat="43.96939" lon="2.21717">
        <ele>287</ele>
        <time>2020-08-25T11:18:22.702Z</time>
      </trkpt>
      <trkpt lat="43.96938" lon="2.21717">
        <ele>287</ele>
        <time>2020-08-25T11:18:23.702Z</time>
      </trkpt>
      <trkpt lat="43.96936" lon="2.21717">
        <ele>287</ele>
        <time>2020-08-25T11:18:24.702Z</time>
      </trkpt>
      <trkpt lat="43.96935" lon="2.21717">
        <ele>287</ele>
        <time>2020-08-25T11:18:25.702Z</time>
      </trkpt>
      <trkpt lat="43.96934" lon="2.21717">
        <ele>287</ele>
        <time>2020-08-25T11:18:26.702Z</time>
      </trkpt>
      <trkpt lat="43.96932" lon="2.21716">
        <ele>287</ele>
        <time>2020-08-25T11:18:27.702Z</time>
      </trkpt>
      <trkpt lat="43.96931" lon="2.21716">
        <ele>287</ele>
        <time>2020-08-25T11:18:28.702Z</time>
      </trkpt>
      <trkpt lat="43.9693" lon="2.21716">
        <ele>287</ele>
        <time>2020-08-25T11:18:29.702Z</time>
      </trkpt>
      <trkpt lat="43.96929" lon="2.21715">
        <ele>287</ele>
        <time>2020-08-25T11:18:30.702Z</time>
      </trkpt>
      <trkpt lat="43.96928" lon="2.21715">
        <ele>287</ele>
        <time>2020-08-25T11:18:31.702Z</time>
      </trkpt>
      <trkpt lat="43.96926" lon="2.21715">
        <ele>286</ele>
        <time>2020-08-25T11:18:32.702Z</time>
      </trkpt>
      <trkpt lat="43.96925" lon="2.21715">
        <ele>286</ele>
        <time>2020-08-25T11:18:33.702Z</time>
      </trkpt>
      <trkpt lat="43.96924" lon="2.21715">
        <ele>286</ele>
        <time>2020-08-25T11:18:34.702Z</time>
      </trkpt>
      <trkpt lat="43.96922" lon="2.21714">
        <ele>286</ele>
        <time>2020-08-25T11:18:35.702Z</time>
      </trkpt>
      <trkpt lat="43.96921" lon="2.21714">
        <ele>286</ele>
        <time>2020-08-25T11:18:36.702Z</time>
      </trkpt>
      <trkpt lat="43.96919" lon="2.21714">
        <ele>286</ele>
        <time>2020-08-25T11:18:37.702Z</time>
      </trkpt>
      <trkpt lat="43.96918" lon="2.21714">
        <ele>286</ele>
        <time>2020-08-25T11:18:38.702Z</time>
      </trkpt>
      <trkpt lat="43.96917" lon="2.21714">
        <ele>286</ele>
        <time>2020-08-25T11:18:39.702Z</time>
      </trkpt>
      <trkpt lat="43.96915" lon="2.21714">
        <ele>286</ele>
        <time>2020-08-25T11:18:40.702Z</time>
      </trkpt>
      <trkpt lat="43.96914" lon="2.21713">
        <ele>286</ele>
        <time>2020-08-25T11:18:41.702Z</time>
      </trkpt>
      <trkpt lat="43.96913" lon="2.21713">
        <ele>286</ele>
        <time>2020-08-25T11:18:42.702Z</time>
      </trkpt>
      <trkpt lat="43.96911" lon="2.21713">
        <ele>286</ele>
        <time>2020-08-25T11:18:43.702Z</time>
      </trkpt>
      <trkpt lat="43.9691" lon="2.21713">
        <ele>286</ele>
        <time>2020-08-25T11:18:44.702Z</time>
      </trkpt>
      <trkpt lat="43.96909" lon="2.21713">
        <ele>285</ele>
        <time>2020-08-25T11:18:45.702Z</time>
      </trkpt>
      <trkpt lat="43.96908" lon="2.21713">
        <ele>285</ele>
        <time>2020-08-25T11:18:46.702Z</time>
      </trkpt>
      <trkpt lat="43.96906" lon="2.21713">
        <ele>285</ele>
        <time>2020-08-25T11:18:47.702Z</time>
      </trkpt>
      <trkpt lat="43.96905" lon="2.21713">
        <ele>285</ele>
        <time>2020-08-25T11:18:48.702Z</time>
      </trkpt>
      <trkpt lat="43.96903" lon="2.21713">
        <ele>285</ele>
        <time>2020-08-25T11:18:49.702Z</time>
      </trkpt>
      <trkpt lat="43.96902" lon="2.21713">
        <ele>285</ele>
        <time>2020-08-25T11:18:50.702Z</time>
      </trkpt>
      <trkpt lat="43.969" lon="2.21713">
        <ele>285</ele>
        <time>2020-08-25T11:18:51.702Z</time>
      </trkpt>
      <trkpt lat="43.96899" lon="2.21714">
        <ele>284</ele>
        <time>2020-08-25T11:18:52.702Z</time>
      </trkpt>
      <trkpt lat="43.96898" lon="2.21714">
        <ele>284</ele>
        <time>2020-08-25T11:18:53.702Z</time>
      </trkpt>
      <trkpt lat="43.96897" lon="2.21715">
        <ele>284</ele>
        <time>2020-08-25T11:18:54.702Z</time>
      </trkpt>
      <trkpt lat="43.96896" lon="2.21716">
        <ele>284</ele>
        <time>2020-08-25T11:18:55.702Z</time>
      </trkpt>
      <trkpt lat="43.96894" lon="2.21716">
        <ele>283</ele>
        <time>2020-08-25T11:18:56.702Z</time>
      </trkpt>
      <trkpt lat="43.96893" lon="2.21717">
        <ele>283</ele>
        <time>2020-08-25T11:18:57.702Z</time>
      </trkpt>
      <trkpt lat="43.96892" lon="2.21717">
        <ele>283</ele>
        <time>2020-08-25T11:18:58.702Z</time>
      </trkpt>
      <trkpt lat="43.96891" lon="2.21718">
        <ele>283</ele>
        <time>2020-08-25T11:18:59.702Z</time>
      </trkpt>
      <trkpt lat="43.96889" lon="2.21719">
        <ele>283</ele>
        <time>2020-08-25T11:19:00.702Z</time>
      </trkpt>
      <trkpt lat="43.96888" lon="2.2172">
        <ele>283</ele>
        <time>2020-08-25T11:19:01.702Z</time>
      </trkpt>
      <trkpt lat="43.96887" lon="2.21721">
        <ele>283</ele>
        <time>2020-08-25T11:19:02.702Z</time>
      </trkpt>
      <trkpt lat="43.96886" lon="2.21722">
        <ele>283</ele>
        <time>2020-08-25T11:19:03.702Z</time>
      </trkpt>
      <trkpt lat="43.96885" lon="2.21723">
        <ele>283</ele>
        <time>2020-08-25T11:19:04.702Z</time>
      </trkpt>
      <trkpt lat="43.96884" lon="2.21724">
        <ele>283</ele>
        <time>2020-08-25T11:19:05.702Z</time>
      </trkpt>
      <trkpt lat="43.96883" lon="2.21725">
        <ele>283</ele>
        <time>2020-08-25T11:19:06.702Z</time>
      </trkpt>
      <trkpt lat="43.96881" lon="2.21726">
        <ele>283</ele>
        <time>2020-08-25T11:19:07.702Z</time>
      </trkpt>
      <trkpt lat="43.9688" lon="2.21726">
        <ele>283</ele>
        <time>2020-08-25T11:19:08.702Z</time>
      </trkpt>
      <trkpt lat="43.96879" lon="2.21727">
        <ele>283</ele>
        <time>2020-08-25T11:19:09.702Z</time>
      </trkpt>
      <trkpt lat="43.96878" lon="2.21728">
        <ele>283</ele>
        <time>2020-08-25T11:19:10.702Z</time>
      </trkpt>
      <trkpt lat="43.96877" lon="2.21729">
        <ele>282</ele>
        <time>2020-08-25T11:19:11.702Z</time>
      </trkpt>
      <trkpt lat="43.96876" lon="2.21729">
        <ele>282</ele>
        <time>2020-08-25T11:19:12.702Z</time>
      </trkpt>
      <trkpt lat="43.96875" lon="2.2173">
        <ele>282</ele>
        <time>2020-08-25T11:19:13.702Z</time>
      </trkpt>
      <trkpt lat="43.96874" lon="2.21731">
        <ele>282</ele>
        <time>2020-08-25T11:19:14.702Z</time>
      </trkpt>
      <trkpt lat="43.96873" lon="2.21732">
        <ele>282</ele>
        <time>2020-08-25T11:19:15.702Z</time>
      </trkpt>
      <trkpt lat="43.96871" lon="2.21733">
        <ele>282</ele>
        <time>2020-08-25T11:19:16.702Z</time>
      </trkpt>
      <trkpt lat="43.9687" lon="2.21733">
        <ele>282</ele>
        <time>2020-08-25T11:19:17.702Z</time>
      </trkpt>
      <trkpt lat="43.96869" lon="2.21734">
        <ele>282</ele>
        <time>2020-08-25T11:19:18.702Z</time>
      </trkpt>
      <trkpt lat="43.96868" lon="2.21735">
        <ele>282</ele>
        <time>2020-08-25T11:19:19.702Z</time>
      </trkpt>
      <trkpt lat="43.96867" lon="2.21736">
        <ele>282</ele>
        <time>2020-08-25T11:19:20.702Z</time>
      </trkpt>
      <trkpt lat="43.96866" lon="2.21736">
        <ele>282</ele>
        <time>2020-08-25T11:19:21.702Z</time>
      </trkpt>
      <trkpt lat="43.96865" lon="2.21737">
        <ele>282</ele>
        <time>2020-08-25T11:19:22.702Z</time>
      </trkpt>
      <trkpt lat="43.96863" lon="2.21737">
        <ele>282</ele>
        <time>2020-08-25T11:19:23.702Z</time>
      </trkpt>
      <trkpt lat="43.96862" lon="2.21737">
        <ele>282</ele>
        <time>2020-08-25T11:19:24.702Z</time>
      </trkpt>
      <trkpt lat="43.96861" lon="2.21738">
        <ele>281</ele>
        <time>2020-08-25T11:19:25.702Z</time>
      </trkpt>
      <trkpt lat="43.96859" lon="2.21738">
        <ele>281</ele>
        <time>2020-08-25T11:19:26.702Z</time>
      </trkpt>
      <trkpt lat="43.96858" lon="2.21738">
        <ele>281</ele>
        <time>2020-08-25T11:19:27.702Z</time>
      </trkpt>
      <trkpt lat="43.96857" lon="2.21739">
        <ele>281</ele>
        <time>2020-08-25T11:19:28.702Z</time>
      </trkpt>
      <trkpt lat="43.96855" lon="2.21739">
        <ele>281</ele>
        <time>2020-08-25T11:19:29.702Z</time>
      </trkpt>
      <trkpt lat="43.96854" lon="2.21739">
        <ele>281</ele>
        <time>2020-08-25T11:19:30.702Z</time>
      </trkpt>
      <trkpt lat="43.96853" lon="2.21739">
        <ele>281</ele>
        <time>2020-08-25T11:19:31.702Z</time>
      </trkpt>
      <trkpt lat="43.96851" lon="2.2174">
        <ele>281</ele>
        <time>2020-08-25T11:19:32.702Z</time>
      </trkpt>
      <trkpt lat="43.9685" lon="2.2174">
        <ele>281</ele>
        <time>2020-08-25T11:19:33.702Z</time>
      </trkpt>
      <trkpt lat="43.96849" lon="2.2174">
        <ele>281</ele>
        <time>2020-08-25T11:19:34.702Z</time>
      </trkpt>
      <trkpt lat="43.96847" lon="2.2174">
        <ele>281</ele>
        <time>2020-08-25T11:19:35.702Z</time>
      </trkpt>
      <trkpt lat="43.96846" lon="2.2174">
        <ele>280</ele>
        <time>2020-08-25T11:19:36.702Z</time>
      </trkpt>
      <trkpt lat="43.96845" lon="2.2174">
        <ele>280</ele>
        <time>2020-08-25T11:19:37.702Z</time>
      </trkpt>
      <trkpt lat="43.96844" lon="2.2174">
        <ele>280</ele>
        <time>2020-08-25T11:19:38.702Z</time>
      </trkpt>
      <trkpt lat="43.96842" lon="2.2174">
        <ele>280</ele>
        <time>2020-08-25T11:19:39.702Z</time>
      </trkpt>
      <trkpt lat="43.96841" lon="2.2174">
        <ele>280</ele>
        <time>2020-08-25T11:19:40.702Z</time>
      </trkpt>
      <trkpt lat="43.9684" lon="2.2174">
        <ele>280</ele>
        <time>2020-08-25T11:19:41.702Z</time>
      </trkpt>
      <trkpt lat="43.96839" lon="2.2174">
        <ele>279</ele>
        <time>2020-08-25T11:19:42.702Z</time>
      </trkpt>
      <trkpt lat="43.96837" lon="2.2174">
        <ele>279</ele>
        <time>2020-08-25T11:19:43.702Z</time>
      </trkpt>
      <trkpt lat="43.96836" lon="2.2174">
        <ele>279</ele>
        <time>2020-08-25T11:19:44.702Z</time>
      </trkpt>
      <trkpt lat="43.96835" lon="2.21741">
        <ele>279</ele>
        <time>2020-08-25T11:19:45.702Z</time>
      </trkpt>
      <trkpt lat="43.96833" lon="2.21741">
        <ele>279</ele>
        <time>2020-08-25T11:19:46.702Z</time>
      </trkpt>
      <trkpt lat="43.96832" lon="2.21741">
        <ele>279</ele>
        <time>2020-08-25T11:19:47.702Z</time>
      </trkpt>
      <trkpt lat="43.96831" lon="2.21741">
        <ele>279</ele>
        <time>2020-08-25T11:19:48.702Z</time>
      </trkpt>
      <trkpt lat="43.9683" lon="2.21741">
        <ele>279</ele>
        <time>2020-08-25T11:19:49.702Z</time>
      </trkpt>
      <trkpt lat="43.96829" lon="2.21742">
        <ele>279</ele>
        <time>2020-08-25T11:19:50.702Z</time>
      </trkpt>
      <trkpt lat="43.96827" lon="2.21742">
        <ele>279</ele>
        <time>2020-08-25T11:19:51.702Z</time>
      </trkpt>
      <trkpt lat="43.96826" lon="2.21742">
        <ele>278</ele>
        <time>2020-08-25T11:19:52.702Z</time>
      </trkpt>
      <trkpt lat="43.96824" lon="2.21743">
        <ele>278</ele>
        <time>2020-08-25T11:19:53.702Z</time>
      </trkpt>
      <trkpt lat="43.96823" lon="2.21743">
        <ele>278</ele>
        <time>2020-08-25T11:19:54.702Z</time>
      </trkpt>
      <trkpt lat="43.96822" lon="2.21744">
        <ele>278</ele>
        <time>2020-08-25T11:19:55.702Z</time>
      </trkpt>
      <trkpt lat="43.96821" lon="2.21744">
        <ele>278</ele>
        <time>2020-08-25T11:19:56.702Z</time>
      </trkpt>
      <trkpt lat="43.9682" lon="2.21745">
        <ele>278</ele>
        <time>2020-08-25T11:19:57.702Z</time>
      </trkpt>
      <trkpt lat="43.96819" lon="2.21745">
        <ele>278</ele>
        <time>2020-08-25T11:19:58.702Z</time>
      </trkpt>
      <trkpt lat="43.96818" lon="2.21746">
        <ele>278</ele>
        <time>2020-08-25T11:19:59.702Z</time>
      </trkpt>
      <trkpt lat="43.96816" lon="2.21747">
        <ele>278</ele>
        <time>2020-08-25T11:20:00.702Z</time>
      </trkpt>
      <trkpt lat="43.96815" lon="2.21748">
        <ele>278</ele>
        <time>2020-08-25T11:20:01.702Z</time>
      </trkpt>
      <trkpt lat="43.96814" lon="2.21748">
        <ele>278</ele>
        <time>2020-08-25T11:20:02.702Z</time>
      </trkpt>
      <trkpt lat="43.96813" lon="2.21749">
        <ele>278</ele>
        <time>2020-08-25T11:20:03.702Z</time>
      </trkpt>
      <trkpt lat="43.96812" lon="2.2175">
        <ele>277</ele>
        <time>2020-08-25T11:20:04.702Z</time>
      </trkpt>
      <trkpt lat="43.96811" lon="2.21751">
        <ele>277</ele>
        <time>2020-08-25T11:20:05.702Z</time>
      </trkpt>
      <trkpt lat="43.9681" lon="2.21752">
        <ele>277</ele>
        <time>2020-08-25T11:20:06.702Z</time>
      </trkpt>
      <trkpt lat="43.96809" lon="2.21753">
        <ele>277</ele>
        <time>2020-08-25T11:20:07.702Z</time>
      </trkpt>
      <trkpt lat="43.96808" lon="2.21754">
        <ele>277</ele>
        <time>2020-08-25T11:20:08.702Z</time>
      </trkpt>
      <trkpt lat="43.96807" lon="2.21755">
        <ele>277</ele>
        <time>2020-08-25T11:20:09.702Z</time>
      </trkpt>
      <trkpt lat="43.96806" lon="2.21756">
        <ele>277</ele>
        <time>2020-08-25T11:20:10.702Z</time>
      </trkpt>
      <trkpt lat="43.96805" lon="2.21757">
        <ele>277</ele>
        <time>2020-08-25T11:20:11.702Z</time>
      </trkpt>
      <trkpt lat="43.96804" lon="2.21758">
        <ele>277</ele>
        <time>2020-08-25T11:20:12.702Z</time>
      </trkpt>
      <trkpt lat="43.96803" lon="2.21759">
        <ele>276</ele>
        <time>2020-08-25T11:20:13.702Z</time>
      </trkpt>
      <trkpt lat="43.96802" lon="2.2176">
        <ele>276</ele>
        <time>2020-08-25T11:20:14.702Z</time>
      </trkpt>
      <trkpt lat="43.96801" lon="2.21761">
        <ele>276</ele>
        <time>2020-08-25T11:20:15.702Z</time>
      </trkpt>
      <trkpt lat="43.968" lon="2.21762">
        <ele>276</ele>
        <time>2020-08-25T11:20:16.702Z</time>
      </trkpt>
      <trkpt lat="43.968" lon="2.21763">
        <ele>276</ele>
        <time>2020-08-25T11:20:17.702Z</time>
      </trkpt>
      <trkpt lat="43.96799" lon="2.21764">
        <ele>276</ele>
        <time>2020-08-25T11:20:18.702Z</time>
      </trkpt>
      <trkpt lat="43.96798" lon="2.21766">
        <ele>276</ele>
        <time>2020-08-25T11:20:19.702Z</time>
      </trkpt>
      <trkpt lat="43.96797" lon="2.21767">
        <ele>276</ele>
        <time>2020-08-25T11:20:20.702Z</time>
      </trkpt>
      <trkpt lat="43.96797" lon="2.21768">
        <ele>276</ele>
        <time>2020-08-25T11:20:21.702Z</time>
      </trkpt>
      <trkpt lat="43.96796" lon="2.21769">
        <ele>276</ele>
        <time>2020-08-25T11:20:22.702Z</time>
      </trkpt>
      <trkpt lat="43.96795" lon="2.2177">
        <ele>276</ele>
        <time>2020-08-25T11:20:23.702Z</time>
      </trkpt>
      <trkpt lat="43.96795" lon="2.21771">
        <ele>275</ele>
        <time>2020-08-25T11:20:24.702Z</time>
      </trkpt>
      <trkpt lat="43.96794" lon="2.21772">
        <ele>275</ele>
        <time>2020-08-25T11:20:25.702Z</time>
      </trkpt>
      <trkpt lat="43.96793" lon="2.21773">
        <ele>275</ele>
        <time>2020-08-25T11:20:26.702Z</time>
      </trkpt>
      <trkpt lat="43.96793" lon="2.21775">
        <ele>275</ele>
        <time>2020-08-25T11:20:27.702Z</time>
      </trkpt>
      <trkpt lat="43.96792" lon="2.21776">
        <ele>275</ele>
        <time>2020-08-25T11:20:28.702Z</time>
      </trkpt>
      <trkpt lat="43.96791" lon="2.21778">
        <ele>276</ele>
        <time>2020-08-25T11:20:29.702Z</time>
      </trkpt>
      <trkpt lat="43.9679" lon="2.21779">
        <ele>276</ele>
        <time>2020-08-25T11:20:30.702Z</time>
      </trkpt>
      <trkpt lat="43.96789" lon="2.2178">
        <ele>276</ele>
        <time>2020-08-25T11:20:31.702Z</time>
      </trkpt>
      <trkpt lat="43.96788" lon="2.21781">
        <ele>276</ele>
        <time>2020-08-25T11:20:32.702Z</time>
      </trkpt>
      <trkpt lat="43.96787" lon="2.21783">
        <ele>276</ele>
        <time>2020-08-25T11:20:33.702Z</time>
      </trkpt>
      <trkpt lat="43.96787" lon="2.21784">
        <ele>276</ele>
        <time>2020-08-25T11:20:34.702Z</time>
      </trkpt>
      <trkpt lat="43.96786" lon="2.21785">
        <ele>275</ele>
        <time>2020-08-25T11:20:35.702Z</time>
      </trkpt>
      <trkpt lat="43.96785" lon="2.21786">
        <ele>276</ele>
        <time>2020-08-25T11:20:36.702Z</time>
      </trkpt>
      <trkpt lat="43.96784" lon="2.21788">
        <ele>276</ele>
        <time>2020-08-25T11:20:37.702Z</time>
      </trkpt>
      <trkpt lat="43.96784" lon="2.21789">
        <ele>275</ele>
        <time>2020-08-25T11:20:38.702Z</time>
      </trkpt>
      <trkpt lat="43.96783" lon="2.2179">
        <ele>275</ele>
        <time>2020-08-25T11:20:39.702Z</time>
      </trkpt>
      <trkpt lat="43.96782" lon="2.21792">
        <ele>275</ele>
        <time>2020-08-25T11:20:40.702Z</time>
      </trkpt>
      <trkpt lat="43.96781" lon="2.21793">
        <ele>275</ele>
        <time>2020-08-25T11:20:41.702Z</time>
      </trkpt>
      <trkpt lat="43.9678" lon="2.21794">
        <ele>275</ele>
        <time>2020-08-25T11:20:42.702Z</time>
      </trkpt>
      <trkpt lat="43.9678" lon="2.21796">
        <ele>275</ele>
        <time>2020-08-25T11:20:43.702Z</time>
      </trkpt>
      <trkpt lat="43.96779" lon="2.21797">
        <ele>275</ele>
        <time>2020-08-25T11:20:44.702Z</time>
      </trkpt>
      <trkpt lat="43.96779" lon="2.21799">
        <ele>275</ele>
        <time>2020-08-25T11:20:45.702Z</time>
      </trkpt>
      <trkpt lat="43.96778" lon="2.218">
        <ele>275</ele>
        <time>2020-08-25T11:20:46.702Z</time>
      </trkpt>
      <trkpt lat="43.96777" lon="2.21801">
        <ele>275</ele>
        <time>2020-08-25T11:20:47.702Z</time>
      </trkpt>
      <trkpt lat="43.96777" lon="2.21802">
        <ele>276</ele>
        <time>2020-08-25T11:20:48.702Z</time>
      </trkpt>
      <trkpt lat="43.96776" lon="2.21804">
        <ele>276</ele>
        <time>2020-08-25T11:20:49.702Z</time>
      </trkpt>
      <trkpt lat="43.96776" lon="2.21805">
        <ele>276</ele>
        <time>2020-08-25T11:20:50.702Z</time>
      </trkpt>
      <trkpt lat="43.96775" lon="2.21806">
        <ele>276</ele>
        <time>2020-08-25T11:20:51.702Z</time>
      </trkpt>
      <trkpt lat="43.96773" lon="2.21808">
        <ele>276</ele>
        <time>2020-08-25T11:20:52.702Z</time>
      </trkpt>
      <trkpt lat="43.96772" lon="2.21809">
        <ele>276</ele>
        <time>2020-08-25T11:20:53.702Z</time>
      </trkpt>
      <trkpt lat="43.96771" lon="2.2181">
        <ele>276</ele>
        <time>2020-08-25T11:20:54.702Z</time>
      </trkpt>
      <trkpt lat="43.9677" lon="2.2181">
        <ele>276</ele>
        <time>2020-08-25T11:20:55.702Z</time>
      </trkpt>
      <trkpt lat="43.96769" lon="2.21811">
        <ele>276</ele>
        <time>2020-08-25T11:20:56.702Z</time>
      </trkpt>
      <trkpt lat="43.96767" lon="2.21811">
        <ele>276</ele>
        <time>2020-08-25T11:20:57.702Z</time>
      </trkpt>
      <trkpt lat="43.96766" lon="2.21811">
        <ele>276</ele>
        <time>2020-08-25T11:20:58.702Z</time>
      </trkpt>
      <trkpt lat="43.96764" lon="2.2181">
        <ele>276</ele>
        <time>2020-08-25T11:20:59.702Z</time>
      </trkpt>
      <trkpt lat="43.96763" lon="2.2181">
        <ele>276</ele>
        <time>2020-08-25T11:21:00.702Z</time>
      </trkpt>
      <trkpt lat="43.96762" lon="2.21809">
        <ele>276</ele>
        <time>2020-08-25T11:21:01.702Z</time>
      </trkpt>
      <trkpt lat="43.9676" lon="2.21809">
        <ele>276</ele>
        <time>2020-08-25T11:21:02.702Z</time>
      </trkpt>
      <trkpt lat="43.96759" lon="2.21808">
        <ele>276</ele>
        <time>2020-08-25T11:21:03.702Z</time>
      </trkpt>
      <trkpt lat="43.96757" lon="2.21808">
        <ele>276</ele>
        <time>2020-08-25T11:21:04.702Z</time>
      </trkpt>
      <trkpt lat="43.96756" lon="2.21808">
        <ele>276</ele>
        <time>2020-08-25T11:21:05.702Z</time>
      </trkpt>
      <trkpt lat="43.96755" lon="2.21807">
        <ele>275</ele>
        <time>2020-08-25T11:21:06.702Z</time>
      </trkpt>
      <trkpt lat="43.96753" lon="2.21807">
        <ele>275</ele>
        <time>2020-08-25T11:21:07.702Z</time>
      </trkpt>
      <trkpt lat="43.96752" lon="2.21807">
        <ele>275</ele>
        <time>2020-08-25T11:21:08.702Z</time>
      </trkpt>
      <trkpt lat="43.96751" lon="2.21807">
        <ele>275</ele>
        <time>2020-08-25T11:21:09.702Z</time>
      </trkpt>
      <trkpt lat="43.96749" lon="2.21807">
        <ele>275</ele>
        <time>2020-08-25T11:21:10.702Z</time>
      </trkpt>
      <trkpt lat="43.96748" lon="2.21806">
        <ele>275</ele>
        <time>2020-08-25T11:21:11.702Z</time>
      </trkpt>
      <trkpt lat="43.96747" lon="2.21806">
        <ele>275</ele>
        <time>2020-08-25T11:21:12.702Z</time>
      </trkpt>
      <trkpt lat="43.96746" lon="2.21806">
        <ele>275</ele>
        <time>2020-08-25T11:21:13.702Z</time>
      </trkpt>
      <trkpt lat="43.96744" lon="2.21806">
        <ele>275</ele>
        <time>2020-08-25T11:21:14.702Z</time>
      </trkpt>
      <trkpt lat="43.96743" lon="2.21806">
        <ele>275</ele>
        <time>2020-08-25T11:21:15.702Z</time>
      </trkpt>
      <trkpt lat="43.96742" lon="2.21806">
        <ele>275</ele>
        <time>2020-08-25T11:21:16.702Z</time>
      </trkpt>
      <trkpt lat="43.96741" lon="2.21806">
        <ele>275</ele>
        <time>2020-08-25T11:21:17.702Z</time>
      </trkpt>
      <trkpt lat="43.9674" lon="2.21805">
        <ele>274</ele>
        <time>2020-08-25T11:21:18.702Z</time>
      </trkpt>
      <trkpt lat="43.96738" lon="2.21805">
        <ele>274</ele>
        <time>2020-08-25T11:21:19.702Z</time>
      </trkpt>
      <trkpt lat="43.96737" lon="2.21805">
        <ele>274</ele>
        <time>2020-08-25T11:21:20.702Z</time>
      </trkpt>
      <trkpt lat="43.96736" lon="2.21804">
        <ele>274</ele>
        <time>2020-08-25T11:21:21.702Z</time>
      </trkpt>
      <trkpt lat="43.96734" lon="2.21804">
        <ele>274</ele>
        <time>2020-08-25T11:21:22.702Z</time>
      </trkpt>
      <trkpt lat="43.96733" lon="2.21803">
        <ele>274</ele>
        <time>2020-08-25T11:21:23.702Z</time>
      </trkpt>
      <trkpt lat="43.96732" lon="2.21803">
        <ele>274</ele>
        <time>2020-08-25T11:21:24.702Z</time>
      </trkpt>
      <trkpt lat="43.96731" lon="2.21802">
        <ele>274</ele>
        <time>2020-08-25T11:21:25.702Z</time>
      </trkpt>
      <trkpt lat="43.9673" lon="2.21802">
        <ele>274</ele>
        <time>2020-08-25T11:21:26.702Z</time>
      </trkpt>
      <trkpt lat="43.96729" lon="2.21802">
        <ele>274</ele>
        <time>2020-08-25T11:21:27.702Z</time>
      </trkpt>
      <trkpt lat="43.96727" lon="2.21801">
        <ele>274</ele>
        <time>2020-08-25T11:21:28.702Z</time>
      </trkpt>
      <trkpt lat="43.96726" lon="2.21801">
        <ele>274</ele>
        <time>2020-08-25T11:21:29.702Z</time>
      </trkpt>
      <trkpt lat="43.96725" lon="2.21801">
        <ele>273</ele>
        <time>2020-08-25T11:21:30.702Z</time>
      </trkpt>
      <trkpt lat="43.96724" lon="2.218">
        <ele>273</ele>
        <time>2020-08-25T11:21:31.702Z</time>
      </trkpt>
      <trkpt lat="43.96723" lon="2.218">
        <ele>273</ele>
        <time>2020-08-25T11:21:32.702Z</time>
      </trkpt>
      <trkpt lat="43.96721" lon="2.218">
        <ele>273</ele>
        <time>2020-08-25T11:21:33.702Z</time>
      </trkpt>
      <trkpt lat="43.9672" lon="2.218">
        <ele>273</ele>
        <time>2020-08-25T11:21:34.702Z</time>
      </trkpt>
      <trkpt lat="43.96719" lon="2.21799">
        <ele>272</ele>
        <time>2020-08-25T11:21:35.702Z</time>
      </trkpt>
      <trkpt lat="43.96717" lon="2.21799">
        <ele>272</ele>
        <time>2020-08-25T11:21:36.702Z</time>
      </trkpt>
      <trkpt lat="43.96716" lon="2.21799">
        <ele>272</ele>
        <time>2020-08-25T11:21:37.702Z</time>
      </trkpt>
      <trkpt lat="43.96715" lon="2.21799">
        <ele>272</ele>
        <time>2020-08-25T11:21:38.702Z</time>
      </trkpt>
      <trkpt lat="43.96714" lon="2.21798">
        <ele>272</ele>
        <time>2020-08-25T11:21:39.702Z</time>
      </trkpt>
      <trkpt lat="43.96713" lon="2.21798">
        <ele>271</ele>
        <time>2020-08-25T11:21:40.702Z</time>
      </trkpt>
      <trkpt lat="43.96711" lon="2.21798">
        <ele>271</ele>
        <time>2020-08-25T11:21:41.702Z</time>
      </trkpt>
      <trkpt lat="43.9671" lon="2.21798">
        <ele>271</ele>
        <time>2020-08-25T11:21:42.702Z</time>
      </trkpt>
      <trkpt lat="43.96709" lon="2.21797">
        <ele>271</ele>
        <time>2020-08-25T11:21:43.702Z</time>
      </trkpt>
      <trkpt lat="43.96708" lon="2.21797">
        <ele>270</ele>
        <time>2020-08-25T11:21:44.702Z</time>
      </trkpt>
      <trkpt lat="43.96706" lon="2.21797">
        <ele>270</ele>
        <time>2020-08-25T11:21:45.702Z</time>
      </trkpt>
      <trkpt lat="43.96705" lon="2.21797">
        <ele>270</ele>
        <time>2020-08-25T11:21:46.702Z</time>
      </trkpt>
      <trkpt lat="43.96704" lon="2.21797">
        <ele>270</ele>
        <time>2020-08-25T11:21:47.702Z</time>
      </trkpt>
      <trkpt lat="43.96702" lon="2.21797">
        <ele>270</ele>
        <time>2020-08-25T11:21:48.702Z</time>
      </trkpt>
      <trkpt lat="43.96701" lon="2.21796">
        <ele>270</ele>
        <time>2020-08-25T11:21:49.702Z</time>
      </trkpt>
      <trkpt lat="43.967" lon="2.21796">
        <ele>270</ele>
        <time>2020-08-25T11:21:50.702Z</time>
      </trkpt>
      <trkpt lat="43.96699" lon="2.21796">
        <ele>269</ele>
        <time>2020-08-25T11:21:51.702Z</time>
      </trkpt>
      <trkpt lat="43.96698" lon="2.21796">
        <ele>269</ele>
        <time>2020-08-25T11:21:52.702Z</time>
      </trkpt>
      <trkpt lat="43.96697" lon="2.21796">
        <ele>269</ele>
        <time>2020-08-25T11:21:53.702Z</time>
      </trkpt>
      <trkpt lat="43.96695" lon="2.21795">
        <ele>269</ele>
        <time>2020-08-25T11:21:54.702Z</time>
      </trkpt>
      <trkpt lat="43.96694" lon="2.21795">
        <ele>268</ele>
        <time>2020-08-25T11:21:55.702Z</time>
      </trkpt>
      <trkpt lat="43.96693" lon="2.21795">
        <ele>268</ele>
        <time>2020-08-25T11:21:56.702Z</time>
      </trkpt>
      <trkpt lat="43.96692" lon="2.21795">
        <ele>268</ele>
        <time>2020-08-25T11:21:57.702Z</time>
      </trkpt>
      <trkpt lat="43.96691" lon="2.21795">
        <ele>268</ele>
        <time>2020-08-25T11:21:58.702Z</time>
      </trkpt>
      <trkpt lat="43.9669" lon="2.21794">
        <ele>268</ele>
        <time>2020-08-25T11:21:59.702Z</time>
      </trkpt>
      <trkpt lat="43.96688" lon="2.21794">
        <ele>267</ele>
        <time>2020-08-25T11:22:00.702Z</time>
      </trkpt>
      <trkpt lat="43.96687" lon="2.21794">
        <ele>267</ele>
        <time>2020-08-25T11:22:01.702Z</time>
      </trkpt>
      <trkpt lat="43.96686" lon="2.21794">
        <ele>267</ele>
        <time>2020-08-25T11:22:02.702Z</time>
      </trkpt>
      <trkpt lat="43.96685" lon="2.21793">
        <ele>267</ele>
        <time>2020-08-25T11:22:03.702Z</time>
      </trkpt>
      <trkpt lat="43.96684" lon="2.21793">
        <ele>266</ele>
        <time>2020-08-25T11:22:04.702Z</time>
      </trkpt>
      <trkpt lat="43.96683" lon="2.21792">
        <ele>266</ele>
        <time>2020-08-25T11:22:05.702Z</time>
      </trkpt>
      <trkpt lat="43.96682" lon="2.21792">
        <ele>266</ele>
        <time>2020-08-25T11:22:06.702Z</time>
      </trkpt>
      <trkpt lat="43.96681" lon="2.21792">
        <ele>266</ele>
        <time>2020-08-25T11:22:07.702Z</time>
      </trkpt>
      <trkpt lat="43.96679" lon="2.21792">
        <ele>265</ele>
        <time>2020-08-25T11:22:08.702Z</time>
      </trkpt>
      <trkpt lat="43.96678" lon="2.21791">
        <ele>265</ele>
        <time>2020-08-25T11:22:09.702Z</time>
      </trkpt>
      <trkpt lat="43.96677" lon="2.21791">
        <ele>265</ele>
        <time>2020-08-25T11:22:10.702Z</time>
      </trkpt>
      <trkpt lat="43.96676" lon="2.2179">
        <ele>265</ele>
        <time>2020-08-25T11:22:11.702Z</time>
      </trkpt>
      <trkpt lat="43.96675" lon="2.2179">
        <ele>264</ele>
        <time>2020-08-25T11:22:12.702Z</time>
      </trkpt>
      <trkpt lat="43.96674" lon="2.21789">
        <ele>264</ele>
        <time>2020-08-25T11:22:13.702Z</time>
      </trkpt>
      <trkpt lat="43.96673" lon="2.21789">
        <ele>264</ele>
        <time>2020-08-25T11:22:14.702Z</time>
      </trkpt>
      <trkpt lat="43.96672" lon="2.21788">
        <ele>264</ele>
        <time>2020-08-25T11:22:15.702Z</time>
      </trkpt>
      <trkpt lat="43.96671" lon="2.21788">
        <ele>263</ele>
        <time>2020-08-25T11:22:16.702Z</time>
      </trkpt>
      <trkpt lat="43.9667" lon="2.21787">
        <ele>263</ele>
        <time>2020-08-25T11:22:17.702Z</time>
      </trkpt>
      <trkpt lat="43.96668" lon="2.21786">
        <ele>263</ele>
        <time>2020-08-25T11:22:18.702Z</time>
      </trkpt>
      <trkpt lat="43.96667" lon="2.21786">
        <ele>262</ele>
        <time>2020-08-25T11:22:19.702Z</time>
      </trkpt>
      <trkpt lat="43.96666" lon="2.21786">
        <ele>262</ele>
        <time>2020-08-25T11:22:20.702Z</time>
      </trkpt>
      <trkpt lat="43.96666" lon="2.21785">
        <ele>262</ele>
        <time>2020-08-25T11:22:21.702Z</time>
      </trkpt>
      <trkpt lat="43.96665" lon="2.21785">
        <ele>262</ele>
        <time>2020-08-25T11:22:22.702Z</time>
      </trkpt>
      <trkpt lat="43.96664" lon="2.21785">
        <ele>261</ele>
        <time>2020-08-25T11:22:23.702Z</time>
      </trkpt>
      <trkpt lat="43.96664" lon="2.21785">
        <ele>261</ele>
        <time>2020-08-25T11:22:24.702Z</time>
      </trkpt>
      <trkpt lat="43.96664" lon="2.21784">
        <ele>261</ele>
        <time>2020-08-25T11:22:25.702Z</time>
      </trkpt>
      <trkpt lat="43.96664" lon="2.21784">
        <ele>261</ele>
        <time>2020-08-25T11:22:30.706Z</time>
      </trkpt>
      <trkpt lat="43.96663" lon="2.21783">
        <ele>260</ele>
        <time>2020-08-25T11:22:31.706Z</time>
      </trkpt>
      <trkpt lat="43.96662" lon="2.21783">
        <ele>260</ele>
        <time>2020-08-25T11:22:32.706Z</time>
      </trkpt>
      <trkpt lat="43.96661" lon="2.21782">
        <ele>260</ele>
        <time>2020-08-25T11:22:33.706Z</time>
      </trkpt>
      <trkpt lat="43.9666" lon="2.21782">
        <ele>260</ele>
        <time>2020-08-25T11:22:34.706Z</time>
      </trkpt>
      <trkpt lat="43.96659" lon="2.21782">
        <ele>260</ele>
        <time>2020-08-25T11:22:35.706Z</time>
      </trkpt>
      <trkpt lat="43.96658" lon="2.21781">
        <ele>260</ele>
        <time>2020-08-25T11:22:36.706Z</time>
      </trkpt>
      <trkpt lat="43.96657" lon="2.21781">
        <ele>259</ele>
        <time>2020-08-25T11:22:37.706Z</time>
      </trkpt>
      <trkpt lat="43.96656" lon="2.2178">
        <ele>259</ele>
        <time>2020-08-25T11:22:38.706Z</time>
      </trkpt>
      <trkpt lat="43.96655" lon="2.2178">
        <ele>259</ele>
        <time>2020-08-25T11:22:39.706Z</time>
      </trkpt>
      <trkpt lat="43.96654" lon="2.2178">
        <ele>259</ele>
        <time>2020-08-25T11:22:40.706Z</time>
      </trkpt>
      <trkpt lat="43.96653" lon="2.2178">
        <ele>258</ele>
        <time>2020-08-25T11:22:41.706Z</time>
      </trkpt>
      <trkpt lat="43.96652" lon="2.21779">
        <ele>258</ele>
        <time>2020-08-25T11:22:42.706Z</time>
      </trkpt>
      <trkpt lat="43.96651" lon="2.21779">
        <ele>258</ele>
        <time>2020-08-25T11:22:43.706Z</time>
      </trkpt>
      <trkpt lat="43.96649" lon="2.21778">
        <ele>258</ele>
        <time>2020-08-25T11:22:44.706Z</time>
      </trkpt>
      <trkpt lat="43.96648" lon="2.21778">
        <ele>258</ele>
        <time>2020-08-25T11:22:45.706Z</time>
      </trkpt>
      <trkpt lat="43.96647" lon="2.21778">
        <ele>257</ele>
        <time>2020-08-25T11:22:46.706Z</time>
      </trkpt>
      <trkpt lat="43.96646" lon="2.21778">
        <ele>257</ele>
        <time>2020-08-25T11:22:47.706Z</time>
      </trkpt>
      <trkpt lat="43.96645" lon="2.21778">
        <ele>257</ele>
        <time>2020-08-25T11:22:48.706Z</time>
      </trkpt>
      <trkpt lat="43.96644" lon="2.21778">
        <ele>257</ele>
        <time>2020-08-25T11:22:49.706Z</time>
      </trkpt>
      <trkpt lat="43.96643" lon="2.21777">
        <ele>256</ele>
        <time>2020-08-25T11:22:50.706Z</time>
      </trkpt>
      <trkpt lat="43.96642" lon="2.21777">
        <ele>256</ele>
        <time>2020-08-25T11:22:51.706Z</time>
      </trkpt>
      <trkpt lat="43.96641" lon="2.21777">
        <ele>256</ele>
        <time>2020-08-25T11:22:52.706Z</time>
      </trkpt>
      <trkpt lat="43.9664" lon="2.21777">
        <ele>256</ele>
        <time>2020-08-25T11:22:53.706Z</time>
      </trkpt>
      <trkpt lat="43.96639" lon="2.21776">
        <ele>255</ele>
        <time>2020-08-25T11:22:54.706Z</time>
      </trkpt>
      <trkpt lat="43.96638" lon="2.21776">
        <ele>255</ele>
        <time>2020-08-25T11:22:55.706Z</time>
      </trkpt>
      <trkpt lat="43.96637" lon="2.21776">
        <ele>255</ele>
        <time>2020-08-25T11:22:56.706Z</time>
      </trkpt>
      <trkpt lat="43.96636" lon="2.21776">
        <ele>255</ele>
        <time>2020-08-25T11:22:57.706Z</time>
      </trkpt>
      <trkpt lat="43.96635" lon="2.21775">
        <ele>255</ele>
        <time>2020-08-25T11:22:58.706Z</time>
      </trkpt>
      <trkpt lat="43.96634" lon="2.21775">
        <ele>254</ele>
        <time>2020-08-25T11:22:59.706Z</time>
      </trkpt>
      <trkpt lat="43.96633" lon="2.21775">
        <ele>254</ele>
        <time>2020-08-25T11:23:00.706Z</time>
      </trkpt>
      <trkpt lat="43.96632" lon="2.21775">
        <ele>254</ele>
        <time>2020-08-25T11:23:01.706Z</time>
      </trkpt>
      <trkpt lat="43.96631" lon="2.21774">
        <ele>254</ele>
        <time>2020-08-25T11:23:02.706Z</time>
      </trkpt>
      <trkpt lat="43.9663" lon="2.21774">
        <ele>254</ele>
        <time>2020-08-25T11:23:03.706Z</time>
      </trkpt>
      <trkpt lat="43.96629" lon="2.21774">
        <ele>253</ele>
        <time>2020-08-25T11:23:04.706Z</time>
      </trkpt>
      <trkpt lat="43.96627" lon="2.21774">
        <ele>253</ele>
        <time>2020-08-25T11:23:05.706Z</time>
      </trkpt>
      <trkpt lat="43.96626" lon="2.21773">
        <ele>253</ele>
        <time>2020-08-25T11:23:06.706Z</time>
      </trkpt>
      <trkpt lat="43.96626" lon="2.21773">
        <ele>253</ele>
        <time>2020-08-25T11:23:07.706Z</time>
      </trkpt>
      <trkpt lat="43.96625" lon="2.21773">
        <ele>253</ele>
        <time>2020-08-25T11:23:08.706Z</time>
      </trkpt>
      <trkpt lat="43.96623" lon="2.21773">
        <ele>252</ele>
        <time>2020-08-25T11:23:09.706Z</time>
      </trkpt>
      <trkpt lat="43.96622" lon="2.21773">
        <ele>252</ele>
        <time>2020-08-25T11:23:10.706Z</time>
      </trkpt>
      <trkpt lat="43.96622" lon="2.21773">
        <ele>252</ele>
        <time>2020-08-25T11:23:11.706Z</time>
      </trkpt>
      <trkpt lat="43.96621" lon="2.21772">
        <ele>252</ele>
        <time>2020-08-25T11:23:12.706Z</time>
      </trkpt>
      <trkpt lat="43.9662" lon="2.21772">
        <ele>252</ele>
        <time>2020-08-25T11:23:13.706Z</time>
      </trkpt>
      <trkpt lat="43.96619" lon="2.21772">
        <ele>252</ele>
        <time>2020-08-25T11:23:14.706Z</time>
      </trkpt>
      <trkpt lat="43.96618" lon="2.21771">
        <ele>251</ele>
        <time>2020-08-25T11:23:15.706Z</time>
      </trkpt>
      <trkpt lat="43.96617" lon="2.21771">
        <ele>251</ele>
        <time>2020-08-25T11:23:16.706Z</time>
      </trkpt>
      <trkpt lat="43.96616" lon="2.2177">
        <ele>251</ele>
        <time>2020-08-25T11:23:17.706Z</time>
      </trkpt>
      <trkpt lat="43.96615" lon="2.2177">
        <ele>251</ele>
        <time>2020-08-25T11:23:18.706Z</time>
      </trkpt>
      <trkpt lat="43.96614" lon="2.21769">
        <ele>251</ele>
        <time>2020-08-25T11:23:19.706Z</time>
      </trkpt>
      <trkpt lat="43.96613" lon="2.21769">
        <ele>251</ele>
        <time>2020-08-25T11:23:20.706Z</time>
      </trkpt>
      <trkpt lat="43.96612" lon="2.21768">
        <ele>250</ele>
        <time>2020-08-25T11:23:21.706Z</time>
      </trkpt>
      <trkpt lat="43.96611" lon="2.21767">
        <ele>250</ele>
        <time>2020-08-25T11:23:22.706Z</time>
      </trkpt>
      <trkpt lat="43.96609" lon="2.21767">
        <ele>250</ele>
        <time>2020-08-25T11:23:23.706Z</time>
      </trkpt>
      <trkpt lat="43.96608" lon="2.21766">
        <ele>250</ele>
        <time>2020-08-25T11:23:24.706Z</time>
      </trkpt>
      <trkpt lat="43.96607" lon="2.21766">
        <ele>249</ele>
        <time>2020-08-25T11:23:25.706Z</time>
      </trkpt>
      <trkpt lat="43.96606" lon="2.21765">
        <ele>249</ele>
        <time>2020-08-25T11:23:26.706Z</time>
      </trkpt>
      <trkpt lat="43.96605" lon="2.21765">
        <ele>249</ele>
        <time>2020-08-25T11:23:27.706Z</time>
      </trkpt>
      <trkpt lat="43.96604" lon="2.21764">
        <ele>249</ele>
        <time>2020-08-25T11:23:28.706Z</time>
      </trkpt>
      <trkpt lat="43.96603" lon="2.21764">
        <ele>248</ele>
        <time>2020-08-25T11:23:29.706Z</time>
      </trkpt>
      <trkpt lat="43.96602" lon="2.21763">
        <ele>248</ele>
        <time>2020-08-25T11:23:30.706Z</time>
      </trkpt>
      <trkpt lat="43.96601" lon="2.21763">
        <ele>248</ele>
        <time>2020-08-25T11:23:31.706Z</time>
      </trkpt>
      <trkpt lat="43.966" lon="2.21762">
        <ele>247</ele>
        <time>2020-08-25T11:23:32.706Z</time>
      </trkpt>
      <trkpt lat="43.96599" lon="2.21762">
        <ele>247</ele>
        <time>2020-08-25T11:23:33.706Z</time>
      </trkpt>
      <trkpt lat="43.96597" lon="2.21761">
        <ele>247</ele>
        <time>2020-08-25T11:23:34.706Z</time>
      </trkpt>
      <trkpt lat="43.96596" lon="2.2176">
        <ele>247</ele>
        <time>2020-08-25T11:23:35.706Z</time>
      </trkpt>
      <trkpt lat="43.96595" lon="2.2176">
        <ele>246</ele>
        <time>2020-08-25T11:23:36.706Z</time>
      </trkpt>
      <trkpt lat="43.96594" lon="2.21759">
        <ele>246</ele>
        <time>2020-08-25T11:23:37.706Z</time>
      </trkpt>
      <trkpt lat="43.96593" lon="2.21759">
        <ele>246</ele>
        <time>2020-08-25T11:23:38.706Z</time>
      </trkpt>
      <trkpt lat="43.96592" lon="2.21758">
        <ele>245</ele>
        <time>2020-08-25T11:23:39.706Z</time>
      </trkpt>
      <trkpt lat="43.96591" lon="2.21758">
        <ele>245</ele>
        <time>2020-08-25T11:23:40.706Z</time>
      </trkpt>
      <trkpt lat="43.9659" lon="2.21757">
        <ele>245</ele>
        <time>2020-08-25T11:23:41.706Z</time>
      </trkpt>
      <trkpt lat="43.96589" lon="2.21757">
        <ele>245</ele>
        <time>2020-08-25T11:23:42.706Z</time>
      </trkpt>
      <trkpt lat="43.96588" lon="2.21756">
        <ele>244</ele>
        <time>2020-08-25T11:23:43.706Z</time>
      </trkpt>
      <trkpt lat="43.96587" lon="2.21756">
        <ele>244</ele>
        <time>2020-08-25T11:23:44.706Z</time>
      </trkpt>
      <trkpt lat="43.96585" lon="2.21755">
        <ele>244</ele>
        <time>2020-08-25T11:23:45.706Z</time>
      </trkpt>
      <trkpt lat="43.96584" lon="2.21755">
        <ele>244</ele>
        <time>2020-08-25T11:23:46.706Z</time>
      </trkpt>
      <trkpt lat="43.96583" lon="2.21754">
        <ele>243</ele>
        <time>2020-08-25T11:23:47.706Z</time>
      </trkpt>
      <trkpt lat="43.96582" lon="2.21754">
        <ele>243</ele>
        <time>2020-08-25T11:23:48.706Z</time>
      </trkpt>
      <trkpt lat="43.96581" lon="2.21753">
        <ele>243</ele>
        <time>2020-08-25T11:23:49.706Z</time>
      </trkpt>
      <trkpt lat="43.9658" lon="2.21753">
        <ele>243</ele>
        <time>2020-08-25T11:23:50.706Z</time>
      </trkpt>
      <trkpt lat="43.96579" lon="2.21752">
        <ele>243</ele>
        <time>2020-08-25T11:23:51.706Z</time>
      </trkpt>
      <trkpt lat="43.96578" lon="2.21752">
        <ele>242</ele>
        <time>2020-08-25T11:23:52.706Z</time>
      </trkpt>
      <trkpt lat="43.96577" lon="2.21751">
        <ele>242</ele>
        <time>2020-08-25T11:23:53.706Z</time>
      </trkpt>
      <trkpt lat="43.96576" lon="2.21751">
        <ele>242</ele>
        <time>2020-08-25T11:23:54.706Z</time>
      </trkpt>
      <trkpt lat="43.96575" lon="2.2175">
        <ele>242</ele>
        <time>2020-08-25T11:23:55.706Z</time>
      </trkpt>
      <trkpt lat="43.96574" lon="2.21749">
        <ele>241</ele>
        <time>2020-08-25T11:23:56.706Z</time>
      </trkpt>
      <trkpt lat="43.96573" lon="2.21749">
        <ele>241</ele>
        <time>2020-08-25T11:23:57.706Z</time>
      </trkpt>
      <trkpt lat="43.96572" lon="2.21748">
        <ele>241</ele>
        <time>2020-08-25T11:23:58.706Z</time>
      </trkpt>
      <trkpt lat="43.96571" lon="2.21748">
        <ele>241</ele>
        <time>2020-08-25T11:23:59.706Z</time>
      </trkpt>
      <trkpt lat="43.9657" lon="2.21747">
        <ele>240</ele>
        <time>2020-08-25T11:24:00.706Z</time>
      </trkpt>
      <trkpt lat="43.96569" lon="2.21747">
        <ele>240</ele>
        <time>2020-08-25T11:24:01.706Z</time>
      </trkpt>
      <trkpt lat="43.96568" lon="2.21746">
        <ele>240</ele>
        <time>2020-08-25T11:24:02.706Z</time>
      </trkpt>
      <trkpt lat="43.96567" lon="2.21745">
        <ele>239</ele>
        <time>2020-08-25T11:24:03.706Z</time>
      </trkpt>
      <trkpt lat="43.96566" lon="2.21745">
        <ele>239</ele>
        <time>2020-08-25T11:24:04.706Z</time>
      </trkpt>
      <trkpt lat="43.96565" lon="2.21744">
        <ele>239</ele>
        <time>2020-08-25T11:24:05.706Z</time>
      </trkpt>
      <trkpt lat="43.96565" lon="2.21744">
        <ele>239</ele>
        <time>2020-08-25T11:24:06.706Z</time>
      </trkpt>
      <trkpt lat="43.96564" lon="2.21743">
        <ele>239</ele>
        <time>2020-08-25T11:24:07.706Z</time>
      </trkpt>
      <trkpt lat="43.96563" lon="2.21743">
        <ele>238</ele>
        <time>2020-08-25T11:24:08.706Z</time>
      </trkpt>
      <trkpt lat="43.96562" lon="2.21742">
        <ele>238</ele>
        <time>2020-08-25T11:24:09.706Z</time>
      </trkpt>
      <trkpt lat="43.96562" lon="2.21742">
        <ele>238</ele>
        <time>2020-08-25T11:24:10.706Z</time>
      </trkpt>
      <trkpt lat="43.96562" lon="2.21742">
        <ele>238</ele>
        <time>2020-08-25T11:24:11.706Z</time>
      </trkpt>
      <trkpt lat="43.96562" lon="2.21742">
        <ele>238</ele>
        <time>2020-08-25T11:24:12.706Z</time>
      </trkpt>
      <trkpt lat="43.96562" lon="2.21741">
        <ele>238</ele>
        <time>2020-08-25T11:24:13.706Z</time>
      </trkpt>
      <trkpt lat="43.96561" lon="2.21741">
        <ele>238</ele>
        <time>2020-08-25T11:24:14.706Z</time>
      </trkpt>
      <trkpt lat="43.9656" lon="2.21741">
        <ele>237</ele>
        <time>2020-08-25T11:24:15.706Z</time>
      </trkpt>
      <trkpt lat="43.96559" lon="2.2174">
        <ele>237</ele>
        <time>2020-08-25T11:24:16.706Z</time>
      </trkpt>
      <trkpt lat="43.96558" lon="2.2174">
        <ele>237</ele>
        <time>2020-08-25T11:24:17.706Z</time>
      </trkpt>
      <trkpt lat="43.96557" lon="2.21739">
        <ele>237</ele>
        <time>2020-08-25T11:24:18.706Z</time>
      </trkpt>
      <trkpt lat="43.96556" lon="2.21739">
        <ele>237</ele>
        <time>2020-08-25T11:24:19.706Z</time>
      </trkpt>
      <trkpt lat="43.96555" lon="2.21738">
        <ele>236</ele>
        <time>2020-08-25T11:24:20.706Z</time>
      </trkpt>
      <trkpt lat="43.96554" lon="2.21738">
        <ele>236</ele>
        <time>2020-08-25T11:24:21.706Z</time>
      </trkpt>
      <trkpt lat="43.96553" lon="2.21737">
        <ele>236</ele>
        <time>2020-08-25T11:24:22.706Z</time>
      </trkpt>
      <trkpt lat="43.96552" lon="2.21736">
        <ele>235</ele>
        <time>2020-08-25T11:24:23.706Z</time>
      </trkpt>
      <trkpt lat="43.96551" lon="2.21736">
        <ele>235</ele>
        <time>2020-08-25T11:24:24.706Z</time>
      </trkpt>
      <trkpt lat="43.96551" lon="2.21735">
        <ele>235</ele>
        <time>2020-08-25T11:24:25.706Z</time>
      </trkpt>
      <trkpt lat="43.9655" lon="2.21734">
        <ele>235</ele>
        <time>2020-08-25T11:24:26.706Z</time>
      </trkpt>
      <trkpt lat="43.9655" lon="2.21733">
        <ele>235</ele>
        <time>2020-08-25T11:24:27.706Z</time>
      </trkpt>
      <trkpt lat="43.96549" lon="2.21733">
        <ele>234</ele>
        <time>2020-08-25T11:24:28.706Z</time>
      </trkpt>
      <trkpt lat="43.96548" lon="2.21732">
        <ele>234</ele>
        <time>2020-08-25T11:24:29.706Z</time>
      </trkpt>
      <trkpt lat="43.96547" lon="2.21732">
        <ele>234</ele>
        <time>2020-08-25T11:24:30.706Z</time>
      </trkpt>
      <trkpt lat="43.96546" lon="2.21731">
        <ele>234</ele>
        <time>2020-08-25T11:24:31.706Z</time>
      </trkpt>
      <trkpt lat="43.96545" lon="2.2173">
        <ele>234</ele>
        <time>2020-08-25T11:24:32.706Z</time>
      </trkpt>
      <trkpt lat="43.96544" lon="2.21728">
        <ele>234</ele>
        <time>2020-08-25T11:24:33.706Z</time>
      </trkpt>
      <trkpt lat="43.96543" lon="2.21727">
        <ele>234</ele>
        <time>2020-08-25T11:24:34.706Z</time>
      </trkpt>
      <trkpt lat="43.96543" lon="2.21726">
        <ele>233</ele>
        <time>2020-08-25T11:24:35.706Z</time>
      </trkpt>
      <trkpt lat="43.96543" lon="2.21724">
        <ele>233</ele>
        <time>2020-08-25T11:24:36.706Z</time>
      </trkpt>
      <trkpt lat="43.96544" lon="2.21722">
        <ele>233</ele>
        <time>2020-08-25T11:24:37.706Z</time>
      </trkpt>
      <trkpt lat="43.96544" lon="2.21721">
        <ele>233</ele>
        <time>2020-08-25T11:24:38.706Z</time>
      </trkpt>
      <trkpt lat="43.96544" lon="2.21719">
        <ele>233</ele>
        <time>2020-08-25T11:24:39.706Z</time>
      </trkpt>
      <trkpt lat="43.96545" lon="2.21718">
        <ele>233</ele>
        <time>2020-08-25T11:24:40.706Z</time>
      </trkpt>
      <trkpt lat="43.96545" lon="2.21716">
        <ele>233</ele>
        <time>2020-08-25T11:24:41.706Z</time>
      </trkpt>
      <trkpt lat="43.96546" lon="2.21715">
        <ele>233</ele>
        <time>2020-08-25T11:24:42.706Z</time>
      </trkpt>
      <trkpt lat="43.96546" lon="2.21713">
        <ele>233</ele>
        <time>2020-08-25T11:24:43.706Z</time>
      </trkpt>
      <trkpt lat="43.96547" lon="2.21712">
        <ele>233</ele>
        <time>2020-08-25T11:24:44.706Z</time>
      </trkpt>
      <trkpt lat="43.96547" lon="2.21711">
        <ele>233</ele>
        <time>2020-08-25T11:24:45.706Z</time>
      </trkpt>
      <trkpt lat="43.96548" lon="2.21709">
        <ele>233</ele>
        <time>2020-08-25T11:24:46.706Z</time>
      </trkpt>
      <trkpt lat="43.96549" lon="2.21708">
        <ele>233</ele>
        <time>2020-08-25T11:24:47.706Z</time>
      </trkpt>
      <trkpt lat="43.96549" lon="2.21707">
        <ele>233</ele>
        <time>2020-08-25T11:24:48.706Z</time>
      </trkpt>
      <trkpt lat="43.9655" lon="2.21706">
        <ele>233</ele>
        <time>2020-08-25T11:24:49.706Z</time>
      </trkpt>
      <trkpt lat="43.96551" lon="2.21704">
        <ele>233</ele>
        <time>2020-08-25T11:24:50.706Z</time>
      </trkpt>
      <trkpt lat="43.96551" lon="2.21703">
        <ele>233</ele>
        <time>2020-08-25T11:24:51.706Z</time>
      </trkpt>
      <trkpt lat="43.96551" lon="2.21701">
        <ele>233</ele>
        <time>2020-08-25T11:24:52.706Z</time>
      </trkpt>
      <trkpt lat="43.96552" lon="2.21699">
        <ele>233</ele>
        <time>2020-08-25T11:24:53.706Z</time>
      </trkpt>
      <trkpt lat="43.96552" lon="2.21698">
        <ele>233</ele>
        <time>2020-08-25T11:24:54.706Z</time>
      </trkpt>
      <trkpt lat="43.96553" lon="2.21696">
        <ele>233</ele>
        <time>2020-08-25T11:24:55.706Z</time>
      </trkpt>
      <trkpt lat="43.96554" lon="2.21695">
        <ele>232</ele>
        <time>2020-08-25T11:24:56.706Z</time>
      </trkpt>
      <trkpt lat="43.96554" lon="2.21693">
        <ele>232</ele>
        <time>2020-08-25T11:24:57.706Z</time>
      </trkpt>
      <trkpt lat="43.96555" lon="2.21692">
        <ele>232</ele>
        <time>2020-08-25T11:24:58.706Z</time>
      </trkpt>
      <trkpt lat="43.96555" lon="2.2169">
        <ele>232</ele>
        <time>2020-08-25T11:24:59.706Z</time>
      </trkpt>
      <trkpt lat="43.96556" lon="2.21689">
        <ele>232</ele>
        <time>2020-08-25T11:25:00.706Z</time>
      </trkpt>
      <trkpt lat="43.96557" lon="2.21687">
        <ele>232</ele>
        <time>2020-08-25T11:25:01.706Z</time>
      </trkpt>
      <trkpt lat="43.96557" lon="2.21686">
        <ele>232</ele>
        <time>2020-08-25T11:25:02.706Z</time>
      </trkpt>
      <trkpt lat="43.96558" lon="2.21684">
        <ele>232</ele>
        <time>2020-08-25T11:25:03.706Z</time>
      </trkpt>
      <trkpt lat="43.96559" lon="2.21683">
        <ele>232</ele>
        <time>2020-08-25T11:25:04.706Z</time>
      </trkpt>
      <trkpt lat="43.96559" lon="2.21681">
        <ele>232</ele>
        <time>2020-08-25T11:25:05.706Z</time>
      </trkpt>
      <trkpt lat="43.9656" lon="2.2168">
        <ele>232</ele>
        <time>2020-08-25T11:25:06.706Z</time>
      </trkpt>
      <trkpt lat="43.9656" lon="2.21678">
        <ele>232</ele>
        <time>2020-08-25T11:25:07.706Z</time>
      </trkpt>
      <trkpt lat="43.96561" lon="2.21677">
        <ele>232</ele>
        <time>2020-08-25T11:25:08.706Z</time>
      </trkpt>
      <trkpt lat="43.96561" lon="2.21675">
        <ele>232</ele>
        <time>2020-08-25T11:25:09.706Z</time>
      </trkpt>
      <trkpt lat="43.96562" lon="2.21674">
        <ele>233</ele>
        <time>2020-08-25T11:25:10.706Z</time>
      </trkpt>
      <trkpt lat="43.96562" lon="2.21673">
        <ele>233</ele>
        <time>2020-08-25T11:25:11.706Z</time>
      </trkpt>
      <trkpt lat="43.96563" lon="2.21671">
        <ele>233</ele>
        <time>2020-08-25T11:25:12.706Z</time>
      </trkpt>
      <trkpt lat="43.96564" lon="2.2167">
        <ele>233</ele>
        <time>2020-08-25T11:25:13.706Z</time>
      </trkpt>
      <trkpt lat="43.96564" lon="2.21669">
        <ele>233</ele>
        <time>2020-08-25T11:25:14.706Z</time>
      </trkpt>
      <trkpt lat="43.96565" lon="2.21667">
        <ele>233</ele>
        <time>2020-08-25T11:25:15.706Z</time>
      </trkpt>
      <trkpt lat="43.96565" lon="2.21665">
        <ele>233</ele>
        <time>2020-08-25T11:25:16.706Z</time>
      </trkpt>
      <trkpt lat="43.96565" lon="2.21664">
        <ele>233</ele>
        <time>2020-08-25T11:25:17.706Z</time>
      </trkpt>
      <trkpt lat="43.96566" lon="2.21662">
        <ele>233</ele>
        <time>2020-08-25T11:25:18.706Z</time>
      </trkpt>
      <trkpt lat="43.96566" lon="2.21661">
        <ele>233</ele>
        <time>2020-08-25T11:25:19.706Z</time>
      </trkpt>
      <trkpt lat="43.96566" lon="2.21659">
        <ele>233</ele>
        <time>2020-08-25T11:25:20.706Z</time>
      </trkpt>
      <trkpt lat="43.96567" lon="2.21658">
        <ele>233</ele>
        <time>2020-08-25T11:25:21.706Z</time>
      </trkpt>
      <trkpt lat="43.96567" lon="2.21657">
        <ele>233</ele>
        <time>2020-08-25T11:25:22.706Z</time>
      </trkpt>
      <trkpt lat="43.96568" lon="2.21655">
        <ele>233</ele>
        <time>2020-08-25T11:25:23.706Z</time>
      </trkpt>
      <trkpt lat="43.96569" lon="2.21654">
        <ele>233</ele>
        <time>2020-08-25T11:25:24.706Z</time>
      </trkpt>
      <trkpt lat="43.96569" lon="2.21653">
        <ele>233</ele>
        <time>2020-08-25T11:25:25.706Z</time>
      </trkpt>
      <trkpt lat="43.9657" lon="2.21652">
        <ele>233</ele>
        <time>2020-08-25T11:25:26.706Z</time>
      </trkpt>
      <trkpt lat="43.9657" lon="2.21651">
        <ele>233</ele>
        <time>2020-08-25T11:25:27.706Z</time>
      </trkpt>
      <trkpt lat="43.9657" lon="2.2165">
        <ele>233</ele>
        <time>2020-08-25T11:25:28.706Z</time>
      </trkpt>
      <trkpt lat="43.96571" lon="2.21649">
        <ele>233</ele>
        <time>2020-08-25T11:25:29.706Z</time>
      </trkpt>
      <trkpt lat="43.96571" lon="2.21647">
        <ele>233</ele>
        <time>2020-08-25T11:25:30.706Z</time>
      </trkpt>
      <trkpt lat="43.96572" lon="2.21646">
        <ele>233</ele>
        <time>2020-08-25T11:25:31.706Z</time>
      </trkpt>
      <trkpt lat="43.96572" lon="2.21645">
        <ele>233</ele>
        <time>2020-08-25T11:25:32.706Z</time>
      </trkpt>
      <trkpt lat="43.96572" lon="2.21643">
        <ele>233</ele>
        <time>2020-08-25T11:25:33.706Z</time>
      </trkpt>
      <trkpt lat="43.96572" lon="2.21642">
        <ele>233</ele>
        <time>2020-08-25T11:25:34.706Z</time>
      </trkpt>
      <trkpt lat="43.96572" lon="2.21641">
        <ele>233</ele>
        <time>2020-08-25T11:25:35.706Z</time>
      </trkpt>
      <trkpt lat="43.96572" lon="2.2164">
        <ele>233</ele>
        <time>2020-08-25T11:25:36.706Z</time>
      </trkpt>
      <trkpt lat="43.96571" lon="2.21638">
        <ele>233</ele>
        <time>2020-08-25T11:25:37.706Z</time>
      </trkpt>
      <trkpt lat="43.9657" lon="2.21637">
        <ele>233</ele>
        <time>2020-08-25T11:25:38.706Z</time>
      </trkpt>
      <trkpt lat="43.9657" lon="2.21636">
        <ele>233</ele>
        <time>2020-08-25T11:25:39.706Z</time>
      </trkpt>
      <trkpt lat="43.96569" lon="2.21635">
        <ele>233</ele>
        <time>2020-08-25T11:25:40.706Z</time>
      </trkpt>
      <trkpt lat="43.96568" lon="2.21634">
        <ele>233</ele>
        <time>2020-08-25T11:25:41.706Z</time>
      </trkpt>
      <trkpt lat="43.96567" lon="2.21633">
        <ele>233</ele>
        <time>2020-08-25T11:25:42.706Z</time>
      </trkpt>
      <trkpt lat="43.96566" lon="2.21632">
        <ele>234</ele>
        <time>2020-08-25T11:25:43.706Z</time>
      </trkpt>
      <trkpt lat="43.96565" lon="2.21631">
        <ele>234</ele>
        <time>2020-08-25T11:25:44.706Z</time>
      </trkpt>
      <trkpt lat="43.96564" lon="2.21631">
        <ele>234</ele>
        <time>2020-08-25T11:25:45.706Z</time>
      </trkpt>
      <trkpt lat="43.96563" lon="2.2163">
        <ele>234</ele>
        <time>2020-08-25T11:25:46.706Z</time>
      </trkpt>
      <trkpt lat="43.96562" lon="2.2163">
        <ele>234</ele>
        <time>2020-08-25T11:25:47.706Z</time>
      </trkpt>
      <trkpt lat="43.96561" lon="2.2163">
        <ele>234</ele>
        <time>2020-08-25T11:25:48.706Z</time>
      </trkpt>
      <trkpt lat="43.96559" lon="2.21629">
        <ele>234</ele>
        <time>2020-08-25T11:25:49.706Z</time>
      </trkpt>
      <trkpt lat="43.96558" lon="2.21629">
        <ele>234</ele>
        <time>2020-08-25T11:25:50.706Z</time>
      </trkpt>
      <trkpt lat="43.96557" lon="2.21628">
        <ele>235</ele>
        <time>2020-08-25T11:25:51.706Z</time>
      </trkpt>
      <trkpt lat="43.96556" lon="2.21628">
        <ele>235</ele>
        <time>2020-08-25T11:25:52.706Z</time>
      </trkpt>
      <trkpt lat="43.96555" lon="2.21628">
        <ele>235</ele>
        <time>2020-08-25T11:25:53.706Z</time>
      </trkpt>
      <trkpt lat="43.96554" lon="2.21628">
        <ele>235</ele>
        <time>2020-08-25T11:25:54.706Z</time>
      </trkpt>
      <trkpt lat="43.96553" lon="2.21627">
        <ele>235</ele>
        <time>2020-08-25T11:25:55.706Z</time>
      </trkpt>
      <trkpt lat="43.96552" lon="2.21627">
        <ele>235</ele>
        <time>2020-08-25T11:25:56.706Z</time>
      </trkpt>
      <trkpt lat="43.96551" lon="2.21627">
        <ele>235</ele>
        <time>2020-08-25T11:25:57.706Z</time>
      </trkpt>
      <trkpt lat="43.9655" lon="2.21626">
        <ele>235</ele>
        <time>2020-08-25T11:25:58.706Z</time>
      </trkpt>
      <trkpt lat="43.96549" lon="2.21626">
        <ele>235</ele>
        <time>2020-08-25T11:25:59.706Z</time>
      </trkpt>
      <trkpt lat="43.96548" lon="2.21626">
        <ele>235</ele>
        <time>2020-08-25T11:26:00.706Z</time>
      </trkpt>
      <trkpt lat="43.96546" lon="2.21626">
        <ele>235</ele>
        <time>2020-08-25T11:26:01.706Z</time>
      </trkpt>
      <trkpt lat="43.96545" lon="2.21626">
        <ele>236</ele>
        <time>2020-08-25T11:26:02.706Z</time>
      </trkpt>
      <trkpt lat="43.96544" lon="2.21626">
        <ele>236</ele>
        <time>2020-08-25T11:26:03.706Z</time>
      </trkpt>
      <trkpt lat="43.96543" lon="2.21626">
        <ele>236</ele>
        <time>2020-08-25T11:26:04.706Z</time>
      </trkpt>
      <trkpt lat="43.96542" lon="2.21626">
        <ele>236</ele>
        <time>2020-08-25T11:26:05.706Z</time>
      </trkpt>
      <trkpt lat="43.96541" lon="2.21625">
        <ele>236</ele>
        <time>2020-08-25T11:26:06.706Z</time>
      </trkpt>
      <trkpt lat="43.9654" lon="2.21625">
        <ele>236</ele>
        <time>2020-08-25T11:26:07.706Z</time>
      </trkpt>
      <trkpt lat="43.96539" lon="2.21625">
        <ele>236</ele>
        <time>2020-08-25T11:26:08.706Z</time>
      </trkpt>
      <trkpt lat="43.96538" lon="2.21625">
        <ele>236</ele>
        <time>2020-08-25T11:26:09.706Z</time>
      </trkpt>
      <trkpt lat="43.96537" lon="2.21624">
        <ele>236</ele>
        <time>2020-08-25T11:26:10.706Z</time>
      </trkpt>
      <trkpt lat="43.96536" lon="2.21624">
        <ele>236</ele>
        <time>2020-08-25T11:26:11.706Z</time>
      </trkpt>
      <trkpt lat="43.96535" lon="2.21624">
        <ele>236</ele>
        <time>2020-08-25T11:26:12.706Z</time>
      </trkpt>
      <trkpt lat="43.96534" lon="2.21624">
        <ele>236</ele>
        <time>2020-08-25T11:26:13.706Z</time>
      </trkpt>
      <trkpt lat="43.96533" lon="2.21624">
        <ele>236</ele>
        <time>2020-08-25T11:26:14.706Z</time>
      </trkpt>
      <trkpt lat="43.96532" lon="2.21624">
        <ele>236</ele>
        <time>2020-08-25T11:26:15.706Z</time>
      </trkpt>
      <trkpt lat="43.96531" lon="2.21624">
        <ele>236</ele>
        <time>2020-08-25T11:26:16.706Z</time>
      </trkpt>
      <trkpt lat="43.9653" lon="2.21625">
        <ele>236</ele>
        <time>2020-08-25T11:26:17.706Z</time>
      </trkpt>
      <trkpt lat="43.96529" lon="2.21625">
        <ele>236</ele>
        <time>2020-08-25T11:26:18.706Z</time>
      </trkpt>
      <trkpt lat="43.96528" lon="2.21625">
        <ele>236</ele>
        <time>2020-08-25T11:26:19.706Z</time>
      </trkpt>
      <trkpt lat="43.96527" lon="2.21625">
        <ele>236</ele>
        <time>2020-08-25T11:26:20.706Z</time>
      </trkpt>
      <trkpt lat="43.96526" lon="2.21625">
        <ele>236</ele>
        <time>2020-08-25T11:26:21.706Z</time>
      </trkpt>
      <trkpt lat="43.96525" lon="2.21624">
        <ele>236</ele>
        <time>2020-08-25T11:26:22.706Z</time>
      </trkpt>
      <trkpt lat="43.96524" lon="2.21624">
        <ele>236</ele>
        <time>2020-08-25T11:26:23.706Z</time>
      </trkpt>
      <trkpt lat="43.96523" lon="2.21625">
        <ele>236</ele>
        <time>2020-08-25T11:26:24.706Z</time>
      </trkpt>
      <trkpt lat="43.96522" lon="2.21625">
        <ele>236</ele>
        <time>2020-08-25T11:26:25.706Z</time>
      </trkpt>
      <trkpt lat="43.96521" lon="2.21625">
        <ele>236</ele>
        <time>2020-08-25T11:26:26.706Z</time>
      </trkpt>
      <trkpt lat="43.9652" lon="2.21625">
        <ele>236</ele>
        <time>2020-08-25T11:26:27.706Z</time>
      </trkpt>
      <trkpt lat="43.96519" lon="2.21626">
        <ele>236</ele>
        <time>2020-08-25T11:26:28.706Z</time>
      </trkpt>
      <trkpt lat="43.96518" lon="2.21626">
        <ele>236</ele>
        <time>2020-08-25T11:26:29.706Z</time>
      </trkpt>
      <trkpt lat="43.96517" lon="2.21626">
        <ele>236</ele>
        <time>2020-08-25T11:26:30.706Z</time>
      </trkpt>
      <trkpt lat="43.96516" lon="2.21626">
        <ele>236</ele>
        <time>2020-08-25T11:26:31.706Z</time>
      </trkpt>
      <trkpt lat="43.96515" lon="2.21626">
        <ele>236</ele>
        <time>2020-08-25T11:26:32.706Z</time>
      </trkpt>
      <trkpt lat="43.96514" lon="2.21627">
        <ele>236</ele>
        <time>2020-08-25T11:26:33.706Z</time>
      </trkpt>
      <trkpt lat="43.96513" lon="2.21627">
        <ele>236</ele>
        <time>2020-08-25T11:26:34.706Z</time>
      </trkpt>
      <trkpt lat="43.96512" lon="2.21628">
        <ele>236</ele>
        <time>2020-08-25T11:26:35.706Z</time>
      </trkpt>
      <trkpt lat="43.96511" lon="2.21628">
        <ele>236</ele>
        <time>2020-08-25T11:26:36.706Z</time>
      </trkpt>
      <trkpt lat="43.9651" lon="2.21628">
        <ele>236</ele>
        <time>2020-08-25T11:26:37.706Z</time>
      </trkpt>
      <trkpt lat="43.96509" lon="2.21629">
        <ele>236</ele>
        <time>2020-08-25T11:26:38.706Z</time>
      </trkpt>
      <trkpt lat="43.96508" lon="2.21629">
        <ele>236</ele>
        <time>2020-08-25T11:26:39.706Z</time>
      </trkpt>
      <trkpt lat="43.96507" lon="2.21629">
        <ele>236</ele>
        <time>2020-08-25T11:26:40.706Z</time>
      </trkpt>
      <trkpt lat="43.96505" lon="2.21629">
        <ele>236</ele>
        <time>2020-08-25T11:26:41.706Z</time>
      </trkpt>
      <trkpt lat="43.96504" lon="2.2163">
        <ele>236</ele>
        <time>2020-08-25T11:26:42.706Z</time>
      </trkpt>
      <trkpt lat="43.96503" lon="2.2163">
        <ele>237</ele>
        <time>2020-08-25T11:26:43.706Z</time>
      </trkpt>
      <trkpt lat="43.96502" lon="2.2163">
        <ele>237</ele>
        <time>2020-08-25T11:26:44.706Z</time>
      </trkpt>
      <trkpt lat="43.96501" lon="2.2163">
        <ele>237</ele>
        <time>2020-08-25T11:26:45.706Z</time>
      </trkpt>
      <trkpt lat="43.965" lon="2.21631">
        <ele>237</ele>
        <time>2020-08-25T11:26:46.706Z</time>
      </trkpt>
      <trkpt lat="43.96499" lon="2.21631">
        <ele>237</ele>
        <time>2020-08-25T11:26:47.706Z</time>
      </trkpt>
      <trkpt lat="43.96499" lon="2.21631">
        <ele>237</ele>
        <time>2020-08-25T11:26:48.706Z</time>
      </trkpt>
      <trkpt lat="43.96498" lon="2.21632">
        <ele>237</ele>
        <time>2020-08-25T11:26:49.706Z</time>
      </trkpt>
      <trkpt lat="43.96497" lon="2.21632">
        <ele>237</ele>
        <time>2020-08-25T11:26:50.706Z</time>
      </trkpt>
      <trkpt lat="43.96496" lon="2.21633">
        <ele>237</ele>
        <time>2020-08-25T11:26:51.706Z</time>
      </trkpt>
      <trkpt lat="43.96495" lon="2.21633">
        <ele>238</ele>
        <time>2020-08-25T11:26:52.706Z</time>
      </trkpt>
      <trkpt lat="43.96494" lon="2.21633">
        <ele>238</ele>
        <time>2020-08-25T11:26:53.706Z</time>
      </trkpt>
      <trkpt lat="43.96493" lon="2.21634">
        <ele>238</ele>
        <time>2020-08-25T11:26:54.706Z</time>
      </trkpt>
      <trkpt lat="43.96492" lon="2.21634">
        <ele>238</ele>
        <time>2020-08-25T11:26:55.706Z</time>
      </trkpt>
      <trkpt lat="43.96491" lon="2.21634">
        <ele>238</ele>
        <time>2020-08-25T11:26:56.706Z</time>
      </trkpt>
      <trkpt lat="43.9649" lon="2.21635">
        <ele>238</ele>
        <time>2020-08-25T11:26:57.706Z</time>
      </trkpt>
      <trkpt lat="43.96489" lon="2.21635">
        <ele>238</ele>
        <time>2020-08-25T11:26:58.706Z</time>
      </trkpt>
      <trkpt lat="43.96488" lon="2.21635">
        <ele>238</ele>
        <time>2020-08-25T11:26:59.706Z</time>
      </trkpt>
      <trkpt lat="43.96487" lon="2.21635">
        <ele>238</ele>
        <time>2020-08-25T11:27:00.706Z</time>
      </trkpt>
      <trkpt lat="43.96486" lon="2.21636">
        <ele>239</ele>
        <time>2020-08-25T11:27:01.706Z</time>
      </trkpt>
      <trkpt lat="43.96485" lon="2.21636">
        <ele>239</ele>
        <time>2020-08-25T11:27:02.706Z</time>
      </trkpt>
      <trkpt lat="43.96484" lon="2.21637">
        <ele>239</ele>
        <time>2020-08-25T11:27:03.706Z</time>
      </trkpt>
      <trkpt lat="43.96483" lon="2.21637">
        <ele>239</ele>
        <time>2020-08-25T11:27:04.706Z</time>
      </trkpt>
      <trkpt lat="43.96482" lon="2.21637">
        <ele>239</ele>
        <time>2020-08-25T11:27:05.706Z</time>
      </trkpt>
      <trkpt lat="43.96481" lon="2.21638">
        <ele>239</ele>
        <time>2020-08-25T11:27:06.706Z</time>
      </trkpt>
      <trkpt lat="43.9648" lon="2.21639">
        <ele>239</ele>
        <time>2020-08-25T11:27:07.706Z</time>
      </trkpt>
      <trkpt lat="43.96479" lon="2.21639">
        <ele>240</ele>
        <time>2020-08-25T11:27:08.706Z</time>
      </trkpt>
      <trkpt lat="43.96478" lon="2.2164">
        <ele>240</ele>
        <time>2020-08-25T11:27:09.706Z</time>
      </trkpt>
      <trkpt lat="43.96477" lon="2.2164">
        <ele>240</ele>
        <time>2020-08-25T11:27:10.706Z</time>
      </trkpt>
      <trkpt lat="43.96476" lon="2.21641">
        <ele>240</ele>
        <time>2020-08-25T11:27:11.706Z</time>
      </trkpt>
      <trkpt lat="43.96475" lon="2.21641">
        <ele>240</ele>
        <time>2020-08-25T11:27:12.706Z</time>
      </trkpt>
      <trkpt lat="43.96474" lon="2.21642">
        <ele>240</ele>
        <time>2020-08-25T11:27:13.706Z</time>
      </trkpt>
      <trkpt lat="43.96473" lon="2.21642">
        <ele>241</ele>
        <time>2020-08-25T11:27:14.706Z</time>
      </trkpt>
      <trkpt lat="43.96472" lon="2.21643">
        <ele>241</ele>
        <time>2020-08-25T11:27:15.706Z</time>
      </trkpt>
      <trkpt lat="43.96471" lon="2.21643">
        <ele>241</ele>
        <time>2020-08-25T11:27:16.706Z</time>
      </trkpt>
      <trkpt lat="43.9647" lon="2.21644">
        <ele>241</ele>
        <time>2020-08-25T11:27:17.706Z</time>
      </trkpt>
      <trkpt lat="43.96469" lon="2.21644">
        <ele>241</ele>
        <time>2020-08-25T11:27:18.706Z</time>
      </trkpt>
      <trkpt lat="43.96468" lon="2.21645">
        <ele>241</ele>
        <time>2020-08-25T11:27:19.706Z</time>
      </trkpt>
      <trkpt lat="43.96466" lon="2.21645">
        <ele>241</ele>
        <time>2020-08-25T11:27:20.706Z</time>
      </trkpt>
      <trkpt lat="43.96465" lon="2.21646">
        <ele>241</ele>
        <time>2020-08-25T11:27:21.706Z</time>
      </trkpt>
      <trkpt lat="43.96464" lon="2.21646">
        <ele>242</ele>
        <time>2020-08-25T11:27:22.706Z</time>
      </trkpt>
      <trkpt lat="43.96463" lon="2.21647">
        <ele>242</ele>
        <time>2020-08-25T11:27:23.706Z</time>
      </trkpt>
      <trkpt lat="43.96462" lon="2.21647">
        <ele>242</ele>
        <time>2020-08-25T11:27:24.706Z</time>
      </trkpt>
      <trkpt lat="43.96461" lon="2.21648">
        <ele>242</ele>
        <time>2020-08-25T11:27:25.706Z</time>
      </trkpt>
      <trkpt lat="43.9646" lon="2.21648">
        <ele>242</ele>
        <time>2020-08-25T11:27:26.706Z</time>
      </trkpt>
      <trkpt lat="43.96459" lon="2.21649">
        <ele>242</ele>
        <time>2020-08-25T11:27:27.706Z</time>
      </trkpt>
      <trkpt lat="43.96458" lon="2.21649">
        <ele>242</ele>
        <time>2020-08-25T11:27:28.706Z</time>
      </trkpt>
      <trkpt lat="43.96457" lon="2.2165">
        <ele>242</ele>
        <time>2020-08-25T11:27:29.706Z</time>
      </trkpt>
      <trkpt lat="43.96456" lon="2.21651">
        <ele>242</ele>
        <time>2020-08-25T11:27:30.706Z</time>
      </trkpt>
      <trkpt lat="43.96455" lon="2.21652">
        <ele>243</ele>
        <time>2020-08-25T11:27:31.706Z</time>
      </trkpt>
      <trkpt lat="43.96454" lon="2.21652">
        <ele>243</ele>
        <time>2020-08-25T11:27:32.706Z</time>
      </trkpt>
      <trkpt lat="43.96453" lon="2.21653">
        <ele>243</ele>
        <time>2020-08-25T11:27:33.706Z</time>
      </trkpt>
      <trkpt lat="43.96452" lon="2.21654">
        <ele>243</ele>
        <time>2020-08-25T11:27:34.706Z</time>
      </trkpt>
      <trkpt lat="43.96451" lon="2.21655">
        <ele>243</ele>
        <time>2020-08-25T11:27:35.706Z</time>
      </trkpt>
      <trkpt lat="43.9645" lon="2.21655">
        <ele>243</ele>
        <time>2020-08-25T11:27:36.706Z</time>
      </trkpt>
      <trkpt lat="43.9645" lon="2.21656">
        <ele>243</ele>
        <time>2020-08-25T11:27:37.706Z</time>
      </trkpt>
      <trkpt lat="43.96449" lon="2.21657">
        <ele>244</ele>
        <time>2020-08-25T11:27:38.706Z</time>
      </trkpt>
      <trkpt lat="43.96448" lon="2.21658">
        <ele>244</ele>
        <time>2020-08-25T11:27:39.706Z</time>
      </trkpt>
      <trkpt lat="43.96447" lon="2.21659">
        <ele>244</ele>
        <time>2020-08-25T11:27:40.706Z</time>
      </trkpt>
      <trkpt lat="43.96446" lon="2.2166">
        <ele>244</ele>
        <time>2020-08-25T11:27:41.706Z</time>
      </trkpt>
      <trkpt lat="43.96445" lon="2.21661">
        <ele>244</ele>
        <time>2020-08-25T11:27:42.706Z</time>
      </trkpt>
      <trkpt lat="43.96444" lon="2.21662">
        <ele>244</ele>
        <time>2020-08-25T11:27:43.706Z</time>
      </trkpt>
      <trkpt lat="43.96443" lon="2.21662">
        <ele>244</ele>
        <time>2020-08-25T11:27:44.706Z</time>
      </trkpt>
      <trkpt lat="43.96442" lon="2.21663">
        <ele>244</ele>
        <time>2020-08-25T11:27:45.706Z</time>
      </trkpt>
      <trkpt lat="43.96441" lon="2.21664">
        <ele>245</ele>
        <time>2020-08-25T11:27:46.706Z</time>
      </trkpt>
      <trkpt lat="43.96441" lon="2.21665">
        <ele>245</ele>
        <time>2020-08-25T11:27:47.706Z</time>
      </trkpt>
      <trkpt lat="43.9644" lon="2.21666">
        <ele>245</ele>
        <time>2020-08-25T11:27:48.706Z</time>
      </trkpt>
      <trkpt lat="43.96439" lon="2.21667">
        <ele>245</ele>
        <time>2020-08-25T11:27:49.706Z</time>
      </trkpt>
      <trkpt lat="43.96438" lon="2.21668">
        <ele>245</ele>
        <time>2020-08-25T11:27:50.706Z</time>
      </trkpt>
      <trkpt lat="43.96437" lon="2.21669">
        <ele>245</ele>
        <time>2020-08-25T11:27:51.706Z</time>
      </trkpt>
      <trkpt lat="43.96436" lon="2.2167">
        <ele>245</ele>
        <time>2020-08-25T11:27:52.706Z</time>
      </trkpt>
      <trkpt lat="43.96435" lon="2.21671">
        <ele>246</ele>
        <time>2020-08-25T11:27:53.706Z</time>
      </trkpt>
      <trkpt lat="43.96435" lon="2.21672">
        <ele>246</ele>
        <time>2020-08-25T11:27:54.706Z</time>
      </trkpt>
      <trkpt lat="43.96434" lon="2.21673">
        <ele>246</ele>
        <time>2020-08-25T11:27:55.706Z</time>
      </trkpt>
      <trkpt lat="43.96433" lon="2.21674">
        <ele>246</ele>
        <time>2020-08-25T11:27:56.706Z</time>
      </trkpt>
      <trkpt lat="43.96432" lon="2.21675">
        <ele>246</ele>
        <time>2020-08-25T11:27:57.706Z</time>
      </trkpt>
      <trkpt lat="43.96431" lon="2.21676">
        <ele>246</ele>
        <time>2020-08-25T11:27:58.706Z</time>
      </trkpt>
      <trkpt lat="43.96431" lon="2.21677">
        <ele>246</ele>
        <time>2020-08-25T11:27:59.706Z</time>
      </trkpt>
      <trkpt lat="43.9643" lon="2.21678">
        <ele>246</ele>
        <time>2020-08-25T11:28:00.706Z</time>
      </trkpt>
      <trkpt lat="43.96429" lon="2.21679">
        <ele>246</ele>
        <time>2020-08-25T11:28:01.706Z</time>
      </trkpt>
      <trkpt lat="43.96428" lon="2.2168">
        <ele>246</ele>
        <time>2020-08-25T11:28:02.706Z</time>
      </trkpt>
      <trkpt lat="43.96427" lon="2.21681">
        <ele>247</ele>
        <time>2020-08-25T11:28:03.706Z</time>
      </trkpt>
      <trkpt lat="43.96426" lon="2.21682">
        <ele>247</ele>
        <time>2020-08-25T11:28:04.706Z</time>
      </trkpt>
      <trkpt lat="43.96425" lon="2.21683">
        <ele>247</ele>
        <time>2020-08-25T11:28:05.706Z</time>
      </trkpt>
      <trkpt lat="43.96424" lon="2.21684">
        <ele>247</ele>
        <time>2020-08-25T11:28:06.706Z</time>
      </trkpt>
      <trkpt lat="43.96424" lon="2.21685">
        <ele>247</ele>
        <time>2020-08-25T11:28:07.706Z</time>
      </trkpt>
      <trkpt lat="43.96423" lon="2.21687">
        <ele>247</ele>
        <time>2020-08-25T11:28:08.706Z</time>
      </trkpt>
      <trkpt lat="43.96422" lon="2.21688">
        <ele>247</ele>
        <time>2020-08-25T11:28:09.706Z</time>
      </trkpt>
      <trkpt lat="43.96421" lon="2.21689">
        <ele>247</ele>
        <time>2020-08-25T11:28:10.706Z</time>
      </trkpt>
      <trkpt lat="43.9642" lon="2.2169">
        <ele>248</ele>
        <time>2020-08-25T11:28:11.706Z</time>
      </trkpt>
      <trkpt lat="43.9642" lon="2.21691">
        <ele>248</ele>
        <time>2020-08-25T11:28:12.706Z</time>
      </trkpt>
      <trkpt lat="43.96419" lon="2.21692">
        <ele>248</ele>
        <time>2020-08-25T11:28:13.706Z</time>
      </trkpt>
      <trkpt lat="43.96418" lon="2.21693">
        <ele>248</ele>
        <time>2020-08-25T11:28:14.706Z</time>
      </trkpt>
      <trkpt lat="43.96417" lon="2.21694">
        <ele>248</ele>
        <time>2020-08-25T11:28:15.706Z</time>
      </trkpt>
      <trkpt lat="43.96416" lon="2.21696">
        <ele>249</ele>
        <time>2020-08-25T11:28:16.706Z</time>
      </trkpt>
      <trkpt lat="43.96415" lon="2.21697">
        <ele>249</ele>
        <time>2020-08-25T11:28:17.706Z</time>
      </trkpt>
      <trkpt lat="43.96415" lon="2.21698">
        <ele>249</ele>
        <time>2020-08-25T11:28:18.706Z</time>
      </trkpt>
      <trkpt lat="43.96414" lon="2.21699">
        <ele>249</ele>
        <time>2020-08-25T11:28:19.706Z</time>
      </trkpt>
      <trkpt lat="43.96413" lon="2.217">
        <ele>249</ele>
        <time>2020-08-25T11:28:20.706Z</time>
      </trkpt>
      <trkpt lat="43.96412" lon="2.21701">
        <ele>249</ele>
        <time>2020-08-25T11:28:21.706Z</time>
      </trkpt>
      <trkpt lat="43.96411" lon="2.21702">
        <ele>249</ele>
        <time>2020-08-25T11:28:22.706Z</time>
      </trkpt>
      <trkpt lat="43.9641" lon="2.21703">
        <ele>250</ele>
        <time>2020-08-25T11:28:23.706Z</time>
      </trkpt>
      <trkpt lat="43.9641" lon="2.21704">
        <ele>250</ele>
        <time>2020-08-25T11:28:24.706Z</time>
      </trkpt>
      <trkpt lat="43.96409" lon="2.21705">
        <ele>250</ele>
        <time>2020-08-25T11:28:25.706Z</time>
      </trkpt>
      <trkpt lat="43.96408" lon="2.21706">
        <ele>250</ele>
        <time>2020-08-25T11:28:26.706Z</time>
      </trkpt>
      <trkpt lat="43.96407" lon="2.21707">
        <ele>250</ele>
        <time>2020-08-25T11:28:27.706Z</time>
      </trkpt>
      <trkpt lat="43.96406" lon="2.21708">
        <ele>250</ele>
        <time>2020-08-25T11:28:28.706Z</time>
      </trkpt>
      <trkpt lat="43.96406" lon="2.21709">
        <ele>251</ele>
        <time>2020-08-25T11:28:29.706Z</time>
      </trkpt>
      <trkpt lat="43.96405" lon="2.2171">
        <ele>251</ele>
        <time>2020-08-25T11:28:30.706Z</time>
      </trkpt>
      <trkpt lat="43.96404" lon="2.21711">
        <ele>251</ele>
        <time>2020-08-25T11:28:31.706Z</time>
      </trkpt>
      <trkpt lat="43.96403" lon="2.21712">
        <ele>251</ele>
        <time>2020-08-25T11:28:32.706Z</time>
      </trkpt>
      <trkpt lat="43.96403" lon="2.21713">
        <ele>251</ele>
        <time>2020-08-25T11:28:33.706Z</time>
      </trkpt>
      <trkpt lat="43.96402" lon="2.21714">
        <ele>251</ele>
        <time>2020-08-25T11:28:34.706Z</time>
      </trkpt>
      <trkpt lat="43.96401" lon="2.21715">
        <ele>251</ele>
        <time>2020-08-25T11:28:35.706Z</time>
      </trkpt>
      <trkpt lat="43.964" lon="2.21716">
        <ele>251</ele>
        <time>2020-08-25T11:28:36.706Z</time>
      </trkpt>
      <trkpt lat="43.96399" lon="2.21717">
        <ele>251</ele>
        <time>2020-08-25T11:28:37.706Z</time>
      </trkpt>
      <trkpt lat="43.96399" lon="2.21718">
        <ele>251</ele>
        <time>2020-08-25T11:28:38.706Z</time>
      </trkpt>
      <trkpt lat="43.96398" lon="2.21719">
        <ele>251</ele>
        <time>2020-08-25T11:28:39.706Z</time>
      </trkpt>
      <trkpt lat="43.96397" lon="2.2172">
        <ele>251</ele>
        <time>2020-08-25T11:28:40.706Z</time>
      </trkpt>
      <trkpt lat="43.96396" lon="2.21721">
        <ele>252</ele>
        <time>2020-08-25T11:28:41.706Z</time>
      </trkpt>
      <trkpt lat="43.96396" lon="2.21722">
        <ele>252</ele>
        <time>2020-08-25T11:28:42.706Z</time>
      </trkpt>
      <trkpt lat="43.96395" lon="2.21723">
        <ele>252</ele>
        <time>2020-08-25T11:28:43.706Z</time>
      </trkpt>
      <trkpt lat="43.96394" lon="2.21724">
        <ele>252</ele>
        <time>2020-08-25T11:28:44.706Z</time>
      </trkpt>
      <trkpt lat="43.96393" lon="2.21725">
        <ele>252</ele>
        <time>2020-08-25T11:28:45.706Z</time>
      </trkpt>
      <trkpt lat="43.96392" lon="2.21726">
        <ele>253</ele>
        <time>2020-08-25T11:28:46.706Z</time>
      </trkpt>
      <trkpt lat="43.96392" lon="2.21727">
        <ele>253</ele>
        <time>2020-08-25T11:28:47.706Z</time>
      </trkpt>
      <trkpt lat="43.96391" lon="2.21728">
        <ele>253</ele>
        <time>2020-08-25T11:28:48.706Z</time>
      </trkpt>
      <trkpt lat="43.9639" lon="2.21729">
        <ele>253</ele>
        <time>2020-08-25T11:28:49.706Z</time>
      </trkpt>
      <trkpt lat="43.96389" lon="2.2173">
        <ele>253</ele>
        <time>2020-08-25T11:28:50.706Z</time>
      </trkpt>
      <trkpt lat="43.96389" lon="2.21731">
        <ele>253</ele>
        <time>2020-08-25T11:28:51.706Z</time>
      </trkpt>
      <trkpt lat="43.96388" lon="2.21732">
        <ele>254</ele>
        <time>2020-08-25T11:28:52.706Z</time>
      </trkpt>
      <trkpt lat="43.96387" lon="2.21733">
        <ele>254</ele>
        <time>2020-08-25T11:28:53.706Z</time>
      </trkpt>
      <trkpt lat="43.96386" lon="2.21735">
        <ele>254</ele>
        <time>2020-08-25T11:28:54.706Z</time>
      </trkpt>
      <trkpt lat="43.96385" lon="2.21736">
        <ele>254</ele>
        <time>2020-08-25T11:28:55.706Z</time>
      </trkpt>
      <trkpt lat="43.96385" lon="2.21737">
        <ele>254</ele>
        <time>2020-08-25T11:28:56.706Z</time>
      </trkpt>
      <trkpt lat="43.96384" lon="2.21738">
        <ele>255</ele>
        <time>2020-08-25T11:28:57.706Z</time>
      </trkpt>
      <trkpt lat="43.96383" lon="2.21739">
        <ele>255</ele>
        <time>2020-08-25T11:28:58.706Z</time>
      </trkpt>
      <trkpt lat="43.96382" lon="2.2174">
        <ele>255</ele>
        <time>2020-08-25T11:28:59.706Z</time>
      </trkpt>
      <trkpt lat="43.96382" lon="2.21741">
        <ele>255</ele>
        <time>2020-08-25T11:29:00.706Z</time>
      </trkpt>
      <trkpt lat="43.96381" lon="2.21741">
        <ele>255</ele>
        <time>2020-08-25T11:29:01.706Z</time>
      </trkpt>
      <trkpt lat="43.9638" lon="2.21742">
        <ele>255</ele>
        <time>2020-08-25T11:29:02.706Z</time>
      </trkpt>
      <trkpt lat="43.96379" lon="2.21743">
        <ele>256</ele>
        <time>2020-08-25T11:29:03.706Z</time>
      </trkpt>
      <trkpt lat="43.96379" lon="2.21745">
        <ele>256</ele>
        <time>2020-08-25T11:29:04.706Z</time>
      </trkpt>
      <trkpt lat="43.96378" lon="2.21746">
        <ele>256</ele>
        <time>2020-08-25T11:29:05.706Z</time>
      </trkpt>
      <trkpt lat="43.96377" lon="2.21747">
        <ele>256</ele>
        <time>2020-08-25T11:29:06.706Z</time>
      </trkpt>
      <trkpt lat="43.96376" lon="2.21747">
        <ele>256</ele>
        <time>2020-08-25T11:29:07.706Z</time>
      </trkpt>
      <trkpt lat="43.96375" lon="2.21748">
        <ele>256</ele>
        <time>2020-08-25T11:29:08.706Z</time>
      </trkpt>
      <trkpt lat="43.96374" lon="2.21749">
        <ele>256</ele>
        <time>2020-08-25T11:29:09.706Z</time>
      </trkpt>
      <trkpt lat="43.96374" lon="2.2175">
        <ele>257</ele>
        <time>2020-08-25T11:29:10.706Z</time>
      </trkpt>
      <trkpt lat="43.96373" lon="2.21751">
        <ele>257</ele>
        <time>2020-08-25T11:29:11.706Z</time>
      </trkpt>
      <trkpt lat="43.96372" lon="2.21752">
        <ele>257</ele>
        <time>2020-08-25T11:29:12.706Z</time>
      </trkpt>
      <trkpt lat="43.96371" lon="2.21753">
        <ele>257</ele>
        <time>2020-08-25T11:29:13.706Z</time>
      </trkpt>
      <trkpt lat="43.9637" lon="2.21754">
        <ele>257</ele>
        <time>2020-08-25T11:29:14.706Z</time>
      </trkpt>
      <trkpt lat="43.96369" lon="2.21755">
        <ele>257</ele>
        <time>2020-08-25T11:29:15.706Z</time>
      </trkpt>
      <trkpt lat="43.96369" lon="2.21756">
        <ele>257</ele>
        <time>2020-08-25T11:29:16.706Z</time>
      </trkpt>
      <trkpt lat="43.96368" lon="2.21757">
        <ele>257</ele>
        <time>2020-08-25T11:29:17.706Z</time>
      </trkpt>
      <trkpt lat="43.96367" lon="2.21758">
        <ele>258</ele>
        <time>2020-08-25T11:29:18.706Z</time>
      </trkpt>
      <trkpt lat="43.96366" lon="2.21759">
        <ele>258</ele>
        <time>2020-08-25T11:29:19.706Z</time>
      </trkpt>
      <trkpt lat="43.96365" lon="2.2176">
        <ele>258</ele>
        <time>2020-08-25T11:29:20.706Z</time>
      </trkpt>
      <trkpt lat="43.96364" lon="2.2176">
        <ele>258</ele>
        <time>2020-08-25T11:29:21.706Z</time>
      </trkpt>
      <trkpt lat="43.96364" lon="2.21761">
        <ele>258</ele>
        <time>2020-08-25T11:29:22.706Z</time>
      </trkpt>
      <trkpt lat="43.96363" lon="2.21762">
        <ele>258</ele>
        <time>2020-08-25T11:29:23.706Z</time>
      </trkpt>
      <trkpt lat="43.96362" lon="2.21762">
        <ele>258</ele>
        <time>2020-08-25T11:29:24.706Z</time>
      </trkpt>
      <trkpt lat="43.9636" lon="2.21763">
        <ele>258</ele>
        <time>2020-08-25T11:29:25.706Z</time>
      </trkpt>
      <trkpt lat="43.96359" lon="2.21764">
        <ele>258</ele>
        <time>2020-08-25T11:29:26.706Z</time>
      </trkpt>
      <trkpt lat="43.96358" lon="2.21764">
        <ele>258</ele>
        <time>2020-08-25T11:29:27.706Z</time>
      </trkpt>
      <trkpt lat="43.96358" lon="2.21765">
        <ele>259</ele>
        <time>2020-08-25T11:29:28.706Z</time>
      </trkpt>
      <trkpt lat="43.96357" lon="2.21765">
        <ele>259</ele>
        <time>2020-08-25T11:29:29.706Z</time>
      </trkpt>
      <trkpt lat="43.96356" lon="2.21766">
        <ele>259</ele>
        <time>2020-08-25T11:29:30.706Z</time>
      </trkpt>
      <trkpt lat="43.96355" lon="2.21766">
        <ele>259</ele>
        <time>2020-08-25T11:29:31.706Z</time>
      </trkpt>
      <trkpt lat="43.96354" lon="2.21766">
        <ele>259</ele>
        <time>2020-08-25T11:29:32.706Z</time>
      </trkpt>
      <trkpt lat="43.96353" lon="2.21767">
        <ele>259</ele>
        <time>2020-08-25T11:29:33.706Z</time>
      </trkpt>
      <trkpt lat="43.96352" lon="2.21767">
        <ele>259</ele>
        <time>2020-08-25T11:29:34.706Z</time>
      </trkpt>
      <trkpt lat="43.96351" lon="2.21767">
        <ele>259</ele>
        <time>2020-08-25T11:29:35.706Z</time>
      </trkpt>
      <trkpt lat="43.9635" lon="2.21768">
        <ele>259</ele>
        <time>2020-08-25T11:29:36.706Z</time>
      </trkpt>
      <trkpt lat="43.96349" lon="2.21768">
        <ele>259</ele>
        <time>2020-08-25T11:29:37.706Z</time>
      </trkpt>
      <trkpt lat="43.96348" lon="2.21769">
        <ele>259</ele>
        <time>2020-08-25T11:29:38.706Z</time>
      </trkpt>
      <trkpt lat="43.96347" lon="2.21769">
        <ele>259</ele>
        <time>2020-08-25T11:29:39.706Z</time>
      </trkpt>
      <trkpt lat="43.96346" lon="2.21769">
        <ele>259</ele>
        <time>2020-08-25T11:29:40.706Z</time>
      </trkpt>
      <trkpt lat="43.96344" lon="2.21769">
        <ele>259</ele>
        <time>2020-08-25T11:29:41.706Z</time>
      </trkpt>
      <trkpt lat="43.96343" lon="2.21769">
        <ele>259</ele>
        <time>2020-08-25T11:29:42.706Z</time>
      </trkpt>
      <trkpt lat="43.96342" lon="2.21769">
        <ele>259</ele>
        <time>2020-08-25T11:29:43.706Z</time>
      </trkpt>
      <trkpt lat="43.96341" lon="2.21769">
        <ele>259</ele>
        <time>2020-08-25T11:29:44.706Z</time>
      </trkpt>
      <trkpt lat="43.9634" lon="2.21769">
        <ele>259</ele>
        <time>2020-08-25T11:29:45.706Z</time>
      </trkpt>
      <trkpt lat="43.96339" lon="2.21769">
        <ele>259</ele>
        <time>2020-08-25T11:29:46.706Z</time>
      </trkpt>
      <trkpt lat="43.96338" lon="2.21769">
        <ele>259</ele>
        <time>2020-08-25T11:29:47.706Z</time>
      </trkpt>
      <trkpt lat="43.96337" lon="2.21769">
        <ele>260</ele>
        <time>2020-08-25T11:29:48.706Z</time>
      </trkpt>
      <trkpt lat="43.96336" lon="2.21768">
        <ele>260</ele>
        <time>2020-08-25T11:29:49.706Z</time>
      </trkpt>
      <trkpt lat="43.96335" lon="2.21767">
        <ele>260</ele>
        <time>2020-08-25T11:29:50.706Z</time>
      </trkpt>
      <trkpt lat="43.96335" lon="2.21766">
        <ele>260</ele>
        <time>2020-08-25T11:29:51.706Z</time>
      </trkpt>
      <trkpt lat="43.96334" lon="2.21764">
        <ele>260</ele>
        <time>2020-08-25T11:29:52.706Z</time>
      </trkpt>
      <trkpt lat="43.96334" lon="2.21764">
        <ele>260</ele>
        <time>2020-08-25T11:29:53.706Z</time>
      </trkpt>
      <trkpt lat="43.96334" lon="2.21763">
        <ele>260</ele>
        <time>2020-08-25T11:29:54.706Z</time>
      </trkpt>
      <trkpt lat="43.96334" lon="2.21762">
        <ele>260</ele>
        <time>2020-08-25T11:29:55.706Z</time>
      </trkpt>
      <trkpt lat="43.96335" lon="2.21761">
        <ele>260</ele>
        <time>2020-08-25T11:29:56.706Z</time>
      </trkpt>
      <trkpt lat="43.96335" lon="2.2176">
        <ele>260</ele>
        <time>2020-08-25T11:29:57.706Z</time>
      </trkpt>
      <trkpt lat="43.96335" lon="2.21758">
        <ele>260</ele>
        <time>2020-08-25T11:29:58.706Z</time>
      </trkpt>
      <trkpt lat="43.96335" lon="2.21757">
        <ele>260</ele>
        <time>2020-08-25T11:29:59.706Z</time>
      </trkpt>
      <trkpt lat="43.96335" lon="2.21756">
        <ele>260</ele>
        <time>2020-08-25T11:30:00.706Z</time>
      </trkpt>
      <trkpt lat="43.96335" lon="2.21754">
        <ele>260</ele>
        <time>2020-08-25T11:30:01.706Z</time>
      </trkpt>
      <trkpt lat="43.96335" lon="2.21753">
        <ele>260</ele>
        <time>2020-08-25T11:30:02.706Z</time>
      </trkpt>
      <trkpt lat="43.96336" lon="2.21752">
        <ele>260</ele>
        <time>2020-08-25T11:30:03.706Z</time>
      </trkpt>
      <trkpt lat="43.96336" lon="2.21751">
        <ele>260</ele>
        <time>2020-08-25T11:30:04.706Z</time>
      </trkpt>
      <trkpt lat="43.96336" lon="2.21749">
        <ele>260</ele>
        <time>2020-08-25T11:30:05.706Z</time>
      </trkpt>
      <trkpt lat="43.96337" lon="2.21748">
        <ele>260</ele>
        <time>2020-08-25T11:30:06.706Z</time>
      </trkpt>
      <trkpt lat="43.96337" lon="2.21747">
        <ele>260</ele>
        <time>2020-08-25T11:30:07.706Z</time>
      </trkpt>
      <trkpt lat="43.96337" lon="2.21746">
        <ele>260</ele>
        <time>2020-08-25T11:30:08.706Z</time>
      </trkpt>
      <trkpt lat="43.96337" lon="2.21744">
        <ele>260</ele>
        <time>2020-08-25T11:30:09.706Z</time>
      </trkpt>
      <trkpt lat="43.96338" lon="2.21743">
        <ele>260</ele>
        <time>2020-08-25T11:30:10.706Z</time>
      </trkpt>
      <trkpt lat="43.96338" lon="2.21742">
        <ele>260</ele>
        <time>2020-08-25T11:30:11.706Z</time>
      </trkpt>
      <trkpt lat="43.96338" lon="2.21741">
        <ele>260</ele>
        <time>2020-08-25T11:30:12.706Z</time>
      </trkpt>
      <trkpt lat="43.96338" lon="2.21739">
        <ele>260</ele>
        <time>2020-08-25T11:30:13.706Z</time>
      </trkpt>
      <trkpt lat="43.96338" lon="2.21738">
        <ele>260</ele>
        <time>2020-08-25T11:30:14.706Z</time>
      </trkpt>
      <trkpt lat="43.96339" lon="2.21736">
        <ele>260</ele>
        <time>2020-08-25T11:30:15.706Z</time>
      </trkpt>
      <trkpt lat="43.96339" lon="2.21734">
        <ele>260</ele>
        <time>2020-08-25T11:30:16.706Z</time>
      </trkpt>
      <trkpt lat="43.96338" lon="2.21733">
        <ele>260</ele>
        <time>2020-08-25T11:30:17.706Z</time>
      </trkpt>
      <trkpt lat="43.96338" lon="2.21732">
        <ele>261</ele>
        <time>2020-08-25T11:30:18.706Z</time>
      </trkpt>
      <trkpt lat="43.96338" lon="2.21731">
        <ele>261</ele>
        <time>2020-08-25T11:30:19.706Z</time>
      </trkpt>
      <trkpt lat="43.96338" lon="2.2173">
        <ele>261</ele>
        <time>2020-08-25T11:30:20.706Z</time>
      </trkpt>
      <trkpt lat="43.96338" lon="2.21728">
        <ele>261</ele>
        <time>2020-08-25T11:30:21.706Z</time>
      </trkpt>
      <trkpt lat="43.96337" lon="2.21727">
        <ele>261</ele>
        <time>2020-08-25T11:30:22.706Z</time>
      </trkpt>
      <trkpt lat="43.96337" lon="2.21726">
        <ele>261</ele>
        <time>2020-08-25T11:30:23.706Z</time>
      </trkpt>
      <trkpt lat="43.96337" lon="2.21725">
        <ele>261</ele>
        <time>2020-08-25T11:30:24.706Z</time>
      </trkpt>
      <trkpt lat="43.96337" lon="2.21723">
        <ele>261</ele>
        <time>2020-08-25T11:30:25.706Z</time>
      </trkpt>
      <trkpt lat="43.96337" lon="2.21721">
        <ele>261</ele>
        <time>2020-08-25T11:30:26.706Z</time>
      </trkpt>
      <trkpt lat="43.96337" lon="2.21719">
        <ele>262</ele>
        <time>2020-08-25T11:30:27.706Z</time>
      </trkpt>
      <trkpt lat="43.96337" lon="2.21718">
        <ele>262</ele>
        <time>2020-08-25T11:30:28.706Z</time>
      </trkpt>
      <trkpt lat="43.96337" lon="2.21717">
        <ele>262</ele>
        <time>2020-08-25T11:30:29.706Z</time>
      </trkpt>
      <trkpt lat="43.96337" lon="2.21715">
        <ele>262</ele>
        <time>2020-08-25T11:30:30.706Z</time>
      </trkpt>
      <trkpt lat="43.96337" lon="2.21713">
        <ele>262</ele>
        <time>2020-08-25T11:30:31.706Z</time>
      </trkpt>
      <trkpt lat="43.96337" lon="2.21711">
        <ele>262</ele>
        <time>2020-08-25T11:30:32.706Z</time>
      </trkpt>
      <trkpt lat="43.96337" lon="2.21711">
        <ele>262</ele>
        <time>2020-08-25T11:30:33.706Z</time>
      </trkpt>
      <trkpt lat="43.96336" lon="2.21709">
        <ele>262</ele>
        <time>2020-08-25T11:30:34.706Z</time>
      </trkpt>
      <trkpt lat="43.96337" lon="2.21708">
        <ele>262</ele>
        <time>2020-08-25T11:30:35.706Z</time>
      </trkpt>
      <trkpt lat="43.96337" lon="2.21706">
        <ele>263</ele>
        <time>2020-08-25T11:30:36.706Z</time>
      </trkpt>
      <trkpt lat="43.96337" lon="2.21703">
        <ele>263</ele>
        <time>2020-08-25T11:30:37.706Z</time>
      </trkpt>
      <trkpt lat="43.96337" lon="2.21701">
        <ele>263</ele>
        <time>2020-08-25T11:30:38.706Z</time>
      </trkpt>
      <trkpt lat="43.96337" lon="2.217">
        <ele>263</ele>
        <time>2020-08-25T11:30:39.706Z</time>
      </trkpt>
      <trkpt lat="43.96337" lon="2.21699">
        <ele>263</ele>
        <time>2020-08-25T11:30:40.706Z</time>
      </trkpt>
      <trkpt lat="43.96337" lon="2.21698">
        <ele>263</ele>
        <time>2020-08-25T11:30:41.706Z</time>
      </trkpt>
      <trkpt lat="43.96337" lon="2.21696">
        <ele>263</ele>
        <time>2020-08-25T11:30:42.706Z</time>
      </trkpt>
      <trkpt lat="43.96338" lon="2.21695">
        <ele>263</ele>
        <time>2020-08-25T11:30:43.706Z</time>
      </trkpt>
      <trkpt lat="43.96338" lon="2.21695">
        <ele>263</ele>
        <time>2020-08-25T11:30:44.706Z</time>
      </trkpt>
      <trkpt lat="43.96338" lon="2.21695">
        <ele>264</ele>
        <time>2020-08-25T11:30:45.706Z</time>
      </trkpt>
      <trkpt lat="43.96338" lon="2.21695">
        <ele>264</ele>
        <time>2020-08-25T11:30:46.706Z</time>
      </trkpt>
      <trkpt lat="43.96338" lon="2.21693">
        <ele>265</ele>
        <time>2020-08-25T11:31:05.819Z</time>
      </trkpt>
      <trkpt lat="43.96337" lon="2.21692">
        <ele>265</ele>
        <time>2020-08-25T11:31:06.819Z</time>
      </trkpt>
      <trkpt lat="43.96337" lon="2.2169">
        <ele>265</ele>
        <time>2020-08-25T11:31:07.819Z</time>
      </trkpt>
      <trkpt lat="43.96337" lon="2.21689">
        <ele>265</ele>
        <time>2020-08-25T11:31:08.819Z</time>
      </trkpt>
      <trkpt lat="43.96336" lon="2.21688">
        <ele>265</ele>
        <time>2020-08-25T11:31:09.819Z</time>
      </trkpt>
      <trkpt lat="43.96337" lon="2.21686">
        <ele>265</ele>
        <time>2020-08-25T11:31:10.819Z</time>
      </trkpt>
      <trkpt lat="43.96337" lon="2.21685">
        <ele>265</ele>
        <time>2020-08-25T11:31:11.819Z</time>
      </trkpt>
      <trkpt lat="43.96337" lon="2.21683">
        <ele>265</ele>
        <time>2020-08-25T11:31:12.819Z</time>
      </trkpt>
      <trkpt lat="43.96337" lon="2.21682">
        <ele>266</ele>
        <time>2020-08-25T11:31:13.819Z</time>
      </trkpt>
      <trkpt lat="43.96337" lon="2.21681">
        <ele>266</ele>
        <time>2020-08-25T11:31:14.819Z</time>
      </trkpt>
      <trkpt lat="43.96337" lon="2.2168">
        <ele>266</ele>
        <time>2020-08-25T11:31:15.819Z</time>
      </trkpt>
      <trkpt lat="43.96337" lon="2.21678">
        <ele>266</ele>
        <time>2020-08-25T11:31:16.819Z</time>
      </trkpt>
      <trkpt lat="43.96337" lon="2.21677">
        <ele>266</ele>
        <time>2020-08-25T11:31:17.819Z</time>
      </trkpt>
      <trkpt lat="43.96337" lon="2.21676">
        <ele>266</ele>
        <time>2020-08-25T11:31:18.819Z</time>
      </trkpt>
      <trkpt lat="43.96337" lon="2.21675">
        <ele>266</ele>
        <time>2020-08-25T11:31:19.819Z</time>
      </trkpt>
      <trkpt lat="43.96337" lon="2.21674">
        <ele>266</ele>
        <time>2020-08-25T11:31:20.819Z</time>
      </trkpt>
      <trkpt lat="43.96337" lon="2.21672">
        <ele>266</ele>
        <time>2020-08-25T11:31:21.819Z</time>
      </trkpt>
      <trkpt lat="43.96337" lon="2.21671">
        <ele>266</ele>
        <time>2020-08-25T11:31:22.819Z</time>
      </trkpt>
      <trkpt lat="43.96337" lon="2.21669">
        <ele>266</ele>
        <time>2020-08-25T11:31:23.819Z</time>
      </trkpt>
      <trkpt lat="43.96337" lon="2.21668">
        <ele>266</ele>
        <time>2020-08-25T11:31:24.819Z</time>
      </trkpt>
      <trkpt lat="43.96337" lon="2.21667">
        <ele>266</ele>
        <time>2020-08-25T11:31:25.819Z</time>
      </trkpt>
      <trkpt lat="43.96337" lon="2.21665">
        <ele>266</ele>
        <time>2020-08-25T11:31:26.819Z</time>
      </trkpt>
      <trkpt lat="43.96337" lon="2.21664">
        <ele>266</ele>
        <time>2020-08-25T11:31:27.819Z</time>
      </trkpt>
      <trkpt lat="43.96337" lon="2.21662">
        <ele>267</ele>
        <time>2020-08-25T11:31:28.819Z</time>
      </trkpt>
      <trkpt lat="43.96337" lon="2.21661">
        <ele>267</ele>
        <time>2020-08-25T11:31:29.819Z</time>
      </trkpt>
      <trkpt lat="43.96336" lon="2.2166">
        <ele>267</ele>
        <time>2020-08-25T11:31:30.819Z</time>
      </trkpt>
      <trkpt lat="43.96336" lon="2.21659">
        <ele>267</ele>
        <time>2020-08-25T11:31:31.819Z</time>
      </trkpt>
      <trkpt lat="43.96336" lon="2.21658">
        <ele>267</ele>
        <time>2020-08-25T11:31:32.819Z</time>
      </trkpt>
      <trkpt lat="43.96336" lon="2.21656">
        <ele>267</ele>
        <time>2020-08-25T11:31:33.819Z</time>
      </trkpt>
      <trkpt lat="43.96336" lon="2.21654">
        <ele>267</ele>
        <time>2020-08-25T11:31:34.819Z</time>
      </trkpt>
      <trkpt lat="43.96336" lon="2.21652">
        <ele>268</ele>
        <time>2020-08-25T11:31:35.819Z</time>
      </trkpt>
      <trkpt lat="43.96336" lon="2.21651">
        <ele>268</ele>
        <time>2020-08-25T11:31:36.819Z</time>
      </trkpt>
      <trkpt lat="43.96336" lon="2.2165">
        <ele>268</ele>
        <time>2020-08-25T11:31:37.819Z</time>
      </trkpt>
      <trkpt lat="43.96336" lon="2.21648">
        <ele>268</ele>
        <time>2020-08-25T11:31:38.819Z</time>
      </trkpt>
      <trkpt lat="43.96336" lon="2.21646">
        <ele>268</ele>
        <time>2020-08-25T11:31:39.819Z</time>
      </trkpt>
      <trkpt lat="43.96336" lon="2.21646">
        <ele>268</ele>
        <time>2020-08-25T11:31:40.819Z</time>
      </trkpt>
      <trkpt lat="43.96336" lon="2.21644">
        <ele>268</ele>
        <time>2020-08-25T11:31:41.819Z</time>
      </trkpt>
      <trkpt lat="43.96336" lon="2.21643">
        <ele>269</ele>
        <time>2020-08-25T11:31:42.819Z</time>
      </trkpt>
      <trkpt lat="43.96336" lon="2.21641">
        <ele>269</ele>
        <time>2020-08-25T11:31:43.819Z</time>
      </trkpt>
      <trkpt lat="43.96336" lon="2.2164">
        <ele>269</ele>
        <time>2020-08-25T11:31:44.819Z</time>
      </trkpt>
      <trkpt lat="43.96336" lon="2.21639">
        <ele>269</ele>
        <time>2020-08-25T11:31:45.819Z</time>
      </trkpt>
      <trkpt lat="43.96336" lon="2.21638">
        <ele>269</ele>
        <time>2020-08-25T11:31:46.819Z</time>
      </trkpt>
      <trkpt lat="43.96336" lon="2.21636">
        <ele>269</ele>
        <time>2020-08-25T11:31:47.819Z</time>
      </trkpt>
      <trkpt lat="43.96336" lon="2.21635">
        <ele>269</ele>
        <time>2020-08-25T11:31:48.819Z</time>
      </trkpt>
      <trkpt lat="43.96335" lon="2.21634">
        <ele>269</ele>
        <time>2020-08-25T11:31:49.819Z</time>
      </trkpt>
      <trkpt lat="43.96335" lon="2.21633">
        <ele>270</ele>
        <time>2020-08-25T11:31:50.819Z</time>
      </trkpt>
      <trkpt lat="43.96335" lon="2.21632">
        <ele>269</ele>
        <time>2020-08-25T11:31:51.819Z</time>
      </trkpt>
      <trkpt lat="43.96335" lon="2.21631">
        <ele>270</ele>
        <time>2020-08-25T11:31:52.819Z</time>
      </trkpt>
      <trkpt lat="43.96335" lon="2.21629">
        <ele>270</ele>
        <time>2020-08-25T11:31:53.819Z</time>
      </trkpt>
      <trkpt lat="43.96335" lon="2.21628">
        <ele>270</ele>
        <time>2020-08-25T11:31:54.819Z</time>
      </trkpt>
      <trkpt lat="43.96335" lon="2.21627">
        <ele>270</ele>
        <time>2020-08-25T11:31:55.819Z</time>
      </trkpt>
      <trkpt lat="43.96335" lon="2.21626">
        <ele>270</ele>
        <time>2020-08-25T11:31:56.819Z</time>
      </trkpt>
      <trkpt lat="43.96335" lon="2.21624">
        <ele>270</ele>
        <time>2020-08-25T11:31:57.819Z</time>
      </trkpt>
      <trkpt lat="43.96334" lon="2.21623">
        <ele>270</ele>
        <time>2020-08-25T11:31:58.819Z</time>
      </trkpt>
      <trkpt lat="43.96334" lon="2.21622">
        <ele>270</ele>
        <time>2020-08-25T11:31:59.819Z</time>
      </trkpt>
      <trkpt lat="43.96334" lon="2.21621">
        <ele>270</ele>
        <time>2020-08-25T11:32:00.819Z</time>
      </trkpt>
      <trkpt lat="43.96334" lon="2.21619">
        <ele>270</ele>
        <time>2020-08-25T11:32:01.819Z</time>
      </trkpt>
      <trkpt lat="43.96334" lon="2.21617">
        <ele>271</ele>
        <time>2020-08-25T11:32:02.819Z</time>
      </trkpt>
      <trkpt lat="43.96334" lon="2.21616">
        <ele>271</ele>
        <time>2020-08-25T11:32:03.819Z</time>
      </trkpt>
      <trkpt lat="43.96334" lon="2.21614">
        <ele>271</ele>
        <time>2020-08-25T11:32:04.819Z</time>
      </trkpt>
      <trkpt lat="43.96333" lon="2.21612">
        <ele>271</ele>
        <time>2020-08-25T11:32:05.819Z</time>
      </trkpt>
      <trkpt lat="43.96333" lon="2.21611">
        <ele>271</ele>
        <time>2020-08-25T11:32:06.819Z</time>
      </trkpt>
      <trkpt lat="43.96333" lon="2.21609">
        <ele>271</ele>
        <time>2020-08-25T11:32:07.819Z</time>
      </trkpt>
      <trkpt lat="43.96333" lon="2.21607">
        <ele>272</ele>
        <time>2020-08-25T11:32:08.819Z</time>
      </trkpt>
      <trkpt lat="43.96333" lon="2.21606">
        <ele>272</ele>
        <time>2020-08-25T11:32:09.819Z</time>
      </trkpt>
      <trkpt lat="43.96333" lon="2.21604">
        <ele>272</ele>
        <time>2020-08-25T11:32:10.819Z</time>
      </trkpt>
      <trkpt lat="43.96333" lon="2.21603">
        <ele>273</ele>
        <time>2020-08-25T11:32:11.819Z</time>
      </trkpt>
      <trkpt lat="43.96333" lon="2.21602">
        <ele>273</ele>
        <time>2020-08-25T11:32:12.819Z</time>
      </trkpt>
      <trkpt lat="43.96332" lon="2.216">
        <ele>273</ele>
        <time>2020-08-25T11:32:13.819Z</time>
      </trkpt>
      <trkpt lat="43.96333" lon="2.21599">
        <ele>274</ele>
        <time>2020-08-25T11:32:14.819Z</time>
      </trkpt>
      <trkpt lat="43.96333" lon="2.21599">
        <ele>274</ele>
        <time>2020-08-25T11:32:15.819Z</time>
      </trkpt>
      <trkpt lat="43.96333" lon="2.21599">
        <ele>274</ele>
        <time>2020-08-25T11:32:16.819Z</time>
      </trkpt>
      <trkpt lat="43.96332" lon="2.21599">
        <ele>274</ele>
        <time>2020-08-25T11:32:17.819Z</time>
      </trkpt>
      <trkpt lat="43.96332" lon="2.21599">
        <ele>275</ele>
        <time>2020-08-25T11:32:18.819Z</time>
      </trkpt>
      <trkpt lat="43.96333" lon="2.21596">
        <ele>275</ele>
        <time>2020-08-25T11:32:22.926Z</time>
      </trkpt>
      <trkpt lat="43.96333" lon="2.21594">
        <ele>275</ele>
        <time>2020-08-25T11:32:23.926Z</time>
      </trkpt>
      <trkpt lat="43.96333" lon="2.21593">
        <ele>275</ele>
        <time>2020-08-25T11:32:24.926Z</time>
      </trkpt>
      <trkpt lat="43.96333" lon="2.21592">
        <ele>275</ele>
        <time>2020-08-25T11:32:25.926Z</time>
      </trkpt>
      <trkpt lat="43.96333" lon="2.2159">
        <ele>276</ele>
        <time>2020-08-25T11:32:26.926Z</time>
      </trkpt>
      <trkpt lat="43.96333" lon="2.21589">
        <ele>276</ele>
        <time>2020-08-25T11:32:27.926Z</time>
      </trkpt>
      <trkpt lat="43.96333" lon="2.21587">
        <ele>276</ele>
        <time>2020-08-25T11:32:28.926Z</time>
      </trkpt>
      <trkpt lat="43.96333" lon="2.21585">
        <ele>276</ele>
        <time>2020-08-25T11:32:29.926Z</time>
      </trkpt>
      <trkpt lat="43.96333" lon="2.21583">
        <ele>276</ele>
        <time>2020-08-25T11:32:30.926Z</time>
      </trkpt>
      <trkpt lat="43.96333" lon="2.21582">
        <ele>277</ele>
        <time>2020-08-25T11:32:31.926Z</time>
      </trkpt>
      <trkpt lat="43.96332" lon="2.2158">
        <ele>277</ele>
        <time>2020-08-25T11:32:32.926Z</time>
      </trkpt>
      <trkpt lat="43.96332" lon="2.21579">
        <ele>277</ele>
        <time>2020-08-25T11:32:33.926Z</time>
      </trkpt>
      <trkpt lat="43.96332" lon="2.21577">
        <ele>277</ele>
        <time>2020-08-25T11:32:34.926Z</time>
      </trkpt>
      <trkpt lat="43.96333" lon="2.21575">
        <ele>278</ele>
        <time>2020-08-25T11:32:35.926Z</time>
      </trkpt>
      <trkpt lat="43.96333" lon="2.21574">
        <ele>278</ele>
        <time>2020-08-25T11:32:36.926Z</time>
      </trkpt>
      <trkpt lat="43.96333" lon="2.21572">
        <ele>278</ele>
        <time>2020-08-25T11:32:37.926Z</time>
      </trkpt>
      <trkpt lat="43.96333" lon="2.21571">
        <ele>278</ele>
        <time>2020-08-25T11:32:38.926Z</time>
      </trkpt>
      <trkpt lat="43.96334" lon="2.2157">
        <ele>278</ele>
        <time>2020-08-25T11:32:39.926Z</time>
      </trkpt>
      <trkpt lat="43.96335" lon="2.21569">
        <ele>278</ele>
        <time>2020-08-25T11:32:40.926Z</time>
      </trkpt>
      <trkpt lat="43.96336" lon="2.21567">
        <ele>278</ele>
        <time>2020-08-25T11:32:41.926Z</time>
      </trkpt>
      <trkpt lat="43.96336" lon="2.21566">
        <ele>279</ele>
        <time>2020-08-25T11:32:42.926Z</time>
      </trkpt>
      <trkpt lat="43.96336" lon="2.21565">
        <ele>279</ele>
        <time>2020-08-25T11:32:43.926Z</time>
      </trkpt>
      <trkpt lat="43.96335" lon="2.21564">
        <ele>279</ele>
        <time>2020-08-25T11:32:44.926Z</time>
      </trkpt>
      <trkpt lat="43.96335" lon="2.21563">
        <ele>280</ele>
        <time>2020-08-25T11:32:45.926Z</time>
      </trkpt>
      <trkpt lat="43.96335" lon="2.21561">
        <ele>280</ele>
        <time>2020-08-25T11:32:46.926Z</time>
      </trkpt>
      <trkpt lat="43.96335" lon="2.2156">
        <ele>280</ele>
        <time>2020-08-25T11:32:47.926Z</time>
      </trkpt>
      <trkpt lat="43.96335" lon="2.21558">
        <ele>281</ele>
        <time>2020-08-25T11:32:48.926Z</time>
      </trkpt>
      <trkpt lat="43.96335" lon="2.21557">
        <ele>281</ele>
        <time>2020-08-25T11:32:49.926Z</time>
      </trkpt>
      <trkpt lat="43.96335" lon="2.21556">
        <ele>281</ele>
        <time>2020-08-25T11:32:50.926Z</time>
      </trkpt>
      <trkpt lat="43.96336" lon="2.21554">
        <ele>281</ele>
        <time>2020-08-25T11:32:51.926Z</time>
      </trkpt>
      <trkpt lat="43.96337" lon="2.21553">
        <ele>281</ele>
        <time>2020-08-25T11:32:52.926Z</time>
      </trkpt>
      <trkpt lat="43.96337" lon="2.21551">
        <ele>281</ele>
        <time>2020-08-25T11:32:53.926Z</time>
      </trkpt>
      <trkpt lat="43.96336" lon="2.2155">
        <ele>281</ele>
        <time>2020-08-25T11:32:54.926Z</time>
      </trkpt>
      <trkpt lat="43.96335" lon="2.21548">
        <ele>281</ele>
        <time>2020-08-25T11:32:55.926Z</time>
      </trkpt>
      <trkpt lat="43.96334" lon="2.21546">
        <ele>281</ele>
        <time>2020-08-25T11:32:56.926Z</time>
      </trkpt>
      <trkpt lat="43.96334" lon="2.21544">
        <ele>281</ele>
        <time>2020-08-25T11:32:57.926Z</time>
      </trkpt>
      <trkpt lat="43.96335" lon="2.21543">
        <ele>281</ele>
        <time>2020-08-25T11:32:58.926Z</time>
      </trkpt>
      <trkpt lat="43.96335" lon="2.21541">
        <ele>281</ele>
        <time>2020-08-25T11:32:59.926Z</time>
      </trkpt>
      <trkpt lat="43.96334" lon="2.2154">
        <ele>281</ele>
        <time>2020-08-25T11:33:00.926Z</time>
      </trkpt>
      <trkpt lat="43.96334" lon="2.21538">
        <ele>281</ele>
        <time>2020-08-25T11:33:01.926Z</time>
      </trkpt>
      <trkpt lat="43.96334" lon="2.21538">
        <ele>281</ele>
        <time>2020-08-25T11:33:02.926Z</time>
      </trkpt>
      <trkpt lat="43.96335" lon="2.21536">
        <ele>282</ele>
        <time>2020-08-25T11:33:03.926Z</time>
      </trkpt>
      <trkpt lat="43.96335" lon="2.21534">
        <ele>282</ele>
        <time>2020-08-25T11:33:04.926Z</time>
      </trkpt>
      <trkpt lat="43.96337" lon="2.21532">
        <ele>282</ele>
        <time>2020-08-25T11:33:05.926Z</time>
      </trkpt>
      <trkpt lat="43.96338" lon="2.2153">
        <ele>282</ele>
        <time>2020-08-25T11:33:06.926Z</time>
      </trkpt>
      <trkpt lat="43.96338" lon="2.21529">
        <ele>282</ele>
        <time>2020-08-25T11:33:07.926Z</time>
      </trkpt>
      <trkpt lat="43.96339" lon="2.21529">
        <ele>282</ele>
        <time>2020-08-25T11:33:08.926Z</time>
      </trkpt>
      <trkpt lat="43.96339" lon="2.21528">
        <ele>282</ele>
        <time>2020-08-25T11:33:09.926Z</time>
      </trkpt>
      <trkpt lat="43.96339" lon="2.21527">
        <ele>282</ele>
        <time>2020-08-25T11:33:10.926Z</time>
      </trkpt>
      <trkpt lat="43.96339" lon="2.21525">
        <ele>282</ele>
        <time>2020-08-25T11:33:11.926Z</time>
      </trkpt>
      <trkpt lat="43.9634" lon="2.21523">
        <ele>282</ele>
        <time>2020-08-25T11:33:12.926Z</time>
      </trkpt>
      <trkpt lat="43.96341" lon="2.21521">
        <ele>282</ele>
        <time>2020-08-25T11:33:13.926Z</time>
      </trkpt>
      <trkpt lat="43.96341" lon="2.21518">
        <ele>282</ele>
        <time>2020-08-25T11:33:14.926Z</time>
      </trkpt>
      <trkpt lat="43.96341" lon="2.21516">
        <ele>282</ele>
        <time>2020-08-25T11:33:15.926Z</time>
      </trkpt>
      <trkpt lat="43.96341" lon="2.21514">
        <ele>283</ele>
        <time>2020-08-25T11:33:16.926Z</time>
      </trkpt>
      <trkpt lat="43.96341" lon="2.21513">
        <ele>283</ele>
        <time>2020-08-25T11:33:17.926Z</time>
      </trkpt>
      <trkpt lat="43.96341" lon="2.21511">
        <ele>283</ele>
        <time>2020-08-25T11:33:18.926Z</time>
      </trkpt>
      <trkpt lat="43.96341" lon="2.21509">
        <ele>283</ele>
        <time>2020-08-25T11:33:19.926Z</time>
      </trkpt>
      <trkpt lat="43.96342" lon="2.21508">
        <ele>283</ele>
        <time>2020-08-25T11:33:20.926Z</time>
      </trkpt>
      <trkpt lat="43.96342" lon="2.21507">
        <ele>283</ele>
        <time>2020-08-25T11:33:21.926Z</time>
      </trkpt>
      <trkpt lat="43.96343" lon="2.21504">
        <ele>283</ele>
        <time>2020-08-25T11:33:22.926Z</time>
      </trkpt>
      <trkpt lat="43.96343" lon="2.21502">
        <ele>283</ele>
        <time>2020-08-25T11:33:23.926Z</time>
      </trkpt>
      <trkpt lat="43.96343" lon="2.215">
        <ele>283</ele>
        <time>2020-08-25T11:33:24.926Z</time>
      </trkpt>
      <trkpt lat="43.96344" lon="2.21499">
        <ele>283</ele>
        <time>2020-08-25T11:33:25.926Z</time>
      </trkpt>
      <trkpt lat="43.96344" lon="2.21498">
        <ele>283</ele>
        <time>2020-08-25T11:33:26.926Z</time>
      </trkpt>
      <trkpt lat="43.96344" lon="2.21496">
        <ele>283</ele>
        <time>2020-08-25T11:33:27.926Z</time>
      </trkpt>
      <trkpt lat="43.96344" lon="2.21495">
        <ele>283</ele>
        <time>2020-08-25T11:33:28.926Z</time>
      </trkpt>
      <trkpt lat="43.96344" lon="2.21494">
        <ele>284</ele>
        <time>2020-08-25T11:33:29.926Z</time>
      </trkpt>
      <trkpt lat="43.96345" lon="2.21492">
        <ele>284</ele>
        <time>2020-08-25T11:33:30.926Z</time>
      </trkpt>
      <trkpt lat="43.96345" lon="2.2149">
        <ele>284</ele>
        <time>2020-08-25T11:33:31.926Z</time>
      </trkpt>
      <trkpt lat="43.96345" lon="2.21488">
        <ele>284</ele>
        <time>2020-08-25T11:33:32.926Z</time>
      </trkpt>
      <trkpt lat="43.96345" lon="2.21486">
        <ele>284</ele>
        <time>2020-08-25T11:33:33.926Z</time>
      </trkpt>
      <trkpt lat="43.96345" lon="2.21483">
        <ele>284</ele>
        <time>2020-08-25T11:33:34.926Z</time>
      </trkpt>
      <trkpt lat="43.96346" lon="2.21482">
        <ele>285</ele>
        <time>2020-08-25T11:33:35.926Z</time>
      </trkpt>
      <trkpt lat="43.96346" lon="2.2148">
        <ele>285</ele>
        <time>2020-08-25T11:33:36.926Z</time>
      </trkpt>
      <trkpt lat="43.96346" lon="2.21478">
        <ele>285</ele>
        <time>2020-08-25T11:33:37.926Z</time>
      </trkpt>
      <trkpt lat="43.96347" lon="2.21477">
        <ele>285</ele>
        <time>2020-08-25T11:33:38.926Z</time>
      </trkpt>
      <trkpt lat="43.96348" lon="2.21475">
        <ele>284</ele>
        <time>2020-08-25T11:33:39.926Z</time>
      </trkpt>
      <trkpt lat="43.96348" lon="2.21473">
        <ele>284</ele>
        <time>2020-08-25T11:33:40.926Z</time>
      </trkpt>
      <trkpt lat="43.96349" lon="2.21472">
        <ele>284</ele>
        <time>2020-08-25T11:33:41.926Z</time>
      </trkpt>
      <trkpt lat="43.96349" lon="2.2147">
        <ele>284</ele>
        <time>2020-08-25T11:33:42.926Z</time>
      </trkpt>
      <trkpt lat="43.96349" lon="2.21467">
        <ele>284</ele>
        <time>2020-08-25T11:33:43.926Z</time>
      </trkpt>
      <trkpt lat="43.96348" lon="2.21465">
        <ele>283</ele>
        <time>2020-08-25T11:33:44.926Z</time>
      </trkpt>
      <trkpt lat="43.96347" lon="2.21462">
        <ele>283</ele>
        <time>2020-08-25T11:33:45.926Z</time>
      </trkpt>
      <trkpt lat="43.96346" lon="2.21459">
        <ele>283</ele>
        <time>2020-08-25T11:33:46.926Z</time>
      </trkpt>
      <trkpt lat="43.96346" lon="2.21457">
        <ele>283</ele>
        <time>2020-08-25T11:33:47.926Z</time>
      </trkpt>
      <trkpt lat="43.96347" lon="2.21456">
        <ele>283</ele>
        <time>2020-08-25T11:33:48.926Z</time>
      </trkpt>
      <trkpt lat="43.96348" lon="2.21456">
        <ele>283</ele>
        <time>2020-08-25T11:33:49.926Z</time>
      </trkpt>
      <trkpt lat="43.96349" lon="2.21456">
        <ele>283</ele>
        <time>2020-08-25T11:33:50.926Z</time>
      </trkpt>
      <trkpt lat="43.9635" lon="2.21455">
        <ele>283</ele>
        <time>2020-08-25T11:33:51.926Z</time>
      </trkpt>
      <trkpt lat="43.9635" lon="2.21453">
        <ele>283</ele>
        <time>2020-08-25T11:33:52.926Z</time>
      </trkpt>
      <trkpt lat="43.96351" lon="2.21452">
        <ele>283</ele>
        <time>2020-08-25T11:33:53.926Z</time>
      </trkpt>
      <trkpt lat="43.96352" lon="2.21449">
        <ele>283</ele>
        <time>2020-08-25T11:33:54.926Z</time>
      </trkpt>
      <trkpt lat="43.96352" lon="2.21447">
        <ele>283</ele>
        <time>2020-08-25T11:33:55.926Z</time>
      </trkpt>
      <trkpt lat="43.9635" lon="2.21444">
        <ele>283</ele>
        <time>2020-08-25T11:33:56.926Z</time>
      </trkpt>
      <trkpt lat="43.9635" lon="2.21442">
        <ele>283</ele>
        <time>2020-08-25T11:33:57.926Z</time>
      </trkpt>
      <trkpt lat="43.9635" lon="2.2144">
        <ele>283</ele>
        <time>2020-08-25T11:33:58.926Z</time>
      </trkpt>
      <trkpt lat="43.96352" lon="2.21439">
        <ele>283</ele>
        <time>2020-08-25T11:33:59.926Z</time>
      </trkpt>
      <trkpt lat="43.96352" lon="2.21438">
        <ele>283</ele>
        <time>2020-08-25T11:34:00.926Z</time>
      </trkpt>
      <trkpt lat="43.96353" lon="2.21438">
        <ele>283</ele>
        <time>2020-08-25T11:34:01.926Z</time>
      </trkpt>
      <trkpt lat="43.96355" lon="2.21437">
        <ele>283</ele>
        <time>2020-08-25T11:34:02.926Z</time>
      </trkpt>
      <trkpt lat="43.96355" lon="2.21435">
        <ele>283</ele>
        <time>2020-08-25T11:34:03.926Z</time>
      </trkpt>
      <trkpt lat="43.96356" lon="2.21433">
        <ele>283</ele>
        <time>2020-08-25T11:34:04.926Z</time>
      </trkpt>
      <trkpt lat="43.96357" lon="2.2143">
        <ele>283</ele>
        <time>2020-08-25T11:34:05.926Z</time>
      </trkpt>
      <trkpt lat="43.96358" lon="2.21427">
        <ele>284</ele>
        <time>2020-08-25T11:34:06.926Z</time>
      </trkpt>
      <trkpt lat="43.96357" lon="2.21424">
        <ele>284</ele>
        <time>2020-08-25T11:34:07.926Z</time>
      </trkpt>
      <trkpt lat="43.96358" lon="2.21423">
        <ele>284</ele>
        <time>2020-08-25T11:34:08.926Z</time>
      </trkpt>
      <trkpt lat="43.96359" lon="2.21422">
        <ele>284</ele>
        <time>2020-08-25T11:34:09.926Z</time>
      </trkpt>
      <trkpt lat="43.96362" lon="2.21422">
        <ele>284</ele>
        <time>2020-08-25T11:34:10.926Z</time>
      </trkpt>
      <trkpt lat="43.96365" lon="2.21422">
        <ele>284</ele>
        <time>2020-08-25T11:34:11.926Z</time>
      </trkpt>
      <trkpt lat="43.96366" lon="2.21421">
        <ele>284</ele>
        <time>2020-08-25T11:34:12.926Z</time>
      </trkpt>
      <trkpt lat="43.96366" lon="2.2142">
        <ele>284</ele>
        <time>2020-08-25T11:34:13.926Z</time>
      </trkpt>
      <trkpt lat="43.96367" lon="2.21418">
        <ele>284</ele>
        <time>2020-08-25T11:34:14.926Z</time>
      </trkpt>
      <trkpt lat="43.96367" lon="2.21416">
        <ele>284</ele>
        <time>2020-08-25T11:34:15.926Z</time>
      </trkpt>
      <trkpt lat="43.96367" lon="2.21415">
        <ele>284</ele>
        <time>2020-08-25T11:34:16.926Z</time>
      </trkpt>
      <trkpt lat="43.96368" lon="2.21414">
        <ele>284</ele>
        <time>2020-08-25T11:34:17.926Z</time>
      </trkpt>
      <trkpt lat="43.96368" lon="2.21412">
        <ele>284</ele>
        <time>2020-08-25T11:34:18.926Z</time>
      </trkpt>
      <trkpt lat="43.96368" lon="2.21411">
        <ele>284</ele>
        <time>2020-08-25T11:34:19.926Z</time>
      </trkpt>
      <trkpt lat="43.96368" lon="2.2141">
        <ele>284</ele>
        <time>2020-08-25T11:34:20.926Z</time>
      </trkpt>
      <trkpt lat="43.96367" lon="2.21408">
        <ele>284</ele>
        <time>2020-08-25T11:34:21.926Z</time>
      </trkpt>
      <trkpt lat="43.96367" lon="2.21407">
        <ele>284</ele>
        <time>2020-08-25T11:34:22.926Z</time>
      </trkpt>
      <trkpt lat="43.96367" lon="2.21406">
        <ele>284</ele>
        <time>2020-08-25T11:34:23.926Z</time>
      </trkpt>
      <trkpt lat="43.96366" lon="2.21406">
        <ele>284</ele>
        <time>2020-08-25T11:34:24.926Z</time>
      </trkpt>
      <trkpt lat="43.96366" lon="2.21406">
        <ele>284</ele>
        <time>2020-08-25T11:34:25.926Z</time>
      </trkpt>
      <trkpt lat="43.96365" lon="2.21406">
        <ele>284</ele>
        <time>2020-08-25T11:34:26.926Z</time>
      </trkpt>
      <trkpt lat="43.96365" lon="2.21406">
        <ele>284</ele>
        <time>2020-08-25T11:34:27.926Z</time>
      </trkpt>
      <trkpt lat="43.96364" lon="2.21406">
        <ele>284</ele>
        <time>2020-08-25T11:34:28.926Z</time>
      </trkpt>
      <trkpt lat="43.96363" lon="2.21406">
        <ele>284</ele>
        <time>2020-08-25T11:34:29.926Z</time>
      </trkpt>
      <trkpt lat="43.96362" lon="2.21407">
        <ele>284</ele>
        <time>2020-08-25T11:34:30.926Z</time>
      </trkpt>
      <trkpt lat="43.9636" lon="2.21407">
        <ele>284</ele>
        <time>2020-08-25T11:34:31.926Z</time>
      </trkpt>
      <trkpt lat="43.9636" lon="2.21407">
        <ele>284</ele>
        <time>2020-08-25T11:34:32.926Z</time>
      </trkpt>
      <trkpt lat="43.96359" lon="2.21407">
        <ele>284</ele>
        <time>2020-08-25T11:34:33.926Z</time>
      </trkpt>
      <trkpt lat="43.96358" lon="2.21407">
        <ele>284</ele>
        <time>2020-08-25T11:34:34.926Z</time>
      </trkpt>
      <trkpt lat="43.96356" lon="2.21407">
        <ele>284</ele>
        <time>2020-08-25T11:34:35.926Z</time>
      </trkpt>
      <trkpt lat="43.96355" lon="2.21407">
        <ele>284</ele>
        <time>2020-08-25T11:34:36.926Z</time>
      </trkpt>
      <trkpt lat="43.96353" lon="2.21407">
        <ele>284</ele>
        <time>2020-08-25T11:34:37.926Z</time>
      </trkpt>
      <trkpt lat="43.96352" lon="2.21407">
        <ele>284</ele>
        <time>2020-08-25T11:34:38.926Z</time>
      </trkpt>
      <trkpt lat="43.96351" lon="2.21407">
        <ele>284</ele>
        <time>2020-08-25T11:34:39.926Z</time>
      </trkpt>
      <trkpt lat="43.9635" lon="2.21407">
        <ele>284</ele>
        <time>2020-08-25T11:34:40.926Z</time>
      </trkpt>
      <trkpt lat="43.9635" lon="2.21407">
        <ele>284</ele>
        <time>2020-08-25T11:34:41.926Z</time>
      </trkpt>
      <trkpt lat="43.9635" lon="2.21407">
        <ele>284</ele>
        <time>2020-08-25T11:34:42.926Z</time>
      </trkpt>
      <trkpt lat="43.96349" lon="2.21407">
        <ele>283</ele>
        <time>2020-08-25T11:34:43.926Z</time>
      </trkpt>
      <trkpt lat="43.96348" lon="2.21407">
        <ele>283</ele>
        <time>2020-08-25T11:34:44.926Z</time>
      </trkpt>
      <trkpt lat="43.96347" lon="2.21407">
        <ele>283</ele>
        <time>2020-08-25T11:34:45.926Z</time>
      </trkpt>
      <trkpt lat="43.96346" lon="2.21406">
        <ele>283</ele>
        <time>2020-08-25T11:34:46.926Z</time>
      </trkpt>
      <trkpt lat="43.96345" lon="2.21404">
        <ele>283</ele>
        <time>2020-08-25T11:34:47.926Z</time>
      </trkpt>
      <trkpt lat="43.96342" lon="2.21403">
        <ele>283</ele>
        <time>2020-08-25T11:34:48.926Z</time>
      </trkpt>
      <trkpt lat="43.96339" lon="2.21402">
        <ele>283</ele>
        <time>2020-08-25T11:34:49.926Z</time>
      </trkpt>
      <trkpt lat="43.96336" lon="2.21402">
        <ele>283</ele>
        <time>2020-08-25T11:34:50.926Z</time>
      </trkpt>
      <trkpt lat="43.96334" lon="2.21402">
        <ele>283</ele>
        <time>2020-08-25T11:34:51.926Z</time>
      </trkpt>
      <trkpt lat="43.96332" lon="2.21401">
        <ele>283</ele>
        <time>2020-08-25T11:34:52.926Z</time>
      </trkpt>
      <trkpt lat="43.96331" lon="2.214">
        <ele>283</ele>
        <time>2020-08-25T11:34:53.926Z</time>
      </trkpt>
      <trkpt lat="43.96331" lon="2.214">
        <ele>283</ele>
        <time>2020-08-25T11:34:54.926Z</time>
      </trkpt>
      <trkpt lat="43.9633" lon="2.21399">
        <ele>283</ele>
        <time>2020-08-25T11:34:55.926Z</time>
      </trkpt>
      <trkpt lat="43.96329" lon="2.21399">
        <ele>282</ele>
        <time>2020-08-25T11:34:56.926Z</time>
      </trkpt>
      <trkpt lat="43.96328" lon="2.21398">
        <ele>282</ele>
        <time>2020-08-25T11:34:57.926Z</time>
      </trkpt>
      <trkpt lat="43.96327" lon="2.21398">
        <ele>282</ele>
        <time>2020-08-25T11:34:58.926Z</time>
      </trkpt>
      <trkpt lat="43.96326" lon="2.21397">
        <ele>282</ele>
        <time>2020-08-25T11:34:59.926Z</time>
      </trkpt>
      <trkpt lat="43.96326" lon="2.21397">
        <ele>282</ele>
        <time>2020-08-25T11:35:00.926Z</time>
      </trkpt>
      <trkpt lat="43.96326" lon="2.21397">
        <ele>282</ele>
        <time>2020-08-25T11:35:01.926Z</time>
      </trkpt>
      <trkpt lat="43.96324" lon="2.21396">
        <ele>282</ele>
        <time>2020-08-25T11:35:05.152Z</time>
      </trkpt>
      <trkpt lat="43.96323" lon="2.21396">
        <ele>281</ele>
        <time>2020-08-25T11:35:06.152Z</time>
      </trkpt>
      <trkpt lat="43.96323" lon="2.21396">
        <ele>281</ele>
        <time>2020-08-25T11:35:07.152Z</time>
      </trkpt>
      <trkpt lat="43.96323" lon="2.21396">
        <ele>281</ele>
        <time>2020-08-25T11:35:08.152Z</time>
      </trkpt>
      <trkpt lat="43.96323" lon="2.21396">
        <ele>281</ele>
        <time>2020-08-25T11:35:09.152Z</time>
      </trkpt>
      <trkpt lat="43.96323" lon="2.21396">
        <ele>281</ele>
        <time>2020-08-25T11:35:10.152Z</time>
      </trkpt>
      <trkpt lat="43.96321" lon="2.21394">
        <ele>280</ele>
        <time>2020-08-25T11:35:24.154Z</time>
      </trkpt>
      <trkpt lat="43.96321" lon="2.21394">
        <ele>280</ele>
        <time>2020-08-25T11:35:25.154Z</time>
      </trkpt>
      <trkpt lat="43.96321" lon="2.21394">
        <ele>280</ele>
        <time>2020-08-25T11:35:26.154Z</time>
      </trkpt>
      <trkpt lat="43.96321" lon="2.21394">
        <ele>280</ele>
        <time>2020-08-25T11:35:27.154Z</time>
      </trkpt>
      <trkpt lat="43.96321" lon="2.21394">
        <ele>280</ele>
        <time>2020-08-25T11:35:28.154Z</time>
      </trkpt>
      <trkpt lat="43.9632" lon="2.21393">
        <ele>280</ele>
        <time>2020-08-25T11:35:34.155Z</time>
      </trkpt>
      <trkpt lat="43.9632" lon="2.21392">
        <ele>280</ele>
        <time>2020-08-25T11:35:35.155Z</time>
      </trkpt>
      <trkpt lat="43.96319" lon="2.21392">
        <ele>280</ele>
        <time>2020-08-25T11:35:36.155Z</time>
      </trkpt>
      <trkpt lat="43.96318" lon="2.21392">
        <ele>280</ele>
        <time>2020-08-25T11:35:37.155Z</time>
      </trkpt>
      <trkpt lat="43.96317" lon="2.21391">
        <ele>280</ele>
        <time>2020-08-25T11:35:38.155Z</time>
      </trkpt>
      <trkpt lat="43.96316" lon="2.21391">
        <ele>280</ele>
        <time>2020-08-25T11:35:39.155Z</time>
      </trkpt>
      <trkpt lat="43.96315" lon="2.2139">
        <ele>280</ele>
        <time>2020-08-25T11:35:40.155Z</time>
      </trkpt>
      <trkpt lat="43.96314" lon="2.2139">
        <ele>280</ele>
        <time>2020-08-25T11:35:41.155Z</time>
      </trkpt>
      <trkpt lat="43.96313" lon="2.21389">
        <ele>280</ele>
        <time>2020-08-25T11:35:42.155Z</time>
      </trkpt>
      <trkpt lat="43.96312" lon="2.21389">
        <ele>280</ele>
        <time>2020-08-25T11:35:43.155Z</time>
      </trkpt>
      <trkpt lat="43.96311" lon="2.21388">
        <ele>280</ele>
        <time>2020-08-25T11:35:44.155Z</time>
      </trkpt>
      <trkpt lat="43.96311" lon="2.21388">
        <ele>280</ele>
        <time>2020-08-25T11:35:45.155Z</time>
      </trkpt>
      <trkpt lat="43.9631" lon="2.21387">
        <ele>280</ele>
        <time>2020-08-25T11:35:46.155Z</time>
      </trkpt>
      <trkpt lat="43.96309" lon="2.21387">
        <ele>280</ele>
        <time>2020-08-25T11:35:47.155Z</time>
      </trkpt>
      <trkpt lat="43.96308" lon="2.21386">
        <ele>280</ele>
        <time>2020-08-25T11:35:48.155Z</time>
      </trkpt>
      <trkpt lat="43.96306" lon="2.21385">
        <ele>280</ele>
        <time>2020-08-25T11:35:49.155Z</time>
      </trkpt>
      <trkpt lat="43.96305" lon="2.21385">
        <ele>280</ele>
        <time>2020-08-25T11:35:50.155Z</time>
      </trkpt>
      <trkpt lat="43.96304" lon="2.21385">
        <ele>279</ele>
        <time>2020-08-25T11:35:51.155Z</time>
      </trkpt>
      <trkpt lat="43.96303" lon="2.21384">
        <ele>279</ele>
        <time>2020-08-25T11:35:52.155Z</time>
      </trkpt>
      <trkpt lat="43.96302" lon="2.21384">
        <ele>279</ele>
        <time>2020-08-25T11:35:53.155Z</time>
      </trkpt>
      <trkpt lat="43.96302" lon="2.21383">
        <ele>279</ele>
        <time>2020-08-25T11:35:54.155Z</time>
      </trkpt>
      <trkpt lat="43.96301" lon="2.21383">
        <ele>279</ele>
        <time>2020-08-25T11:35:55.155Z</time>
      </trkpt>
      <trkpt lat="43.96299" lon="2.21382">
        <ele>279</ele>
        <time>2020-08-25T11:35:56.155Z</time>
      </trkpt>
      <trkpt lat="43.96298" lon="2.21381">
        <ele>279</ele>
        <time>2020-08-25T11:35:57.155Z</time>
      </trkpt>
      <trkpt lat="43.96297" lon="2.2138">
        <ele>278</ele>
        <time>2020-08-25T11:35:58.155Z</time>
      </trkpt>
      <trkpt lat="43.96296" lon="2.21379">
        <ele>278</ele>
        <time>2020-08-25T11:35:59.155Z</time>
      </trkpt>
      <trkpt lat="43.96294" lon="2.21379">
        <ele>278</ele>
        <time>2020-08-25T11:36:00.155Z</time>
      </trkpt>
      <trkpt lat="43.96293" lon="2.21378">
        <ele>278</ele>
        <time>2020-08-25T11:36:01.155Z</time>
      </trkpt>
      <trkpt lat="43.96292" lon="2.21378">
        <ele>278</ele>
        <time>2020-08-25T11:36:02.155Z</time>
      </trkpt>
      <trkpt lat="43.96291" lon="2.21377">
        <ele>278</ele>
        <time>2020-08-25T11:36:03.155Z</time>
      </trkpt>
      <trkpt lat="43.9629" lon="2.21376">
        <ele>278</ele>
        <time>2020-08-25T11:36:04.155Z</time>
      </trkpt>
      <trkpt lat="43.96289" lon="2.21376">
        <ele>277</ele>
        <time>2020-08-25T11:36:05.155Z</time>
      </trkpt>
      <trkpt lat="43.96288" lon="2.21375">
        <ele>277</ele>
        <time>2020-08-25T11:36:06.155Z</time>
      </trkpt>
      <trkpt lat="43.96288" lon="2.21374">
        <ele>277</ele>
        <time>2020-08-25T11:36:07.155Z</time>
      </trkpt>
      <trkpt lat="43.96287" lon="2.21374">
        <ele>277</ele>
        <time>2020-08-25T11:36:08.155Z</time>
      </trkpt>
      <trkpt lat="43.96287" lon="2.21374">
        <ele>277</ele>
        <time>2020-08-25T11:36:09.155Z</time>
      </trkpt>
      <trkpt lat="43.96286" lon="2.21374">
        <ele>277</ele>
        <time>2020-08-25T11:36:10.155Z</time>
      </trkpt>
      <trkpt lat="43.96286" lon="2.21374">
        <ele>277</ele>
        <time>2020-08-25T11:36:11.155Z</time>
      </trkpt>
      <trkpt lat="43.96286" lon="2.21374">
        <ele>277</ele>
        <time>2020-08-25T11:36:12.155Z</time>
      </trkpt>
      <trkpt lat="43.96285" lon="2.21373">
        <ele>277</ele>
        <time>2020-08-25T11:36:13.155Z</time>
      </trkpt>
      <trkpt lat="43.96285" lon="2.21372">
        <ele>276</ele>
        <time>2020-08-25T11:36:14.155Z</time>
      </trkpt>
      <trkpt lat="43.96284" lon="2.21372">
        <ele>276</ele>
        <time>2020-08-25T11:36:15.155Z</time>
      </trkpt>
      <trkpt lat="43.96283" lon="2.21371">
        <ele>276</ele>
        <time>2020-08-25T11:36:16.155Z</time>
      </trkpt>
      <trkpt lat="43.96282" lon="2.21371">
        <ele>276</ele>
        <time>2020-08-25T11:36:17.155Z</time>
      </trkpt>
      <trkpt lat="43.96281" lon="2.2137">
        <ele>276</ele>
        <time>2020-08-25T11:36:18.155Z</time>
      </trkpt>
      <trkpt lat="43.9628" lon="2.21369">
        <ele>276</ele>
        <time>2020-08-25T11:36:19.155Z</time>
      </trkpt>
      <trkpt lat="43.96278" lon="2.21368">
        <ele>276</ele>
        <time>2020-08-25T11:36:20.155Z</time>
      </trkpt>
      <trkpt lat="43.96277" lon="2.21367">
        <ele>276</ele>
        <time>2020-08-25T11:36:21.155Z</time>
      </trkpt>
      <trkpt lat="43.96276" lon="2.21366">
        <ele>276</ele>
        <time>2020-08-25T11:36:22.155Z</time>
      </trkpt>
      <trkpt lat="43.96275" lon="2.21366">
        <ele>276</ele>
        <time>2020-08-25T11:36:23.155Z</time>
      </trkpt>
      <trkpt lat="43.96273" lon="2.21364">
        <ele>276</ele>
        <time>2020-08-25T11:36:24.155Z</time>
      </trkpt>
      <trkpt lat="43.96272" lon="2.21363">
        <ele>276</ele>
        <time>2020-08-25T11:36:25.155Z</time>
      </trkpt>
      <trkpt lat="43.96271" lon="2.21363">
        <ele>275</ele>
        <time>2020-08-25T11:36:26.155Z</time>
      </trkpt>
      <trkpt lat="43.9627" lon="2.21362">
        <ele>275</ele>
        <time>2020-08-25T11:36:27.155Z</time>
      </trkpt>
      <trkpt lat="43.96268" lon="2.21361">
        <ele>275</ele>
        <time>2020-08-25T11:36:28.155Z</time>
      </trkpt>
      <trkpt lat="43.96267" lon="2.21361">
        <ele>275</ele>
        <time>2020-08-25T11:36:29.155Z</time>
      </trkpt>
      <trkpt lat="43.96267" lon="2.21361">
        <ele>275</ele>
        <time>2020-08-25T11:36:30.155Z</time>
      </trkpt>
      <trkpt lat="43.96265" lon="2.2136">
        <ele>275</ele>
        <time>2020-08-25T11:36:31.155Z</time>
      </trkpt>
      <trkpt lat="43.96264" lon="2.2136">
        <ele>275</ele>
        <time>2020-08-25T11:36:32.155Z</time>
      </trkpt>
      <trkpt lat="43.96263" lon="2.21359">
        <ele>275</ele>
        <time>2020-08-25T11:36:33.155Z</time>
      </trkpt>
      <trkpt lat="43.96262" lon="2.21358">
        <ele>275</ele>
        <time>2020-08-25T11:36:34.155Z</time>
      </trkpt>
      <trkpt lat="43.96261" lon="2.21358">
        <ele>275</ele>
        <time>2020-08-25T11:36:35.155Z</time>
      </trkpt>
      <trkpt lat="43.9626" lon="2.21357">
        <ele>275</ele>
        <time>2020-08-25T11:36:36.155Z</time>
      </trkpt>
      <trkpt lat="43.96259" lon="2.21357">
        <ele>274</ele>
        <time>2020-08-25T11:36:37.155Z</time>
      </trkpt>
      <trkpt lat="43.96258" lon="2.21356">
        <ele>274</ele>
        <time>2020-08-25T11:36:38.155Z</time>
      </trkpt>
      <trkpt lat="43.96257" lon="2.21355">
        <ele>274</ele>
        <time>2020-08-25T11:36:39.155Z</time>
      </trkpt>
      <trkpt lat="43.96256" lon="2.21355">
        <ele>274</ele>
        <time>2020-08-25T11:36:40.155Z</time>
      </trkpt>
      <trkpt lat="43.96255" lon="2.21354">
        <ele>274</ele>
        <time>2020-08-25T11:36:41.155Z</time>
      </trkpt>
      <trkpt lat="43.96254" lon="2.21353">
        <ele>273</ele>
        <time>2020-08-25T11:36:42.155Z</time>
      </trkpt>
      <trkpt lat="43.96253" lon="2.21352">
        <ele>273</ele>
        <time>2020-08-25T11:36:43.155Z</time>
      </trkpt>
      <trkpt lat="43.96251" lon="2.21351">
        <ele>273</ele>
        <time>2020-08-25T11:36:44.155Z</time>
      </trkpt>
      <trkpt lat="43.9625" lon="2.2135">
        <ele>273</ele>
        <time>2020-08-25T11:36:45.155Z</time>
      </trkpt>
      <trkpt lat="43.96249" lon="2.21349">
        <ele>272</ele>
        <time>2020-08-25T11:36:46.155Z</time>
      </trkpt>
      <trkpt lat="43.96248" lon="2.21348">
        <ele>272</ele>
        <time>2020-08-25T11:36:47.155Z</time>
      </trkpt>
      <trkpt lat="43.96246" lon="2.21347">
        <ele>272</ele>
        <time>2020-08-25T11:36:48.155Z</time>
      </trkpt>
      <trkpt lat="43.96245" lon="2.21347">
        <ele>272</ele>
        <time>2020-08-25T11:36:49.155Z</time>
      </trkpt>
      <trkpt lat="43.96244" lon="2.21346">
        <ele>272</ele>
        <time>2020-08-25T11:36:50.155Z</time>
      </trkpt>
      <trkpt lat="43.96243" lon="2.21345">
        <ele>272</ele>
        <time>2020-08-25T11:36:51.155Z</time>
      </trkpt>
      <trkpt lat="43.96242" lon="2.21345">
        <ele>271</ele>
        <time>2020-08-25T11:36:52.155Z</time>
      </trkpt>
      <trkpt lat="43.96241" lon="2.21344">
        <ele>271</ele>
        <time>2020-08-25T11:36:53.155Z</time>
      </trkpt>
      <trkpt lat="43.9624" lon="2.21343">
        <ele>271</ele>
        <time>2020-08-25T11:36:54.155Z</time>
      </trkpt>
      <trkpt lat="43.96239" lon="2.21342">
        <ele>271</ele>
        <time>2020-08-25T11:36:55.155Z</time>
      </trkpt>
      <trkpt lat="43.96237" lon="2.21342">
        <ele>271</ele>
        <time>2020-08-25T11:36:56.155Z</time>
      </trkpt>
      <trkpt lat="43.96236" lon="2.21341">
        <ele>271</ele>
        <time>2020-08-25T11:36:57.155Z</time>
      </trkpt>
      <trkpt lat="43.96235" lon="2.2134">
        <ele>271</ele>
        <time>2020-08-25T11:36:58.155Z</time>
      </trkpt>
      <trkpt lat="43.96233" lon="2.2134">
        <ele>270</ele>
        <time>2020-08-25T11:36:59.155Z</time>
      </trkpt>
      <trkpt lat="43.96232" lon="2.21339">
        <ele>270</ele>
        <time>2020-08-25T11:37:00.155Z</time>
      </trkpt>
      <trkpt lat="43.96231" lon="2.21338">
        <ele>270</ele>
        <time>2020-08-25T11:37:01.155Z</time>
      </trkpt>
      <trkpt lat="43.9623" lon="2.21337">
        <ele>270</ele>
        <time>2020-08-25T11:37:02.155Z</time>
      </trkpt>
      <trkpt lat="43.96229" lon="2.21337">
        <ele>270</ele>
        <time>2020-08-25T11:37:03.155Z</time>
      </trkpt>
      <trkpt lat="43.96227" lon="2.21336">
        <ele>270</ele>
        <time>2020-08-25T11:37:04.155Z</time>
      </trkpt>
      <trkpt lat="43.96226" lon="2.21335">
        <ele>270</ele>
        <time>2020-08-25T11:37:05.155Z</time>
      </trkpt>
      <trkpt lat="43.96225" lon="2.21335">
        <ele>270</ele>
        <time>2020-08-25T11:37:06.155Z</time>
      </trkpt>
      <trkpt lat="43.96224" lon="2.21334">
        <ele>270</ele>
        <time>2020-08-25T11:37:07.155Z</time>
      </trkpt>
      <trkpt lat="43.96223" lon="2.21333">
        <ele>269</ele>
        <time>2020-08-25T11:37:08.155Z</time>
      </trkpt>
      <trkpt lat="43.96222" lon="2.21333">
        <ele>269</ele>
        <time>2020-08-25T11:37:09.155Z</time>
      </trkpt>
      <trkpt lat="43.96221" lon="2.21332">
        <ele>269</ele>
        <time>2020-08-25T11:37:10.155Z</time>
      </trkpt>
      <trkpt lat="43.96219" lon="2.21331">
        <ele>269</ele>
        <time>2020-08-25T11:37:11.155Z</time>
      </trkpt>
      <trkpt lat="43.96218" lon="2.21331">
        <ele>269</ele>
        <time>2020-08-25T11:37:12.155Z</time>
      </trkpt>
      <trkpt lat="43.96217" lon="2.2133">
        <ele>268</ele>
        <time>2020-08-25T11:37:13.155Z</time>
      </trkpt>
      <trkpt lat="43.96216" lon="2.2133">
        <ele>268</ele>
        <time>2020-08-25T11:37:14.155Z</time>
      </trkpt>
      <trkpt lat="43.96214" lon="2.21329">
        <ele>268</ele>
        <time>2020-08-25T11:37:15.155Z</time>
      </trkpt>
      <trkpt lat="43.96213" lon="2.21328">
        <ele>268</ele>
        <time>2020-08-25T11:37:16.155Z</time>
      </trkpt>
      <trkpt lat="43.96212" lon="2.21328">
        <ele>268</ele>
        <time>2020-08-25T11:37:17.155Z</time>
      </trkpt>
      <trkpt lat="43.96211" lon="2.21327">
        <ele>268</ele>
        <time>2020-08-25T11:37:18.155Z</time>
      </trkpt>
      <trkpt lat="43.96209" lon="2.21327">
        <ele>267</ele>
        <time>2020-08-25T11:37:19.155Z</time>
      </trkpt>
      <trkpt lat="43.96208" lon="2.21326">
        <ele>267</ele>
        <time>2020-08-25T11:37:20.155Z</time>
      </trkpt>
      <trkpt lat="43.96207" lon="2.21326">
        <ele>267</ele>
        <time>2020-08-25T11:37:21.155Z</time>
      </trkpt>
      <trkpt lat="43.96206" lon="2.21325">
        <ele>267</ele>
        <time>2020-08-25T11:37:22.155Z</time>
      </trkpt>
      <trkpt lat="43.96204" lon="2.21324">
        <ele>267</ele>
        <time>2020-08-25T11:37:23.155Z</time>
      </trkpt>
      <trkpt lat="43.96203" lon="2.21323">
        <ele>266</ele>
        <time>2020-08-25T11:37:24.155Z</time>
      </trkpt>
      <trkpt lat="43.96203" lon="2.21323">
        <ele>266</ele>
        <time>2020-08-25T11:37:25.155Z</time>
      </trkpt>
      <trkpt lat="43.96203" lon="2.21323">
        <ele>266</ele>
        <time>2020-08-25T11:37:26.155Z</time>
      </trkpt>
      <trkpt lat="43.96202" lon="2.21323">
        <ele>266</ele>
        <time>2020-08-25T11:37:27.155Z</time>
      </trkpt>
      <trkpt lat="43.96201" lon="2.21322">
        <ele>266</ele>
        <time>2020-08-25T11:37:28.155Z</time>
      </trkpt>
      <trkpt lat="43.962" lon="2.21322">
        <ele>266</ele>
        <time>2020-08-25T11:37:29.155Z</time>
      </trkpt>
      <trkpt lat="43.96199" lon="2.21321">
        <ele>266</ele>
        <time>2020-08-25T11:37:30.155Z</time>
      </trkpt>
      <trkpt lat="43.96198" lon="2.21321">
        <ele>265</ele>
        <time>2020-08-25T11:37:31.155Z</time>
      </trkpt>
      <trkpt lat="43.96197" lon="2.2132">
        <ele>265</ele>
        <time>2020-08-25T11:37:32.155Z</time>
      </trkpt>
      <trkpt lat="43.96196" lon="2.21319">
        <ele>265</ele>
        <time>2020-08-25T11:37:33.155Z</time>
      </trkpt>
      <trkpt lat="43.96195" lon="2.21318">
        <ele>265</ele>
        <time>2020-08-25T11:37:34.155Z</time>
      </trkpt>
      <trkpt lat="43.96194" lon="2.21317">
        <ele>265</ele>
        <time>2020-08-25T11:37:35.155Z</time>
      </trkpt>
      <trkpt lat="43.96194" lon="2.21317">
        <ele>265</ele>
        <time>2020-08-25T11:37:36.155Z</time>
      </trkpt>
      <trkpt lat="43.96193" lon="2.21316">
        <ele>265</ele>
        <time>2020-08-25T11:37:37.155Z</time>
      </trkpt>
      <trkpt lat="43.96192" lon="2.21316">
        <ele>265</ele>
        <time>2020-08-25T11:37:38.155Z</time>
      </trkpt>
      <trkpt lat="43.96191" lon="2.21315">
        <ele>264</ele>
        <time>2020-08-25T11:37:39.155Z</time>
      </trkpt>
      <trkpt lat="43.9619" lon="2.21315">
        <ele>264</ele>
        <time>2020-08-25T11:37:40.155Z</time>
      </trkpt>
      <trkpt lat="43.96189" lon="2.21314">
        <ele>264</ele>
        <time>2020-08-25T11:37:41.155Z</time>
      </trkpt>
      <trkpt lat="43.96188" lon="2.21315">
        <ele>264</ele>
        <time>2020-08-25T11:37:42.155Z</time>
      </trkpt>
      <trkpt lat="43.96187" lon="2.21315">
        <ele>264</ele>
        <time>2020-08-25T11:37:43.155Z</time>
      </trkpt>
      <trkpt lat="43.96187" lon="2.21315">
        <ele>264</ele>
        <time>2020-08-25T11:37:44.155Z</time>
      </trkpt>
      <trkpt lat="43.96186" lon="2.21314">
        <ele>264</ele>
        <time>2020-08-25T11:37:45.155Z</time>
      </trkpt>
      <trkpt lat="43.96186" lon="2.21314">
        <ele>264</ele>
        <time>2020-08-25T11:37:46.155Z</time>
      </trkpt>
      <trkpt lat="43.96186" lon="2.21314">
        <ele>264</ele>
        <time>2020-08-25T11:37:47.155Z</time>
      </trkpt>
      <trkpt lat="43.96186" lon="2.21315">
        <ele>264</ele>
        <time>2020-08-25T11:37:48.155Z</time>
      </trkpt>
      <trkpt lat="43.96186" lon="2.21315">
        <ele>264</ele>
        <time>2020-08-25T11:37:49.155Z</time>
      </trkpt>
      <trkpt lat="43.96185" lon="2.21313">
        <ele>263</ele>
        <time>2020-08-25T11:38:03.155Z</time>
      </trkpt>
      <trkpt lat="43.96185" lon="2.21313">
        <ele>263</ele>
        <time>2020-08-25T11:38:04.155Z</time>
      </trkpt>
      <trkpt lat="43.96184" lon="2.21313">
        <ele>263</ele>
        <time>2020-08-25T11:38:05.155Z</time>
      </trkpt>
      <trkpt lat="43.96184" lon="2.21313">
        <ele>263</ele>
        <time>2020-08-25T11:38:06.155Z</time>
      </trkpt>
      <trkpt lat="43.96184" lon="2.21313">
        <ele>263</ele>
        <time>2020-08-25T11:38:07.155Z</time>
      </trkpt>
      <trkpt lat="43.96183" lon="2.21312">
        <ele>263</ele>
        <time>2020-08-25T11:38:10.381Z</time>
      </trkpt>
      <trkpt lat="43.96183" lon="2.21311">
        <ele>263</ele>
        <time>2020-08-25T11:38:11.381Z</time>
      </trkpt>
      <trkpt lat="43.96183" lon="2.21311">
        <ele>263</ele>
        <time>2020-08-25T11:38:12.381Z</time>
      </trkpt>
      <trkpt lat="43.96183" lon="2.21311">
        <ele>263</ele>
        <time>2020-08-25T11:38:13.381Z</time>
      </trkpt>
      <trkpt lat="43.96181" lon="2.21311">
        <ele>263</ele>
        <time>2020-08-25T11:38:16.607Z</time>
      </trkpt>
      <trkpt lat="43.9618" lon="2.21311">
        <ele>263</ele>
        <time>2020-08-25T11:38:17.607Z</time>
      </trkpt>
      <trkpt lat="43.96179" lon="2.21311">
        <ele>263</ele>
        <time>2020-08-25T11:38:18.607Z</time>
      </trkpt>
      <trkpt lat="43.96178" lon="2.2131">
        <ele>263</ele>
        <time>2020-08-25T11:38:19.607Z</time>
      </trkpt>
      <trkpt lat="43.96176" lon="2.2131">
        <ele>263</ele>
        <time>2020-08-25T11:38:20.607Z</time>
      </trkpt>
      <trkpt lat="43.96175" lon="2.21309">
        <ele>263</ele>
        <time>2020-08-25T11:38:21.607Z</time>
      </trkpt>
      <trkpt lat="43.96174" lon="2.21309">
        <ele>263</ele>
        <time>2020-08-25T11:38:22.607Z</time>
      </trkpt>
      <trkpt lat="43.96172" lon="2.21308">
        <ele>263</ele>
        <time>2020-08-25T11:38:23.607Z</time>
      </trkpt>
      <trkpt lat="43.96171" lon="2.21308">
        <ele>262</ele>
        <time>2020-08-25T11:38:24.607Z</time>
      </trkpt>
      <trkpt lat="43.96169" lon="2.21307">
        <ele>262</ele>
        <time>2020-08-25T11:38:25.607Z</time>
      </trkpt>
      <trkpt lat="43.96168" lon="2.21307">
        <ele>262</ele>
        <time>2020-08-25T11:38:26.607Z</time>
      </trkpt>
      <trkpt lat="43.96167" lon="2.21306">
        <ele>262</ele>
        <time>2020-08-25T11:38:27.607Z</time>
      </trkpt>
      <trkpt lat="43.96166" lon="2.21306">
        <ele>262</ele>
        <time>2020-08-25T11:38:28.607Z</time>
      </trkpt>
      <trkpt lat="43.96164" lon="2.21306">
        <ele>262</ele>
        <time>2020-08-25T11:38:29.607Z</time>
      </trkpt>
      <trkpt lat="43.96163" lon="2.21305">
        <ele>262</ele>
        <time>2020-08-25T11:38:30.607Z</time>
      </trkpt>
      <trkpt lat="43.96162" lon="2.21304">
        <ele>262</ele>
        <time>2020-08-25T11:38:31.607Z</time>
      </trkpt>
      <trkpt lat="43.96161" lon="2.21304">
        <ele>261</ele>
        <time>2020-08-25T11:38:32.607Z</time>
      </trkpt>
      <trkpt lat="43.9616" lon="2.21303">
        <ele>261</ele>
        <time>2020-08-25T11:38:33.607Z</time>
      </trkpt>
      <trkpt lat="43.96159" lon="2.21302">
        <ele>261</ele>
        <time>2020-08-25T11:38:34.607Z</time>
      </trkpt>
      <trkpt lat="43.96158" lon="2.21302">
        <ele>261</ele>
        <time>2020-08-25T11:38:35.607Z</time>
      </trkpt>
      <trkpt lat="43.96156" lon="2.21301">
        <ele>261</ele>
        <time>2020-08-25T11:38:36.607Z</time>
      </trkpt>
      <trkpt lat="43.96155" lon="2.21301">
        <ele>261</ele>
        <time>2020-08-25T11:38:37.607Z</time>
      </trkpt>
      <trkpt lat="43.96154" lon="2.213">
        <ele>261</ele>
        <time>2020-08-25T11:38:38.607Z</time>
      </trkpt>
      <trkpt lat="43.96152" lon="2.213">
        <ele>260</ele>
        <time>2020-08-25T11:38:39.607Z</time>
      </trkpt>
      <trkpt lat="43.96151" lon="2.213">
        <ele>260</ele>
        <time>2020-08-25T11:38:40.607Z</time>
      </trkpt>
      <trkpt lat="43.9615" lon="2.21299">
        <ele>260</ele>
        <time>2020-08-25T11:38:41.607Z</time>
      </trkpt>
      <trkpt lat="43.96148" lon="2.21299">
        <ele>260</ele>
        <time>2020-08-25T11:38:42.607Z</time>
      </trkpt>
      <trkpt lat="43.96147" lon="2.21298">
        <ele>260</ele>
        <time>2020-08-25T11:38:43.607Z</time>
      </trkpt>
      <trkpt lat="43.96146" lon="2.21297">
        <ele>260</ele>
        <time>2020-08-25T11:38:44.607Z</time>
      </trkpt>
      <trkpt lat="43.96145" lon="2.21296">
        <ele>259</ele>
        <time>2020-08-25T11:38:45.607Z</time>
      </trkpt>
      <trkpt lat="43.96143" lon="2.21296">
        <ele>259</ele>
        <time>2020-08-25T11:38:46.607Z</time>
      </trkpt>
      <trkpt lat="43.96142" lon="2.21295">
        <ele>259</ele>
        <time>2020-08-25T11:38:47.607Z</time>
      </trkpt>
      <trkpt lat="43.96141" lon="2.21294">
        <ele>259</ele>
        <time>2020-08-25T11:38:48.607Z</time>
      </trkpt>
      <trkpt lat="43.96139" lon="2.21293">
        <ele>259</ele>
        <time>2020-08-25T11:38:49.607Z</time>
      </trkpt>
      <trkpt lat="43.96138" lon="2.21293">
        <ele>259</ele>
        <time>2020-08-25T11:38:50.607Z</time>
      </trkpt>
      <trkpt lat="43.96137" lon="2.21292">
        <ele>258</ele>
        <time>2020-08-25T11:38:51.607Z</time>
      </trkpt>
      <trkpt lat="43.96135" lon="2.21291">
        <ele>258</ele>
        <time>2020-08-25T11:38:52.607Z</time>
      </trkpt>
      <trkpt lat="43.96134" lon="2.2129">
        <ele>258</ele>
        <time>2020-08-25T11:38:53.607Z</time>
      </trkpt>
      <trkpt lat="43.96132" lon="2.2129">
        <ele>258</ele>
        <time>2020-08-25T11:38:54.607Z</time>
      </trkpt>
      <trkpt lat="43.96131" lon="2.21289">
        <ele>257</ele>
        <time>2020-08-25T11:38:55.607Z</time>
      </trkpt>
      <trkpt lat="43.9613" lon="2.21288">
        <ele>257</ele>
        <time>2020-08-25T11:38:56.607Z</time>
      </trkpt>
      <trkpt lat="43.96128" lon="2.21288">
        <ele>257</ele>
        <time>2020-08-25T11:38:57.607Z</time>
      </trkpt>
      <trkpt lat="43.96127" lon="2.21287">
        <ele>256</ele>
        <time>2020-08-25T11:38:58.607Z</time>
      </trkpt>
      <trkpt lat="43.96126" lon="2.21286">
        <ele>256</ele>
        <time>2020-08-25T11:38:59.607Z</time>
      </trkpt>
      <trkpt lat="43.96124" lon="2.21286">
        <ele>256</ele>
        <time>2020-08-25T11:39:00.607Z</time>
      </trkpt>
      <trkpt lat="43.96123" lon="2.21285">
        <ele>256</ele>
        <time>2020-08-25T11:39:01.607Z</time>
      </trkpt>
      <trkpt lat="43.96122" lon="2.21284">
        <ele>255</ele>
        <time>2020-08-25T11:39:02.607Z</time>
      </trkpt>
      <trkpt lat="43.9612" lon="2.21283">
        <ele>255</ele>
        <time>2020-08-25T11:39:03.607Z</time>
      </trkpt>
      <trkpt lat="43.96119" lon="2.21283">
        <ele>255</ele>
        <time>2020-08-25T11:39:04.607Z</time>
      </trkpt>
      <trkpt lat="43.96117" lon="2.21282">
        <ele>254</ele>
        <time>2020-08-25T11:39:05.607Z</time>
      </trkpt>
      <trkpt lat="43.96116" lon="2.21281">
        <ele>254</ele>
        <time>2020-08-25T11:39:06.607Z</time>
      </trkpt>
      <trkpt lat="43.96115" lon="2.21281">
        <ele>254</ele>
        <time>2020-08-25T11:39:07.607Z</time>
      </trkpt>
      <trkpt lat="43.96114" lon="2.2128">
        <ele>254</ele>
        <time>2020-08-25T11:39:08.607Z</time>
      </trkpt>
      <trkpt lat="43.96112" lon="2.21279">
        <ele>254</ele>
        <time>2020-08-25T11:39:09.607Z</time>
      </trkpt>
      <trkpt lat="43.96111" lon="2.21278">
        <ele>254</ele>
        <time>2020-08-25T11:39:10.607Z</time>
      </trkpt>
      <trkpt lat="43.9611" lon="2.21278">
        <ele>253</ele>
        <time>2020-08-25T11:39:11.607Z</time>
      </trkpt>
      <trkpt lat="43.96108" lon="2.21277">
        <ele>253</ele>
        <time>2020-08-25T11:39:12.607Z</time>
      </trkpt>
      <trkpt lat="43.96107" lon="2.21276">
        <ele>253</ele>
        <time>2020-08-25T11:39:13.607Z</time>
      </trkpt>
      <trkpt lat="43.96106" lon="2.21275">
        <ele>253</ele>
        <time>2020-08-25T11:39:14.607Z</time>
      </trkpt>
      <trkpt lat="43.96105" lon="2.21274">
        <ele>253</ele>
        <time>2020-08-25T11:39:15.607Z</time>
      </trkpt>
      <trkpt lat="43.96103" lon="2.21274">
        <ele>252</ele>
        <time>2020-08-25T11:39:16.607Z</time>
      </trkpt>
      <trkpt lat="43.96102" lon="2.21273">
        <ele>252</ele>
        <time>2020-08-25T11:39:17.607Z</time>
      </trkpt>
      <trkpt lat="43.96101" lon="2.21272">
        <ele>252</ele>
        <time>2020-08-25T11:39:18.607Z</time>
      </trkpt>
      <trkpt lat="43.96099" lon="2.21272">
        <ele>251</ele>
        <time>2020-08-25T11:39:19.607Z</time>
      </trkpt>
      <trkpt lat="43.96098" lon="2.21271">
        <ele>251</ele>
        <time>2020-08-25T11:39:20.607Z</time>
      </trkpt>
      <trkpt lat="43.96097" lon="2.2127">
        <ele>251</ele>
        <time>2020-08-25T11:39:21.607Z</time>
      </trkpt>
      <trkpt lat="43.96096" lon="2.2127">
        <ele>251</ele>
        <time>2020-08-25T11:39:22.607Z</time>
      </trkpt>
      <trkpt lat="43.96094" lon="2.21269">
        <ele>250</ele>
        <time>2020-08-25T11:39:23.607Z</time>
      </trkpt>
      <trkpt lat="43.96093" lon="2.21269">
        <ele>250</ele>
        <time>2020-08-25T11:39:24.607Z</time>
      </trkpt>
      <trkpt lat="43.96092" lon="2.21268">
        <ele>250</ele>
        <time>2020-08-25T11:39:25.607Z</time>
      </trkpt>
      <trkpt lat="43.96091" lon="2.21267">
        <ele>249</ele>
        <time>2020-08-25T11:39:26.607Z</time>
      </trkpt>
      <trkpt lat="43.9609" lon="2.21266">
        <ele>249</ele>
        <time>2020-08-25T11:39:27.607Z</time>
      </trkpt>
      <trkpt lat="43.96088" lon="2.21266">
        <ele>249</ele>
        <time>2020-08-25T11:39:28.607Z</time>
      </trkpt>
      <trkpt lat="43.96087" lon="2.21265">
        <ele>249</ele>
        <time>2020-08-25T11:39:29.607Z</time>
      </trkpt>
      <trkpt lat="43.96085" lon="2.21265">
        <ele>248</ele>
        <time>2020-08-25T11:39:30.607Z</time>
      </trkpt>
      <trkpt lat="43.96084" lon="2.21264">
        <ele>248</ele>
        <time>2020-08-25T11:39:31.607Z</time>
      </trkpt>
      <trkpt lat="43.96083" lon="2.21264">
        <ele>248</ele>
        <time>2020-08-25T11:39:32.607Z</time>
      </trkpt>
      <trkpt lat="43.96082" lon="2.21263">
        <ele>248</ele>
        <time>2020-08-25T11:39:33.607Z</time>
      </trkpt>
      <trkpt lat="43.9608" lon="2.21262">
        <ele>247</ele>
        <time>2020-08-25T11:39:34.607Z</time>
      </trkpt>
      <trkpt lat="43.96079" lon="2.21262">
        <ele>247</ele>
        <time>2020-08-25T11:39:35.607Z</time>
      </trkpt>
      <trkpt lat="43.96077" lon="2.21261">
        <ele>247</ele>
        <time>2020-08-25T11:39:36.607Z</time>
      </trkpt>
      <trkpt lat="43.96076" lon="2.2126">
        <ele>247</ele>
        <time>2020-08-25T11:39:37.607Z</time>
      </trkpt>
      <trkpt lat="43.96075" lon="2.2126">
        <ele>246</ele>
        <time>2020-08-25T11:39:38.607Z</time>
      </trkpt>
      <trkpt lat="43.96074" lon="2.2126">
        <ele>246</ele>
        <time>2020-08-25T11:39:39.607Z</time>
      </trkpt>
      <trkpt lat="43.96073" lon="2.21259">
        <ele>246</ele>
        <time>2020-08-25T11:39:40.607Z</time>
      </trkpt>
      <trkpt lat="43.96071" lon="2.21258">
        <ele>246</ele>
        <time>2020-08-25T11:39:41.607Z</time>
      </trkpt>
      <trkpt lat="43.9607" lon="2.21258">
        <ele>246</ele>
        <time>2020-08-25T11:39:42.607Z</time>
      </trkpt>
      <trkpt lat="43.96068" lon="2.21257">
        <ele>245</ele>
        <time>2020-08-25T11:39:43.607Z</time>
      </trkpt>
      <trkpt lat="43.96066" lon="2.21256">
        <ele>245</ele>
        <time>2020-08-25T11:39:44.607Z</time>
      </trkpt>
      <trkpt lat="43.96064" lon="2.21255">
        <ele>245</ele>
        <time>2020-08-25T11:39:45.607Z</time>
      </trkpt>
      <trkpt lat="43.96062" lon="2.21255">
        <ele>245</ele>
        <time>2020-08-25T11:39:46.607Z</time>
      </trkpt>
      <trkpt lat="43.96061" lon="2.21254">
        <ele>245</ele>
        <time>2020-08-25T11:39:47.607Z</time>
      </trkpt>
      <trkpt lat="43.9606" lon="2.21254">
        <ele>245</ele>
        <time>2020-08-25T11:39:48.607Z</time>
      </trkpt>
      <trkpt lat="43.96058" lon="2.21253">
        <ele>245</ele>
        <time>2020-08-25T11:39:49.607Z</time>
      </trkpt>
      <trkpt lat="43.96057" lon="2.21253">
        <ele>244</ele>
        <time>2020-08-25T11:39:50.607Z</time>
      </trkpt>
      <trkpt lat="43.96056" lon="2.21252">
        <ele>244</ele>
        <time>2020-08-25T11:39:51.607Z</time>
      </trkpt>
      <trkpt lat="43.96054" lon="2.21251">
        <ele>244</ele>
        <time>2020-08-25T11:39:52.607Z</time>
      </trkpt>
      <trkpt lat="43.96053" lon="2.2125">
        <ele>244</ele>
        <time>2020-08-25T11:39:53.607Z</time>
      </trkpt>
      <trkpt lat="43.96052" lon="2.2125">
        <ele>244</ele>
        <time>2020-08-25T11:39:54.607Z</time>
      </trkpt>
      <trkpt lat="43.96051" lon="2.21249">
        <ele>244</ele>
        <time>2020-08-25T11:39:55.607Z</time>
      </trkpt>
      <trkpt lat="43.96049" lon="2.21248">
        <ele>244</ele>
        <time>2020-08-25T11:39:56.607Z</time>
      </trkpt>
      <trkpt lat="43.96048" lon="2.21247">
        <ele>243</ele>
        <time>2020-08-25T11:39:57.607Z</time>
      </trkpt>
      <trkpt lat="43.96047" lon="2.21247">
        <ele>243</ele>
        <time>2020-08-25T11:39:58.607Z</time>
      </trkpt>
      <trkpt lat="43.96046" lon="2.21247">
        <ele>243</ele>
        <time>2020-08-25T11:39:59.607Z</time>
      </trkpt>
      <trkpt lat="43.96044" lon="2.21247">
        <ele>243</ele>
        <time>2020-08-25T11:40:00.607Z</time>
      </trkpt>
      <trkpt lat="43.96043" lon="2.21247">
        <ele>243</ele>
        <time>2020-08-25T11:40:01.607Z</time>
      </trkpt>
      <trkpt lat="43.96042" lon="2.21247">
        <ele>243</ele>
        <time>2020-08-25T11:40:02.607Z</time>
      </trkpt>
      <trkpt lat="43.96041" lon="2.21247">
        <ele>242</ele>
        <time>2020-08-25T11:40:03.607Z</time>
      </trkpt>
      <trkpt lat="43.96039" lon="2.21246">
        <ele>242</ele>
        <time>2020-08-25T11:40:04.607Z</time>
      </trkpt>
      <trkpt lat="43.96038" lon="2.21246">
        <ele>242</ele>
        <time>2020-08-25T11:40:05.607Z</time>
      </trkpt>
      <trkpt lat="43.96037" lon="2.21245">
        <ele>242</ele>
        <time>2020-08-25T11:40:06.607Z</time>
      </trkpt>
      <trkpt lat="43.96035" lon="2.21245">
        <ele>242</ele>
        <time>2020-08-25T11:40:07.607Z</time>
      </trkpt>
      <trkpt lat="43.96034" lon="2.21244">
        <ele>241</ele>
        <time>2020-08-25T11:40:08.607Z</time>
      </trkpt>
      <trkpt lat="43.96033" lon="2.21243">
        <ele>241</ele>
        <time>2020-08-25T11:40:09.607Z</time>
      </trkpt>
      <trkpt lat="43.96031" lon="2.21243">
        <ele>241</ele>
        <time>2020-08-25T11:40:10.607Z</time>
      </trkpt>
      <trkpt lat="43.9603" lon="2.21242">
        <ele>241</ele>
        <time>2020-08-25T11:40:11.607Z</time>
      </trkpt>
      <trkpt lat="43.96029" lon="2.21242">
        <ele>241</ele>
        <time>2020-08-25T11:40:12.607Z</time>
      </trkpt>
      <trkpt lat="43.96027" lon="2.21241">
        <ele>241</ele>
        <time>2020-08-25T11:40:13.607Z</time>
      </trkpt>
      <trkpt lat="43.96026" lon="2.21241">
        <ele>240</ele>
        <time>2020-08-25T11:40:14.607Z</time>
      </trkpt>
      <trkpt lat="43.96025" lon="2.21241">
        <ele>240</ele>
        <time>2020-08-25T11:40:15.607Z</time>
      </trkpt>
      <trkpt lat="43.96024" lon="2.21241">
        <ele>240</ele>
        <time>2020-08-25T11:40:16.607Z</time>
      </trkpt>
      <trkpt lat="43.96023" lon="2.21241">
        <ele>240</ele>
        <time>2020-08-25T11:40:17.607Z</time>
      </trkpt>
      <trkpt lat="43.96022" lon="2.21241">
        <ele>240</ele>
        <time>2020-08-25T11:40:18.607Z</time>
      </trkpt>
      <trkpt lat="43.9602" lon="2.2124">
        <ele>240</ele>
        <time>2020-08-25T11:40:19.607Z</time>
      </trkpt>
      <trkpt lat="43.96019" lon="2.21239">
        <ele>240</ele>
        <time>2020-08-25T11:40:20.607Z</time>
      </trkpt>
      <trkpt lat="43.96018" lon="2.21238">
        <ele>240</ele>
        <time>2020-08-25T11:40:21.607Z</time>
      </trkpt>
      <trkpt lat="43.96016" lon="2.21237">
        <ele>240</ele>
        <time>2020-08-25T11:40:22.607Z</time>
      </trkpt>
      <trkpt lat="43.96015" lon="2.21236">
        <ele>239</ele>
        <time>2020-08-25T11:40:23.607Z</time>
      </trkpt>
      <trkpt lat="43.96013" lon="2.21235">
        <ele>239</ele>
        <time>2020-08-25T11:40:24.607Z</time>
      </trkpt>
      <trkpt lat="43.96012" lon="2.21235">
        <ele>239</ele>
        <time>2020-08-25T11:40:25.607Z</time>
      </trkpt>
      <trkpt lat="43.9601" lon="2.21234">
        <ele>239</ele>
        <time>2020-08-25T11:40:26.607Z</time>
      </trkpt>
      <trkpt lat="43.96009" lon="2.21234">
        <ele>239</ele>
        <time>2020-08-25T11:40:27.607Z</time>
      </trkpt>
      <trkpt lat="43.96006" lon="2.21233">
        <ele>239</ele>
        <time>2020-08-25T11:40:28.607Z</time>
      </trkpt>
      <trkpt lat="43.96004" lon="2.21233">
        <ele>239</ele>
        <time>2020-08-25T11:40:29.607Z</time>
      </trkpt>
      <trkpt lat="43.96003" lon="2.21232">
        <ele>239</ele>
        <time>2020-08-25T11:40:30.607Z</time>
      </trkpt>
      <trkpt lat="43.96001" lon="2.21232">
        <ele>239</ele>
        <time>2020-08-25T11:40:31.607Z</time>
      </trkpt>
      <trkpt lat="43.96" lon="2.21231">
        <ele>239</ele>
        <time>2020-08-25T11:40:32.607Z</time>
      </trkpt>
      <trkpt lat="43.95998" lon="2.2123">
        <ele>239</ele>
        <time>2020-08-25T11:40:33.607Z</time>
      </trkpt>
      <trkpt lat="43.95997" lon="2.2123">
        <ele>239</ele>
        <time>2020-08-25T11:40:34.607Z</time>
      </trkpt>
      <trkpt lat="43.95996" lon="2.21229">
        <ele>239</ele>
        <time>2020-08-25T11:40:35.607Z</time>
      </trkpt>
      <trkpt lat="43.95994" lon="2.21229">
        <ele>238</ele>
        <time>2020-08-25T11:40:36.607Z</time>
      </trkpt>
      <trkpt lat="43.95993" lon="2.21228">
        <ele>238</ele>
        <time>2020-08-25T11:40:37.607Z</time>
      </trkpt>
      <trkpt lat="43.95991" lon="2.21228">
        <ele>238</ele>
        <time>2020-08-25T11:40:38.607Z</time>
      </trkpt>
      <trkpt lat="43.9599" lon="2.21227">
        <ele>238</ele>
        <time>2020-08-25T11:40:39.607Z</time>
      </trkpt>
      <trkpt lat="43.95989" lon="2.21226">
        <ele>238</ele>
        <time>2020-08-25T11:40:40.607Z</time>
      </trkpt>
      <trkpt lat="43.95987" lon="2.21226">
        <ele>238</ele>
        <time>2020-08-25T11:40:41.607Z</time>
      </trkpt>
      <trkpt lat="43.95986" lon="2.21225">
        <ele>238</ele>
        <time>2020-08-25T11:40:42.607Z</time>
      </trkpt>
      <trkpt lat="43.95984" lon="2.21224">
        <ele>238</ele>
        <time>2020-08-25T11:40:43.607Z</time>
      </trkpt>
      <trkpt lat="43.95983" lon="2.21224">
        <ele>238</ele>
        <time>2020-08-25T11:40:44.607Z</time>
      </trkpt>
      <trkpt lat="43.95982" lon="2.21223">
        <ele>237</ele>
        <time>2020-08-25T11:40:45.607Z</time>
      </trkpt>
      <trkpt lat="43.9598" lon="2.21222">
        <ele>237</ele>
        <time>2020-08-25T11:40:46.607Z</time>
      </trkpt>
      <trkpt lat="43.95979" lon="2.21222">
        <ele>237</ele>
        <time>2020-08-25T11:40:47.607Z</time>
      </trkpt>
      <trkpt lat="43.95977" lon="2.21221">
        <ele>237</ele>
        <time>2020-08-25T11:40:48.607Z</time>
      </trkpt>
      <trkpt lat="43.95976" lon="2.2122">
        <ele>237</ele>
        <time>2020-08-25T11:40:49.607Z</time>
      </trkpt>
      <trkpt lat="43.95975" lon="2.2122">
        <ele>236</ele>
        <time>2020-08-25T11:40:50.607Z</time>
      </trkpt>
      <trkpt lat="43.95973" lon="2.21219">
        <ele>236</ele>
        <time>2020-08-25T11:40:51.607Z</time>
      </trkpt>
      <trkpt lat="43.95972" lon="2.21218">
        <ele>236</ele>
        <time>2020-08-25T11:40:52.607Z</time>
      </trkpt>
      <trkpt lat="43.95971" lon="2.21217">
        <ele>236</ele>
        <time>2020-08-25T11:40:53.607Z</time>
      </trkpt>
      <trkpt lat="43.95969" lon="2.21217">
        <ele>236</ele>
        <time>2020-08-25T11:40:54.607Z</time>
      </trkpt>
      <trkpt lat="43.95968" lon="2.21216">
        <ele>236</ele>
        <time>2020-08-25T11:40:55.607Z</time>
      </trkpt>
      <trkpt lat="43.95967" lon="2.21215">
        <ele>236</ele>
        <time>2020-08-25T11:40:56.607Z</time>
      </trkpt>
      <trkpt lat="43.95965" lon="2.21215">
        <ele>236</ele>
        <time>2020-08-25T11:40:57.607Z</time>
      </trkpt>
      <trkpt lat="43.95964" lon="2.21214">
        <ele>236</ele>
        <time>2020-08-25T11:40:58.607Z</time>
      </trkpt>
      <trkpt lat="43.95963" lon="2.21214">
        <ele>236</ele>
        <time>2020-08-25T11:40:59.607Z</time>
      </trkpt>
      <trkpt lat="43.95961" lon="2.21214">
        <ele>236</ele>
        <time>2020-08-25T11:41:00.607Z</time>
      </trkpt>
      <trkpt lat="43.9596" lon="2.21213">
        <ele>236</ele>
        <time>2020-08-25T11:41:01.607Z</time>
      </trkpt>
      <trkpt lat="43.95958" lon="2.21213">
        <ele>236</ele>
        <time>2020-08-25T11:41:02.607Z</time>
      </trkpt>
      <trkpt lat="43.95957" lon="2.21212">
        <ele>236</ele>
        <time>2020-08-25T11:41:03.607Z</time>
      </trkpt>
      <trkpt lat="43.95956" lon="2.21211">
        <ele>236</ele>
        <time>2020-08-25T11:41:04.607Z</time>
      </trkpt>
      <trkpt lat="43.95954" lon="2.21211">
        <ele>236</ele>
        <time>2020-08-25T11:41:05.607Z</time>
      </trkpt>
      <trkpt lat="43.95953" lon="2.21211">
        <ele>236</ele>
        <time>2020-08-25T11:41:06.607Z</time>
      </trkpt>
      <trkpt lat="43.95952" lon="2.2121">
        <ele>236</ele>
        <time>2020-08-25T11:41:07.607Z</time>
      </trkpt>
      <trkpt lat="43.9595" lon="2.21209">
        <ele>236</ele>
        <time>2020-08-25T11:41:08.607Z</time>
      </trkpt>
      <trkpt lat="43.95949" lon="2.21209">
        <ele>235</ele>
        <time>2020-08-25T11:41:09.607Z</time>
      </trkpt>
      <trkpt lat="43.95948" lon="2.21208">
        <ele>235</ele>
        <time>2020-08-25T11:41:10.607Z</time>
      </trkpt>
      <trkpt lat="43.95946" lon="2.21208">
        <ele>235</ele>
        <time>2020-08-25T11:41:11.607Z</time>
      </trkpt>
      <trkpt lat="43.95945" lon="2.21207">
        <ele>235</ele>
        <time>2020-08-25T11:41:12.607Z</time>
      </trkpt>
      <trkpt lat="43.95944" lon="2.21207">
        <ele>235</ele>
        <time>2020-08-25T11:41:13.607Z</time>
      </trkpt>
      <trkpt lat="43.95942" lon="2.21206">
        <ele>235</ele>
        <time>2020-08-25T11:41:14.607Z</time>
      </trkpt>
      <trkpt lat="43.95941" lon="2.21206">
        <ele>235</ele>
        <time>2020-08-25T11:41:15.607Z</time>
      </trkpt>
      <trkpt lat="43.95939" lon="2.21205">
        <ele>235</ele>
        <time>2020-08-25T11:41:16.607Z</time>
      </trkpt>
      <trkpt lat="43.95938" lon="2.21204">
        <ele>235</ele>
        <time>2020-08-25T11:41:17.607Z</time>
      </trkpt>
      <trkpt lat="43.95936" lon="2.21204">
        <ele>234</ele>
        <time>2020-08-25T11:41:18.607Z</time>
      </trkpt>
      <trkpt lat="43.95935" lon="2.21203">
        <ele>234</ele>
        <time>2020-08-25T11:41:19.607Z</time>
      </trkpt>
      <trkpt lat="43.95933" lon="2.21202">
        <ele>234</ele>
        <time>2020-08-25T11:41:20.607Z</time>
      </trkpt>
      <trkpt lat="43.95932" lon="2.21202">
        <ele>234</ele>
        <time>2020-08-25T11:41:21.607Z</time>
      </trkpt>
      <trkpt lat="43.95931" lon="2.21201">
        <ele>234</ele>
        <time>2020-08-25T11:41:22.607Z</time>
      </trkpt>
      <trkpt lat="43.95929" lon="2.212">
        <ele>234</ele>
        <time>2020-08-25T11:41:23.607Z</time>
      </trkpt>
      <trkpt lat="43.95928" lon="2.212">
        <ele>234</ele>
        <time>2020-08-25T11:41:24.607Z</time>
      </trkpt>
      <trkpt lat="43.95926" lon="2.212">
        <ele>234</ele>
        <time>2020-08-25T11:41:25.607Z</time>
      </trkpt>
      <trkpt lat="43.95925" lon="2.21199">
        <ele>234</ele>
        <time>2020-08-25T11:41:26.607Z</time>
      </trkpt>
      <trkpt lat="43.95923" lon="2.21199">
        <ele>234</ele>
        <time>2020-08-25T11:41:27.607Z</time>
      </trkpt>
      <trkpt lat="43.95922" lon="2.21198">
        <ele>234</ele>
        <time>2020-08-25T11:41:28.607Z</time>
      </trkpt>
      <trkpt lat="43.95921" lon="2.21198">
        <ele>234</ele>
        <time>2020-08-25T11:41:29.607Z</time>
      </trkpt>
      <trkpt lat="43.95919" lon="2.21197">
        <ele>234</ele>
        <time>2020-08-25T11:41:30.607Z</time>
      </trkpt>
      <trkpt lat="43.95918" lon="2.21196">
        <ele>234</ele>
        <time>2020-08-25T11:41:31.607Z</time>
      </trkpt>
      <trkpt lat="43.95917" lon="2.21196">
        <ele>234</ele>
        <time>2020-08-25T11:41:32.607Z</time>
      </trkpt>
      <trkpt lat="43.95915" lon="2.21195">
        <ele>234</ele>
        <time>2020-08-25T11:41:33.607Z</time>
      </trkpt>
      <trkpt lat="43.95914" lon="2.21195">
        <ele>234</ele>
        <time>2020-08-25T11:41:34.607Z</time>
      </trkpt>
      <trkpt lat="43.95912" lon="2.21194">
        <ele>233</ele>
        <time>2020-08-25T11:41:35.607Z</time>
      </trkpt>
      <trkpt lat="43.95911" lon="2.21194">
        <ele>233</ele>
        <time>2020-08-25T11:41:36.607Z</time>
      </trkpt>
      <trkpt lat="43.9591" lon="2.21193">
        <ele>233</ele>
        <time>2020-08-25T11:41:37.607Z</time>
      </trkpt>
      <trkpt lat="43.95908" lon="2.21193">
        <ele>233</ele>
        <time>2020-08-25T11:41:38.607Z</time>
      </trkpt>
      <trkpt lat="43.95907" lon="2.21192">
        <ele>233</ele>
        <time>2020-08-25T11:41:39.607Z</time>
      </trkpt>
      <trkpt lat="43.95905" lon="2.21191">
        <ele>233</ele>
        <time>2020-08-25T11:41:40.607Z</time>
      </trkpt>
      <trkpt lat="43.95904" lon="2.2119">
        <ele>233</ele>
        <time>2020-08-25T11:41:41.607Z</time>
      </trkpt>
      <trkpt lat="43.95903" lon="2.2119">
        <ele>233</ele>
        <time>2020-08-25T11:41:42.607Z</time>
      </trkpt>
      <trkpt lat="43.95902" lon="2.21189">
        <ele>232</ele>
        <time>2020-08-25T11:41:43.607Z</time>
      </trkpt>
      <trkpt lat="43.959" lon="2.21189">
        <ele>232</ele>
        <time>2020-08-25T11:41:44.607Z</time>
      </trkpt>
      <trkpt lat="43.95899" lon="2.21188">
        <ele>232</ele>
        <time>2020-08-25T11:41:45.607Z</time>
      </trkpt>
      <trkpt lat="43.95897" lon="2.21187">
        <ele>232</ele>
        <time>2020-08-25T11:41:46.607Z</time>
      </trkpt>
      <trkpt lat="43.95896" lon="2.21187">
        <ele>232</ele>
        <time>2020-08-25T11:41:47.607Z</time>
      </trkpt>
      <trkpt lat="43.95895" lon="2.21186">
        <ele>231</ele>
        <time>2020-08-25T11:41:48.607Z</time>
      </trkpt>
      <trkpt lat="43.95893" lon="2.21186">
        <ele>231</ele>
        <time>2020-08-25T11:41:49.607Z</time>
      </trkpt>
      <trkpt lat="43.95892" lon="2.21186">
        <ele>231</ele>
        <time>2020-08-25T11:41:50.607Z</time>
      </trkpt>
      <trkpt lat="43.95891" lon="2.21185">
        <ele>231</ele>
        <time>2020-08-25T11:41:51.607Z</time>
      </trkpt>
      <trkpt lat="43.9589" lon="2.21184">
        <ele>230</ele>
        <time>2020-08-25T11:41:52.607Z</time>
      </trkpt>
      <trkpt lat="43.95889" lon="2.21184">
        <ele>230</ele>
        <time>2020-08-25T11:41:53.607Z</time>
      </trkpt>
      <trkpt lat="43.95887" lon="2.21183">
        <ele>230</ele>
        <time>2020-08-25T11:41:54.607Z</time>
      </trkpt>
      <trkpt lat="43.95886" lon="2.21182">
        <ele>230</ele>
        <time>2020-08-25T11:41:55.607Z</time>
      </trkpt>
      <trkpt lat="43.95885" lon="2.21182">
        <ele>229</ele>
        <time>2020-08-25T11:41:56.607Z</time>
      </trkpt>
      <trkpt lat="43.95883" lon="2.21181">
        <ele>229</ele>
        <time>2020-08-25T11:41:57.607Z</time>
      </trkpt>
      <trkpt lat="43.95882" lon="2.21181">
        <ele>229</ele>
        <time>2020-08-25T11:41:58.607Z</time>
      </trkpt>
      <trkpt lat="43.95881" lon="2.2118">
        <ele>229</ele>
        <time>2020-08-25T11:41:59.607Z</time>
      </trkpt>
      <trkpt lat="43.95879" lon="2.2118">
        <ele>228</ele>
        <time>2020-08-25T11:42:00.607Z</time>
      </trkpt>
      <trkpt lat="43.95878" lon="2.21179">
        <ele>228</ele>
        <time>2020-08-25T11:42:01.607Z</time>
      </trkpt>
      <trkpt lat="43.95877" lon="2.21179">
        <ele>228</ele>
        <time>2020-08-25T11:42:02.607Z</time>
      </trkpt>
      <trkpt lat="43.95875" lon="2.21179">
        <ele>228</ele>
        <time>2020-08-25T11:42:03.607Z</time>
      </trkpt>
      <trkpt lat="43.95874" lon="2.21178">
        <ele>227</ele>
        <time>2020-08-25T11:42:04.607Z</time>
      </trkpt>
      <trkpt lat="43.95873" lon="2.21178">
        <ele>227</ele>
        <time>2020-08-25T11:42:05.607Z</time>
      </trkpt>
      <trkpt lat="43.95872" lon="2.21178">
        <ele>227</ele>
        <time>2020-08-25T11:42:06.607Z</time>
      </trkpt>
      <trkpt lat="43.95871" lon="2.21177">
        <ele>226</ele>
        <time>2020-08-25T11:42:07.607Z</time>
      </trkpt>
      <trkpt lat="43.95869" lon="2.21177">
        <ele>226</ele>
        <time>2020-08-25T11:42:08.607Z</time>
      </trkpt>
      <trkpt lat="43.95868" lon="2.21176">
        <ele>226</ele>
        <time>2020-08-25T11:42:09.607Z</time>
      </trkpt>
      <trkpt lat="43.95867" lon="2.21176">
        <ele>225</ele>
        <time>2020-08-25T11:42:10.607Z</time>
      </trkpt>
      <trkpt lat="43.95866" lon="2.21175">
        <ele>225</ele>
        <time>2020-08-25T11:42:11.607Z</time>
      </trkpt>
      <trkpt lat="43.95865" lon="2.21175">
        <ele>225</ele>
        <time>2020-08-25T11:42:12.607Z</time>
      </trkpt>
      <trkpt lat="43.95863" lon="2.21174">
        <ele>224</ele>
        <time>2020-08-25T11:42:13.607Z</time>
      </trkpt>
      <trkpt lat="43.95862" lon="2.21173">
        <ele>224</ele>
        <time>2020-08-25T11:42:14.607Z</time>
      </trkpt>
      <trkpt lat="43.95861" lon="2.21173">
        <ele>224</ele>
        <time>2020-08-25T11:42:15.607Z</time>
      </trkpt>
      <trkpt lat="43.9586" lon="2.21172">
        <ele>223</ele>
        <time>2020-08-25T11:42:16.607Z</time>
      </trkpt>
      <trkpt lat="43.95858" lon="2.21172">
        <ele>223</ele>
        <time>2020-08-25T11:42:17.607Z</time>
      </trkpt>
      <trkpt lat="43.95857" lon="2.21171">
        <ele>223</ele>
        <time>2020-08-25T11:42:18.607Z</time>
      </trkpt>
      <trkpt lat="43.95856" lon="2.21171">
        <ele>223</ele>
        <time>2020-08-25T11:42:19.607Z</time>
      </trkpt>
      <trkpt lat="43.95854" lon="2.21171">
        <ele>222</ele>
        <time>2020-08-25T11:42:20.607Z</time>
      </trkpt>
      <trkpt lat="43.95853" lon="2.2117">
        <ele>222</ele>
        <time>2020-08-25T11:42:21.607Z</time>
      </trkpt>
      <trkpt lat="43.95852" lon="2.2117">
        <ele>222</ele>
        <time>2020-08-25T11:42:22.607Z</time>
      </trkpt>
      <trkpt lat="43.95851" lon="2.21169">
        <ele>221</ele>
        <time>2020-08-25T11:42:23.607Z</time>
      </trkpt>
      <trkpt lat="43.9585" lon="2.21169">
        <ele>221</ele>
        <time>2020-08-25T11:42:24.607Z</time>
      </trkpt>
      <trkpt lat="43.95848" lon="2.21168">
        <ele>220</ele>
        <time>2020-08-25T11:42:25.607Z</time>
      </trkpt>
      <trkpt lat="43.95847" lon="2.21167">
        <ele>220</ele>
        <time>2020-08-25T11:42:26.607Z</time>
      </trkpt>
      <trkpt lat="43.95846" lon="2.21166">
        <ele>219</ele>
        <time>2020-08-25T11:42:27.607Z</time>
      </trkpt>
      <trkpt lat="43.95844" lon="2.21166">
        <ele>219</ele>
        <time>2020-08-25T11:42:28.607Z</time>
      </trkpt>
      <trkpt lat="43.95843" lon="2.21165">
        <ele>219</ele>
        <time>2020-08-25T11:42:29.607Z</time>
      </trkpt>
      <trkpt lat="43.95842" lon="2.21165">
        <ele>218</ele>
        <time>2020-08-25T11:42:30.607Z</time>
      </trkpt>
      <trkpt lat="43.95841" lon="2.21164">
        <ele>218</ele>
        <time>2020-08-25T11:42:31.607Z</time>
      </trkpt>
      <trkpt lat="43.95839" lon="2.21163">
        <ele>218</ele>
        <time>2020-08-25T11:42:32.607Z</time>
      </trkpt>
      <trkpt lat="43.95838" lon="2.21162">
        <ele>217</ele>
        <time>2020-08-25T11:42:33.607Z</time>
      </trkpt>
      <trkpt lat="43.95837" lon="2.21162">
        <ele>217</ele>
        <time>2020-08-25T11:42:34.607Z</time>
      </trkpt>
      <trkpt lat="43.95835" lon="2.21162">
        <ele>217</ele>
        <time>2020-08-25T11:42:35.607Z</time>
      </trkpt>
      <trkpt lat="43.95834" lon="2.21161">
        <ele>216</ele>
        <time>2020-08-25T11:42:36.607Z</time>
      </trkpt>
      <trkpt lat="43.95833" lon="2.2116">
        <ele>216</ele>
        <time>2020-08-25T11:42:37.607Z</time>
      </trkpt>
      <trkpt lat="43.95831" lon="2.2116">
        <ele>216</ele>
        <time>2020-08-25T11:42:38.607Z</time>
      </trkpt>
      <trkpt lat="43.9583" lon="2.21159">
        <ele>216</ele>
        <time>2020-08-25T11:42:39.607Z</time>
      </trkpt>
      <trkpt lat="43.95829" lon="2.21159">
        <ele>215</ele>
        <time>2020-08-25T11:42:40.607Z</time>
      </trkpt>
      <trkpt lat="43.95827" lon="2.21159">
        <ele>215</ele>
        <time>2020-08-25T11:42:41.607Z</time>
      </trkpt>
      <trkpt lat="43.95826" lon="2.21158">
        <ele>215</ele>
        <time>2020-08-25T11:42:42.607Z</time>
      </trkpt>
      <trkpt lat="43.95824" lon="2.21158">
        <ele>215</ele>
        <time>2020-08-25T11:42:43.607Z</time>
      </trkpt>
      <trkpt lat="43.95823" lon="2.21157">
        <ele>215</ele>
        <time>2020-08-25T11:42:44.607Z</time>
      </trkpt>
      <trkpt lat="43.95822" lon="2.21157">
        <ele>214</ele>
        <time>2020-08-25T11:42:45.607Z</time>
      </trkpt>
      <trkpt lat="43.9582" lon="2.21156">
        <ele>214</ele>
        <time>2020-08-25T11:42:46.607Z</time>
      </trkpt>
      <trkpt lat="43.95819" lon="2.21156">
        <ele>214</ele>
        <time>2020-08-25T11:42:47.607Z</time>
      </trkpt>
      <trkpt lat="43.95818" lon="2.21155">
        <ele>214</ele>
        <time>2020-08-25T11:42:48.607Z</time>
      </trkpt>
      <trkpt lat="43.95816" lon="2.21155">
        <ele>214</ele>
        <time>2020-08-25T11:42:49.607Z</time>
      </trkpt>
      <trkpt lat="43.95815" lon="2.21154">
        <ele>214</ele>
        <time>2020-08-25T11:42:50.607Z</time>
      </trkpt>
      <trkpt lat="43.95814" lon="2.21153">
        <ele>213</ele>
        <time>2020-08-25T11:42:51.607Z</time>
      </trkpt>
      <trkpt lat="43.95812" lon="2.21152">
        <ele>213</ele>
        <time>2020-08-25T11:42:52.607Z</time>
      </trkpt>
      <trkpt lat="43.95811" lon="2.21152">
        <ele>213</ele>
        <time>2020-08-25T11:42:53.607Z</time>
      </trkpt>
      <trkpt lat="43.95809" lon="2.21151">
        <ele>213</ele>
        <time>2020-08-25T11:42:54.607Z</time>
      </trkpt>
      <trkpt lat="43.95808" lon="2.2115">
        <ele>213</ele>
        <time>2020-08-25T11:42:55.607Z</time>
      </trkpt>
      <trkpt lat="43.95807" lon="2.21149">
        <ele>212</ele>
        <time>2020-08-25T11:42:56.607Z</time>
      </trkpt>
      <trkpt lat="43.95806" lon="2.21148">
        <ele>212</ele>
        <time>2020-08-25T11:42:57.607Z</time>
      </trkpt>
      <trkpt lat="43.95804" lon="2.21148">
        <ele>212</ele>
        <time>2020-08-25T11:42:58.607Z</time>
      </trkpt>
      <trkpt lat="43.95803" lon="2.21147">
        <ele>212</ele>
        <time>2020-08-25T11:42:59.607Z</time>
      </trkpt>
      <trkpt lat="43.95802" lon="2.21146">
        <ele>212</ele>
        <time>2020-08-25T11:43:00.607Z</time>
      </trkpt>
      <trkpt lat="43.958" lon="2.21146">
        <ele>212</ele>
        <time>2020-08-25T11:43:01.607Z</time>
      </trkpt>
      <trkpt lat="43.95799" lon="2.21145">
        <ele>212</ele>
        <time>2020-08-25T11:43:02.607Z</time>
      </trkpt>
      <trkpt lat="43.95797" lon="2.21145">
        <ele>212</ele>
        <time>2020-08-25T11:43:03.607Z</time>
      </trkpt>
      <trkpt lat="43.95796" lon="2.21144">
        <ele>212</ele>
        <time>2020-08-25T11:43:04.607Z</time>
      </trkpt>
      <trkpt lat="43.95794" lon="2.21143">
        <ele>212</ele>
        <time>2020-08-25T11:43:05.607Z</time>
      </trkpt>
      <trkpt lat="43.95793" lon="2.21142">
        <ele>211</ele>
        <time>2020-08-25T11:43:06.607Z</time>
      </trkpt>
      <trkpt lat="43.95792" lon="2.21142">
        <ele>211</ele>
        <time>2020-08-25T11:43:07.607Z</time>
      </trkpt>
      <trkpt lat="43.9579" lon="2.21141">
        <ele>211</ele>
        <time>2020-08-25T11:43:08.607Z</time>
      </trkpt>
      <trkpt lat="43.95789" lon="2.21141">
        <ele>211</ele>
        <time>2020-08-25T11:43:09.607Z</time>
      </trkpt>
      <trkpt lat="43.95788" lon="2.2114">
        <ele>211</ele>
        <time>2020-08-25T11:43:10.607Z</time>
      </trkpt>
      <trkpt lat="43.95786" lon="2.21139">
        <ele>211</ele>
        <time>2020-08-25T11:43:11.607Z</time>
      </trkpt>
      <trkpt lat="43.95785" lon="2.21139">
        <ele>211</ele>
        <time>2020-08-25T11:43:12.607Z</time>
      </trkpt>
      <trkpt lat="43.95784" lon="2.21138">
        <ele>211</ele>
        <time>2020-08-25T11:43:13.607Z</time>
      </trkpt>
      <trkpt lat="43.95783" lon="2.21136">
        <ele>210</ele>
        <time>2020-08-25T11:43:14.607Z</time>
      </trkpt>
      <trkpt lat="43.95782" lon="2.21134">
        <ele>210</ele>
        <time>2020-08-25T11:43:15.607Z</time>
      </trkpt>
      <trkpt lat="43.95781" lon="2.21133">
        <ele>210</ele>
        <time>2020-08-25T11:43:16.607Z</time>
      </trkpt>
      <trkpt lat="43.9578" lon="2.21131">
        <ele>210</ele>
        <time>2020-08-25T11:43:17.607Z</time>
      </trkpt>
      <trkpt lat="43.9578" lon="2.21128">
        <ele>209</ele>
        <time>2020-08-25T11:43:18.607Z</time>
      </trkpt>
      <trkpt lat="43.95779" lon="2.21126">
        <ele>209</ele>
        <time>2020-08-25T11:43:19.607Z</time>
      </trkpt>
      <trkpt lat="43.95779" lon="2.21124">
        <ele>209</ele>
        <time>2020-08-25T11:43:20.607Z</time>
      </trkpt>
      <trkpt lat="43.95778" lon="2.21122">
        <ele>208</ele>
        <time>2020-08-25T11:43:21.607Z</time>
      </trkpt>
      <trkpt lat="43.95777" lon="2.2112">
        <ele>208</ele>
        <time>2020-08-25T11:43:22.607Z</time>
      </trkpt>
      <trkpt lat="43.95777" lon="2.21118">
        <ele>208</ele>
        <time>2020-08-25T11:43:23.607Z</time>
      </trkpt>
      <trkpt lat="43.95776" lon="2.21116">
        <ele>208</ele>
        <time>2020-08-25T11:43:24.607Z</time>
      </trkpt>
      <trkpt lat="43.95776" lon="2.21114">
        <ele>207</ele>
        <time>2020-08-25T11:43:25.607Z</time>
      </trkpt>
      <trkpt lat="43.95775" lon="2.21112">
        <ele>207</ele>
        <time>2020-08-25T11:43:26.607Z</time>
      </trkpt>
      <trkpt lat="43.95774" lon="2.2111">
        <ele>207</ele>
        <time>2020-08-25T11:43:27.607Z</time>
      </trkpt>
      <trkpt lat="43.95774" lon="2.21108">
        <ele>207</ele>
        <time>2020-08-25T11:43:28.607Z</time>
      </trkpt>
      <trkpt lat="43.95773" lon="2.21106">
        <ele>207</ele>
        <time>2020-08-25T11:43:29.607Z</time>
      </trkpt>
      <trkpt lat="43.95773" lon="2.21104">
        <ele>207</ele>
        <time>2020-08-25T11:43:30.607Z</time>
      </trkpt>
      <trkpt lat="43.95772" lon="2.21102">
        <ele>206</ele>
        <time>2020-08-25T11:43:31.607Z</time>
      </trkpt>
      <trkpt lat="43.95771" lon="2.211">
        <ele>206</ele>
        <time>2020-08-25T11:43:32.607Z</time>
      </trkpt>
      <trkpt lat="43.95771" lon="2.21098">
        <ele>206</ele>
        <time>2020-08-25T11:43:33.607Z</time>
      </trkpt>
      <trkpt lat="43.9577" lon="2.21096">
        <ele>206</ele>
        <time>2020-08-25T11:43:34.607Z</time>
      </trkpt>
      <trkpt lat="43.95769" lon="2.21094">
        <ele>206</ele>
        <time>2020-08-25T11:43:35.607Z</time>
      </trkpt>
      <trkpt lat="43.95768" lon="2.21092">
        <ele>206</ele>
        <time>2020-08-25T11:43:36.607Z</time>
      </trkpt>
      <trkpt lat="43.95767" lon="2.2109">
        <ele>205</ele>
        <time>2020-08-25T11:43:37.607Z</time>
      </trkpt>
      <trkpt lat="43.95766" lon="2.21089">
        <ele>205</ele>
        <time>2020-08-25T11:43:38.607Z</time>
      </trkpt>
      <trkpt lat="43.95765" lon="2.21088">
        <ele>205</ele>
        <time>2020-08-25T11:43:39.607Z</time>
      </trkpt>
      <trkpt lat="43.95764" lon="2.21086">
        <ele>205</ele>
        <time>2020-08-25T11:43:40.607Z</time>
      </trkpt>
      <trkpt lat="43.95763" lon="2.21085">
        <ele>205</ele>
        <time>2020-08-25T11:43:41.607Z</time>
      </trkpt>
      <trkpt lat="43.95762" lon="2.21083">
        <ele>205</ele>
        <time>2020-08-25T11:43:42.607Z</time>
      </trkpt>
      <trkpt lat="43.95761" lon="2.21082">
        <ele>205</ele>
        <time>2020-08-25T11:43:43.607Z</time>
      </trkpt>
      <trkpt lat="43.9576" lon="2.2108">
        <ele>204</ele>
        <time>2020-08-25T11:43:44.607Z</time>
      </trkpt>
      <trkpt lat="43.95759" lon="2.21078">
        <ele>204</ele>
        <time>2020-08-25T11:43:45.607Z</time>
      </trkpt>
      <trkpt lat="43.95758" lon="2.21077">
        <ele>204</ele>
        <time>2020-08-25T11:43:46.607Z</time>
      </trkpt>
      <trkpt lat="43.95757" lon="2.21075">
        <ele>204</ele>
        <time>2020-08-25T11:43:47.607Z</time>
      </trkpt>
      <trkpt lat="43.95757" lon="2.21074">
        <ele>204</ele>
        <time>2020-08-25T11:43:48.607Z</time>
      </trkpt>
      <trkpt lat="43.95756" lon="2.21072">
        <ele>204</ele>
        <time>2020-08-25T11:43:49.607Z</time>
      </trkpt>
      <trkpt lat="43.95755" lon="2.21071">
        <ele>204</ele>
        <time>2020-08-25T11:43:50.607Z</time>
      </trkpt>
      <trkpt lat="43.95754" lon="2.2107">
        <ele>204</ele>
        <time>2020-08-25T11:43:51.607Z</time>
      </trkpt>
      <trkpt lat="43.95753" lon="2.21068">
        <ele>203</ele>
        <time>2020-08-25T11:43:52.607Z</time>
      </trkpt>
      <trkpt lat="43.95752" lon="2.21067">
        <ele>203</ele>
        <time>2020-08-25T11:43:53.607Z</time>
      </trkpt>
      <trkpt lat="43.95751" lon="2.21065">
        <ele>203</ele>
        <time>2020-08-25T11:43:54.607Z</time>
      </trkpt>
      <trkpt lat="43.9575" lon="2.21063">
        <ele>203</ele>
        <time>2020-08-25T11:43:55.607Z</time>
      </trkpt>
      <trkpt lat="43.95749" lon="2.21062">
        <ele>203</ele>
        <time>2020-08-25T11:43:56.607Z</time>
      </trkpt>
      <trkpt lat="43.95748" lon="2.21061">
        <ele>203</ele>
        <time>2020-08-25T11:43:57.607Z</time>
      </trkpt>
      <trkpt lat="43.95747" lon="2.21059">
        <ele>203</ele>
        <time>2020-08-25T11:43:58.607Z</time>
      </trkpt>
      <trkpt lat="43.95746" lon="2.21058">
        <ele>203</ele>
        <time>2020-08-25T11:43:59.607Z</time>
      </trkpt>
      <trkpt lat="43.95745" lon="2.21056">
        <ele>203</ele>
        <time>2020-08-25T11:44:00.607Z</time>
      </trkpt>
      <trkpt lat="43.95744" lon="2.21055">
        <ele>203</ele>
        <time>2020-08-25T11:44:01.607Z</time>
      </trkpt>
      <trkpt lat="43.95743" lon="2.21053">
        <ele>202</ele>
        <time>2020-08-25T11:44:02.607Z</time>
      </trkpt>
      <trkpt lat="43.95742" lon="2.21051">
        <ele>202</ele>
        <time>2020-08-25T11:44:03.607Z</time>
      </trkpt>
      <trkpt lat="43.95741" lon="2.2105">
        <ele>202</ele>
        <time>2020-08-25T11:44:04.607Z</time>
      </trkpt>
      <trkpt lat="43.9574" lon="2.21048">
        <ele>202</ele>
        <time>2020-08-25T11:44:05.607Z</time>
      </trkpt>
      <trkpt lat="43.95739" lon="2.21047">
        <ele>202</ele>
        <time>2020-08-25T11:44:06.607Z</time>
      </trkpt>
      <trkpt lat="43.95738" lon="2.21045">
        <ele>202</ele>
        <time>2020-08-25T11:44:07.607Z</time>
      </trkpt>
      <trkpt lat="43.95738" lon="2.21043">
        <ele>202</ele>
        <time>2020-08-25T11:44:08.607Z</time>
      </trkpt>
      <trkpt lat="43.95737" lon="2.21042">
        <ele>202</ele>
        <time>2020-08-25T11:44:09.607Z</time>
      </trkpt>
      <trkpt lat="43.95736" lon="2.2104">
        <ele>202</ele>
        <time>2020-08-25T11:44:10.607Z</time>
      </trkpt>
      <trkpt lat="43.95735" lon="2.21038">
        <ele>202</ele>
        <time>2020-08-25T11:44:11.607Z</time>
      </trkpt>
      <trkpt lat="43.95734" lon="2.21036">
        <ele>202</ele>
        <time>2020-08-25T11:44:12.607Z</time>
      </trkpt>
      <trkpt lat="43.95733" lon="2.21034">
        <ele>201</ele>
        <time>2020-08-25T11:44:13.607Z</time>
      </trkpt>
      <trkpt lat="43.95732" lon="2.21033">
        <ele>201</ele>
        <time>2020-08-25T11:44:14.607Z</time>
      </trkpt>
      <trkpt lat="43.95732" lon="2.21032">
        <ele>201</ele>
        <time>2020-08-25T11:44:15.607Z</time>
      </trkpt>
      <trkpt lat="43.95731" lon="2.21031">
        <ele>201</ele>
        <time>2020-08-25T11:44:16.607Z</time>
      </trkpt>
      <trkpt lat="43.9573" lon="2.2103">
        <ele>201</ele>
        <time>2020-08-25T11:44:17.607Z</time>
      </trkpt>
      <trkpt lat="43.9573" lon="2.21029">
        <ele>201</ele>
        <time>2020-08-25T11:44:18.607Z</time>
      </trkpt>
      <trkpt lat="43.95729" lon="2.21027">
        <ele>201</ele>
        <time>2020-08-25T11:44:19.607Z</time>
      </trkpt>
      <trkpt lat="43.95728" lon="2.21025">
        <ele>201</ele>
        <time>2020-08-25T11:44:20.607Z</time>
      </trkpt>
      <trkpt lat="43.95727" lon="2.21023">
        <ele>201</ele>
        <time>2020-08-25T11:44:21.607Z</time>
      </trkpt>
      <trkpt lat="43.95726" lon="2.21022">
        <ele>201</ele>
        <time>2020-08-25T11:44:22.607Z</time>
      </trkpt>
      <trkpt lat="43.95725" lon="2.2102">
        <ele>200</ele>
        <time>2020-08-25T11:44:23.607Z</time>
      </trkpt>
      <trkpt lat="43.95723" lon="2.21019">
        <ele>200</ele>
        <time>2020-08-25T11:44:24.607Z</time>
      </trkpt>
      <trkpt lat="43.95722" lon="2.21017">
        <ele>200</ele>
        <time>2020-08-25T11:44:25.607Z</time>
      </trkpt>
      <trkpt lat="43.95721" lon="2.21016">
        <ele>200</ele>
        <time>2020-08-25T11:44:26.607Z</time>
      </trkpt>
      <trkpt lat="43.95719" lon="2.21015">
        <ele>200</ele>
        <time>2020-08-25T11:44:27.607Z</time>
      </trkpt>
      <trkpt lat="43.95718" lon="2.21014">
        <ele>199</ele>
        <time>2020-08-25T11:44:28.607Z</time>
      </trkpt>
      <trkpt lat="43.95716" lon="2.21013">
        <ele>199</ele>
        <time>2020-08-25T11:44:29.607Z</time>
      </trkpt>
      <trkpt lat="43.95715" lon="2.21012">
        <ele>199</ele>
        <time>2020-08-25T11:44:30.607Z</time>
      </trkpt>
      <trkpt lat="43.95714" lon="2.21011">
        <ele>199</ele>
        <time>2020-08-25T11:44:31.607Z</time>
      </trkpt>
      <trkpt lat="43.95712" lon="2.2101">
        <ele>198</ele>
        <time>2020-08-25T11:44:32.607Z</time>
      </trkpt>
      <trkpt lat="43.95711" lon="2.21009">
        <ele>198</ele>
        <time>2020-08-25T11:44:33.607Z</time>
      </trkpt>
      <trkpt lat="43.9571" lon="2.21009">
        <ele>198</ele>
        <time>2020-08-25T11:44:34.607Z</time>
      </trkpt>
      <trkpt lat="43.95708" lon="2.21008">
        <ele>197</ele>
        <time>2020-08-25T11:44:35.607Z</time>
      </trkpt>
      <trkpt lat="43.95707" lon="2.21007">
        <ele>197</ele>
        <time>2020-08-25T11:44:36.607Z</time>
      </trkpt>
      <trkpt lat="43.95706" lon="2.21006">
        <ele>197</ele>
        <time>2020-08-25T11:44:37.607Z</time>
      </trkpt>
      <trkpt lat="43.95705" lon="2.21005">
        <ele>197</ele>
        <time>2020-08-25T11:44:38.607Z</time>
      </trkpt>
      <trkpt lat="43.95703" lon="2.21004">
        <ele>197</ele>
        <time>2020-08-25T11:44:39.607Z</time>
      </trkpt>
      <trkpt lat="43.95702" lon="2.21003">
        <ele>196</ele>
        <time>2020-08-25T11:44:40.607Z</time>
      </trkpt>
      <trkpt lat="43.95701" lon="2.21002">
        <ele>196</ele>
        <time>2020-08-25T11:44:41.607Z</time>
      </trkpt>
      <trkpt lat="43.95699" lon="2.21002">
        <ele>196</ele>
        <time>2020-08-25T11:44:42.607Z</time>
      </trkpt>
      <trkpt lat="43.95698" lon="2.21001">
        <ele>196</ele>
        <time>2020-08-25T11:44:43.607Z</time>
      </trkpt>
      <trkpt lat="43.95697" lon="2.21">
        <ele>196</ele>
        <time>2020-08-25T11:44:44.607Z</time>
      </trkpt>
      <trkpt lat="43.95695" lon="2.20999">
        <ele>196</ele>
        <time>2020-08-25T11:44:45.607Z</time>
      </trkpt>
      <trkpt lat="43.95694" lon="2.20998">
        <ele>196</ele>
        <time>2020-08-25T11:44:46.607Z</time>
      </trkpt>
      <trkpt lat="43.95692" lon="2.20997">
        <ele>196</ele>
        <time>2020-08-25T11:44:47.607Z</time>
      </trkpt>
      <trkpt lat="43.95691" lon="2.20997">
        <ele>196</ele>
        <time>2020-08-25T11:44:48.607Z</time>
      </trkpt>
      <trkpt lat="43.95689" lon="2.20996">
        <ele>195</ele>
        <time>2020-08-25T11:44:49.607Z</time>
      </trkpt>
      <trkpt lat="43.95688" lon="2.20995">
        <ele>195</ele>
        <time>2020-08-25T11:44:50.607Z</time>
      </trkpt>
      <trkpt lat="43.95687" lon="2.20995">
        <ele>195</ele>
        <time>2020-08-25T11:44:51.607Z</time>
      </trkpt>
      <trkpt lat="43.95686" lon="2.20994">
        <ele>195</ele>
        <time>2020-08-25T11:44:52.607Z</time>
      </trkpt>
      <trkpt lat="43.95684" lon="2.20993">
        <ele>195</ele>
        <time>2020-08-25T11:44:53.607Z</time>
      </trkpt>
      <trkpt lat="43.95683" lon="2.20993">
        <ele>195</ele>
        <time>2020-08-25T11:44:54.607Z</time>
      </trkpt>
      <trkpt lat="43.95682" lon="2.20992">
        <ele>194</ele>
        <time>2020-08-25T11:44:55.607Z</time>
      </trkpt>
      <trkpt lat="43.9568" lon="2.20992">
        <ele>194</ele>
        <time>2020-08-25T11:44:56.607Z</time>
      </trkpt>
      <trkpt lat="43.95679" lon="2.20991">
        <ele>194</ele>
        <time>2020-08-25T11:44:57.607Z</time>
      </trkpt>
      <trkpt lat="43.95678" lon="2.2099">
        <ele>194</ele>
        <time>2020-08-25T11:44:58.607Z</time>
      </trkpt>
      <trkpt lat="43.95677" lon="2.20989">
        <ele>194</ele>
        <time>2020-08-25T11:44:59.607Z</time>
      </trkpt>
      <trkpt lat="43.95676" lon="2.20988">
        <ele>193</ele>
        <time>2020-08-25T11:45:00.607Z</time>
      </trkpt>
      <trkpt lat="43.95674" lon="2.20987">
        <ele>193</ele>
        <time>2020-08-25T11:45:01.607Z</time>
      </trkpt>
      <trkpt lat="43.95673" lon="2.20987">
        <ele>193</ele>
        <time>2020-08-25T11:45:02.607Z</time>
      </trkpt>
      <trkpt lat="43.95672" lon="2.20986">
        <ele>193</ele>
        <time>2020-08-25T11:45:03.607Z</time>
      </trkpt>
      <trkpt lat="43.95671" lon="2.20985">
        <ele>193</ele>
        <time>2020-08-25T11:45:04.607Z</time>
      </trkpt>
      <trkpt lat="43.95669" lon="2.20984">
        <ele>193</ele>
        <time>2020-08-25T11:45:05.607Z</time>
      </trkpt>
      <trkpt lat="43.95668" lon="2.20983">
        <ele>192</ele>
        <time>2020-08-25T11:45:06.607Z</time>
      </trkpt>
      <trkpt lat="43.95667" lon="2.20982">
        <ele>192</ele>
        <time>2020-08-25T11:45:07.607Z</time>
      </trkpt>
      <trkpt lat="43.95665" lon="2.20981">
        <ele>192</ele>
        <time>2020-08-25T11:45:08.607Z</time>
      </trkpt>
      <trkpt lat="43.95664" lon="2.2098">
        <ele>192</ele>
        <time>2020-08-25T11:45:09.607Z</time>
      </trkpt>
      <trkpt lat="43.95662" lon="2.20979">
        <ele>192</ele>
        <time>2020-08-25T11:45:10.607Z</time>
      </trkpt>
      <trkpt lat="43.95661" lon="2.20978">
        <ele>192</ele>
        <time>2020-08-25T11:45:11.607Z</time>
      </trkpt>
      <trkpt lat="43.9566" lon="2.20977">
        <ele>192</ele>
        <time>2020-08-25T11:45:12.607Z</time>
      </trkpt>
      <trkpt lat="43.95658" lon="2.20976">
        <ele>192</ele>
        <time>2020-08-25T11:45:13.607Z</time>
      </trkpt>
      <trkpt lat="43.95657" lon="2.20975">
        <ele>192</ele>
        <time>2020-08-25T11:45:14.607Z</time>
      </trkpt>
      <trkpt lat="43.95656" lon="2.20974">
        <ele>191</ele>
        <time>2020-08-25T11:45:15.607Z</time>
      </trkpt>
      <trkpt lat="43.95654" lon="2.20974">
        <ele>191</ele>
        <time>2020-08-25T11:45:16.607Z</time>
      </trkpt>
      <trkpt lat="43.95653" lon="2.20973">
        <ele>191</ele>
        <time>2020-08-25T11:45:17.607Z</time>
      </trkpt>
      <trkpt lat="43.95652" lon="2.20972">
        <ele>191</ele>
        <time>2020-08-25T11:45:18.607Z</time>
      </trkpt>
      <trkpt lat="43.9565" lon="2.20971">
        <ele>191</ele>
        <time>2020-08-25T11:45:19.607Z</time>
      </trkpt>
      <trkpt lat="43.95649" lon="2.2097">
        <ele>191</ele>
        <time>2020-08-25T11:45:20.607Z</time>
      </trkpt>
      <trkpt lat="43.95647" lon="2.20969">
        <ele>191</ele>
        <time>2020-08-25T11:45:21.607Z</time>
      </trkpt>
      <trkpt lat="43.95646" lon="2.20969">
        <ele>191</ele>
        <time>2020-08-25T11:45:22.607Z</time>
      </trkpt>
      <trkpt lat="43.95645" lon="2.20967">
        <ele>190</ele>
        <time>2020-08-25T11:45:23.607Z</time>
      </trkpt>
      <trkpt lat="43.95643" lon="2.20966">
        <ele>190</ele>
        <time>2020-08-25T11:45:24.607Z</time>
      </trkpt>
      <trkpt lat="43.95642" lon="2.20965">
        <ele>190</ele>
        <time>2020-08-25T11:45:25.607Z</time>
      </trkpt>
      <trkpt lat="43.9564" lon="2.20964">
        <ele>190</ele>
        <time>2020-08-25T11:45:26.607Z</time>
      </trkpt>
      <trkpt lat="43.95639" lon="2.20963">
        <ele>190</ele>
        <time>2020-08-25T11:45:27.607Z</time>
      </trkpt>
      <trkpt lat="43.95638" lon="2.20962">
        <ele>190</ele>
        <time>2020-08-25T11:45:28.607Z</time>
      </trkpt>
      <trkpt lat="43.95636" lon="2.20961">
        <ele>190</ele>
        <time>2020-08-25T11:45:29.607Z</time>
      </trkpt>
      <trkpt lat="43.95635" lon="2.20961">
        <ele>190</ele>
        <time>2020-08-25T11:45:30.607Z</time>
      </trkpt>
      <trkpt lat="43.95633" lon="2.20959">
        <ele>190</ele>
        <time>2020-08-25T11:45:31.607Z</time>
      </trkpt>
      <trkpt lat="43.95632" lon="2.20959">
        <ele>190</ele>
        <time>2020-08-25T11:45:32.607Z</time>
      </trkpt>
      <trkpt lat="43.95631" lon="2.20958">
        <ele>190</ele>
        <time>2020-08-25T11:45:33.607Z</time>
      </trkpt>
      <trkpt lat="43.95629" lon="2.20957">
        <ele>190</ele>
        <time>2020-08-25T11:45:34.607Z</time>
      </trkpt>
      <trkpt lat="43.95628" lon="2.20956">
        <ele>190</ele>
        <time>2020-08-25T11:45:35.607Z</time>
      </trkpt>
      <trkpt lat="43.95627" lon="2.20955">
        <ele>190</ele>
        <time>2020-08-25T11:45:36.607Z</time>
      </trkpt>
      <trkpt lat="43.95626" lon="2.20954">
        <ele>189</ele>
        <time>2020-08-25T11:45:37.607Z</time>
      </trkpt>
      <trkpt lat="43.95624" lon="2.20953">
        <ele>189</ele>
        <time>2020-08-25T11:45:38.607Z</time>
      </trkpt>
      <trkpt lat="43.95623" lon="2.20951">
        <ele>189</ele>
        <time>2020-08-25T11:45:39.607Z</time>
      </trkpt>
      <trkpt lat="43.95621" lon="2.2095">
        <ele>189</ele>
        <time>2020-08-25T11:45:40.607Z</time>
      </trkpt>
      <trkpt lat="43.9562" lon="2.20949">
        <ele>189</ele>
        <time>2020-08-25T11:45:41.607Z</time>
      </trkpt>
      <trkpt lat="43.95619" lon="2.20949">
        <ele>189</ele>
        <time>2020-08-25T11:45:42.607Z</time>
      </trkpt>
      <trkpt lat="43.95617" lon="2.20948">
        <ele>189</ele>
        <time>2020-08-25T11:45:43.607Z</time>
      </trkpt>
      <trkpt lat="43.95616" lon="2.20947">
        <ele>188</ele>
        <time>2020-08-25T11:45:44.607Z</time>
      </trkpt>
      <trkpt lat="43.95614" lon="2.20946">
        <ele>188</ele>
        <time>2020-08-25T11:45:45.607Z</time>
      </trkpt>
      <trkpt lat="43.95613" lon="2.20945">
        <ele>188</ele>
        <time>2020-08-25T11:45:46.607Z</time>
      </trkpt>
      <trkpt lat="43.95612" lon="2.20944">
        <ele>188</ele>
        <time>2020-08-25T11:45:47.607Z</time>
      </trkpt>
      <trkpt lat="43.9561" lon="2.20943">
        <ele>187</ele>
        <time>2020-08-25T11:45:48.607Z</time>
      </trkpt>
      <trkpt lat="43.95609" lon="2.20942">
        <ele>187</ele>
        <time>2020-08-25T11:45:49.607Z</time>
      </trkpt>
      <trkpt lat="43.95608" lon="2.20941">
        <ele>187</ele>
        <time>2020-08-25T11:45:50.607Z</time>
      </trkpt>
      <trkpt lat="43.95606" lon="2.20941">
        <ele>187</ele>
        <time>2020-08-25T11:45:51.607Z</time>
      </trkpt>
      <trkpt lat="43.95605" lon="2.2094">
        <ele>187</ele>
        <time>2020-08-25T11:45:52.607Z</time>
      </trkpt>
      <trkpt lat="43.95604" lon="2.20939">
        <ele>187</ele>
        <time>2020-08-25T11:45:53.607Z</time>
      </trkpt>
      <trkpt lat="43.95602" lon="2.20939">
        <ele>187</ele>
        <time>2020-08-25T11:45:54.607Z</time>
      </trkpt>
      <trkpt lat="43.95601" lon="2.20938">
        <ele>187</ele>
        <time>2020-08-25T11:45:55.607Z</time>
      </trkpt>
      <trkpt lat="43.956" lon="2.20937">
        <ele>187</ele>
        <time>2020-08-25T11:45:56.607Z</time>
      </trkpt>
      <trkpt lat="43.95599" lon="2.20936">
        <ele>187</ele>
        <time>2020-08-25T11:45:57.607Z</time>
      </trkpt>
      <trkpt lat="43.95598" lon="2.20935">
        <ele>187</ele>
        <time>2020-08-25T11:45:58.607Z</time>
      </trkpt>
      <trkpt lat="43.95596" lon="2.20934">
        <ele>187</ele>
        <time>2020-08-25T11:45:59.607Z</time>
      </trkpt>
      <trkpt lat="43.95595" lon="2.20933">
        <ele>187</ele>
        <time>2020-08-25T11:46:00.607Z</time>
      </trkpt>
      <trkpt lat="43.95594" lon="2.20932">
        <ele>187</ele>
        <time>2020-08-25T11:46:01.607Z</time>
      </trkpt>
      <trkpt lat="43.95592" lon="2.20931">
        <ele>187</ele>
        <time>2020-08-25T11:46:02.607Z</time>
      </trkpt>
      <trkpt lat="43.95591" lon="2.20931">
        <ele>187</ele>
        <time>2020-08-25T11:46:03.607Z</time>
      </trkpt>
      <trkpt lat="43.95589" lon="2.2093">
        <ele>186</ele>
        <time>2020-08-25T11:46:04.607Z</time>
      </trkpt>
      <trkpt lat="43.95588" lon="2.20929">
        <ele>186</ele>
        <time>2020-08-25T11:46:05.607Z</time>
      </trkpt>
      <trkpt lat="43.95586" lon="2.20928">
        <ele>186</ele>
        <time>2020-08-25T11:46:06.607Z</time>
      </trkpt>
      <trkpt lat="43.95585" lon="2.20927">
        <ele>186</ele>
        <time>2020-08-25T11:46:07.607Z</time>
      </trkpt>
      <trkpt lat="43.95584" lon="2.20926">
        <ele>186</ele>
        <time>2020-08-25T11:46:08.607Z</time>
      </trkpt>
      <trkpt lat="43.95582" lon="2.20926">
        <ele>186</ele>
        <time>2020-08-25T11:46:09.607Z</time>
      </trkpt>
      <trkpt lat="43.95581" lon="2.20925">
        <ele>186</ele>
        <time>2020-08-25T11:46:10.607Z</time>
      </trkpt>
      <trkpt lat="43.95579" lon="2.20924">
        <ele>186</ele>
        <time>2020-08-25T11:46:11.607Z</time>
      </trkpt>
      <trkpt lat="43.95577" lon="2.20923">
        <ele>185</ele>
        <time>2020-08-25T11:46:12.607Z</time>
      </trkpt>
      <trkpt lat="43.95576" lon="2.20923">
        <ele>185</ele>
        <time>2020-08-25T11:46:13.607Z</time>
      </trkpt>
      <trkpt lat="43.95575" lon="2.20922">
        <ele>185</ele>
        <time>2020-08-25T11:46:14.607Z</time>
      </trkpt>
      <trkpt lat="43.95573" lon="2.20921">
        <ele>185</ele>
        <time>2020-08-25T11:46:15.607Z</time>
      </trkpt>
      <trkpt lat="43.95572" lon="2.20921">
        <ele>185</ele>
        <time>2020-08-25T11:46:16.607Z</time>
      </trkpt>
      <trkpt lat="43.9557" lon="2.2092">
        <ele>185</ele>
        <time>2020-08-25T11:46:17.607Z</time>
      </trkpt>
      <trkpt lat="43.95569" lon="2.20919">
        <ele>185</ele>
        <time>2020-08-25T11:46:18.607Z</time>
      </trkpt>
      <trkpt lat="43.95567" lon="2.20919">
        <ele>185</ele>
        <time>2020-08-25T11:46:19.607Z</time>
      </trkpt>
      <trkpt lat="43.95566" lon="2.20918">
        <ele>185</ele>
        <time>2020-08-25T11:46:20.607Z</time>
      </trkpt>
      <trkpt lat="43.95564" lon="2.20917">
        <ele>184</ele>
        <time>2020-08-25T11:46:21.607Z</time>
      </trkpt>
      <trkpt lat="43.95563" lon="2.20916">
        <ele>184</ele>
        <time>2020-08-25T11:46:22.607Z</time>
      </trkpt>
      <trkpt lat="43.95561" lon="2.20916">
        <ele>184</ele>
        <time>2020-08-25T11:46:23.607Z</time>
      </trkpt>
      <trkpt lat="43.9556" lon="2.20915">
        <ele>184</ele>
        <time>2020-08-25T11:46:24.607Z</time>
      </trkpt>
      <trkpt lat="43.95558" lon="2.20914">
        <ele>184</ele>
        <time>2020-08-25T11:46:25.607Z</time>
      </trkpt>
      <trkpt lat="43.95557" lon="2.20913">
        <ele>184</ele>
        <time>2020-08-25T11:46:26.607Z</time>
      </trkpt>
      <trkpt lat="43.95556" lon="2.20913">
        <ele>184</ele>
        <time>2020-08-25T11:46:27.607Z</time>
      </trkpt>
      <trkpt lat="43.95554" lon="2.20912">
        <ele>184</ele>
        <time>2020-08-25T11:46:28.607Z</time>
      </trkpt>
      <trkpt lat="43.95553" lon="2.20911">
        <ele>184</ele>
        <time>2020-08-25T11:46:29.607Z</time>
      </trkpt>
      <trkpt lat="43.95552" lon="2.2091">
        <ele>184</ele>
        <time>2020-08-25T11:46:30.607Z</time>
      </trkpt>
      <trkpt lat="43.9555" lon="2.20909">
        <ele>184</ele>
        <time>2020-08-25T11:46:31.607Z</time>
      </trkpt>
      <trkpt lat="43.95549" lon="2.20909">
        <ele>184</ele>
        <time>2020-08-25T11:46:32.607Z</time>
      </trkpt>
      <trkpt lat="43.95547" lon="2.20908">
        <ele>183</ele>
        <time>2020-08-25T11:46:33.607Z</time>
      </trkpt>
      <trkpt lat="43.95546" lon="2.20907">
        <ele>183</ele>
        <time>2020-08-25T11:46:34.607Z</time>
      </trkpt>
      <trkpt lat="43.95544" lon="2.20907">
        <ele>183</ele>
        <time>2020-08-25T11:46:35.607Z</time>
      </trkpt>
      <trkpt lat="43.95543" lon="2.20906">
        <ele>183</ele>
        <time>2020-08-25T11:46:36.607Z</time>
      </trkpt>
      <trkpt lat="43.95542" lon="2.20906">
        <ele>183</ele>
        <time>2020-08-25T11:46:37.607Z</time>
      </trkpt>
      <trkpt lat="43.9554" lon="2.20905">
        <ele>183</ele>
        <time>2020-08-25T11:46:38.607Z</time>
      </trkpt>
      <trkpt lat="43.95539" lon="2.20904">
        <ele>183</ele>
        <time>2020-08-25T11:46:39.607Z</time>
      </trkpt>
      <trkpt lat="43.95537" lon="2.20904">
        <ele>183</ele>
        <time>2020-08-25T11:46:40.607Z</time>
      </trkpt>
      <trkpt lat="43.95536" lon="2.20903">
        <ele>183</ele>
        <time>2020-08-25T11:46:41.607Z</time>
      </trkpt>
      <trkpt lat="43.95534" lon="2.20902">
        <ele>183</ele>
        <time>2020-08-25T11:46:42.607Z</time>
      </trkpt>
      <trkpt lat="43.95533" lon="2.20902">
        <ele>183</ele>
        <time>2020-08-25T11:46:43.607Z</time>
      </trkpt>
      <trkpt lat="43.95531" lon="2.20901">
        <ele>183</ele>
        <time>2020-08-25T11:46:44.607Z</time>
      </trkpt>
      <trkpt lat="43.9553" lon="2.20901">
        <ele>183</ele>
        <time>2020-08-25T11:46:45.607Z</time>
      </trkpt>
      <trkpt lat="43.95528" lon="2.209">
        <ele>183</ele>
        <time>2020-08-25T11:46:46.607Z</time>
      </trkpt>
      <trkpt lat="43.95527" lon="2.209">
        <ele>183</ele>
        <time>2020-08-25T11:46:47.607Z</time>
      </trkpt>
      <trkpt lat="43.95525" lon="2.20899">
        <ele>184</ele>
        <time>2020-08-25T11:46:48.607Z</time>
      </trkpt>
      <trkpt lat="43.95524" lon="2.20898">
        <ele>184</ele>
        <time>2020-08-25T11:46:49.607Z</time>
      </trkpt>
      <trkpt lat="43.95523" lon="2.20897">
        <ele>184</ele>
        <time>2020-08-25T11:46:50.607Z</time>
      </trkpt>
      <trkpt lat="43.95521" lon="2.20897">
        <ele>184</ele>
        <time>2020-08-25T11:46:51.607Z</time>
      </trkpt>
      <trkpt lat="43.9552" lon="2.20896">
        <ele>184</ele>
        <time>2020-08-25T11:46:52.607Z</time>
      </trkpt>
      <trkpt lat="43.95519" lon="2.20895">
        <ele>183</ele>
        <time>2020-08-25T11:46:53.607Z</time>
      </trkpt>
      <trkpt lat="43.95517" lon="2.20894">
        <ele>183</ele>
        <time>2020-08-25T11:46:54.607Z</time>
      </trkpt>
      <trkpt lat="43.95516" lon="2.20893">
        <ele>183</ele>
        <time>2020-08-25T11:46:55.607Z</time>
      </trkpt>
      <trkpt lat="43.95514" lon="2.20893">
        <ele>183</ele>
        <time>2020-08-25T11:46:56.607Z</time>
      </trkpt>
      <trkpt lat="43.95513" lon="2.20892">
        <ele>183</ele>
        <time>2020-08-25T11:46:57.607Z</time>
      </trkpt>
      <trkpt lat="43.95512" lon="2.20892">
        <ele>183</ele>
        <time>2020-08-25T11:46:58.607Z</time>
      </trkpt>
      <trkpt lat="43.9551" lon="2.20891">
        <ele>183</ele>
        <time>2020-08-25T11:46:59.607Z</time>
      </trkpt>
      <trkpt lat="43.95509" lon="2.20891">
        <ele>182</ele>
        <time>2020-08-25T11:47:00.607Z</time>
      </trkpt>
      <trkpt lat="43.95507" lon="2.2089">
        <ele>182</ele>
        <time>2020-08-25T11:47:01.607Z</time>
      </trkpt>
      <trkpt lat="43.95506" lon="2.20889">
        <ele>182</ele>
        <time>2020-08-25T11:47:02.607Z</time>
      </trkpt>
      <trkpt lat="43.95504" lon="2.20889">
        <ele>182</ele>
        <time>2020-08-25T11:47:03.607Z</time>
      </trkpt>
      <trkpt lat="43.95503" lon="2.20888">
        <ele>182</ele>
        <time>2020-08-25T11:47:04.607Z</time>
      </trkpt>
      <trkpt lat="43.95501" lon="2.20887">
        <ele>182</ele>
        <time>2020-08-25T11:47:05.607Z</time>
      </trkpt>
      <trkpt lat="43.955" lon="2.20886">
        <ele>182</ele>
        <time>2020-08-25T11:47:06.607Z</time>
      </trkpt>
      <trkpt lat="43.95499" lon="2.20885">
        <ele>182</ele>
        <time>2020-08-25T11:47:07.607Z</time>
      </trkpt>
      <trkpt lat="43.95498" lon="2.20883">
        <ele>181</ele>
        <time>2020-08-25T11:47:08.607Z</time>
      </trkpt>
      <trkpt lat="43.95498" lon="2.20881">
        <ele>181</ele>
        <time>2020-08-25T11:47:09.607Z</time>
      </trkpt>
      <trkpt lat="43.95498" lon="2.20879">
        <ele>181</ele>
        <time>2020-08-25T11:47:10.607Z</time>
      </trkpt>
      <trkpt lat="43.95498" lon="2.20877">
        <ele>181</ele>
        <time>2020-08-25T11:47:11.607Z</time>
      </trkpt>
      <trkpt lat="43.95498" lon="2.20875">
        <ele>181</ele>
        <time>2020-08-25T11:47:12.607Z</time>
      </trkpt>
      <trkpt lat="43.95498" lon="2.20873">
        <ele>180</ele>
        <time>2020-08-25T11:47:13.607Z</time>
      </trkpt>
      <trkpt lat="43.95498" lon="2.20871">
        <ele>180</ele>
        <time>2020-08-25T11:47:14.607Z</time>
      </trkpt>
      <trkpt lat="43.95498" lon="2.20869">
        <ele>180</ele>
        <time>2020-08-25T11:47:15.607Z</time>
      </trkpt>
      <trkpt lat="43.95498" lon="2.20866">
        <ele>180</ele>
        <time>2020-08-25T11:47:16.607Z</time>
      </trkpt>
      <trkpt lat="43.95498" lon="2.20864">
        <ele>180</ele>
        <time>2020-08-25T11:47:17.607Z</time>
      </trkpt>
      <trkpt lat="43.95498" lon="2.20862">
        <ele>180</ele>
        <time>2020-08-25T11:47:18.607Z</time>
      </trkpt>
      <trkpt lat="43.95498" lon="2.20859">
        <ele>179</ele>
        <time>2020-08-25T11:47:19.607Z</time>
      </trkpt>
      <trkpt lat="43.95498" lon="2.20857">
        <ele>179</ele>
        <time>2020-08-25T11:47:20.607Z</time>
      </trkpt>
      <trkpt lat="43.95498" lon="2.20854">
        <ele>179</ele>
        <time>2020-08-25T11:47:21.607Z</time>
      </trkpt>
      <trkpt lat="43.95499" lon="2.20852">
        <ele>179</ele>
        <time>2020-08-25T11:47:22.607Z</time>
      </trkpt>
      <trkpt lat="43.95499" lon="2.20849">
        <ele>179</ele>
        <time>2020-08-25T11:47:23.607Z</time>
      </trkpt>
      <trkpt lat="43.955" lon="2.20847">
        <ele>179</ele>
        <time>2020-08-25T11:47:24.607Z</time>
      </trkpt>
      <trkpt lat="43.955" lon="2.20845">
        <ele>179</ele>
        <time>2020-08-25T11:47:25.607Z</time>
      </trkpt>
      <trkpt lat="43.95501" lon="2.20842">
        <ele>179</ele>
        <time>2020-08-25T11:47:26.607Z</time>
      </trkpt>
      <trkpt lat="43.95502" lon="2.2084">
        <ele>179</ele>
        <time>2020-08-25T11:47:27.607Z</time>
      </trkpt>
      <trkpt lat="43.95502" lon="2.20838">
        <ele>178</ele>
        <time>2020-08-25T11:47:28.607Z</time>
      </trkpt>
      <trkpt lat="43.95503" lon="2.20835">
        <ele>178</ele>
        <time>2020-08-25T11:47:29.607Z</time>
      </trkpt>
      <trkpt lat="43.95504" lon="2.20833">
        <ele>178</ele>
        <time>2020-08-25T11:47:30.607Z</time>
      </trkpt>
      <trkpt lat="43.95504" lon="2.20831">
        <ele>178</ele>
        <time>2020-08-25T11:47:31.607Z</time>
      </trkpt>
      <trkpt lat="43.95504" lon="2.20828">
        <ele>178</ele>
        <time>2020-08-25T11:47:32.607Z</time>
      </trkpt>
      <trkpt lat="43.95505" lon="2.20826">
        <ele>178</ele>
        <time>2020-08-25T11:47:33.607Z</time>
      </trkpt>
      <trkpt lat="43.95505" lon="2.20824">
        <ele>178</ele>
        <time>2020-08-25T11:47:34.607Z</time>
      </trkpt>
      <trkpt lat="43.95505" lon="2.20821">
        <ele>178</ele>
        <time>2020-08-25T11:47:35.607Z</time>
      </trkpt>
      <trkpt lat="43.95505" lon="2.20819">
        <ele>178</ele>
        <time>2020-08-25T11:47:36.607Z</time>
      </trkpt>
      <trkpt lat="43.95505" lon="2.20817">
        <ele>177</ele>
        <time>2020-08-25T11:47:37.607Z</time>
      </trkpt>
      <trkpt lat="43.95506" lon="2.20814">
        <ele>177</ele>
        <time>2020-08-25T11:47:38.607Z</time>
      </trkpt>
      <trkpt lat="43.95506" lon="2.20812">
        <ele>177</ele>
        <time>2020-08-25T11:47:39.607Z</time>
      </trkpt>
      <trkpt lat="43.95507" lon="2.2081">
        <ele>178</ele>
        <time>2020-08-25T11:47:40.607Z</time>
      </trkpt>
      <trkpt lat="43.95507" lon="2.20808">
        <ele>178</ele>
        <time>2020-08-25T11:47:41.607Z</time>
      </trkpt>
      <trkpt lat="43.95507" lon="2.20806">
        <ele>178</ele>
        <time>2020-08-25T11:47:42.607Z</time>
      </trkpt>
      <trkpt lat="43.95507" lon="2.20804">
        <ele>178</ele>
        <time>2020-08-25T11:47:43.607Z</time>
      </trkpt>
      <trkpt lat="43.95507" lon="2.20802">
        <ele>178</ele>
        <time>2020-08-25T11:47:44.607Z</time>
      </trkpt>
      <trkpt lat="43.95508" lon="2.208">
        <ele>178</ele>
        <time>2020-08-25T11:47:45.607Z</time>
      </trkpt>
      <trkpt lat="43.95508" lon="2.20799">
        <ele>178</ele>
        <time>2020-08-25T11:47:46.607Z</time>
      </trkpt>
      <trkpt lat="43.95508" lon="2.20798">
        <ele>178</ele>
        <time>2020-08-25T11:47:47.607Z</time>
      </trkpt>
      <trkpt lat="43.95508" lon="2.20797">
        <ele>178</ele>
        <time>2020-08-25T11:47:48.607Z</time>
      </trkpt>
      <trkpt lat="43.95509" lon="2.20795">
        <ele>178</ele>
        <time>2020-08-25T11:47:49.607Z</time>
      </trkpt>
      <trkpt lat="43.95509" lon="2.20793">
        <ele>178</ele>
        <time>2020-08-25T11:47:50.607Z</time>
      </trkpt>
      <trkpt lat="43.95508" lon="2.20791">
        <ele>178</ele>
        <time>2020-08-25T11:47:51.607Z</time>
      </trkpt>
      <trkpt lat="43.95508" lon="2.20789">
        <ele>178</ele>
        <time>2020-08-25T11:47:52.607Z</time>
      </trkpt>
      <trkpt lat="43.95508" lon="2.20787">
        <ele>178</ele>
        <time>2020-08-25T11:47:53.607Z</time>
      </trkpt>
      <trkpt lat="43.95509" lon="2.20785">
        <ele>178</ele>
        <time>2020-08-25T11:47:54.607Z</time>
      </trkpt>
      <trkpt lat="43.95509" lon="2.20783">
        <ele>178</ele>
        <time>2020-08-25T11:47:55.607Z</time>
      </trkpt>
      <trkpt lat="43.95509" lon="2.20781">
        <ele>177</ele>
        <time>2020-08-25T11:47:56.607Z</time>
      </trkpt>
      <trkpt lat="43.9551" lon="2.20778">
        <ele>177</ele>
        <time>2020-08-25T11:47:57.607Z</time>
      </trkpt>
      <trkpt lat="43.9551" lon="2.20776">
        <ele>177</ele>
        <time>2020-08-25T11:47:58.607Z</time>
      </trkpt>
      <trkpt lat="43.9551" lon="2.20774">
        <ele>177</ele>
        <time>2020-08-25T11:47:59.607Z</time>
      </trkpt>
      <trkpt lat="43.9551" lon="2.20772">
        <ele>177</ele>
        <time>2020-08-25T11:48:00.607Z</time>
      </trkpt>
      <trkpt lat="43.9551" lon="2.2077">
        <ele>177</ele>
        <time>2020-08-25T11:48:01.607Z</time>
      </trkpt>
      <trkpt lat="43.95511" lon="2.20768">
        <ele>177</ele>
        <time>2020-08-25T11:48:02.607Z</time>
      </trkpt>
      <trkpt lat="43.95511" lon="2.20766">
        <ele>177</ele>
        <time>2020-08-25T11:48:03.607Z</time>
      </trkpt>
      <trkpt lat="43.95511" lon="2.20764">
        <ele>177</ele>
        <time>2020-08-25T11:48:04.607Z</time>
      </trkpt>
      <trkpt lat="43.95512" lon="2.20761">
        <ele>177</ele>
        <time>2020-08-25T11:48:05.607Z</time>
      </trkpt>
      <trkpt lat="43.95512" lon="2.20759">
        <ele>177</ele>
        <time>2020-08-25T11:48:06.607Z</time>
      </trkpt>
      <trkpt lat="43.95512" lon="2.20757">
        <ele>177</ele>
        <time>2020-08-25T11:48:07.607Z</time>
      </trkpt>
      <trkpt lat="43.95513" lon="2.20755">
        <ele>177</ele>
        <time>2020-08-25T11:48:08.607Z</time>
      </trkpt>
      <trkpt lat="43.95513" lon="2.20753">
        <ele>177</ele>
        <time>2020-08-25T11:48:09.607Z</time>
      </trkpt>
      <trkpt lat="43.95513" lon="2.20751">
        <ele>177</ele>
        <time>2020-08-25T11:48:10.607Z</time>
      </trkpt>
      <trkpt lat="43.95514" lon="2.20748">
        <ele>177</ele>
        <time>2020-08-25T11:48:11.607Z</time>
      </trkpt>
      <trkpt lat="43.95514" lon="2.20746">
        <ele>177</ele>
        <time>2020-08-25T11:48:12.607Z</time>
      </trkpt>
      <trkpt lat="43.95514" lon="2.20744">
        <ele>177</ele>
        <time>2020-08-25T11:48:13.607Z</time>
      </trkpt>
      <trkpt lat="43.95515" lon="2.20742">
        <ele>176</ele>
        <time>2020-08-25T11:48:14.607Z</time>
      </trkpt>
      <trkpt lat="43.95515" lon="2.2074">
        <ele>176</ele>
        <time>2020-08-25T11:48:15.607Z</time>
      </trkpt>
      <trkpt lat="43.95515" lon="2.20738">
        <ele>176</ele>
        <time>2020-08-25T11:48:16.607Z</time>
      </trkpt>
      <trkpt lat="43.95516" lon="2.20736">
        <ele>176</ele>
        <time>2020-08-25T11:48:17.607Z</time>
      </trkpt>
      <trkpt lat="43.95516" lon="2.20734">
        <ele>176</ele>
        <time>2020-08-25T11:48:18.607Z</time>
      </trkpt>
      <trkpt lat="43.95516" lon="2.20732">
        <ele>176</ele>
        <time>2020-08-25T11:48:19.607Z</time>
      </trkpt>
      <trkpt lat="43.95517" lon="2.2073">
        <ele>176</ele>
        <time>2020-08-25T11:48:20.607Z</time>
      </trkpt>
      <trkpt lat="43.95517" lon="2.20728">
        <ele>176</ele>
        <time>2020-08-25T11:48:21.607Z</time>
      </trkpt>
      <trkpt lat="43.95517" lon="2.20726">
        <ele>176</ele>
        <time>2020-08-25T11:48:22.607Z</time>
      </trkpt>
      <trkpt lat="43.95517" lon="2.20724">
        <ele>175</ele>
        <time>2020-08-25T11:48:23.607Z</time>
      </trkpt>
      <trkpt lat="43.95518" lon="2.20722">
        <ele>175</ele>
        <time>2020-08-25T11:48:24.607Z</time>
      </trkpt>
      <trkpt lat="43.95518" lon="2.2072">
        <ele>175</ele>
        <time>2020-08-25T11:48:25.607Z</time>
      </trkpt>
      <trkpt lat="43.95518" lon="2.20718">
        <ele>175</ele>
        <time>2020-08-25T11:48:26.607Z</time>
      </trkpt>
      <trkpt lat="43.95518" lon="2.20716">
        <ele>175</ele>
        <time>2020-08-25T11:48:27.607Z</time>
      </trkpt>
      <trkpt lat="43.95519" lon="2.20714">
        <ele>175</ele>
        <time>2020-08-25T11:48:28.607Z</time>
      </trkpt>
      <trkpt lat="43.95519" lon="2.20712">
        <ele>175</ele>
        <time>2020-08-25T11:48:29.607Z</time>
      </trkpt>
      <trkpt lat="43.95519" lon="2.2071">
        <ele>175</ele>
        <time>2020-08-25T11:48:30.607Z</time>
      </trkpt>
      <trkpt lat="43.9552" lon="2.20708">
        <ele>175</ele>
        <time>2020-08-25T11:48:31.607Z</time>
      </trkpt>
      <trkpt lat="43.9552" lon="2.20706">
        <ele>175</ele>
        <time>2020-08-25T11:48:32.607Z</time>
      </trkpt>
      <trkpt lat="43.9552" lon="2.20704">
        <ele>175</ele>
        <time>2020-08-25T11:48:33.607Z</time>
      </trkpt>
      <trkpt lat="43.9552" lon="2.20702">
        <ele>175</ele>
        <time>2020-08-25T11:48:34.607Z</time>
      </trkpt>
      <trkpt lat="43.95521" lon="2.207">
        <ele>175</ele>
        <time>2020-08-25T11:48:35.607Z</time>
      </trkpt>
      <trkpt lat="43.95521" lon="2.20698">
        <ele>175</ele>
        <time>2020-08-25T11:48:36.607Z</time>
      </trkpt>
      <trkpt lat="43.95521" lon="2.20696">
        <ele>175</ele>
        <time>2020-08-25T11:48:37.607Z</time>
      </trkpt>
      <trkpt lat="43.95521" lon="2.20694">
        <ele>175</ele>
        <time>2020-08-25T11:48:38.607Z</time>
      </trkpt>
      <trkpt lat="43.95522" lon="2.20692">
        <ele>174</ele>
        <time>2020-08-25T11:48:39.607Z</time>
      </trkpt>
      <trkpt lat="43.95522" lon="2.2069">
        <ele>174</ele>
        <time>2020-08-25T11:48:40.607Z</time>
      </trkpt>
      <trkpt lat="43.95522" lon="2.20688">
        <ele>174</ele>
        <time>2020-08-25T11:48:41.607Z</time>
      </trkpt>
      <trkpt lat="43.95522" lon="2.20686">
        <ele>174</ele>
        <time>2020-08-25T11:48:42.607Z</time>
      </trkpt>
      <trkpt lat="43.95522" lon="2.20684">
        <ele>174</ele>
        <time>2020-08-25T11:48:43.607Z</time>
      </trkpt>
      <trkpt lat="43.95522" lon="2.20682">
        <ele>174</ele>
        <time>2020-08-25T11:48:44.607Z</time>
      </trkpt>
      <trkpt lat="43.95522" lon="2.20681">
        <ele>174</ele>
        <time>2020-08-25T11:48:45.607Z</time>
      </trkpt>
      <trkpt lat="43.95522" lon="2.20679">
        <ele>174</ele>
        <time>2020-08-25T11:48:46.607Z</time>
      </trkpt>
      <trkpt lat="43.95522" lon="2.20677">
        <ele>174</ele>
        <time>2020-08-25T11:48:47.607Z</time>
      </trkpt>
      <trkpt lat="43.95523" lon="2.20675">
        <ele>174</ele>
        <time>2020-08-25T11:48:48.607Z</time>
      </trkpt>
      <trkpt lat="43.95523" lon="2.20673">
        <ele>174</ele>
        <time>2020-08-25T11:48:49.607Z</time>
      </trkpt>
      <trkpt lat="43.95524" lon="2.20671">
        <ele>174</ele>
        <time>2020-08-25T11:48:50.607Z</time>
      </trkpt>
      <trkpt lat="43.95524" lon="2.20669">
        <ele>174</ele>
        <time>2020-08-25T11:48:51.607Z</time>
      </trkpt>
      <trkpt lat="43.95525" lon="2.20668">
        <ele>174</ele>
        <time>2020-08-25T11:48:52.607Z</time>
      </trkpt>
      <trkpt lat="43.95525" lon="2.20666">
        <ele>174</ele>
        <time>2020-08-25T11:48:53.607Z</time>
      </trkpt>
      <trkpt lat="43.95526" lon="2.20664">
        <ele>174</ele>
        <time>2020-08-25T11:48:54.607Z</time>
      </trkpt>
      <trkpt lat="43.95526" lon="2.20662">
        <ele>174</ele>
        <time>2020-08-25T11:48:55.607Z</time>
      </trkpt>
      <trkpt lat="43.95526" lon="2.2066">
        <ele>174</ele>
        <time>2020-08-25T11:48:56.607Z</time>
      </trkpt>
      <trkpt lat="43.95527" lon="2.20658">
        <ele>174</ele>
        <time>2020-08-25T11:48:57.607Z</time>
      </trkpt>
      <trkpt lat="43.95527" lon="2.20656">
        <ele>174</ele>
        <time>2020-08-25T11:48:58.607Z</time>
      </trkpt>
      <trkpt lat="43.95527" lon="2.20654">
        <ele>174</ele>
        <time>2020-08-25T11:48:59.607Z</time>
      </trkpt>
      <trkpt lat="43.95527" lon="2.20652">
        <ele>174</ele>
        <time>2020-08-25T11:49:00.607Z</time>
      </trkpt>
      <trkpt lat="43.95527" lon="2.20651">
        <ele>174</ele>
        <time>2020-08-25T11:49:01.607Z</time>
      </trkpt>
      <trkpt lat="43.95528" lon="2.20649">
        <ele>174</ele>
        <time>2020-08-25T11:49:02.607Z</time>
      </trkpt>
      <trkpt lat="43.95528" lon="2.20647">
        <ele>174</ele>
        <time>2020-08-25T11:49:03.607Z</time>
      </trkpt>
      <trkpt lat="43.95529" lon="2.20646">
        <ele>174</ele>
        <time>2020-08-25T11:49:04.607Z</time>
      </trkpt>
      <trkpt lat="43.95529" lon="2.20644">
        <ele>174</ele>
        <time>2020-08-25T11:49:05.607Z</time>
      </trkpt>
      <trkpt lat="43.95529" lon="2.20642">
        <ele>174</ele>
        <time>2020-08-25T11:49:06.607Z</time>
      </trkpt>
      <trkpt lat="43.95529" lon="2.2064">
        <ele>174</ele>
        <time>2020-08-25T11:49:07.607Z</time>
      </trkpt>
      <trkpt lat="43.9553" lon="2.20639">
        <ele>174</ele>
        <time>2020-08-25T11:49:08.607Z</time>
      </trkpt>
      <trkpt lat="43.9553" lon="2.20636">
        <ele>174</ele>
        <time>2020-08-25T11:49:09.607Z</time>
      </trkpt>
      <trkpt lat="43.9553" lon="2.20634">
        <ele>174</ele>
        <time>2020-08-25T11:49:10.607Z</time>
      </trkpt>
      <trkpt lat="43.9553" lon="2.20632">
        <ele>174</ele>
        <time>2020-08-25T11:49:11.607Z</time>
      </trkpt>
      <trkpt lat="43.9553" lon="2.2063">
        <ele>175</ele>
        <time>2020-08-25T11:49:12.607Z</time>
      </trkpt>
      <trkpt lat="43.95529" lon="2.20628">
        <ele>175</ele>
        <time>2020-08-25T11:49:13.607Z</time>
      </trkpt>
      <trkpt lat="43.95529" lon="2.20626">
        <ele>175</ele>
        <time>2020-08-25T11:49:14.607Z</time>
      </trkpt>
      <trkpt lat="43.95529" lon="2.20624">
        <ele>175</ele>
        <time>2020-08-25T11:49:15.607Z</time>
      </trkpt>
      <trkpt lat="43.9553" lon="2.20622">
        <ele>175</ele>
        <time>2020-08-25T11:49:16.607Z</time>
      </trkpt>
      <trkpt lat="43.9553" lon="2.2062">
        <ele>175</ele>
        <time>2020-08-25T11:49:17.607Z</time>
      </trkpt>
      <trkpt lat="43.9553" lon="2.20618">
        <ele>175</ele>
        <time>2020-08-25T11:49:18.607Z</time>
      </trkpt>
      <trkpt lat="43.95529" lon="2.20616">
        <ele>175</ele>
        <time>2020-08-25T11:49:19.607Z</time>
      </trkpt>
      <trkpt lat="43.95529" lon="2.20614">
        <ele>175</ele>
        <time>2020-08-25T11:49:20.607Z</time>
      </trkpt>
      <trkpt lat="43.95529" lon="2.20612">
        <ele>175</ele>
        <time>2020-08-25T11:49:21.607Z</time>
      </trkpt>
      <trkpt lat="43.95529" lon="2.2061">
        <ele>175</ele>
        <time>2020-08-25T11:49:22.607Z</time>
      </trkpt>
      <trkpt lat="43.95529" lon="2.20608">
        <ele>175</ele>
        <time>2020-08-25T11:49:23.607Z</time>
      </trkpt>
      <trkpt lat="43.95529" lon="2.20606">
        <ele>175</ele>
        <time>2020-08-25T11:49:24.607Z</time>
      </trkpt>
      <trkpt lat="43.95529" lon="2.20604">
        <ele>175</ele>
        <time>2020-08-25T11:49:25.607Z</time>
      </trkpt>
      <trkpt lat="43.9553" lon="2.20602">
        <ele>175</ele>
        <time>2020-08-25T11:49:26.607Z</time>
      </trkpt>
      <trkpt lat="43.9553" lon="2.206">
        <ele>175</ele>
        <time>2020-08-25T11:49:27.607Z</time>
      </trkpt>
      <trkpt lat="43.9553" lon="2.20598">
        <ele>175</ele>
        <time>2020-08-25T11:49:28.607Z</time>
      </trkpt>
      <trkpt lat="43.95531" lon="2.20597">
        <ele>175</ele>
        <time>2020-08-25T11:49:29.607Z</time>
      </trkpt>
      <trkpt lat="43.95531" lon="2.20595">
        <ele>175</ele>
        <time>2020-08-25T11:49:30.607Z</time>
      </trkpt>
      <trkpt lat="43.95531" lon="2.20594">
        <ele>175</ele>
        <time>2020-08-25T11:49:31.607Z</time>
      </trkpt>
      <trkpt lat="43.95531" lon="2.20592">
        <ele>175</ele>
        <time>2020-08-25T11:49:32.607Z</time>
      </trkpt>
      <trkpt lat="43.95531" lon="2.2059">
        <ele>175</ele>
        <time>2020-08-25T11:49:33.607Z</time>
      </trkpt>
      <trkpt lat="43.95531" lon="2.20588">
        <ele>175</ele>
        <time>2020-08-25T11:49:34.607Z</time>
      </trkpt>
      <trkpt lat="43.95531" lon="2.20586">
        <ele>174</ele>
        <time>2020-08-25T11:49:35.607Z</time>
      </trkpt>
      <trkpt lat="43.95531" lon="2.20584">
        <ele>174</ele>
        <time>2020-08-25T11:49:36.607Z</time>
      </trkpt>
      <trkpt lat="43.95531" lon="2.20583">
        <ele>174</ele>
        <time>2020-08-25T11:49:37.607Z</time>
      </trkpt>
      <trkpt lat="43.95532" lon="2.20581">
        <ele>174</ele>
        <time>2020-08-25T11:49:38.607Z</time>
      </trkpt>
      <trkpt lat="43.95532" lon="2.20579">
        <ele>174</ele>
        <time>2020-08-25T11:49:39.607Z</time>
      </trkpt>
      <trkpt lat="43.95532" lon="2.20577">
        <ele>174</ele>
        <time>2020-08-25T11:49:40.607Z</time>
      </trkpt>
      <trkpt lat="43.95532" lon="2.20575">
        <ele>174</ele>
        <time>2020-08-25T11:49:41.607Z</time>
      </trkpt>
      <trkpt lat="43.95533" lon="2.20573">
        <ele>174</ele>
        <time>2020-08-25T11:49:42.607Z</time>
      </trkpt>
      <trkpt lat="43.95533" lon="2.20571">
        <ele>174</ele>
        <time>2020-08-25T11:49:43.607Z</time>
      </trkpt>
      <trkpt lat="43.95533" lon="2.20569">
        <ele>174</ele>
        <time>2020-08-25T11:49:44.607Z</time>
      </trkpt>
      <trkpt lat="43.95533" lon="2.20567">
        <ele>174</ele>
        <time>2020-08-25T11:49:45.607Z</time>
      </trkpt>
      <trkpt lat="43.95533" lon="2.20565">
        <ele>174</ele>
        <time>2020-08-25T11:49:46.607Z</time>
      </trkpt>
      <trkpt lat="43.95533" lon="2.20563">
        <ele>174</ele>
        <time>2020-08-25T11:49:47.607Z</time>
      </trkpt>
      <trkpt lat="43.95533" lon="2.20561">
        <ele>174</ele>
        <time>2020-08-25T11:49:48.607Z</time>
      </trkpt>
      <trkpt lat="43.95534" lon="2.20559">
        <ele>174</ele>
        <time>2020-08-25T11:49:49.607Z</time>
      </trkpt>
      <trkpt lat="43.95534" lon="2.20557">
        <ele>174</ele>
        <time>2020-08-25T11:49:50.607Z</time>
      </trkpt>
      <trkpt lat="43.95534" lon="2.20555">
        <ele>174</ele>
        <time>2020-08-25T11:49:51.607Z</time>
      </trkpt>
      <trkpt lat="43.95534" lon="2.20553">
        <ele>174</ele>
        <time>2020-08-25T11:49:52.607Z</time>
      </trkpt>
      <trkpt lat="43.95534" lon="2.20551">
        <ele>174</ele>
        <time>2020-08-25T11:49:53.607Z</time>
      </trkpt>
      <trkpt lat="43.95534" lon="2.20549">
        <ele>174</ele>
        <time>2020-08-25T11:49:54.607Z</time>
      </trkpt>
      <trkpt lat="43.95534" lon="2.20547">
        <ele>174</ele>
        <time>2020-08-25T11:49:55.607Z</time>
      </trkpt>
      <trkpt lat="43.95535" lon="2.20545">
        <ele>174</ele>
        <time>2020-08-25T11:49:56.607Z</time>
      </trkpt>
      <trkpt lat="43.95535" lon="2.20543">
        <ele>174</ele>
        <time>2020-08-25T11:49:57.607Z</time>
      </trkpt>
      <trkpt lat="43.95535" lon="2.20541">
        <ele>174</ele>
        <time>2020-08-25T11:49:58.607Z</time>
      </trkpt>
      <trkpt lat="43.95535" lon="2.20539">
        <ele>174</ele>
        <time>2020-08-25T11:49:59.607Z</time>
      </trkpt>
      <trkpt lat="43.95535" lon="2.20537">
        <ele>174</ele>
        <time>2020-08-25T11:50:00.607Z</time>
      </trkpt>
      <trkpt lat="43.95535" lon="2.20535">
        <ele>174</ele>
        <time>2020-08-25T11:50:01.607Z</time>
      </trkpt>
      <trkpt lat="43.95536" lon="2.20533">
        <ele>174</ele>
        <time>2020-08-25T11:50:02.607Z</time>
      </trkpt>
      <trkpt lat="43.95536" lon="2.20531">
        <ele>174</ele>
        <time>2020-08-25T11:50:03.607Z</time>
      </trkpt>
      <trkpt lat="43.95536" lon="2.20529">
        <ele>174</ele>
        <time>2020-08-25T11:50:04.607Z</time>
      </trkpt>
      <trkpt lat="43.95536" lon="2.20527">
        <ele>174</ele>
        <time>2020-08-25T11:50:05.607Z</time>
      </trkpt>
      <trkpt lat="43.95537" lon="2.20526">
        <ele>174</ele>
        <time>2020-08-25T11:50:06.607Z</time>
      </trkpt>
      <trkpt lat="43.95537" lon="2.20524">
        <ele>174</ele>
        <time>2020-08-25T11:50:07.607Z</time>
      </trkpt>
      <trkpt lat="43.95537" lon="2.20522">
        <ele>174</ele>
        <time>2020-08-25T11:50:08.607Z</time>
      </trkpt>
      <trkpt lat="43.95537" lon="2.2052">
        <ele>174</ele>
        <time>2020-08-25T11:50:09.607Z</time>
      </trkpt>
      <trkpt lat="43.95537" lon="2.20518">
        <ele>174</ele>
        <time>2020-08-25T11:50:10.607Z</time>
      </trkpt>
      <trkpt lat="43.95537" lon="2.20516">
        <ele>174</ele>
        <time>2020-08-25T11:50:11.607Z</time>
      </trkpt>
      <trkpt lat="43.95537" lon="2.20514">
        <ele>174</ele>
        <time>2020-08-25T11:50:12.607Z</time>
      </trkpt>
      <trkpt lat="43.95537" lon="2.20512">
        <ele>174</ele>
        <time>2020-08-25T11:50:13.607Z</time>
      </trkpt>
      <trkpt lat="43.95537" lon="2.2051">
        <ele>174</ele>
        <time>2020-08-25T11:50:14.607Z</time>
      </trkpt>
      <trkpt lat="43.95537" lon="2.20508">
        <ele>174</ele>
        <time>2020-08-25T11:50:15.607Z</time>
      </trkpt>
      <trkpt lat="43.95537" lon="2.20506">
        <ele>174</ele>
        <time>2020-08-25T11:50:16.607Z</time>
      </trkpt>
      <trkpt lat="43.95537" lon="2.20504">
        <ele>174</ele>
        <time>2020-08-25T11:50:17.607Z</time>
      </trkpt>
      <trkpt lat="43.95537" lon="2.20502">
        <ele>173</ele>
        <time>2020-08-25T11:50:18.607Z</time>
      </trkpt>
      <trkpt lat="43.95538" lon="2.205">
        <ele>173</ele>
        <time>2020-08-25T11:50:19.607Z</time>
      </trkpt>
      <trkpt lat="43.95538" lon="2.20498">
        <ele>173</ele>
        <time>2020-08-25T11:50:20.607Z</time>
      </trkpt>
      <trkpt lat="43.95538" lon="2.20496">
        <ele>173</ele>
        <time>2020-08-25T11:50:21.607Z</time>
      </trkpt>
      <trkpt lat="43.95538" lon="2.20494">
        <ele>173</ele>
        <time>2020-08-25T11:50:22.607Z</time>
      </trkpt>
      <trkpt lat="43.95538" lon="2.20492">
        <ele>173</ele>
        <time>2020-08-25T11:50:23.607Z</time>
      </trkpt>
      <trkpt lat="43.95538" lon="2.2049">
        <ele>173</ele>
        <time>2020-08-25T11:50:24.607Z</time>
      </trkpt>
      <trkpt lat="43.95538" lon="2.20488">
        <ele>173</ele>
        <time>2020-08-25T11:50:25.607Z</time>
      </trkpt>
      <trkpt lat="43.95539" lon="2.20486">
        <ele>173</ele>
        <time>2020-08-25T11:50:26.607Z</time>
      </trkpt>
      <trkpt lat="43.95539" lon="2.20484">
        <ele>173</ele>
        <time>2020-08-25T11:50:27.607Z</time>
      </trkpt>
      <trkpt lat="43.95539" lon="2.20482">
        <ele>173</ele>
        <time>2020-08-25T11:50:28.607Z</time>
      </trkpt>
      <trkpt lat="43.95539" lon="2.2048">
        <ele>173</ele>
        <time>2020-08-25T11:50:29.607Z</time>
      </trkpt>
      <trkpt lat="43.95539" lon="2.20477">
        <ele>173</ele>
        <time>2020-08-25T11:50:30.607Z</time>
      </trkpt>
      <trkpt lat="43.95539" lon="2.20475">
        <ele>173</ele>
        <time>2020-08-25T11:50:31.607Z</time>
      </trkpt>
      <trkpt lat="43.95539" lon="2.20473">
        <ele>173</ele>
        <time>2020-08-25T11:50:32.607Z</time>
      </trkpt>
      <trkpt lat="43.95539" lon="2.20471">
        <ele>173</ele>
        <time>2020-08-25T11:50:33.607Z</time>
      </trkpt>
      <trkpt lat="43.95539" lon="2.20469">
        <ele>173</ele>
        <time>2020-08-25T11:50:34.607Z</time>
      </trkpt>
      <trkpt lat="43.95539" lon="2.20467">
        <ele>173</ele>
        <time>2020-08-25T11:50:35.607Z</time>
      </trkpt>
      <trkpt lat="43.95539" lon="2.20465">
        <ele>173</ele>
        <time>2020-08-25T11:50:36.607Z</time>
      </trkpt>
      <trkpt lat="43.95539" lon="2.20463">
        <ele>173</ele>
        <time>2020-08-25T11:50:37.607Z</time>
      </trkpt>
      <trkpt lat="43.95539" lon="2.20461">
        <ele>173</ele>
        <time>2020-08-25T11:50:38.607Z</time>
      </trkpt>
      <trkpt lat="43.95539" lon="2.20459">
        <ele>173</ele>
        <time>2020-08-25T11:50:39.607Z</time>
      </trkpt>
      <trkpt lat="43.95539" lon="2.20457">
        <ele>173</ele>
        <time>2020-08-25T11:50:40.607Z</time>
      </trkpt>
      <trkpt lat="43.95539" lon="2.20455">
        <ele>173</ele>
        <time>2020-08-25T11:50:41.607Z</time>
      </trkpt>
      <trkpt lat="43.95539" lon="2.20453">
        <ele>173</ele>
        <time>2020-08-25T11:50:42.607Z</time>
      </trkpt>
      <trkpt lat="43.95539" lon="2.20451">
        <ele>173</ele>
        <time>2020-08-25T11:50:43.607Z</time>
      </trkpt>
      <trkpt lat="43.95539" lon="2.20449">
        <ele>173</ele>
        <time>2020-08-25T11:50:44.607Z</time>
      </trkpt>
      <trkpt lat="43.95539" lon="2.20447">
        <ele>173</ele>
        <time>2020-08-25T11:50:45.607Z</time>
      </trkpt>
      <trkpt lat="43.95539" lon="2.20446">
        <ele>173</ele>
        <time>2020-08-25T11:50:46.607Z</time>
      </trkpt>
      <trkpt lat="43.95539" lon="2.20444">
        <ele>173</ele>
        <time>2020-08-25T11:50:47.607Z</time>
      </trkpt>
      <trkpt lat="43.95539" lon="2.20442">
        <ele>173</ele>
        <time>2020-08-25T11:50:48.607Z</time>
      </trkpt>
      <trkpt lat="43.95539" lon="2.2044">
        <ele>173</ele>
        <time>2020-08-25T11:50:49.607Z</time>
      </trkpt>
      <trkpt lat="43.95539" lon="2.20438">
        <ele>173</ele>
        <time>2020-08-25T11:50:50.607Z</time>
      </trkpt>
      <trkpt lat="43.95539" lon="2.20436">
        <ele>173</ele>
        <time>2020-08-25T11:50:51.607Z</time>
      </trkpt>
      <trkpt lat="43.95539" lon="2.20434">
        <ele>174</ele>
        <time>2020-08-25T11:50:52.607Z</time>
      </trkpt>
      <trkpt lat="43.95539" lon="2.20432">
        <ele>174</ele>
        <time>2020-08-25T11:50:53.607Z</time>
      </trkpt>
      <trkpt lat="43.95539" lon="2.2043">
        <ele>174</ele>
        <time>2020-08-25T11:50:54.607Z</time>
      </trkpt>
      <trkpt lat="43.9554" lon="2.20428">
        <ele>174</ele>
        <time>2020-08-25T11:50:55.607Z</time>
      </trkpt>
      <trkpt lat="43.9554" lon="2.20426">
        <ele>174</ele>
        <time>2020-08-25T11:50:56.607Z</time>
      </trkpt>
      <trkpt lat="43.9554" lon="2.20424">
        <ele>174</ele>
        <time>2020-08-25T11:50:57.607Z</time>
      </trkpt>
      <trkpt lat="43.9554" lon="2.20421">
        <ele>174</ele>
        <time>2020-08-25T11:50:58.607Z</time>
      </trkpt>
      <trkpt lat="43.95541" lon="2.20419">
        <ele>174</ele>
        <time>2020-08-25T11:50:59.607Z</time>
      </trkpt>
      <trkpt lat="43.95541" lon="2.20417">
        <ele>174</ele>
        <time>2020-08-25T11:51:00.607Z</time>
      </trkpt>
      <trkpt lat="43.95541" lon="2.20415">
        <ele>174</ele>
        <time>2020-08-25T11:51:01.607Z</time>
      </trkpt>
      <trkpt lat="43.95542" lon="2.20413">
        <ele>174</ele>
        <time>2020-08-25T11:51:02.607Z</time>
      </trkpt>
      <trkpt lat="43.95542" lon="2.20412">
        <ele>174</ele>
        <time>2020-08-25T11:51:03.607Z</time>
      </trkpt>
      <trkpt lat="43.95542" lon="2.2041">
        <ele>174</ele>
        <time>2020-08-25T11:51:04.607Z</time>
      </trkpt>
      <trkpt lat="43.95542" lon="2.20408">
        <ele>174</ele>
        <time>2020-08-25T11:51:05.607Z</time>
      </trkpt>
      <trkpt lat="43.95542" lon="2.20406">
        <ele>174</ele>
        <time>2020-08-25T11:51:06.607Z</time>
      </trkpt>
      <trkpt lat="43.95543" lon="2.20404">
        <ele>175</ele>
        <time>2020-08-25T11:51:07.607Z</time>
      </trkpt>
      <trkpt lat="43.95543" lon="2.20402">
        <ele>175</ele>
        <time>2020-08-25T11:51:08.607Z</time>
      </trkpt>
      <trkpt lat="43.95543" lon="2.204">
        <ele>175</ele>
        <time>2020-08-25T11:51:09.607Z</time>
      </trkpt>
      <trkpt lat="43.95543" lon="2.20398">
        <ele>174</ele>
        <time>2020-08-25T11:51:10.607Z</time>
      </trkpt>
      <trkpt lat="43.95543" lon="2.20395">
        <ele>174</ele>
        <time>2020-08-25T11:51:11.607Z</time>
      </trkpt>
      <trkpt lat="43.95544" lon="2.20393">
        <ele>174</ele>
        <time>2020-08-25T11:51:12.607Z</time>
      </trkpt>
      <trkpt lat="43.95544" lon="2.20391">
        <ele>174</ele>
        <time>2020-08-25T11:51:13.607Z</time>
      </trkpt>
      <trkpt lat="43.95544" lon="2.20389">
        <ele>174</ele>
        <time>2020-08-25T11:51:14.607Z</time>
      </trkpt>
      <trkpt lat="43.95544" lon="2.20387">
        <ele>174</ele>
        <time>2020-08-25T11:51:15.607Z</time>
      </trkpt>
      <trkpt lat="43.95544" lon="2.20385">
        <ele>174</ele>
        <time>2020-08-25T11:51:16.607Z</time>
      </trkpt>
      <trkpt lat="43.95544" lon="2.20383">
        <ele>174</ele>
        <time>2020-08-25T11:51:17.607Z</time>
      </trkpt>
      <trkpt lat="43.95545" lon="2.20382">
        <ele>174</ele>
        <time>2020-08-25T11:51:18.607Z</time>
      </trkpt>
      <trkpt lat="43.95545" lon="2.20379">
        <ele>174</ele>
        <time>2020-08-25T11:51:19.607Z</time>
      </trkpt>
      <trkpt lat="43.95545" lon="2.20377">
        <ele>174</ele>
        <time>2020-08-25T11:51:20.607Z</time>
      </trkpt>
      <trkpt lat="43.95545" lon="2.20375">
        <ele>174</ele>
        <time>2020-08-25T11:51:21.607Z</time>
      </trkpt>
      <trkpt lat="43.95545" lon="2.20373">
        <ele>174</ele>
        <time>2020-08-25T11:51:22.607Z</time>
      </trkpt>
      <trkpt lat="43.95545" lon="2.20371">
        <ele>174</ele>
        <time>2020-08-25T11:51:23.607Z</time>
      </trkpt>
      <trkpt lat="43.95546" lon="2.20369">
        <ele>175</ele>
        <time>2020-08-25T11:51:24.607Z</time>
      </trkpt>
      <trkpt lat="43.95546" lon="2.20367">
        <ele>175</ele>
        <time>2020-08-25T11:51:25.607Z</time>
      </trkpt>
      <trkpt lat="43.95547" lon="2.20366">
        <ele>175</ele>
        <time>2020-08-25T11:51:26.607Z</time>
      </trkpt>
      <trkpt lat="43.95548" lon="2.20365">
        <ele>175</ele>
        <time>2020-08-25T11:51:27.607Z</time>
      </trkpt>
      <trkpt lat="43.95549" lon="2.20364">
        <ele>175</ele>
        <time>2020-08-25T11:51:28.607Z</time>
      </trkpt>
      <trkpt lat="43.9555" lon="2.20363">
        <ele>175</ele>
        <time>2020-08-25T11:51:29.607Z</time>
      </trkpt>
      <trkpt lat="43.95552" lon="2.20362">
        <ele>175</ele>
        <time>2020-08-25T11:51:30.607Z</time>
      </trkpt>
      <trkpt lat="43.95553" lon="2.20362">
        <ele>175</ele>
        <time>2020-08-25T11:51:31.607Z</time>
      </trkpt>
      <trkpt lat="43.95554" lon="2.20361">
        <ele>175</ele>
        <time>2020-08-25T11:51:32.607Z</time>
      </trkpt>
      <trkpt lat="43.95555" lon="2.2036">
        <ele>175</ele>
        <time>2020-08-25T11:51:33.607Z</time>
      </trkpt>
      <trkpt lat="43.95557" lon="2.2036">
        <ele>175</ele>
        <time>2020-08-25T11:51:34.607Z</time>
      </trkpt>
      <trkpt lat="43.95558" lon="2.20359">
        <ele>175</ele>
        <time>2020-08-25T11:51:35.607Z</time>
      </trkpt>
      <trkpt lat="43.95559" lon="2.20358">
        <ele>175</ele>
        <time>2020-08-25T11:51:36.607Z</time>
      </trkpt>
      <trkpt lat="43.9556" lon="2.20357">
        <ele>175</ele>
        <time>2020-08-25T11:51:37.607Z</time>
      </trkpt>
      <trkpt lat="43.95562" lon="2.20356">
        <ele>175</ele>
        <time>2020-08-25T11:51:38.607Z</time>
      </trkpt>
      <trkpt lat="43.95563" lon="2.20355">
        <ele>175</ele>
        <time>2020-08-25T11:51:39.607Z</time>
      </trkpt>
      <trkpt lat="43.95564" lon="2.20354">
        <ele>175</ele>
        <time>2020-08-25T11:51:40.607Z</time>
      </trkpt>
      <trkpt lat="43.95565" lon="2.20352">
        <ele>175</ele>
        <time>2020-08-25T11:51:41.607Z</time>
      </trkpt>
      <trkpt lat="43.95566" lon="2.20351">
        <ele>175</ele>
        <time>2020-08-25T11:51:42.607Z</time>
      </trkpt>
      <trkpt lat="43.95566" lon="2.20349">
        <ele>175</ele>
        <time>2020-08-25T11:51:43.607Z</time>
      </trkpt>
      <trkpt lat="43.95567" lon="2.20347">
        <ele>175</ele>
        <time>2020-08-25T11:51:44.607Z</time>
      </trkpt>
      <trkpt lat="43.95567" lon="2.20345">
        <ele>175</ele>
        <time>2020-08-25T11:51:45.607Z</time>
      </trkpt>
      <trkpt lat="43.95567" lon="2.20343">
        <ele>175</ele>
        <time>2020-08-25T11:51:46.607Z</time>
      </trkpt>
      <trkpt lat="43.95567" lon="2.20341">
        <ele>175</ele>
        <time>2020-08-25T11:51:47.607Z</time>
      </trkpt>
      <trkpt lat="43.95568" lon="2.20339">
        <ele>174</ele>
        <time>2020-08-25T11:51:48.607Z</time>
      </trkpt>
      <trkpt lat="43.95568" lon="2.20337">
        <ele>174</ele>
        <time>2020-08-25T11:51:49.607Z</time>
      </trkpt>
      <trkpt lat="43.95568" lon="2.20335">
        <ele>174</ele>
        <time>2020-08-25T11:51:50.607Z</time>
      </trkpt>
      <trkpt lat="43.95568" lon="2.20333">
        <ele>174</ele>
        <time>2020-08-25T11:51:51.607Z</time>
      </trkpt>
      <trkpt lat="43.95568" lon="2.20331">
        <ele>174</ele>
        <time>2020-08-25T11:51:52.607Z</time>
      </trkpt>
      <trkpt lat="43.95568" lon="2.20329">
        <ele>174</ele>
        <time>2020-08-25T11:51:53.607Z</time>
      </trkpt>
      <trkpt lat="43.95567" lon="2.20327">
        <ele>174</ele>
        <time>2020-08-25T11:51:54.607Z</time>
      </trkpt>
      <trkpt lat="43.95567" lon="2.20325">
        <ele>174</ele>
        <time>2020-08-25T11:51:55.607Z</time>
      </trkpt>
      <trkpt lat="43.95567" lon="2.20323">
        <ele>174</ele>
        <time>2020-08-25T11:51:56.607Z</time>
      </trkpt>
      <trkpt lat="43.95567" lon="2.20321">
        <ele>174</ele>
        <time>2020-08-25T11:51:57.607Z</time>
      </trkpt>
      <trkpt lat="43.95567" lon="2.20319">
        <ele>174</ele>
        <time>2020-08-25T11:51:58.607Z</time>
      </trkpt>
      <trkpt lat="43.95567" lon="2.20316">
        <ele>174</ele>
        <time>2020-08-25T11:51:59.607Z</time>
      </trkpt>
      <trkpt lat="43.95567" lon="2.20314">
        <ele>174</ele>
        <time>2020-08-25T11:52:00.607Z</time>
      </trkpt>
      <trkpt lat="43.95566" lon="2.20312">
        <ele>174</ele>
        <time>2020-08-25T11:52:01.607Z</time>
      </trkpt>
      <trkpt lat="43.95566" lon="2.2031">
        <ele>174</ele>
        <time>2020-08-25T11:52:02.607Z</time>
      </trkpt>
      <trkpt lat="43.95566" lon="2.20309">
        <ele>174</ele>
        <time>2020-08-25T11:52:03.607Z</time>
      </trkpt>
      <trkpt lat="43.95566" lon="2.20307">
        <ele>174</ele>
        <time>2020-08-25T11:52:04.607Z</time>
      </trkpt>
      <trkpt lat="43.95566" lon="2.20304">
        <ele>174</ele>
        <time>2020-08-25T11:52:05.607Z</time>
      </trkpt>
      <trkpt lat="43.95566" lon="2.20302">
        <ele>174</ele>
        <time>2020-08-25T11:52:06.607Z</time>
      </trkpt>
      <trkpt lat="43.95566" lon="2.203">
        <ele>174</ele>
        <time>2020-08-25T11:52:07.607Z</time>
      </trkpt>
      <trkpt lat="43.95566" lon="2.20298">
        <ele>174</ele>
        <time>2020-08-25T11:52:08.607Z</time>
      </trkpt>
      <trkpt lat="43.95566" lon="2.20296">
        <ele>174</ele>
        <time>2020-08-25T11:52:09.607Z</time>
      </trkpt>
      <trkpt lat="43.95566" lon="2.20294">
        <ele>174</ele>
        <time>2020-08-25T11:52:10.607Z</time>
      </trkpt>
      <trkpt lat="43.95566" lon="2.20292">
        <ele>174</ele>
        <time>2020-08-25T11:52:11.607Z</time>
      </trkpt>
      <trkpt lat="43.95566" lon="2.2029">
        <ele>174</ele>
        <time>2020-08-25T11:52:12.607Z</time>
      </trkpt>
      <trkpt lat="43.95566" lon="2.20288">
        <ele>173</ele>
        <time>2020-08-25T11:52:13.607Z</time>
      </trkpt>
      <trkpt lat="43.95566" lon="2.20286">
        <ele>173</ele>
        <time>2020-08-25T11:52:14.607Z</time>
      </trkpt>
      <trkpt lat="43.95566" lon="2.20284">
        <ele>173</ele>
        <time>2020-08-25T11:52:15.607Z</time>
      </trkpt>
      <trkpt lat="43.95565" lon="2.20282">
        <ele>173</ele>
        <time>2020-08-25T11:52:16.607Z</time>
      </trkpt>
      <trkpt lat="43.95565" lon="2.2028">
        <ele>173</ele>
        <time>2020-08-25T11:52:17.607Z</time>
      </trkpt>
      <trkpt lat="43.95565" lon="2.20278">
        <ele>173</ele>
        <time>2020-08-25T11:52:18.607Z</time>
      </trkpt>
      <trkpt lat="43.95565" lon="2.20276">
        <ele>173</ele>
        <time>2020-08-25T11:52:19.607Z</time>
      </trkpt>
      <trkpt lat="43.95565" lon="2.20274">
        <ele>173</ele>
        <time>2020-08-25T11:52:20.607Z</time>
      </trkpt>
      <trkpt lat="43.95565" lon="2.20272">
        <ele>173</ele>
        <time>2020-08-25T11:52:21.607Z</time>
      </trkpt>
      <trkpt lat="43.95565" lon="2.2027">
        <ele>173</ele>
        <time>2020-08-25T11:52:22.607Z</time>
      </trkpt>
      <trkpt lat="43.95565" lon="2.20268">
        <ele>173</ele>
        <time>2020-08-25T11:52:23.607Z</time>
      </trkpt>
      <trkpt lat="43.95565" lon="2.20266">
        <ele>173</ele>
        <time>2020-08-25T11:52:24.607Z</time>
      </trkpt>
      <trkpt lat="43.95565" lon="2.20264">
        <ele>173</ele>
        <time>2020-08-25T11:52:25.607Z</time>
      </trkpt>
      <trkpt lat="43.95565" lon="2.20262">
        <ele>173</ele>
        <time>2020-08-25T11:52:26.607Z</time>
      </trkpt>
      <trkpt lat="43.95565" lon="2.2026">
        <ele>173</ele>
        <time>2020-08-25T11:52:27.607Z</time>
      </trkpt>
      <trkpt lat="43.95565" lon="2.20258">
        <ele>173</ele>
        <time>2020-08-25T11:52:28.607Z</time>
      </trkpt>
      <trkpt lat="43.95565" lon="2.20256">
        <ele>173</ele>
        <time>2020-08-25T11:52:29.607Z</time>
      </trkpt>
      <trkpt lat="43.95565" lon="2.20254">
        <ele>173</ele>
        <time>2020-08-25T11:52:30.607Z</time>
      </trkpt>
      <trkpt lat="43.95564" lon="2.20252">
        <ele>173</ele>
        <time>2020-08-25T11:52:31.607Z</time>
      </trkpt>
      <trkpt lat="43.95564" lon="2.2025">
        <ele>173</ele>
        <time>2020-08-25T11:52:32.607Z</time>
      </trkpt>
      <trkpt lat="43.95564" lon="2.20248">
        <ele>173</ele>
        <time>2020-08-25T11:52:33.607Z</time>
      </trkpt>
      <trkpt lat="43.95564" lon="2.20246">
        <ele>173</ele>
        <time>2020-08-25T11:52:34.607Z</time>
      </trkpt>
      <trkpt lat="43.95564" lon="2.20244">
        <ele>173</ele>
        <time>2020-08-25T11:52:35.607Z</time>
      </trkpt>
      <trkpt lat="43.95564" lon="2.20242">
        <ele>173</ele>
        <time>2020-08-25T11:52:36.607Z</time>
      </trkpt>
      <trkpt lat="43.95564" lon="2.2024">
        <ele>173</ele>
        <time>2020-08-25T11:52:37.607Z</time>
      </trkpt>
      <trkpt lat="43.95564" lon="2.20238">
        <ele>173</ele>
        <time>2020-08-25T11:52:38.607Z</time>
      </trkpt>
      <trkpt lat="43.95564" lon="2.20236">
        <ele>173</ele>
        <time>2020-08-25T11:52:39.607Z</time>
      </trkpt>
      <trkpt lat="43.95564" lon="2.20234">
        <ele>173</ele>
        <time>2020-08-25T11:52:40.607Z</time>
      </trkpt>
      <trkpt lat="43.95564" lon="2.20232">
        <ele>173</ele>
        <time>2020-08-25T11:52:41.607Z</time>
      </trkpt>
      <trkpt lat="43.95563" lon="2.2023">
        <ele>173</ele>
        <time>2020-08-25T11:52:42.607Z</time>
      </trkpt>
      <trkpt lat="43.95563" lon="2.20228">
        <ele>173</ele>
        <time>2020-08-25T11:52:43.607Z</time>
      </trkpt>
      <trkpt lat="43.95563" lon="2.20226">
        <ele>173</ele>
        <time>2020-08-25T11:52:44.607Z</time>
      </trkpt>
      <trkpt lat="43.95563" lon="2.20224">
        <ele>173</ele>
        <time>2020-08-25T11:52:45.607Z</time>
      </trkpt>
      <trkpt lat="43.95563" lon="2.20222">
        <ele>173</ele>
        <time>2020-08-25T11:52:46.607Z</time>
      </trkpt>
      <trkpt lat="43.95562" lon="2.2022">
        <ele>173</ele>
        <time>2020-08-25T11:52:47.607Z</time>
      </trkpt>
      <trkpt lat="43.95562" lon="2.20219">
        <ele>173</ele>
        <time>2020-08-25T11:52:48.607Z</time>
      </trkpt>
      <trkpt lat="43.95562" lon="2.20217">
        <ele>173</ele>
        <time>2020-08-25T11:52:49.607Z</time>
      </trkpt>
      <trkpt lat="43.95562" lon="2.20215">
        <ele>173</ele>
        <time>2020-08-25T11:52:50.607Z</time>
      </trkpt>
      <trkpt lat="43.95562" lon="2.20213">
        <ele>173</ele>
        <time>2020-08-25T11:52:51.607Z</time>
      </trkpt>
      <trkpt lat="43.95562" lon="2.20211">
        <ele>173</ele>
        <time>2020-08-25T11:52:52.607Z</time>
      </trkpt>
      <trkpt lat="43.95561" lon="2.20209">
        <ele>173</ele>
        <time>2020-08-25T11:52:53.607Z</time>
      </trkpt>
      <trkpt lat="43.95561" lon="2.20207">
        <ele>173</ele>
        <time>2020-08-25T11:52:54.607Z</time>
      </trkpt>
      <trkpt lat="43.95561" lon="2.20205">
        <ele>173</ele>
        <time>2020-08-25T11:52:55.607Z</time>
      </trkpt>
      <trkpt lat="43.95561" lon="2.20203">
        <ele>173</ele>
        <time>2020-08-25T11:52:56.607Z</time>
      </trkpt>
      <trkpt lat="43.95561" lon="2.20201">
        <ele>173</ele>
        <time>2020-08-25T11:52:57.607Z</time>
      </trkpt>
      <trkpt lat="43.95561" lon="2.202">
        <ele>173</ele>
        <time>2020-08-25T11:52:58.607Z</time>
      </trkpt>
      <trkpt lat="43.9556" lon="2.20198">
        <ele>173</ele>
        <time>2020-08-25T11:52:59.607Z</time>
      </trkpt>
      <trkpt lat="43.9556" lon="2.20196">
        <ele>173</ele>
        <time>2020-08-25T11:53:00.607Z</time>
      </trkpt>
      <trkpt lat="43.9556" lon="2.20194">
        <ele>173</ele>
        <time>2020-08-25T11:53:01.607Z</time>
      </trkpt>
      <trkpt lat="43.9556" lon="2.20192">
        <ele>173</ele>
        <time>2020-08-25T11:53:02.607Z</time>
      </trkpt>
      <trkpt lat="43.9556" lon="2.2019">
        <ele>173</ele>
        <time>2020-08-25T11:53:03.607Z</time>
      </trkpt>
      <trkpt lat="43.9556" lon="2.20188">
        <ele>173</ele>
        <time>2020-08-25T11:53:04.607Z</time>
      </trkpt>
      <trkpt lat="43.9556" lon="2.20186">
        <ele>173</ele>
        <time>2020-08-25T11:53:05.607Z</time>
      </trkpt>
      <trkpt lat="43.9556" lon="2.20184">
        <ele>173</ele>
        <time>2020-08-25T11:53:06.607Z</time>
      </trkpt>
      <trkpt lat="43.9556" lon="2.20182">
        <ele>173</ele>
        <time>2020-08-25T11:53:07.607Z</time>
      </trkpt>
      <trkpt lat="43.9556" lon="2.2018">
        <ele>173</ele>
        <time>2020-08-25T11:53:08.607Z</time>
      </trkpt>
      <trkpt lat="43.9556" lon="2.20178">
        <ele>173</ele>
        <time>2020-08-25T11:53:09.607Z</time>
      </trkpt>
      <trkpt lat="43.9556" lon="2.20176">
        <ele>173</ele>
        <time>2020-08-25T11:53:10.607Z</time>
      </trkpt>
      <trkpt lat="43.9556" lon="2.20174">
        <ele>173</ele>
        <time>2020-08-25T11:53:11.607Z</time>
      </trkpt>
      <trkpt lat="43.95559" lon="2.20172">
        <ele>173</ele>
        <time>2020-08-25T11:53:12.607Z</time>
      </trkpt>
      <trkpt lat="43.95559" lon="2.2017">
        <ele>173</ele>
        <time>2020-08-25T11:53:13.607Z</time>
      </trkpt>
      <trkpt lat="43.95559" lon="2.20168">
        <ele>173</ele>
        <time>2020-08-25T11:53:14.607Z</time>
      </trkpt>
      <trkpt lat="43.95559" lon="2.20166">
        <ele>173</ele>
        <time>2020-08-25T11:53:15.607Z</time>
      </trkpt>
      <trkpt lat="43.95559" lon="2.20164">
        <ele>173</ele>
        <time>2020-08-25T11:53:16.607Z</time>
      </trkpt>
      <trkpt lat="43.95559" lon="2.20162">
        <ele>173</ele>
        <time>2020-08-25T11:53:17.607Z</time>
      </trkpt>
      <trkpt lat="43.95559" lon="2.2016">
        <ele>172</ele>
        <time>2020-08-25T11:53:18.607Z</time>
      </trkpt>
      <trkpt lat="43.95559" lon="2.20158">
        <ele>172</ele>
        <time>2020-08-25T11:53:19.607Z</time>
      </trkpt>
      <trkpt lat="43.95559" lon="2.20156">
        <ele>172</ele>
        <time>2020-08-25T11:53:20.607Z</time>
      </trkpt>
      <trkpt lat="43.95559" lon="2.20154">
        <ele>172</ele>
        <time>2020-08-25T11:53:21.607Z</time>
      </trkpt>
      <trkpt lat="43.95559" lon="2.20152">
        <ele>172</ele>
        <time>2020-08-25T11:53:22.607Z</time>
      </trkpt>
      <trkpt lat="43.95559" lon="2.2015">
        <ele>172</ele>
        <time>2020-08-25T11:53:23.607Z</time>
      </trkpt>
      <trkpt lat="43.95559" lon="2.20148">
        <ele>172</ele>
        <time>2020-08-25T11:53:24.607Z</time>
      </trkpt>
      <trkpt lat="43.95559" lon="2.20147">
        <ele>172</ele>
        <time>2020-08-25T11:53:25.607Z</time>
      </trkpt>
      <trkpt lat="43.95558" lon="2.20145">
        <ele>172</ele>
        <time>2020-08-25T11:53:26.607Z</time>
      </trkpt>
      <trkpt lat="43.95558" lon="2.20143">
        <ele>172</ele>
        <time>2020-08-25T11:53:27.607Z</time>
      </trkpt>
      <trkpt lat="43.95559" lon="2.20141">
        <ele>172</ele>
        <time>2020-08-25T11:53:28.607Z</time>
      </trkpt>
      <trkpt lat="43.95558" lon="2.20139">
        <ele>172</ele>
        <time>2020-08-25T11:53:29.607Z</time>
      </trkpt>
      <trkpt lat="43.95558" lon="2.20137">
        <ele>172</ele>
        <time>2020-08-25T11:53:30.607Z</time>
      </trkpt>
      <trkpt lat="43.95558" lon="2.20135">
        <ele>172</ele>
        <time>2020-08-25T11:53:31.607Z</time>
      </trkpt>
      <trkpt lat="43.95558" lon="2.20133">
        <ele>172</ele>
        <time>2020-08-25T11:53:32.607Z</time>
      </trkpt>
      <trkpt lat="43.95558" lon="2.20131">
        <ele>172</ele>
        <time>2020-08-25T11:53:33.607Z</time>
      </trkpt>
      <trkpt lat="43.95558" lon="2.20128">
        <ele>172</ele>
        <time>2020-08-25T11:53:34.607Z</time>
      </trkpt>
      <trkpt lat="43.95558" lon="2.20126">
        <ele>172</ele>
        <time>2020-08-25T11:53:35.607Z</time>
      </trkpt>
      <trkpt lat="43.95558" lon="2.20124">
        <ele>172</ele>
        <time>2020-08-25T11:53:36.607Z</time>
      </trkpt>
      <trkpt lat="43.95558" lon="2.20122">
        <ele>172</ele>
        <time>2020-08-25T11:53:37.607Z</time>
      </trkpt>
      <trkpt lat="43.95558" lon="2.2012">
        <ele>172</ele>
        <time>2020-08-25T11:53:38.607Z</time>
      </trkpt>
      <trkpt lat="43.95558" lon="2.20118">
        <ele>172</ele>
        <time>2020-08-25T11:53:39.607Z</time>
      </trkpt>
      <trkpt lat="43.95558" lon="2.20115">
        <ele>172</ele>
        <time>2020-08-25T11:53:40.607Z</time>
      </trkpt>
      <trkpt lat="43.95558" lon="2.20114">
        <ele>172</ele>
        <time>2020-08-25T11:53:41.607Z</time>
      </trkpt>
      <trkpt lat="43.95558" lon="2.20112">
        <ele>172</ele>
        <time>2020-08-25T11:53:42.607Z</time>
      </trkpt>
      <trkpt lat="43.95558" lon="2.2011">
        <ele>172</ele>
        <time>2020-08-25T11:53:43.607Z</time>
      </trkpt>
      <trkpt lat="43.95558" lon="2.20108">
        <ele>172</ele>
        <time>2020-08-25T11:53:44.607Z</time>
      </trkpt>
      <trkpt lat="43.95558" lon="2.20106">
        <ele>172</ele>
        <time>2020-08-25T11:53:45.607Z</time>
      </trkpt>
      <trkpt lat="43.95558" lon="2.20104">
        <ele>172</ele>
        <time>2020-08-25T11:53:46.607Z</time>
      </trkpt>
      <trkpt lat="43.95558" lon="2.20102">
        <ele>172</ele>
        <time>2020-08-25T11:53:47.607Z</time>
      </trkpt>
      <trkpt lat="43.95558" lon="2.201">
        <ele>172</ele>
        <time>2020-08-25T11:53:48.607Z</time>
      </trkpt>
      <trkpt lat="43.95558" lon="2.20098">
        <ele>172</ele>
        <time>2020-08-25T11:53:49.607Z</time>
      </trkpt>
      <trkpt lat="43.95558" lon="2.20096">
        <ele>172</ele>
        <time>2020-08-25T11:53:50.607Z</time>
      </trkpt>
      <trkpt lat="43.95558" lon="2.20094">
        <ele>172</ele>
        <time>2020-08-25T11:53:51.607Z</time>
      </trkpt>
      <trkpt lat="43.95558" lon="2.20092">
        <ele>172</ele>
        <time>2020-08-25T11:53:52.607Z</time>
      </trkpt>
      <trkpt lat="43.95557" lon="2.2009">
        <ele>172</ele>
        <time>2020-08-25T11:53:53.607Z</time>
      </trkpt>
      <trkpt lat="43.95557" lon="2.20088">
        <ele>172</ele>
        <time>2020-08-25T11:53:54.607Z</time>
      </trkpt>
      <trkpt lat="43.95557" lon="2.20086">
        <ele>172</ele>
        <time>2020-08-25T11:53:55.607Z</time>
      </trkpt>
      <trkpt lat="43.95557" lon="2.20083">
        <ele>172</ele>
        <time>2020-08-25T11:53:56.607Z</time>
      </trkpt>
      <trkpt lat="43.95557" lon="2.20082">
        <ele>172</ele>
        <time>2020-08-25T11:53:57.607Z</time>
      </trkpt>
      <trkpt lat="43.95557" lon="2.2008">
        <ele>172</ele>
        <time>2020-08-25T11:53:58.607Z</time>
      </trkpt>
      <trkpt lat="43.95556" lon="2.20078">
        <ele>172</ele>
        <time>2020-08-25T11:53:59.607Z</time>
      </trkpt>
      <trkpt lat="43.95556" lon="2.20076">
        <ele>172</ele>
        <time>2020-08-25T11:54:00.607Z</time>
      </trkpt>
      <trkpt lat="43.95556" lon="2.20074">
        <ele>172</ele>
        <time>2020-08-25T11:54:01.607Z</time>
      </trkpt>
      <trkpt lat="43.95556" lon="2.20072">
        <ele>172</ele>
        <time>2020-08-25T11:54:02.607Z</time>
      </trkpt>
      <trkpt lat="43.95556" lon="2.2007">
        <ele>173</ele>
        <time>2020-08-25T11:54:03.607Z</time>
      </trkpt>
      <trkpt lat="43.95556" lon="2.20068">
        <ele>173</ele>
        <time>2020-08-25T11:54:04.607Z</time>
      </trkpt>
      <trkpt lat="43.95556" lon="2.20067">
        <ele>173</ele>
        <time>2020-08-25T11:54:05.607Z</time>
      </trkpt>
      <trkpt lat="43.95556" lon="2.20065">
        <ele>173</ele>
        <time>2020-08-25T11:54:06.607Z</time>
      </trkpt>
      <trkpt lat="43.95556" lon="2.20063">
        <ele>173</ele>
        <time>2020-08-25T11:54:07.607Z</time>
      </trkpt>
      <trkpt lat="43.95556" lon="2.20061">
        <ele>173</ele>
        <time>2020-08-25T11:54:08.607Z</time>
      </trkpt>
      <trkpt lat="43.95556" lon="2.20059">
        <ele>173</ele>
        <time>2020-08-25T11:54:09.607Z</time>
      </trkpt>
      <trkpt lat="43.95556" lon="2.20057">
        <ele>173</ele>
        <time>2020-08-25T11:54:10.607Z</time>
      </trkpt>
      <trkpt lat="43.95556" lon="2.20055">
        <ele>173</ele>
        <time>2020-08-25T11:54:11.607Z</time>
      </trkpt>
      <trkpt lat="43.95555" lon="2.20053">
        <ele>173</ele>
        <time>2020-08-25T11:54:12.607Z</time>
      </trkpt>
      <trkpt lat="43.95555" lon="2.2005">
        <ele>173</ele>
        <time>2020-08-25T11:54:13.607Z</time>
      </trkpt>
      <trkpt lat="43.95555" lon="2.20048">
        <ele>174</ele>
        <time>2020-08-25T11:54:14.607Z</time>
      </trkpt>
      <trkpt lat="43.95555" lon="2.20046">
        <ele>174</ele>
        <time>2020-08-25T11:54:15.607Z</time>
      </trkpt>
      <trkpt lat="43.95555" lon="2.20044">
        <ele>174</ele>
        <time>2020-08-25T11:54:16.607Z</time>
      </trkpt>
      <trkpt lat="43.95555" lon="2.20042">
        <ele>174</ele>
        <time>2020-08-25T11:54:17.607Z</time>
      </trkpt>
      <trkpt lat="43.95555" lon="2.2004">
        <ele>174</ele>
        <time>2020-08-25T11:54:18.607Z</time>
      </trkpt>
      <trkpt lat="43.95555" lon="2.20038">
        <ele>174</ele>
        <time>2020-08-25T11:54:19.607Z</time>
      </trkpt>
      <trkpt lat="43.95554" lon="2.20037">
        <ele>174</ele>
        <time>2020-08-25T11:54:20.607Z</time>
      </trkpt>
      <trkpt lat="43.95554" lon="2.20035">
        <ele>174</ele>
        <time>2020-08-25T11:54:21.607Z</time>
      </trkpt>
      <trkpt lat="43.95554" lon="2.20032">
        <ele>174</ele>
        <time>2020-08-25T11:54:22.607Z</time>
      </trkpt>
      <trkpt lat="43.95554" lon="2.2003">
        <ele>174</ele>
        <time>2020-08-25T11:54:23.607Z</time>
      </trkpt>
      <trkpt lat="43.95554" lon="2.20028">
        <ele>174</ele>
        <time>2020-08-25T11:54:24.607Z</time>
      </trkpt>
      <trkpt lat="43.95554" lon="2.20026">
        <ele>174</ele>
        <time>2020-08-25T11:54:25.607Z</time>
      </trkpt>
      <trkpt lat="43.95554" lon="2.20024">
        <ele>174</ele>
        <time>2020-08-25T11:54:26.607Z</time>
      </trkpt>
      <trkpt lat="43.95554" lon="2.20022">
        <ele>174</ele>
        <time>2020-08-25T11:54:27.607Z</time>
      </trkpt>
      <trkpt lat="43.95554" lon="2.2002">
        <ele>174</ele>
        <time>2020-08-25T11:54:28.607Z</time>
      </trkpt>
      <trkpt lat="43.95554" lon="2.20018">
        <ele>174</ele>
        <time>2020-08-25T11:54:29.607Z</time>
      </trkpt>
      <trkpt lat="43.95554" lon="2.20016">
        <ele>174</ele>
        <time>2020-08-25T11:54:30.607Z</time>
      </trkpt>
      <trkpt lat="43.95554" lon="2.20014">
        <ele>174</ele>
        <time>2020-08-25T11:54:31.607Z</time>
      </trkpt>
      <trkpt lat="43.95554" lon="2.20012">
        <ele>174</ele>
        <time>2020-08-25T11:54:32.607Z</time>
      </trkpt>
      <trkpt lat="43.95553" lon="2.2001">
        <ele>174</ele>
        <time>2020-08-25T11:54:33.607Z</time>
      </trkpt>
      <trkpt lat="43.95553" lon="2.20008">
        <ele>174</ele>
        <time>2020-08-25T11:54:34.607Z</time>
      </trkpt>
      <trkpt lat="43.95553" lon="2.20006">
        <ele>174</ele>
        <time>2020-08-25T11:54:35.607Z</time>
      </trkpt>
      <trkpt lat="43.95553" lon="2.20005">
        <ele>173</ele>
        <time>2020-08-25T11:54:36.607Z</time>
      </trkpt>
      <trkpt lat="43.95553" lon="2.20003">
        <ele>173</ele>
        <time>2020-08-25T11:54:37.607Z</time>
      </trkpt>
      <trkpt lat="43.95553" lon="2.2">
        <ele>173</ele>
        <time>2020-08-25T11:54:38.607Z</time>
      </trkpt>
      <trkpt lat="43.95553" lon="2.19998">
        <ele>173</ele>
        <time>2020-08-25T11:54:39.607Z</time>
      </trkpt>
      <trkpt lat="43.95553" lon="2.19996">
        <ele>173</ele>
        <time>2020-08-25T11:54:40.607Z</time>
      </trkpt>
      <trkpt lat="43.95553" lon="2.19994">
        <ele>173</ele>
        <time>2020-08-25T11:54:41.607Z</time>
      </trkpt>
      <trkpt lat="43.95552" lon="2.19992">
        <ele>173</ele>
        <time>2020-08-25T11:54:42.607Z</time>
      </trkpt>
      <trkpt lat="43.95552" lon="2.1999">
        <ele>173</ele>
        <time>2020-08-25T11:54:43.607Z</time>
      </trkpt>
      <trkpt lat="43.95552" lon="2.19988">
        <ele>173</ele>
        <time>2020-08-25T11:54:44.607Z</time>
      </trkpt>
      <trkpt lat="43.95552" lon="2.19986">
        <ele>173</ele>
        <time>2020-08-25T11:54:45.607Z</time>
      </trkpt>
      <trkpt lat="43.95552" lon="2.19984">
        <ele>173</ele>
        <time>2020-08-25T11:54:46.607Z</time>
      </trkpt>
      <trkpt lat="43.95552" lon="2.19982">
        <ele>173</ele>
        <time>2020-08-25T11:54:47.607Z</time>
      </trkpt>
      <trkpt lat="43.95551" lon="2.1998">
        <ele>173</ele>
        <time>2020-08-25T11:54:48.607Z</time>
      </trkpt>
      <trkpt lat="43.95551" lon="2.19978">
        <ele>173</ele>
        <time>2020-08-25T11:54:49.607Z</time>
      </trkpt>
      <trkpt lat="43.95551" lon="2.19976">
        <ele>173</ele>
        <time>2020-08-25T11:54:50.607Z</time>
      </trkpt>
      <trkpt lat="43.95551" lon="2.19974">
        <ele>173</ele>
        <time>2020-08-25T11:54:51.607Z</time>
      </trkpt>
      <trkpt lat="43.95551" lon="2.19973">
        <ele>173</ele>
        <time>2020-08-25T11:54:52.607Z</time>
      </trkpt>
      <trkpt lat="43.95551" lon="2.19971">
        <ele>172</ele>
        <time>2020-08-25T11:54:53.607Z</time>
      </trkpt>
      <trkpt lat="43.95551" lon="2.19969">
        <ele>172</ele>
        <time>2020-08-25T11:54:54.607Z</time>
      </trkpt>
      <trkpt lat="43.95551" lon="2.19967">
        <ele>172</ele>
        <time>2020-08-25T11:54:55.607Z</time>
      </trkpt>
      <trkpt lat="43.95551" lon="2.19965">
        <ele>172</ele>
        <time>2020-08-25T11:54:56.607Z</time>
      </trkpt>
      <trkpt lat="43.95551" lon="2.19963">
        <ele>172</ele>
        <time>2020-08-25T11:54:57.607Z</time>
      </trkpt>
      <trkpt lat="43.95551" lon="2.19961">
        <ele>172</ele>
        <time>2020-08-25T11:54:58.607Z</time>
      </trkpt>
      <trkpt lat="43.9555" lon="2.19959">
        <ele>172</ele>
        <time>2020-08-25T11:54:59.607Z</time>
      </trkpt>
      <trkpt lat="43.9555" lon="2.19957">
        <ele>172</ele>
        <time>2020-08-25T11:55:00.607Z</time>
      </trkpt>
      <trkpt lat="43.9555" lon="2.19955">
        <ele>172</ele>
        <time>2020-08-25T11:55:01.607Z</time>
      </trkpt>
      <trkpt lat="43.9555" lon="2.19953">
        <ele>172</ele>
        <time>2020-08-25T11:55:02.607Z</time>
      </trkpt>
      <trkpt lat="43.9555" lon="2.19951">
        <ele>172</ele>
        <time>2020-08-25T11:55:03.607Z</time>
      </trkpt>
      <trkpt lat="43.95549" lon="2.19949">
        <ele>172</ele>
        <time>2020-08-25T11:55:04.607Z</time>
      </trkpt>
      <trkpt lat="43.95549" lon="2.19947">
        <ele>172</ele>
        <time>2020-08-25T11:55:05.607Z</time>
      </trkpt>
      <trkpt lat="43.95549" lon="2.19945">
        <ele>172</ele>
        <time>2020-08-25T11:55:06.607Z</time>
      </trkpt>
      <trkpt lat="43.95549" lon="2.19943">
        <ele>172</ele>
        <time>2020-08-25T11:55:07.607Z</time>
      </trkpt>
      <trkpt lat="43.95549" lon="2.1994">
        <ele>172</ele>
        <time>2020-08-25T11:55:08.607Z</time>
      </trkpt>
      <trkpt lat="43.95549" lon="2.19938">
        <ele>172</ele>
        <time>2020-08-25T11:55:09.607Z</time>
      </trkpt>
      <trkpt lat="43.95548" lon="2.19936">
        <ele>172</ele>
        <time>2020-08-25T11:55:10.607Z</time>
      </trkpt>
      <trkpt lat="43.95548" lon="2.19934">
        <ele>172</ele>
        <time>2020-08-25T11:55:11.607Z</time>
      </trkpt>
      <trkpt lat="43.95548" lon="2.19932">
        <ele>172</ele>
        <time>2020-08-25T11:55:12.607Z</time>
      </trkpt>
      <trkpt lat="43.95548" lon="2.19931">
        <ele>171</ele>
        <time>2020-08-25T11:55:13.607Z</time>
      </trkpt>
      <trkpt lat="43.95548" lon="2.19929">
        <ele>171</ele>
        <time>2020-08-25T11:55:14.607Z</time>
      </trkpt>
      <trkpt lat="43.95548" lon="2.19927">
        <ele>171</ele>
        <time>2020-08-25T11:55:15.607Z</time>
      </trkpt>
      <trkpt lat="43.95548" lon="2.19925">
        <ele>171</ele>
        <time>2020-08-25T11:55:16.607Z</time>
      </trkpt>
      <trkpt lat="43.95548" lon="2.19923">
        <ele>171</ele>
        <time>2020-08-25T11:55:17.607Z</time>
      </trkpt>
      <trkpt lat="43.95548" lon="2.1992">
        <ele>171</ele>
        <time>2020-08-25T11:55:18.607Z</time>
      </trkpt>
      <trkpt lat="43.95548" lon="2.19918">
        <ele>171</ele>
        <time>2020-08-25T11:55:19.607Z</time>
      </trkpt>
      <trkpt lat="43.95547" lon="2.19916">
        <ele>171</ele>
        <time>2020-08-25T11:55:20.607Z</time>
      </trkpt>
      <trkpt lat="43.95547" lon="2.19914">
        <ele>171</ele>
        <time>2020-08-25T11:55:21.607Z</time>
      </trkpt>
      <trkpt lat="43.95547" lon="2.19912">
        <ele>171</ele>
        <time>2020-08-25T11:55:22.607Z</time>
      </trkpt>
      <trkpt lat="43.95547" lon="2.1991">
        <ele>171</ele>
        <time>2020-08-25T11:55:23.607Z</time>
      </trkpt>
      <trkpt lat="43.95547" lon="2.19908">
        <ele>171</ele>
        <time>2020-08-25T11:55:24.607Z</time>
      </trkpt>
      <trkpt lat="43.95547" lon="2.19906">
        <ele>171</ele>
        <time>2020-08-25T11:55:25.607Z</time>
      </trkpt>
      <trkpt lat="43.95547" lon="2.19904">
        <ele>171</ele>
        <time>2020-08-25T11:55:26.607Z</time>
      </trkpt>
      <trkpt lat="43.95547" lon="2.19902">
        <ele>171</ele>
        <time>2020-08-25T11:55:27.607Z</time>
      </trkpt>
      <trkpt lat="43.95546" lon="2.199">
        <ele>171</ele>
        <time>2020-08-25T11:55:28.607Z</time>
      </trkpt>
      <trkpt lat="43.95546" lon="2.19898">
        <ele>171</ele>
        <time>2020-08-25T11:55:29.607Z</time>
      </trkpt>
      <trkpt lat="43.95546" lon="2.19896">
        <ele>171</ele>
        <time>2020-08-25T11:55:30.607Z</time>
      </trkpt>
      <trkpt lat="43.95546" lon="2.19894">
        <ele>171</ele>
        <time>2020-08-25T11:55:31.607Z</time>
      </trkpt>
      <trkpt lat="43.95546" lon="2.19892">
        <ele>171</ele>
        <time>2020-08-25T11:55:32.607Z</time>
      </trkpt>
      <trkpt lat="43.95546" lon="2.19891">
        <ele>171</ele>
        <time>2020-08-25T11:55:33.607Z</time>
      </trkpt>
      <trkpt lat="43.95546" lon="2.19889">
        <ele>171</ele>
        <time>2020-08-25T11:55:34.607Z</time>
      </trkpt>
      <trkpt lat="43.95546" lon="2.19887">
        <ele>171</ele>
        <time>2020-08-25T11:55:35.607Z</time>
      </trkpt>
      <trkpt lat="43.95545" lon="2.19885">
        <ele>171</ele>
        <time>2020-08-25T11:55:36.607Z</time>
      </trkpt>
      <trkpt lat="43.95545" lon="2.19883">
        <ele>171</ele>
        <time>2020-08-25T11:55:37.607Z</time>
      </trkpt>
      <trkpt lat="43.95545" lon="2.19881">
        <ele>171</ele>
        <time>2020-08-25T11:55:38.607Z</time>
      </trkpt>
      <trkpt lat="43.95545" lon="2.19879">
        <ele>171</ele>
        <time>2020-08-25T11:55:39.607Z</time>
      </trkpt>
      <trkpt lat="43.95545" lon="2.19877">
        <ele>170</ele>
        <time>2020-08-25T11:55:40.607Z</time>
      </trkpt>
      <trkpt lat="43.95545" lon="2.19875">
        <ele>170</ele>
        <time>2020-08-25T11:55:41.607Z</time>
      </trkpt>
      <trkpt lat="43.95545" lon="2.19873">
        <ele>170</ele>
        <time>2020-08-25T11:55:42.607Z</time>
      </trkpt>
      <trkpt lat="43.95545" lon="2.19871">
        <ele>170</ele>
        <time>2020-08-25T11:55:43.607Z</time>
      </trkpt>
      <trkpt lat="43.95544" lon="2.19869">
        <ele>170</ele>
        <time>2020-08-25T11:55:44.607Z</time>
      </trkpt>
      <trkpt lat="43.95544" lon="2.19867">
        <ele>170</ele>
        <time>2020-08-25T11:55:45.607Z</time>
      </trkpt>
      <trkpt lat="43.95544" lon="2.19865">
        <ele>170</ele>
        <time>2020-08-25T11:55:46.607Z</time>
      </trkpt>
      <trkpt lat="43.95544" lon="2.19863">
        <ele>170</ele>
        <time>2020-08-25T11:55:47.607Z</time>
      </trkpt>
      <trkpt lat="43.95544" lon="2.19861">
        <ele>170</ele>
        <time>2020-08-25T11:55:48.607Z</time>
      </trkpt>
      <trkpt lat="43.95543" lon="2.19859">
        <ele>170</ele>
        <time>2020-08-25T11:55:49.607Z</time>
      </trkpt>
      <trkpt lat="43.95543" lon="2.19856">
        <ele>170</ele>
        <time>2020-08-25T11:55:50.607Z</time>
      </trkpt>
      <trkpt lat="43.95543" lon="2.19854">
        <ele>170</ele>
        <time>2020-08-25T11:55:51.607Z</time>
      </trkpt>
      <trkpt lat="43.95543" lon="2.19852">
        <ele>170</ele>
        <time>2020-08-25T11:55:52.607Z</time>
      </trkpt>
      <trkpt lat="43.95543" lon="2.1985">
        <ele>170</ele>
        <time>2020-08-25T11:55:53.607Z</time>
      </trkpt>
      <trkpt lat="43.95543" lon="2.19848">
        <ele>170</ele>
        <time>2020-08-25T11:55:54.607Z</time>
      </trkpt>
      <trkpt lat="43.95543" lon="2.19846">
        <ele>170</ele>
        <time>2020-08-25T11:55:55.607Z</time>
      </trkpt>
      <trkpt lat="43.95543" lon="2.19844">
        <ele>170</ele>
        <time>2020-08-25T11:55:56.607Z</time>
      </trkpt>
      <trkpt lat="43.95542" lon="2.19842">
        <ele>170</ele>
        <time>2020-08-25T11:55:57.607Z</time>
      </trkpt>
      <trkpt lat="43.95542" lon="2.1984">
        <ele>170</ele>
        <time>2020-08-25T11:55:58.607Z</time>
      </trkpt>
      <trkpt lat="43.95542" lon="2.19838">
        <ele>171</ele>
        <time>2020-08-25T11:55:59.607Z</time>
      </trkpt>
      <trkpt lat="43.95542" lon="2.19836">
        <ele>171</ele>
        <time>2020-08-25T11:56:00.607Z</time>
      </trkpt>
      <trkpt lat="43.95542" lon="2.19834">
        <ele>171</ele>
        <time>2020-08-25T11:56:01.607Z</time>
      </trkpt>
      <trkpt lat="43.95542" lon="2.19832">
        <ele>171</ele>
        <time>2020-08-25T11:56:02.607Z</time>
      </trkpt>
      <trkpt lat="43.95542" lon="2.1983">
        <ele>171</ele>
        <time>2020-08-25T11:56:03.607Z</time>
      </trkpt>
      <trkpt lat="43.95542" lon="2.19828">
        <ele>171</ele>
        <time>2020-08-25T11:56:04.607Z</time>
      </trkpt>
      <trkpt lat="43.95542" lon="2.19826">
        <ele>171</ele>
        <time>2020-08-25T11:56:05.607Z</time>
      </trkpt>
      <trkpt lat="43.95542" lon="2.19824">
        <ele>171</ele>
        <time>2020-08-25T11:56:06.607Z</time>
      </trkpt>
      <trkpt lat="43.95542" lon="2.19822">
        <ele>171</ele>
        <time>2020-08-25T11:56:07.607Z</time>
      </trkpt>
      <trkpt lat="43.95542" lon="2.1982">
        <ele>171</ele>
        <time>2020-08-25T11:56:08.607Z</time>
      </trkpt>
      <trkpt lat="43.95542" lon="2.19818">
        <ele>171</ele>
        <time>2020-08-25T11:56:09.607Z</time>
      </trkpt>
      <trkpt lat="43.95541" lon="2.19816">
        <ele>171</ele>
        <time>2020-08-25T11:56:10.607Z</time>
      </trkpt>
      <trkpt lat="43.95541" lon="2.19814">
        <ele>172</ele>
        <time>2020-08-25T11:56:11.607Z</time>
      </trkpt>
      <trkpt lat="43.95541" lon="2.19811">
        <ele>172</ele>
        <time>2020-08-25T11:56:12.607Z</time>
      </trkpt>
      <trkpt lat="43.95541" lon="2.19809">
        <ele>172</ele>
        <time>2020-08-25T11:56:13.607Z</time>
      </trkpt>
      <trkpt lat="43.95541" lon="2.19807">
        <ele>172</ele>
        <time>2020-08-25T11:56:14.607Z</time>
      </trkpt>
      <trkpt lat="43.95541" lon="2.19805">
        <ele>172</ele>
        <time>2020-08-25T11:56:15.607Z</time>
      </trkpt>
      <trkpt lat="43.95541" lon="2.19803">
        <ele>172</ele>
        <time>2020-08-25T11:56:16.607Z</time>
      </trkpt>
      <trkpt lat="43.95541" lon="2.19801">
        <ele>172</ele>
        <time>2020-08-25T11:56:17.607Z</time>
      </trkpt>
      <trkpt lat="43.9554" lon="2.19799">
        <ele>172</ele>
        <time>2020-08-25T11:56:18.607Z</time>
      </trkpt>
      <trkpt lat="43.9554" lon="2.19798">
        <ele>172</ele>
        <time>2020-08-25T11:56:19.607Z</time>
      </trkpt>
      <trkpt lat="43.9554" lon="2.19796">
        <ele>172</ele>
        <time>2020-08-25T11:56:20.607Z</time>
      </trkpt>
      <trkpt lat="43.9554" lon="2.19794">
        <ele>172</ele>
        <time>2020-08-25T11:56:21.607Z</time>
      </trkpt>
      <trkpt lat="43.9554" lon="2.19792">
        <ele>172</ele>
        <time>2020-08-25T11:56:22.607Z</time>
      </trkpt>
      <trkpt lat="43.9554" lon="2.1979">
        <ele>172</ele>
        <time>2020-08-25T11:56:23.607Z</time>
      </trkpt>
      <trkpt lat="43.9554" lon="2.19788">
        <ele>172</ele>
        <time>2020-08-25T11:56:24.607Z</time>
      </trkpt>
      <trkpt lat="43.9554" lon="2.19786">
        <ele>172</ele>
        <time>2020-08-25T11:56:25.607Z</time>
      </trkpt>
      <trkpt lat="43.95539" lon="2.19784">
        <ele>172</ele>
        <time>2020-08-25T11:56:26.607Z</time>
      </trkpt>
      <trkpt lat="43.95539" lon="2.19782">
        <ele>172</ele>
        <time>2020-08-25T11:56:27.607Z</time>
      </trkpt>
      <trkpt lat="43.95539" lon="2.1978">
        <ele>172</ele>
        <time>2020-08-25T11:56:28.607Z</time>
      </trkpt>
      <trkpt lat="43.95539" lon="2.19778">
        <ele>172</ele>
        <time>2020-08-25T11:56:29.607Z</time>
      </trkpt>
      <trkpt lat="43.95539" lon="2.19776">
        <ele>172</ele>
        <time>2020-08-25T11:56:30.607Z</time>
      </trkpt>
      <trkpt lat="43.95539" lon="2.19774">
        <ele>173</ele>
        <time>2020-08-25T11:56:31.607Z</time>
      </trkpt>
      <trkpt lat="43.95539" lon="2.19772">
        <ele>173</ele>
        <time>2020-08-25T11:56:32.607Z</time>
      </trkpt>
      <trkpt lat="43.95539" lon="2.1977">
        <ele>173</ele>
        <time>2020-08-25T11:56:33.607Z</time>
      </trkpt>
      <trkpt lat="43.95539" lon="2.19768">
        <ele>173</ele>
        <time>2020-08-25T11:56:34.607Z</time>
      </trkpt>
      <trkpt lat="43.95539" lon="2.19766">
        <ele>173</ele>
        <time>2020-08-25T11:56:35.607Z</time>
      </trkpt>
      <trkpt lat="43.95538" lon="2.19763">
        <ele>173</ele>
        <time>2020-08-25T11:56:36.607Z</time>
      </trkpt>
      <trkpt lat="43.95538" lon="2.19761">
        <ele>173</ele>
        <time>2020-08-25T11:56:37.607Z</time>
      </trkpt>
      <trkpt lat="43.95538" lon="2.19759">
        <ele>173</ele>
        <time>2020-08-25T11:56:38.607Z</time>
      </trkpt>
      <trkpt lat="43.95538" lon="2.19757">
        <ele>173</ele>
        <time>2020-08-25T11:56:39.607Z</time>
      </trkpt>
      <trkpt lat="43.95538" lon="2.19755">
        <ele>173</ele>
        <time>2020-08-25T11:56:40.607Z</time>
      </trkpt>
      <trkpt lat="43.95538" lon="2.19753">
        <ele>173</ele>
        <time>2020-08-25T11:56:41.607Z</time>
      </trkpt>
      <trkpt lat="43.95538" lon="2.19752">
        <ele>173</ele>
        <time>2020-08-25T11:56:42.607Z</time>
      </trkpt>
      <trkpt lat="43.95537" lon="2.1975">
        <ele>173</ele>
        <time>2020-08-25T11:56:43.607Z</time>
      </trkpt>
      <trkpt lat="43.95537" lon="2.19748">
        <ele>173</ele>
        <time>2020-08-25T11:56:44.607Z</time>
      </trkpt>
      <trkpt lat="43.95537" lon="2.19746">
        <ele>173</ele>
        <time>2020-08-25T11:56:45.607Z</time>
      </trkpt>
      <trkpt lat="43.95537" lon="2.19744">
        <ele>173</ele>
        <time>2020-08-25T11:56:46.607Z</time>
      </trkpt>
      <trkpt lat="43.95537" lon="2.19742">
        <ele>173</ele>
        <time>2020-08-25T11:56:47.607Z</time>
      </trkpt>
      <trkpt lat="43.95537" lon="2.1974">
        <ele>173</ele>
        <time>2020-08-25T11:56:48.607Z</time>
      </trkpt>
      <trkpt lat="43.95537" lon="2.19738">
        <ele>173</ele>
        <time>2020-08-25T11:56:49.607Z</time>
      </trkpt>
      <trkpt lat="43.95537" lon="2.19735">
        <ele>173</ele>
        <time>2020-08-25T11:56:50.607Z</time>
      </trkpt>
      <trkpt lat="43.95537" lon="2.19734">
        <ele>173</ele>
        <time>2020-08-25T11:56:51.607Z</time>
      </trkpt>
      <trkpt lat="43.95537" lon="2.19732">
        <ele>173</ele>
        <time>2020-08-25T11:56:52.607Z</time>
      </trkpt>
      <trkpt lat="43.95537" lon="2.1973">
        <ele>173</ele>
        <time>2020-08-25T11:56:53.607Z</time>
      </trkpt>
      <trkpt lat="43.95538" lon="2.19728">
        <ele>173</ele>
        <time>2020-08-25T11:56:54.607Z</time>
      </trkpt>
      <trkpt lat="43.95539" lon="2.19726">
        <ele>173</ele>
        <time>2020-08-25T11:56:55.607Z</time>
      </trkpt>
      <trkpt lat="43.9554" lon="2.19725">
        <ele>172</ele>
        <time>2020-08-25T11:56:56.607Z</time>
      </trkpt>
      <trkpt lat="43.95541" lon="2.19724">
        <ele>172</ele>
        <time>2020-08-25T11:56:57.607Z</time>
      </trkpt>
      <trkpt lat="43.95543" lon="2.19723">
        <ele>172</ele>
        <time>2020-08-25T11:56:58.607Z</time>
      </trkpt>
      <trkpt lat="43.95544" lon="2.19723">
        <ele>172</ele>
        <time>2020-08-25T11:56:59.607Z</time>
      </trkpt>
      <trkpt lat="43.95546" lon="2.19722">
        <ele>172</ele>
        <time>2020-08-25T11:57:00.607Z</time>
      </trkpt>
      <trkpt lat="43.95547" lon="2.19722">
        <ele>172</ele>
        <time>2020-08-25T11:57:01.607Z</time>
      </trkpt>
      <trkpt lat="43.95549" lon="2.19722">
        <ele>172</ele>
        <time>2020-08-25T11:57:02.607Z</time>
      </trkpt>
      <trkpt lat="43.9555" lon="2.19722">
        <ele>172</ele>
        <time>2020-08-25T11:57:03.607Z</time>
      </trkpt>
      <trkpt lat="43.95552" lon="2.19721">
        <ele>172</ele>
        <time>2020-08-25T11:57:04.607Z</time>
      </trkpt>
      <trkpt lat="43.95553" lon="2.19721">
        <ele>172</ele>
        <time>2020-08-25T11:57:05.607Z</time>
      </trkpt>
      <trkpt lat="43.95554" lon="2.1972">
        <ele>172</ele>
        <time>2020-08-25T11:57:06.607Z</time>
      </trkpt>
      <trkpt lat="43.95555" lon="2.1972">
        <ele>172</ele>
        <time>2020-08-25T11:57:07.607Z</time>
      </trkpt>
      <trkpt lat="43.95557" lon="2.19719">
        <ele>172</ele>
        <time>2020-08-25T11:57:08.607Z</time>
      </trkpt>
      <trkpt lat="43.95558" lon="2.19719">
        <ele>172</ele>
        <time>2020-08-25T11:57:09.607Z</time>
      </trkpt>
      <trkpt lat="43.95559" lon="2.19718">
        <ele>172</ele>
        <time>2020-08-25T11:57:10.607Z</time>
      </trkpt>
      <trkpt lat="43.9556" lon="2.19718">
        <ele>172</ele>
        <time>2020-08-25T11:57:11.607Z</time>
      </trkpt>
      <trkpt lat="43.95561" lon="2.19717">
        <ele>173</ele>
        <time>2020-08-25T11:57:12.607Z</time>
      </trkpt>
      <trkpt lat="43.95562" lon="2.19717">
        <ele>173</ele>
        <time>2020-08-25T11:57:13.607Z</time>
      </trkpt>
      <trkpt lat="43.95562" lon="2.19716">
        <ele>173</ele>
        <time>2020-08-25T11:57:14.607Z</time>
      </trkpt>
      <trkpt lat="43.95562" lon="2.19715">
        <ele>173</ele>
        <time>2020-08-25T11:57:15.607Z</time>
      </trkpt>
      <trkpt lat="43.95562" lon="2.19715">
        <ele>173</ele>
        <time>2020-08-25T11:57:16.607Z</time>
      </trkpt>
    </trkseg>
  </trk>
</gpx>